<?xml version='1.0' encoding='UTF-8'?><gpx version="1.1" creator="JPX - https://github.com/jenetics/jpx" xmlns="http://www.topografix.com/GPX/1/1"><trk><trkseg><trkpt lat="44.29969368881239" lon="8.462944544546035"><ele>13.0</ele><time>2026-04-25T07:48:35Z</time></trkpt><trkpt lat="44.299781179712795" lon="8.462762865013122"><ele>13.0</ele><time>2026-04-25T07:48:42Z</time></trkpt><trkpt lat="44.29986453839496" lon="8.4626622163345"><ele>13.0</ele><time>2026-04-25T07:48:44Z</time></trkpt><trkpt lat="44.29982051747745" lon="8.462589463577192"><ele>13.0</ele><time>2026-04-25T07:48:48.999Z</time></trkpt><trkpt lat="44.2997565882443" lon="8.462587430005327"><ele>13.0</ele><time>2026-04-25T07:48:50.999Z</time></trkpt><trkpt lat="44.2997227402306" lon="8.462665134540734"><ele>13.0</ele><time>2026-04-25T07:48:52.999Z</time></trkpt><trkpt lat="44.29965322573414" lon="8.46274416394438"><ele>13.0</ele><time>2026-04-25T07:48:54.999Z</time></trkpt><trkpt lat="44.299554785128265" lon="8.462855723363463"><ele>13.0</ele><time>2026-04-25T07:48:56.999Z</time></trkpt><trkpt lat="44.29948751573289" lon="8.462933021149983"><ele>13.0</ele><time>2026-04-25T07:48:58.999Z</time></trkpt><trkpt lat="44.299395078202714" lon="8.462811619877643"><ele>13.0</ele><time>2026-04-25T07:49:02.999Z</time></trkpt><trkpt lat="44.29931585699813" lon="8.462681772264949"><ele>12.999999999999998</ele><time>2026-04-25T07:49:04.999Z</time></trkpt><trkpt lat="44.29925892006396" lon="8.462636343287727"><ele>13.0</ele><time>2026-04-25T07:49:05.999Z</time></trkpt><trkpt lat="44.29917068800319" lon="8.462591455658405"><ele>13.0</ele><time>2026-04-25T07:49:07.999Z</time></trkpt><trkpt lat="44.29909680657637" lon="8.462552907692771"><ele>13.0</ele><time>2026-04-25T07:49:10.999Z</time></trkpt><trkpt lat="44.29901718060616" lon="8.462522320660787"><ele>12.999999999999998</ele><time>2026-04-25T07:49:19.999Z</time></trkpt><trkpt lat="44.29891829086428" lon="8.462420637651434"><ele>13.0</ele><time>2026-04-25T07:49:21.999Z</time></trkpt><trkpt lat="44.29881884860663" lon="8.46248814463849"><ele>12.333333333333332</ele><time>2026-04-25T07:49:23.999Z</time></trkpt><trkpt lat="44.29877270277745" lon="8.46263671235596"><ele>11.666666666666666</ele><time>2026-04-25T07:49:25.999Z</time></trkpt><trkpt lat="44.298730395066436" lon="8.462737916013138"><ele>11.0</ele><time>2026-04-25T07:49:26.999Z</time></trkpt><trkpt lat="44.29868431530582" lon="8.46284277492643"><ele>10.333333333333332</ele><time>2026-04-25T07:49:27.999Z</time></trkpt><trkpt lat="44.29865795873369" lon="8.462940996301999"><ele>9.666666666666666</ele><time>2026-04-25T07:49:28.999Z</time></trkpt><trkpt lat="44.29865544126971" lon="8.463055905932974"><ele>9.0</ele><time>2026-04-25T07:49:29.999Z</time></trkpt><trkpt lat="44.29867565317097" lon="8.463177069780425"><ele>8.75</ele><time>2026-04-25T07:49:30.999Z</time></trkpt><trkpt lat="44.298722303707905" lon="8.463298778518915"><ele>8.5</ele><time>2026-04-25T07:49:31.999Z</time></trkpt><trkpt lat="44.2987895500611" lon="8.46342348197809"><ele>8.25</ele><time>2026-04-25T07:49:32.999Z</time></trkpt><trkpt lat="44.298868541616336" lon="8.463550852558622"><ele>8.0</ele><time>2026-04-25T07:49:33.999Z</time></trkpt><trkpt lat="44.298955854334515" lon="8.4636937364551"><ele>8.0</ele><time>2026-04-25T07:49:34.999Z</time></trkpt><trkpt lat="44.29904572593588" lon="8.46385031091495"><ele>8.0</ele><time>2026-04-25T07:49:35.999Z</time></trkpt><trkpt lat="44.29913053251783" lon="8.464003118901685"><ele>8.0</ele><time>2026-04-25T07:49:36.999Z</time></trkpt><trkpt lat="44.2992236330485" lon="8.464170856025753"><ele>8.0</ele><time>2026-04-25T07:49:37.999Z</time></trkpt><trkpt lat="44.29932506797749" lon="8.464350685316276"><ele>8.0</ele><time>2026-04-25T07:49:38.999Z</time></trkpt><trkpt lat="44.29943104851818" lon="8.464538647573887"><ele>8.0</ele><time>2026-04-25T07:49:39.999Z</time></trkpt><trkpt lat="44.29953160079324" lon="8.464717670248193"><ele>8.0</ele><time>2026-04-25T07:49:40.999Z</time></trkpt><trkpt lat="44.29962905501673" lon="8.464890770597233"><ele>8.333333333333332</ele><time>2026-04-25T07:49:41.999Z</time></trkpt><trkpt lat="44.299731769391975" lon="8.465066400852507"><ele>8.666666666666666</ele><time>2026-04-25T07:49:42.999Z</time></trkpt><trkpt lat="44.299833771896864" lon="8.465242815260995"><ele>9.0</ele><time>2026-04-25T07:49:43.999Z</time></trkpt><trkpt lat="44.29993784272589" lon="8.465418903354827"><ele>9.0</ele><time>2026-04-25T07:49:44.999Z</time></trkpt><trkpt lat="44.30004726496345" lon="8.465594729051562"><ele>9.0</ele><time>2026-04-25T07:49:45.999Z</time></trkpt><trkpt lat="44.30017004641464" lon="8.465768708887262"><ele>9.0</ele><time>2026-04-25T07:49:46.999Z</time></trkpt><trkpt lat="44.300290403568724" lon="8.465937037369292"><ele>9.0</ele><time>2026-04-25T07:49:47.999Z</time></trkpt><trkpt lat="44.30040629392003" lon="8.466111715511508"><ele>9.0</ele><time>2026-04-25T07:49:48.999Z</time></trkpt><trkpt lat="44.300511720644316" lon="8.466286257948925"><ele>9.0</ele><time>2026-04-25T07:49:49.999Z</time></trkpt><trkpt lat="44.30061950383632" lon="8.466456333674051"><ele>9.333333333333334</ele><time>2026-04-25T07:49:50.999Z</time></trkpt><trkpt lat="44.300722589448895" lon="8.466640008423868"><ele>9.666666666666668</ele><time>2026-04-25T07:49:51.999Z</time></trkpt><trkpt lat="44.300820133231724" lon="8.466841876641825"><ele>10.0</ele><time>2026-04-25T07:49:52.999Z</time></trkpt><trkpt lat="44.30091753830155" lon="8.4670414840332"><ele>10.333333333333334</ele><time>2026-04-25T07:49:53.999Z</time></trkpt><trkpt lat="44.301021250917536" lon="8.467236982310183"><ele>10.666666666666666</ele><time>2026-04-25T07:49:54.999Z</time></trkpt><trkpt lat="44.30112451950844" lon="8.467425909687373"><ele>11.0</ele><time>2026-04-25T07:49:55.999Z</time></trkpt><trkpt lat="44.301231664896285" lon="8.467614623433914"><ele>11.0</ele><time>2026-04-25T07:49:56.999Z</time></trkpt><trkpt lat="44.3013386854047" lon="8.467800943965901"><ele>11.0</ele><time>2026-04-25T07:49:57.999Z</time></trkpt><trkpt lat="44.301440513593896" lon="8.467973347509032"><ele>11.0</ele><time>2026-04-25T07:49:58.999Z</time></trkpt><trkpt lat="44.30153087945774" lon="8.468134982711273"><ele>11.0</ele><time>2026-04-25T07:49:59.999Z</time></trkpt><trkpt lat="44.301615792151416" lon="8.468286643526634"><ele>11.0</ele><time>2026-04-25T07:50:00.999Z</time></trkpt><trkpt lat="44.30169507225414" lon="8.46842424348957"><ele>11.0</ele><time>2026-04-25T07:50:01.999Z</time></trkpt><trkpt lat="44.30177230534305" lon="8.468550061215222"><ele>11.0</ele><time>2026-04-25T07:50:02.999Z</time></trkpt><trkpt lat="44.301851458859545" lon="8.468655425577976"><ele>11.0</ele><time>2026-04-25T07:50:03.999Z</time></trkpt><trkpt lat="44.301942980948155" lon="8.468741535775342"><ele>11.0</ele><time>2026-04-25T07:50:04.999Z</time></trkpt><trkpt lat="44.302045338563026" lon="8.468802747524414"><ele>11.0</ele><time>2026-04-25T07:50:05.999Z</time></trkpt><trkpt lat="44.302241004778985" lon="8.468867071519487"><ele>11.0</ele><time>2026-04-25T07:50:07.999Z</time></trkpt><trkpt lat="44.30235197870772" lon="8.468907286531815"><ele>11.0</ele><time>2026-04-25T07:50:08.999Z</time></trkpt><trkpt lat="44.30243829645556" lon="8.468940024500752"><ele>11.0</ele><time>2026-04-25T07:50:09.999Z</time></trkpt><trkpt lat="44.30251091903859" lon="8.468966227164556"><ele>11.0</ele><time>2026-04-25T07:50:10.999Z</time></trkpt><trkpt lat="44.302573573664155" lon="8.468996375008862"><ele>11.0</ele><time>2026-04-25T07:50:11.999Z</time></trkpt><trkpt lat="44.30266132678177" lon="8.469104294050734"><ele>11.0</ele><time>2026-04-25T07:50:13.999Z</time></trkpt><trkpt lat="44.30262095814632" lon="8.469400549629226"><ele>11.0</ele><time>2026-04-25T07:50:16.999Z</time></trkpt><trkpt lat="44.30262210399766" lon="8.469537950698667"><ele>11.0</ele><time>2026-04-25T07:50:17.999Z</time></trkpt><trkpt lat="44.30260451213603" lon="8.469717033991678"><ele>11.0</ele><time>2026-04-25T07:50:18.999Z</time></trkpt><trkpt lat="44.302588751802524" lon="8.46985033385209"><ele>11.0</ele><time>2026-04-25T07:50:19.999Z</time></trkpt><trkpt lat="44.302575442885335" lon="8.4699689417122"><ele>11.0</ele><time>2026-04-25T07:50:20.999Z</time></trkpt><trkpt lat="44.302550295906215" lon="8.470075946206958"><ele>11.600000000000001</ele><time>2026-04-25T07:50:21.999Z</time></trkpt><trkpt lat="44.302535892691374" lon="8.470185162897865"><ele>12.2</ele><time>2026-04-25T07:50:22.999Z</time></trkpt><trkpt lat="44.30254533360128" lon="8.470295321545615"><ele>12.799999999999999</ele><time>2026-04-25T07:50:23.999Z</time></trkpt><trkpt lat="44.30257742928126" lon="8.470421723877328"><ele>13.399999999999999</ele><time>2026-04-25T07:50:24.999Z</time></trkpt><trkpt lat="44.302620937232106" lon="8.470560046581747"><ele>14.0</ele><time>2026-04-25T07:50:25.999Z</time></trkpt><trkpt lat="44.30266076960823" lon="8.470715849291746"><ele>14.25</ele><time>2026-04-25T07:50:26.999Z</time></trkpt><trkpt lat="44.302697029955795" lon="8.470896216412823"><ele>14.5</ele><time>2026-04-25T07:50:27.999Z</time></trkpt><trkpt lat="44.302737854689624" lon="8.471093347702364"><ele>14.75</ele><time>2026-04-25T07:50:28.999Z</time></trkpt><trkpt lat="44.302778953784276" lon="8.47129114795335"><ele>15.0</ele><time>2026-04-25T07:50:29.999Z</time></trkpt><trkpt lat="44.30281709029829" lon="8.471482534689386"><ele>15.0</ele><time>2026-04-25T07:50:30.999Z</time></trkpt><trkpt lat="44.30286209460067" lon="8.47168162276889"><ele>15.0</ele><time>2026-04-25T07:50:31.999Z</time></trkpt><trkpt lat="44.302902147265314" lon="8.471882847607553"><ele>15.0</ele><time>2026-04-25T07:50:32.999Z</time></trkpt><trkpt lat="44.3029445276716" lon="8.472064710004556"><ele>15.0</ele><time>2026-04-25T07:50:33.999Z</time></trkpt><trkpt lat="44.30297975187624" lon="8.472230470037509"><ele>14.5</ele><time>2026-04-25T07:50:34.999Z</time></trkpt><trkpt lat="44.30301182269006" lon="8.47238427018226"><ele>14.0</ele><time>2026-04-25T07:50:35.999Z</time></trkpt><trkpt lat="44.30304142748296" lon="8.472550189586087"><ele>13.5</ele><time>2026-04-25T07:50:36.999Z</time></trkpt><trkpt lat="44.303073668915594" lon="8.472711951534311"><ele>13.0</ele><time>2026-04-25T07:50:37.999Z</time></trkpt><trkpt lat="44.303103639172534" lon="8.472876446633881"><ele>13.25</ele><time>2026-04-25T07:50:38.999Z</time></trkpt><trkpt lat="44.3031392204342" lon="8.47304792473017"><ele>13.5</ele><time>2026-04-25T07:50:39.999Z</time></trkpt><trkpt lat="44.3031776363569" lon="8.473237017299953"><ele>13.75</ele><time>2026-04-25T07:50:40.996Z</time></trkpt><trkpt lat="44.303220982208835" lon="8.473439609659353"><ele>14.0</ele><time>2026-04-25T07:50:41.996Z</time></trkpt><trkpt lat="44.30325853198076" lon="8.4736253995231"><ele>14.0</ele><time>2026-04-25T07:50:42.996Z</time></trkpt><trkpt lat="44.30329305031451" lon="8.473804928968562"><ele>14.0</ele><time>2026-04-25T07:50:43.996Z</time></trkpt><trkpt lat="44.303324200160006" lon="8.473962334830532"><ele>14.0</ele><time>2026-04-25T07:50:44.996Z</time></trkpt><trkpt lat="44.303354425985496" lon="8.474121592725194"><ele>14.0</ele><time>2026-04-25T07:50:45.996Z</time></trkpt><trkpt lat="44.30338832257713" lon="8.474285284828541"><ele>14.0</ele><time>2026-04-25T07:50:46.996Z</time></trkpt><trkpt lat="44.303420715398005" lon="8.474464355260839"><ele>14.0</ele><time>2026-04-25T07:50:47.996Z</time></trkpt><trkpt lat="44.30346475224661" lon="8.474636537164642"><ele>14.0</ele><time>2026-04-25T07:50:48.997Z</time></trkpt><trkpt lat="44.30350607548763" lon="8.474813282906227"><ele>14.0</ele><time>2026-04-25T07:50:49.997Z</time></trkpt><trkpt lat="44.30354335593668" lon="8.474985191206025"><ele>13.799999999999999</ele><time>2026-04-25T07:50:50.997Z</time></trkpt><trkpt lat="44.3035707678495" lon="8.475139046451401"><ele>13.599999999999998</ele><time>2026-04-25T07:50:51.997Z</time></trkpt><trkpt lat="44.30360454760664" lon="8.475275825158418"><ele>13.4</ele><time>2026-04-25T07:50:52.997Z</time></trkpt><trkpt lat="44.303647254340866" lon="8.475389307736595"><ele>13.2</ele><time>2026-04-25T07:50:53.997Z</time></trkpt><trkpt lat="44.30367429797794" lon="8.475495773821915"><ele>13.0</ele><time>2026-04-25T07:50:54.997Z</time></trkpt><trkpt lat="44.30370829125418" lon="8.475593751127798"><ele>12.999999999999998</ele><time>2026-04-25T07:50:55.997Z</time></trkpt><trkpt lat="44.30373162906021" lon="8.475679985394768"><ele>13.0</ele><time>2026-04-25T07:50:56.997Z</time></trkpt><trkpt lat="44.30376042417428" lon="8.47580359746417"><ele>13.0</ele><time>2026-04-25T07:50:58.997Z</time></trkpt><trkpt lat="44.30370244508046" lon="8.47586306218831"><ele>13.0</ele><time>2026-04-25T07:51:00.997Z</time></trkpt><trkpt lat="44.30378021543215" lon="8.475815100137286"><ele>12.999999999999998</ele><time>2026-04-25T07:51:01.997Z</time></trkpt><trkpt lat="44.303697560793" lon="8.475835736586816"><ele>13.0</ele><time>2026-04-25T07:51:08.998Z</time></trkpt><trkpt lat="44.30371850817419" lon="8.475952928683606"><ele>13.0</ele><time>2026-04-25T07:51:11.998Z</time></trkpt><trkpt lat="44.30373409615759" lon="8.476058526384117"><ele>13.0</ele><time>2026-04-25T07:51:12.998Z</time></trkpt><trkpt lat="44.3037421685681" lon="8.476175028972042"><ele>13.0</ele><time>2026-04-25T07:51:13.998Z</time></trkpt><trkpt lat="44.3037737588518" lon="8.476295318370285"><ele>13.0</ele><time>2026-04-25T07:51:14.998Z</time></trkpt><trkpt lat="44.30379804125633" lon="8.476415886218442"><ele>13.0</ele><time>2026-04-25T07:51:15.998Z</time></trkpt><trkpt lat="44.30382804440474" lon="8.476562423583012"><ele>12.75</ele><time>2026-04-25T07:51:16.998Z</time></trkpt><trkpt lat="44.30386556162262" lon="8.476742013438438"><ele>12.5</ele><time>2026-04-25T07:51:17.998Z</time></trkpt><trkpt lat="44.30389817391264" lon="8.476898310458932"><ele>12.25</ele><time>2026-04-25T07:51:18.998Z</time></trkpt><trkpt lat="44.303926281433455" lon="8.477031859091936"><ele>12.0</ele><time>2026-04-25T07:51:19.998Z</time></trkpt><trkpt lat="44.30395543001987" lon="8.477169343823235"><ele>11.4</ele><time>2026-04-25T07:51:20.998Z</time></trkpt><trkpt lat="44.30398649629981" lon="8.477315873705003"><ele>10.799999999999999</ele><time>2026-04-25T07:51:21.998Z</time></trkpt><trkpt lat="44.304017743845584" lon="8.477461431254968"><ele>10.2</ele><time>2026-04-25T07:51:22.998Z</time></trkpt><trkpt lat="44.30404779760964" lon="8.4776007767864"><ele>9.6</ele><time>2026-04-25T07:51:23.998Z</time></trkpt><trkpt lat="44.3040742816911" lon="8.477724569240554"><ele>9.0</ele><time>2026-04-25T07:51:24.998Z</time></trkpt><trkpt lat="44.30410137469714" lon="8.47784379345712"><ele>8.833333333333334</ele><time>2026-04-25T07:51:25.998Z</time></trkpt><trkpt lat="44.30412540980105" lon="8.477951145660676"><ele>8.666666666666666</ele><time>2026-04-25T07:51:26.998Z</time></trkpt><trkpt lat="44.304148195291454" lon="8.478054418993914"><ele>8.5</ele><time>2026-04-25T07:51:27.998Z</time></trkpt><trkpt lat="44.304169545829424" lon="8.478151188528653"><ele>8.333333333333332</ele><time>2026-04-25T07:51:28.998Z</time></trkpt><trkpt lat="44.30418902922739" lon="8.478239261609177"><ele>8.166666666666666</ele><time>2026-04-25T07:51:29.998Z</time></trkpt><trkpt lat="44.30428032448374" lon="8.47839495507431"><ele>8.0</ele><time>2026-04-25T07:51:31.998Z</time></trkpt><trkpt lat="44.304301928773384" lon="8.478501691848429"><ele>7.999999999999999</ele><time>2026-04-25T07:51:32.998Z</time></trkpt><trkpt lat="44.30432145066902" lon="8.478619302016858"><ele>8.0</ele><time>2026-04-25T07:51:33.998Z</time></trkpt><trkpt lat="44.304339970335676" lon="8.478729722279935"><ele>8.0</ele><time>2026-04-25T07:51:34.998Z</time></trkpt><trkpt lat="44.304321977793116" lon="8.478845438585447"><ele>8.0</ele><time>2026-04-25T07:51:35.998Z</time></trkpt><trkpt lat="44.30434286003194" lon="8.478942204113844"><ele>7.999999999999999</ele><time>2026-04-25T07:51:36.998Z</time></trkpt><trkpt lat="44.30439520830641" lon="8.479032961310743"><ele>8.0</ele><time>2026-04-25T07:51:37.998Z</time></trkpt><trkpt lat="44.30441901249261" lon="8.4791461498159"><ele>9.25</ele><time>2026-04-25T07:51:38.998Z</time></trkpt><trkpt lat="44.30444355674196" lon="8.479278639931088"><ele>10.5</ele><time>2026-04-25T07:51:39.998Z</time></trkpt><trkpt lat="44.30447234825411" lon="8.479425496581037"><ele>11.75</ele><time>2026-04-25T07:51:40.998Z</time></trkpt><trkpt lat="44.30450568237557" lon="8.479586223608372"><ele>13.0</ele><time>2026-04-25T07:51:41.998Z</time></trkpt><trkpt lat="44.30451124083362" lon="8.479762886359556"><ele>13.4</ele><time>2026-04-25T07:51:42.998Z</time></trkpt><trkpt lat="44.304568194268825" lon="8.479902264821169"><ele>13.8</ele><time>2026-04-25T07:51:43.998Z</time></trkpt><trkpt lat="44.3045981636477" lon="8.48003781541307"><ele>14.2</ele><time>2026-04-25T07:51:44.998Z</time></trkpt><trkpt lat="44.30462714330562" lon="8.480166807477017"><ele>14.6</ele><time>2026-04-25T07:51:45.998Z</time></trkpt><trkpt lat="44.304653340981375" lon="8.480306558537269"><ele>15.0</ele><time>2026-04-25T07:51:46.998Z</time></trkpt><trkpt lat="44.304684430122" lon="8.480458912796662"><ele>15.0</ele><time>2026-04-25T07:51:47.998Z</time></trkpt><trkpt lat="44.304714791206344" lon="8.480619696555268"><ele>15.0</ele><time>2026-04-25T07:51:48.998Z</time></trkpt><trkpt lat="44.30475104013825" lon="8.480782160547673"><ele>15.0</ele><time>2026-04-25T07:51:49.998Z</time></trkpt><trkpt lat="44.30475188022695" lon="8.48095052471804"><ele>15.0</ele><time>2026-04-25T07:51:50.998Z</time></trkpt><trkpt lat="44.304811886295234" lon="8.481095297485785"><ele>14.2</ele><time>2026-04-25T07:51:51.998Z</time></trkpt><trkpt lat="44.304843440029885" lon="8.48124424285982"><ele>13.4</ele><time>2026-04-25T07:51:52.998Z</time></trkpt><trkpt lat="44.304873840078145" lon="8.481389063960982"><ele>12.600000000000001</ele><time>2026-04-25T07:51:53.998Z</time></trkpt><trkpt lat="44.30489806351491" lon="8.481520572963735"><ele>11.8</ele><time>2026-04-25T07:51:54.998Z</time></trkpt><trkpt lat="44.304919925605176" lon="8.481635918412385"><ele>11.0</ele><time>2026-04-25T07:51:55.998Z</time></trkpt><trkpt lat="44.304937155439255" lon="8.481749121123483"><ele>10.8</ele><time>2026-04-25T07:51:56.998Z</time></trkpt><trkpt lat="44.30495764567985" lon="8.481863877877245"><ele>10.600000000000001</ele><time>2026-04-25T07:51:57.998Z</time></trkpt><trkpt lat="44.30498161954605" lon="8.481984500758998"><ele>10.4</ele><time>2026-04-25T07:51:58.998Z</time></trkpt><trkpt lat="44.304985844086204" lon="8.482122920392978"><ele>10.2</ele><time>2026-04-25T07:51:59.998Z</time></trkpt><trkpt lat="44.30505154435371" lon="8.482227934919313"><ele>10.0</ele><time>2026-04-25T07:52:00.998Z</time></trkpt><trkpt lat="44.30510369244339" lon="8.4823666974824"><ele>10.0</ele><time>2026-04-25T07:52:01.998Z</time></trkpt><trkpt lat="44.305170401223776" lon="8.48248298352984"><ele>10.0</ele><time>2026-04-25T07:52:02.998Z</time></trkpt><trkpt lat="44.305226917891005" lon="8.482583960555893"><ele>10.0</ele><time>2026-04-25T07:52:03.998Z</time></trkpt><trkpt lat="44.305281627305796" lon="8.482681204557501"><ele>10.0</ele><time>2026-04-25T07:52:04.998Z</time></trkpt><trkpt lat="44.305340434810624" lon="8.482785732505508"><ele>10.0</ele><time>2026-04-25T07:52:05.998Z</time></trkpt><trkpt lat="44.30540303820323" lon="8.482897039843929"><ele>9.75</ele><time>2026-04-25T07:52:06.998Z</time></trkpt><trkpt lat="44.30546810767142" lon="8.483012725510608"><ele>9.5</ele><time>2026-04-25T07:52:07.998Z</time></trkpt><trkpt lat="44.305541965289585" lon="8.483144035452892"><ele>9.25</ele><time>2026-04-25T07:52:08.998Z</time></trkpt><trkpt lat="44.30561866890807" lon="8.48327997951915"><ele>9.0</ele><time>2026-04-25T07:52:09.998Z</time></trkpt><trkpt lat="44.30568274885112" lon="8.483393741814657"><ele>9.0</ele><time>2026-04-25T07:52:10.998Z</time></trkpt><trkpt lat="44.30575139194447" lon="8.483480717007524"><ele>9.0</ele><time>2026-04-25T07:52:11.998Z</time></trkpt><trkpt lat="44.30579017637566" lon="8.48358484973197"><ele>9.0</ele><time>2026-04-25T07:52:12.998Z</time></trkpt><trkpt lat="44.305849627260905" lon="8.48365336589669"><ele>9.0</ele><time>2026-04-25T07:52:13.998Z</time></trkpt><trkpt lat="44.3058874511156" lon="8.48373690927615"><ele>9.0</ele><time>2026-04-25T07:52:14.998Z</time></trkpt><trkpt lat="44.30591272417948" lon="8.483818538850137"><ele>9.0</ele><time>2026-04-25T07:52:15.998Z</time></trkpt><trkpt lat="44.30591017440539" lon="8.483943956689536"><ele>8.8</ele><time>2026-04-25T07:52:17.998Z</time></trkpt><trkpt lat="44.30588204364661" lon="8.484053321229387"><ele>8.600000000000001</ele><time>2026-04-25T07:52:19.998Z</time></trkpt><trkpt lat="44.305842353356546" lon="8.484164605249529"><ele>8.4</ele><time>2026-04-25T07:52:21.998Z</time></trkpt><trkpt lat="44.30594168766003" lon="8.484314898360722"><ele>8.200000000000001</ele><time>2026-04-25T07:52:24.998Z</time></trkpt><trkpt lat="44.30601425425828" lon="8.484282165256767"><ele>8.0</ele><time>2026-04-25T07:52:25.998Z</time></trkpt><trkpt lat="44.306083237646455" lon="8.484267585990585"><ele>8.0</ele><time>2026-04-25T07:52:26.998Z</time></trkpt><trkpt lat="44.30615851895421" lon="8.484273561774534"><ele>7.999999999999999</ele><time>2026-04-25T07:52:27.998Z</time></trkpt><trkpt lat="44.30621792351273" lon="8.484313844209764"><ele>8.0</ele><time>2026-04-25T07:52:28.998Z</time></trkpt><trkpt lat="44.306261912473" lon="8.48437807487983"><ele>8.0</ele><time>2026-04-25T07:52:29.998Z</time></trkpt><trkpt lat="44.30631004785899" lon="8.484449514749043"><ele>7.999999999999999</ele><time>2026-04-25T07:52:30.998Z</time></trkpt><trkpt lat="44.306363342143065" lon="8.48451991138431"><ele>8.0</ele><time>2026-04-25T07:52:31.998Z</time></trkpt><trkpt lat="44.30642032880524" lon="8.48459603793571"><ele>8.0</ele><time>2026-04-25T07:52:32.998Z</time></trkpt><trkpt lat="44.30647696888026" lon="8.484669054547442"><ele>7.999999999999999</ele><time>2026-04-25T07:52:33.998Z</time></trkpt><trkpt lat="44.30652839861491" lon="8.484730006253095"><ele>8.0</ele><time>2026-04-25T07:52:34.998Z</time></trkpt><trkpt lat="44.306581267410365" lon="8.484790269305488"><ele>8.0</ele><time>2026-04-25T07:52:35.998Z</time></trkpt><trkpt lat="44.30668482271616" lon="8.484892986907147"><ele>8.0</ele><time>2026-04-25T07:52:37.998Z</time></trkpt><trkpt lat="44.30674228737559" lon="8.484947522236567"><ele>7.999999999999999</ele><time>2026-04-25T07:52:38.998Z</time></trkpt><trkpt lat="44.30680260816754" lon="8.484999793325875"><ele>8.0</ele><time>2026-04-25T07:52:39.998Z</time></trkpt><trkpt lat="44.30686578063351" lon="8.485051849428267"><ele>7.999999999999999</ele><time>2026-04-25T07:52:40.998Z</time></trkpt><trkpt lat="44.306940362818125" lon="8.485101837979855"><ele>8.0</ele><time>2026-04-25T07:52:41.998Z</time></trkpt><trkpt lat="44.307021896477686" lon="8.485145966104627"><ele>8.0</ele><time>2026-04-25T07:52:42.998Z</time></trkpt><trkpt lat="44.30711845715391" lon="8.485191340641531"><ele>8.0</ele><time>2026-04-25T07:52:43.998Z</time></trkpt><trkpt lat="44.30720488258142" lon="8.485211832299838"><ele>7.999999999999999</ele><time>2026-04-25T07:52:44.998Z</time></trkpt><trkpt lat="44.30728703928063" lon="8.485218859560007"><ele>8.0</ele><time>2026-04-25T07:52:45.998Z</time></trkpt><trkpt lat="44.307367325269844" lon="8.4852327639253"><ele>7.833333333333333</ele><time>2026-04-25T07:52:46.996Z</time></trkpt><trkpt lat="44.30743549675107" lon="8.485193976721778"><ele>7.666666666666666</ele><time>2026-04-25T07:52:47.996Z</time></trkpt><trkpt lat="44.30749719032826" lon="8.485164940665868"><ele>7.5</ele><time>2026-04-25T07:52:48.996Z</time></trkpt><trkpt lat="44.30759551172983" lon="8.485103357823157"><ele>7.333333333333334</ele><time>2026-04-25T07:52:50.996Z</time></trkpt><trkpt lat="44.307673905488436" lon="8.485047846695604"><ele>7.166666666666667</ele><time>2026-04-25T07:52:52.996Z</time></trkpt><trkpt lat="44.30776502290235" lon="8.484969466575945"><ele>7.0</ele><time>2026-04-25T07:52:54.996Z</time></trkpt><trkpt lat="44.3078676269995" lon="8.484881834889684"><ele>7.0</ele><time>2026-04-25T07:52:56.997Z</time></trkpt><trkpt lat="44.307978531235214" lon="8.484797317200513"><ele>6.999999999999999</ele><time>2026-04-25T07:52:58.997Z</time></trkpt><trkpt lat="44.30806940516394" lon="8.48473412162173"><ele>6.999999999999999</ele><time>2026-04-25T07:53:00.997Z</time></trkpt><trkpt lat="44.30815195412067" lon="8.484715167450641"><ele>7.0</ele><time>2026-04-25T07:53:03.997Z</time></trkpt><trkpt lat="44.308222488952396" lon="8.484664803772377"><ele>7.0</ele><time>2026-04-25T07:53:13.998Z</time></trkpt><trkpt lat="44.30835818739034" lon="8.484629452701881"><ele>6.666666666666667</ele><time>2026-04-25T07:53:15.998Z</time></trkpt><trkpt lat="44.30844435233251" lon="8.48461504802233"><ele>6.333333333333334</ele><time>2026-04-25T07:53:16.998Z</time></trkpt><trkpt lat="44.308530314572884" lon="8.48460662278163"><ele>6.0</ele><time>2026-04-25T07:53:17.998Z</time></trkpt><trkpt lat="44.30862621861905" lon="8.484601406310555"><ele>5.666666666666667</ele><time>2026-04-25T07:53:18.998Z</time></trkpt><trkpt lat="44.308724895818735" lon="8.484603834646343"><ele>5.333333333333334</ele><time>2026-04-25T07:53:19.998Z</time></trkpt><trkpt lat="44.308803296446634" lon="8.484623453652423"><ele>5.0</ele><time>2026-04-25T07:53:20.998Z</time></trkpt><trkpt lat="44.30887333928905" lon="8.484642780777948"><ele>5.0</ele><time>2026-04-25T07:53:21.998Z</time></trkpt><trkpt lat="44.30893504989402" lon="8.484666626493253"><ele>5.0</ele><time>2026-04-25T07:53:22.998Z</time></trkpt><trkpt lat="44.30903699434199" lon="8.484712867977926"><ele>5.0</ele><time>2026-04-25T07:53:24.998Z</time></trkpt><trkpt lat="44.30911263867096" lon="8.484745444228702"><ele>5.0</ele><time>2026-04-25T07:53:26.998Z</time></trkpt><trkpt lat="44.30918939686008" lon="8.484779718171245"><ele>5.0</ele><time>2026-04-25T07:53:29.998Z</time></trkpt><trkpt lat="44.3093072891805" lon="8.484806046720081"><ele>5.0</ele><time>2026-04-25T07:53:31.998Z</time></trkpt><trkpt lat="44.30939631342783" lon="8.484825078032605"><ele>5.0</ele><time>2026-04-25T07:53:32.998Z</time></trkpt><trkpt lat="44.309484577680195" lon="8.484849765367278"><ele>5.0</ele><time>2026-04-25T07:53:33.998Z</time></trkpt><trkpt lat="44.309580231588505" lon="8.484871746289654"><ele>5.0</ele><time>2026-04-25T07:53:34.998Z</time></trkpt><trkpt lat="44.30967967969875" lon="8.48488205027364"><ele>5.0</ele><time>2026-04-25T07:53:35.998Z</time></trkpt><trkpt lat="44.30976399082982" lon="8.484900839016762"><ele>5.333333333333334</ele><time>2026-04-25T07:53:36.998Z</time></trkpt><trkpt lat="44.30984539410478" lon="8.48494432545293"><ele>5.666666666666667</ele><time>2026-04-25T07:53:37.998Z</time></trkpt><trkpt lat="44.309920832295646" lon="8.484993056798068"><ele>6.0</ele><time>2026-04-25T07:53:38.998Z</time></trkpt><trkpt lat="44.30999334687987" lon="8.48505450998406"><ele>6.333333333333334</ele><time>2026-04-25T07:53:39.998Z</time></trkpt><trkpt lat="44.31007496042051" lon="8.485111419439088"><ele>6.666666666666667</ele><time>2026-04-25T07:53:40.998Z</time></trkpt><trkpt lat="44.31015635362089" lon="8.485167147214609"><ele>7.0</ele><time>2026-04-25T07:53:41.998Z</time></trkpt><trkpt lat="44.310235521338704" lon="8.48522640509763"><ele>7.0</ele><time>2026-04-25T07:53:42.998Z</time></trkpt><trkpt lat="44.31031591345269" lon="8.485287646754154"><ele>6.999999999999999</ele><time>2026-04-25T07:53:43.998Z</time></trkpt><trkpt lat="44.31039915461989" lon="8.485355363339092"><ele>6.999999999999999</ele><time>2026-04-25T07:53:44.998Z</time></trkpt><trkpt lat="44.31047195459097" lon="8.485455101510894"><ele>7.0</ele><time>2026-04-25T07:53:45.998Z</time></trkpt><trkpt lat="44.3105607512758" lon="8.485529965302955"><ele>7.0</ele><time>2026-04-25T07:53:46.998Z</time></trkpt><trkpt lat="44.31065708827426" lon="8.485611186267349"><ele>7.3999999999999995</ele><time>2026-04-25T07:53:47.998Z</time></trkpt><trkpt lat="44.31074698077153" lon="8.485686973932571"><ele>7.799999999999999</ele><time>2026-04-25T07:53:48.998Z</time></trkpt><trkpt lat="44.310835148181965" lon="8.485761307152606"><ele>8.2</ele><time>2026-04-25T07:53:49.998Z</time></trkpt><trkpt lat="44.31092112750241" lon="8.485833795643343"><ele>8.6</ele><time>2026-04-25T07:53:50.998Z</time></trkpt><trkpt lat="44.311008210061054" lon="8.485907456879591"><ele>9.0</ele><time>2026-04-25T07:53:51.998Z</time></trkpt><trkpt lat="44.311097086597606" lon="8.485983762398616"><ele>9.0</ele><time>2026-04-25T07:53:52.998Z</time></trkpt><trkpt lat="44.311183998380216" lon="8.486059120459272"><ele>9.0</ele><time>2026-04-25T07:53:53.998Z</time></trkpt><trkpt lat="44.31127635350807" lon="8.486121699174582"><ele>9.0</ele><time>2026-04-25T07:53:54.998Z</time></trkpt><trkpt lat="44.31135576430696" lon="8.486208893916858"><ele>9.0</ele><time>2026-04-25T07:53:55.998Z</time></trkpt><trkpt lat="44.31142346728012" lon="8.486314235181545"><ele>9.0</ele><time>2026-04-25T07:53:56.998Z</time></trkpt><trkpt lat="44.3114967225304" lon="8.486401141522926"><ele>9.0</ele><time>2026-04-25T07:53:57.998Z</time></trkpt><trkpt lat="44.311567774166825" lon="8.486485433552371"><ele>9.0</ele><time>2026-04-25T07:53:58.998Z</time></trkpt><trkpt lat="44.311643328954545" lon="8.486550574565882"><ele>9.0</ele><time>2026-04-25T07:53:59.998Z</time></trkpt><trkpt lat="44.31170579347565" lon="8.486638260492722"><ele>9.0</ele><time>2026-04-25T07:54:00.998Z</time></trkpt><trkpt lat="44.31176456729552" lon="8.48672703456404"><ele>9.0</ele><time>2026-04-25T07:54:01.998Z</time></trkpt><trkpt lat="44.311817114110305" lon="8.486819713222955"><ele>9.0</ele><time>2026-04-25T07:54:02.998Z</time></trkpt><trkpt lat="44.31186752636544" lon="8.486913647083252"><ele>9.0</ele><time>2026-04-25T07:54:03.998Z</time></trkpt><trkpt lat="44.31192039000226" lon="8.487005009781562"><ele>9.0</ele><time>2026-04-25T07:54:04.998Z</time></trkpt><trkpt lat="44.31197083279437" lon="8.48709707152352"><ele>9.0</ele><time>2026-04-25T07:54:05.998Z</time></trkpt><trkpt lat="44.31202158884673" lon="8.487187193916151"><ele>9.0</ele><time>2026-04-25T07:54:06.998Z</time></trkpt><trkpt lat="44.31207086497937" lon="8.487277503780632"><ele>9.0</ele><time>2026-04-25T07:54:07.998Z</time></trkpt><trkpt lat="44.312120198456334" lon="8.487365047289975"><ele>9.0</ele><time>2026-04-25T07:54:08.998Z</time></trkpt><trkpt lat="44.31217072569216" lon="8.487448550730116"><ele>8.2</ele><time>2026-04-25T07:54:09.998Z</time></trkpt><trkpt lat="44.31222808470854" lon="8.487527138784953"><ele>7.4</ele><time>2026-04-25T07:54:10.998Z</time></trkpt><trkpt lat="44.31230237594898" lon="8.487592559127677"><ele>6.6</ele><time>2026-04-25T07:54:11.998Z</time></trkpt><trkpt lat="44.312389391819956" lon="8.48765633931964"><ele>5.8</ele><time>2026-04-25T07:54:12.998Z</time></trkpt><trkpt lat="44.31249046580305" lon="8.487702481134235"><ele>5.0</ele><time>2026-04-25T07:54:13.998Z</time></trkpt><trkpt lat="44.31259757936729" lon="8.487726422487418"><ele>8.0</ele><time>2026-04-25T07:54:14.998Z</time></trkpt><trkpt lat="44.31270628458185" lon="8.487727139516457"><ele>11.0</ele><time>2026-04-25T07:54:15.998Z</time></trkpt><trkpt lat="44.31280446877253" lon="8.487721916622405"><ele>14.0</ele><time>2026-04-25T07:54:16.998Z</time></trkpt><trkpt lat="44.312896651247634" lon="8.487726878682308"><ele>17.0</ele><time>2026-04-25T07:54:17.998Z</time></trkpt><trkpt lat="44.31298137235391" lon="8.487722967742165"><ele>20.0</ele><time>2026-04-25T07:54:18.998Z</time></trkpt><trkpt lat="44.31306033573464" lon="8.487721067044845"><ele>22.0</ele><time>2026-04-25T07:54:19.998Z</time></trkpt><trkpt lat="44.31313303984724" lon="8.487721385387129"><ele>24.0</ele><time>2026-04-25T07:54:20.998Z</time></trkpt><trkpt lat="44.31320465224538" lon="8.487719907106987"><ele>26.0</ele><time>2026-04-25T07:54:21.998Z</time></trkpt><trkpt lat="44.31328077055075" lon="8.487721161293027"><ele>28.0</ele><time>2026-04-25T07:54:22.998Z</time></trkpt><trkpt lat="44.31335988625923" lon="8.487728597357476"><ele>29.999999999999996</ele><time>2026-04-25T07:54:23.998Z</time></trkpt><trkpt lat="44.31344174954122" lon="8.487751259709501"><ele>32.0</ele><time>2026-04-25T07:54:24.998Z</time></trkpt><trkpt lat="44.31352230816917" lon="8.487789603145934"><ele>31.999999999999996</ele><time>2026-04-25T07:54:25.998Z</time></trkpt><trkpt lat="44.313599947591186" lon="8.487838085866443"><ele>32.0</ele><time>2026-04-25T07:54:26.998Z</time></trkpt><trkpt lat="44.31367205413477" lon="8.48789165164523"><ele>32.0</ele><time>2026-04-25T07:54:27.999Z</time></trkpt><trkpt lat="44.31373943686698" lon="8.48795997238262"><ele>32.0</ele><time>2026-04-25T07:54:28.999Z</time></trkpt><trkpt lat="44.31380448327742" lon="8.488039637297083"><ele>31.999999999999996</ele><time>2026-04-25T07:54:29.999Z</time></trkpt><trkpt lat="44.3138717990174" lon="8.488122913787205"><ele>32.0</ele><time>2026-04-25T07:54:30.999Z</time></trkpt><trkpt lat="44.313941015658884" lon="8.488216686572336"><ele>26.8</ele><time>2026-04-25T07:54:31.999Z</time></trkpt><trkpt lat="44.31401339370738" lon="8.488325187501088"><ele>21.6</ele><time>2026-04-25T07:54:32.999Z</time></trkpt><trkpt lat="44.31409169606017" lon="8.488435012013943"><ele>16.4</ele><time>2026-04-25T07:54:33.999Z</time></trkpt><trkpt lat="44.31417315401869" lon="8.488546792407147"><ele>11.2</ele><time>2026-04-25T07:54:34.999Z</time></trkpt><trkpt lat="44.31425357813003" lon="8.488662038694917"><ele>6.0</ele><time>2026-04-25T07:54:35.999Z</time></trkpt><trkpt lat="44.31433164139594" lon="8.488782065477322"><ele>5.3999999999999995</ele><time>2026-04-25T07:54:36.999Z</time></trkpt><trkpt lat="44.31440670722664" lon="8.48889964877957"><ele>4.8</ele><time>2026-04-25T07:54:37.999Z</time></trkpt><trkpt lat="44.314476885397056" lon="8.489021685138542"><ele>4.199999999999999</ele><time>2026-04-25T07:54:38.999Z</time></trkpt><trkpt lat="44.31453698770852" lon="8.489151543097563"><ele>3.5999999999999996</ele><time>2026-04-25T07:54:39.999Z</time></trkpt><trkpt lat="44.314590860024666" lon="8.489291728836706"><ele>3.0</ele><time>2026-04-25T07:54:40.999Z</time></trkpt><trkpt lat="44.31463786617176" lon="8.48943564857566"><ele>3.0</ele><time>2026-04-25T07:54:41.999Z</time></trkpt><trkpt lat="44.31468617423657" lon="8.489574487541784"><ele>3.0</ele><time>2026-04-25T07:54:42.999Z</time></trkpt><trkpt lat="44.31473314360735" lon="8.489706747217438"><ele>3.0</ele><time>2026-04-25T07:54:43.999Z</time></trkpt><trkpt lat="44.31478544988995" lon="8.489830788578335"><ele>3.0</ele><time>2026-04-25T07:54:44.999Z</time></trkpt><trkpt lat="44.31482771053561" lon="8.489962148402649"><ele>3.0</ele><time>2026-04-25T07:54:45.999Z</time></trkpt><trkpt lat="44.31487391065398" lon="8.49008990163312"><ele>5.4</ele><time>2026-04-25T07:54:46.999Z</time></trkpt><trkpt lat="44.31494938456779" lon="8.490172975475833"><ele>7.8</ele><time>2026-04-25T07:54:47.999Z</time></trkpt><trkpt lat="44.31507904023305" lon="8.490209031748622"><ele>10.2</ele><time>2026-04-25T07:54:48.999Z</time></trkpt><trkpt lat="44.315168411161046" lon="8.490287304457274"><ele>12.6</ele><time>2026-04-25T07:54:49.999Z</time></trkpt><trkpt lat="44.315270977866916" lon="8.490349455076023"><ele>15.0</ele><time>2026-04-25T07:54:50.999Z</time></trkpt><trkpt lat="44.315376674859934" lon="8.490403973639019"><ele>14.25</ele><time>2026-04-25T07:54:51.999Z</time></trkpt><trkpt lat="44.31548624571847" lon="8.490451942328056"><ele>13.5</ele><time>2026-04-25T07:54:52.997Z</time></trkpt><trkpt lat="44.31559294992443" lon="8.490509980672861"><ele>12.75</ele><time>2026-04-25T07:54:53.997Z</time></trkpt><trkpt lat="44.315698329125205" lon="8.49056203288457"><ele>12.0</ele><time>2026-04-25T07:54:54.997Z</time></trkpt><trkpt lat="44.31580177297671" lon="8.490624809552688"><ele>12.0</ele><time>2026-04-25T07:54:55.997Z</time></trkpt><trkpt lat="44.315900416795735" lon="8.490690071812113"><ele>12.0</ele><time>2026-04-25T07:54:56.997Z</time></trkpt><trkpt lat="44.315985775741815" lon="8.490761136613463"><ele>12.0</ele><time>2026-04-25T07:54:57.997Z</time></trkpt><trkpt lat="44.316071782746654" lon="8.490836364569809"><ele>12.0</ele><time>2026-04-25T07:54:58.997Z</time></trkpt><trkpt lat="44.316156562032724" lon="8.490917541509877"><ele>12.0</ele><time>2026-04-25T07:54:59.997Z</time></trkpt><trkpt lat="44.31623505893897" lon="8.491004968823804"><ele>12.0</ele><time>2026-04-25T07:55:00.997Z</time></trkpt><trkpt lat="44.316316141345176" lon="8.491099548251059"><ele>12.0</ele><time>2026-04-25T07:55:01.997Z</time></trkpt><trkpt lat="44.31643061715527" lon="8.491222916334989"><ele>12.0</ele><time>2026-04-25T07:55:02.997Z</time></trkpt><trkpt lat="44.316532419901215" lon="8.491342192838248"><ele>12.0</ele><time>2026-04-25T07:55:03.997Z</time></trkpt><trkpt lat="44.31663808955031" lon="8.491468286750305"><ele>11.5</ele><time>2026-04-25T07:55:04.997Z</time></trkpt><trkpt lat="44.31673909873916" lon="8.49158572461264"><ele>11.0</ele><time>2026-04-25T07:55:05.997Z</time></trkpt><trkpt lat="44.316837391993204" lon="8.49169863860519"><ele>10.5</ele><time>2026-04-25T07:55:06.997Z</time></trkpt><trkpt lat="44.316934238979286" lon="8.491809496545477"><ele>10.0</ele><time>2026-04-25T07:55:07.997Z</time></trkpt><trkpt lat="44.3170292261981" lon="8.49191733542102"><ele>10.0</ele><time>2026-04-25T07:55:08.997Z</time></trkpt><trkpt lat="44.31712439458319" lon="8.492019576394627"><ele>10.0</ele><time>2026-04-25T07:55:09.997Z</time></trkpt><trkpt lat="44.31722136284044" lon="8.492118852032721"><ele>10.0</ele><time>2026-04-25T07:55:10.998Z</time></trkpt><trkpt lat="44.31732128677696" lon="8.492221786312868"><ele>10.0</ele><time>2026-04-25T07:55:11.998Z</time></trkpt><trkpt lat="44.31741895579842" lon="8.492326324354483"><ele>11.5</ele><time>2026-04-25T07:55:12.998Z</time></trkpt><trkpt lat="44.31750072150144" lon="8.492460136141025"><ele>13.0</ele><time>2026-04-25T07:55:13.998Z</time></trkpt><trkpt lat="44.31761721554516" lon="8.492537715468503"><ele>14.5</ele><time>2026-04-25T07:55:14.998Z</time></trkpt><trkpt lat="44.317720792305145" lon="8.492633951639874"><ele>16.0</ele><time>2026-04-25T07:55:15.998Z</time></trkpt><trkpt lat="44.31782569884002" lon="8.492725153147644"><ele>16.0</ele><time>2026-04-25T07:55:16.998Z</time></trkpt><trkpt lat="44.31792749484112" lon="8.492816031727859"><ele>16.0</ele><time>2026-04-25T07:55:17.998Z</time></trkpt><trkpt lat="44.31801386499839" lon="8.492941869679038"><ele>16.0</ele><time>2026-04-25T07:55:18.998Z</time></trkpt><trkpt lat="44.31811208269726" lon="8.493026220194004"><ele>16.0</ele><time>2026-04-25T07:55:19.998Z</time></trkpt><trkpt lat="44.31820736723939" lon="8.493108061014771"><ele>17.4</ele><time>2026-04-25T07:55:20.998Z</time></trkpt><trkpt lat="44.31830029293668" lon="8.493184119934119"><ele>18.8</ele><time>2026-04-25T07:55:21.998Z</time></trkpt><trkpt lat="44.31838522095712" lon="8.493274113510617"><ele>20.2</ele><time>2026-04-25T07:55:22.998Z</time></trkpt><trkpt lat="44.318469223503385" lon="8.4933679645782"><ele>21.599999999999998</ele><time>2026-04-25T07:55:23.998Z</time></trkpt><trkpt lat="44.31854920659583" lon="8.493462092601856"><ele>23.0</ele><time>2026-04-25T07:55:24.998Z</time></trkpt><trkpt lat="44.31862280136222" lon="8.493547476482922"><ele>23.0</ele><time>2026-04-25T07:55:25.998Z</time></trkpt><trkpt lat="44.31876380074513" lon="8.493615053887767"><ele>23.0</ele><time>2026-04-25T07:55:26.998Z</time></trkpt><trkpt lat="44.31886975129129" lon="8.493675727695601"><ele>23.0</ele><time>2026-04-25T07:55:27.998Z</time></trkpt><trkpt lat="44.31896682723135" lon="8.493744806045628"><ele>23.0</ele><time>2026-04-25T07:55:28.998Z</time></trkpt><trkpt lat="44.319057458143085" lon="8.49382606054785"><ele>21.599999999999998</ele><time>2026-04-25T07:55:29.998Z</time></trkpt><trkpt lat="44.31914215378804" lon="8.493909963911948"><ele>20.2</ele><time>2026-04-25T07:55:30.998Z</time></trkpt><trkpt lat="44.319223126849906" lon="8.494003004115692"><ele>18.8</ele><time>2026-04-25T07:55:31.998Z</time></trkpt><trkpt lat="44.31930046276765" lon="8.494104042063373"><ele>17.4</ele><time>2026-04-25T07:55:32.998Z</time></trkpt><trkpt lat="44.31937278154115" lon="8.494201332473521"><ele>16.0</ele><time>2026-04-25T07:55:33.998Z</time></trkpt><trkpt lat="44.31943905611236" lon="8.494296743695557"><ele>15.999999999999998</ele><time>2026-04-25T07:55:34.998Z</time></trkpt><trkpt lat="44.31950160684454" lon="8.494393155344806"><ele>16.0</ele><time>2026-04-25T07:55:35.998Z</time></trkpt><trkpt lat="44.319560964197265" lon="8.494483848202998"><ele>16.0</ele><time>2026-04-25T07:55:36.998Z</time></trkpt><trkpt lat="44.319620272978305" lon="8.49457033994717"><ele>16.0</ele><time>2026-04-25T07:55:37.998Z</time></trkpt><trkpt lat="44.31967787962541" lon="8.49465436959669"><ele>15.999999999999998</ele><time>2026-04-25T07:55:38.999Z</time></trkpt><trkpt lat="44.31973803236801" lon="8.494738012434436"><ele>16.0</ele><time>2026-04-25T07:55:39.999Z</time></trkpt><trkpt lat="44.31979925405037" lon="8.494844734840745"><ele>15.5</ele><time>2026-04-25T07:55:40.999Z</time></trkpt><trkpt lat="44.319894565837195" lon="8.494904846551387"><ele>15.0</ele><time>2026-04-25T07:55:41.999Z</time></trkpt><trkpt lat="44.319984106907725" lon="8.494993036351415"><ele>14.5</ele><time>2026-04-25T07:55:42.999Z</time></trkpt><trkpt lat="44.32009991021239" lon="8.495030521219824"><ele>14.0</ele><time>2026-04-25T07:55:43.999Z</time></trkpt><trkpt lat="44.32021088978809" lon="8.495086211381548"><ele>14.0</ele><time>2026-04-25T07:55:44.999Z</time></trkpt><trkpt lat="44.32031498143328" lon="8.495133012727925"><ele>13.999999999999998</ele><time>2026-04-25T07:55:45.999Z</time></trkpt><trkpt lat="44.32040790255916" lon="8.495193676613093"><ele>13.999999999999998</ele><time>2026-04-25T07:55:46.999Z</time></trkpt><trkpt lat="44.320495393229585" lon="8.49525517199845"><ele>14.0</ele><time>2026-04-25T07:55:47.999Z</time></trkpt><trkpt lat="44.32058209278745" lon="8.495313983763369"><ele>14.0</ele><time>2026-04-25T07:55:48.999Z</time></trkpt><trkpt lat="44.32067203760091" lon="8.495369502351343"><ele>13.0</ele><time>2026-04-25T07:55:49.999Z</time></trkpt><trkpt lat="44.320766000022125" lon="8.49543584805532"><ele>11.999999999999998</ele><time>2026-04-25T07:55:50.999Z</time></trkpt><trkpt lat="44.32085544004991" lon="8.495525809683098"><ele>11.0</ele><time>2026-04-25T07:55:51.999Z</time></trkpt><trkpt lat="44.320950682402334" lon="8.49561409209994"><ele>10.0</ele><time>2026-04-25T07:55:52.999Z</time></trkpt><trkpt lat="44.32104443565039" lon="8.495718219008237"><ele>9.0</ele><time>2026-04-25T07:55:53.999Z</time></trkpt><trkpt lat="44.32112976433562" lon="8.495843610725284"><ele>9.0</ele><time>2026-04-25T07:55:54.999Z</time></trkpt><trkpt lat="44.321216867522885" lon="8.495991783974036"><ele>9.0</ele><time>2026-04-25T07:55:55.999Z</time></trkpt><trkpt lat="44.3213016630059" lon="8.496155881429141"><ele>9.0</ele><time>2026-04-25T07:55:56.999Z</time></trkpt><trkpt lat="44.3213742641735" lon="8.496314748190278"><ele>9.0</ele><time>2026-04-25T07:55:57.999Z</time></trkpt><trkpt lat="44.32142470409921" lon="8.49648154025165"><ele>13.0</ele><time>2026-04-25T07:55:58.999Z</time></trkpt><trkpt lat="44.32150200490596" lon="8.49662904316414"><ele>17.0</ele><time>2026-04-25T07:55:59.999Z</time></trkpt><trkpt lat="44.32155957991851" lon="8.496788891571773"><ele>21.0</ele><time>2026-04-25T07:56:00.999Z</time></trkpt><trkpt lat="44.32161959796896" lon="8.496934371741485"><ele>25.0</ele><time>2026-04-25T07:56:01.999Z</time></trkpt><trkpt lat="44.3216800548875" lon="8.4970589116523"><ele>21.8</ele><time>2026-04-25T07:56:02.999Z</time></trkpt><trkpt lat="44.3217490345591" lon="8.497166016998799"><ele>18.6</ele><time>2026-04-25T07:56:03.999Z</time></trkpt><trkpt lat="44.32181991017001" lon="8.497273518138451"><ele>15.4</ele><time>2026-04-25T07:56:04.999Z</time></trkpt><trkpt lat="44.321899857416305" lon="8.497392426083819"><ele>12.2</ele><time>2026-04-25T07:56:05.999Z</time></trkpt><trkpt lat="44.32197595544179" lon="8.497504784658362"><ele>9.0</ele><time>2026-04-25T07:56:06.999Z</time></trkpt><trkpt lat="44.322048894610056" lon="8.49761428256307"><ele>9.0</ele><time>2026-04-25T07:56:07.999Z</time></trkpt><trkpt lat="44.322119146122326" lon="8.497720017090051"><ele>9.0</ele><time>2026-04-25T07:56:08.999Z</time></trkpt><trkpt lat="44.32217806118306" lon="8.49782401260652"><ele>9.0</ele><time>2026-04-25T07:56:09.999Z</time></trkpt><trkpt lat="44.32224739290197" lon="8.497926253059198"><ele>9.0</ele><time>2026-04-25T07:56:10.999Z</time></trkpt><trkpt lat="44.32231127071335" lon="8.498027960327128"><ele>9.0</ele><time>2026-04-25T07:56:11.999Z</time></trkpt><trkpt lat="44.322382242717445" lon="8.498127912482833"><ele>9.6</ele><time>2026-04-25T07:56:12.999Z</time></trkpt><trkpt lat="44.32245814328176" lon="8.4982130253748"><ele>10.2</ele><time>2026-04-25T07:56:13.999Z</time></trkpt><trkpt lat="44.322543064305435" lon="8.498295595683247"><ele>10.799999999999999</ele><time>2026-04-25T07:56:14.999Z</time></trkpt><trkpt lat="44.32263804086289" lon="8.498371844621868"><ele>11.4</ele><time>2026-04-25T07:56:15.999Z</time></trkpt><trkpt lat="44.322742505779914" lon="8.498446634931424"><ele>12.0</ele><time>2026-04-25T07:56:16.999Z</time></trkpt><trkpt lat="44.322874574763006" lon="8.498488912244685"><ele>12.0</ele><time>2026-04-25T07:56:17.999Z</time></trkpt><trkpt lat="44.322992609813014" lon="8.498536792011874"><ele>12.0</ele><time>2026-04-25T07:56:18.999Z</time></trkpt><trkpt lat="44.323098992512506" lon="8.49857712494854"><ele>12.0</ele><time>2026-04-25T07:56:19.999Z</time></trkpt><trkpt lat="44.3232018159071" lon="8.49862573253412"><ele>12.0</ele><time>2026-04-25T07:56:20.999Z</time></trkpt><trkpt lat="44.3232969388465" lon="8.498674570147587"><ele>12.0</ele><time>2026-04-25T07:56:21.999Z</time></trkpt><trkpt lat="44.32338809923114" lon="8.498729764869411"><ele>11.0</ele><time>2026-04-25T07:56:22.999Z</time></trkpt><trkpt lat="44.323478351502786" lon="8.498779930328991"><ele>10.0</ele><time>2026-04-25T07:56:23.999Z</time></trkpt><trkpt lat="44.32357221984247" lon="8.498837203804507"><ele>9.0</ele><time>2026-04-25T07:56:24.999Z</time></trkpt><trkpt lat="44.32366538019293" lon="8.49890007984662"><ele>8.0</ele><time>2026-04-25T07:56:25.999Z</time></trkpt><trkpt lat="44.32375034325497" lon="8.498953815724004"><ele>7.0</ele><time>2026-04-25T07:56:26.999Z</time></trkpt><trkpt lat="44.32383733136504" lon="8.499002676887931"><ele>9.6</ele><time>2026-04-25T07:56:27.999Z</time></trkpt><trkpt lat="44.323919311533245" lon="8.499059203527143"><ele>12.2</ele><time>2026-04-25T07:56:28.999Z</time></trkpt><trkpt lat="44.32401119293453" lon="8.499116391659143"><ele>14.8</ele><time>2026-04-25T07:56:29.999Z</time></trkpt><trkpt lat="44.32410001530663" lon="8.49917079638191"><ele>17.4</ele><time>2026-04-25T07:56:30.999Z</time></trkpt><trkpt lat="44.32419609855156" lon="8.499229945142897"><ele>20.0</ele><time>2026-04-25T07:56:31.999Z</time></trkpt><trkpt lat="44.32428591851432" lon="8.49929024442402"><ele>20.0</ele><time>2026-04-25T07:56:32.999Z</time></trkpt><trkpt lat="44.32437305494312" lon="8.499344022644655"><ele>20.0</ele><time>2026-04-25T07:56:33.999Z</time></trkpt><trkpt lat="44.32446126500116" lon="8.499402930072637"><ele>20.0</ele><time>2026-04-25T07:56:34.999Z</time></trkpt><trkpt lat="44.32455286525072" lon="8.499458221558829"><ele>20.0</ele><time>2026-04-25T07:56:35.999Z</time></trkpt><trkpt lat="44.32464525543424" lon="8.499513712878626"><ele>20.0</ele><time>2026-04-25T07:56:36.999Z</time></trkpt><trkpt lat="44.32474448212368" lon="8.499571840390084"><ele>17.0</ele><time>2026-04-25T07:56:37.999Z</time></trkpt><trkpt lat="44.324834832775" lon="8.499626698135383"><ele>14.0</ele><time>2026-04-25T07:56:38.999Z</time></trkpt><trkpt lat="44.32491154259392" lon="8.499682536824132"><ele>11.0</ele><time>2026-04-25T07:56:39.999Z</time></trkpt><trkpt lat="44.32498840642573" lon="8.4997364445819"><ele>8.0</ele><time>2026-04-25T07:56:40.999Z</time></trkpt><trkpt lat="44.325079457765504" lon="8.499792315466934"><ele>5.0</ele><time>2026-04-25T07:56:41.999Z</time></trkpt><trkpt lat="44.325167558981434" lon="8.499844335072316"><ele>5.0</ele><time>2026-04-25T07:56:42.999Z</time></trkpt><trkpt lat="44.32525340311186" lon="8.49990681888779"><ele>5.0</ele><time>2026-04-25T07:56:43.999Z</time></trkpt><trkpt lat="44.32533167788725" lon="8.499966412695782"><ele>5.0</ele><time>2026-04-25T07:56:44.999Z</time></trkpt><trkpt lat="44.32540152148212" lon="8.500027511052748"><ele>5.0</ele><time>2026-04-25T07:56:45.999Z</time></trkpt><trkpt lat="44.32547143367214" lon="8.500085730787557"><ele>5.0</ele><time>2026-04-25T07:56:46.999Z</time></trkpt><trkpt lat="44.32554512383493" lon="8.500144398397326"><ele>5.0</ele><time>2026-04-25T07:56:47.999Z</time></trkpt><trkpt lat="44.32561791113441" lon="8.500208671837937"><ele>5.333333333333334</ele><time>2026-04-25T07:56:48.999Z</time></trkpt><trkpt lat="44.32568862668443" lon="8.500281446651542"><ele>5.666666666666667</ele><time>2026-04-25T07:56:49.999Z</time></trkpt><trkpt lat="44.32576353973253" lon="8.500360392435704"><ele>6.0</ele><time>2026-04-25T07:56:50.999Z</time></trkpt><trkpt lat="44.32584093551321" lon="8.500441749725603"><ele>6.333333333333334</ele><time>2026-04-25T07:56:51.999Z</time></trkpt><trkpt lat="44.32590937928394" lon="8.500516228057117"><ele>6.666666666666667</ele><time>2026-04-25T07:56:52.999Z</time></trkpt><trkpt lat="44.32596056752573" lon="8.500605829420472"><ele>7.0</ele><time>2026-04-25T07:56:53.999Z</time></trkpt><trkpt lat="44.32601820718938" lon="8.5006782664848"><ele>7.0</ele><time>2026-04-25T07:56:54.999Z</time></trkpt><trkpt lat="44.326074409904116" lon="8.50075002477526"><ele>7.0</ele><time>2026-04-25T07:56:55.999Z</time></trkpt><trkpt lat="44.3261265500985" lon="8.500824014019562"><ele>7.0</ele><time>2026-04-25T07:56:56.999Z</time></trkpt><trkpt lat="44.32617779709706" lon="8.500896569465345"><ele>7.0</ele><time>2026-04-25T07:56:57.999Z</time></trkpt><trkpt lat="44.32622737678553" lon="8.500969472628968"><ele>7.0</ele><time>2026-04-25T07:56:58.999Z</time></trkpt><trkpt lat="44.32627525100861" lon="8.501042330928524"><ele>7.0</ele><time>2026-04-25T07:56:59.999Z</time></trkpt><trkpt lat="44.32632291677227" lon="8.501117562167458"><ele>7.0</ele><time>2026-04-25T07:57:00.999Z</time></trkpt><trkpt lat="44.32637165004422" lon="8.501195378005697"><ele>7.333333333333334</ele><time>2026-04-25T07:57:01.999Z</time></trkpt><trkpt lat="44.32642092099575" lon="8.501276137339687"><ele>7.666666666666667</ele><time>2026-04-25T07:57:02.999Z</time></trkpt><trkpt lat="44.326482819130064" lon="8.501352668895032"><ele>8.0</ele><time>2026-04-25T07:57:03.999Z</time></trkpt><trkpt lat="44.32653091436104" lon="8.501449309036955"><ele>8.333333333333334</ele><time>2026-04-25T07:57:04.999Z</time></trkpt><trkpt lat="44.32656310433074" lon="8.501564204667096"><ele>8.666666666666666</ele><time>2026-04-25T07:57:05.999Z</time></trkpt><trkpt lat="44.32661768684205" lon="8.501648350652301"><ele>9.0</ele><time>2026-04-25T07:57:06.999Z</time></trkpt><trkpt lat="44.326639633723985" lon="8.501755971163702"><ele>9.0</ele><time>2026-04-25T07:57:07.999Z</time></trkpt><trkpt lat="44.326675182707866" lon="8.501855205684627"><ele>9.0</ele><time>2026-04-25T07:57:08.999Z</time></trkpt><trkpt lat="44.32671020538203" lon="8.5019557380169"><ele>9.0</ele><time>2026-04-25T07:57:09.999Z</time></trkpt><trkpt lat="44.32674220483021" lon="8.502056638245874"><ele>9.0</ele><time>2026-04-25T07:57:10.999Z</time></trkpt><trkpt lat="44.32677478176978" lon="8.502158450677026"><ele>9.0</ele><time>2026-04-25T07:57:11.999Z</time></trkpt><trkpt lat="44.32680350469058" lon="8.502251079986381"><ele>9.0</ele><time>2026-04-25T07:57:12.999Z</time></trkpt><trkpt lat="44.326830788387014" lon="8.502343077671581"><ele>8.5</ele><time>2026-04-25T07:57:13.999Z</time></trkpt><trkpt lat="44.32685642202434" lon="8.502429511573162"><ele>8.0</ele><time>2026-04-25T07:57:14.999Z</time></trkpt><trkpt lat="44.326881102822085" lon="8.502512732568023"><ele>7.5</ele><time>2026-04-25T07:57:15.999Z</time></trkpt><trkpt lat="44.326907006383315" lon="8.502595914574039"><ele>7.0</ele><time>2026-04-25T07:57:16.999Z</time></trkpt><trkpt lat="44.32695423244498" lon="8.502735386485421"><ele>6.5</ele><time>2026-04-25T07:57:18.999Z</time></trkpt><trkpt lat="44.32699090733028" lon="8.502837436836298"><ele>6.0</ele><time>2026-04-25T07:57:20.999Z</time></trkpt><trkpt lat="44.3270258689614" lon="8.50292734378704"><ele>6.0</ele><time>2026-04-25T07:57:23.999Z</time></trkpt><trkpt lat="44.3270601847615" lon="8.503015590245006"><ele>6.0</ele><time>2026-04-25T07:57:26.999Z</time></trkpt><trkpt lat="44.327092523374304" lon="8.50309791759119"><ele>6.0</ele><time>2026-04-25T07:57:28.999Z</time></trkpt><trkpt lat="44.3271351800501" lon="8.503205056642047"><ele>6.0</ele><time>2026-04-25T07:57:30.999Z</time></trkpt><trkpt lat="44.327177237518384" lon="8.503310690741015"><ele>6.0</ele><time>2026-04-25T07:57:32.999Z</time></trkpt><trkpt lat="44.327220874159224" lon="8.503420291020868"><ele>6.0</ele><time>2026-04-25T07:57:34.999Z</time></trkpt><trkpt lat="44.32728930686628" lon="8.503590564855656"><ele>6.166666666666667</ele><time>2026-04-25T07:57:36.999Z</time></trkpt><trkpt lat="44.327338674602984" lon="8.503713337028318"><ele>6.333333333333334</ele><time>2026-04-25T07:57:37.999Z</time></trkpt><trkpt lat="44.32739340674614" lon="8.503849375642249"><ele>6.5</ele><time>2026-04-25T07:57:38.999Z</time></trkpt><trkpt lat="44.327438392660454" lon="8.50396104563514"><ele>6.666666666666667</ele><time>2026-04-25T07:57:40Z</time></trkpt><trkpt lat="44.327475692935984" lon="8.504053637186749"><ele>6.833333333333334</ele><time>2026-04-25T07:57:41Z</time></trkpt><trkpt lat="44.32750774929652" lon="8.50413321183262"><ele>7.0</ele><time>2026-04-25T07:57:42Z</time></trkpt><trkpt lat="44.32756621713494" lon="8.504278348337738"><ele>7.0</ele><time>2026-04-25T07:57:44Z</time></trkpt><trkpt lat="44.32762706682508" lon="8.504428771162239"><ele>6.999999999999999</ele><time>2026-04-25T07:57:46Z</time></trkpt><trkpt lat="44.32765943893828" lon="8.504508269351328"><ele>6.999999999999999</ele><time>2026-04-25T07:57:47Z</time></trkpt><trkpt lat="44.32771751632926" lon="8.504647531625395"><ele>7.0</ele><time>2026-04-25T07:57:49Z</time></trkpt><trkpt lat="44.327774368410005" lon="8.504777701378845"><ele>7.0</ele><time>2026-04-25T07:57:51Z</time></trkpt><trkpt lat="44.32783950717839" lon="8.504922756133158"><ele>6.8</ele><time>2026-04-25T07:57:53Z</time></trkpt><trkpt lat="44.32787946172272" lon="8.505012463657085"><ele>6.6</ele><time>2026-04-25T07:57:55Z</time></trkpt><trkpt lat="44.32793151572577" lon="8.505150352411505"><ele>6.3999999999999995</ele><time>2026-04-25T07:58:26Z</time></trkpt><trkpt lat="44.32796933059121" lon="8.505245662548207"><ele>6.199999999999999</ele><time>2026-04-25T07:58:27Z</time></trkpt><trkpt lat="44.32801833833841" lon="8.505374055703193"><ele>6.0</ele><time>2026-04-25T07:58:28Z</time></trkpt><trkpt lat="44.32806191257948" lon="8.505486539253956"><ele>6.0</ele><time>2026-04-25T07:58:29Z</time></trkpt><trkpt lat="44.32811075080214" lon="8.505607602783536"><ele>6.0</ele><time>2026-04-25T07:58:30Z</time></trkpt><trkpt lat="44.32815851321273" lon="8.505741895476547"><ele>6.0</ele><time>2026-04-25T07:58:31Z</time></trkpt><trkpt lat="44.32821391744733" lon="8.505897021296006"><ele>6.0</ele><time>2026-04-25T07:58:32Z</time></trkpt><trkpt lat="44.328278787134515" lon="8.506066425843061"><ele>5.75</ele><time>2026-04-25T07:58:33Z</time></trkpt><trkpt lat="44.328349667357614" lon="8.5062553151814"><ele>5.5</ele><time>2026-04-25T07:58:34Z</time></trkpt><trkpt lat="44.32841628648101" lon="8.506438787607962"><ele>5.25</ele><time>2026-04-25T07:58:35Z</time></trkpt><trkpt lat="44.3284791974831" lon="8.506610026541816"><ele>5.0</ele><time>2026-04-25T07:58:36Z</time></trkpt><trkpt lat="44.32854164527487" lon="8.5067733287502"><ele>5.0</ele><time>2026-04-25T07:58:37Z</time></trkpt><trkpt lat="44.32859912704661" lon="8.506930351325817"><ele>5.0</ele><time>2026-04-25T07:58:38Z</time></trkpt><trkpt lat="44.328655180038865" lon="8.507089526154077"><ele>5.0</ele><time>2026-04-25T07:58:39Z</time></trkpt><trkpt lat="44.32871135518514" lon="8.50725126982973"><ele>5.0</ele><time>2026-04-25T07:58:40Z</time></trkpt><trkpt lat="44.32876714260486" lon="8.507417862613494"><ele>4.75</ele><time>2026-04-25T07:58:41Z</time></trkpt><trkpt lat="44.32882589158928" lon="8.50759230841548"><ele>4.5</ele><time>2026-04-25T07:58:42Z</time></trkpt><trkpt lat="44.328882503138125" lon="8.507772710258072"><ele>4.25</ele><time>2026-04-25T07:58:43Z</time></trkpt><trkpt lat="44.32893181880556" lon="8.507963479202457"><ele>4.0</ele><time>2026-04-25T07:58:44Z</time></trkpt><trkpt lat="44.32896705713478" lon="8.508156712845564"><ele>3.5</ele><time>2026-04-25T07:58:45Z</time></trkpt><trkpt lat="44.328991563619795" lon="8.508351587092578"><ele>3.0</ele><time>2026-04-25T07:58:46Z</time></trkpt><trkpt lat="44.329005197760225" lon="8.508556637249994"><ele>2.5</ele><time>2026-04-25T07:58:47Z</time></trkpt><trkpt lat="44.3291224899348" lon="8.508647544278709"><ele>2.0</ele><time>2026-04-25T07:58:48Z</time></trkpt><trkpt lat="44.32917148555532" lon="8.508815890431633"><ele>1.75</ele><time>2026-04-25T07:58:49Z</time></trkpt><trkpt lat="44.32922030577131" lon="8.508983607939575"><ele>1.5</ele><time>2026-04-25T07:58:50Z</time></trkpt><trkpt lat="44.32927182903441" lon="8.509160298001895"><ele>1.25</ele><time>2026-04-25T07:58:51Z</time></trkpt><trkpt lat="44.3293254503481" lon="8.509343525381977"><ele>1.0</ele><time>2026-04-25T07:58:52Z</time></trkpt><trkpt lat="44.32937984073369" lon="8.509528988586052"><ele>2.0</ele><time>2026-04-25T07:58:53Z</time></trkpt><trkpt lat="44.329431264711424" lon="8.509705033747565"><ele>3.0</ele><time>2026-04-25T07:58:54Z</time></trkpt><trkpt lat="44.329508559238356" lon="8.5098615479296"><ele>4.0</ele><time>2026-04-25T07:58:55Z</time></trkpt><trkpt lat="44.329555971926496" lon="8.510013894794318"><ele>5.0</ele><time>2026-04-25T07:58:56Z</time></trkpt><trkpt lat="44.32960334032938" lon="8.510166840016456"><ele>5.0</ele><time>2026-04-25T07:58:57Z</time></trkpt><trkpt lat="44.32964638972166" lon="8.510310011170546"><ele>5.0</ele><time>2026-04-25T07:58:58Z</time></trkpt><trkpt lat="44.32968344021397" lon="8.510441198549163"><ele>5.0</ele><time>2026-04-25T07:58:59Z</time></trkpt><trkpt lat="44.329686491597485" lon="8.510584244942983"><ele>5.0</ele><time>2026-04-25T07:59:00Z</time></trkpt><trkpt lat="44.32972214675267" lon="8.510707837619169"><ele>5.0</ele><time>2026-04-25T07:59:01Z</time></trkpt><trkpt lat="44.32975427794382" lon="8.510819294384689"><ele>4.833333333333334</ele><time>2026-04-25T07:59:02Z</time></trkpt><trkpt lat="44.32978267874177" lon="8.510917810811357"><ele>4.666666666666667</ele><time>2026-04-25T07:59:03Z</time></trkpt><trkpt lat="44.32981979745747" lon="8.511046568556951"><ele>4.5</ele><time>2026-04-25T07:59:05.001Z</time></trkpt><trkpt lat="44.32984835687833" lon="8.511145638200203"><ele>4.333333333333333</ele><time>2026-04-25T07:59:07.001Z</time></trkpt><trkpt lat="44.32988607814205" lon="8.511277672711099"><ele>4.166666666666666</ele><time>2026-04-25T07:59:10.001Z</time></trkpt><trkpt lat="44.329917450477836" lon="8.511388402137738"><ele>4.0</ele><time>2026-04-25T07:59:12.001Z</time></trkpt><trkpt lat="44.329950834033454" lon="8.511506725198478"><ele>4.4</ele><time>2026-04-25T07:59:14.001Z</time></trkpt><trkpt lat="44.329982625777355" lon="8.511619777223009"><ele>4.800000000000001</ele><time>2026-04-25T07:59:16.001Z</time></trkpt><trkpt lat="44.33002155419057" lon="8.51175822761921"><ele>5.199999999999999</ele><time>2026-04-25T07:59:18.001Z</time></trkpt><trkpt lat="44.3300631258062" lon="8.51190607901114"><ele>5.6</ele><time>2026-04-25T07:59:20.001Z</time></trkpt><trkpt lat="44.33010187862958" lon="8.512043905055002"><ele>6.0</ele><time>2026-04-25T07:59:22.001Z</time></trkpt><trkpt lat="44.330137618668" lon="8.512171016174149"><ele>6.166666666666667</ele><time>2026-04-25T07:59:24.001Z</time></trkpt><trkpt lat="44.330175214241564" lon="8.5123047264031"><ele>6.333333333333334</ele><time>2026-04-25T07:59:26.001Z</time></trkpt><trkpt lat="44.33020254330576" lon="8.512403180006741"><ele>6.5</ele><time>2026-04-25T07:59:28.001Z</time></trkpt><trkpt lat="44.33023117376867" lon="8.512507524356673"><ele>6.666666666666667</ele><time>2026-04-25T07:59:31.001Z</time></trkpt><trkpt lat="44.33025748412543" lon="8.512601300068757"><ele>6.833333333333334</ele><time>2026-04-25T07:59:34.001Z</time></trkpt><trkpt lat="44.330282484058344" lon="8.512691108465466"><ele>7.0</ele><time>2026-04-25T07:59:38.001Z</time></trkpt><trkpt lat="44.33030678764231" lon="8.51277755695921"><ele>7.000000000000001</ele><time>2026-04-25T07:59:41.001Z</time></trkpt><trkpt lat="44.33033350909819" lon="8.512871910354775"><ele>7.0</ele><time>2026-04-25T07:59:44.001Z</time></trkpt><trkpt lat="44.33035828343133" lon="8.512959388362127"><ele>7.0</ele><time>2026-04-25T07:59:49.001Z</time></trkpt><trkpt lat="44.330384603488014" lon="8.513052324495842"><ele>7.0</ele><time>2026-04-25T07:59:59.001Z</time></trkpt><trkpt lat="44.33040840887944" lon="8.513136380618498"><ele>7.000000000000001</ele><time>2026-04-25T08:00:04.001Z</time></trkpt><trkpt lat="44.330548336244114" lon="8.513114668748335"><ele>7.0</ele><time>2026-04-25T08:00:08.001Z</time></trkpt><trkpt lat="44.330610483132325" lon="8.51309618534199"><ele>7.166666666666667</ele><time>2026-04-25T08:00:09.001Z</time></trkpt><trkpt lat="44.3306792731742" lon="8.513064329005072"><ele>7.333333333333334</ele><time>2026-04-25T08:00:10.001Z</time></trkpt><trkpt lat="44.33077399396202" lon="8.513011543662698"><ele>7.5</ele><time>2026-04-25T08:00:12.001Z</time></trkpt><trkpt lat="44.33084876921019" lon="8.512964468762254"><ele>7.666666666666666</ele><time>2026-04-25T08:00:14.001Z</time></trkpt><trkpt lat="44.330918170450495" lon="8.512925269666976"><ele>7.833333333333333</ele><time>2026-04-25T08:00:16.001Z</time></trkpt><trkpt lat="44.330993011035474" lon="8.512882998311825"><ele>8.0</ele><time>2026-04-25T08:00:18.001Z</time></trkpt><trkpt lat="44.33106596926283" lon="8.512841790927485"><ele>8.0</ele><time>2026-04-25T08:00:20.001Z</time></trkpt><trkpt lat="44.3311578238237" lon="8.512789252857562"><ele>8.0</ele><time>2026-04-25T08:00:22.001Z</time></trkpt><trkpt lat="44.33125919740904" lon="8.512731452848525"><ele>8.0</ele><time>2026-04-25T08:00:24.001Z</time></trkpt><trkpt lat="44.33136284011055" lon="8.512673341884627"><ele>8.0</ele><time>2026-04-25T08:00:26.001Z</time></trkpt><trkpt lat="44.33145919627346" lon="8.512619612222679"><ele>8.0</ele><time>2026-04-25T08:00:28.001Z</time></trkpt><trkpt lat="44.33156373186843" lon="8.51256042306027"><ele>8.200000000000001</ele><time>2026-04-25T08:00:30.001Z</time></trkpt><trkpt lat="44.331668427121784" lon="8.51250094645477"><ele>8.4</ele><time>2026-04-25T08:00:32.001Z</time></trkpt><trkpt lat="44.33175293780399" lon="8.512453750815691"><ele>8.600000000000001</ele><time>2026-04-25T08:00:34.001Z</time></trkpt><trkpt lat="44.33182641947555" lon="8.512413095977465"><ele>8.8</ele><time>2026-04-25T08:00:36.001Z</time></trkpt><trkpt lat="44.33190167962254" lon="8.512371457600885"><ele>9.0</ele><time>2026-04-25T08:00:38.001Z</time></trkpt><trkpt lat="44.33199546842767" lon="8.512320187682654"><ele>9.0</ele><time>2026-04-25T08:00:40.001Z</time></trkpt><trkpt lat="44.33209116095385" lon="8.512266959202968"><ele>9.0</ele><time>2026-04-25T08:00:42.001Z</time></trkpt><trkpt lat="44.33219245713762" lon="8.512210695403525"><ele>9.0</ele><time>2026-04-25T08:00:44.001Z</time></trkpt><trkpt lat="44.332289796313994" lon="8.512156040023529"><ele>9.0</ele><time>2026-04-25T08:00:46.001Z</time></trkpt><trkpt lat="44.332383397589616" lon="8.512104273954709"><ele>9.0</ele><time>2026-04-25T08:00:48.001Z</time></trkpt><trkpt lat="44.332475105312696" lon="8.512053791445469"><ele>8.8</ele><time>2026-04-25T08:00:50.001Z</time></trkpt><trkpt lat="44.33256211788799" lon="8.512005894699413"><ele>8.600000000000001</ele><time>2026-04-25T08:00:52.001Z</time></trkpt><trkpt lat="44.332640554735434" lon="8.511962719997719"><ele>8.4</ele><time>2026-04-25T08:00:54.001Z</time></trkpt><trkpt lat="44.33270200437443" lon="8.511928895672359"><ele>8.200000000000001</ele><time>2026-04-25T08:00:56.001Z</time></trkpt><trkpt lat="44.332780736765045" lon="8.51186947762877"><ele>8.0</ele><time>2026-04-25T08:01:20.002Z</time></trkpt><trkpt lat="44.332890061183384" lon="8.511810548089027"><ele>8.0</ele><time>2026-04-25T08:01:22.001Z</time></trkpt><trkpt lat="44.332971528064014" lon="8.511757391901225"><ele>8.0</ele><time>2026-04-25T08:01:24.001Z</time></trkpt><trkpt lat="44.33305482394239" lon="8.5117093061086"><ele>8.0</ele><time>2026-04-25T08:01:26.001Z</time></trkpt><trkpt lat="44.33315925473907" lon="8.511675357163751"><ele>8.0</ele><time>2026-04-25T08:01:28.001Z</time></trkpt><trkpt lat="44.3332568763294" lon="8.511620563599951"><ele>8.0</ele><time>2026-04-25T08:01:30.001Z</time></trkpt><trkpt lat="44.33335627456188" lon="8.511541863569958"><ele>8.0</ele><time>2026-04-25T08:01:32.001Z</time></trkpt><trkpt lat="44.33346930909303" lon="8.511480184613182"><ele>8.0</ele><time>2026-04-25T08:01:34.001Z</time></trkpt><trkpt lat="44.3335344559484" lon="8.511442412255262"><ele>8.0</ele><time>2026-04-25T08:01:35.001Z</time></trkpt><trkpt lat="44.33361069299488" lon="8.511400913745836"><ele>8.0</ele><time>2026-04-25T08:01:36.001Z</time></trkpt><trkpt lat="44.333697014538245" lon="8.511355957656482"><ele>8.0</ele><time>2026-04-25T08:01:37.001Z</time></trkpt><trkpt lat="44.33378060956813" lon="8.511313402060212"><ele>7.999999999999999</ele><time>2026-04-25T08:01:38.001Z</time></trkpt><trkpt lat="44.333855253994464" lon="8.511279380418927"><ele>8.0</ele><time>2026-04-25T08:01:39.001Z</time></trkpt><trkpt lat="44.333927365367614" lon="8.511237258184854"><ele>8.0</ele><time>2026-04-25T08:01:40.001Z</time></trkpt><trkpt lat="44.33400511812638" lon="8.511196184681303"><ele>8.0</ele><time>2026-04-25T08:01:41.001Z</time></trkpt><trkpt lat="44.33408116538404" lon="8.511154246626575"><ele>7.999999999999999</ele><time>2026-04-25T08:01:42.001Z</time></trkpt><trkpt lat="44.3341502190741" lon="8.511114746691849"><ele>8.0</ele><time>2026-04-25T08:01:43.001Z</time></trkpt><trkpt lat="44.33421762377038" lon="8.511079162767418"><ele>7.999999999999999</ele><time>2026-04-25T08:01:44.001Z</time></trkpt><trkpt lat="44.334282942791184" lon="8.511047463568703"><ele>8.0</ele><time>2026-04-25T08:01:45.001Z</time></trkpt><trkpt lat="44.334351206489806" lon="8.511015224956294"><ele>8.0</ele><time>2026-04-25T08:01:46.001Z</time></trkpt><trkpt lat="44.33442117686575" lon="8.510976105378175"><ele>8.0</ele><time>2026-04-25T08:01:47.001Z</time></trkpt><trkpt lat="44.33449553872797" lon="8.51093608172484"><ele>7.999999999999999</ele><time>2026-04-25T08:01:48.001Z</time></trkpt><trkpt lat="44.33457683404492" lon="8.510894187765887"><ele>8.0</ele><time>2026-04-25T08:01:49.001Z</time></trkpt><trkpt lat="44.334662312517096" lon="8.510847289070812"><ele>8.200000000000001</ele><time>2026-04-25T08:01:50.001Z</time></trkpt><trkpt lat="44.33474858082696" lon="8.510793668332319"><ele>8.4</ele><time>2026-04-25T08:01:51.001Z</time></trkpt><trkpt lat="44.334828790007826" lon="8.510747897234248"><ele>8.600000000000001</ele><time>2026-04-25T08:01:52.001Z</time></trkpt><trkpt lat="44.33492074350465" lon="8.51068967806963"><ele>8.8</ele><time>2026-04-25T08:01:53.001Z</time></trkpt><trkpt lat="44.33500989551738" lon="8.510630570708019"><ele>9.0</ele><time>2026-04-25T08:01:54.001Z</time></trkpt><trkpt lat="44.3351049299565" lon="8.510577959686811"><ele>9.0</ele><time>2026-04-25T08:01:55.001Z</time></trkpt><trkpt lat="44.335217213802636" lon="8.510523966475244"><ele>9.0</ele><time>2026-04-25T08:01:57.001Z</time></trkpt><trkpt lat="44.33528646311739" lon="8.510485087491475"><ele>9.0</ele><time>2026-04-25T08:01:58.001Z</time></trkpt><trkpt lat="44.33534935219468" lon="8.510449866071227"><ele>9.0</ele><time>2026-04-25T08:01:59.001Z</time></trkpt><trkpt lat="44.335410564955986" lon="8.510414449486083"><ele>9.0</ele><time>2026-04-25T08:02:00.001Z</time></trkpt><trkpt lat="44.335473262806765" lon="8.510379579222109"><ele>9.0</ele><time>2026-04-25T08:02:01.001Z</time></trkpt><trkpt lat="44.33554379461694" lon="8.510341537444967"><ele>8.857142857142858</ele><time>2026-04-25T08:02:02.001Z</time></trkpt><trkpt lat="44.335619786633195" lon="8.510300656203167"><ele>8.714285714285715</ele><time>2026-04-25T08:02:03.001Z</time></trkpt><trkpt lat="44.335695629982645" lon="8.510260639497547"><ele>8.571428571428571</ele><time>2026-04-25T08:02:04.001Z</time></trkpt><trkpt lat="44.33575923887966" lon="8.51022551694483"><ele>8.428571428571429</ele><time>2026-04-25T08:02:05.001Z</time></trkpt><trkpt lat="44.33582141458698" lon="8.510186889305812"><ele>8.285714285714285</ele><time>2026-04-25T08:02:06.001Z</time></trkpt><trkpt lat="44.33588521268741" lon="8.510147966152216"><ele>8.142857142857142</ele><time>2026-04-25T08:02:07.001Z</time></trkpt><trkpt lat="44.335952299376835" lon="8.510108651262154"><ele>8.0</ele><time>2026-04-25T08:02:08.001Z</time></trkpt><trkpt lat="44.3360245166337" lon="8.510070249892598"><ele>8.0</ele><time>2026-04-25T08:02:09.001Z</time></trkpt><trkpt lat="44.33608413242822" lon="8.510036245175321"><ele>8.0</ele><time>2026-04-25T08:02:10.001Z</time></trkpt><trkpt lat="44.33619190763937" lon="8.509974144769265"><ele>8.0</ele><time>2026-04-25T08:02:12.001Z</time></trkpt><trkpt lat="44.33630019908257" lon="8.509908478062362"><ele>8.0</ele><time>2026-04-25T08:02:14.001Z</time></trkpt><trkpt lat="44.336421401627895" lon="8.509844506914028"><ele>8.0</ele><time>2026-04-25T08:02:16.001Z</time></trkpt><trkpt lat="44.33648532341532" lon="8.509816384744655"><ele>8.333333333333332</ele><time>2026-04-25T08:02:17.001Z</time></trkpt><trkpt lat="44.33658115560898" lon="8.5097810849974"><ele>8.666666666666666</ele><time>2026-04-25T08:02:19.001Z</time></trkpt><trkpt lat="44.33664087888483" lon="8.50974920399624"><ele>9.0</ele><time>2026-04-25T08:02:22.001Z</time></trkpt><trkpt lat="44.336719014005546" lon="8.509704773246304"><ele>9.333333333333334</ele><time>2026-04-25T08:02:28.001Z</time></trkpt><trkpt lat="44.33678327112723" lon="8.509669254275096"><ele>9.666666666666668</ele><time>2026-04-25T08:02:30.001Z</time></trkpt><trkpt lat="44.336862771481655" lon="8.50962033134372"><ele>10.0</ele><time>2026-04-25T08:02:32.001Z</time></trkpt><trkpt lat="44.336944489749875" lon="8.509578764719812"><ele>9.857142857142858</ele><time>2026-04-25T08:02:34.001Z</time></trkpt><trkpt lat="44.337006284029314" lon="8.509548652703126"><ele>9.714285714285715</ele><time>2026-04-25T08:02:36.001Z</time></trkpt><trkpt lat="44.337070487311415" lon="8.509513166131493"><ele>9.571428571428573</ele><time>2026-04-25T08:02:38.001Z</time></trkpt><trkpt lat="44.33714868158337" lon="8.509503711186152"><ele>9.428571428571429</ele><time>2026-04-25T08:02:40.001Z</time></trkpt><trkpt lat="44.33723992221133" lon="8.509516560612047"><ele>9.285714285714286</ele><time>2026-04-25T08:02:42.001Z</time></trkpt><trkpt lat="44.337304903862794" lon="8.509506383609542"><ele>9.142857142857144</ele><time>2026-04-25T08:02:43.001Z</time></trkpt><trkpt lat="44.337381088850904" lon="8.509486885059436"><ele>9.0</ele><time>2026-04-25T08:02:44.001Z</time></trkpt><trkpt lat="44.33744993272046" lon="8.509489411337263"><ele>8.8</ele><time>2026-04-25T08:02:45.001Z</time></trkpt><trkpt lat="44.33753836478845" lon="8.50952157228408"><ele>8.600000000000001</ele><time>2026-04-25T08:02:46.001Z</time></trkpt><trkpt lat="44.33763736413629" lon="8.509580295379914"><ele>8.4</ele><time>2026-04-25T08:02:47.001Z</time></trkpt><trkpt lat="44.3377489791686" lon="8.509648163453159"><ele>8.200000000000001</ele><time>2026-04-25T08:02:48.001Z</time></trkpt><trkpt lat="44.33784884205755" lon="8.509710936889158"><ele>8.0</ele><time>2026-04-25T08:02:49.001Z</time></trkpt><trkpt lat="44.33794314389226" lon="8.509773392201"><ele>8.0</ele><time>2026-04-25T08:02:50.001Z</time></trkpt><trkpt lat="44.338030117799576" lon="8.509825620407161"><ele>8.0</ele><time>2026-04-25T08:02:51.001Z</time></trkpt><trkpt lat="44.33811942408349" lon="8.509875246018758"><ele>8.0</ele><time>2026-04-25T08:02:52.001Z</time></trkpt><trkpt lat="44.33820943420211" lon="8.50992937779518"><ele>8.0</ele><time>2026-04-25T08:02:53.001Z</time></trkpt><trkpt lat="44.338300005828565" lon="8.509980955942332"><ele>8.0</ele><time>2026-04-25T08:02:54.001Z</time></trkpt><trkpt lat="44.33839184173141" lon="8.510028447625684"><ele>8.4</ele><time>2026-04-25T08:02:55.001Z</time></trkpt><trkpt lat="44.33848245048774" lon="8.510071754585349"><ele>8.8</ele><time>2026-04-25T08:02:56.001Z</time></trkpt><trkpt lat="44.33856096763098" lon="8.51010726745592"><ele>9.2</ele><time>2026-04-25T08:02:57.001Z</time></trkpt><trkpt lat="44.33862866221395" lon="8.510140659787899"><ele>9.6</ele><time>2026-04-25T08:02:58.001Z</time></trkpt><trkpt lat="44.33873538518572" lon="8.510200084783243"><ele>10.0</ele><time>2026-04-25T08:03:00.001Z</time></trkpt><trkpt lat="44.33881956339211" lon="8.510287212152466"><ele>10.0</ele><time>2026-04-25T08:03:02.001Z</time></trkpt><trkpt lat="44.33887791906283" lon="8.510343300063417"><ele>10.0</ele><time>2026-04-25T08:03:03.001Z</time></trkpt><trkpt lat="44.3389537780507" lon="8.510406096861859"><ele>10.0</ele><time>2026-04-25T08:03:04.001Z</time></trkpt><trkpt lat="44.33904751123977" lon="8.510480582164234"><ele>10.0</ele><time>2026-04-25T08:03:05.001Z</time></trkpt><trkpt lat="44.33915381675433" lon="8.510564884861083"><ele>10.0</ele><time>2026-04-25T08:03:06.001Z</time></trkpt><trkpt lat="44.33923473074772" lon="8.51067593793046"><ele>10.5</ele><time>2026-04-25T08:03:07.001Z</time></trkpt><trkpt lat="44.33934254331585" lon="8.510765267905892"><ele>11.0</ele><time>2026-04-25T08:03:08.001Z</time></trkpt><trkpt lat="44.3394551094871" lon="8.510832965586797"><ele>11.5</ele><time>2026-04-25T08:03:09.001Z</time></trkpt><trkpt lat="44.339557473155374" lon="8.51092751112748"><ele>12.0</ele><time>2026-04-25T08:03:10.001Z</time></trkpt><trkpt lat="44.339664488750145" lon="8.511013502801866"><ele>12.25</ele><time>2026-04-25T08:03:11.001Z</time></trkpt><trkpt lat="44.33977113572319" lon="8.511095592109864"><ele>12.5</ele><time>2026-04-25T08:03:12.001Z</time></trkpt><trkpt lat="44.33987142241173" lon="8.51116692086398"><ele>12.75</ele><time>2026-04-25T08:03:13.001Z</time></trkpt><trkpt lat="44.33997536203605" lon="8.511221513889959"><ele>13.0</ele><time>2026-04-25T08:03:14.001Z</time></trkpt><trkpt lat="44.34008580081525" lon="8.511257226142096"><ele>13.0</ele><time>2026-04-25T08:03:15.001Z</time></trkpt><trkpt lat="44.340201181781765" lon="8.51127537067748"><ele>13.0</ele><time>2026-04-25T08:03:16.001Z</time></trkpt><trkpt lat="44.34032227779992" lon="8.511273796330181"><ele>13.0</ele><time>2026-04-25T08:03:17.001Z</time></trkpt><trkpt lat="44.3404447569393" lon="8.51125426718556"><ele>13.0</ele><time>2026-04-25T08:03:18.001Z</time></trkpt><trkpt lat="44.340571053327444" lon="8.51122274365395"><ele>13.25</ele><time>2026-04-25T08:03:19.001Z</time></trkpt><trkpt lat="44.34070017696948" lon="8.511183643296304"><ele>13.5</ele><time>2026-04-25T08:03:20.001Z</time></trkpt><trkpt lat="44.340834422517275" lon="8.511145223819026"><ele>13.75</ele><time>2026-04-25T08:03:21.001Z</time></trkpt><trkpt lat="44.340973810812095" lon="8.51111262915143"><ele>14.0</ele><time>2026-04-25T08:03:22.001Z</time></trkpt><trkpt lat="44.341118607302334" lon="8.511090588208441"><ele>14.0</ele><time>2026-04-25T08:03:23.001Z</time></trkpt><trkpt lat="44.34126419793666" lon="8.511071090373617"><ele>14.0</ele><time>2026-04-25T08:03:24.001Z</time></trkpt><trkpt lat="44.34140254402291" lon="8.5110494367012"><ele>14.0</ele><time>2026-04-25T08:03:25.001Z</time></trkpt><trkpt lat="44.341541593418235" lon="8.511017132443643"><ele>14.0</ele><time>2026-04-25T08:03:26.001Z</time></trkpt><trkpt lat="44.34168102759897" lon="8.510967607663467"><ele>14.5</ele><time>2026-04-25T08:03:27.001Z</time></trkpt><trkpt lat="44.34182758687907" lon="8.510882050348489"><ele>15.0</ele><time>2026-04-25T08:03:28.001Z</time></trkpt><trkpt lat="44.34196735820165" lon="8.51084240670515"><ele>15.5</ele><time>2026-04-25T08:03:29.001Z</time></trkpt><trkpt lat="44.34210722690813" lon="8.510803437738515"><ele>16.0</ele><time>2026-04-25T08:03:30.001Z</time></trkpt><trkpt lat="44.3422395672228" lon="8.510766339351932"><ele>16.0</ele><time>2026-04-25T08:03:31.001Z</time></trkpt><trkpt lat="44.34237406879868" lon="8.510729453025336"><ele>16.0</ele><time>2026-04-25T08:03:32.001Z</time></trkpt><trkpt lat="44.342509917086105" lon="8.510691943307785"><ele>16.0</ele><time>2026-04-25T08:03:33.001Z</time></trkpt><trkpt lat="44.34264996448217" lon="8.510660806490456"><ele>16.0</ele><time>2026-04-25T08:03:34.001Z</time></trkpt><trkpt lat="44.3427906578354" lon="8.510638883386209"><ele>16.0</ele><time>2026-04-25T08:03:35.001Z</time></trkpt><trkpt lat="44.34293555324775" lon="8.510618261876587"><ele>16.0</ele><time>2026-04-25T08:03:36.001Z</time></trkpt><trkpt lat="44.34308027761049" lon="8.510598440752345"><ele>16.0</ele><time>2026-04-25T08:03:37.001Z</time></trkpt><trkpt lat="44.343228782745285" lon="8.510591154289958"><ele>16.0</ele><time>2026-04-25T08:03:38.001Z</time></trkpt><trkpt lat="44.34336962692283" lon="8.510437466767756"><ele>16.5</ele><time>2026-04-25T08:03:39.001Z</time></trkpt><trkpt lat="44.343518432479634" lon="8.510395811276858"><ele>17.0</ele><time>2026-04-25T08:03:40.001Z</time></trkpt><trkpt lat="44.34366651197488" lon="8.510355943668474"><ele>17.5</ele><time>2026-04-25T08:03:41.001Z</time></trkpt><trkpt lat="44.34381031206467" lon="8.510316651895128"><ele>18.0</ele><time>2026-04-25T08:03:42.001Z</time></trkpt><trkpt lat="44.34394526160708" lon="8.51032435051691"><ele>17.0</ele><time>2026-04-25T08:03:43.001Z</time></trkpt><trkpt lat="44.34408711192587" lon="8.510342466088607"><ele>16.0</ele><time>2026-04-25T08:03:44.001Z</time></trkpt><trkpt lat="44.34422597319073" lon="8.510394891835935"><ele>15.0</ele><time>2026-04-25T08:03:45.001Z</time></trkpt><trkpt lat="44.344359018565406" lon="8.51048248328958"><ele>14.0</ele><time>2026-04-25T08:03:46.001Z</time></trkpt><trkpt lat="44.344502559976036" lon="8.51059412203409"><ele>14.0</ele><time>2026-04-25T08:03:47.001Z</time></trkpt><trkpt lat="44.34464967524522" lon="8.51072414791099"><ele>14.0</ele><time>2026-04-25T08:03:48.001Z</time></trkpt><trkpt lat="44.34479708082234" lon="8.510855379735958"><ele>14.0</ele><time>2026-04-25T08:03:49.001Z</time></trkpt><trkpt lat="44.344940762616" lon="8.510985054258988"><ele>14.333333333333334</ele><time>2026-04-25T08:03:50.001Z</time></trkpt><trkpt lat="44.345086865664165" lon="8.511097137702704"><ele>14.666666666666668</ele><time>2026-04-25T08:03:51.001Z</time></trkpt><trkpt lat="44.345224089685175" lon="8.511230176501801"><ele>15.0</ele><time>2026-04-25T08:03:52.001Z</time></trkpt><trkpt lat="44.3453619602926" lon="8.511356871299826"><ele>15.25</ele><time>2026-04-25T08:03:53.001Z</time></trkpt><trkpt lat="44.34549582080881" lon="8.511467799094326"><ele>15.5</ele><time>2026-04-25T08:03:54Z</time></trkpt><trkpt lat="44.345627112205285" lon="8.511549070751997"><ele>15.75</ele><time>2026-04-25T08:03:55Z</time></trkpt><trkpt lat="44.34575760606793" lon="8.511606633394837"><ele>16.0</ele><time>2026-04-25T08:03:56Z</time></trkpt><trkpt lat="44.345899950381245" lon="8.511622380817382"><ele>16.333333333333332</ele><time>2026-04-25T08:03:57Z</time></trkpt><trkpt lat="44.346048793196054" lon="8.511610915275346"><ele>16.666666666666668</ele><time>2026-04-25T08:03:58Z</time></trkpt><trkpt lat="44.346206384204486" lon="8.511575101161196"><ele>17.0</ele><time>2026-04-25T08:03:59Z</time></trkpt><trkpt lat="44.346368818766315" lon="8.511521798453549"><ele>16.333333333333336</ele><time>2026-04-25T08:04:00Z</time></trkpt><trkpt lat="44.346523808288005" lon="8.511430590177977"><ele>15.666666666666668</ele><time>2026-04-25T08:04:01Z</time></trkpt><trkpt lat="44.346664853105146" lon="8.511339110525302"><ele>15.0</ele><time>2026-04-25T08:04:02Z</time></trkpt><trkpt lat="44.346803068390685" lon="8.511232519338426"><ele>15.0</ele><time>2026-04-25T08:04:03Z</time></trkpt><trkpt lat="44.34693470464301" lon="8.511106683163126"><ele>15.0</ele><time>2026-04-25T08:04:04Z</time></trkpt><trkpt lat="44.347069072169866" lon="8.510962458423665"><ele>15.0</ele><time>2026-04-25T08:04:05Z</time></trkpt><trkpt lat="44.347208910592116" lon="8.510801905463993"><ele>15.666666666666668</ele><time>2026-04-25T08:04:06Z</time></trkpt><trkpt lat="44.34735116121029" lon="8.510637574804043"><ele>16.333333333333336</ele><time>2026-04-25T08:04:07Z</time></trkpt><trkpt lat="44.347483374354574" lon="8.510488725772621"><ele>17.0</ele><time>2026-04-25T08:04:08Z</time></trkpt><trkpt lat="44.34760884926123" lon="8.510357361237674"><ele>18.0</ele><time>2026-04-25T08:04:09Z</time></trkpt><trkpt lat="44.34772898853074" lon="8.510237740874018"><ele>19.0</ele><time>2026-04-25T08:04:10Z</time></trkpt><trkpt lat="44.34785113487119" lon="8.510140873213285"><ele>20.0</ele><time>2026-04-25T08:04:11Z</time></trkpt><trkpt lat="44.34797849156283" lon="8.510076959204625"><ele>21.0</ele><time>2026-04-25T08:04:12Z</time></trkpt><trkpt lat="44.34810728083438" lon="8.510042023101809"><ele>21.5</ele><time>2026-04-25T08:04:13Z</time></trkpt><trkpt lat="44.348241281637534" lon="8.510033492571154"><ele>22.0</ele><time>2026-04-25T08:04:14Z</time></trkpt><trkpt lat="44.34837744263467" lon="8.510055232740656"><ele>22.5</ele><time>2026-04-25T08:04:15Z</time></trkpt><trkpt lat="44.3485169098889" lon="8.510104284810112"><ele>23.0</ele><time>2026-04-25T08:04:16Z</time></trkpt><trkpt lat="44.34865509993901" lon="8.510187372465628"><ele>23.0</ele><time>2026-04-25T08:04:17Z</time></trkpt><trkpt lat="44.34878273214304" lon="8.510331266261803"><ele>23.0</ele><time>2026-04-25T08:04:18Z</time></trkpt><trkpt lat="44.348927784762736" lon="8.510461872244889"><ele>23.0</ele><time>2026-04-25T08:04:19Z</time></trkpt><trkpt lat="44.34906208443098" lon="8.510625498057639"><ele>23.0</ele><time>2026-04-25T08:04:20Z</time></trkpt><trkpt lat="44.34919799876232" lon="8.51077550129894"><ele>23.0</ele><time>2026-04-25T08:04:21Z</time></trkpt><trkpt lat="44.34933983115216" lon="8.51090597859553"><ele>23.0</ele><time>2026-04-25T08:04:22Z</time></trkpt><trkpt lat="44.34948723461788" lon="8.511024442494547"><ele>23.0</ele><time>2026-04-25T08:04:23Z</time></trkpt><trkpt lat="44.34964054209097" lon="8.511125823115627"><ele>23.0</ele><time>2026-04-25T08:04:24Z</time></trkpt><trkpt lat="44.349804951669775" lon="8.511209195379347"><ele>23.0</ele><time>2026-04-25T08:04:25Z</time></trkpt><trkpt lat="44.34997361793087" lon="8.511285007690821"><ele>24.0</ele><time>2026-04-25T08:04:26Z</time></trkpt><trkpt lat="44.35014004891232" lon="8.511364466536502"><ele>25.0</ele><time>2026-04-25T08:04:27Z</time></trkpt><trkpt lat="44.350309678933804" lon="8.511460739473065"><ele>26.0</ele><time>2026-04-25T08:04:28Z</time></trkpt><trkpt lat="44.35046971543574" lon="8.511577243303018"><ele>26.666666666666664</ele><time>2026-04-25T08:04:29Z</time></trkpt><trkpt lat="44.35063160021382" lon="8.511708157038571"><ele>27.333333333333336</ele><time>2026-04-25T08:04:30Z</time></trkpt><trkpt lat="44.350792620417465" lon="8.511848893473948"><ele>28.0</ele><time>2026-04-25T08:04:31Z</time></trkpt><trkpt lat="44.35094878677009" lon="8.512002036736872"><ele>28.333333333333336</ele><time>2026-04-25T08:04:32Z</time></trkpt><trkpt lat="44.35110179604009" lon="8.512173886155136"><ele>28.666666666666664</ele><time>2026-04-25T08:04:33Z</time></trkpt><trkpt lat="44.35124259736607" lon="8.512353195901765"><ele>29.0</ele><time>2026-04-25T08:04:34Z</time></trkpt><trkpt lat="44.35137250836533" lon="8.512526407129005"><ele>30.666666666666664</ele><time>2026-04-25T08:04:35Z</time></trkpt><trkpt lat="44.35149365874093" lon="8.512676517739546"><ele>32.333333333333336</ele><time>2026-04-25T08:04:36Z</time></trkpt><trkpt lat="44.351624583329034" lon="8.51280240781075"><ele>34.0</ele><time>2026-04-25T08:04:37Z</time></trkpt><trkpt lat="44.35176840321034" lon="8.512906047430436"><ele>34.0</ele><time>2026-04-25T08:04:38Z</time></trkpt><trkpt lat="44.35192479572839" lon="8.512988702646055"><ele>34.0</ele><time>2026-04-25T08:04:39Z</time></trkpt><trkpt lat="44.35208934814518" lon="8.513059439834416"><ele>34.0</ele><time>2026-04-25T08:04:40.001Z</time></trkpt><trkpt lat="44.35224705820553" lon="8.51312940605283"><ele>32.25</ele><time>2026-04-25T08:04:41.001Z</time></trkpt><trkpt lat="44.352393237447906" lon="8.513202332255224"><ele>30.5</ele><time>2026-04-25T08:04:42.001Z</time></trkpt><trkpt lat="44.3525268672344" lon="8.513271700673078"><ele>28.75</ele><time>2026-04-25T08:04:43.002Z</time></trkpt><trkpt lat="44.35265359997055" lon="8.51332142450652"><ele>27.0</ele><time>2026-04-25T08:04:44.002Z</time></trkpt><trkpt lat="44.35278000408262" lon="8.513341908479676"><ele>27.0</ele><time>2026-04-25T08:04:45.002Z</time></trkpt><trkpt lat="44.352900232137166" lon="8.513323095487578"><ele>27.0</ele><time>2026-04-25T08:04:46.002Z</time></trkpt><trkpt lat="44.35302172104668" lon="8.513273334914356"><ele>27.0</ele><time>2026-04-25T08:04:47.002Z</time></trkpt><trkpt lat="44.35313582937265" lon="8.51318575822959"><ele>27.0</ele><time>2026-04-25T08:04:48.002Z</time></trkpt><trkpt lat="44.35324225298931" lon="8.513067685633201"><ele>27.0</ele><time>2026-04-25T08:04:49.002Z</time></trkpt><trkpt lat="44.35332798807419" lon="8.512914387537483"><ele>27.0</ele><time>2026-04-25T08:04:50.002Z</time></trkpt><trkpt lat="44.35339433866301" lon="8.512727646543375"><ele>27.0</ele><time>2026-04-25T08:04:51.002Z</time></trkpt><trkpt lat="44.353446931254744" lon="8.512510642426264"><ele>27.0</ele><time>2026-04-25T08:04:52.002Z</time></trkpt><trkpt lat="44.35349272083002" lon="8.512270721980437"><ele>27.0</ele><time>2026-04-25T08:04:53.002Z</time></trkpt><trkpt lat="44.35354327311387" lon="8.512021919434874"><ele>27.0</ele><time>2026-04-25T08:04:54.002Z</time></trkpt><trkpt lat="44.35359965039676" lon="8.511789513762363"><ele>30.0</ele><time>2026-04-25T08:04:55.002Z</time></trkpt><trkpt lat="44.35365150639568" lon="8.511579539837063"><ele>33.0</ele><time>2026-04-25T08:04:56.002Z</time></trkpt><trkpt lat="44.353703983025504" lon="8.511381457870108"><ele>36.0</ele><time>2026-04-25T08:04:57.002Z</time></trkpt><trkpt lat="44.35377113845617" lon="8.511189827615093"><ele>36.0</ele><time>2026-04-25T08:04:58.002Z</time></trkpt><trkpt lat="44.353861772009154" lon="8.511019113283725"><ele>36.0</ele><time>2026-04-25T08:04:59.002Z</time></trkpt><trkpt lat="44.353971008481075" lon="8.510864514451118"><ele>36.0</ele><time>2026-04-25T08:05:00.002Z</time></trkpt><trkpt lat="44.35409972803204" lon="8.510728831977042"><ele>36.0</ele><time>2026-04-25T08:05:01.002Z</time></trkpt><trkpt lat="44.3542463743273" lon="8.510610498774223"><ele>36.0</ele><time>2026-04-25T08:05:02.002Z</time></trkpt><trkpt lat="44.35440750535027" lon="8.510543020872362"><ele>36.0</ele><time>2026-04-25T08:05:03.002Z</time></trkpt><trkpt lat="44.35455008808538" lon="8.510455998705966"><ele>36.0</ele><time>2026-04-25T08:05:04.002Z</time></trkpt><trkpt lat="44.354678218636636" lon="8.510374432032464"><ele>36.0</ele><time>2026-04-25T08:05:05.002Z</time></trkpt><trkpt lat="44.35478608596742" lon="8.510266966576154"><ele>36.0</ele><time>2026-04-25T08:05:06.002Z</time></trkpt><trkpt lat="44.35487879832734" lon="8.51012740750283"><ele>36.0</ele><time>2026-04-25T08:05:07.002Z</time></trkpt><trkpt lat="44.35495586180125" lon="8.50995252006398"><ele>36.0</ele><time>2026-04-25T08:05:08.002Z</time></trkpt><trkpt lat="44.355022520269756" lon="8.509748131131232"><ele>36.0</ele><time>2026-04-25T08:05:09.002Z</time></trkpt><trkpt lat="44.355086276851324" lon="8.509530204210119"><ele>36.0</ele><time>2026-04-25T08:05:10.002Z</time></trkpt><trkpt lat="44.355145585166746" lon="8.509314192912585"><ele>37.75</ele><time>2026-04-25T08:05:11.002Z</time></trkpt><trkpt lat="44.35520257766241" lon="8.509128143198364"><ele>39.5</ele><time>2026-04-25T08:05:12.002Z</time></trkpt><trkpt lat="44.355273800015254" lon="8.508973487317915"><ele>41.25</ele><time>2026-04-25T08:05:13.002Z</time></trkpt><trkpt lat="44.35537129694141" lon="8.50884558585304"><ele>43.0</ele><time>2026-04-25T08:05:14.002Z</time></trkpt><trkpt lat="44.355510437313086" lon="8.508764642775827"><ele>41.66666666666667</ele><time>2026-04-25T08:05:15.002Z</time></trkpt><trkpt lat="44.35564449158917" lon="8.508630962261364"><ele>40.333333333333336</ele><time>2026-04-25T08:05:16.002Z</time></trkpt><trkpt lat="44.35579970621273" lon="8.508516775268223"><ele>39.0</ele><time>2026-04-25T08:05:17.002Z</time></trkpt><trkpt lat="44.35596114829017" lon="8.508386583902574"><ele>39.0</ele><time>2026-04-25T08:05:18.002Z</time></trkpt><trkpt lat="44.35613439427623" lon="8.508248386429132"><ele>39.0</ele><time>2026-04-25T08:05:19.002Z</time></trkpt><trkpt lat="44.356309743125784" lon="8.508105972341479"><ele>39.0</ele><time>2026-04-25T08:05:20.002Z</time></trkpt><trkpt lat="44.35647964828807" lon="8.50796698369551"><ele>38.0</ele><time>2026-04-25T08:05:21.002Z</time></trkpt><trkpt lat="44.356647373596125" lon="8.50783179140369"><ele>37.0</ele><time>2026-04-25T08:05:22.002Z</time></trkpt><trkpt lat="44.35681824780897" lon="8.507693800208605"><ele>36.0</ele><time>2026-04-25T08:05:23.002Z</time></trkpt><trkpt lat="44.35699436733507" lon="8.507552300497712"><ele>36.0</ele><time>2026-04-25T08:05:24.002Z</time></trkpt><trkpt lat="44.357176299061706" lon="8.50740559107089"><ele>36.0</ele><time>2026-04-25T08:05:25.002Z</time></trkpt><trkpt lat="44.35736226629835" lon="8.50725652325858"><ele>36.0</ele><time>2026-04-25T08:05:26.002Z</time></trkpt><trkpt lat="44.35754515365788" lon="8.507110901977343"><ele>38.666666666666664</ele><time>2026-04-25T08:05:27.002Z</time></trkpt><trkpt lat="44.357712399923706" lon="8.50697462300097"><ele>41.33333333333333</ele><time>2026-04-25T08:05:28.002Z</time></trkpt><trkpt lat="44.35787865253903" lon="8.506841629947715"><ele>44.0</ele><time>2026-04-25T08:05:29.002Z</time></trkpt><trkpt lat="44.35804363398649" lon="8.506709662183754"><ele>45.0</ele><time>2026-04-25T08:05:30.002Z</time></trkpt><trkpt lat="44.3582128866196" lon="8.50657742174641"><ele>46.0</ele><time>2026-04-25T08:05:31.002Z</time></trkpt><trkpt lat="44.35837902662241" lon="8.506443078240741"><ele>47.0</ele><time>2026-04-25T08:05:32.002Z</time></trkpt><trkpt lat="44.35855246207778" lon="8.506305929291797"><ele>47.666666666666664</ele><time>2026-04-25T08:05:33.002Z</time></trkpt><trkpt lat="44.358733998995355" lon="8.506163813488964"><ele>48.33333333333333</ele><time>2026-04-25T08:05:34.002Z</time></trkpt><trkpt lat="44.35891897244782" lon="8.506013431895617"><ele>49.0</ele><time>2026-04-25T08:05:35.002Z</time></trkpt><trkpt lat="44.359111237585076" lon="8.505856975119269"><ele>49.0</ele><time>2026-04-25T08:05:36.002Z</time></trkpt><trkpt lat="44.35930284294617" lon="8.505700759021101"><ele>49.0</ele><time>2026-04-25T08:05:37.002Z</time></trkpt><trkpt lat="44.35948927067186" lon="8.50555028899926"><ele>49.0</ele><time>2026-04-25T08:05:38.002Z</time></trkpt><trkpt lat="44.35966466777004" lon="8.505405180699544"><ele>49.666666666666664</ele><time>2026-04-25T08:05:39.002Z</time></trkpt><trkpt lat="44.35983176674902" lon="8.505266635161268"><ele>50.33333333333333</ele><time>2026-04-25T08:05:40.002Z</time></trkpt><trkpt lat="44.359996607518625" lon="8.505129333439784"><ele>51.0</ele><time>2026-04-25T08:05:41.001Z</time></trkpt><trkpt lat="44.36015932413435" lon="8.504995608130146"><ele>51.0</ele><time>2026-04-25T08:05:42.001Z</time></trkpt><trkpt lat="44.3603162797938" lon="8.504873641930836"><ele>51.0</ele><time>2026-04-25T08:05:43.001Z</time></trkpt><trkpt lat="44.36047038038106" lon="8.504776129933168"><ele>51.0</ele><time>2026-04-25T08:05:44.001Z</time></trkpt><trkpt lat="44.36062252332078" lon="8.50470325155119"><ele>51.0</ele><time>2026-04-25T08:05:45.001Z</time></trkpt><trkpt lat="44.36078104907162" lon="8.504656223426068"><ele>51.0</ele><time>2026-04-25T08:05:46.001Z</time></trkpt><trkpt lat="44.360952641600434" lon="8.504630162658167"><ele>51.0</ele><time>2026-04-25T08:05:47.001Z</time></trkpt><trkpt lat="44.36113279329304" lon="8.504630347295167"><ele>51.0</ele><time>2026-04-25T08:05:48.001Z</time></trkpt><trkpt lat="44.36130785306843" lon="8.504681688222362"><ele>51.0</ele><time>2026-04-25T08:05:49.001Z</time></trkpt><trkpt lat="44.36147898788718" lon="8.504729491123987"><ele>51.0</ele><time>2026-04-25T08:05:50.001Z</time></trkpt><trkpt lat="44.36164862643683" lon="8.504811380994816"><ele>52.0</ele><time>2026-04-25T08:05:51.001Z</time></trkpt><trkpt lat="44.36182768881856" lon="8.504911284543297"><ele>53.0</ele><time>2026-04-25T08:05:52.001Z</time></trkpt><trkpt lat="44.36201602989244" lon="8.505001475757332"><ele>54.0</ele><time>2026-04-25T08:05:53.001Z</time></trkpt><trkpt lat="44.36219261670282" lon="8.505105666923344"><ele>56.33333333333333</ele><time>2026-04-25T08:05:54.001Z</time></trkpt><trkpt lat="44.36236690846722" lon="8.50520490202998"><ele>58.666666666666664</ele><time>2026-04-25T08:05:55.001Z</time></trkpt><trkpt lat="44.362540664900436" lon="8.505308038518079"><ele>61.0</ele><time>2026-04-25T08:05:56.001Z</time></trkpt><trkpt lat="44.36271946675023" lon="8.505414644482526"><ele>61.0</ele><time>2026-04-25T08:05:57.001Z</time></trkpt><trkpt lat="44.36290324501221" lon="8.50551581325097"><ele>61.0</ele><time>2026-04-25T08:05:58.001Z</time></trkpt><trkpt lat="44.363098097303094" lon="8.505599302175101"><ele>61.0</ele><time>2026-04-25T08:05:59.001Z</time></trkpt><trkpt lat="44.363294621972436" lon="8.505664294698141"><ele>62.0</ele><time>2026-04-25T08:06:00.001Z</time></trkpt><trkpt lat="44.36349386746527" lon="8.505723657642513"><ele>63.0</ele><time>2026-04-25T08:06:01.001Z</time></trkpt><trkpt lat="44.36369273796334" lon="8.505777489582462"><ele>64.0</ele><time>2026-04-25T08:06:02.001Z</time></trkpt><trkpt lat="44.363878331764305" lon="8.505825519780517"><ele>65.33333333333333</ele><time>2026-04-25T08:06:03.001Z</time></trkpt><trkpt lat="44.364050057978965" lon="8.505874594960343"><ele>66.66666666666667</ele><time>2026-04-25T08:06:04.001Z</time></trkpt><trkpt lat="44.364211631483215" lon="8.505922728191042"><ele>68.0</ele><time>2026-04-25T08:06:05.001Z</time></trkpt><trkpt lat="44.36436252186368" lon="8.505966749786062"><ele>68.0</ele><time>2026-04-25T08:06:06.001Z</time></trkpt><trkpt lat="44.364501489452934" lon="8.506003292818884"><ele>68.0</ele><time>2026-04-25T08:06:07.001Z</time></trkpt><trkpt lat="44.3646305386496" lon="8.506017542787653"><ele>68.0</ele><time>2026-04-25T08:06:08.001Z</time></trkpt><trkpt lat="44.36475790802664" lon="8.505994865262435"><ele>68.0</ele><time>2026-04-25T08:06:09.001Z</time></trkpt><trkpt lat="44.36488831674158" lon="8.505942385048783"><ele>66.33333333333334</ele><time>2026-04-25T08:06:10.001Z</time></trkpt><trkpt lat="44.365021250837344" lon="8.505846269799873"><ele>64.66666666666667</ele><time>2026-04-25T08:06:11.001Z</time></trkpt><trkpt lat="44.365164650368804" lon="8.505730585387964"><ele>63.0</ele><time>2026-04-25T08:06:12.001Z</time></trkpt><trkpt lat="44.36531298641243" lon="8.505627646158926"><ele>63.0</ele><time>2026-04-25T08:06:13.001Z</time></trkpt><trkpt lat="44.36546637357304" lon="8.505522242566045"><ele>63.0</ele><time>2026-04-25T08:06:14.001Z</time></trkpt><trkpt lat="44.365615434547294" lon="8.505418811981015"><ele>63.0</ele><time>2026-04-25T08:06:15.001Z</time></trkpt><trkpt lat="44.36575327449813" lon="8.505327879288814"><ele>64.25</ele><time>2026-04-25T08:06:16.001Z</time></trkpt><trkpt lat="44.36588570731765" lon="8.5052419004086"><ele>65.5</ele><time>2026-04-25T08:06:17.001Z</time></trkpt><trkpt lat="44.36601175823846" lon="8.505173542064787"><ele>66.75</ele><time>2026-04-25T08:06:18.001Z</time></trkpt><trkpt lat="44.36614004396909" lon="8.505124507835362"><ele>68.0</ele><time>2026-04-25T08:06:19.001Z</time></trkpt><trkpt lat="44.36626825713182" lon="8.505103624830067"><ele>67.75</ele><time>2026-04-25T08:06:20.001Z</time></trkpt><trkpt lat="44.36638749020791" lon="8.505107299385873"><ele>67.5</ele><time>2026-04-25T08:06:21.001Z</time></trkpt><trkpt lat="44.36649581908296" lon="8.505120147854209"><ele>67.25</ele><time>2026-04-25T08:06:22.001Z</time></trkpt><trkpt lat="44.36660824172257" lon="8.505128262342154"><ele>67.0</ele><time>2026-04-25T08:06:23.001Z</time></trkpt><trkpt lat="44.36672866234497" lon="8.505139374856038"><ele>67.0</ele><time>2026-04-25T08:06:24.001Z</time></trkpt><trkpt lat="44.366851139474136" lon="8.505149657869165"><ele>67.0</ele><time>2026-04-25T08:06:25.001Z</time></trkpt><trkpt lat="44.366974792146266" lon="8.505158250459788"><ele>67.0</ele><time>2026-04-25T08:06:26.001Z</time></trkpt><trkpt lat="44.36710138524948" lon="8.505180970109329"><ele>67.0</ele><time>2026-04-25T08:06:27.001Z</time></trkpt><trkpt lat="44.36721181087556" lon="8.505227180801388"><ele>67.6</ele><time>2026-04-25T08:06:28.001Z</time></trkpt><trkpt lat="44.367316601380054" lon="8.505250550957317"><ele>68.2</ele><time>2026-04-25T08:06:29.001Z</time></trkpt><trkpt lat="44.36741565302924" lon="8.505279687294385"><ele>68.8</ele><time>2026-04-25T08:06:30.001Z</time></trkpt><trkpt lat="44.36751673284961" lon="8.505323331984712"><ele>69.4</ele><time>2026-04-25T08:06:31.001Z</time></trkpt><trkpt lat="44.36760149099447" lon="8.505379296063108"><ele>70.0</ele><time>2026-04-25T08:06:32.001Z</time></trkpt><trkpt lat="44.367690044633356" lon="8.505431480613694"><ele>71.0</ele><time>2026-04-25T08:06:33.001Z</time></trkpt><trkpt lat="44.36775346316445" lon="8.50552289045182"><ele>72.0</ele><time>2026-04-25T08:06:34.001Z</time></trkpt><trkpt lat="44.36778679674001" lon="8.505627208809383"><ele>73.0</ele><time>2026-04-25T08:06:35.001Z</time></trkpt><trkpt lat="44.3677976003157" lon="8.50572809777174"><ele>74.0</ele><time>2026-04-25T08:06:36.001Z</time></trkpt><trkpt lat="44.3676360280748" lon="8.505906898942085"><ele>74.0</ele><time>2026-04-25T08:06:38.001Z</time></trkpt><trkpt lat="44.36769514691323" lon="8.505975590304073"><ele>74.0</ele><time>2026-04-25T08:06:40.001Z</time></trkpt><trkpt lat="44.36765111210872" lon="8.506058306843025"><ele>74.0</ele><time>2026-04-25T08:06:41.001Z</time></trkpt><trkpt lat="44.36760696584552" lon="8.506149593586471"><ele>74.0</ele><time>2026-04-25T08:06:42.001Z</time></trkpt><trkpt lat="44.36759634846049" lon="8.506269802272461"><ele>74.0</ele><time>2026-04-25T08:06:43.001Z</time></trkpt><trkpt lat="44.3676139474816" lon="8.506418073421175"><ele>74.0</ele><time>2026-04-25T08:06:44.001Z</time></trkpt><trkpt lat="44.3676443879309" lon="8.506596432472774"><ele>76.6</ele><time>2026-04-25T08:06:45.001Z</time></trkpt><trkpt lat="44.36768044383976" lon="8.506761547644677"><ele>79.2</ele><time>2026-04-25T08:06:46.001Z</time></trkpt><trkpt lat="44.36772265797268" lon="8.506904938873943"><ele>81.8</ele><time>2026-04-25T08:06:47.001Z</time></trkpt><trkpt lat="44.36779569599111" lon="8.507050210579097"><ele>84.39999999999999</ele><time>2026-04-25T08:06:48.001Z</time></trkpt><trkpt lat="44.36784380430737" lon="8.507150513250792"><ele>87.0</ele><time>2026-04-25T08:06:49.001Z</time></trkpt><trkpt lat="44.36784096424055" lon="8.507290818230281"><ele>87.0</ele><time>2026-04-25T08:06:51.001Z</time></trkpt><trkpt lat="44.3677810010012" lon="8.507326189934197"><ele>87.0</ele><time>2026-04-25T08:06:52.001Z</time></trkpt><trkpt lat="44.36770985024501" lon="8.507323130578758"><ele>87.0</ele><time>2026-04-25T08:06:53.001Z</time></trkpt><trkpt lat="44.367653496962426" lon="8.507230495249429"><ele>87.0</ele><time>2026-04-25T08:06:54.001Z</time></trkpt><trkpt lat="44.36759697497549" lon="8.50712958829228"><ele>87.0</ele><time>2026-04-25T08:06:55.001Z</time></trkpt><trkpt lat="44.367519427390754" lon="8.507005507658208"><ele>87.0</ele><time>2026-04-25T08:06:56.001Z</time></trkpt><trkpt lat="44.367459129320444" lon="8.506826595184753"><ele>87.0</ele><time>2026-04-25T08:06:57.001Z</time></trkpt><trkpt lat="44.36741150811443" lon="8.506661458883205"><ele>87.0</ele><time>2026-04-25T08:06:58.001Z</time></trkpt><trkpt lat="44.367370230814075" lon="8.506529537057775"><ele>87.0</ele><time>2026-04-25T08:06:59.001Z</time></trkpt><trkpt lat="44.367328655394175" lon="8.506444479422285"><ele>87.0</ele><time>2026-04-25T08:07:00.001Z</time></trkpt><trkpt lat="44.36722762736292" lon="8.506458014620117"><ele>87.0</ele><time>2026-04-25T08:07:02.001Z</time></trkpt><trkpt lat="44.36719967295983" lon="8.506627269912157"><ele>87.0</ele><time>2026-04-25T08:07:04.001Z</time></trkpt><trkpt lat="44.36724091203968" lon="8.506741027907365"><ele>87.0</ele><time>2026-04-25T08:07:05.001Z</time></trkpt><trkpt lat="44.36729979668929" lon="8.506884319251549"><ele>87.0</ele><time>2026-04-25T08:07:06.001Z</time></trkpt><trkpt lat="44.36736590086783" lon="8.507050272512101"><ele>87.0</ele><time>2026-04-25T08:07:07.001Z</time></trkpt><trkpt lat="44.367432507852456" lon="8.507213361391369"><ele>89.75</ele><time>2026-04-25T08:07:08.001Z</time></trkpt><trkpt lat="44.36749924074968" lon="8.507358661008567"><ele>92.5</ele><time>2026-04-25T08:07:09.001Z</time></trkpt><trkpt lat="44.36756054172341" lon="8.507494471875477"><ele>95.25</ele><time>2026-04-25T08:07:10.001Z</time></trkpt><trkpt lat="44.367588937077585" lon="8.507634680190574"><ele>98.0</ele><time>2026-04-25T08:07:11.001Z</time></trkpt><trkpt lat="44.3675522704903" lon="8.507777919198034"><ele>101.5</ele><time>2026-04-25T08:07:12.001Z</time></trkpt><trkpt lat="44.36753365031917" lon="8.50792808681936"><ele>105.0</ele><time>2026-04-25T08:07:13.001Z</time></trkpt><trkpt lat="44.36753305148965" lon="8.508081209800503"><ele>108.5</ele><time>2026-04-25T08:07:14.001Z</time></trkpt><trkpt lat="44.36760015557027" lon="8.508231326429906"><ele>112.0</ele><time>2026-04-25T08:07:15.001Z</time></trkpt><trkpt lat="44.367680100523096" lon="8.508377230945664"><ele>112.0</ele><time>2026-04-25T08:07:16.001Z</time></trkpt><trkpt lat="44.36776804225336" lon="8.508523859959018"><ele>112.0</ele><time>2026-04-25T08:07:17.001Z</time></trkpt><trkpt lat="44.367849889364884" lon="8.508690417899722"><ele>112.0</ele><time>2026-04-25T08:07:18.001Z</time></trkpt><trkpt lat="44.36792005693221" lon="8.508879080687048"><ele>112.0</ele><time>2026-04-25T08:07:19.001Z</time></trkpt><trkpt lat="44.36796304510014" lon="8.509091277011555"><ele>112.5</ele><time>2026-04-25T08:07:20.001Z</time></trkpt><trkpt lat="44.36800963682016" lon="8.509266975057797"><ele>113.0</ele><time>2026-04-25T08:07:21.001Z</time></trkpt><trkpt lat="44.36806570075679" lon="8.509417668904634"><ele>113.5</ele><time>2026-04-25T08:07:22.001Z</time></trkpt><trkpt lat="44.36807855776564" lon="8.509574463801655"><ele>114.0</ele><time>2026-04-25T08:07:23.001Z</time></trkpt><trkpt lat="44.36806218047011" lon="8.509726066309485"><ele>115.5</ele><time>2026-04-25T08:07:24.001Z</time></trkpt><trkpt lat="44.368048170242325" lon="8.509903677762498"><ele>117.0</ele><time>2026-04-25T08:07:25.001Z</time></trkpt><trkpt lat="44.368038213856536" lon="8.510088343690244"><ele>118.5</ele><time>2026-04-25T08:07:26.001Z</time></trkpt><trkpt lat="44.36802694503883" lon="8.510276613205036"><ele>120.0</ele><time>2026-04-25T08:07:27.001Z</time></trkpt><trkpt lat="44.36799434427338" lon="8.510459847729871"><ele>120.25</ele><time>2026-04-25T08:07:28.001Z</time></trkpt><trkpt lat="44.36800030291311" lon="8.510640777379237"><ele>120.5</ele><time>2026-04-25T08:07:29.002Z</time></trkpt><trkpt lat="44.36799934439609" lon="8.510821001384288"><ele>120.75</ele><time>2026-04-25T08:07:30.002Z</time></trkpt><trkpt lat="44.367999726775246" lon="8.511020364856305"><ele>121.0</ele><time>2026-04-25T08:07:31.002Z</time></trkpt><trkpt lat="44.36804655320135" lon="8.511218515351333"><ele>122.0</ele><time>2026-04-25T08:07:32.002Z</time></trkpt><trkpt lat="44.36809111196263" lon="8.51141350009251"><ele>123.0</ele><time>2026-04-25T08:07:33.002Z</time></trkpt><trkpt lat="44.368150878560826" lon="8.511603478428832"><ele>124.0</ele><time>2026-04-25T08:07:34.002Z</time></trkpt><trkpt lat="44.368220929403485" lon="8.511784222832047"><ele>125.0</ele><time>2026-04-25T08:07:35.002Z</time></trkpt><trkpt lat="44.3683015998491" lon="8.51196809569551"><ele>128.0</ele><time>2026-04-25T08:07:36.002Z</time></trkpt><trkpt lat="44.36838708792903" lon="8.512154706336728"><ele>131.0</ele><time>2026-04-25T08:07:37.002Z</time></trkpt><trkpt lat="44.36846604637872" lon="8.512320312600204"><ele>134.0</ele><time>2026-04-25T08:07:38.002Z</time></trkpt><trkpt lat="44.36853549927879" lon="8.51246928873397"><ele>137.0</ele><time>2026-04-25T08:07:39.002Z</time></trkpt><trkpt lat="44.36859952526201" lon="8.512610118096138"><ele>137.0</ele><time>2026-04-25T08:07:40.002Z</time></trkpt><trkpt lat="44.36865350325633" lon="8.512735771519877"><ele>137.0</ele><time>2026-04-25T08:07:41.002Z</time></trkpt><trkpt lat="44.36870307827079" lon="8.512845416740573"><ele>137.0</ele><time>2026-04-25T08:07:42.002Z</time></trkpt><trkpt lat="44.3687658177382" lon="8.512932121293424"><ele>137.0</ele><time>2026-04-25T08:07:43.002Z</time></trkpt><trkpt lat="44.36885320100585" lon="8.512985968462969"><ele>137.0</ele><time>2026-04-25T08:07:44.002Z</time></trkpt><trkpt lat="44.36896328701004" lon="8.513018182353743"><ele>136.5</ele><time>2026-04-25T08:07:45.002Z</time></trkpt><trkpt lat="44.36907877955455" lon="8.51303987983528"><ele>136.0</ele><time>2026-04-25T08:07:46.002Z</time></trkpt><trkpt lat="44.369173774509576" lon="8.51307014788577"><ele>135.5</ele><time>2026-04-25T08:07:47.002Z</time></trkpt><trkpt lat="44.36924478326019" lon="8.513126738372705"><ele>135.0</ele><time>2026-04-25T08:07:48.002Z</time></trkpt><trkpt lat="44.369275848361994" lon="8.513220194639969"><ele>134.5</ele><time>2026-04-25T08:07:49.002Z</time></trkpt><trkpt lat="44.36931065089672" lon="8.51329970440381"><ele>134.0</ele><time>2026-04-25T08:07:50.002Z</time></trkpt><trkpt lat="44.36932341166235" lon="8.513420787520321"><ele>134.0</ele><time>2026-04-25T08:07:51.002Z</time></trkpt><trkpt lat="44.36933567436505" lon="8.513539895018443"><ele>134.0</ele><time>2026-04-25T08:07:52.002Z</time></trkpt><trkpt lat="44.36935508487247" lon="8.513644149541712"><ele>134.0</ele><time>2026-04-25T08:07:53.001Z</time></trkpt><trkpt lat="44.36936240558368" lon="8.513750933316846"><ele>134.0</ele><time>2026-04-25T08:07:54.001Z</time></trkpt><trkpt lat="44.369390459086155" lon="8.513856110338905"><ele>134.0</ele><time>2026-04-25T08:07:55.001Z</time></trkpt><trkpt lat="44.36943923978241" lon="8.5139547296595"><ele>134.0</ele><time>2026-04-25T08:07:56.001Z</time></trkpt><trkpt lat="44.36947824982692" lon="8.51406388015165"><ele>136.4</ele><time>2026-04-25T08:07:57.001Z</time></trkpt><trkpt lat="44.3695339149411" lon="8.514168961083403"><ele>138.8</ele><time>2026-04-25T08:07:58.001Z</time></trkpt><trkpt lat="44.369594156056216" lon="8.51428149071499"><ele>141.2</ele><time>2026-04-25T08:07:59.001Z</time></trkpt><trkpt lat="44.36962295589927" lon="8.514433418643812"><ele>143.6</ele><time>2026-04-25T08:08:00.001Z</time></trkpt><trkpt lat="44.36965054712769" lon="8.514605848558407"><ele>146.0</ele><time>2026-04-25T08:08:01.001Z</time></trkpt><trkpt lat="44.36969238363361" lon="8.514764827465303"><ele>146.0</ele><time>2026-04-25T08:08:02.001Z</time></trkpt><trkpt lat="44.36971343907418" lon="8.514908527435136"><ele>146.0</ele><time>2026-04-25T08:08:03.001Z</time></trkpt><trkpt lat="44.369740954413686" lon="8.515053476314103"><ele>146.0</ele><time>2026-04-25T08:08:04.001Z</time></trkpt><trkpt lat="44.369771548805545" lon="8.515209597171566"><ele>146.0</ele><time>2026-04-25T08:08:05.001Z</time></trkpt><trkpt lat="44.36981490515275" lon="8.515364950177629"><ele>146.0</ele><time>2026-04-25T08:08:06.001Z</time></trkpt><trkpt lat="44.36986302873925" lon="8.51551107781114"><ele>147.8</ele><time>2026-04-25T08:08:07.001Z</time></trkpt><trkpt lat="44.369915637360656" lon="8.515647858986576"><ele>149.6</ele><time>2026-04-25T08:08:08.001Z</time></trkpt><trkpt lat="44.36997475497807" lon="8.515780084968554"><ele>151.4</ele><time>2026-04-25T08:08:09.001Z</time></trkpt><trkpt lat="44.37003831986262" lon="8.515901600089057"><ele>153.2</ele><time>2026-04-25T08:08:10.001Z</time></trkpt><trkpt lat="44.37009771374073" lon="8.515998094592057"><ele>155.0</ele><time>2026-04-25T08:08:11.001Z</time></trkpt><trkpt lat="44.37017446711259" lon="8.516062244074973"><ele>155.0</ele><time>2026-04-25T08:08:12.001Z</time></trkpt><trkpt lat="44.370273804262894" lon="8.516101868951889"><ele>155.0</ele><time>2026-04-25T08:08:13.001Z</time></trkpt><trkpt lat="44.37038589509495" lon="8.516118113432443"><ele>155.0</ele><time>2026-04-25T08:08:14.001Z</time></trkpt><trkpt lat="44.37050375561629" lon="8.516149314096003"><ele>155.0</ele><time>2026-04-25T08:08:15.001Z</time></trkpt><trkpt lat="44.370624916738215" lon="8.516136796205577"><ele>154.0</ele><time>2026-04-25T08:08:16.001Z</time></trkpt><trkpt lat="44.370751031573796" lon="8.516131287838272"><ele>153.0</ele><time>2026-04-25T08:08:17.001Z</time></trkpt><trkpt lat="44.37087641579979" lon="8.51611342571767"><ele>152.0</ele><time>2026-04-25T08:08:18.001Z</time></trkpt><trkpt lat="44.370996266822615" lon="8.516100087502714"><ele>151.0</ele><time>2026-04-25T08:08:19.001Z</time></trkpt><trkpt lat="44.371094438668266" lon="8.516081232339994"><ele>151.0</ele><time>2026-04-25T08:08:20.001Z</time></trkpt><trkpt lat="44.37118213798587" lon="8.51610276622171"><ele>151.0</ele><time>2026-04-25T08:08:21.001Z</time></trkpt><trkpt lat="44.37125232128062" lon="8.51611304342882"><ele>151.0</ele><time>2026-04-25T08:08:22.001Z</time></trkpt><trkpt lat="44.37133586150445" lon="8.516160346033754"><ele>151.0</ele><time>2026-04-25T08:08:24.001Z</time></trkpt><trkpt lat="44.37132906764413" lon="8.516294493964809"><ele>151.0</ele><time>2026-04-25T08:08:26.001Z</time></trkpt><trkpt lat="44.37126172541375" lon="8.516380907868957"><ele>151.0</ele><time>2026-04-25T08:08:28.001Z</time></trkpt><trkpt lat="44.37119614482421" lon="8.516373931780812"><ele>156.4</ele><time>2026-04-25T08:08:29.001Z</time></trkpt><trkpt lat="44.37111615198057" lon="8.516343452866394"><ele>161.8</ele><time>2026-04-25T08:08:30.001Z</time></trkpt><trkpt lat="44.371022274042154" lon="8.516336010925249"><ele>167.20000000000002</ele><time>2026-04-25T08:08:31.001Z</time></trkpt><trkpt lat="44.37091752868194" lon="8.516351449160467"><ele>172.6</ele><time>2026-04-25T08:08:32.001Z</time></trkpt><trkpt lat="44.370809627576136" lon="8.516388125842804"><ele>178.0</ele><time>2026-04-25T08:08:33.001Z</time></trkpt><trkpt lat="44.370718377337184" lon="8.516418941575637"><ele>178.0</ele><time>2026-04-25T08:08:34.001Z</time></trkpt><trkpt lat="44.370636957780135" lon="8.516437050790753"><ele>178.0</ele><time>2026-04-25T08:08:35.001Z</time></trkpt><trkpt lat="44.37055199262271" lon="8.516448207730562"><ele>178.0</ele><time>2026-04-25T08:08:36.001Z</time></trkpt><trkpt lat="44.3704743474714" lon="8.516455114832846"><ele>178.0</ele><time>2026-04-25T08:08:37.001Z</time></trkpt><trkpt lat="44.37036006464039" lon="8.516493853921828"><ele>178.0</ele><time>2026-04-25T08:08:39.001Z</time></trkpt><trkpt lat="44.37030332259869" lon="8.516542887192374"><ele>178.0</ele><time>2026-04-25T08:08:40.001Z</time></trkpt><trkpt lat="44.37025924587789" lon="8.516624162771436"><ele>177.83333333333334</ele><time>2026-04-25T08:08:41.001Z</time></trkpt><trkpt lat="44.370233813728085" lon="8.516724390419515"><ele>177.66666666666669</ele><time>2026-04-25T08:08:42.001Z</time></trkpt><trkpt lat="44.37022308956308" lon="8.516833853974587"><ele>177.5</ele><time>2026-04-25T08:08:43.001Z</time></trkpt><trkpt lat="44.37019555303684" lon="8.516944824207972"><ele>177.33333333333334</ele><time>2026-04-25T08:08:44.001Z</time></trkpt><trkpt lat="44.37017964679492" lon="8.517054211609706"><ele>177.16666666666666</ele><time>2026-04-25T08:08:45.001Z</time></trkpt><trkpt lat="44.37012397361948" lon="8.517181292645732"><ele>177.0</ele><time>2026-04-25T08:08:47.001Z</time></trkpt><trkpt lat="44.36999912689571" lon="8.517138931299714"><ele>177.0</ele><time>2026-04-25T08:08:49.001Z</time></trkpt><trkpt lat="44.36994423343941" lon="8.517061314703756"><ele>177.0</ele><time>2026-04-25T08:08:50.001Z</time></trkpt><trkpt lat="44.36989170646629" lon="8.516967411771166"><ele>177.0</ele><time>2026-04-25T08:08:51.001Z</time></trkpt><trkpt lat="44.36982853382462" lon="8.516871623398483"><ele>177.0</ele><time>2026-04-25T08:08:52.001Z</time></trkpt><trkpt lat="44.36976263326827" lon="8.516763306478982"><ele>177.0</ele><time>2026-04-25T08:08:53.001Z</time></trkpt><trkpt lat="44.36968835106524" lon="8.516648412609332"><ele>180.2</ele><time>2026-04-25T08:08:54.001Z</time></trkpt><trkpt lat="44.369612331876745" lon="8.51653107029544"><ele>183.39999999999998</ele><time>2026-04-25T08:08:55.001Z</time></trkpt><trkpt lat="44.369552430386506" lon="8.516413627154009"><ele>186.60000000000002</ele><time>2026-04-25T08:08:56.001Z</time></trkpt><trkpt lat="44.36951842736552" lon="8.516276791013313"><ele>189.8</ele><time>2026-04-25T08:08:57.001Z</time></trkpt><trkpt lat="44.36949081232067" lon="8.516128464252809"><ele>193.0</ele><time>2026-04-25T08:08:58.001Z</time></trkpt><trkpt lat="44.36943781964976" lon="8.51599848139304"><ele>193.0</ele><time>2026-04-25T08:08:59.001Z</time></trkpt><trkpt lat="44.36936319198066" lon="8.515874688786994"><ele>193.0</ele><time>2026-04-25T08:09:00.001Z</time></trkpt><trkpt lat="44.36927445899195" lon="8.515769242413969"><ele>193.0</ele><time>2026-04-25T08:09:01.001Z</time></trkpt><trkpt lat="44.369190996127735" lon="8.515653733252611"><ele>193.0</ele><time>2026-04-25T08:09:02.001Z</time></trkpt><trkpt lat="44.36912005249891" lon="8.51554680160229"><ele>192.99999999999997</ele><time>2026-04-25T08:09:03.001Z</time></trkpt><trkpt lat="44.369055236718225" lon="8.515458219250768"><ele>193.0</ele><time>2026-04-25T08:09:04.001Z</time></trkpt><trkpt lat="44.36900190863532" lon="8.515385503857546"><ele>193.0</ele><time>2026-04-25T08:09:05.001Z</time></trkpt><trkpt lat="44.36895697974698" lon="8.515323088808954"><ele>193.0</ele><time>2026-04-25T08:09:06.001Z</time></trkpt><trkpt lat="44.36891466989573" lon="8.515238997137418"><ele>192.99999999999997</ele><time>2026-04-25T08:09:07.001Z</time></trkpt><trkpt lat="44.36886294087543" lon="8.515165145320164"><ele>193.0</ele><time>2026-04-25T08:09:09.001Z</time></trkpt><trkpt lat="44.36879164153495" lon="8.515193167798207"><ele>193.0</ele><time>2026-04-25T08:09:11.001Z</time></trkpt><trkpt lat="44.36879050326597" lon="8.515363047482108"><ele>193.0</ele><time>2026-04-25T08:09:13.001Z</time></trkpt><trkpt lat="44.36882909430595" lon="8.515452920275864"><ele>193.0</ele><time>2026-04-25T08:09:14.001Z</time></trkpt><trkpt lat="44.3688853137986" lon="8.515548097584317"><ele>193.0</ele><time>2026-04-25T08:09:15.001Z</time></trkpt><trkpt lat="44.36895201053329" lon="8.51564429980459"><ele>193.0</ele><time>2026-04-25T08:09:16.001Z</time></trkpt><trkpt lat="44.369021096966684" lon="8.515746067656421"><ele>193.0</ele><time>2026-04-25T08:09:17.001Z</time></trkpt><trkpt lat="44.369090367421265" lon="8.51586166533975"><ele>193.0</ele><time>2026-04-25T08:09:18.001Z</time></trkpt><trkpt lat="44.36915415389277" lon="8.515995171646422"><ele>193.0</ele><time>2026-04-25T08:09:19.001Z</time></trkpt><trkpt lat="44.36920608492813" lon="8.516125786941183"><ele>193.0</ele><time>2026-04-25T08:09:20.001Z</time></trkpt><trkpt lat="44.369258756533824" lon="8.516219294897185"><ele>193.0</ele><time>2026-04-25T08:09:21.001Z</time></trkpt><trkpt lat="44.369254363017724" lon="8.51633105688325"><ele>196.8</ele><time>2026-04-25T08:09:22.001Z</time></trkpt><trkpt lat="44.36922211459098" lon="8.51642220197777"><ele>200.60000000000002</ele><time>2026-04-25T08:09:23.001Z</time></trkpt><trkpt lat="44.369193609932324" lon="8.516540389576864"><ele>204.39999999999998</ele><time>2026-04-25T08:09:24.001Z</time></trkpt><trkpt lat="44.36919175176604" lon="8.516684849403374"><ele>208.2</ele><time>2026-04-25T08:09:25.001Z</time></trkpt><trkpt lat="44.36920282329465" lon="8.51681949441035"><ele>212.0</ele><time>2026-04-25T08:09:26.001Z</time></trkpt><trkpt lat="44.369264896530105" lon="8.516931931184066"><ele>212.00000000000003</ele><time>2026-04-25T08:09:27.001Z</time></trkpt><trkpt lat="44.369331046285275" lon="8.51703923485853"><ele>212.0</ele><time>2026-04-25T08:09:28.001Z</time></trkpt><trkpt lat="44.369409005148185" lon="8.517112049400067"><ele>212.0</ele><time>2026-04-25T08:09:29.001Z</time></trkpt><trkpt lat="44.369466693785334" lon="8.517197058788328"><ele>212.0</ele><time>2026-04-25T08:09:30.001Z</time></trkpt><trkpt lat="44.36950408598661" lon="8.51729176818118"><ele>212.00000000000003</ele><time>2026-04-25T08:09:31.001Z</time></trkpt><trkpt lat="44.36953398054067" lon="8.517393908620974"><ele>212.0</ele><time>2026-04-25T08:09:32.001Z</time></trkpt><trkpt lat="44.369502340541814" lon="8.517489011834005"><ele>212.75</ele><time>2026-04-25T08:09:33.001Z</time></trkpt><trkpt lat="44.3694816604809" lon="8.517619018538168"><ele>213.5</ele><time>2026-04-25T08:09:34.001Z</time></trkpt><trkpt lat="44.369451305058604" lon="8.5177798519419"><ele>214.25</ele><time>2026-04-25T08:09:35.002Z</time></trkpt><trkpt lat="44.36941628338223" lon="8.517946636611319"><ele>215.0</ele><time>2026-04-25T08:09:36.002Z</time></trkpt><trkpt lat="44.36936692501199" lon="8.518120958037919"><ele>215.00000000000003</ele><time>2026-04-25T08:09:37.002Z</time></trkpt><trkpt lat="44.369312776406275" lon="8.518259506995872"><ele>215.0</ele><time>2026-04-25T08:09:38.002Z</time></trkpt><trkpt lat="44.369278606211886" lon="8.51837646051837"><ele>215.0</ele><time>2026-04-25T08:09:39.002Z</time></trkpt><trkpt lat="44.3692435957777" lon="8.518451137394424"><ele>215.0</ele><time>2026-04-25T08:09:40.002Z</time></trkpt><trkpt lat="44.36919948273434" lon="8.51855241455948"><ele>215.00000000000003</ele><time>2026-04-25T08:09:42.002Z</time></trkpt><trkpt lat="44.36914647239105" lon="8.518662375115829"><ele>215.0</ele><time>2026-04-25T08:09:45.002Z</time></trkpt><trkpt lat="44.369121513811905" lon="8.518775406546977"><ele>215.0</ele><time>2026-04-25T08:09:48.002Z</time></trkpt><trkpt lat="44.36914849522946" lon="8.518645980765555"><ele>215.0</ele><time>2026-04-25T08:10:04.001Z</time></trkpt><trkpt lat="44.36932355972047" lon="8.51866498993994"><ele>215.0</ele><time>2026-04-25T08:10:06.001Z</time></trkpt><trkpt lat="44.369400050414576" lon="8.51862724316225"><ele>215.0</ele><time>2026-04-25T08:10:07.001Z</time></trkpt><trkpt lat="44.36948743734083" lon="8.51857172887575"><ele>215.0</ele><time>2026-04-25T08:10:08.001Z</time></trkpt><trkpt lat="44.36958817417722" lon="8.518556401900268"><ele>215.0</ele><time>2026-04-25T08:10:09.001Z</time></trkpt><trkpt lat="44.36967698524838" lon="8.518530984702073"><ele>215.0</ele><time>2026-04-25T08:10:10.001Z</time></trkpt><trkpt lat="44.36977164955716" lon="8.518499034433987"><ele>215.0</ele><time>2026-04-25T08:10:11.001Z</time></trkpt><trkpt lat="44.36987575078741" lon="8.518467782251314"><ele>215.0</ele><time>2026-04-25T08:10:12.001Z</time></trkpt><trkpt lat="44.36998082379427" lon="8.518437504241467"><ele>215.0</ele><time>2026-04-25T08:10:13.001Z</time></trkpt><trkpt lat="44.3700807963317" lon="8.518408805610667"><ele>214.83333333333334</ele><time>2026-04-25T08:10:14.001Z</time></trkpt><trkpt lat="44.37016963696026" lon="8.518386549674943"><ele>214.66666666666669</ele><time>2026-04-25T08:10:15.001Z</time></trkpt><trkpt lat="44.370263199701725" lon="8.518367251188295"><ele>214.5</ele><time>2026-04-25T08:10:16.001Z</time></trkpt><trkpt lat="44.37036077332966" lon="8.518388445892954"><ele>214.33333333333331</ele><time>2026-04-25T08:10:17.001Z</time></trkpt><trkpt lat="44.370444697842814" lon="8.51836226081967"><ele>214.16666666666666</ele><time>2026-04-25T08:10:18.001Z</time></trkpt><trkpt lat="44.37052095340115" lon="8.518356714039147"><ele>214.0</ele><time>2026-04-25T08:10:19.001Z</time></trkpt><trkpt lat="44.370575235054474" lon="8.51826597079433"><ele>212.79999999999998</ele><time>2026-04-25T08:10:20.001Z</time></trkpt><trkpt lat="44.3706205129341" lon="8.518168622136681"><ele>211.59999999999997</ele><time>2026-04-25T08:10:21.001Z</time></trkpt><trkpt lat="44.37068127256948" lon="8.518070194975108"><ele>210.4</ele><time>2026-04-25T08:10:22.001Z</time></trkpt><trkpt lat="44.37073556594565" lon="8.517958714934082"><ele>209.2</ele><time>2026-04-25T08:10:23.001Z</time></trkpt><trkpt lat="44.37078797475349" lon="8.517877003626602"><ele>208.0</ele><time>2026-04-25T08:10:24.001Z</time></trkpt><trkpt lat="44.37088845638768" lon="8.517813006316684"><ele>208.0</ele><time>2026-04-25T08:10:26.001Z</time></trkpt><trkpt lat="44.37095365220832" lon="8.517876023313052"><ele>208.0</ele><time>2026-04-25T08:10:27.001Z</time></trkpt><trkpt lat="44.371038522041005" lon="8.517933810567277"><ele>208.0</ele><time>2026-04-25T08:10:28.001Z</time></trkpt><trkpt lat="44.371144668847755" lon="8.518012194971387"><ele>208.0</ele><time>2026-04-25T08:10:29.001Z</time></trkpt><trkpt lat="44.37126823951857" lon="8.518071411388418"><ele>208.0</ele><time>2026-04-25T08:10:30.001Z</time></trkpt><trkpt lat="44.37137223468563" lon="8.518135660661711"><ele>214.60000000000002</ele><time>2026-04-25T08:10:31.001Z</time></trkpt><trkpt lat="44.37148391242277" lon="8.518192464762741"><ele>221.20000000000002</ele><time>2026-04-25T08:10:32.001Z</time></trkpt><trkpt lat="44.37159841970305" lon="8.518255232882689"><ele>227.8</ele><time>2026-04-25T08:10:33.001Z</time></trkpt><trkpt lat="44.371698650030424" lon="8.51830664739791"><ele>234.4</ele><time>2026-04-25T08:10:34.001Z</time></trkpt><trkpt lat="44.37178881841044" lon="8.518330295831127"><ele>241.0</ele><time>2026-04-25T08:10:35.001Z</time></trkpt><trkpt lat="44.37187500877403" lon="8.518333524081083"><ele>240.99999999999997</ele><time>2026-04-25T08:10:36.001Z</time></trkpt><trkpt lat="44.37195686712499" lon="8.518315343851295"><ele>241.0</ele><time>2026-04-25T08:10:37.001Z</time></trkpt><trkpt lat="44.3720258467227" lon="8.518261881795759"><ele>241.0</ele><time>2026-04-25T08:10:38.001Z</time></trkpt><trkpt lat="44.372078797524395" lon="8.518180220298731"><ele>241.0</ele><time>2026-04-25T08:10:39.001Z</time></trkpt><trkpt lat="44.37211648505144" lon="8.51807656822146"><ele>240.99999999999997</ele><time>2026-04-25T08:10:40.001Z</time></trkpt><trkpt lat="44.372136775951724" lon="8.517949927897766"><ele>241.0</ele><time>2026-04-25T08:10:41.001Z</time></trkpt><trkpt lat="44.37213220890102" lon="8.517799895452033"><ele>240.33333333333331</ele><time>2026-04-25T08:10:42.001Z</time></trkpt><trkpt lat="44.3721139831729" lon="8.517642389194073"><ele>239.66666666666666</ele><time>2026-04-25T08:10:43.001Z</time></trkpt><trkpt lat="44.37213800320356" lon="8.517507682028784"><ele>239.0</ele><time>2026-04-25T08:10:44.001Z</time></trkpt><trkpt lat="44.37216311205546" lon="8.517409663509914"><ele>238.33333333333331</ele><time>2026-04-25T08:10:45.001Z</time></trkpt><trkpt lat="44.37221957485233" lon="8.517358148853447"><ele>237.66666666666666</ele><time>2026-04-25T08:10:46.001Z</time></trkpt><trkpt lat="44.37229530907428" lon="8.517331126206601"><ele>237.0</ele><time>2026-04-25T08:10:47.001Z</time></trkpt><trkpt lat="44.37239019790173" lon="8.517301047564839"><ele>237.0</ele><time>2026-04-25T08:10:48.001Z</time></trkpt><trkpt lat="44.37249662457336" lon="8.517252433501136"><ele>237.0</ele><time>2026-04-25T08:10:49.001Z</time></trkpt><trkpt lat="44.37259347103243" lon="8.517212078088935"><ele>237.0</ele><time>2026-04-25T08:10:50.001Z</time></trkpt><trkpt lat="44.37267275019358" lon="8.517191325626625"><ele>237.0</ele><time>2026-04-25T08:10:51.001Z</time></trkpt><trkpt lat="44.3727381628272" lon="8.517193210077345"><ele>237.0</ele><time>2026-04-25T08:10:52.001Z</time></trkpt><trkpt lat="44.37283473779767" lon="8.517314713181147"><ele>237.0</ele><time>2026-04-25T08:10:54.001Z</time></trkpt><trkpt lat="44.37283315853936" lon="8.517441254694397"><ele>237.0</ele><time>2026-04-25T08:10:55.001Z</time></trkpt><trkpt lat="44.372864264666624" lon="8.517577005551898"><ele>237.0</ele><time>2026-04-25T08:10:56.001Z</time></trkpt><trkpt lat="44.37288164133751" lon="8.517727560466485"><ele>237.0</ele><time>2026-04-25T08:10:57.001Z</time></trkpt><trkpt lat="44.37291334442528" lon="8.517867565740394"><ele>237.0</ele><time>2026-04-25T08:10:58.001Z</time></trkpt><trkpt lat="44.372952662515964" lon="8.51798583765267"><ele>239.5</ele><time>2026-04-25T08:10:59.001Z</time></trkpt><trkpt lat="44.37299179873773" lon="8.518084897744629"><ele>242.0</ele><time>2026-04-25T08:11:00.001Z</time></trkpt><trkpt lat="44.37307793261681" lon="8.518127054717368"><ele>244.5</ele><time>2026-04-25T08:11:01.001Z</time></trkpt><trkpt lat="44.37316041885171" lon="8.518161465318636"><ele>247.0</ele><time>2026-04-25T08:11:02.001Z</time></trkpt><trkpt lat="44.37323888494082" lon="8.518196731624784"><ele>249.5</ele><time>2026-04-25T08:11:03.001Z</time></trkpt><trkpt lat="44.373298697301635" lon="8.518269758695414"><ele>252.0</ele><time>2026-04-25T08:11:04.001Z</time></trkpt><trkpt lat="44.37330283259292" lon="8.518391988171006"><ele>252.0</ele><time>2026-04-25T08:11:05.001Z</time></trkpt><trkpt lat="44.373332596763156" lon="8.51850673001204"><ele>252.0</ele><time>2026-04-25T08:11:06.001Z</time></trkpt><trkpt lat="44.373349736314644" lon="8.518624392754411"><ele>252.0</ele><time>2026-04-25T08:11:07.001Z</time></trkpt><trkpt lat="44.37339690174419" lon="8.518706772322929"><ele>252.0</ele><time>2026-04-25T08:11:08.001Z</time></trkpt><trkpt lat="44.37346162947528" lon="8.518748262611577"><ele>252.0</ele><time>2026-04-25T08:11:09.001Z</time></trkpt><trkpt lat="44.373539186493915" lon="8.518753411851248"><ele>252.0</ele><time>2026-04-25T08:11:10.001Z</time></trkpt><trkpt lat="44.373625211553055" lon="8.51873858422203"><ele>252.0</ele><time>2026-04-25T08:11:11.001Z</time></trkpt><trkpt lat="44.37371739950059" lon="8.518695696321572"><ele>252.0</ele><time>2026-04-25T08:11:12.001Z</time></trkpt><trkpt lat="44.373810403180634" lon="8.518632814348596"><ele>252.0</ele><time>2026-04-25T08:11:13.001Z</time></trkpt><trkpt lat="44.373874989651874" lon="8.518561220469497"><ele>252.0</ele><time>2026-04-25T08:11:14.001Z</time></trkpt><trkpt lat="44.3739319155984" lon="8.518493444404248"><ele>252.0</ele><time>2026-04-25T08:11:15.001Z</time></trkpt><trkpt lat="44.3740082397333" lon="8.518453288393053"><ele>252.0</ele><time>2026-04-25T08:11:16.001Z</time></trkpt><trkpt lat="44.37408798452283" lon="8.518476615074324"><ele>249.6</ele><time>2026-04-25T08:11:17.001Z</time></trkpt><trkpt lat="44.37416191952147" lon="8.51851780148628"><ele>247.2</ele><time>2026-04-25T08:11:18.001Z</time></trkpt><trkpt lat="44.374226783136834" lon="8.518607232999399"><ele>244.8</ele><time>2026-04-25T08:11:19.001Z</time></trkpt><trkpt lat="44.37428638703382" lon="8.518733162506411"><ele>242.4</ele><time>2026-04-25T08:11:20.001Z</time></trkpt><trkpt lat="44.37432567599258" lon="8.518903164078399"><ele>240.0</ele><time>2026-04-25T08:11:21.001Z</time></trkpt><trkpt lat="44.37439854421345" lon="8.519078688468865"><ele>247.5</ele><time>2026-04-25T08:11:22.001Z</time></trkpt><trkpt lat="44.37444919858764" lon="8.519254997735171"><ele>255.0</ele><time>2026-04-25T08:11:23.001Z</time></trkpt><trkpt lat="44.3744988395142" lon="8.519415625645621"><ele>262.5</ele><time>2026-04-25T08:11:24.001Z</time></trkpt><trkpt lat="44.37454682626056" lon="8.519553153825367"><ele>270.0</ele><time>2026-04-25T08:11:25.001Z</time></trkpt><trkpt lat="44.37459583194734" lon="8.51965748502119"><ele>271.2</ele><time>2026-04-25T08:11:26.001Z</time></trkpt><trkpt lat="44.374655249642224" lon="8.519725692214129"><ele>272.4</ele><time>2026-04-25T08:11:27.001Z</time></trkpt><trkpt lat="44.374721661086106" lon="8.51975080342767"><ele>273.6</ele><time>2026-04-25T08:11:28.001Z</time></trkpt><trkpt lat="44.374807172701495" lon="8.519741919964858"><ele>274.8</ele><time>2026-04-25T08:11:29.001Z</time></trkpt><trkpt lat="44.37490897999173" lon="8.519710733543137"><ele>276.0</ele><time>2026-04-25T08:11:30.001Z</time></trkpt><trkpt lat="44.3750222362374" lon="8.519674342315552"><ele>276.0</ele><time>2026-04-25T08:11:31.001Z</time></trkpt><trkpt lat="44.37512813510934" lon="8.519649271602358"><ele>276.0</ele><time>2026-04-25T08:11:32.001Z</time></trkpt><trkpt lat="44.375217272027534" lon="8.519649647238303"><ele>276.0</ele><time>2026-04-25T08:11:33.001Z</time></trkpt><trkpt lat="44.37529470680519" lon="8.519684622322067"><ele>276.0</ele><time>2026-04-25T08:11:34.001Z</time></trkpt><trkpt lat="44.375368696831316" lon="8.519762996642234"><ele>276.0</ele><time>2026-04-25T08:11:35.001Z</time></trkpt><trkpt lat="44.37541539656492" lon="8.519900478605406"><ele>276.0</ele><time>2026-04-25T08:11:36.001Z</time></trkpt><trkpt lat="44.375458368730726" lon="8.52003578177471"><ele>276.0</ele><time>2026-04-25T08:11:37.001Z</time></trkpt><trkpt lat="44.37547764131257" lon="8.520181434145307"><ele>276.0</ele><time>2026-04-25T08:11:38.001Z</time></trkpt><trkpt lat="44.37551433755983" lon="8.520331214687314"><ele>276.0</ele><time>2026-04-25T08:11:39.001Z</time></trkpt><trkpt lat="44.37553314204002" lon="8.520470525813929"><ele>276.0</ele><time>2026-04-25T08:11:40.001Z</time></trkpt><trkpt lat="44.3755691279471" lon="8.520569987126365"><ele>276.3333333333333</ele><time>2026-04-25T08:11:41.002Z</time></trkpt><trkpt lat="44.37562443097532" lon="8.520639202802766"><ele>276.6666666666667</ele><time>2026-04-25T08:11:42.002Z</time></trkpt><trkpt lat="44.37569106858428" lon="8.520684242779378"><ele>277.0</ele><time>2026-04-25T08:11:43.002Z</time></trkpt><trkpt lat="44.37577417401794" lon="8.520683536199925"><ele>277.33333333333337</ele><time>2026-04-25T08:11:44.002Z</time></trkpt><trkpt lat="44.37585995987688" lon="8.520645223777073"><ele>277.6666666666667</ele><time>2026-04-25T08:11:45.002Z</time></trkpt><trkpt lat="44.37594788788249" lon="8.520568081533897"><ele>278.0</ele><time>2026-04-25T08:11:46.002Z</time></trkpt><trkpt lat="44.37605224887189" lon="8.52046522547947"><ele>278.0</ele><time>2026-04-25T08:11:47.002Z</time></trkpt><trkpt lat="44.37616629852494" lon="8.520361328096444"><ele>278.0</ele><time>2026-04-25T08:11:48.002Z</time></trkpt><trkpt lat="44.37627149194717" lon="8.520274603688424"><ele>278.0</ele><time>2026-04-25T08:11:49.002Z</time></trkpt><trkpt lat="44.37638160899578" lon="8.520176497791702"><ele>278.0</ele><time>2026-04-25T08:11:50.002Z</time></trkpt><trkpt lat="44.376477546824354" lon="8.520047264986024"><ele>278.0</ele><time>2026-04-25T08:11:51.002Z</time></trkpt><trkpt lat="44.37657520375645" lon="8.51991722142258"><ele>278.0</ele><time>2026-04-25T08:11:52.002Z</time></trkpt><trkpt lat="44.37668210869524" lon="8.519818103648117"><ele>278.0</ele><time>2026-04-25T08:11:53.002Z</time></trkpt><trkpt lat="44.37680294889629" lon="8.519753880511796"><ele>278.0</ele><time>2026-04-25T08:11:54.002Z</time></trkpt><trkpt lat="44.376927465965" lon="8.519711835900084"><ele>278.0</ele><time>2026-04-25T08:11:55.002Z</time></trkpt><trkpt lat="44.37703423584592" lon="8.519658225275066"><ele>278.0</ele><time>2026-04-25T08:11:56.002Z</time></trkpt><trkpt lat="44.37712041243396" lon="8.519586195005209"><ele>278.0</ele><time>2026-04-25T08:11:57.002Z</time></trkpt><trkpt lat="44.37719593446448" lon="8.51948412669632"><ele>278.0</ele><time>2026-04-25T08:11:58.001Z</time></trkpt><trkpt lat="44.37725068589569" lon="8.519357338690451"><ele>278.0</ele><time>2026-04-25T08:11:59.001Z</time></trkpt><trkpt lat="44.377304298920976" lon="8.519206500544776"><ele>281.4</ele><time>2026-04-25T08:12:00.001Z</time></trkpt><trkpt lat="44.37733738591321" lon="8.519062233883735"><ele>284.8</ele><time>2026-04-25T08:12:01.001Z</time></trkpt><trkpt lat="44.37737419299518" lon="8.51893322693961"><ele>288.2</ele><time>2026-04-25T08:12:02.001Z</time></trkpt><trkpt lat="44.377378779869844" lon="8.518797160853088"><ele>291.6</ele><time>2026-04-25T08:12:03.001Z</time></trkpt><trkpt lat="44.37735645872757" lon="8.51866424848136"><ele>295.0</ele><time>2026-04-25T08:12:04.001Z</time></trkpt><trkpt lat="44.3772671631045" lon="8.518495446522293"><ele>289.2</ele><time>2026-04-25T08:12:06.001Z</time></trkpt><trkpt lat="44.37718066721532" lon="8.518408215622372"><ele>283.4</ele><time>2026-04-25T08:12:07.001Z</time></trkpt><trkpt lat="44.3770844552782" lon="8.518309924635926"><ele>277.6</ele><time>2026-04-25T08:12:08.001Z</time></trkpt><trkpt lat="44.3770189964886" lon="8.518201237411233"><ele>271.8</ele><time>2026-04-25T08:12:09.001Z</time></trkpt><trkpt lat="44.37698532408837" lon="8.518071294058462"><ele>266.0</ele><time>2026-04-25T08:12:10.001Z</time></trkpt><trkpt lat="44.37696541469694" lon="8.517903082867896"><ele>267.25</ele><time>2026-04-25T08:12:11.001Z</time></trkpt><trkpt lat="44.37695658696064" lon="8.517720593871607"><ele>268.5</ele><time>2026-04-25T08:12:12.001Z</time></trkpt><trkpt lat="44.37697608440015" lon="8.517530696730661"><ele>269.75</ele><time>2026-04-25T08:12:13.001Z</time></trkpt><trkpt lat="44.376979592583226" lon="8.517371754152983"><ele>271.0</ele><time>2026-04-25T08:12:14.001Z</time></trkpt><trkpt lat="44.37701371917104" lon="8.51725946018954"><ele>271.0</ele><time>2026-04-25T08:12:15.001Z</time></trkpt><trkpt lat="44.37705290130913" lon="8.517186377703931"><ele>271.0</ele><time>2026-04-25T08:12:16.001Z</time></trkpt><trkpt lat="44.377159823487595" lon="8.517180243002008"><ele>271.0</ele><time>2026-04-25T08:12:18.001Z</time></trkpt><trkpt lat="44.377234751909754" lon="8.51722871643586"><ele>271.0</ele><time>2026-04-25T08:12:19.001Z</time></trkpt><trkpt lat="44.37734469909632" lon="8.517278220638318"><ele>271.0</ele><time>2026-04-25T08:12:20.001Z</time></trkpt><trkpt lat="44.37745987572382" lon="8.51729073501758"><ele>271.6</ele><time>2026-04-25T08:12:21.001Z</time></trkpt><trkpt lat="44.377564187987915" lon="8.517288446591504"><ele>272.20000000000005</ele><time>2026-04-25T08:12:22.001Z</time></trkpt><trkpt lat="44.37765749524782" lon="8.51724222461837"><ele>272.79999999999995</ele><time>2026-04-25T08:12:23.001Z</time></trkpt><trkpt lat="44.37775446989606" lon="8.517162247949477"><ele>273.4</ele><time>2026-04-25T08:12:24.001Z</time></trkpt><trkpt lat="44.37786351666922" lon="8.5170699432863"><ele>274.0</ele><time>2026-04-25T08:12:25.001Z</time></trkpt><trkpt lat="44.37798209853441" lon="8.517021289640065"><ele>279.75</ele><time>2026-04-25T08:12:26.001Z</time></trkpt><trkpt lat="44.378099068510956" lon="8.51696011625018"><ele>285.5</ele><time>2026-04-25T08:12:27.001Z</time></trkpt><trkpt lat="44.378228172917076" lon="8.516937404117769"><ele>291.25</ele><time>2026-04-25T08:12:28.001Z</time></trkpt><trkpt lat="44.37835115879923" lon="8.516928257348985"><ele>297.0</ele><time>2026-04-25T08:12:29.001Z</time></trkpt><trkpt lat="44.37845832088666" lon="8.516916535332028"><ele>297.0</ele><time>2026-04-25T08:12:30.001Z</time></trkpt><trkpt lat="44.378551561564166" lon="8.516893447300218"><ele>297.0</ele><time>2026-04-25T08:12:31.001Z</time></trkpt><trkpt lat="44.3786180597363" lon="8.516832577846477"><ele>297.0</ele><time>2026-04-25T08:12:32.001Z</time></trkpt><trkpt lat="44.378660262278174" lon="8.516732088467984"><ele>297.0</ele><time>2026-04-25T08:12:33.001Z</time></trkpt><trkpt lat="44.37868609559385" lon="8.516606852331845"><ele>297.0</ele><time>2026-04-25T08:12:34.001Z</time></trkpt><trkpt lat="44.37870881074949" lon="8.516462782386345"><ele>297.0</ele><time>2026-04-25T08:12:35.001Z</time></trkpt><trkpt lat="44.3787168002829" lon="8.51630957456228"><ele>297.0</ele><time>2026-04-25T08:12:36.001Z</time></trkpt><trkpt lat="44.37870350156074" lon="8.516183318683636"><ele>297.0</ele><time>2026-04-25T08:12:37.001Z</time></trkpt><trkpt lat="44.37866574576838" lon="8.516083220466108"><ele>297.0</ele><time>2026-04-25T08:12:38.001Z</time></trkpt><trkpt lat="44.378603223403516" lon="8.515997269943949"><ele>297.0</ele><time>2026-04-25T08:12:39.001Z</time></trkpt><trkpt lat="44.37853273265358" lon="8.515907514662556"><ele>297.0</ele><time>2026-04-25T08:12:40.001Z</time></trkpt><trkpt lat="44.378494714872296" lon="8.51578572519796"><ele>297.0</ele><time>2026-04-25T08:12:41.001Z</time></trkpt><trkpt lat="44.37846850869694" lon="8.515664879249398"><ele>297.0</ele><time>2026-04-25T08:12:42Z</time></trkpt><trkpt lat="44.37846783920693" lon="8.51554375986925"><ele>297.0</ele><time>2026-04-25T08:12:43Z</time></trkpt><trkpt lat="44.37849781901347" lon="8.515414522417368"><ele>297.0</ele><time>2026-04-25T08:12:44Z</time></trkpt><trkpt lat="44.378533710467224" lon="8.515266523011853"><ele>296.4</ele><time>2026-04-25T08:12:45Z</time></trkpt><trkpt lat="44.378571066530064" lon="8.51510696561794"><ele>295.79999999999995</ele><time>2026-04-25T08:12:46Z</time></trkpt><trkpt lat="44.37864337201425" lon="8.514964310938446"><ele>295.2</ele><time>2026-04-25T08:12:47Z</time></trkpt><trkpt lat="44.378718943697926" lon="8.514846849534004"><ele>294.59999999999997</ele><time>2026-04-25T08:12:48Z</time></trkpt><trkpt lat="44.37877293297322" lon="8.514746115119381"><ele>294.0</ele><time>2026-04-25T08:12:49Z</time></trkpt><trkpt lat="44.37878462035288" lon="8.51459961264881"><ele>292.4</ele><time>2026-04-25T08:12:50Z</time></trkpt><trkpt lat="44.37877906211803" lon="8.514455998737699"><ele>290.79999999999995</ele><time>2026-04-25T08:12:51Z</time></trkpt><trkpt lat="44.378756736986695" lon="8.51431850092055"><ele>289.20000000000005</ele><time>2026-04-25T08:12:52Z</time></trkpt><trkpt lat="44.37874137737008" lon="8.514178180595808"><ele>287.6</ele><time>2026-04-25T08:12:53Z</time></trkpt><trkpt lat="44.378755366225796" lon="8.51404614534095"><ele>286.0</ele><time>2026-04-25T08:12:54Z</time></trkpt><trkpt lat="44.378833941517975" lon="8.513952558281495"><ele>292.75</ele><time>2026-04-25T08:12:55Z</time></trkpt><trkpt lat="44.37887709592101" lon="8.513812425213132"><ele>299.5</ele><time>2026-04-25T08:12:56Z</time></trkpt><trkpt lat="44.37892577513789" lon="8.513658689227977"><ele>306.25</ele><time>2026-04-25T08:12:57Z</time></trkpt><trkpt lat="44.37893966785964" lon="8.513473554142124"><ele>313.0</ele><time>2026-04-25T08:12:58Z</time></trkpt><trkpt lat="44.378939031134685" lon="8.513296753945745"><ele>313.0</ele><time>2026-04-25T08:12:59Z</time></trkpt><trkpt lat="44.37897649736116" lon="8.513179544153944"><ele>313.0</ele><time>2026-04-25T08:13:00Z</time></trkpt><trkpt lat="44.37901325631621" lon="8.513084383827067"><ele>313.0</ele><time>2026-04-25T08:13:01Z</time></trkpt><trkpt lat="44.37908867937995" lon="8.513044610629976"><ele>313.0</ele><time>2026-04-25T08:13:02Z</time></trkpt><trkpt lat="44.379180224490675" lon="8.513078609065772"><ele>313.0</ele><time>2026-04-25T08:13:03Z</time></trkpt><trkpt lat="44.379288219779276" lon="8.513070272077336"><ele>313.0</ele><time>2026-04-25T08:13:04Z</time></trkpt><trkpt lat="44.37940358760001" lon="8.513110512063115"><ele>313.0</ele><time>2026-04-25T08:13:05Z</time></trkpt><trkpt lat="44.37950935549462" lon="8.513182161114973"><ele>313.0</ele><time>2026-04-25T08:13:06Z</time></trkpt><trkpt lat="44.37960494899706" lon="8.513322068301179"><ele>313.0</ele><time>2026-04-25T08:13:07Z</time></trkpt><trkpt lat="44.37972519609961" lon="8.513454285053255"><ele>310.5</ele><time>2026-04-25T08:13:08Z</time></trkpt><trkpt lat="44.379825618114516" lon="8.513582913569536"><ele>308.0</ele><time>2026-04-25T08:13:09Z</time></trkpt><trkpt lat="44.37992831971023" lon="8.513674079570306"><ele>305.5</ele><time>2026-04-25T08:13:10Z</time></trkpt><trkpt lat="44.380019915163004" lon="8.513757940789967"><ele>303.0</ele><time>2026-04-25T08:13:11Z</time></trkpt><trkpt lat="44.38007813217356" lon="8.513867158862492"><ele>307.2</ele><time>2026-04-25T08:13:12Z</time></trkpt><trkpt lat="44.380106332445465" lon="8.513995522172566"><ele>311.4</ele><time>2026-04-25T08:13:13Z</time></trkpt><trkpt lat="44.38010773006415" lon="8.514131402332401"><ele>315.59999999999997</ele><time>2026-04-25T08:13:14Z</time></trkpt><trkpt lat="44.38009025295115" lon="8.514289805785825"><ele>319.8</ele><time>2026-04-25T08:13:15Z</time></trkpt><trkpt lat="44.38006284362478" lon="8.514468292845942"><ele>324.0</ele><time>2026-04-25T08:13:16Z</time></trkpt><trkpt lat="44.3800389594741" lon="8.514638589317187"><ele>326.0</ele><time>2026-04-25T08:13:17Z</time></trkpt><trkpt lat="44.380031392279236" lon="8.5147852547284"><ele>328.0</ele><time>2026-04-25T08:13:18Z</time></trkpt><trkpt lat="44.380052205667816" lon="8.514910953570686"><ele>330.0</ele><time>2026-04-25T08:13:19Z</time></trkpt><trkpt lat="44.380103297477866" lon="8.515024425106196"><ele>332.0</ele><time>2026-04-25T08:13:20Z</time></trkpt><trkpt lat="44.38017739363566" lon="8.515136072055283"><ele>334.0</ele><time>2026-04-25T08:13:21Z</time></trkpt><trkpt lat="44.38027510175485" lon="8.515244035650683"><ele>334.0</ele><time>2026-04-25T08:13:22Z</time></trkpt><trkpt lat="44.38038407129329" lon="8.515336286499434"><ele>334.0</ele><time>2026-04-25T08:13:23Z</time></trkpt><trkpt lat="44.380499343654364" lon="8.515397069500299"><ele>334.0</ele><time>2026-04-25T08:13:24Z</time></trkpt><trkpt lat="44.380616426349405" lon="8.515429086707444"><ele>334.0</ele><time>2026-04-25T08:13:25Z</time></trkpt><trkpt lat="44.380719014885265" lon="8.515454056064355"><ele>332.6</ele><time>2026-04-25T08:13:26Z</time></trkpt><trkpt lat="44.380792842795024" lon="8.515511793416612"><ele>331.2</ele><time>2026-04-25T08:13:27Z</time></trkpt><trkpt lat="44.38084308853084" lon="8.515605019622972"><ele>329.8</ele><time>2026-04-25T08:13:28Z</time></trkpt><trkpt lat="44.38087472821096" lon="8.515735207218937"><ele>328.40000000000003</ele><time>2026-04-25T08:13:29Z</time></trkpt><trkpt lat="44.38089433959858" lon="8.515897725670357"><ele>327.0</ele><time>2026-04-25T08:13:30Z</time></trkpt><trkpt lat="44.380917268098926" lon="8.516081445752667"><ele>331.25</ele><time>2026-04-25T08:13:31Z</time></trkpt><trkpt lat="44.38094858379474" lon="8.516271244393387"><ele>335.5</ele><time>2026-04-25T08:13:32Z</time></trkpt><trkpt lat="44.380968972574884" lon="8.516469337195142"><ele>339.75</ele><time>2026-04-25T08:13:33Z</time></trkpt><trkpt lat="44.3809714291113" lon="8.516674716822326"><ele>344.0</ele><time>2026-04-25T08:13:34Z</time></trkpt><trkpt lat="44.38096022433424" lon="8.516858315206962"><ele>344.0</ele><time>2026-04-25T08:13:35Z</time></trkpt><trkpt lat="44.38094612721054" lon="8.51701772830362"><ele>344.0</ele><time>2026-04-25T08:13:36Z</time></trkpt><trkpt lat="44.38095209711868" lon="8.51714373470191"><ele>344.0</ele><time>2026-04-25T08:13:37Z</time></trkpt><trkpt lat="44.38098157978781" lon="8.517235896936372"><ele>344.0</ele><time>2026-04-25T08:13:38Z</time></trkpt><trkpt lat="44.38102903906448" lon="8.517312805410487"><ele>344.0</ele><time>2026-04-25T08:13:39Z</time></trkpt><trkpt lat="44.38109642880209" lon="8.51737472825554"><ele>344.0</ele><time>2026-04-25T08:13:40Z</time></trkpt><trkpt lat="44.38118409927927" lon="8.517430650447334"><ele>342.5</ele><time>2026-04-25T08:13:41Z</time></trkpt><trkpt lat="44.38128442205428" lon="8.517494749681845"><ele>341.0</ele><time>2026-04-25T08:13:42Z</time></trkpt><trkpt lat="44.38140056316379" lon="8.517559374923817"><ele>339.5</ele><time>2026-04-25T08:13:43Z</time></trkpt><trkpt lat="44.3815237509539" lon="8.517608803012115"><ele>338.0</ele><time>2026-04-25T08:13:44Z</time></trkpt><trkpt lat="44.381655811128404" lon="8.517635496439524"><ele>338.0</ele><time>2026-04-25T08:13:45Z</time></trkpt><trkpt lat="44.381797046547746" lon="8.51765454833441"><ele>338.0</ele><time>2026-04-25T08:13:46Z</time></trkpt><trkpt lat="44.38192373076273" lon="8.517678475807646"><ele>338.0</ele><time>2026-04-25T08:13:47.001Z</time></trkpt><trkpt lat="44.38204342578527" lon="8.517715706375215"><ele>338.0</ele><time>2026-04-25T08:13:48.001Z</time></trkpt><trkpt lat="44.38215966112135" lon="8.517773980332048"><ele>338.0</ele><time>2026-04-25T08:13:49.001Z</time></trkpt><trkpt lat="44.38227488329327" lon="8.517841487057803"><ele>338.0</ele><time>2026-04-25T08:13:50.001Z</time></trkpt><trkpt lat="44.38237699660649" lon="8.517906536750402"><ele>338.0</ele><time>2026-04-25T08:13:51.001Z</time></trkpt><trkpt lat="44.382480530689016" lon="8.517966198092237"><ele>338.0</ele><time>2026-04-25T08:13:52.001Z</time></trkpt><trkpt lat="44.38257474287676" lon="8.518027542334163"><ele>338.83333333333337</ele><time>2026-04-25T08:13:53.001Z</time></trkpt><trkpt lat="44.382656278840194" lon="8.518070745408906"><ele>339.6666666666667</ele><time>2026-04-25T08:13:54.001Z</time></trkpt><trkpt lat="44.38272028730702" lon="8.518110820656839"><ele>340.5</ele><time>2026-04-25T08:13:55.001Z</time></trkpt><trkpt lat="44.38279539886839" lon="8.518168984980253"><ele>341.3333333333333</ele><time>2026-04-25T08:13:57.001Z</time></trkpt><trkpt lat="44.38286775157476" lon="8.518195515311811"><ele>342.16666666666663</ele><time>2026-04-25T08:13:59.001Z</time></trkpt><trkpt lat="44.38298226973417" lon="8.518178639839535"><ele>343.0</ele><time>2026-04-25T08:14:01.001Z</time></trkpt><trkpt lat="44.38307099891278" lon="8.518160624346745"><ele>343.0</ele><time>2026-04-25T08:14:02.001Z</time></trkpt><trkpt lat="44.38318360759111" lon="8.518146968358653"><ele>343.0</ele><time>2026-04-25T08:14:03.001Z</time></trkpt><trkpt lat="44.383293795889806" lon="8.518143278710399"><ele>343.0</ele><time>2026-04-25T08:14:04.001Z</time></trkpt><trkpt lat="44.38339543676087" lon="8.518133607997074"><ele>343.0</ele><time>2026-04-25T08:14:05.001Z</time></trkpt><trkpt lat="44.38349130341506" lon="8.518106984040642"><ele>343.0</ele><time>2026-04-25T08:14:06.001Z</time></trkpt><trkpt lat="44.38358220387003" lon="8.518043061706566"><ele>343.0</ele><time>2026-04-25T08:14:07.001Z</time></trkpt><trkpt lat="44.38367028835485" lon="8.517950430791261"><ele>343.0</ele><time>2026-04-25T08:14:08.001Z</time></trkpt><trkpt lat="44.38375871777461" lon="8.517856667764883"><ele>343.0</ele><time>2026-04-25T08:14:09.001Z</time></trkpt><trkpt lat="44.38386102392399" lon="8.517802906349475"><ele>343.0</ele><time>2026-04-25T08:14:10.001Z</time></trkpt><trkpt lat="44.38397112877356" lon="8.517772749566639"><ele>343.0</ele><time>2026-04-25T08:14:11.001Z</time></trkpt><trkpt lat="44.38407242256139" lon="8.517725106801963"><ele>341.25</ele><time>2026-04-25T08:14:12.001Z</time></trkpt><trkpt lat="44.38416651459479" lon="8.51763498489449"><ele>339.5</ele><time>2026-04-25T08:14:13.001Z</time></trkpt><trkpt lat="44.384254119455136" lon="8.517505419846398"><ele>337.75</ele><time>2026-04-25T08:14:14.001Z</time></trkpt><trkpt lat="44.38434242210768" lon="8.517373628624135"><ele>336.0</ele><time>2026-04-25T08:14:15.001Z</time></trkpt><trkpt lat="44.38443013746491" lon="8.517261998449433"><ele>336.0</ele><time>2026-04-25T08:14:16.001Z</time></trkpt><trkpt lat="44.384513859353625" lon="8.517155079177831"><ele>336.0</ele><time>2026-04-25T08:14:17.001Z</time></trkpt><trkpt lat="44.38459359488965" lon="8.51705037129833"><ele>336.0</ele><time>2026-04-25T08:14:18.001Z</time></trkpt><trkpt lat="44.38467313174023" lon="8.516940769687578"><ele>336.0</ele><time>2026-04-25T08:14:19.001Z</time></trkpt><trkpt lat="44.384752369154356" lon="8.516830413846527"><ele>336.0</ele><time>2026-04-25T08:14:20.001Z</time></trkpt><trkpt lat="44.38483258339726" lon="8.516726645309756"><ele>336.3333333333333</ele><time>2026-04-25T08:14:21.001Z</time></trkpt><trkpt lat="44.38491071212241" lon="8.516643150390026"><ele>336.6666666666667</ele><time>2026-04-25T08:14:22.001Z</time></trkpt><trkpt lat="44.38498449353378" lon="8.516586851511759"><ele>337.0</ele><time>2026-04-25T08:14:23.001Z</time></trkpt><trkpt lat="44.385060958278196" lon="8.51657093624072"><ele>337.33333333333337</ele><time>2026-04-25T08:14:24.001Z</time></trkpt><trkpt lat="44.38514307318927" lon="8.516627942177582"><ele>337.6666666666667</ele><time>2026-04-25T08:14:25.001Z</time></trkpt><trkpt lat="44.38523236823379" lon="8.51663878761671"><ele>338.0</ele><time>2026-04-25T08:14:26.001Z</time></trkpt><trkpt lat="44.38532295088544" lon="8.516650952864925"><ele>338.0</ele><time>2026-04-25T08:14:27.001Z</time></trkpt><trkpt lat="44.3854132104846" lon="8.516626137198747"><ele>338.0</ele><time>2026-04-25T08:14:28.001Z</time></trkpt><trkpt lat="44.385495183981014" lon="8.516554573274528"><ele>338.0</ele><time>2026-04-25T08:14:29.001Z</time></trkpt><trkpt lat="44.38557210567236" lon="8.516446118208778"><ele>338.0</ele><time>2026-04-25T08:14:30.001Z</time></trkpt><trkpt lat="44.385650736757526" lon="8.516318191500657"><ele>338.0</ele><time>2026-04-25T08:14:31.001Z</time></trkpt><trkpt lat="44.3857296388005" lon="8.51618249589988"><ele>339.59999999999997</ele><time>2026-04-25T08:14:32.001Z</time></trkpt><trkpt lat="44.3858034555979" lon="8.516063875049417"><ele>341.2</ele><time>2026-04-25T08:14:33.001Z</time></trkpt><trkpt lat="44.38588717491973" lon="8.515974120309592"><ele>342.8</ele><time>2026-04-25T08:14:34.001Z</time></trkpt><trkpt lat="44.38598267383004" lon="8.515906506911927"><ele>344.4</ele><time>2026-04-25T08:14:35.001Z</time></trkpt><trkpt lat="44.38608389988014" lon="8.515867891275212"><ele>346.0</ele><time>2026-04-25T08:14:36.001Z</time></trkpt><trkpt lat="44.3861859680341" lon="8.515878341850764"><ele>346.0</ele><time>2026-04-25T08:14:37.001Z</time></trkpt><trkpt lat="44.38628626827581" lon="8.515924460042665"><ele>346.0</ele><time>2026-04-25T08:14:38.001Z</time></trkpt><trkpt lat="44.386381522135174" lon="8.516001447711837"><ele>346.0</ele><time>2026-04-25T08:14:39.001Z</time></trkpt><trkpt lat="44.38647755412107" lon="8.516098670959876"><ele>346.0</ele><time>2026-04-25T08:14:40Z</time></trkpt><trkpt lat="44.38657496300052" lon="8.51620770953082"><ele>341.6</ele><time>2026-04-25T08:14:41Z</time></trkpt><trkpt lat="44.38667085861926" lon="8.516318163901328"><ele>337.20000000000005</ele><time>2026-04-25T08:14:42Z</time></trkpt><trkpt lat="44.38675822031302" lon="8.516416228469605"><ele>332.79999999999995</ele><time>2026-04-25T08:14:43Z</time></trkpt><trkpt lat="44.386834656524684" lon="8.51650269261982"><ele>328.4</ele><time>2026-04-25T08:14:44Z</time></trkpt><trkpt lat="44.3868966416008" lon="8.516579247620934"><ele>324.0</ele><time>2026-04-25T08:14:45Z</time></trkpt><trkpt lat="44.38695255264636" lon="8.516634276029562"><ele>324.0</ele><time>2026-04-25T08:14:46Z</time></trkpt><trkpt lat="44.387017076701824" lon="8.516670357513528"><ele>324.0</ele><time>2026-04-25T08:14:47Z</time></trkpt><trkpt lat="44.38709615293673" lon="8.516671070883358"><ele>324.0</ele><time>2026-04-25T08:14:48Z</time></trkpt><trkpt lat="44.387185787744556" lon="8.516641706401346"><ele>324.0</ele><time>2026-04-25T08:14:49Z</time></trkpt><trkpt lat="44.387296555163786" lon="8.516646634771458"><ele>324.0</ele><time>2026-04-25T08:14:50Z</time></trkpt><trkpt lat="44.387417836215185" lon="8.516601762190987"><ele>324.5</ele><time>2026-04-25T08:14:51Z</time></trkpt><trkpt lat="44.38754576467818" lon="8.516582073063127"><ele>325.0</ele><time>2026-04-25T08:14:52Z</time></trkpt><trkpt lat="44.38768073904899" lon="8.516546541041153"><ele>325.5</ele><time>2026-04-25T08:14:53Z</time></trkpt><trkpt lat="44.38780446569325" lon="8.516461653726479"><ele>326.0</ele><time>2026-04-25T08:14:54Z</time></trkpt><trkpt lat="44.38789244192197" lon="8.516400937677659"><ele>326.0</ele><time>2026-04-25T08:14:55Z</time></trkpt><trkpt lat="44.387991176969905" lon="8.51631185951651"><ele>326.0</ele><time>2026-04-25T08:14:56Z</time></trkpt><trkpt lat="44.388086767784834" lon="8.516236560364897"><ele>326.0</ele><time>2026-04-25T08:14:57Z</time></trkpt><trkpt lat="44.3881801200773" lon="8.516159987942649"><ele>326.0</ele><time>2026-04-25T08:14:58Z</time></trkpt><trkpt lat="44.38829098815038" lon="8.516141270069511"><ele>326.0</ele><time>2026-04-25T08:14:59Z</time></trkpt><trkpt lat="44.38840922994054" lon="8.516118958412187"><ele>325.75</ele><time>2026-04-25T08:15:00Z</time></trkpt><trkpt lat="44.38851941997824" lon="8.516050757016739"><ele>325.5</ele><time>2026-04-25T08:15:01Z</time></trkpt><trkpt lat="44.38862610562422" lon="8.516007890923403"><ele>325.25</ele><time>2026-04-25T08:15:02Z</time></trkpt><trkpt lat="44.388736767872594" lon="8.51594712329805"><ele>325.0</ele><time>2026-04-25T08:15:03Z</time></trkpt><trkpt lat="44.3888500453723" lon="8.51589355651058"><ele>325.0</ele><time>2026-04-25T08:15:04Z</time></trkpt><trkpt lat="44.38896195398268" lon="8.51586470515498"><ele>325.0</ele><time>2026-04-25T08:15:05Z</time></trkpt><trkpt lat="44.38907079532732" lon="8.515851730122906"><ele>325.0</ele><time>2026-04-25T08:15:06Z</time></trkpt><trkpt lat="44.38917678889627" lon="8.51585037066178"><ele>325.0</ele><time>2026-04-25T08:15:07Z</time></trkpt><trkpt lat="44.389272289935306" lon="8.515844347243101"><ele>325.0</ele><time>2026-04-25T08:15:08Z</time></trkpt><trkpt lat="44.38937875304704" lon="8.51584078558934"><ele>325.0</ele><time>2026-04-25T08:15:09Z</time></trkpt><trkpt lat="44.38948430284581" lon="8.515837663636756"><ele>325.0</ele><time>2026-04-25T08:15:10Z</time></trkpt><trkpt lat="44.389590746361236" lon="8.515853334311117"><ele>325.0</ele><time>2026-04-25T08:15:11Z</time></trkpt><trkpt lat="44.38969418711269" lon="8.515872355636342"><ele>325.0</ele><time>2026-04-25T08:15:12Z</time></trkpt><trkpt lat="44.38978745473099" lon="8.515888507912434"><ele>325.0</ele><time>2026-04-25T08:15:13Z</time></trkpt><trkpt lat="44.38987643699054" lon="8.515895812839823"><ele>324.16666666666663</ele><time>2026-04-25T08:15:14Z</time></trkpt><trkpt lat="44.38995927848429" lon="8.5158845695271"><ele>323.3333333333333</ele><time>2026-04-25T08:15:15Z</time></trkpt><trkpt lat="44.39003938082849" lon="8.515844406842385"><ele>322.5</ele><time>2026-04-25T08:15:16Z</time></trkpt><trkpt lat="44.39010127168556" lon="8.51578622561702"><ele>321.6666666666667</ele><time>2026-04-25T08:15:17Z</time></trkpt><trkpt lat="44.390155895735944" lon="8.515713360547485"><ele>320.83333333333337</ele><time>2026-04-25T08:15:18Z</time></trkpt><trkpt lat="44.39025196255572" lon="8.515633257147512"><ele>320.0</ele><time>2026-04-25T08:15:20Z</time></trkpt><trkpt lat="44.390350746833015" lon="8.51558398065319"><ele>320.0</ele><time>2026-04-25T08:15:22Z</time></trkpt><trkpt lat="44.39046920224487" lon="8.515514468075414"><ele>320.0</ele><time>2026-04-25T08:15:24Z</time></trkpt><trkpt lat="44.39056242665132" lon="8.515447127034502"><ele>320.0</ele><time>2026-04-25T08:15:26Z</time></trkpt><trkpt lat="44.39062554206361" lon="8.515415587552"><ele>320.0</ele><time>2026-04-25T08:15:28Z</time></trkpt><trkpt lat="44.390718199470136" lon="8.515438168179292"><ele>320.0</ele><time>2026-04-25T08:15:31Z</time></trkpt><trkpt lat="44.39077227750778" lon="8.515521090221487"><ele>319.83333333333337</ele><time>2026-04-25T08:15:33Z</time></trkpt><trkpt lat="44.39086238406275" lon="8.515622376474093"><ele>319.6666666666667</ele><time>2026-04-25T08:15:35Z</time></trkpt><trkpt lat="44.39092241629563" lon="8.515713525236905"><ele>319.5</ele><time>2026-04-25T08:15:36Z</time></trkpt><trkpt lat="44.390964987773145" lon="8.515808927164166"><ele>319.3333333333333</ele><time>2026-04-25T08:15:37Z</time></trkpt><trkpt lat="44.39100454821967" lon="8.515902946644735"><ele>319.16666666666663</ele><time>2026-04-25T08:15:38Z</time></trkpt><trkpt lat="44.391041167391435" lon="8.516009858357185"><ele>319.0</ele><time>2026-04-25T08:15:39Z</time></trkpt><trkpt lat="44.39108813813056" lon="8.516111689636414"><ele>319.0</ele><time>2026-04-25T08:15:40Z</time></trkpt><trkpt lat="44.391099330314326" lon="8.516226469303172"><ele>319.0</ele><time>2026-04-25T08:15:41Z</time></trkpt><trkpt lat="44.391081999922974" lon="8.516356267056764"><ele>319.0</ele><time>2026-04-25T08:15:42Z</time></trkpt><trkpt lat="44.391047004958295" lon="8.516491214315662"><ele>319.0</ele><time>2026-04-25T08:15:43Z</time></trkpt><trkpt lat="44.39101029528624" lon="8.516617392546253"><ele>319.0</ele><time>2026-04-25T08:15:44Z</time></trkpt><trkpt lat="44.39099256434118" lon="8.5167371501696"><ele>316.8</ele><time>2026-04-25T08:15:45Z</time></trkpt><trkpt lat="44.390992349292745" lon="8.51685795685973"><ele>314.59999999999997</ele><time>2026-04-25T08:15:46Z</time></trkpt><trkpt lat="44.39100865010363" lon="8.51698137039424"><ele>312.4</ele><time>2026-04-25T08:15:47Z</time></trkpt><trkpt lat="44.391040726288594" lon="8.517111312639747"><ele>310.2</ele><time>2026-04-25T08:15:48Z</time></trkpt><trkpt lat="44.39108986950167" lon="8.517249700224733"><ele>308.0</ele><time>2026-04-25T08:15:49Z</time></trkpt><trkpt lat="44.39113908577534" lon="8.517403516693909"><ele>307.6</ele><time>2026-04-25T08:15:50Z</time></trkpt><trkpt lat="44.391150606922906" lon="8.517567974013293"><ele>307.20000000000005</ele><time>2026-04-25T08:15:51Z</time></trkpt><trkpt lat="44.39118522139538" lon="8.517712505206012"><ele>306.8</ele><time>2026-04-25T08:15:52Z</time></trkpt><trkpt lat="44.39121199946679" lon="8.517836754206021"><ele>306.40000000000003</ele><time>2026-04-25T08:15:53.001Z</time></trkpt><trkpt lat="44.391262994506604" lon="8.51793633388328"><ele>306.0</ele><time>2026-04-25T08:15:54.001Z</time></trkpt><trkpt lat="44.39134170310636" lon="8.518021924188295"><ele>306.0</ele><time>2026-04-25T08:15:55.001Z</time></trkpt><trkpt lat="44.3914343744649" lon="8.518111783777826"><ele>306.0</ele><time>2026-04-25T08:15:56.001Z</time></trkpt><trkpt lat="44.39152040342754" lon="8.518230417528112"><ele>306.0</ele><time>2026-04-25T08:15:57.001Z</time></trkpt><trkpt lat="44.39159690600349" lon="8.518345018040536"><ele>306.0</ele><time>2026-04-25T08:15:58.001Z</time></trkpt><trkpt lat="44.391670712743924" lon="8.518447160633462"><ele>306.0</ele><time>2026-04-25T08:15:59.001Z</time></trkpt><trkpt lat="44.39175544701038" lon="8.518519210033158"><ele>306.0</ele><time>2026-04-25T08:16:00.001Z</time></trkpt><trkpt lat="44.391852183066035" lon="8.51856371457826"><ele>306.0</ele><time>2026-04-25T08:16:01.001Z</time></trkpt><trkpt lat="44.39195572983193" lon="8.518597069464466"><ele>306.0</ele><time>2026-04-25T08:16:02.001Z</time></trkpt><trkpt lat="44.392052785548216" lon="8.51864233086295"><ele>306.0</ele><time>2026-04-25T08:16:03.001Z</time></trkpt><trkpt lat="44.39212139386621" lon="8.518674906615425"><ele>306.0</ele><time>2026-04-25T08:16:04.001Z</time></trkpt><trkpt lat="44.39220512624093" lon="8.518728304872402"><ele>307.8333333333333</ele><time>2026-04-25T08:16:06.001Z</time></trkpt><trkpt lat="44.39225021402257" lon="8.518851354683765"><ele>309.6666666666667</ele><time>2026-04-25T08:16:08.001Z</time></trkpt><trkpt lat="44.39219590243599" lon="8.51897886213037"><ele>311.5</ele><time>2026-04-25T08:16:10.001Z</time></trkpt><trkpt lat="44.39214953436321" lon="8.519092318855446"><ele>313.33333333333337</ele><time>2026-04-25T08:16:12.001Z</time></trkpt><trkpt lat="44.39213208374122" lon="8.519196616844024"><ele>315.1666666666667</ele><time>2026-04-25T08:16:14.001Z</time></trkpt><trkpt lat="44.39210800958329" lon="8.519291405594625"><ele>317.0</ele><time>2026-04-25T08:16:16.001Z</time></trkpt><trkpt lat="44.39213197566497" lon="8.51913940772679"><ele>317.0</ele><time>2026-04-25T08:16:45Z</time></trkpt><trkpt lat="44.392211873664465" lon="8.519000293171914"><ele>317.0</ele><time>2026-04-25T08:16:46Z</time></trkpt><trkpt lat="44.39225203237017" lon="8.518901944001383"><ele>317.0</ele><time>2026-04-25T08:16:47Z</time></trkpt><trkpt lat="44.392264463306724" lon="8.518756391052609"><ele>317.0</ele><time>2026-04-25T08:16:49Z</time></trkpt><trkpt lat="44.392212346540845" lon="8.51869516570793"><ele>317.0</ele><time>2026-04-25T08:16:50Z</time></trkpt><trkpt lat="44.39213162163056" lon="8.51865552601542"><ele>314.8</ele><time>2026-04-25T08:16:51Z</time></trkpt><trkpt lat="44.39204132817157" lon="8.518616157912202"><ele>312.6</ele><time>2026-04-25T08:16:52Z</time></trkpt><trkpt lat="44.391935896975944" lon="8.51857120743804"><ele>310.40000000000003</ele><time>2026-04-25T08:16:53Z</time></trkpt><trkpt lat="44.39182438262974" lon="8.518516698776411"><ele>308.2</ele><time>2026-04-25T08:16:54Z</time></trkpt><trkpt lat="44.391733428578426" lon="8.51846500222426"><ele>306.0</ele><time>2026-04-25T08:16:55Z</time></trkpt><trkpt lat="44.39165685137193" lon="8.51840184692277"><ele>306.0</ele><time>2026-04-25T08:16:56Z</time></trkpt><trkpt lat="44.391580350377225" lon="8.518306612710079"><ele>306.0</ele><time>2026-04-25T08:16:57Z</time></trkpt><trkpt lat="44.391509606990965" lon="8.518180264394482"><ele>306.0</ele><time>2026-04-25T08:16:58Z</time></trkpt><trkpt lat="44.39142668525255" lon="8.518052484840064"><ele>306.0</ele><time>2026-04-25T08:16:59Z</time></trkpt><trkpt lat="44.39134033326084" lon="8.517950957121418"><ele>304.8333333333333</ele><time>2026-04-25T08:17:00Z</time></trkpt><trkpt lat="44.39126811615152" lon="8.517878576534239"><ele>303.6666666666667</ele><time>2026-04-25T08:17:01Z</time></trkpt><trkpt lat="44.391221201274035" lon="8.517812069987368"><ele>302.5</ele><time>2026-04-25T08:17:02Z</time></trkpt><trkpt lat="44.39119720826811" lon="8.517727493399358"><ele>301.33333333333337</ele><time>2026-04-25T08:17:03Z</time></trkpt><trkpt lat="44.391180923620176" lon="8.517607932514673"><ele>300.1666666666667</ele><time>2026-04-25T08:17:04Z</time></trkpt><trkpt lat="44.39116795773411" lon="8.517456783093493"><ele>299.0</ele><time>2026-04-25T08:17:05Z</time></trkpt><trkpt lat="44.391139603327645" lon="8.517295484140007"><ele>299.0</ele><time>2026-04-25T08:17:06Z</time></trkpt><trkpt lat="44.391091056215004" lon="8.517152246597183"><ele>299.0</ele><time>2026-04-25T08:17:07Z</time></trkpt><trkpt lat="44.39104388297311" lon="8.517025970119251"><ele>299.0</ele><time>2026-04-25T08:17:08Z</time></trkpt><trkpt lat="44.39101624223858" lon="8.516898843076502"><ele>299.0</ele><time>2026-04-25T08:17:09Z</time></trkpt><trkpt lat="44.39101104249652" lon="8.516780974725771"><ele>299.0</ele><time>2026-04-25T08:17:10Z</time></trkpt><trkpt lat="44.39102384691476" lon="8.51667201674026"><ele>300.8</ele><time>2026-04-25T08:17:11Z</time></trkpt><trkpt lat="44.39104411501309" lon="8.516566446204706"><ele>302.59999999999997</ele><time>2026-04-25T08:17:12Z</time></trkpt><trkpt lat="44.391072118539334" lon="8.516458103635413"><ele>304.4</ele><time>2026-04-25T08:17:13Z</time></trkpt><trkpt lat="44.39109699047866" lon="8.516357532863069"><ele>306.2</ele><time>2026-04-25T08:17:14Z</time></trkpt><trkpt lat="44.39110235763292" lon="8.51620506544244"><ele>308.0</ele><time>2026-04-25T08:17:16Z</time></trkpt><trkpt lat="44.391071780649355" lon="8.516053924315827"><ele>309.83333333333337</ele><time>2026-04-25T08:17:18Z</time></trkpt><trkpt lat="44.39105372590015" lon="8.515965964119633"><ele>311.6666666666667</ele><time>2026-04-25T08:17:19Z</time></trkpt><trkpt lat="44.39102471341452" lon="8.515877008778393"><ele>313.5</ele><time>2026-04-25T08:17:20Z</time></trkpt><trkpt lat="44.3909904985416" lon="8.515798731884082"><ele>315.3333333333333</ele><time>2026-04-25T08:17:21Z</time></trkpt><trkpt lat="44.390926895003574" lon="8.51569656231902"><ele>317.16666666666663</ele><time>2026-04-25T08:17:23Z</time></trkpt><trkpt lat="44.39100355758432" lon="8.515696039099332"><ele>319.0</ele><time>2026-04-25T08:17:32Z</time></trkpt><trkpt lat="44.391045834711065" lon="8.515787683258951"><ele>319.0</ele><time>2026-04-25T08:17:33Z</time></trkpt><trkpt lat="44.391093061644455" lon="8.515870603937769"><ele>319.0</ele><time>2026-04-25T08:17:34Z</time></trkpt><trkpt lat="44.39113117066414" lon="8.515953362176173"><ele>319.0</ele><time>2026-04-25T08:17:35Z</time></trkpt><trkpt lat="44.391186200755754" lon="8.516101812746777"><ele>319.0</ele><time>2026-04-25T08:17:37Z</time></trkpt><trkpt lat="44.391234847840394" lon="8.516239563447343"><ele>319.0</ele><time>2026-04-25T08:17:39Z</time></trkpt><trkpt lat="44.391240445233045" lon="8.516394665696028"><ele>317.16666666666663</ele><time>2026-04-25T08:17:41Z</time></trkpt><trkpt lat="44.39123322572271" lon="8.516499569508552"><ele>315.3333333333333</ele><time>2026-04-25T08:17:42Z</time></trkpt><trkpt lat="44.39123506176986" lon="8.51661700672627"><ele>313.5</ele><time>2026-04-25T08:17:43Z</time></trkpt><trkpt lat="44.391247401629904" lon="8.516736654653657"><ele>311.6666666666667</ele><time>2026-04-25T08:17:44Z</time></trkpt><trkpt lat="44.39124647474519" lon="8.516857669634941"><ele>309.83333333333337</ele><time>2026-04-25T08:17:45Z</time></trkpt><trkpt lat="44.3912875485856" lon="8.516959637267622"><ele>308.0</ele><time>2026-04-25T08:17:46Z</time></trkpt><trkpt lat="44.391310789541485" lon="8.517051473176393"><ele>310.5</ele><time>2026-04-25T08:17:47Z</time></trkpt><trkpt lat="44.39138232105968" lon="8.517188049339067"><ele>313.0</ele><time>2026-04-25T08:17:49Z</time></trkpt><trkpt lat="44.391424635286455" lon="8.517254822239625"><ele>315.5</ele><time>2026-04-25T08:17:50Z</time></trkpt><trkpt lat="44.39151033819305" lon="8.517304387409146"><ele>318.0</ele><time>2026-04-25T08:17:51Z</time></trkpt><trkpt lat="44.39157890038767" lon="8.51735942871347"><ele>320.5</ele><time>2026-04-25T08:17:52Z</time></trkpt><trkpt lat="44.3916298807478" lon="8.517439371822146"><ele>323.0</ele><time>2026-04-25T08:17:52.999Z</time></trkpt><trkpt lat="44.39170036396398" lon="8.517487620191886"><ele>323.0</ele><time>2026-04-25T08:17:53.999Z</time></trkpt><trkpt lat="44.39177367800912" lon="8.517494457978671"><ele>323.0</ele><time>2026-04-25T08:17:54.999Z</time></trkpt><trkpt lat="44.3918456412424" lon="8.51753117185684"><ele>323.0</ele><time>2026-04-25T08:17:55.999Z</time></trkpt><trkpt lat="44.391928130069836" lon="8.51750817978464"><ele>323.0</ele><time>2026-04-25T08:17:56.999Z</time></trkpt><trkpt lat="44.39201438317008" lon="8.5175084036629"><ele>323.0</ele><time>2026-04-25T08:17:57.999Z</time></trkpt><trkpt lat="44.39210385220748" lon="8.517510093153891"><ele>323.0</ele><time>2026-04-25T08:17:59.001Z</time></trkpt><trkpt lat="44.39219310910415" lon="8.517509632126883"><ele>325.2</ele><time>2026-04-25T08:18:00.001Z</time></trkpt><trkpt lat="44.39226898837391" lon="8.517512755165017"><ele>327.4</ele><time>2026-04-25T08:18:01.001Z</time></trkpt><trkpt lat="44.3923901662685" lon="8.517539452769563"><ele>329.59999999999997</ele><time>2026-04-25T08:18:03.001Z</time></trkpt><trkpt lat="44.39249707119548" lon="8.517644530620112"><ele>331.79999999999995</ele><time>2026-04-25T08:18:05.001Z</time></trkpt><trkpt lat="44.39254376296691" lon="8.517736989625407"><ele>334.0</ele><time>2026-04-25T08:18:06.001Z</time></trkpt><trkpt lat="44.39259307582952" lon="8.517844272586814"><ele>331.79999999999995</ele><time>2026-04-25T08:18:07.001Z</time></trkpt><trkpt lat="44.392652747265096" lon="8.517948759690652"><ele>329.59999999999997</ele><time>2026-04-25T08:18:08.001Z</time></trkpt><trkpt lat="44.392723691848566" lon="8.518054310136172"><ele>327.4</ele><time>2026-04-25T08:18:09.001Z</time></trkpt><trkpt lat="44.39279372645235" lon="8.518149719579775"><ele>325.2</ele><time>2026-04-25T08:18:10.001Z</time></trkpt><trkpt lat="44.39285853626872" lon="8.518238965185459"><ele>323.0</ele><time>2026-04-25T08:18:11.001Z</time></trkpt><trkpt lat="44.39294896472506" lon="8.518309742827196"><ele>323.0</ele><time>2026-04-25T08:18:12.001Z</time></trkpt><trkpt lat="44.39300549154981" lon="8.518386705492173"><ele>323.0</ele><time>2026-04-25T08:18:13.001Z</time></trkpt><trkpt lat="44.393042767645206" lon="8.518460799553218"><ele>323.0</ele><time>2026-04-25T08:18:14.001Z</time></trkpt><trkpt lat="44.39297913257094" lon="8.518601727618368"><ele>323.0</ele><time>2026-04-25T08:18:16.001Z</time></trkpt><trkpt lat="44.3929255574566" lon="8.518678200273246"><ele>323.0</ele><time>2026-04-25T08:18:17.001Z</time></trkpt><trkpt lat="44.392894595576244" lon="8.518794274275296"><ele>323.0</ele><time>2026-04-25T08:18:18.001Z</time></trkpt><trkpt lat="44.39286664169366" lon="8.51892214868387"><ele>321.79999999999995</ele><time>2026-04-25T08:18:19.001Z</time></trkpt><trkpt lat="44.39285390430842" lon="8.519042132220463"><ele>320.59999999999997</ele><time>2026-04-25T08:18:20.001Z</time></trkpt><trkpt lat="44.392878160483235" lon="8.519168793446294"><ele>319.4</ele><time>2026-04-25T08:18:21.001Z</time></trkpt><trkpt lat="44.39292871153059" lon="8.519305831822628"><ele>318.2</ele><time>2026-04-25T08:18:22.001Z</time></trkpt><trkpt lat="44.3929962779204" lon="8.51946740892512"><ele>317.0</ele><time>2026-04-25T08:18:23.001Z</time></trkpt><trkpt lat="44.39305630185643" lon="8.519608042755634"><ele>320.33333333333337</ele><time>2026-04-25T08:18:24.001Z</time></trkpt><trkpt lat="44.39310846974471" lon="8.519728613552122"><ele>323.6666666666667</ele><time>2026-04-25T08:18:25Z</time></trkpt><trkpt lat="44.393159727929586" lon="8.519830201078316"><ele>327.0</ele><time>2026-04-25T08:18:26Z</time></trkpt><trkpt lat="44.39321736406044" lon="8.519902527848698"><ele>330.3333333333333</ele><time>2026-04-25T08:18:27Z</time></trkpt><trkpt lat="44.39328995153055" lon="8.519970265058246"><ele>333.66666666666663</ele><time>2026-04-25T08:18:28Z</time></trkpt><trkpt lat="44.39337289288311" lon="8.52003578420315"><ele>337.0</ele><time>2026-04-25T08:18:29Z</time></trkpt><trkpt lat="44.39344315908313" lon="8.520107859488018"><ele>337.0</ele><time>2026-04-25T08:18:30Z</time></trkpt><trkpt lat="44.39345918691422" lon="8.520217529867207"><ele>337.0</ele><time>2026-04-25T08:18:31Z</time></trkpt><trkpt lat="44.393483735838664" lon="8.520327153396877"><ele>337.0</ele><time>2026-04-25T08:18:32Z</time></trkpt><trkpt lat="44.393508152520724" lon="8.520440133005746"><ele>337.0</ele><time>2026-04-25T08:18:33Z</time></trkpt><trkpt lat="44.39353412948894" lon="8.520564560084848"><ele>337.0</ele><time>2026-04-25T08:18:34Z</time></trkpt><trkpt lat="44.39360184206565" lon="8.520658011458512"><ele>337.0</ele><time>2026-04-25T08:18:35Z</time></trkpt><trkpt lat="44.39365492404166" lon="8.520750445063944"><ele>336.6</ele><time>2026-04-25T08:18:36Z</time></trkpt><trkpt lat="44.393724247912125" lon="8.520853392932382"><ele>336.20000000000005</ele><time>2026-04-25T08:18:37Z</time></trkpt><trkpt lat="44.39379521326651" lon="8.520976185639276"><ele>335.8</ele><time>2026-04-25T08:18:38Z</time></trkpt><trkpt lat="44.39387001351805" lon="8.521078740408825"><ele>335.4</ele><time>2026-04-25T08:18:39Z</time></trkpt><trkpt lat="44.39393996859563" lon="8.521169291670105"><ele>335.0</ele><time>2026-04-25T08:18:40Z</time></trkpt><trkpt lat="44.39400778095857" lon="8.521233456432286"><ele>336.83333333333337</ele><time>2026-04-25T08:18:41Z</time></trkpt><trkpt lat="44.39407267711574" lon="8.521262578713587"><ele>338.6666666666667</ele><time>2026-04-25T08:18:42Z</time></trkpt><trkpt lat="44.39414102923577" lon="8.521266037187317"><ele>340.5</ele><time>2026-04-25T08:18:43Z</time></trkpt><trkpt lat="44.39420243550327" lon="8.521308598212265"><ele>342.3333333333333</ele><time>2026-04-25T08:18:44Z</time></trkpt><trkpt lat="44.3942631907791" lon="8.521377917432009"><ele>344.16666666666663</ele><time>2026-04-25T08:18:45Z</time></trkpt><trkpt lat="44.39428830215335" lon="8.521521257862195"><ele>346.0</ele><time>2026-04-25T08:18:46Z</time></trkpt><trkpt lat="44.39435659938537" lon="8.521632363224892"><ele>346.0</ele><time>2026-04-25T08:18:47Z</time></trkpt><trkpt lat="44.394430232575694" lon="8.521726239295791"><ele>346.0</ele><time>2026-04-25T08:18:48Z</time></trkpt><trkpt lat="44.39449176343244" lon="8.521796654224056"><ele>346.0</ele><time>2026-04-25T08:18:49Z</time></trkpt><trkpt lat="44.39447401607834" lon="8.521957093257011"><ele>346.0</ele><time>2026-04-25T08:18:51Z</time></trkpt><trkpt lat="44.39438990006444" lon="8.522118145638254"><ele>346.0</ele><time>2026-04-25T08:18:53Z</time></trkpt><trkpt lat="44.39433351894221" lon="8.522202363334443"><ele>344.5</ele><time>2026-04-25T08:18:54Z</time></trkpt><trkpt lat="44.394306505447055" lon="8.522289374036745"><ele>343.0</ele><time>2026-04-25T08:18:55Z</time></trkpt><trkpt lat="44.39430771994397" lon="8.522378482677317"><ele>341.5</ele><time>2026-04-25T08:18:56Z</time></trkpt><trkpt lat="44.3943355618046" lon="8.522463787019644"><ele>340.0</ele><time>2026-04-25T08:18:57Z</time></trkpt><trkpt lat="44.394373421946675" lon="8.522571527597734"><ele>338.5</ele><time>2026-04-25T08:18:58Z</time></trkpt><trkpt lat="44.39442280110153" lon="8.522707474388529"><ele>337.0</ele><time>2026-04-25T08:18:59Z</time></trkpt><trkpt lat="44.39446523875051" lon="8.522860410933232"><ele>336.20000000000005</ele><time>2026-04-25T08:19:00Z</time></trkpt><trkpt lat="44.394522384856316" lon="8.522980434748831"><ele>335.4</ele><time>2026-04-25T08:19:01Z</time></trkpt><trkpt lat="44.394531813807134" lon="8.523105011738698"><ele>334.6</ele><time>2026-04-25T08:19:02Z</time></trkpt><trkpt lat="44.394541688366616" lon="8.523245502472408"><ele>333.79999999999995</ele><time>2026-04-25T08:19:03Z</time></trkpt><trkpt lat="44.39454565220413" lon="8.523401665005842"><ele>333.0</ele><time>2026-04-25T08:19:04Z</time></trkpt><trkpt lat="44.394548538679786" lon="8.523552514938594"><ele>333.0</ele><time>2026-04-25T08:19:05Z</time></trkpt><trkpt lat="44.39456392943852" lon="8.523673541734327"><ele>333.0</ele><time>2026-04-25T08:19:06Z</time></trkpt><trkpt lat="44.39461378861989" lon="8.523776418504847"><ele>333.0</ele><time>2026-04-25T08:19:07Z</time></trkpt><trkpt lat="44.394663478069376" lon="8.523889039108312"><ele>333.0</ele><time>2026-04-25T08:19:08Z</time></trkpt><trkpt lat="44.39469135527106" lon="8.524012131100454"><ele>333.0</ele><time>2026-04-25T08:19:09Z</time></trkpt><trkpt lat="44.394740496059704" lon="8.524136003147134"><ele>333.0</ele><time>2026-04-25T08:19:10Z</time></trkpt><trkpt lat="44.39478983044911" lon="8.524247118654552"><ele>333.0</ele><time>2026-04-25T08:19:11Z</time></trkpt><trkpt lat="44.39482310201822" lon="8.524353738972698"><ele>333.0</ele><time>2026-04-25T08:19:12Z</time></trkpt><trkpt lat="44.394832670623515" lon="8.524447607042735"><ele>333.0</ele><time>2026-04-25T08:19:13Z</time></trkpt><trkpt lat="44.39476928613797" lon="8.524575417283419"><ele>333.0</ele><time>2026-04-25T08:19:15Z</time></trkpt><trkpt lat="44.394663514548675" lon="8.52448843129008"><ele>333.0</ele><time>2026-04-25T08:19:17Z</time></trkpt><trkpt lat="44.39460686713177" lon="8.524426117219638"><ele>333.0</ele><time>2026-04-25T08:19:18Z</time></trkpt><trkpt lat="44.39452998936043" lon="8.524378712447643"><ele>333.0</ele><time>2026-04-25T08:19:19Z</time></trkpt><trkpt lat="44.39447244466317" lon="8.5243251596184"><ele>333.0</ele><time>2026-04-25T08:19:20Z</time></trkpt><trkpt lat="44.39437001467672" lon="8.52431178266801"><ele>333.0</ele><time>2026-04-25T08:19:22Z</time></trkpt><trkpt lat="44.39431562616366" lon="8.524396579276377"><ele>333.0</ele><time>2026-04-25T08:19:23Z</time></trkpt><trkpt lat="44.39426050819043" lon="8.524468419201048"><ele>333.0</ele><time>2026-04-25T08:19:24Z</time></trkpt><trkpt lat="44.394198923948274" lon="8.52454059792076"><ele>333.0</ele><time>2026-04-25T08:19:25Z</time></trkpt><trkpt lat="44.39413026919506" lon="8.524612861716053"><ele>333.0</ele><time>2026-04-25T08:19:26Z</time></trkpt><trkpt lat="44.3940598171741" lon="8.524686388426712"><ele>333.0</ele><time>2026-04-25T08:19:27Z</time></trkpt><trkpt lat="44.39400038688458" lon="8.524755783416031"><ele>333.0</ele><time>2026-04-25T08:19:28Z</time></trkpt><trkpt lat="44.39394704344875" lon="8.524817470002962"><ele>333.0</ele><time>2026-04-25T08:19:29Z</time></trkpt><trkpt lat="44.39390581459827" lon="8.52488702001249"><ele>336.5</ele><time>2026-04-25T08:19:30Z</time></trkpt><trkpt lat="44.39384411629268" lon="8.525021397018254"><ele>340.0</ele><time>2026-04-25T08:19:32Z</time></trkpt><trkpt lat="44.39386678619655" lon="8.52517014280338"><ele>343.5</ele><time>2026-04-25T08:19:34Z</time></trkpt><trkpt lat="44.39388004527378" lon="8.525305823092369"><ele>347.0</ele><time>2026-04-25T08:19:36Z</time></trkpt><trkpt lat="44.39403374159678" lon="8.525339968029302"><ele>346.40000000000003</ele><time>2026-04-25T08:19:37Z</time></trkpt><trkpt lat="44.39411276988113" lon="8.525416253963353"><ele>345.8</ele><time>2026-04-25T08:19:38Z</time></trkpt><trkpt lat="44.394192220649174" lon="8.525503565787131"><ele>345.2</ele><time>2026-04-25T08:19:39Z</time></trkpt><trkpt lat="44.39428427752371" lon="8.525582713836272"><ele>344.6</ele><time>2026-04-25T08:19:40Z</time></trkpt><trkpt lat="44.39438225281029" lon="8.525632977324216"><ele>344.0</ele><time>2026-04-25T08:19:41Z</time></trkpt><trkpt lat="44.39448391168738" lon="8.525654746215448"><ele>344.0</ele><time>2026-04-25T08:19:42Z</time></trkpt><trkpt lat="44.39456856999185" lon="8.525710176591064"><ele>344.0</ele><time>2026-04-25T08:19:43Z</time></trkpt><trkpt lat="44.394649214567444" lon="8.525766367283108"><ele>344.0</ele><time>2026-04-25T08:19:44Z</time></trkpt><trkpt lat="44.39471861914789" lon="8.525851339041045"><ele>344.0</ele><time>2026-04-25T08:19:45Z</time></trkpt><trkpt lat="44.39478601599858" lon="8.5259343563497"><ele>344.0</ele><time>2026-04-25T08:19:46Z</time></trkpt><trkpt lat="44.394828421026915" lon="8.526019871632585"><ele>344.0</ele><time>2026-04-25T08:19:47Z</time></trkpt><trkpt lat="44.39484561312725" lon="8.526114475249278"><ele>347.6</ele><time>2026-04-25T08:19:48Z</time></trkpt><trkpt lat="44.3948427543178" lon="8.52620814279997"><ele>351.2</ele><time>2026-04-25T08:19:49Z</time></trkpt><trkpt lat="44.39482997005639" lon="8.526309912906086"><ele>354.8</ele><time>2026-04-25T08:19:50Z</time></trkpt><trkpt lat="44.39479608814679" lon="8.526439358228346"><ele>358.40000000000003</ele><time>2026-04-25T08:19:50.999Z</time></trkpt><trkpt lat="44.39479070919428" lon="8.526597331263641"><ele>362.0</ele><time>2026-04-25T08:19:51.999Z</time></trkpt><trkpt lat="44.39475620673237" lon="8.526725551826289"><ele>362.0</ele><time>2026-04-25T08:19:52.999Z</time></trkpt><trkpt lat="44.39471713441739" lon="8.526827654269598"><ele>362.0</ele><time>2026-04-25T08:19:53.999Z</time></trkpt><trkpt lat="44.39460635227056" lon="8.526892508023693"><ele>362.0</ele><time>2026-04-25T08:19:55.999Z</time></trkpt><trkpt lat="44.394539365988614" lon="8.52693983488048"><ele>362.0</ele><time>2026-04-25T08:19:56.999Z</time></trkpt><trkpt lat="44.39445628095306" lon="8.526932061647372"><ele>362.0</ele><time>2026-04-25T08:19:57.999Z</time></trkpt><trkpt lat="44.39437509248361" lon="8.526941631378769"><ele>362.0</ele><time>2026-04-25T08:19:58.999Z</time></trkpt><trkpt lat="44.39430052990141" lon="8.526877563285675"><ele>361.7142857142857</ele><time>2026-04-25T08:19:59.999Z</time></trkpt><trkpt lat="44.394233887363" lon="8.526872680850952"><ele>361.42857142857144</ele><time>2026-04-25T08:20:00.999Z</time></trkpt><trkpt lat="44.39416968443384" lon="8.526864788365613"><ele>361.1428571428571</ele><time>2026-04-25T08:20:01.999Z</time></trkpt><trkpt lat="44.39409418410521" lon="8.526896925950322"><ele>360.8571428571429</ele><time>2026-04-25T08:20:02.999Z</time></trkpt><trkpt lat="44.394021816592875" lon="8.526953661427802"><ele>360.5714285714286</ele><time>2026-04-25T08:20:03.999Z</time></trkpt><trkpt lat="44.39395527559939" lon="8.527020037691862"><ele>360.2857142857143</ele><time>2026-04-25T08:20:05.001Z</time></trkpt><trkpt lat="44.39390240631634" lon="8.527091222626424"><ele>360.0</ele><time>2026-04-25T08:20:06.001Z</time></trkpt><trkpt lat="44.393856603589455" lon="8.527172813668914"><ele>357.57142857142856</ele><time>2026-04-25T08:20:07.001Z</time></trkpt><trkpt lat="44.393815997828625" lon="8.527263246693131"><ele>355.14285714285717</ele><time>2026-04-25T08:20:08.001Z</time></trkpt><trkpt lat="44.39376356915207" lon="8.52734226843132"><ele>352.7142857142857</ele><time>2026-04-25T08:20:09.001Z</time></trkpt><trkpt lat="44.393704013743985" lon="8.52739734175451"><ele>350.2857142857143</ele><time>2026-04-25T08:20:10.001Z</time></trkpt><trkpt lat="44.39365798152779" lon="8.527482428775599"><ele>347.8571428571429</ele><time>2026-04-25T08:20:11.001Z</time></trkpt><trkpt lat="44.39361372767545" lon="8.52755250164553"><ele>345.42857142857144</ele><time>2026-04-25T08:20:12.001Z</time></trkpt><trkpt lat="44.393581718651006" lon="8.527645718926925"><ele>343.0</ele><time>2026-04-25T08:20:13.001Z</time></trkpt><trkpt lat="44.39355805814481" lon="8.52776522073974"><ele>343.0</ele><time>2026-04-25T08:20:14.001Z</time></trkpt><trkpt lat="44.393511702349194" lon="8.527881006619115"><ele>343.0</ele><time>2026-04-25T08:20:15.001Z</time></trkpt><trkpt lat="44.39347249496012" lon="8.527997393290008"><ele>343.0</ele><time>2026-04-25T08:20:16.001Z</time></trkpt><trkpt lat="44.3934256930234" lon="8.528099112999739"><ele>343.0</ele><time>2026-04-25T08:20:17.001Z</time></trkpt><trkpt lat="44.393363838167154" lon="8.52821012826869"><ele>343.0</ele><time>2026-04-25T08:20:18.001Z</time></trkpt><trkpt lat="44.393304936333195" lon="8.528347019048573"><ele>344.66666666666663</ele><time>2026-04-25T08:20:19.001Z</time></trkpt><trkpt lat="44.39324004734526" lon="8.528459800139293"><ele>346.3333333333333</ele><time>2026-04-25T08:20:20.001Z</time></trkpt><trkpt lat="44.39319895467349" lon="8.528566522025903"><ele>348.0</ele><time>2026-04-25T08:20:21.001Z</time></trkpt><trkpt lat="44.39317511462471" lon="8.528679292923877"><ele>349.6666666666667</ele><time>2026-04-25T08:20:22.001Z</time></trkpt><trkpt lat="44.3931618209197" lon="8.528792103006964"><ele>351.33333333333337</ele><time>2026-04-25T08:20:23Z</time></trkpt><trkpt lat="44.39316342124919" lon="8.5289007762517"><ele>353.0</ele><time>2026-04-25T08:20:24Z</time></trkpt><trkpt lat="44.393180074736115" lon="8.52900893931656"><ele>351.6666666666667</ele><time>2026-04-25T08:20:25Z</time></trkpt><trkpt lat="44.393207841465184" lon="8.529105936873693"><ele>350.33333333333337</ele><time>2026-04-25T08:20:26Z</time></trkpt><trkpt lat="44.39321171341213" lon="8.529200149097708"><ele>349.0</ele><time>2026-04-25T08:20:27Z</time></trkpt><trkpt lat="44.393174861918375" lon="8.529327558592398"><ele>347.6666666666667</ele><time>2026-04-25T08:20:29Z</time></trkpt><trkpt lat="44.39312135872925" lon="8.529377582791117"><ele>346.3333333333333</ele><time>2026-04-25T08:20:30Z</time></trkpt><trkpt lat="44.39304992923776" lon="8.529434475506319"><ele>345.0</ele><time>2026-04-25T08:20:31Z</time></trkpt><trkpt lat="44.39297274780185" lon="8.52949658313674"><ele>346.0</ele><time>2026-04-25T08:20:32Z</time></trkpt><trkpt lat="44.392925803462255" lon="8.529590649601374"><ele>347.0</ele><time>2026-04-25T08:20:33Z</time></trkpt><trkpt lat="44.392891915419234" lon="8.52967509366544"><ele>348.0</ele><time>2026-04-25T08:20:34Z</time></trkpt><trkpt lat="44.39286870525039" lon="8.529777652387883"><ele>349.0</ele><time>2026-04-25T08:20:35Z</time></trkpt><trkpt lat="44.39284857433021" lon="8.529901127017643"><ele>350.0</ele><time>2026-04-25T08:20:36Z</time></trkpt><trkpt lat="44.39282941808845" lon="8.530036503211317"><ele>351.0</ele><time>2026-04-25T08:20:37Z</time></trkpt><trkpt lat="44.39279061011499" lon="8.530144730416081"><ele>351.0</ele><time>2026-04-25T08:20:38Z</time></trkpt><trkpt lat="44.39275225433263" lon="8.530239602413658"><ele>351.0</ele><time>2026-04-25T08:20:39Z</time></trkpt><trkpt lat="44.39269377880166" lon="8.53034250581958"><ele>351.0</ele><time>2026-04-25T08:20:40Z</time></trkpt><trkpt lat="44.39264130877439" lon="8.530474461378384"><ele>351.0</ele><time>2026-04-25T08:20:41Z</time></trkpt><trkpt lat="44.39258099283218" lon="8.530588631436054"><ele>351.0</ele><time>2026-04-25T08:20:42Z</time></trkpt><trkpt lat="44.392543388714095" lon="8.530704835243796"><ele>352.6</ele><time>2026-04-25T08:20:43Z</time></trkpt><trkpt lat="44.39252859203099" lon="8.53083585683555"><ele>354.20000000000005</ele><time>2026-04-25T08:20:44Z</time></trkpt><trkpt lat="44.39249557433795" lon="8.530978229228761"><ele>355.79999999999995</ele><time>2026-04-25T08:20:45Z</time></trkpt><trkpt lat="44.3924705816631" lon="8.5311353463012"><ele>357.4</ele><time>2026-04-25T08:20:46Z</time></trkpt><trkpt lat="44.392446758975524" lon="8.531293358716256"><ele>359.0</ele><time>2026-04-25T08:20:47Z</time></trkpt><trkpt lat="44.392448027680906" lon="8.531465082613172"><ele>359.75</ele><time>2026-04-25T08:20:48Z</time></trkpt><trkpt lat="44.39245217056699" lon="8.531651825573839"><ele>360.5</ele><time>2026-04-25T08:20:49Z</time></trkpt><trkpt lat="44.39244042004867" lon="8.53184060603692"><ele>361.25</ele><time>2026-04-25T08:20:50Z</time></trkpt><trkpt lat="44.39243188416935" lon="8.532014544528035"><ele>362.0</ele><time>2026-04-25T08:20:51Z</time></trkpt><trkpt lat="44.39242010601567" lon="8.532173522684426"><ele>362.0</ele><time>2026-04-25T08:20:52Z</time></trkpt><trkpt lat="44.392409716678046" lon="8.532320737611789"><ele>362.0</ele><time>2026-04-25T08:20:53Z</time></trkpt><trkpt lat="44.392423039607365" lon="8.532446439088167"><ele>362.0</ele><time>2026-04-25T08:20:54Z</time></trkpt><trkpt lat="44.39244160789878" lon="8.532543229637161"><ele>362.0</ele><time>2026-04-25T08:20:55Z</time></trkpt><trkpt lat="44.39248668769483" lon="8.532621204200487"><ele>362.0</ele><time>2026-04-25T08:20:56Z</time></trkpt><trkpt lat="44.392541447095304" lon="8.532682018205549"><ele>362.0</ele><time>2026-04-25T08:20:57Z</time></trkpt><trkpt lat="44.392631102288085" lon="8.532665024232765"><ele>362.0</ele><time>2026-04-25T08:20:58Z</time></trkpt><trkpt lat="44.3927219807645" lon="8.532635660148108"><ele>362.0</ele><time>2026-04-25T08:20:59Z</time></trkpt><trkpt lat="44.39282956426919" lon="8.532580800067448"><ele>362.0</ele><time>2026-04-25T08:21:00Z</time></trkpt><trkpt lat="44.39294988493109" lon="8.532508533962213"><ele>362.0</ele><time>2026-04-25T08:21:01Z</time></trkpt><trkpt lat="44.3930489119767" lon="8.532445577899303"><ele>362.0</ele><time>2026-04-25T08:21:02Z</time></trkpt><trkpt lat="44.39312192156587" lon="8.532410817787657"><ele>364.0</ele><time>2026-04-25T08:21:03Z</time></trkpt><trkpt lat="44.39321974275542" lon="8.53243765672915"><ele>366.0</ele><time>2026-04-25T08:21:05Z</time></trkpt><trkpt lat="44.39323475476506" lon="8.532568998816723"><ele>368.0</ele><time>2026-04-25T08:21:07Z</time></trkpt><trkpt lat="44.39327050975386" lon="8.53274905580899"><ele>370.0</ele><time>2026-04-25T08:21:09Z</time></trkpt><trkpt lat="44.393282853475185" lon="8.532881889712801"><ele>372.0</ele><time>2026-04-25T08:21:10Z</time></trkpt><trkpt lat="44.39331533604051" lon="8.53302138757959"><ele>372.0</ele><time>2026-04-25T08:21:11Z</time></trkpt><trkpt lat="44.3933454356275" lon="8.53313709312781"><ele>372.0</ele><time>2026-04-25T08:21:12Z</time></trkpt><trkpt lat="44.3933164762062" lon="8.533238234522488"><ele>372.0</ele><time>2026-04-25T08:21:13Z</time></trkpt><trkpt lat="44.39324688103867" lon="8.53329156529678"><ele>372.0</ele><time>2026-04-25T08:21:14Z</time></trkpt><trkpt lat="44.39319598770935" lon="8.533377518848267"><ele>372.0</ele><time>2026-04-25T08:21:15Z</time></trkpt><trkpt lat="44.39315685948425" lon="8.533454012172701"><ele>372.0</ele><time>2026-04-25T08:21:16Z</time></trkpt><trkpt lat="44.39312863938277" lon="8.533540943096606"><ele>372.0</ele><time>2026-04-25T08:21:17Z</time></trkpt><trkpt lat="44.393149402628104" lon="8.533656209725182"><ele>372.0</ele><time>2026-04-25T08:21:18Z</time></trkpt><trkpt lat="44.39315405226429" lon="8.53376331889134"><ele>372.0</ele><time>2026-04-25T08:21:19Z</time></trkpt><trkpt lat="44.39308867354529" lon="8.533892688172235"><ele>372.0</ele><time>2026-04-25T08:21:21Z</time></trkpt><trkpt lat="44.39294331418615" lon="8.53393019596587"><ele>372.0</ele><time>2026-04-25T08:21:23Z</time></trkpt><trkpt lat="44.39285375562975" lon="8.53396774799038"><ele>370.0</ele><time>2026-04-25T08:21:24Z</time></trkpt><trkpt lat="44.39275895971863" lon="8.534032169953507"><ele>368.0</ele><time>2026-04-25T08:21:25Z</time></trkpt><trkpt lat="44.39267529618463" lon="8.534128443247731"><ele>366.0</ele><time>2026-04-25T08:21:26Z</time></trkpt><trkpt lat="44.3926008534566" lon="8.534243646110028"><ele>364.0</ele><time>2026-04-25T08:21:27Z</time></trkpt><trkpt lat="44.392540884384175" lon="8.53435936305973"><ele>362.0</ele><time>2026-04-25T08:21:28Z</time></trkpt><trkpt lat="44.39249588827929" lon="8.534480448052811"><ele>363.20000000000005</ele><time>2026-04-25T08:21:29Z</time></trkpt><trkpt lat="44.392469513917554" lon="8.534596689004252"><ele>364.4</ele><time>2026-04-25T08:21:30Z</time></trkpt><trkpt lat="44.39244636973071" lon="8.53470212756359"><ele>365.6</ele><time>2026-04-25T08:21:31Z</time></trkpt><trkpt lat="44.39246824781601" lon="8.534810422196578"><ele>366.79999999999995</ele><time>2026-04-25T08:21:32Z</time></trkpt><trkpt lat="44.392527176732614" lon="8.534915997783273"><ele>368.0</ele><time>2026-04-25T08:21:33Z</time></trkpt><trkpt lat="44.39261890985504" lon="8.534994537547144"><ele>368.0</ele><time>2026-04-25T08:21:34Z</time></trkpt><trkpt lat="44.39270098812591" lon="8.53510970568683"><ele>368.0</ele><time>2026-04-25T08:21:35Z</time></trkpt><trkpt lat="44.39279565517891" lon="8.53520264046006"><ele>368.0</ele><time>2026-04-25T08:21:36Z</time></trkpt><trkpt lat="44.39288147207648" lon="8.535281951140796"><ele>368.0</ele><time>2026-04-25T08:21:37Z</time></trkpt><trkpt lat="44.39296425764659" lon="8.535347296091702"><ele>368.0</ele><time>2026-04-25T08:21:38Z</time></trkpt><trkpt lat="44.39303796521913" lon="8.535405325055226"><ele>366.79999999999995</ele><time>2026-04-25T08:21:39Z</time></trkpt><trkpt lat="44.393099523717495" lon="8.535456571541456"><ele>365.6</ele><time>2026-04-25T08:21:40Z</time></trkpt><trkpt lat="44.393160029464084" lon="8.535563784535684"><ele>364.4</ele><time>2026-04-25T08:21:41.999Z</time></trkpt><trkpt lat="44.3931590882375" lon="8.535693377681199"><ele>363.20000000000005</ele><time>2026-04-25T08:21:43.999Z</time></trkpt><trkpt lat="44.39307863148028" lon="8.535861398976078"><ele>362.0</ele><time>2026-04-25T08:21:45.999Z</time></trkpt><trkpt lat="44.39300407514808" lon="8.535973886750694"><ele>362.0</ele><time>2026-04-25T08:21:46.999Z</time></trkpt><trkpt lat="44.39291300842592" lon="8.536095880905737"><ele>362.0</ele><time>2026-04-25T08:21:47.999Z</time></trkpt><trkpt lat="44.39283308605555" lon="8.536233328166151"><ele>362.0</ele><time>2026-04-25T08:21:48.999Z</time></trkpt><trkpt lat="44.392752127521206" lon="8.536341350187364"><ele>362.0</ele><time>2026-04-25T08:21:49.999Z</time></trkpt><trkpt lat="44.39267250846048" lon="8.53645987383421"><ele>363.25</ele><time>2026-04-25T08:21:50.999Z</time></trkpt><trkpt lat="44.39259264126823" lon="8.536584488900136"><ele>364.5</ele><time>2026-04-25T08:21:51.999Z</time></trkpt><trkpt lat="44.3925153653531" lon="8.536713691688632"><ele>365.75</ele><time>2026-04-25T08:21:52.999Z</time></trkpt><trkpt lat="44.392450402151795" lon="8.536839537533618"><ele>367.0</ele><time>2026-04-25T08:21:53.999Z</time></trkpt><trkpt lat="44.39240802360863" lon="8.536966353103983"><ele>367.6</ele><time>2026-04-25T08:21:54.999Z</time></trkpt><trkpt lat="44.39238524740043" lon="8.537094487454258"><ele>368.20000000000005</ele><time>2026-04-25T08:21:55.999Z</time></trkpt><trkpt lat="44.39238277419466" lon="8.537228150581454"><ele>368.8</ele><time>2026-04-25T08:21:56.999Z</time></trkpt><trkpt lat="44.39240477732436" lon="8.537360944243552"><ele>369.4</ele><time>2026-04-25T08:21:57.999Z</time></trkpt><trkpt lat="44.392450243015645" lon="8.537494921443828"><ele>370.0</ele><time>2026-04-25T08:21:58.999Z</time></trkpt><trkpt lat="44.392504090148705" lon="8.537634675154363"><ele>370.0</ele><time>2026-04-25T08:21:59.999Z</time></trkpt><trkpt lat="44.39254048631944" lon="8.537774357384244"><ele>370.0</ele><time>2026-04-25T08:22:00.999Z</time></trkpt><trkpt lat="44.39259688493753" lon="8.537885262970828"><ele>370.0</ele><time>2026-04-25T08:22:01.999Z</time></trkpt><trkpt lat="44.39266649796773" lon="8.537966313523874"><ele>370.0</ele><time>2026-04-25T08:22:02.999Z</time></trkpt><trkpt lat="44.39275577979185" lon="8.537978582025854"><ele>370.0</ele><time>2026-04-25T08:22:03.999Z</time></trkpt><trkpt lat="44.39284470020375" lon="8.537970581750987"><ele>371.6</ele><time>2026-04-25T08:22:04.999Z</time></trkpt><trkpt lat="44.3929418493977" lon="8.53791813401715"><ele>373.2</ele><time>2026-04-25T08:22:05.999Z</time></trkpt><trkpt lat="44.393049590327344" lon="8.537881674661115"><ele>374.79999999999995</ele><time>2026-04-25T08:22:06.999Z</time></trkpt><trkpt lat="44.393153768375484" lon="8.537823605988057"><ele>376.4</ele><time>2026-04-25T08:22:07.999Z</time></trkpt><trkpt lat="44.393263988080754" lon="8.537750696033223"><ele>378.0</ele><time>2026-04-25T08:22:08.999Z</time></trkpt><trkpt lat="44.39336335465123" lon="8.537689214786433"><ele>378.0</ele><time>2026-04-25T08:22:09.999Z</time></trkpt><trkpt lat="44.3934598922326" lon="8.537611909500866"><ele>378.0</ele><time>2026-04-25T08:22:11.001Z</time></trkpt><trkpt lat="44.393541148612655" lon="8.537499618687036"><ele>378.0</ele><time>2026-04-25T08:22:12.001Z</time></trkpt><trkpt lat="44.3936132724462" lon="8.537368414484837"><ele>378.0</ele><time>2026-04-25T08:22:13.001Z</time></trkpt><trkpt lat="44.393684071500715" lon="8.537233215926932"><ele>376.75</ele><time>2026-04-25T08:22:14.001Z</time></trkpt><trkpt lat="44.39376620779608" lon="8.537022185880424"><ele>375.5</ele><time>2026-04-25T08:22:15.001Z</time></trkpt><trkpt lat="44.39383387155789" lon="8.536874546624842"><ele>374.25</ele><time>2026-04-25T08:22:16Z</time></trkpt><trkpt lat="44.3939081104322" lon="8.536726099175892"><ele>373.0</ele><time>2026-04-25T08:22:17.001Z</time></trkpt><trkpt lat="44.39400041591546" lon="8.536603862255088"><ele>373.0</ele><time>2026-04-25T08:22:18.001Z</time></trkpt><trkpt lat="44.39408805617336" lon="8.536477745886838"><ele>373.0</ele><time>2026-04-25T08:22:19Z</time></trkpt><trkpt lat="44.39418684651825" lon="8.536360845432133"><ele>373.0</ele><time>2026-04-25T08:22:20Z</time></trkpt><trkpt lat="44.39430186754386" lon="8.536243416693369"><ele>373.0</ele><time>2026-04-25T08:22:21Z</time></trkpt><trkpt lat="44.39441846392358" lon="8.536127807495204"><ele>372.0</ele><time>2026-04-25T08:22:22Z</time></trkpt><trkpt lat="44.39453348511983" lon="8.536011213037684"><ele>371.0</ele><time>2026-04-25T08:22:23Z</time></trkpt><trkpt lat="44.39463544428209" lon="8.535904472228424"><ele>370.0</ele><time>2026-04-25T08:22:24Z</time></trkpt><trkpt lat="44.39472293123634" lon="8.535763943339067"><ele>369.0</ele><time>2026-04-25T08:22:25Z</time></trkpt><trkpt lat="44.394817597439236" lon="8.53562123883923"><ele>369.0</ele><time>2026-04-25T08:22:26Z</time></trkpt><trkpt lat="44.3948905781454" lon="8.535477258675796"><ele>369.0</ele><time>2026-04-25T08:22:27Z</time></trkpt><trkpt lat="44.39498781794003" lon="8.535320131519738"><ele>369.0</ele><time>2026-04-25T08:22:28Z</time></trkpt><trkpt lat="44.3950631307981" lon="8.535171062208674"><ele>369.0</ele><time>2026-04-25T08:22:29Z</time></trkpt><trkpt lat="44.395138696963066" lon="8.535056455161804"><ele>368.2</ele><time>2026-04-25T08:22:30Z</time></trkpt><trkpt lat="44.395230136739876" lon="8.534992789191536"><ele>367.4</ele><time>2026-04-25T08:22:31Z</time></trkpt><trkpt lat="44.39530905809514" lon="8.534955784522966"><ele>366.6</ele><time>2026-04-25T08:22:32Z</time></trkpt><trkpt lat="44.39540236650303" lon="8.534922303526109"><ele>365.8</ele><time>2026-04-25T08:22:33Z</time></trkpt><trkpt lat="44.395498576693456" lon="8.534903233678975"><ele>365.0</ele><time>2026-04-25T08:22:34Z</time></trkpt><trkpt lat="44.39560786482154" lon="8.534882970961496"><ele>365.0</ele><time>2026-04-25T08:22:35Z</time></trkpt><trkpt lat="44.39570843496087" lon="8.534835498861591"><ele>365.0</ele><time>2026-04-25T08:22:36Z</time></trkpt><trkpt lat="44.39579762546221" lon="8.534822122490796"><ele>365.0</ele><time>2026-04-25T08:22:37Z</time></trkpt><trkpt lat="44.395867766618046" lon="8.534784436375976"><ele>365.0</ele><time>2026-04-25T08:22:38Z</time></trkpt><trkpt lat="44.39593317934352" lon="8.534714948803153"><ele>365.0</ele><time>2026-04-25T08:22:39Z</time></trkpt><trkpt lat="44.39598801741321" lon="8.534607106382012"><ele>365.0</ele><time>2026-04-25T08:22:40Z</time></trkpt><trkpt lat="44.39604438746517" lon="8.534488722565971"><ele>368.5</ele><time>2026-04-25T08:22:41Z</time></trkpt><trkpt lat="44.39610896242408" lon="8.534392411484303"><ele>372.0</ele><time>2026-04-25T08:22:42Z</time></trkpt><trkpt lat="44.39618974625511" lon="8.534368584629634"><ele>375.5</ele><time>2026-04-25T08:22:43Z</time></trkpt><trkpt lat="44.39625814012568" lon="8.534354588785583"><ele>379.0</ele><time>2026-04-25T08:22:44Z</time></trkpt><trkpt lat="44.396338334615734" lon="8.534376062004617"><ele>382.49999999999994</ele><time>2026-04-25T08:22:45Z</time></trkpt><trkpt lat="44.39643982400856" lon="8.534408045438747"><ele>386.0</ele><time>2026-04-25T08:22:46Z</time></trkpt><trkpt lat="44.39655388240266" lon="8.534427670260431"><ele>386.0</ele><time>2026-04-25T08:22:47Z</time></trkpt><trkpt lat="44.39664249147681" lon="8.53443819281277"><ele>386.0</ele><time>2026-04-25T08:22:48Z</time></trkpt><trkpt lat="44.39672788244512" lon="8.53441572383088"><ele>386.0</ele><time>2026-04-25T08:22:49Z</time></trkpt><trkpt lat="44.39682140927209" lon="8.534379287703217"><ele>386.0</ele><time>2026-04-25T08:22:50Z</time></trkpt><trkpt lat="44.39693203153216" lon="8.534366224618482"><ele>386.0</ele><time>2026-04-25T08:22:51Z</time></trkpt><trkpt lat="44.397042413492954" lon="8.534338047673037"><ele>386.0</ele><time>2026-04-25T08:22:52Z</time></trkpt><trkpt lat="44.39715504302696" lon="8.534292969300575"><ele>386.0</ele><time>2026-04-25T08:22:53Z</time></trkpt><trkpt lat="44.397278812160366" lon="8.534311678593049"><ele>386.0</ele><time>2026-04-25T08:22:54Z</time></trkpt><trkpt lat="44.39738846959523" lon="8.534315247892884"><ele>386.0</ele><time>2026-04-25T08:22:55Z</time></trkpt><trkpt lat="44.39748682175549" lon="8.53429567800613"><ele>385.4</ele><time>2026-04-25T08:22:56Z</time></trkpt><trkpt lat="44.39758144206389" lon="8.534288472475007"><ele>384.8</ele><time>2026-04-25T08:22:57Z</time></trkpt><trkpt lat="44.39766796934054" lon="8.534299636902063"><ele>384.2</ele><time>2026-04-25T08:22:58Z</time></trkpt><trkpt lat="44.397752531812806" lon="8.53437307515565"><ele>383.59999999999997</ele><time>2026-04-25T08:22:59Z</time></trkpt><trkpt lat="44.397843913802625" lon="8.534414091840183"><ele>383.0</ele><time>2026-04-25T08:23:00Z</time></trkpt><trkpt lat="44.39794449319339" lon="8.534411338420844"><ele>382.33333333333337</ele><time>2026-04-25T08:23:01Z</time></trkpt><trkpt lat="44.39803727476596" lon="8.534421117256386"><ele>381.6666666666667</ele><time>2026-04-25T08:23:02Z</time></trkpt><trkpt lat="44.39811997869884" lon="8.534476898446076"><ele>381.0</ele><time>2026-04-25T08:23:03Z</time></trkpt><trkpt lat="44.39819963440335" lon="8.53448880212103"><ele>380.3333333333333</ele><time>2026-04-25T08:23:04Z</time></trkpt><trkpt lat="44.39826325280474" lon="8.53450334093633"><ele>379.66666666666663</ele><time>2026-04-25T08:23:05Z</time></trkpt><trkpt lat="44.398350384256375" lon="8.53443793638996"><ele>379.0</ele><time>2026-04-25T08:23:07Z</time></trkpt><trkpt lat="44.39845769758879" lon="8.53431837215554"><ele>379.0</ele><time>2026-04-25T08:23:09Z</time></trkpt><trkpt lat="44.3985252396444" lon="8.534257363351864"><ele>379.0</ele><time>2026-04-25T08:23:10Z</time></trkpt><trkpt lat="44.39861442382554" lon="8.534235498474589"><ele>379.0</ele><time>2026-04-25T08:23:11Z</time></trkpt><trkpt lat="44.39870335084569" lon="8.534199834791334"><ele>379.0</ele><time>2026-04-25T08:23:12Z</time></trkpt><trkpt lat="44.39876318815326" lon="8.534145831096025"><ele>379.0</ele><time>2026-04-25T08:23:13Z</time></trkpt><trkpt lat="44.39885996441642" lon="8.534045992411711"><ele>379.16666666666663</ele><time>2026-04-25T08:23:15Z</time></trkpt><trkpt lat="44.398919811804" lon="8.53399538624203"><ele>379.3333333333333</ele><time>2026-04-25T08:23:16Z</time></trkpt><trkpt lat="44.39895426706348" lon="8.53388004179901"><ele>379.5</ele><time>2026-04-25T08:23:17Z</time></trkpt><trkpt lat="44.39901962692708" lon="8.533787695116283"><ele>379.6666666666667</ele><time>2026-04-25T08:23:18Z</time></trkpt><trkpt lat="44.39907553963275" lon="8.53368992008854"><ele>379.83333333333337</ele><time>2026-04-25T08:23:19Z</time></trkpt><trkpt lat="44.39913477456202" lon="8.533610770887064"><ele>380.0</ele><time>2026-04-25T08:23:20Z</time></trkpt><trkpt lat="44.399201117877766" lon="8.533550920085213"><ele>380.0</ele><time>2026-04-25T08:23:21Z</time></trkpt><trkpt lat="44.39927172949928" lon="8.533491918467835"><ele>380.0</ele><time>2026-04-25T08:23:22Z</time></trkpt><trkpt lat="44.399357561268594" lon="8.533424437645772"><ele>380.0</ele><time>2026-04-25T08:23:23Z</time></trkpt><trkpt lat="44.399452648776084" lon="8.533348330441878"><ele>380.0</ele><time>2026-04-25T08:23:24Z</time></trkpt><trkpt lat="44.39953900821685" lon="8.533277265530565"><ele>380.0</ele><time>2026-04-25T08:23:25Z</time></trkpt><trkpt lat="44.39961048559622" lon="8.533221923786977"><ele>381.2</ele><time>2026-04-25T08:23:26Z</time></trkpt><trkpt lat="44.399676273850034" lon="8.533178275937505"><ele>382.4</ele><time>2026-04-25T08:23:27Z</time></trkpt><trkpt lat="44.39973888248271" lon="8.533148768453684"><ele>383.6</ele><time>2026-04-25T08:23:28Z</time></trkpt><trkpt lat="44.39984421457656" lon="8.533089819614894"><ele>384.8</ele><time>2026-04-25T08:23:30Z</time></trkpt><trkpt lat="44.399936199103266" lon="8.532974833759992"><ele>386.0</ele><time>2026-04-25T08:23:32Z</time></trkpt><trkpt lat="44.39997808324532" lon="8.532872327641979"><ele>386.0</ele><time>2026-04-25T08:23:33Z</time></trkpt><trkpt lat="44.40002083287924" lon="8.53276638188668"><ele>386.0</ele><time>2026-04-25T08:23:34Z</time></trkpt><trkpt lat="44.40007532321664" lon="8.532710671402603"><ele>386.0</ele><time>2026-04-25T08:23:35Z</time></trkpt><trkpt lat="44.40016261002872" lon="8.532696345041817"><ele>386.0</ele><time>2026-04-25T08:23:36.999Z</time></trkpt><trkpt lat="44.400281373299784" lon="8.532751123921667"><ele>386.0</ele><time>2026-04-25T08:23:38.999Z</time></trkpt><trkpt lat="44.400366504659225" lon="8.532777059997056"><ele>385.99999999999994</ele><time>2026-04-25T08:23:39.999Z</time></trkpt><trkpt lat="44.40045249118671" lon="8.532782730725172"><ele>386.0</ele><time>2026-04-25T08:23:40.999Z</time></trkpt><trkpt lat="44.40052379842716" lon="8.532766637143887"><ele>386.0</ele><time>2026-04-25T08:23:41.999Z</time></trkpt><trkpt lat="44.4005845721862" lon="8.532713826419014"><ele>386.0</ele><time>2026-04-25T08:23:42.999Z</time></trkpt><trkpt lat="44.40063460930183" lon="8.532627916202136"><ele>385.99999999999994</ele><time>2026-04-25T08:23:43.999Z</time></trkpt><trkpt lat="44.40068295676185" lon="8.532513936442601"><ele>386.0</ele><time>2026-04-25T08:23:44.999Z</time></trkpt><trkpt lat="44.40074364504434" lon="8.532389645973852"><ele>388.0</ele><time>2026-04-25T08:23:45.999Z</time></trkpt><trkpt lat="44.400807930913835" lon="8.532230667790595"><ele>390.0</ele><time>2026-04-25T08:23:46.999Z</time></trkpt><trkpt lat="44.40087525462567" lon="8.532081821936579"><ele>392.0</ele><time>2026-04-25T08:23:47.999Z</time></trkpt><trkpt lat="44.400962239535595" lon="8.53196407425302"><ele>394.0</ele><time>2026-04-25T08:23:48.999Z</time></trkpt><trkpt lat="44.401020570634586" lon="8.53182085693061"><ele>394.0</ele><time>2026-04-25T08:23:49.999Z</time></trkpt><trkpt lat="44.401076173265395" lon="8.531688887101787"><ele>394.0</ele><time>2026-04-25T08:23:50.999Z</time></trkpt><trkpt lat="44.401120842758644" lon="8.531563689536243"><ele>394.0</ele><time>2026-04-25T08:23:51.999Z</time></trkpt><trkpt lat="44.40118391817964" lon="8.531493111555589"><ele>394.0</ele><time>2026-04-25T08:23:52.999Z</time></trkpt><trkpt lat="44.40123771189203" lon="8.5314249297858"><ele>394.0</ele><time>2026-04-25T08:23:53.999Z</time></trkpt><trkpt lat="44.401330926350504" lon="8.531463521401983"><ele>393.00000000000006</ele><time>2026-04-25T08:23:54.999Z</time></trkpt><trkpt lat="44.40142203788005" lon="8.531419005487582"><ele>392.0</ele><time>2026-04-25T08:23:55.999Z</time></trkpt><trkpt lat="44.40150149209142" lon="8.531403077066901"><ele>391.0</ele><time>2026-04-25T08:23:56.999Z</time></trkpt><trkpt lat="44.40158691931915" lon="8.531298890342587"><ele>390.0</ele><time>2026-04-25T08:23:58.999Z</time></trkpt><trkpt lat="44.40160379451987" lon="8.531210657880068"><ele>389.00000000000006</ele><time>2026-04-25T08:23:59.999Z</time></trkpt><trkpt lat="44.40161612439269" lon="8.53110196758158"><ele>388.0</ele><time>2026-04-25T08:24:00.999Z</time></trkpt><trkpt lat="44.40165217711087" lon="8.530989561452241"><ele>388.0</ele><time>2026-04-25T08:24:01.999Z</time></trkpt><trkpt lat="44.401697306348886" lon="8.53088940032317"><ele>388.0</ele><time>2026-04-25T08:24:02.999Z</time></trkpt><trkpt lat="44.40175591586109" lon="8.53078039118984"><ele>388.0</ele><time>2026-04-25T08:24:03.999Z</time></trkpt><trkpt lat="44.40181682257163" lon="8.530673062698325"><ele>388.0</ele><time>2026-04-25T08:24:04.999Z</time></trkpt><trkpt lat="44.401876966271935" lon="8.530586054313686"><ele>388.0</ele><time>2026-04-25T08:24:05.999Z</time></trkpt><trkpt lat="44.40193947317797" lon="8.530501066851336"><ele>388.00000000000006</ele><time>2026-04-25T08:24:06.999Z</time></trkpt><trkpt lat="44.40199757799975" lon="8.530415036198328"><ele>388.0</ele><time>2026-04-25T08:24:07.999Z</time></trkpt><trkpt lat="44.40203165693728" lon="8.530313071404724"><ele>388.0</ele><time>2026-04-25T08:24:08.999Z</time></trkpt><trkpt lat="44.402061384268485" lon="8.530221206772982"><ele>388.0</ele><time>2026-04-25T08:24:09.999Z</time></trkpt><trkpt lat="44.402074071147425" lon="8.530118419643122"><ele>388.00000000000006</ele><time>2026-04-25T08:24:10.999Z</time></trkpt><trkpt lat="44.4020670092926" lon="8.529997787393949"><ele>388.0</ele><time>2026-04-25T08:24:11.999Z</time></trkpt><trkpt lat="44.40208552566242" lon="8.529866317560987"><ele>389.6666666666667</ele><time>2026-04-25T08:24:12.999Z</time></trkpt><trkpt lat="44.40209793160018" lon="8.52973525336226"><ele>391.33333333333337</ele><time>2026-04-25T08:24:13.999Z</time></trkpt><trkpt lat="44.40211164319012" lon="8.529612380091717"><ele>393.0</ele><time>2026-04-25T08:24:14.999Z</time></trkpt><trkpt lat="44.402124873140444" lon="8.529499264218012"><ele>394.66666666666663</ele><time>2026-04-25T08:24:15.999Z</time></trkpt><trkpt lat="44.40213946297292" lon="8.529401164463925"><ele>396.3333333333333</ele><time>2026-04-25T08:24:17Z</time></trkpt><trkpt lat="44.40215808320223" lon="8.529309104613196"><ele>398.0</ele><time>2026-04-25T08:24:18Z</time></trkpt><trkpt lat="44.40219527794085" lon="8.529137883071764"><ele>396.49999999999994</ele><time>2026-04-25T08:24:20Z</time></trkpt><trkpt lat="44.40223435553096" lon="8.529060499382956"><ele>395.0</ele><time>2026-04-25T08:24:21Z</time></trkpt><trkpt lat="44.402280293634306" lon="8.528974219085917"><ele>393.5</ele><time>2026-04-25T08:24:22Z</time></trkpt><trkpt lat="44.4023510481737" lon="8.52888482208437"><ele>392.0</ele><time>2026-04-25T08:24:23Z</time></trkpt><trkpt lat="44.402418479456806" lon="8.528775009150657"><ele>390.49999999999994</ele><time>2026-04-25T08:24:24Z</time></trkpt><trkpt lat="44.402481459233" lon="8.528683847617094"><ele>389.0</ele><time>2026-04-25T08:24:25Z</time></trkpt><trkpt lat="44.4025231797919" lon="8.52858717203254"><ele>388.99999999999994</ele><time>2026-04-25T08:24:26Z</time></trkpt><trkpt lat="44.40257034576676" lon="8.528522792084582"><ele>389.0</ele><time>2026-04-25T08:24:27Z</time></trkpt><trkpt lat="44.40261278573674" lon="8.52844832649733"><ele>389.0</ele><time>2026-04-25T08:24:28Z</time></trkpt><trkpt lat="44.40266264089126" lon="8.528360100157467"><ele>389.0</ele><time>2026-04-25T08:24:29Z</time></trkpt><trkpt lat="44.40270859759634" lon="8.52827361649766"><ele>388.99999999999994</ele><time>2026-04-25T08:24:30Z</time></trkpt><trkpt lat="44.4027686552467" lon="8.528149316348058"><ele>389.0</ele><time>2026-04-25T08:24:32Z</time></trkpt><trkpt lat="44.40279088791134" lon="8.528065541665054"><ele>388.99999999999994</ele><time>2026-04-25T08:24:34Z</time></trkpt><trkpt lat="44.40279684526109" lon="8.527912298367465"><ele>389.0</ele><time>2026-04-25T08:24:36Z</time></trkpt><trkpt lat="44.40280190405828" lon="8.527803512075351"><ele>389.0</ele><time>2026-04-25T08:24:37Z</time></trkpt><trkpt lat="44.40283643323793" lon="8.527688515925602"><ele>389.0</ele><time>2026-04-25T08:24:38Z</time></trkpt><trkpt lat="44.40287699825496" lon="8.527581086442895"><ele>388.99999999999994</ele><time>2026-04-25T08:24:39Z</time></trkpt><trkpt lat="44.40292615848142" lon="8.527483795142166"><ele>389.0</ele><time>2026-04-25T08:24:40Z</time></trkpt><trkpt lat="44.402992963732586" lon="8.527420203894202"><ele>388.79999999999995</ele><time>2026-04-25T08:24:41Z</time></trkpt><trkpt lat="44.403076683859446" lon="8.527342013952271"><ele>388.59999999999997</ele><time>2026-04-25T08:24:42Z</time></trkpt><trkpt lat="44.40314257902473" lon="8.527233708719756"><ele>388.4</ele><time>2026-04-25T08:24:43Z</time></trkpt><trkpt lat="44.40319362994129" lon="8.527161649320785"><ele>388.2</ele><time>2026-04-25T08:24:44Z</time></trkpt><trkpt lat="44.40328997830301" lon="8.527145883833928"><ele>388.0</ele><time>2026-04-25T08:24:46Z</time></trkpt><trkpt lat="44.40335110560561" lon="8.527307330231471"><ele>388.0</ele><time>2026-04-25T08:24:48Z</time></trkpt><trkpt lat="44.40340004236255" lon="8.52740187567947"><ele>388.0</ele><time>2026-04-25T08:24:49Z</time></trkpt><trkpt lat="44.40340413103765" lon="8.527532633657364"><ele>388.0</ele><time>2026-04-25T08:24:50Z</time></trkpt><trkpt lat="44.403401691495475" lon="8.527676198573236"><ele>388.0</ele><time>2026-04-25T08:24:51Z</time></trkpt><trkpt lat="44.40341933019451" lon="8.527872855720185"><ele>388.0</ele><time>2026-04-25T08:24:52Z</time></trkpt><trkpt lat="44.40341926787514" lon="8.528091570869018"><ele>387.25</ele><time>2026-04-25T08:24:53Z</time></trkpt><trkpt lat="44.40341285030655" lon="8.528294384928003"><ele>386.5</ele><time>2026-04-25T08:24:54Z</time></trkpt><trkpt lat="44.40340189353092" lon="8.528481486789024"><ele>385.75</ele><time>2026-04-25T08:24:55Z</time></trkpt><trkpt lat="44.40339503511536" lon="8.52863269143178"><ele>385.0</ele><time>2026-04-25T08:24:56Z</time></trkpt><trkpt lat="44.40340696696461" lon="8.528745820436798"><ele>383.8</ele><time>2026-04-25T08:24:57Z</time></trkpt><trkpt lat="44.403438838339575" lon="8.528867820885438"><ele>382.6</ele><time>2026-04-25T08:24:58Z</time></trkpt><trkpt lat="44.403465809118906" lon="8.529000722033624"><ele>381.4</ele><time>2026-04-25T08:24:59Z</time></trkpt><trkpt lat="44.40349673791524" lon="8.529143042096749"><ele>380.2</ele><time>2026-04-25T08:25:00Z</time></trkpt><trkpt lat="44.40352560496042" lon="8.529276883015026"><ele>379.0</ele><time>2026-04-25T08:25:01Z</time></trkpt><trkpt lat="44.40354702796174" lon="8.529387968341634"><ele>379.0</ele><time>2026-04-25T08:25:02Z</time></trkpt><trkpt lat="44.40353175232345" lon="8.529505249002645"><ele>379.0</ele><time>2026-04-25T08:25:03Z</time></trkpt><trkpt lat="44.40354178472572" lon="8.529635347781108"><ele>379.0</ele><time>2026-04-25T08:25:04Z</time></trkpt><trkpt lat="44.4035236533212" lon="8.529761430966737"><ele>379.0</ele><time>2026-04-25T08:25:05Z</time></trkpt><trkpt lat="44.403503117742694" lon="8.529871175825297"><ele>379.0</ele><time>2026-04-25T08:25:06Z</time></trkpt><trkpt lat="44.40346942346032" lon="8.529973255413069"><ele>379.0</ele><time>2026-04-25T08:25:07Z</time></trkpt><trkpt lat="44.40342086193905" lon="8.530072229615298"><ele>378.42857142857144</ele><time>2026-04-25T08:25:08Z</time></trkpt><trkpt lat="44.40336918109654" lon="8.530159276783795"><ele>377.8571428571429</ele><time>2026-04-25T08:25:09Z</time></trkpt><trkpt lat="44.40332167385597" lon="8.53023501538493"><ele>377.28571428571433</ele><time>2026-04-25T08:25:10Z</time></trkpt><trkpt lat="44.40330050669406" lon="8.530322996117983"><ele>376.7142857142857</ele><time>2026-04-25T08:25:11Z</time></trkpt><trkpt lat="44.403296602258905" lon="8.530418988426849"><ele>376.1428571428571</ele><time>2026-04-25T08:25:12Z</time></trkpt><trkpt lat="44.40331642510563" lon="8.530510896175207"><ele>375.5714285714286</ele><time>2026-04-25T08:25:13Z</time></trkpt><trkpt lat="44.40334850105955" lon="8.530596279007039"><ele>375.0</ele><time>2026-04-25T08:25:14Z</time></trkpt><trkpt lat="44.40339463241854" lon="8.530665621332998"><ele>374.3333333333333</ele><time>2026-04-25T08:25:15Z</time></trkpt><trkpt lat="44.403445995829856" lon="8.530721566949627"><ele>373.6666666666667</ele><time>2026-04-25T08:25:16Z</time></trkpt><trkpt lat="44.40347903629821" lon="8.530800383400424"><ele>373.0</ele><time>2026-04-25T08:25:17Z</time></trkpt><trkpt lat="44.40352083402868" lon="8.530961653905694"><ele>372.33333333333337</ele><time>2026-04-25T08:25:19Z</time></trkpt><trkpt lat="44.40352471010343" lon="8.53105851697929"><ele>371.6666666666667</ele><time>2026-04-25T08:25:20Z</time></trkpt><trkpt lat="44.40352100768336" lon="8.531177949170791"><ele>371.0</ele><time>2026-04-25T08:25:21Z</time></trkpt><trkpt lat="44.40351599529856" lon="8.531305439041423"><ele>370.0</ele><time>2026-04-25T08:25:22Z</time></trkpt><trkpt lat="44.40351291155267" lon="8.531437891271045"><ele>369.0</ele><time>2026-04-25T08:25:23Z</time></trkpt><trkpt lat="44.40351823230069" lon="8.531582613335392"><ele>368.0</ele><time>2026-04-25T08:25:24Z</time></trkpt><trkpt lat="44.40353533553045" lon="8.53173105555821"><ele>367.0</ele><time>2026-04-25T08:25:25Z</time></trkpt><trkpt lat="44.40354979419386" lon="8.531871846910732"><ele>366.0</ele><time>2026-04-25T08:25:26Z</time></trkpt><trkpt lat="44.403546712873435" lon="8.532006615237497"><ele>367.0</ele><time>2026-04-25T08:25:27Z</time></trkpt><trkpt lat="44.40353047652944" lon="8.532138739834156"><ele>368.0</ele><time>2026-04-25T08:25:28Z</time></trkpt><trkpt lat="44.40351071521532" lon="8.532264314973636"><ele>369.0</ele><time>2026-04-25T08:25:29Z</time></trkpt><trkpt lat="44.403488693370434" lon="8.53236586926443"><ele>370.0</ele><time>2026-04-25T08:25:30Z</time></trkpt><trkpt lat="44.40342426760422" lon="8.532418935241145"><ele>371.0</ele><time>2026-04-25T08:25:31Z</time></trkpt><trkpt lat="44.403342866114606" lon="8.532436299965545"><ele>372.0</ele><time>2026-04-25T08:25:32Z</time></trkpt><trkpt lat="44.40324055116491" lon="8.532428610121757"><ele>372.0</ele><time>2026-04-25T08:25:33Z</time></trkpt><trkpt lat="44.403156306808256" lon="8.53242604178609"><ele>372.0</ele><time>2026-04-25T08:25:34Z</time></trkpt><trkpt lat="44.40304320875296" lon="8.532418477287594"><ele>372.0</ele><time>2026-04-25T08:25:35Z</time></trkpt><trkpt lat="44.40294762731116" lon="8.532416191222147"><ele>372.0</ele><time>2026-04-25T08:25:36Z</time></trkpt><trkpt lat="44.40287490339236" lon="8.53241669317745"><ele>372.0</ele><time>2026-04-25T08:25:37Z</time></trkpt><trkpt lat="44.40278399573547" lon="8.532462088951894"><ele>372.0</ele><time>2026-04-25T08:25:39Z</time></trkpt><trkpt lat="44.402746134727806" lon="8.532579939176916"><ele>372.0</ele><time>2026-04-25T08:25:41Z</time></trkpt><trkpt lat="44.402881962233714" lon="8.532663136859908"><ele>372.0</ele><time>2026-04-25T08:25:45.999Z</time></trkpt><trkpt lat="44.4029576547965" lon="8.532651492370652"><ele>372.0</ele><time>2026-04-25T08:25:46.999Z</time></trkpt><trkpt lat="44.40304887248538" lon="8.53270350052168"><ele>372.0</ele><time>2026-04-25T08:25:47.999Z</time></trkpt><trkpt lat="44.40311593430089" lon="8.532761425608475"><ele>372.0</ele><time>2026-04-25T08:25:48.999Z</time></trkpt><trkpt lat="44.40319454470163" lon="8.532856830446152"><ele>372.0</ele><time>2026-04-25T08:25:49.999Z</time></trkpt><trkpt lat="44.4032676664533" lon="8.532968197129936"><ele>372.0</ele><time>2026-04-25T08:25:50.999Z</time></trkpt><trkpt lat="44.40334566667243" lon="8.533013675466046"><ele>372.0</ele><time>2026-04-25T08:25:51.999Z</time></trkpt><trkpt lat="44.403414053274645" lon="8.533055308169073"><ele>372.0</ele><time>2026-04-25T08:25:52.999Z</time></trkpt><trkpt lat="44.4034588442078" lon="8.53298692856865"><ele>372.0</ele><time>2026-04-25T08:25:53.999Z</time></trkpt><trkpt lat="44.403536139084096" lon="8.532938592511082"><ele>372.0</ele><time>2026-04-25T08:25:54.999Z</time></trkpt><trkpt lat="44.40361560129325" lon="8.532883519633858"><ele>372.0</ele><time>2026-04-25T08:25:55.999Z</time></trkpt><trkpt lat="44.403678985616466" lon="8.532893521769097"><ele>372.0</ele><time>2026-04-25T08:25:56.999Z</time></trkpt><trkpt lat="44.40374858438371" lon="8.53295126341046"><ele>372.0</ele><time>2026-04-25T08:25:58.999Z</time></trkpt><trkpt lat="44.40374565412204" lon="8.533043128155938"><ele>372.0</ele><time>2026-04-25T08:25:59.999Z</time></trkpt><trkpt lat="44.40369007840779" lon="8.533121431734418"><ele>372.0</ele><time>2026-04-25T08:26:00.999Z</time></trkpt><trkpt lat="44.403641577529996" lon="8.533197643632036"><ele>376.6</ele><time>2026-04-25T08:26:01.999Z</time></trkpt><trkpt lat="44.40357969520556" lon="8.533240885953665"><ele>381.20000000000005</ele><time>2026-04-25T08:26:02.999Z</time></trkpt><trkpt lat="44.40350004476641" lon="8.533255202248172"><ele>385.8</ele><time>2026-04-25T08:26:03.999Z</time></trkpt><trkpt lat="44.403396529059705" lon="8.533162799917873"><ele>390.4</ele><time>2026-04-25T08:26:04.999Z</time></trkpt><trkpt lat="44.40328110272577" lon="8.533116968266013"><ele>395.0</ele><time>2026-04-25T08:26:05.999Z</time></trkpt><trkpt lat="44.40316631303134" lon="8.533112507944084"><ele>394.99999999999994</ele><time>2026-04-25T08:26:06.999Z</time></trkpt><trkpt lat="44.403071068910776" lon="8.533109400240084"><ele>395.0</ele><time>2026-04-25T08:26:07.999Z</time></trkpt><trkpt lat="44.40297846245181" lon="8.53313636372905"><ele>395.0</ele><time>2026-04-25T08:26:08.999Z</time></trkpt><trkpt lat="44.40291332302742" lon="8.533180164202829"><ele>395.0</ele><time>2026-04-25T08:26:09.999Z</time></trkpt><trkpt lat="44.40284901287033" lon="8.533256378514233"><ele>394.99999999999994</ele><time>2026-04-25T08:26:10.999Z</time></trkpt><trkpt lat="44.4027967408061" lon="8.533360515654717"><ele>395.0</ele><time>2026-04-25T08:26:11.999Z</time></trkpt><trkpt lat="44.40276122471873" lon="8.533483091349893"><ele>392.16666666666663</ele><time>2026-04-25T08:26:12.999Z</time></trkpt><trkpt lat="44.40272565101133" lon="8.533614280267296"><ele>389.3333333333333</ele><time>2026-04-25T08:26:13.999Z</time></trkpt><trkpt lat="44.40271811747048" lon="8.533724340777253"><ele>386.5</ele><time>2026-04-25T08:26:14.999Z</time></trkpt><trkpt lat="44.402736882624815" lon="8.533820686997348"><ele>383.66666666666663</ele><time>2026-04-25T08:26:15.999Z</time></trkpt><trkpt lat="44.40278281560543" lon="8.533899972217618"><ele>380.8333333333333</ele><time>2026-04-25T08:26:16.999Z</time></trkpt><trkpt lat="44.40285385488347" lon="8.533968577143881"><ele>378.0</ele><time>2026-04-25T08:26:17.999Z</time></trkpt><trkpt lat="44.402939550243374" lon="8.534037320013336"><ele>383.79999999999995</ele><time>2026-04-25T08:26:18.999Z</time></trkpt><trkpt lat="44.403019967229525" lon="8.534097177956205"><ele>389.6</ele><time>2026-04-25T08:26:19.999Z</time></trkpt><trkpt lat="44.40309750322277" lon="8.534176806731988"><ele>395.4</ele><time>2026-04-25T08:26:20.999Z</time></trkpt><trkpt lat="44.403147240790396" lon="8.534306871979714"><ele>401.20000000000005</ele><time>2026-04-25T08:26:21.999Z</time></trkpt><trkpt lat="44.40321262922268" lon="8.534379736894737"><ele>407.0</ele><time>2026-04-25T08:26:23Z</time></trkpt><trkpt lat="44.403295449359156" lon="8.534383320813793"><ele>407.0</ele><time>2026-04-25T08:26:25Z</time></trkpt><trkpt lat="44.40339009568929" lon="8.5343268342858"><ele>407.0</ele><time>2026-04-25T08:26:27Z</time></trkpt><trkpt lat="44.40343538387691" lon="8.534430434886806"><ele>407.0</ele><time>2026-04-25T08:26:29Z</time></trkpt><trkpt lat="44.40338472234357" lon="8.534487360043403"><ele>407.0</ele><time>2026-04-25T08:26:30Z</time></trkpt><trkpt lat="44.403545824121124" lon="8.534485091661272"><ele>407.0</ele><time>2026-04-25T08:27:22Z</time></trkpt><trkpt lat="44.40364945503589" lon="8.534370751109517"><ele>406.99999999999994</ele><time>2026-04-25T08:27:24Z</time></trkpt><trkpt lat="44.4036773086172" lon="8.534289001998259"><ele>407.0</ele><time>2026-04-25T08:27:25Z</time></trkpt><trkpt lat="44.40367761685931" lon="8.534136369331804"><ele>407.0</ele><time>2026-04-25T08:27:27Z</time></trkpt><trkpt lat="44.4036647846128" lon="8.533996710993584"><ele>407.0</ele><time>2026-04-25T08:27:29Z</time></trkpt><trkpt lat="44.40365610942364" lon="8.533908959615111"><ele>406.99999999999994</ele><time>2026-04-25T08:27:30Z</time></trkpt><trkpt lat="44.40365580197022" lon="8.533817953722217"><ele>407.0</ele><time>2026-04-25T08:27:31Z</time></trkpt><trkpt lat="44.40371737465787" lon="8.533703504484286"><ele>407.40000000000003</ele><time>2026-04-25T08:27:33Z</time></trkpt><trkpt lat="44.40385178859039" lon="8.533672446318098"><ele>407.8</ele><time>2026-04-25T08:27:35Z</time></trkpt><trkpt lat="44.40393993578161" lon="8.533677049174642"><ele>408.2</ele><time>2026-04-25T08:27:36Z</time></trkpt><trkpt lat="44.40404155347213" lon="8.533687434691615"><ele>408.6</ele><time>2026-04-25T08:27:37Z</time></trkpt><trkpt lat="44.404137147195705" lon="8.533675349711048"><ele>409.0</ele><time>2026-04-25T08:27:38Z</time></trkpt><trkpt lat="44.404211540091126" lon="8.533634373225313"><ele>409.00000000000006</ele><time>2026-04-25T08:27:39Z</time></trkpt><trkpt lat="44.404279368713475" lon="8.53356040471249"><ele>409.0</ele><time>2026-04-25T08:27:40Z</time></trkpt><trkpt lat="44.40433726193518" lon="8.533464328387376"><ele>409.0</ele><time>2026-04-25T08:27:41Z</time></trkpt><trkpt lat="44.40437663656435" lon="8.533358298712304"><ele>409.0</ele><time>2026-04-25T08:27:41.999Z</time></trkpt><trkpt lat="44.404395633343945" lon="8.533237075281988"><ele>409.00000000000006</ele><time>2026-04-25T08:27:42.999Z</time></trkpt><trkpt lat="44.404412961597586" lon="8.533129255053774"><ele>409.0</ele><time>2026-04-25T08:27:43.999Z</time></trkpt><trkpt lat="44.40449487831673" lon="8.533021797479991"><ele>409.0</ele><time>2026-04-25T08:27:45.999Z</time></trkpt><trkpt lat="44.40462399488671" lon="8.533045629901574"><ele>409.0</ele><time>2026-04-25T08:27:47.999Z</time></trkpt><trkpt lat="44.40471378575575" lon="8.533089943246322"><ele>409.0</ele><time>2026-04-25T08:27:48.999Z</time></trkpt><trkpt lat="44.404825531956824" lon="8.533142760463049"><ele>409.0</ele><time>2026-04-25T08:27:49.999Z</time></trkpt><trkpt lat="44.404956842923156" lon="8.533187671684622"><ele>413.75</ele><time>2026-04-25T08:27:50.999Z</time></trkpt><trkpt lat="44.40507667369555" lon="8.53321457866168"><ele>418.5</ele><time>2026-04-25T08:27:51.999Z</time></trkpt><trkpt lat="44.40520575870957" lon="8.533218626460457"><ele>423.25</ele><time>2026-04-25T08:27:52.999Z</time></trkpt><trkpt lat="44.40534273090422" lon="8.533212697236815"><ele>428.0</ele><time>2026-04-25T08:27:53.999Z</time></trkpt><trkpt lat="44.40547315763919" lon="8.53322622035049"><ele>429.2</ele><time>2026-04-25T08:27:54.999Z</time></trkpt><trkpt lat="44.40558402959614" lon="8.533227876581629"><ele>430.4</ele><time>2026-04-25T08:27:55.999Z</time></trkpt><trkpt lat="44.405676239471376" lon="8.53326974054259"><ele>431.59999999999997</ele><time>2026-04-25T08:27:56.999Z</time></trkpt><trkpt lat="44.40576925544303" lon="8.533301580854904"><ele>432.79999999999995</ele><time>2026-04-25T08:27:57.999Z</time></trkpt><trkpt lat="44.4058700852862" lon="8.533336137799646"><ele>434.0</ele><time>2026-04-25T08:27:58.999Z</time></trkpt><trkpt lat="44.405960005233" lon="8.533415606239162"><ele>433.99999999999994</ele><time>2026-04-25T08:27:59.999Z</time></trkpt><trkpt lat="44.40603742031354" lon="8.533486005369413"><ele>434.0</ele><time>2026-04-25T08:28:00.999Z</time></trkpt><trkpt lat="44.406108925743276" lon="8.533501534611657"><ele>434.0</ele><time>2026-04-25T08:28:01.999Z</time></trkpt><trkpt lat="44.40617442574442" lon="8.533468629845753"><ele>434.0</ele><time>2026-04-25T08:28:02.999Z</time></trkpt><trkpt lat="44.40622917267989" lon="8.53340392723479"><ele>433.99999999999994</ele><time>2026-04-25T08:28:03.999Z</time></trkpt><trkpt lat="44.406277818476646" lon="8.533333778545916"><ele>434.0</ele><time>2026-04-25T08:28:04.999Z</time></trkpt><trkpt lat="44.406294875785534" lon="8.53321651631366"><ele>434.0</ele><time>2026-04-25T08:28:05.999Z</time></trkpt><trkpt lat="44.40628165886835" lon="8.533089900034506"><ele>434.0</ele><time>2026-04-25T08:28:06.999Z</time></trkpt><trkpt lat="44.40622253712353" lon="8.532968088214606"><ele>434.0</ele><time>2026-04-25T08:28:07.999Z</time></trkpt><trkpt lat="44.406165365061" lon="8.532841188526449"><ele>434.0</ele><time>2026-04-25T08:28:08.999Z</time></trkpt><trkpt lat="44.40614192590395" lon="8.53269880373462"><ele>434.0</ele><time>2026-04-25T08:28:09.999Z</time></trkpt><trkpt lat="44.4061235386811" lon="8.532564134051013"><ele>433.2</ele><time>2026-04-25T08:28:10.999Z</time></trkpt><trkpt lat="44.406102839228836" lon="8.53241743250503"><ele>432.4</ele><time>2026-04-25T08:28:11.999Z</time></trkpt><trkpt lat="44.40607624866145" lon="8.53228887918609"><ele>431.6</ele><time>2026-04-25T08:28:12.999Z</time></trkpt><trkpt lat="44.40601963432415" lon="8.532193097387317"><ele>430.8</ele><time>2026-04-25T08:28:13.999Z</time></trkpt><trkpt lat="44.40598378211269" lon="8.532077901248163"><ele>430.0</ele><time>2026-04-25T08:28:14.999Z</time></trkpt><trkpt lat="44.405935597996255" lon="8.53195156871211"><ele>434.4</ele><time>2026-04-25T08:28:15.999Z</time></trkpt><trkpt lat="44.40589829413957" lon="8.531799704667359"><ele>438.8</ele><time>2026-04-25T08:28:16.999Z</time></trkpt><trkpt lat="44.40584146498648" lon="8.531642975510707"><ele>443.20000000000005</ele><time>2026-04-25T08:28:17.999Z</time></trkpt><trkpt lat="44.4058098454786" lon="8.5315139812478"><ele>447.6</ele><time>2026-04-25T08:28:18.999Z</time></trkpt><trkpt lat="44.40576898889775" lon="8.531393931379784"><ele>452.0</ele><time>2026-04-25T08:28:19.999Z</time></trkpt><trkpt lat="44.40570237881586" lon="8.531268295988172"><ele>446.25</ele><time>2026-04-25T08:28:20.999Z</time></trkpt><trkpt lat="44.40563991385923" lon="8.531109770360608"><ele>440.5</ele><time>2026-04-25T08:28:21.999Z</time></trkpt><trkpt lat="44.405571163467734" lon="8.530966080510158"><ele>434.75</ele><time>2026-04-25T08:28:22.999Z</time></trkpt><trkpt lat="44.40549745531885" lon="8.530826764465422"><ele>429.0</ele><time>2026-04-25T08:28:23.999Z</time></trkpt><trkpt lat="44.405426029736" lon="8.530660937462642"><ele>429.0</ele><time>2026-04-25T08:28:24.999Z</time></trkpt><trkpt lat="44.40536063035371" lon="8.53046636480769"><ele>429.0</ele><time>2026-04-25T08:28:25.999Z</time></trkpt><trkpt lat="44.40530861982884" lon="8.53028716578243"><ele>429.0</ele><time>2026-04-25T08:28:26.999Z</time></trkpt><trkpt lat="44.40526206359508" lon="8.530134239040681"><ele>429.0</ele><time>2026-04-25T08:28:28Z</time></trkpt><trkpt lat="44.40522097147908" lon="8.530007985897527"><ele>435.0</ele><time>2026-04-25T08:28:29Z</time></trkpt><trkpt lat="44.405167854492994" lon="8.529895812969183"><ele>441.0</ele><time>2026-04-25T08:28:30Z</time></trkpt><trkpt lat="44.40510202370073" lon="8.529789651380211"><ele>447.0</ele><time>2026-04-25T08:28:31Z</time></trkpt><trkpt lat="44.40502281795708" lon="8.529699873954508"><ele>453.0</ele><time>2026-04-25T08:28:32Z</time></trkpt><trkpt lat="44.40493721038639" lon="8.529640911464515"><ele>459.0</ele><time>2026-04-25T08:28:33Z</time></trkpt><trkpt lat="44.404858619607246" lon="8.529605769038225"><ele>461.0</ele><time>2026-04-25T08:28:34Z</time></trkpt><trkpt lat="44.40477107949798" lon="8.529511305150901"><ele>463.0</ele><time>2026-04-25T08:28:36Z</time></trkpt><trkpt lat="44.40478948801909" lon="8.529359741728236"><ele>465.0</ele><time>2026-04-25T08:28:38Z</time></trkpt><trkpt lat="44.40482219936281" lon="8.529280851398006"><ele>467.0</ele><time>2026-04-25T08:28:39Z</time></trkpt><trkpt lat="44.4048976607952" lon="8.529145989845272"><ele>469.0</ele><time>2026-04-25T08:28:41Z</time></trkpt><trkpt lat="44.4049512543493" lon="8.529055847625926"><ele>469.0</ele><time>2026-04-25T08:28:42Z</time></trkpt><trkpt lat="44.40496991057147" lon="8.528910884806887"><ele>469.0</ele><time>2026-04-25T08:28:43Z</time></trkpt><trkpt lat="44.405003214545545" lon="8.528756328950525"><ele>469.0</ele><time>2026-04-25T08:28:44Z</time></trkpt><trkpt lat="44.40503064475132" lon="8.528583105966936"><ele>469.0</ele><time>2026-04-25T08:28:45Z</time></trkpt><trkpt lat="44.40503839279162" lon="8.528417099801883"><ele>469.5</ele><time>2026-04-25T08:28:46Z</time></trkpt><trkpt lat="44.40503393084406" lon="8.528246613997839"><ele>470.0</ele><time>2026-04-25T08:28:47Z</time></trkpt><trkpt lat="44.40502481764994" lon="8.528073225142421"><ele>470.5</ele><time>2026-04-25T08:28:48Z</time></trkpt><trkpt lat="44.405018984205014" lon="8.527906612832659"><ele>471.0</ele><time>2026-04-25T08:28:49Z</time></trkpt><trkpt lat="44.40503161572033" lon="8.527744905860837"><ele>471.4</ele><time>2026-04-25T08:28:50Z</time></trkpt><trkpt lat="44.405030623730184" lon="8.52758315970733"><ele>471.8</ele><time>2026-04-25T08:28:51Z</time></trkpt><trkpt lat="44.40502180453574" lon="8.527438713743852"><ele>472.19999999999993</ele><time>2026-04-25T08:28:52Z</time></trkpt><trkpt lat="44.40501771022107" lon="8.527318099091655"><ele>472.59999999999997</ele><time>2026-04-25T08:28:53Z</time></trkpt><trkpt lat="44.405038785120134" lon="8.527210024544761"><ele>473.0</ele><time>2026-04-25T08:28:54Z</time></trkpt><trkpt lat="44.40505051011224" lon="8.527112797615228"><ele>470.3333333333333</ele><time>2026-04-25T08:28:55Z</time></trkpt><trkpt lat="44.40509369211154" lon="8.526978467142042"><ele>467.66666666666663</ele><time>2026-04-25T08:28:57Z</time></trkpt><trkpt lat="44.40515830624698" lon="8.52696779347022"><ele>465.0</ele><time>2026-04-25T08:28:58Z</time></trkpt><trkpt lat="44.40522242130067" lon="8.526928492897968"><ele>462.33333333333337</ele><time>2026-04-25T08:28:59Z</time></trkpt><trkpt lat="44.40531030510209" lon="8.526923987244881"><ele>459.6666666666667</ele><time>2026-04-25T08:29:00Z</time></trkpt><trkpt lat="44.405406812236926" lon="8.526894691361857"><ele>457.0</ele><time>2026-04-25T08:29:01Z</time></trkpt><trkpt lat="44.40551112897303" lon="8.526844192907397"><ele>466.8</ele><time>2026-04-25T08:29:02Z</time></trkpt><trkpt lat="44.4056053962807" lon="8.526801338750296"><ele>476.6</ele><time>2026-04-25T08:29:03Z</time></trkpt><trkpt lat="44.405691424009106" lon="8.526755956770177"><ele>486.40000000000003</ele><time>2026-04-25T08:29:04Z</time></trkpt><trkpt lat="44.40575673040953" lon="8.52666589256449"><ele>496.20000000000005</ele><time>2026-04-25T08:29:05Z</time></trkpt><trkpt lat="44.405786622268685" lon="8.526539083780714"><ele>506.0</ele><time>2026-04-25T08:29:06Z</time></trkpt><trkpt lat="44.405832678267316" lon="8.526391190468185"><ele>502.8</ele><time>2026-04-25T08:29:07Z</time></trkpt><trkpt lat="44.405848289670956" lon="8.52622163258584"><ele>499.6</ele><time>2026-04-25T08:29:08Z</time></trkpt><trkpt lat="44.40588473881177" lon="8.526086084233865"><ele>496.4</ele><time>2026-04-25T08:29:09Z</time></trkpt><trkpt lat="44.40593073609493" lon="8.525963743117703"><ele>493.2</ele><time>2026-04-25T08:29:10Z</time></trkpt><trkpt lat="44.405985526994485" lon="8.525833574189726"><ele>490.0</ele><time>2026-04-25T08:29:12Z</time></trkpt><trkpt lat="44.40603115009409" lon="8.525743820449724"><ele>490.00000000000006</ele><time>2026-04-25T08:29:13Z</time></trkpt><trkpt lat="44.40608615303335" lon="8.52566385338604"><ele>490.0</ele><time>2026-04-25T08:29:14Z</time></trkpt><trkpt lat="44.40609942544328" lon="8.525566651521872"><ele>490.0</ele><time>2026-04-25T08:29:15Z</time></trkpt><trkpt lat="44.40608018566318" lon="8.525441479849343"><ele>490.0</ele><time>2026-04-25T08:29:16Z</time></trkpt><trkpt lat="44.40605071368449" lon="8.525297173411904"><ele>490.00000000000006</ele><time>2026-04-25T08:29:17Z</time></trkpt><trkpt lat="44.406059347330874" lon="8.525165549121061"><ele>490.0</ele><time>2026-04-25T08:29:18Z</time></trkpt><trkpt lat="44.40606076462545" lon="8.525042029671495"><ele>490.00000000000006</ele><time>2026-04-25T08:29:20Z</time></trkpt><trkpt lat="44.40614974269085" lon="8.524992954927253"><ele>490.0</ele><time>2026-04-25T08:29:22Z</time></trkpt><trkpt lat="44.40620883826925" lon="8.525025755562718"><ele>490.0</ele><time>2026-04-25T08:29:23Z</time></trkpt><trkpt lat="44.40626037128815" lon="8.525090349499026"><ele>490.0</ele><time>2026-04-25T08:29:24Z</time></trkpt><trkpt lat="44.40627454375848" lon="8.52518318418048"><ele>490.00000000000006</ele><time>2026-04-25T08:29:25Z</time></trkpt><trkpt lat="44.40621500352215" lon="8.525303722337163"><ele>490.0</ele><time>2026-04-25T08:29:27Z</time></trkpt><trkpt lat="44.40621164294134" lon="8.52543259465518"><ele>490.00000000000006</ele><time>2026-04-25T08:29:29Z</time></trkpt><trkpt lat="44.40628864509843" lon="8.52551320329855"><ele>490.0</ele><time>2026-04-25T08:29:31Z</time></trkpt><trkpt lat="44.40635794006523" lon="8.525504800333382"><ele>490.0</ele><time>2026-04-25T08:29:32Z</time></trkpt><trkpt lat="44.40643419684254" lon="8.525509372671246"><ele>490.0</ele><time>2026-04-25T08:29:33Z</time></trkpt><trkpt lat="44.4065192768851" lon="8.525530846726774"><ele>490.00000000000006</ele><time>2026-04-25T08:29:34Z</time></trkpt><trkpt lat="44.4066057668019" lon="8.525541222413432"><ele>490.0</ele><time>2026-04-25T08:29:35Z</time></trkpt><trkpt lat="44.40669475588679" lon="8.525453749809387"><ele>493.6</ele><time>2026-04-25T08:29:36Z</time></trkpt><trkpt lat="44.406791213704174" lon="8.525362620758553"><ele>497.2</ele><time>2026-04-25T08:29:36.999Z</time></trkpt><trkpt lat="44.40688601868421" lon="8.525274857036266"><ele>500.79999999999995</ele><time>2026-04-25T08:29:37.999Z</time></trkpt><trkpt lat="44.40697677935501" lon="8.525254626794917"><ele>504.4</ele><time>2026-04-25T08:29:38.999Z</time></trkpt><trkpt lat="44.40705449066576" lon="8.525250910074117"><ele>508.0</ele><time>2026-04-25T08:29:39.999Z</time></trkpt><trkpt lat="44.40715235168555" lon="8.525233290219289"><ele>512.8</ele><time>2026-04-25T08:29:40.999Z</time></trkpt><trkpt lat="44.40726709196686" lon="8.525211821162337"><ele>517.5999999999999</ele><time>2026-04-25T08:29:41.999Z</time></trkpt><trkpt lat="44.40737697540433" lon="8.525168317881793"><ele>522.4000000000001</ele><time>2026-04-25T08:29:42.999Z</time></trkpt><trkpt lat="44.40747044418649" lon="8.525156315652703"><ele>527.2</ele><time>2026-04-25T08:29:43.999Z</time></trkpt><trkpt lat="44.40754817283182" lon="8.525168066718376"><ele>532.0</ele><time>2026-04-25T08:29:44.999Z</time></trkpt><trkpt lat="44.40765121739649" lon="8.525097696866556"><ele>532.0</ele><time>2026-04-25T08:29:46.999Z</time></trkpt><trkpt lat="44.407690362843816" lon="8.525002657120028"><ele>532.0</ele><time>2026-04-25T08:29:47.999Z</time></trkpt><trkpt lat="44.40773232761391" lon="8.524907437470645"><ele>532.0</ele><time>2026-04-25T08:29:48.999Z</time></trkpt><trkpt lat="44.40778900627591" lon="8.524804380644081"><ele>532.0</ele><time>2026-04-25T08:29:49.999Z</time></trkpt><trkpt lat="44.407853771582566" lon="8.52469216672396"><ele>532.0</ele><time>2026-04-25T08:29:50.999Z</time></trkpt><trkpt lat="44.40790421704693" lon="8.524582131351984"><ele>532.0</ele><time>2026-04-25T08:29:51.999Z</time></trkpt><trkpt lat="44.407908227744734" lon="8.524455452976945"><ele>529.5</ele><time>2026-04-25T08:29:52.999Z</time></trkpt><trkpt lat="44.40791254823474" lon="8.524307489457074"><ele>527.0</ele><time>2026-04-25T08:29:53.999Z</time></trkpt><trkpt lat="44.4079278630283" lon="8.524138773716537"><ele>524.5</ele><time>2026-04-25T08:29:54.999Z</time></trkpt><trkpt lat="44.40791455004076" lon="8.523944513764738"><ele>522.0</ele><time>2026-04-25T08:29:55.999Z</time></trkpt><trkpt lat="44.40789006869244" lon="8.523762463260988"><ele>522.4</ele><time>2026-04-25T08:29:56.999Z</time></trkpt><trkpt lat="44.40786340361029" lon="8.523623430352718"><ele>522.8000000000001</ele><time>2026-04-25T08:29:57.999Z</time></trkpt><trkpt lat="44.40784387992825" lon="8.523516584523628"><ele>523.2</ele><time>2026-04-25T08:29:58.999Z</time></trkpt><trkpt lat="44.40786157163556" lon="8.523363344050793"><ele>523.6</ele><time>2026-04-25T08:30:00.999Z</time></trkpt><trkpt lat="44.40788009912369" lon="8.523238607285123"><ele>524.0</ele><time>2026-04-25T08:30:01.999Z</time></trkpt><trkpt lat="44.40787190382726" lon="8.523093236905414"><ele>524.0</ele><time>2026-04-25T08:30:02.999Z</time></trkpt><trkpt lat="44.407869347212795" lon="8.522954205424877"><ele>524.0</ele><time>2026-04-25T08:30:03.999Z</time></trkpt><trkpt lat="44.40787283629229" lon="8.522842878959088"><ele>524.0</ele><time>2026-04-25T08:30:04.999Z</time></trkpt><trkpt lat="44.40789167593545" lon="8.522741972331572"><ele>524.0</ele><time>2026-04-25T08:30:05.999Z</time></trkpt><trkpt lat="44.40792877526858" lon="8.522647085219951"><ele>524.0</ele><time>2026-04-25T08:30:06.999Z</time></trkpt><trkpt lat="44.407973730927836" lon="8.522558942631923"><ele>524.0</ele><time>2026-04-25T08:30:07.999Z</time></trkpt><trkpt lat="44.40801955702926" lon="8.52248036107951"><ele>530.8</ele><time>2026-04-25T08:30:08.999Z</time></trkpt><trkpt lat="44.40808040935946" lon="8.522415205983371"><ele>537.5999999999999</ele><time>2026-04-25T08:30:09.999Z</time></trkpt><trkpt lat="44.40816433133758" lon="8.522354738468723"><ele>544.4</ele><time>2026-04-25T08:30:10.999Z</time></trkpt><trkpt lat="44.40823984405642" lon="8.52227760926679"><ele>551.1999999999999</ele><time>2026-04-25T08:30:11.999Z</time></trkpt><trkpt lat="44.40831651135924" lon="8.522240280590829"><ele>558.0</ele><time>2026-04-25T08:30:12.999Z</time></trkpt><trkpt lat="44.40844087902189" lon="8.52223290749414"><ele>558.0</ele><time>2026-04-25T08:30:14.999Z</time></trkpt><trkpt lat="44.408525521723504" lon="8.522278076709071"><ele>558.0</ele><time>2026-04-25T08:30:15.999Z</time></trkpt><trkpt lat="44.40861805266797" lon="8.522299488717543"><ele>558.0</ele><time>2026-04-25T08:30:16.999Z</time></trkpt><trkpt lat="44.408696120840936" lon="8.522312095044791"><ele>558.0</ele><time>2026-04-25T08:30:17.999Z</time></trkpt><trkpt lat="44.40876075150034" lon="8.522295619735123"><ele>558.0</ele><time>2026-04-25T08:30:18.999Z</time></trkpt><trkpt lat="44.40882080572381" lon="8.52225602774471"><ele>558.0</ele><time>2026-04-25T08:30:19.999Z</time></trkpt><trkpt lat="44.408880429570154" lon="8.522203575596748"><ele>559.5</ele><time>2026-04-25T08:30:20.999Z</time></trkpt><trkpt lat="44.408932812118536" lon="8.522136234668915"><ele>561.0</ele><time>2026-04-25T08:30:21.999Z</time></trkpt><trkpt lat="44.40898076379198" lon="8.522074406910486"><ele>562.5</ele><time>2026-04-25T08:30:22.999Z</time></trkpt><trkpt lat="44.40906489399575" lon="8.52198887165612"><ele>564.0</ele><time>2026-04-25T08:30:24.999Z</time></trkpt><trkpt lat="44.40912626447696" lon="8.521912822039837"><ele>565.5</ele><time>2026-04-25T08:30:26.999Z</time></trkpt><trkpt lat="44.409191207858754" lon="8.52179243828704"><ele>567.0</ele><time>2026-04-25T08:30:28.999Z</time></trkpt><trkpt lat="44.40923372839448" lon="8.521658913946924"><ele>567.0</ele><time>2026-04-25T08:30:30.999Z</time></trkpt><trkpt lat="44.40925878367281" lon="8.521528829670277"><ele>567.0</ele><time>2026-04-25T08:30:32.999Z</time></trkpt><trkpt lat="44.4092940107705" lon="8.521369366512388"><ele>567.0</ele><time>2026-04-25T08:30:35Z</time></trkpt><trkpt lat="44.409299591429026" lon="8.521281407353914"><ele>567.0</ele><time>2026-04-25T08:30:36Z</time></trkpt><trkpt lat="44.40930806744235" lon="8.521120122008728"><ele>567.0</ele><time>2026-04-25T08:30:38Z</time></trkpt><trkpt lat="44.40934833929309" lon="8.520996445960872"><ele>565.8000000000001</ele><time>2026-04-25T08:30:40Z</time></trkpt><trkpt lat="44.40940952643452" lon="8.520967241807352"><ele>564.6</ele><time>2026-04-25T08:30:41Z</time></trkpt><trkpt lat="44.409500605593" lon="8.52090254097551"><ele>563.4000000000001</ele><time>2026-04-25T08:30:43Z</time></trkpt><trkpt lat="44.409526933674044" lon="8.520772401683448"><ele>562.2</ele><time>2026-04-25T08:30:45Z</time></trkpt><trkpt lat="44.40959214186129" lon="8.52062066179231"><ele>561.0</ele><time>2026-04-25T08:30:47Z</time></trkpt><trkpt lat="44.4096624132729" lon="8.520544924757228"><ele>564.0</ele><time>2026-04-25T08:30:48Z</time></trkpt><trkpt lat="44.409735533195295" lon="8.520458476475541"><ele>567.0</ele><time>2026-04-25T08:30:49Z</time></trkpt><trkpt lat="44.40980278862611" lon="8.520369524626615"><ele>570.0</ele><time>2026-04-25T08:30:50Z</time></trkpt><trkpt lat="44.4098721169081" lon="8.520304884394228"><ele>573.0</ele><time>2026-04-25T08:30:51Z</time></trkpt><trkpt lat="44.40995294194036" lon="8.520283073402076"><ele>576.0</ele><time>2026-04-25T08:30:52Z</time></trkpt><trkpt lat="44.410021832611385" lon="8.520208091960763"><ele>579.0</ele><time>2026-04-25T08:30:53Z</time></trkpt><trkpt lat="44.41008353493506" lon="8.520144882349495"><ele>579.0</ele><time>2026-04-25T08:30:54Z</time></trkpt><trkpt lat="44.41013932739158" lon="8.520074522843093"><ele>579.0</ele><time>2026-04-25T08:30:55Z</time></trkpt><trkpt lat="44.41019225852766" lon="8.51999733395611"><ele>579.0</ele><time>2026-04-25T08:30:56Z</time></trkpt><trkpt lat="44.41024622151633" lon="8.519907685030304"><ele>579.0</ele><time>2026-04-25T08:30:57Z</time></trkpt><trkpt lat="44.41030637832603" lon="8.519817702108506"><ele>579.0</ele><time>2026-04-25T08:30:58Z</time></trkpt><trkpt lat="44.41038466191749" lon="8.519732976216032"><ele>579.0</ele><time>2026-04-25T08:30:59Z</time></trkpt><trkpt lat="44.41048163483674" lon="8.519649677604653"><ele>582.25</ele><time>2026-04-25T08:31:00Z</time></trkpt><trkpt lat="44.41057308779928" lon="8.519544850770819"><ele>585.5</ele><time>2026-04-25T08:31:01Z</time></trkpt><trkpt lat="44.4106386356764" lon="8.519422018637293"><ele>588.75</ele><time>2026-04-25T08:31:02Z</time></trkpt><trkpt lat="44.41069569510224" lon="8.51926385021328"><ele>592.0</ele><time>2026-04-25T08:31:03Z</time></trkpt><trkpt lat="44.41073955486731" lon="8.51910621408629"><ele>592.0</ele><time>2026-04-25T08:31:04Z</time></trkpt><trkpt lat="44.41080204391857" lon="8.519019914744232"><ele>592.0</ele><time>2026-04-25T08:31:05Z</time></trkpt><trkpt lat="44.410844355118314" lon="8.518941748960176"><ele>592.0</ele><time>2026-04-25T08:31:06Z</time></trkpt><trkpt lat="44.410918238397926" lon="8.51888384911951"><ele>592.0</ele><time>2026-04-25T08:31:07Z</time></trkpt><trkpt lat="44.41099419964166" lon="8.518837260253243"><ele>592.0</ele><time>2026-04-25T08:31:08Z</time></trkpt><trkpt lat="44.41105780076209" lon="8.518819173568453"><ele>592.0</ele><time>2026-04-25T08:31:09Z</time></trkpt><trkpt lat="44.41117007647112" lon="8.518857017767937"><ele>592.0</ele><time>2026-04-25T08:31:11Z</time></trkpt><trkpt lat="44.41123562566217" lon="8.518899762221317"><ele>592.0</ele><time>2026-04-25T08:31:12Z</time></trkpt><trkpt lat="44.41131559836527" lon="8.518958513036408"><ele>592.0</ele><time>2026-04-25T08:31:13Z</time></trkpt><trkpt lat="44.41141426937094" lon="8.519033651305291"><ele>592.0</ele><time>2026-04-25T08:31:14Z</time></trkpt><trkpt lat="44.411523211321665" lon="8.519148143696807"><ele>592.0</ele><time>2026-04-25T08:31:15Z</time></trkpt><trkpt lat="44.411644840775146" lon="8.519298120770639"><ele>599.0</ele><time>2026-04-25T08:31:16Z</time></trkpt><trkpt lat="44.41176600360154" lon="8.51944271322397"><ele>606.0</ele><time>2026-04-25T08:31:17Z</time></trkpt><trkpt lat="44.41188821774963" lon="8.519573458712765"><ele>613.0</ele><time>2026-04-25T08:31:18Z</time></trkpt><trkpt lat="44.41200525942801" lon="8.519706205248895"><ele>616.25</ele><time>2026-04-25T08:31:19Z</time></trkpt><trkpt lat="44.41211077315687" lon="8.519852971297773"><ele>619.5</ele><time>2026-04-25T08:31:20Z</time></trkpt><trkpt lat="44.41220790425817" lon="8.519996110153318"><ele>622.75</ele><time>2026-04-25T08:31:21Z</time></trkpt><trkpt lat="44.4123039063659" lon="8.520129018174075"><ele>626.0</ele><time>2026-04-25T08:31:22Z</time></trkpt><trkpt lat="44.41240886068493" lon="8.520270863880766"><ele>630.75</ele><time>2026-04-25T08:31:23Z</time></trkpt><trkpt lat="44.41252302839451" lon="8.520415546793016"><ele>635.5</ele><time>2026-04-25T08:31:24Z</time></trkpt><trkpt lat="44.41262558575585" lon="8.520542769581358"><ele>640.25</ele><time>2026-04-25T08:31:25Z</time></trkpt><trkpt lat="44.412709176146954" lon="8.520641524411651"><ele>645.0</ele><time>2026-04-25T08:31:26Z</time></trkpt><trkpt lat="44.41277677257693" lon="8.520715439271045"><ele>645.0</ele><time>2026-04-25T08:31:27Z</time></trkpt><trkpt lat="44.41283785774834" lon="8.520767268776112"><ele>645.0</ele><time>2026-04-25T08:31:28Z</time></trkpt><trkpt lat="44.41290215284561" lon="8.520787186224585"><ele>645.0</ele><time>2026-04-25T08:31:29Z</time></trkpt><trkpt lat="44.4129693650523" lon="8.520761203785977"><ele>645.0</ele><time>2026-04-25T08:31:30Z</time></trkpt><trkpt lat="44.41302924680954" lon="8.520696954009344"><ele>645.0</ele><time>2026-04-25T08:31:31Z</time></trkpt><trkpt lat="44.413068810688735" lon="8.520605916976274"><ele>645.0</ele><time>2026-04-25T08:31:32Z</time></trkpt><trkpt lat="44.41307556300547" lon="8.520500152619991"><ele>645.0</ele><time>2026-04-25T08:31:33Z</time></trkpt><trkpt lat="44.41305633718674" lon="8.52037676738492"><ele>644.75</ele><time>2026-04-25T08:31:34Z</time></trkpt><trkpt lat="44.41301698594462" lon="8.520226285675879"><ele>644.5</ele><time>2026-04-25T08:31:35Z</time></trkpt><trkpt lat="44.41296157441698" lon="8.52005131753979"><ele>644.25</ele><time>2026-04-25T08:31:36Z</time></trkpt><trkpt lat="44.41292101670149" lon="8.519875066454548"><ele>644.0</ele><time>2026-04-25T08:31:37Z</time></trkpt><trkpt lat="44.412885024570436" lon="8.519723600949918"><ele>644.5</ele><time>2026-04-25T08:31:38Z</time></trkpt><trkpt lat="44.4128576945247" lon="8.519586587012396"><ele>645.0</ele><time>2026-04-25T08:31:39Z</time></trkpt><trkpt lat="44.41283439041545" lon="8.519475244902178"><ele>645.5</ele><time>2026-04-25T08:31:40Z</time></trkpt><trkpt lat="44.41288620191527" lon="8.519329591620846"><ele>646.0</ele><time>2026-04-25T08:31:42Z</time></trkpt><trkpt lat="44.41294848863811" lon="8.519289881104882"><ele>646.5</ele><time>2026-04-25T08:31:42.999Z</time></trkpt><trkpt lat="44.41301827623053" lon="8.519292300237165"><ele>647.0</ele><time>2026-04-25T08:31:43.999Z</time></trkpt><trkpt lat="44.413085997456726" lon="8.519339174021013"><ele>647.0</ele><time>2026-04-25T08:31:44.999Z</time></trkpt><trkpt lat="44.41313576061513" lon="8.519439630171618"><ele>647.0</ele><time>2026-04-25T08:31:45.999Z</time></trkpt><trkpt lat="44.413190909291465" lon="8.519561336050513"><ele>647.0</ele><time>2026-04-25T08:31:46.999Z</time></trkpt><trkpt lat="44.413273958911084" lon="8.519701639468407"><ele>647.0</ele><time>2026-04-25T08:31:47.999Z</time></trkpt><trkpt lat="44.413356693948344" lon="8.519892223501131"><ele>646.3333333333333</ele><time>2026-04-25T08:31:48.999Z</time></trkpt><trkpt lat="44.41345506379604" lon="8.520106812834854"><ele>645.6666666666666</ele><time>2026-04-25T08:31:49.999Z</time></trkpt><trkpt lat="44.413561760942635" lon="8.520319977338211"><ele>645.0</ele><time>2026-04-25T08:31:50.999Z</time></trkpt><trkpt lat="44.41367399263524" lon="8.520565697635748"><ele>647.3333333333334</ele><time>2026-04-25T08:31:51.999Z</time></trkpt><trkpt lat="44.413826017775314" lon="8.520791801645792"><ele>649.6666666666667</ele><time>2026-04-25T08:31:52.999Z</time></trkpt><trkpt lat="44.41395891347667" lon="8.521021685672233"><ele>652.0</ele><time>2026-04-25T08:31:53.999Z</time></trkpt><trkpt lat="44.41406925573694" lon="8.521211163183404"><ele>654.0</ele><time>2026-04-25T08:31:54.999Z</time></trkpt><trkpt lat="44.414165355530805" lon="8.521372695779185"><ele>656.0</ele><time>2026-04-25T08:31:55.999Z</time></trkpt><trkpt lat="44.414249114027534" lon="8.521524268648998"><ele>658.0</ele><time>2026-04-25T08:31:56.999Z</time></trkpt><trkpt lat="44.414316930912854" lon="8.52169185368751"><ele>660.0</ele><time>2026-04-25T08:31:57.999Z</time></trkpt><trkpt lat="44.41437186778542" lon="8.521895769963232"><ele>663.6666666666666</ele><time>2026-04-25T08:31:58.999Z</time></trkpt><trkpt lat="44.414409487714664" lon="8.522128649943214"><ele>667.3333333333333</ele><time>2026-04-25T08:31:59.999Z</time></trkpt><trkpt lat="44.414437751387005" lon="8.522390180099505"><ele>671.0</ele><time>2026-04-25T08:32:00.999Z</time></trkpt><trkpt lat="44.41446757909535" lon="8.522673454878122"><ele>673.6666666666666</ele><time>2026-04-25T08:32:01.999Z</time></trkpt><trkpt lat="44.41450031678585" lon="8.522958609078236"><ele>676.3333333333334</ele><time>2026-04-25T08:32:02.999Z</time></trkpt><trkpt lat="44.41453608892421" lon="8.523257020582209"><ele>679.0</ele><time>2026-04-25T08:32:03.999Z</time></trkpt><trkpt lat="44.41456940139012" lon="8.523553924937609"><ele>681.0</ele><time>2026-04-25T08:32:04.999Z</time></trkpt><trkpt lat="44.41459670012847" lon="8.52381615658602"><ele>683.0</ele><time>2026-04-25T08:32:05.999Z</time></trkpt><trkpt lat="44.41462421989844" lon="8.524054675091264"><ele>685.0</ele><time>2026-04-25T08:32:06.999Z</time></trkpt><trkpt lat="44.41465430128063" lon="8.524282376009753"><ele>684.75</ele><time>2026-04-25T08:32:07.999Z</time></trkpt><trkpt lat="44.41467689299602" lon="8.524488427334635"><ele>684.5</ele><time>2026-04-25T08:32:08.999Z</time></trkpt><trkpt lat="44.41469465698978" lon="8.524686532945728"><ele>684.25</ele><time>2026-04-25T08:32:09.999Z</time></trkpt><trkpt lat="44.41469801009475" lon="8.524877119460745"><ele>684.0</ele><time>2026-04-25T08:32:10.999Z</time></trkpt><trkpt lat="44.41469610658102" lon="8.525076915731832"><ele>685.0</ele><time>2026-04-25T08:32:11.999Z</time></trkpt><trkpt lat="44.41469460667485" lon="8.525283031168234"><ele>686.0</ele><time>2026-04-25T08:32:12.999Z</time></trkpt><trkpt lat="44.414687895834106" lon="8.525498380557288"><ele>687.0</ele><time>2026-04-25T08:32:13.999Z</time></trkpt><trkpt lat="44.414667216521245" lon="8.525729330686138"><ele>688.0</ele><time>2026-04-25T08:32:14.999Z</time></trkpt><trkpt lat="44.41463813198274" lon="8.525960078572231"><ele>689.0</ele><time>2026-04-25T08:32:15.999Z</time></trkpt><trkpt lat="44.41460679203274" lon="8.526179796902245"><ele>690.0</ele><time>2026-04-25T08:32:16.999Z</time></trkpt><trkpt lat="44.41457872483441" lon="8.526373109174994"><ele>692.75</ele><time>2026-04-25T08:32:17.999Z</time></trkpt><trkpt lat="44.414556912949806" lon="8.52654968821709"><ele>695.5</ele><time>2026-04-25T08:32:18.999Z</time></trkpt><trkpt lat="44.414536012168554" lon="8.526703424009474"><ele>698.25</ele><time>2026-04-25T08:32:19.999Z</time></trkpt><trkpt lat="44.41449630181205" lon="8.52684353103574"><ele>701.0</ele><time>2026-04-25T08:32:20.999Z</time></trkpt><trkpt lat="44.41443247032073" lon="8.526964379952071"><ele>706.25</ele><time>2026-04-25T08:32:21.999Z</time></trkpt><trkpt lat="44.41434307615969" lon="8.527061356976057"><ele>711.5</ele><time>2026-04-25T08:32:22.999Z</time></trkpt><trkpt lat="44.41423222472181" lon="8.52713368299379"><ele>716.75</ele><time>2026-04-25T08:32:23.999Z</time></trkpt><trkpt lat="44.41410979672888" lon="8.527178823637207"><ele>722.0</ele><time>2026-04-25T08:32:24.999Z</time></trkpt><trkpt lat="44.413992479067964" lon="8.52719432662226"><ele>722.0</ele><time>2026-04-25T08:32:25.999Z</time></trkpt><trkpt lat="44.41387603164682" lon="8.527166918852592"><ele>722.0</ele><time>2026-04-25T08:32:26.999Z</time></trkpt><trkpt lat="44.413752782398255" lon="8.527113619247446"><ele>722.0</ele><time>2026-04-25T08:32:27.999Z</time></trkpt><trkpt lat="44.413618019789666" lon="8.527060852653976"><ele>722.0</ele><time>2026-04-25T08:32:28.999Z</time></trkpt><trkpt lat="44.41347411488382" lon="8.52699669486934"><ele>721.3333333333333</ele><time>2026-04-25T08:32:29.999Z</time></trkpt><trkpt lat="44.41331069849788" lon="8.526943476163337"><ele>720.6666666666666</ele><time>2026-04-25T08:32:30.999Z</time></trkpt><trkpt lat="44.41312471440534" lon="8.526908176052045"><ele>720.0</ele><time>2026-04-25T08:32:31.999Z</time></trkpt><trkpt lat="44.41292321543664" lon="8.52690779348487"><ele>720.0</ele><time>2026-04-25T08:32:32.999Z</time></trkpt><trkpt lat="44.41271282125093" lon="8.526932544031558"><ele>720.0</ele><time>2026-04-25T08:32:33.999Z</time></trkpt><trkpt lat="44.41250049869829" lon="8.526960369578301"><ele>720.0</ele><time>2026-04-25T08:32:34.999Z</time></trkpt><trkpt lat="44.41228026277159" lon="8.527004712892923"><ele>720.0</ele><time>2026-04-25T08:32:35.999Z</time></trkpt><trkpt lat="44.41216986160565" lon="8.527040921762786"><ele>720.0</ele><time>2026-04-25T08:32:37.999Z</time></trkpt><trkpt lat="44.412045860500335" lon="8.52709205331805"><ele>720.0</ele><time>2026-04-25T08:32:39Z</time></trkpt><trkpt lat="44.411927964679194" lon="8.527168456813374"><ele>720.0</ele><time>2026-04-25T08:32:40Z</time></trkpt><trkpt lat="44.4118029501737" lon="8.52728012140352"><ele>722.5</ele><time>2026-04-25T08:32:41Z</time></trkpt><trkpt lat="44.41169614048028" lon="8.527414029566534"><ele>725.0</ele><time>2026-04-25T08:32:42Z</time></trkpt><trkpt lat="44.41161044802096" lon="8.527559123995156"><ele>727.5</ele><time>2026-04-25T08:32:43Z</time></trkpt><trkpt lat="44.411551890515405" lon="8.527718919413362"><ele>730.0</ele><time>2026-04-25T08:32:44Z</time></trkpt><trkpt lat="44.411518363019084" lon="8.527906616550572"><ele>732.25</ele><time>2026-04-25T08:32:45Z</time></trkpt><trkpt lat="44.41150225695686" lon="8.528107618051447"><ele>734.5</ele><time>2026-04-25T08:32:46Z</time></trkpt><trkpt lat="44.41150149027146" lon="8.528310323908874"><ele>736.75</ele><time>2026-04-25T08:32:47Z</time></trkpt><trkpt lat="44.41152942579336" lon="8.528500948929608"><ele>739.0</ele><time>2026-04-25T08:32:48Z</time></trkpt><trkpt lat="44.41158153987142" lon="8.528674642673161"><ele>741.5</ele><time>2026-04-25T08:32:49Z</time></trkpt><trkpt lat="44.411663428813995" lon="8.528850657279488"><ele>744.0</ele><time>2026-04-25T08:32:50Z</time></trkpt><trkpt lat="44.41176467090347" lon="8.529016781056692"><ele>746.5</ele><time>2026-04-25T08:32:51Z</time></trkpt><trkpt lat="44.411879088581145" lon="8.529119746245286"><ele>749.0</ele><time>2026-04-25T08:32:52Z</time></trkpt><trkpt lat="44.41199728847437" lon="8.529213357324098"><ele>749.0</ele><time>2026-04-25T08:32:53Z</time></trkpt><trkpt lat="44.4121169665868" lon="8.529302715639393"><ele>749.0</ele><time>2026-04-25T08:32:54Z</time></trkpt><trkpt lat="44.41225127637282" lon="8.529345724825374"><ele>749.0</ele><time>2026-04-25T08:32:55Z</time></trkpt><trkpt lat="44.41238392820765" lon="8.529364746285838"><ele>749.0</ele><time>2026-04-25T08:32:56Z</time></trkpt><trkpt lat="44.41252222655419" lon="8.529338498002744"><ele>749.3333333333333</ele><time>2026-04-25T08:32:57Z</time></trkpt><trkpt lat="44.41267240820967" lon="8.52928536981125"><ele>749.6666666666666</ele><time>2026-04-25T08:32:58Z</time></trkpt><trkpt lat="44.412834700476154" lon="8.529196123555321"><ele>750.0</ele><time>2026-04-25T08:32:59Z</time></trkpt><trkpt lat="44.41299797450045" lon="8.529132003933366"><ele>756.0</ele><time>2026-04-25T08:33:00Z</time></trkpt><trkpt lat="44.41316865717939" lon="8.529065845931004"><ele>762.0</ele><time>2026-04-25T08:33:01Z</time></trkpt><trkpt lat="44.41334038377539" lon="8.52899552857486"><ele>768.0</ele><time>2026-04-25T08:33:02Z</time></trkpt><trkpt lat="44.41351503386601" lon="8.52890784675491"><ele>768.0</ele><time>2026-04-25T08:33:03Z</time></trkpt><trkpt lat="44.41368076823467" lon="8.528814973357296"><ele>768.0</ele><time>2026-04-25T08:33:04Z</time></trkpt><trkpt lat="44.41382527396718" lon="8.528734741946627"><ele>768.0</ele><time>2026-04-25T08:33:05Z</time></trkpt><trkpt lat="44.41396023905619" lon="8.528675287791527"><ele>762.3333333333334</ele><time>2026-04-25T08:33:06Z</time></trkpt><trkpt lat="44.41410534546859" lon="8.5286316205928"><ele>756.6666666666667</ele><time>2026-04-25T08:33:07Z</time></trkpt><trkpt lat="44.414263450643524" lon="8.528611196756662"><ele>751.0</ele><time>2026-04-25T08:33:08Z</time></trkpt><trkpt lat="44.414423911036025" lon="8.528596879857789"><ele>751.0</ele><time>2026-04-25T08:33:09Z</time></trkpt><trkpt lat="44.4145754667717" lon="8.528575754357895"><ele>751.0</ele><time>2026-04-25T08:33:10Z</time></trkpt><trkpt lat="44.41471313997127" lon="8.52856594339467"><ele>751.0</ele><time>2026-04-25T08:33:11Z</time></trkpt><trkpt lat="44.41485428400658" lon="8.528601369058489"><ele>751.0</ele><time>2026-04-25T08:33:12Z</time></trkpt><trkpt lat="44.415005413312485" lon="8.52860355813575"><ele>753.5</ele><time>2026-04-25T08:33:13Z</time></trkpt><trkpt lat="44.41515074719719" lon="8.528603734025435"><ele>756.0</ele><time>2026-04-25T08:33:14Z</time></trkpt><trkpt lat="44.415278880374544" lon="8.528576947557351"><ele>758.5</ele><time>2026-04-25T08:33:15Z</time></trkpt><trkpt lat="44.415392220024515" lon="8.528541184078248"><ele>761.0</ele><time>2026-04-25T08:33:16Z</time></trkpt><trkpt lat="44.41549257642361" lon="8.52850766526321"><ele>762.4</ele><time>2026-04-25T08:33:17Z</time></trkpt><trkpt lat="44.41558822364586" lon="8.528484724858698"><ele>763.8</ele><time>2026-04-25T08:33:18Z</time></trkpt><trkpt lat="44.41568377586918" lon="8.528496550688878"><ele>765.1999999999999</ele><time>2026-04-25T08:33:19Z</time></trkpt><trkpt lat="44.41577735326212" lon="8.52848757370103"><ele>766.5999999999999</ele><time>2026-04-25T08:33:20Z</time></trkpt><trkpt lat="44.415863034624266" lon="8.528573033706625"><ele>768.0</ele><time>2026-04-25T08:33:21Z</time></trkpt><trkpt lat="44.41594703040106" lon="8.528677917314816"><ele>772.5</ele><time>2026-04-25T08:33:22Z</time></trkpt><trkpt lat="44.41602896330671" lon="8.52880813114851"><ele>777.0</ele><time>2026-04-25T08:33:23Z</time></trkpt><trkpt lat="44.41612592671263" lon="8.52894190236999"><ele>781.5</ele><time>2026-04-25T08:33:24Z</time></trkpt><trkpt lat="44.41621965299755" lon="8.529100844537995"><ele>786.0</ele><time>2026-04-25T08:33:25Z</time></trkpt><trkpt lat="44.41632293570494" lon="8.529250252102726"><ele>786.0</ele><time>2026-04-25T08:33:26Z</time></trkpt><trkpt lat="44.41643422073343" lon="8.52938682841501"><ele>786.0</ele><time>2026-04-25T08:33:27Z</time></trkpt><trkpt lat="44.41654483344144" lon="8.52951312926875"><ele>786.0</ele><time>2026-04-25T08:33:28Z</time></trkpt><trkpt lat="44.41664751171776" lon="8.52963397236702"><ele>786.0</ele><time>2026-04-25T08:33:29Z</time></trkpt><trkpt lat="44.416739493491136" lon="8.529735512563487"><ele>790.4</ele><time>2026-04-25T08:33:30Z</time></trkpt><trkpt lat="44.41682714273656" lon="8.529817155025311"><ele>794.8</ele><time>2026-04-25T08:33:31Z</time></trkpt><trkpt lat="44.416925837894965" lon="8.529871908589396"><ele>799.1999999999999</ele><time>2026-04-25T08:33:32Z</time></trkpt><trkpt lat="44.4170369520623" lon="8.529893465229742"><ele>803.5999999999999</ele><time>2026-04-25T08:33:33Z</time></trkpt><trkpt lat="44.41714833779464" lon="8.52988636194983"><ele>808.0</ele><time>2026-04-25T08:33:34Z</time></trkpt><trkpt lat="44.41725521931651" lon="8.529857300639708"><ele>807.9999999999999</ele><time>2026-04-25T08:33:35Z</time></trkpt><trkpt lat="44.41735547810401" lon="8.529822500695524"><ele>808.0</ele><time>2026-04-25T08:33:36Z</time></trkpt><trkpt lat="44.417434952198" lon="8.529800854121994"><ele>808.0</ele><time>2026-04-25T08:33:37Z</time></trkpt><trkpt lat="44.41750603925243" lon="8.529796554662346"><ele>808.0</ele><time>2026-04-25T08:33:38Z</time></trkpt><trkpt lat="44.41757992819074" lon="8.529807518331108"><ele>807.9999999999999</ele><time>2026-04-25T08:33:39Z</time></trkpt><trkpt lat="44.417664936432026" lon="8.52984251590469"><ele>808.0</ele><time>2026-04-25T08:33:40Z</time></trkpt><trkpt lat="44.417747183760675" lon="8.529919520255385"><ele>808.0</ele><time>2026-04-25T08:33:41Z</time></trkpt><trkpt lat="44.41780332931589" lon="8.530045985893835"><ele>808.0</ele><time>2026-04-25T08:33:42Z</time></trkpt><trkpt lat="44.41785396843712" lon="8.530170786866162"><ele>808.0</ele><time>2026-04-25T08:33:43Z</time></trkpt><trkpt lat="44.41792369374581" lon="8.53030109748678"><ele>808.0</ele><time>2026-04-25T08:33:44Z</time></trkpt><trkpt lat="44.41799368472144" lon="8.53044349534473"><ele>808.0</ele><time>2026-04-25T08:33:45Z</time></trkpt><trkpt lat="44.41808704560634" lon="8.53056454964344"><ele>813.0</ele><time>2026-04-25T08:33:46Z</time></trkpt><trkpt lat="44.418193358191644" lon="8.530653175375724"><ele>818.0</ele><time>2026-04-25T08:33:47Z</time></trkpt><trkpt lat="44.41830745375404" lon="8.530718581923411"><ele>823.0</ele><time>2026-04-25T08:33:48Z</time></trkpt><trkpt lat="44.418424177071856" lon="8.530759637256978"><ele>828.0</ele><time>2026-04-25T08:33:49Z</time></trkpt><trkpt lat="44.41852262771728" lon="8.530772037010449"><ele>828.0</ele><time>2026-04-25T08:33:50Z</time></trkpt><trkpt lat="44.418606127026045" lon="8.530762805689013"><ele>828.0</ele><time>2026-04-25T08:33:51Z</time></trkpt><trkpt lat="44.41868961956286" lon="8.530725381262915"><ele>828.0</ele><time>2026-04-25T08:33:52Z</time></trkpt><trkpt lat="44.41876503471492" lon="8.530654354270407"><ele>828.0</ele><time>2026-04-25T08:33:53Z</time></trkpt><trkpt lat="44.41883065309471" lon="8.530555323717822"><ele>828.0</ele><time>2026-04-25T08:33:53.999Z</time></trkpt><trkpt lat="44.418883970620584" lon="8.530420147623285"><ele>828.5</ele><time>2026-04-25T08:33:54.999Z</time></trkpt><trkpt lat="44.418932338016354" lon="8.530262686541429"><ele>829.0</ele><time>2026-04-25T08:33:55.999Z</time></trkpt><trkpt lat="44.41898450586189" lon="8.530089465224158"><ele>829.5</ele><time>2026-04-25T08:33:56.999Z</time></trkpt><trkpt lat="44.419035678435165" lon="8.529913887847338"><ele>830.0</ele><time>2026-04-25T08:33:57.999Z</time></trkpt><trkpt lat="44.419089984405325" lon="8.529773729385148"><ele>830.0</ele><time>2026-04-25T08:33:58.999Z</time></trkpt><trkpt lat="44.41914765762663" lon="8.529657892475761"><ele>830.0</ele><time>2026-04-25T08:33:59.999Z</time></trkpt><trkpt lat="44.41923040416434" lon="8.529556571181162"><ele>830.0</ele><time>2026-04-25T08:34:00.999Z</time></trkpt><trkpt lat="44.419339984311975" lon="8.529515107287915"><ele>830.0</ele><time>2026-04-25T08:34:01.999Z</time></trkpt><trkpt lat="44.41944447222268" lon="8.529448566448927"><ele>830.0</ele><time>2026-04-25T08:34:02.999Z</time></trkpt><trkpt lat="44.41956305692037" lon="8.529416078833588"><ele>833.75</ele><time>2026-04-25T08:34:03.999Z</time></trkpt><trkpt lat="44.41967829154409" lon="8.52935315082576"><ele>837.5</ele><time>2026-04-25T08:34:04.999Z</time></trkpt><trkpt lat="44.41977888014119" lon="8.52925380560617"><ele>841.25</ele><time>2026-04-25T08:34:05.999Z</time></trkpt><trkpt lat="44.41986356259611" lon="8.529120575204239"><ele>845.0</ele><time>2026-04-25T08:34:06.999Z</time></trkpt><trkpt lat="44.41994132046047" lon="8.528967328459045"><ele>845.0</ele><time>2026-04-25T08:34:07.999Z</time></trkpt><trkpt lat="44.42001994331059" lon="8.52878569515828"><ele>845.0</ele><time>2026-04-25T08:34:08.999Z</time></trkpt><trkpt lat="44.42010012851619" lon="8.528583727809025"><ele>845.0</ele><time>2026-04-25T08:34:09.999Z</time></trkpt><trkpt lat="44.420179112065384" lon="8.528375807360963"><ele>844.0</ele><time>2026-04-25T08:34:10.999Z</time></trkpt><trkpt lat="44.42023653073462" lon="8.528196447451279"><ele>843.0</ele><time>2026-04-25T08:34:11.999Z</time></trkpt><trkpt lat="44.420288090270994" lon="8.528051613083369"><ele>842.0</ele><time>2026-04-25T08:34:12.999Z</time></trkpt><trkpt lat="44.420348213104845" lon="8.52793525137014"><ele>841.0</ele><time>2026-04-25T08:34:13.999Z</time></trkpt><trkpt lat="44.420422789714436" lon="8.527851663834094"><ele>844.25</ele><time>2026-04-25T08:34:14.999Z</time></trkpt><trkpt lat="44.420514181467844" lon="8.527777618656726"><ele>847.5</ele><time>2026-04-25T08:34:15.999Z</time></trkpt><trkpt lat="44.42062470847897" lon="8.527720098018172"><ele>850.75</ele><time>2026-04-25T08:34:16.999Z</time></trkpt><trkpt lat="44.420745153463734" lon="8.527662539316156"><ele>854.0</ele><time>2026-04-25T08:34:17.999Z</time></trkpt><trkpt lat="44.42086728884238" lon="8.527603522513914"><ele>854.0</ele><time>2026-04-25T08:34:18.999Z</time></trkpt><trkpt lat="44.42098861228159" lon="8.527533950829998"><ele>854.0</ele><time>2026-04-25T08:34:19.999Z</time></trkpt><trkpt lat="44.42110672967008" lon="8.527432218020524"><ele>854.0</ele><time>2026-04-25T08:34:20.999Z</time></trkpt><trkpt lat="44.42121561434465" lon="8.527295067530954"><ele>854.0</ele><time>2026-04-25T08:34:21.999Z</time></trkpt><trkpt lat="44.421307269808544" lon="8.527156954705427"><ele>857.4000000000001</ele><time>2026-04-25T08:34:22.999Z</time></trkpt><trkpt lat="44.4213845240146" lon="8.52703997192331"><ele>860.8000000000001</ele><time>2026-04-25T08:34:23.999Z</time></trkpt><trkpt lat="44.42146975129637" lon="8.526959392624798"><ele>864.1999999999999</ele><time>2026-04-25T08:34:24.999Z</time></trkpt><trkpt lat="44.42156210781916" lon="8.526909280402357"><ele>867.5999999999999</ele><time>2026-04-25T08:34:25.999Z</time></trkpt><trkpt lat="44.42164779963111" lon="8.526906952999342"><ele>871.0</ele><time>2026-04-25T08:34:26.999Z</time></trkpt><trkpt lat="44.42172790982034" lon="8.526945035847868"><ele>871.0</ele><time>2026-04-25T08:34:27.999Z</time></trkpt><trkpt lat="44.42179911574075" lon="8.527019786509802"><ele>870.9999999999999</ele><time>2026-04-25T08:34:28.999Z</time></trkpt><trkpt lat="44.421852419089696" lon="8.527121533922061"><ele>870.9999999999999</ele><time>2026-04-25T08:34:29.999Z</time></trkpt><trkpt lat="44.421875406905826" lon="8.527247186158796"><ele>871.0</ele><time>2026-04-25T08:34:30.999Z</time></trkpt><trkpt lat="44.421872443983155" lon="8.527379982912498"><ele>871.0</ele><time>2026-04-25T08:34:31.999Z</time></trkpt><trkpt lat="44.42183827823734" lon="8.527497349282015"><ele>871.4</ele><time>2026-04-25T08:34:32.999Z</time></trkpt><trkpt lat="44.42175224249114" lon="8.527557916153524"><ele>871.8</ele><time>2026-04-25T08:34:33.999Z</time></trkpt><trkpt lat="44.42167055677342" lon="8.527621637822522"><ele>872.1999999999999</ele><time>2026-04-25T08:34:34.999Z</time></trkpt><trkpt lat="44.421573764046215" lon="8.52767847482309"><ele>872.5999999999999</ele><time>2026-04-25T08:34:35.999Z</time></trkpt><trkpt lat="44.42148101923408" lon="8.527765579503038"><ele>873.0</ele><time>2026-04-25T08:34:36.999Z</time></trkpt><trkpt lat="44.42140767894745" lon="8.527828942932913"><ele>874.4285714285713</ele><time>2026-04-25T08:34:37.999Z</time></trkpt><trkpt lat="44.4213710592325" lon="8.527905533506019"><ele>875.8571428571429</ele><time>2026-04-25T08:34:38.999Z</time></trkpt><trkpt lat="44.42136342164068" lon="8.528000213914328"><ele>877.2857142857142</ele><time>2026-04-25T08:34:39.999Z</time></trkpt><trkpt lat="44.421388140010876" lon="8.528095141183478"><ele>878.7142857142857</ele><time>2026-04-25T08:34:40.999Z</time></trkpt><trkpt lat="44.42143899878984" lon="8.528159239948035"><ele>880.1428571428571</ele><time>2026-04-25T08:34:41.999Z</time></trkpt><trkpt lat="44.42150105710532" lon="8.528193747814694"><ele>881.5714285714286</ele><time>2026-04-25T08:34:42.999Z</time></trkpt><trkpt lat="44.42158040219689" lon="8.528190379943952"><ele>883.0</ele><time>2026-04-25T08:34:43.999Z</time></trkpt><trkpt lat="44.421675513919496" lon="8.528157818314654"><ele>883.0</ele><time>2026-04-25T08:34:45Z</time></trkpt><trkpt lat="44.421789635507494" lon="8.528107184997104"><ele>883.0</ele><time>2026-04-25T08:34:46Z</time></trkpt><trkpt lat="44.421906458337965" lon="8.528080983515279"><ele>883.0</ele><time>2026-04-25T08:34:47Z</time></trkpt><trkpt lat="44.42200279806286" lon="8.528079842800915"><ele>883.0</ele><time>2026-04-25T08:34:48Z</time></trkpt><trkpt lat="44.42207884392408" lon="8.528106228286294"><ele>883.0</ele><time>2026-04-25T08:34:49Z</time></trkpt><trkpt lat="44.4221387919723" lon="8.528156416272232"><ele>883.0</ele><time>2026-04-25T08:34:50Z</time></trkpt><trkpt lat="44.42218973107809" lon="8.528232424521251"><ele>883.0</ele><time>2026-04-25T08:34:51Z</time></trkpt><trkpt lat="44.42221961450337" lon="8.528317374955838"><ele>883.0</ele><time>2026-04-25T08:34:52Z</time></trkpt><trkpt lat="44.42219615725384" lon="8.528417742469191"><ele>883.0</ele><time>2026-04-25T08:34:54Z</time></trkpt><trkpt lat="44.42213051147343" lon="8.528416179348044"><ele>883.0</ele><time>2026-04-25T08:34:57Z</time></trkpt><trkpt lat="44.422060562946456" lon="8.528411298584471"><ele>883.0</ele><time>2026-04-25T08:34:59Z</time></trkpt><trkpt lat="44.42200584206879" lon="8.528456221325392"><ele>883.0</ele><time>2026-04-25T08:35:00Z</time></trkpt><trkpt lat="44.42194513589639" lon="8.528502707160005"><ele>882.9999999999999</ele><time>2026-04-25T08:35:01Z</time></trkpt><trkpt lat="44.421886549264414" lon="8.52854980680782"><ele>883.0</ele><time>2026-04-25T08:35:02Z</time></trkpt><trkpt lat="44.42187468436444" lon="8.528706303881513"><ele>883.0</ele><time>2026-04-25T08:35:04Z</time></trkpt><trkpt lat="44.42188011137772" lon="8.528851456679451"><ele>883.0</ele><time>2026-04-25T08:35:06Z</time></trkpt><trkpt lat="44.421888695525425" lon="8.528955987860735"><ele>882.9999999999999</ele><time>2026-04-25T08:35:07Z</time></trkpt><trkpt lat="44.42189781519348" lon="8.529065717363252"><ele>883.0</ele><time>2026-04-25T08:35:08Z</time></trkpt><trkpt lat="44.42188923894234" lon="8.529189135869764"><ele>884.4</ele><time>2026-04-25T08:35:09Z</time></trkpt><trkpt lat="44.42183925123855" lon="8.529301369277599"><ele>885.8</ele><time>2026-04-25T08:35:10Z</time></trkpt><trkpt lat="44.42179183426769" lon="8.529416864965825"><ele>887.2</ele><time>2026-04-25T08:35:11Z</time></trkpt><trkpt lat="44.42173819041943" lon="8.529558756209019"><ele>888.6</ele><time>2026-04-25T08:35:12Z</time></trkpt><trkpt lat="44.42167203609205" lon="8.529711142951278"><ele>890.0</ele><time>2026-04-25T08:35:13Z</time></trkpt><trkpt lat="44.421604091707934" lon="8.52984069415048"><ele>892.4</ele><time>2026-04-25T08:35:14Z</time></trkpt><trkpt lat="44.42154485359071" lon="8.529975782292695"><ele>894.8</ele><time>2026-04-25T08:35:15Z</time></trkpt><trkpt lat="44.42148122125714" lon="8.530116999922118"><ele>897.2</ele><time>2026-04-25T08:35:16Z</time></trkpt><trkpt lat="44.42142633555971" lon="8.530240788021723"><ele>899.6</ele><time>2026-04-25T08:35:17Z</time></trkpt><trkpt lat="44.4213901927119" lon="8.530349548934504"><ele>902.0</ele><time>2026-04-25T08:35:18Z</time></trkpt><trkpt lat="44.42136225137065" lon="8.530439387502021"><ele>903.8</ele><time>2026-04-25T08:35:19Z</time></trkpt><trkpt lat="44.42137115469574" lon="8.530593307670296"><ele>905.6</ele><time>2026-04-25T08:35:21Z</time></trkpt><trkpt lat="44.42147963349744" lon="8.530654541563013"><ele>907.3999999999999</ele><time>2026-04-25T08:35:23Z</time></trkpt><trkpt lat="44.42153964594005" lon="8.530613165054985"><ele>909.1999999999999</ele><time>2026-04-25T08:35:24Z</time></trkpt><trkpt lat="44.421652671313545" lon="8.53050124768449"><ele>911.0</ele><time>2026-04-25T08:35:26Z</time></trkpt><trkpt lat="44.42171886692623" lon="8.530482255793963"><ele>911.0</ele><time>2026-04-25T08:35:27Z</time></trkpt><trkpt lat="44.4218189908234" lon="8.530514953205877"><ele>910.9999999999999</ele><time>2026-04-25T08:35:29Z</time></trkpt><trkpt lat="44.421877711884655" lon="8.530631343523893"><ele>910.9999999999999</ele><time>2026-04-25T08:35:31Z</time></trkpt><trkpt lat="44.42189763294721" lon="8.530733198315447"><ele>911.0</ele><time>2026-04-25T08:35:32Z</time></trkpt><trkpt lat="44.42192952085298" lon="8.530845239998346"><ele>911.0</ele><time>2026-04-25T08:35:33Z</time></trkpt><trkpt lat="44.4219588840509" lon="8.530986845349425"><ele>911.0</ele><time>2026-04-25T08:35:34Z</time></trkpt><trkpt lat="44.422017450719984" lon="8.531109435250237"><ele>910.9999999999999</ele><time>2026-04-25T08:35:35Z</time></trkpt><trkpt lat="44.42208723383096" lon="8.531185472258105"><ele>910.9999999999999</ele><time>2026-04-25T08:35:36Z</time></trkpt><trkpt lat="44.422169168639144" lon="8.531279947119895"><ele>911.0</ele><time>2026-04-25T08:35:37Z</time></trkpt><trkpt lat="44.42225237903714" lon="8.531381801634671"><ele>911.0</ele><time>2026-04-25T08:35:38Z</time></trkpt><trkpt lat="44.422341995891415" lon="8.531515010564048"><ele>913.8</ele><time>2026-04-25T08:35:39Z</time></trkpt><trkpt lat="44.422410453046645" lon="8.53162572757913"><ele>916.5999999999999</ele><time>2026-04-25T08:35:40Z</time></trkpt><trkpt lat="44.42246160733565" lon="8.531730183394632"><ele>919.4</ele><time>2026-04-25T08:35:41Z</time></trkpt><trkpt lat="44.42252684115075" lon="8.531837515604781"><ele>922.2</ele><time>2026-04-25T08:35:42Z</time></trkpt><trkpt lat="44.42258495470053" lon="8.531928695330707"><ele>925.0</ele><time>2026-04-25T08:35:43Z</time></trkpt><trkpt lat="44.4226382349613" lon="8.532011740046954"><ele>926.4999999999999</ele><time>2026-04-25T08:35:44Z</time></trkpt><trkpt lat="44.42268353503753" lon="8.532092546583678"><ele>928.0</ele><time>2026-04-25T08:35:45Z</time></trkpt><trkpt lat="44.4226679619422" lon="8.532240078814723"><ele>929.5</ele><time>2026-04-25T08:35:47Z</time></trkpt><trkpt lat="44.42257110236721" lon="8.532284007346435"><ele>931.0</ele><time>2026-04-25T08:35:49Z</time></trkpt><trkpt lat="44.42250352672298" lon="8.532270340386003"><ele>932.4999999999999</ele><time>2026-04-25T08:35:50Z</time></trkpt><trkpt lat="44.42240593432183" lon="8.53225990721522"><ele>934.0</ele><time>2026-04-25T08:35:51Z</time></trkpt><trkpt lat="44.422297154963005" lon="8.532244292111908"><ele>933.9999999999999</ele><time>2026-04-25T08:35:52Z</time></trkpt><trkpt lat="44.42219590043392" lon="8.532249227975413"><ele>934.0</ele><time>2026-04-25T08:35:53Z</time></trkpt><trkpt lat="44.42211496221207" lon="8.53230529208141"><ele>934.0</ele><time>2026-04-25T08:35:54Z</time></trkpt><trkpt lat="44.422027085340375" lon="8.53234351705914"><ele>934.0</ele><time>2026-04-25T08:35:55Z</time></trkpt><trkpt lat="44.42196684904655" lon="8.532400459602478"><ele>933.9999999999999</ele><time>2026-04-25T08:35:56Z</time></trkpt><trkpt lat="44.42192086649661" lon="8.532474771917727"><ele>934.0</ele><time>2026-04-25T08:35:57Z</time></trkpt><trkpt lat="44.42190575462045" lon="8.53257565013146"><ele>932.4999999999999</ele><time>2026-04-25T08:35:58Z</time></trkpt><trkpt lat="44.42189199108948" lon="8.532687384588227"><ele>931.0</ele><time>2026-04-25T08:35:58.999Z</time></trkpt><trkpt lat="44.42188701500784" lon="8.532826849460402"><ele>929.5</ele><time>2026-04-25T08:35:59.999Z</time></trkpt><trkpt lat="44.42188083194076" lon="8.532974791597171"><ele>928.0</ele><time>2026-04-25T08:36:00.999Z</time></trkpt><trkpt lat="44.421880900905556" lon="8.533094954664675"><ele>926.4999999999999</ele><time>2026-04-25T08:36:01.999Z</time></trkpt><trkpt lat="44.42188933338099" lon="8.533191686692215"><ele>925.0</ele><time>2026-04-25T08:36:02.999Z</time></trkpt><trkpt lat="44.421917316020746" lon="8.533275870021448"><ele>925.0</ele><time>2026-04-25T08:36:03.999Z</time></trkpt><trkpt lat="44.42196053535173" lon="8.533353471992191"><ele>925.0</ele><time>2026-04-25T08:36:04.999Z</time></trkpt><trkpt lat="44.42201451148036" lon="8.533440291147905"><ele>925.0</ele><time>2026-04-25T08:36:05.999Z</time></trkpt><trkpt lat="44.42206839022949" lon="8.53354341943636"><ele>925.0</ele><time>2026-04-25T08:36:06.999Z</time></trkpt><trkpt lat="44.42213153705821" lon="8.533654668743775"><ele>925.0</ele><time>2026-04-25T08:36:07.999Z</time></trkpt><trkpt lat="44.4221918567339" lon="8.533775989232415"><ele>929.1666666666666</ele><time>2026-04-25T08:36:08.999Z</time></trkpt><trkpt lat="44.422246970114614" lon="8.533897246972307"><ele>933.3333333333333</ele><time>2026-04-25T08:36:09.999Z</time></trkpt><trkpt lat="44.422259241207755" lon="8.534011106131707"><ele>937.5</ele><time>2026-04-25T08:36:10.999Z</time></trkpt><trkpt lat="44.42225690872485" lon="8.534104592630472"><ele>941.6666666666667</ele><time>2026-04-25T08:36:11.999Z</time></trkpt><trkpt lat="44.42224778182263" lon="8.534202736989357"><ele>945.8333333333334</ele><time>2026-04-25T08:36:12.999Z</time></trkpt><trkpt lat="44.42222744320888" lon="8.534321328355674"><ele>950.0</ele><time>2026-04-25T08:36:13.999Z</time></trkpt><trkpt lat="44.42221773444554" lon="8.534461169568981"><ele>951.0000000000001</ele><time>2026-04-25T08:36:14.999Z</time></trkpt><trkpt lat="44.42219680051495" lon="8.534572678924835"><ele>952.0</ele><time>2026-04-25T08:36:15.999Z</time></trkpt><trkpt lat="44.42220071945024" lon="8.534660932911631"><ele>953.0</ele><time>2026-04-25T08:36:16.999Z</time></trkpt><trkpt lat="44.422232523640005" lon="8.534758485408535"><ele>954.0</ele><time>2026-04-25T08:36:17.999Z</time></trkpt><trkpt lat="44.42228176453784" lon="8.534863893535801"><ele>955.0000000000001</ele><time>2026-04-25T08:36:18.999Z</time></trkpt><trkpt lat="44.42234772245032" lon="8.534995364523763"><ele>956.0</ele><time>2026-04-25T08:36:19.999Z</time></trkpt><trkpt lat="44.42241772049776" lon="8.535143132511747"><ele>956.0</ele><time>2026-04-25T08:36:20.999Z</time></trkpt><trkpt lat="44.42249099919641" lon="8.535296653208974"><ele>955.9999999999999</ele><time>2026-04-25T08:36:21.999Z</time></trkpt><trkpt lat="44.42255362071679" lon="8.5354373544969"><ele>955.9999999999999</ele><time>2026-04-25T08:36:22.999Z</time></trkpt><trkpt lat="44.42258882067468" lon="8.535574795138999"><ele>956.0</ele><time>2026-04-25T08:36:23.999Z</time></trkpt><trkpt lat="44.422622420267714" lon="8.53568770384196"><ele>956.0</ele><time>2026-04-25T08:36:24.999Z</time></trkpt><trkpt lat="44.42263567133482" lon="8.535795675430581"><ele>956.5999999999999</ele><time>2026-04-25T08:36:25.999Z</time></trkpt><trkpt lat="44.42266125492057" lon="8.53588775934953"><ele>957.1999999999999</ele><time>2026-04-25T08:36:26.999Z</time></trkpt><trkpt lat="44.422666317032245" lon="8.536036809550378"><ele>957.8000000000001</ele><time>2026-04-25T08:36:28.999Z</time></trkpt><trkpt lat="44.42261957550239" lon="8.536177813573739"><ele>958.4000000000001</ele><time>2026-04-25T08:36:30.999Z</time></trkpt><trkpt lat="44.42258160568598" lon="8.536257179985622"><ele>959.0</ele><time>2026-04-25T08:36:31.999Z</time></trkpt><trkpt lat="44.422524493853864" lon="8.536362778000575"><ele>960.5000000000001</ele><time>2026-04-25T08:36:32.999Z</time></trkpt><trkpt lat="44.422456307943115" lon="8.536446877246208"><ele>962.0</ele><time>2026-04-25T08:36:33.999Z</time></trkpt><trkpt lat="44.422405545694325" lon="8.536571864744664"><ele>963.5</ele><time>2026-04-25T08:36:34.999Z</time></trkpt><trkpt lat="44.422358071145126" lon="8.536675487129035"><ele>965.0</ele><time>2026-04-25T08:36:35.999Z</time></trkpt><trkpt lat="44.422314561455075" lon="8.53675922747856"><ele>966.5000000000001</ele><time>2026-04-25T08:36:36.999Z</time></trkpt><trkpt lat="44.422286004216346" lon="8.536838994423865"><ele>968.0</ele><time>2026-04-25T08:36:37.999Z</time></trkpt><trkpt lat="44.42228387540477" lon="8.536951185523215"><ele>968.6666666666667</ele><time>2026-04-25T08:36:38.999Z</time></trkpt><trkpt lat="44.42229066979879" lon="8.537063066928175"><ele>969.3333333333334</ele><time>2026-04-25T08:36:39.999Z</time></trkpt><trkpt lat="44.42231280510144" lon="8.537170344935157"><ele>970.0</ele><time>2026-04-25T08:36:40.999Z</time></trkpt><trkpt lat="44.42233162691009" lon="8.537286409198128"><ele>970.6666666666667</ele><time>2026-04-25T08:36:41.999Z</time></trkpt><trkpt lat="44.4223689322072" lon="8.537392389090794"><ele>971.3333333333334</ele><time>2026-04-25T08:36:42.999Z</time></trkpt><trkpt lat="44.42241689731311" lon="8.537485991261736"><ele>972.0</ele><time>2026-04-25T08:36:43.999Z</time></trkpt><trkpt lat="44.4224779295694" lon="8.537587290303573"><ele>972.0</ele><time>2026-04-25T08:36:44.999Z</time></trkpt><trkpt lat="44.422543310188715" lon="8.53771005691424"><ele>972.0</ele><time>2026-04-25T08:36:45.999Z</time></trkpt><trkpt lat="44.42260671487423" lon="8.537844097956016"><ele>972.0</ele><time>2026-04-25T08:36:46.999Z</time></trkpt><trkpt lat="44.4226635766326" lon="8.537956752872883"><ele>972.0</ele><time>2026-04-25T08:36:47.999Z</time></trkpt><trkpt lat="44.42271990523224" lon="8.538051075126884"><ele>972.0</ele><time>2026-04-25T08:36:48.999Z</time></trkpt><trkpt lat="44.422755675760115" lon="8.538140447942359"><ele>971.3333333333334</ele><time>2026-04-25T08:36:50Z</time></trkpt><trkpt lat="44.422785652547844" lon="8.538224420911478"><ele>970.6666666666667</ele><time>2026-04-25T08:36:51Z</time></trkpt><trkpt lat="44.42280537948921" lon="8.538309918632248"><ele>970.0</ele><time>2026-04-25T08:36:52Z</time></trkpt><trkpt lat="44.42282165982391" lon="8.538402129165558"><ele>969.3333333333334</ele><time>2026-04-25T08:36:53Z</time></trkpt><trkpt lat="44.42285866541464" lon="8.538519580007032"><ele>968.6666666666667</ele><time>2026-04-25T08:36:55Z</time></trkpt><trkpt lat="44.42293399237418" lon="8.538561907042517"><ele>968.0</ele><time>2026-04-25T08:36:57Z</time></trkpt><trkpt lat="44.4230389554936" lon="8.538512747838965"><ele>973.2</ele><time>2026-04-25T08:36:59Z</time></trkpt><trkpt lat="44.42309793730539" lon="8.53836477017071"><ele>978.4</ele><time>2026-04-25T08:37:01Z</time></trkpt><trkpt lat="44.42310437889477" lon="8.53827434707246"><ele>983.6000000000001</ele><time>2026-04-25T08:37:02Z</time></trkpt><trkpt lat="44.42311611281959" lon="8.538147642579533"><ele>988.8000000000001</ele><time>2026-04-25T08:37:03Z</time></trkpt><trkpt lat="44.42312880326201" lon="8.538010609058626"><ele>994.0</ele><time>2026-04-25T08:37:04Z</time></trkpt><trkpt lat="44.423143618196384" lon="8.53785124580294"><ele>994.0</ele><time>2026-04-25T08:37:05Z</time></trkpt><trkpt lat="44.42316268178763" lon="8.537679957451443"><ele>994.0000000000001</ele><time>2026-04-25T08:37:06Z</time></trkpt><trkpt lat="44.423178377999534" lon="8.53753892538386"><ele>994.0000000000001</ele><time>2026-04-25T08:37:07Z</time></trkpt><trkpt lat="44.423194592116495" lon="8.537413649649215"><ele>994.0</ele><time>2026-04-25T08:37:08Z</time></trkpt><trkpt lat="44.42321049970977" lon="8.537300459279608"><ele>994.0</ele><time>2026-04-25T08:37:09Z</time></trkpt><trkpt lat="44.4232422847351" lon="8.537185551140917"><ele>994.0</ele><time>2026-04-25T08:37:10Z</time></trkpt><trkpt lat="44.4232888195844" lon="8.53705989157271"><ele>994.0</ele><time>2026-04-25T08:37:11Z</time></trkpt><trkpt lat="44.423343807918094" lon="8.53691589812869"><ele>994.0</ele><time>2026-04-25T08:37:12Z</time></trkpt><trkpt lat="44.423405636253385" lon="8.536757448718237"><ele>994.0</ele><time>2026-04-25T08:37:13Z</time></trkpt><trkpt lat="44.42344701953504" lon="8.536604626556484"><ele>993.6666666666666</ele><time>2026-04-25T08:37:14Z</time></trkpt><trkpt lat="44.423502808986505" lon="8.536480353639226"><ele>993.3333333333333</ele><time>2026-04-25T08:37:15Z</time></trkpt><trkpt lat="44.42354657363718" lon="8.536365539244835"><ele>993.0</ele><time>2026-04-25T08:37:16Z</time></trkpt><trkpt lat="44.42359963671169" lon="8.53628306916178"><ele>992.6666666666667</ele><time>2026-04-25T08:37:17Z</time></trkpt><trkpt lat="44.423659066371584" lon="8.536214022581945"><ele>992.3333333333334</ele><time>2026-04-25T08:37:18Z</time></trkpt><trkpt lat="44.42372446152106" lon="8.536173621114433"><ele>992.0</ele><time>2026-04-25T08:37:19Z</time></trkpt><trkpt lat="44.423794646616464" lon="8.536140220133397"><ele>992.3333333333334</ele><time>2026-04-25T08:37:20Z</time></trkpt><trkpt lat="44.42386497982416" lon="8.536134108834231"><ele>992.6666666666667</ele><time>2026-04-25T08:37:21Z</time></trkpt><trkpt lat="44.42392816590439" lon="8.536156666285343"><ele>993.0</ele><time>2026-04-25T08:37:22Z</time></trkpt><trkpt lat="44.423986880089906" lon="8.536201417023356"><ele>993.3333333333333</ele><time>2026-04-25T08:37:23Z</time></trkpt><trkpt lat="44.42405800813401" lon="8.536246470508486"><ele>993.6666666666666</ele><time>2026-04-25T08:37:24Z</time></trkpt><trkpt lat="44.42411178990511" lon="8.536405746921847"><ele>994.0</ele><time>2026-04-25T08:37:26Z</time></trkpt><trkpt lat="44.42412920217243" lon="8.536494827989548"><ele>994.9999999999999</ele><time>2026-04-25T08:37:27Z</time></trkpt><trkpt lat="44.42413952063654" lon="8.536600957256207"><ele>996.0</ele><time>2026-04-25T08:37:28Z</time></trkpt><trkpt lat="44.42416040587884" lon="8.536719009799565"><ele>997.0</ele><time>2026-04-25T08:37:29Z</time></trkpt><trkpt lat="44.42417283766061" lon="8.536829111847446"><ele>998.0</ele><time>2026-04-25T08:37:30Z</time></trkpt><trkpt lat="44.424195940176716" lon="8.53691879225645"><ele>998.9999999999999</ele><time>2026-04-25T08:37:31Z</time></trkpt><trkpt lat="44.4242218977287" lon="8.537008289530373"><ele>1000.0</ele><time>2026-04-25T08:37:32Z</time></trkpt><trkpt lat="44.424291774082675" lon="8.537152875741397"><ele>1001.1666666666666</ele><time>2026-04-25T08:37:34Z</time></trkpt><trkpt lat="44.42434161277759" lon="8.537219882074"><ele>1002.3333333333333</ele><time>2026-04-25T08:37:35Z</time></trkpt><trkpt lat="44.424397272587676" lon="8.537287754400053"><ele>1003.5</ele><time>2026-04-25T08:37:36Z</time></trkpt><trkpt lat="44.42445898104992" lon="8.537344868169532"><ele>1004.6666666666667</ele><time>2026-04-25T08:37:37Z</time></trkpt><trkpt lat="44.42453734593267" lon="8.537409390747973"><ele>1005.8333333333334</ele><time>2026-04-25T08:37:38Z</time></trkpt><trkpt lat="44.42461054904405" lon="8.53746508466513"><ele>1007.0</ele><time>2026-04-25T08:37:39Z</time></trkpt><trkpt lat="44.424700158230905" lon="8.537549811431745"><ele>1007.5</ele><time>2026-04-25T08:37:40Z</time></trkpt><trkpt lat="44.424804375273766" lon="8.53761934995485"><ele>1008.0</ele><time>2026-04-25T08:37:41Z</time></trkpt><trkpt lat="44.42491744100981" lon="8.537704748207453"><ele>1008.5</ele><time>2026-04-25T08:37:42Z</time></trkpt><trkpt lat="44.42502385225074" lon="8.537778692310354"><ele>1009.0</ele><time>2026-04-25T08:37:43Z</time></trkpt><trkpt lat="44.42510531476386" lon="8.53784834353413"><ele>1010.6666666666666</ele><time>2026-04-25T08:37:44Z</time></trkpt><trkpt lat="44.42517193693777" lon="8.537913329419762"><ele>1012.3333333333333</ele><time>2026-04-25T08:37:45Z</time></trkpt><trkpt lat="44.42522168586888" lon="8.537983702664667"><ele>1014.0</ele><time>2026-04-25T08:37:46Z</time></trkpt><trkpt lat="44.42524726754007" lon="8.538070293814748"><ele>1015.6666666666667</ele><time>2026-04-25T08:37:47Z</time></trkpt><trkpt lat="44.42525673928663" lon="8.53820241956712"><ele>1017.3333333333334</ele><time>2026-04-25T08:37:48Z</time></trkpt><trkpt lat="44.42524745336159" lon="8.538384167777771"><ele>1019.0</ele><time>2026-04-25T08:37:49Z</time></trkpt><trkpt lat="44.425252641130974" lon="8.538569657276023"><ele>1020.2</ele><time>2026-04-25T08:37:50Z</time></trkpt><trkpt lat="44.42525855550378" lon="8.538759144504633"><ele>1021.4000000000001</ele><time>2026-04-25T08:37:51Z</time></trkpt><trkpt lat="44.42527346778923" lon="8.538909107868955"><ele>1022.6</ele><time>2026-04-25T08:37:52Z</time></trkpt><trkpt lat="44.42527707569081" lon="8.539038124462513"><ele>1023.8</ele><time>2026-04-25T08:37:53Z</time></trkpt><trkpt lat="44.42527571899222" lon="8.539169766266973"><ele>1025.0</ele><time>2026-04-25T08:37:54Z</time></trkpt><trkpt lat="44.42525020041842" lon="8.539321981284445"><ele>1025.0</ele><time>2026-04-25T08:37:55Z</time></trkpt><trkpt lat="44.42521909176637" lon="8.539487738692648"><ele>1025.0</ele><time>2026-04-25T08:37:56Z</time></trkpt><trkpt lat="44.42517936556944" lon="8.539648701250925"><ele>1025.0</ele><time>2026-04-25T08:37:57Z</time></trkpt><trkpt lat="44.42513400718929" lon="8.539830859962025"><ele>1025.0</ele><time>2026-04-25T08:37:58Z</time></trkpt><trkpt lat="44.42509922748126" lon="8.540008222241978"><ele>1025.2</ele><time>2026-04-25T08:37:59Z</time></trkpt><trkpt lat="44.42506747735974" lon="8.540152467362095"><ele>1025.4</ele><time>2026-04-25T08:38:00Z</time></trkpt><trkpt lat="44.425044835178404" lon="8.540271738596564"><ele>1025.6</ele><time>2026-04-25T08:38:01Z</time></trkpt><trkpt lat="44.425027585215545" lon="8.540391758077954"><ele>1025.8</ele><time>2026-04-25T08:38:02Z</time></trkpt><trkpt lat="44.42500858846818" lon="8.540504999876845"><ele>1026.0</ele><time>2026-04-25T08:38:03Z</time></trkpt><trkpt lat="44.42501306463432" lon="8.54062262482596"><ele>1027.0</ele><time>2026-04-25T08:38:04Z</time></trkpt><trkpt lat="44.42502718677495" lon="8.54074243736849"><ele>1028.0</ele><time>2026-04-25T08:38:04.999Z</time></trkpt><trkpt lat="44.425066592289" lon="8.540858929485989"><ele>1029.0</ele><time>2026-04-25T08:38:05.999Z</time></trkpt><trkpt lat="44.42512192601141" lon="8.540968738546303"><ele>1030.0</ele><time>2026-04-25T08:38:06.999Z</time></trkpt><trkpt lat="44.425213357242825" lon="8.541064137627703"><ele>1031.0</ele><time>2026-04-25T08:38:07.999Z</time></trkpt><trkpt lat="44.42532661634412" lon="8.541162410686576"><ele>1032.75</ele><time>2026-04-25T08:38:08.999Z</time></trkpt><trkpt lat="44.42543839749201" lon="8.541284867374811"><ele>1034.5</ele><time>2026-04-25T08:38:09.999Z</time></trkpt><trkpt lat="44.42557297580485" lon="8.541384932665277"><ele>1036.25</ele><time>2026-04-25T08:38:10.999Z</time></trkpt><trkpt lat="44.42568873055294" lon="8.541499708357941"><ele>1038.0</ele><time>2026-04-25T08:38:11.999Z</time></trkpt><trkpt lat="44.42580582721229" lon="8.54160837893953"><ele>1038.25</ele><time>2026-04-25T08:38:12.999Z</time></trkpt><trkpt lat="44.42590480745674" lon="8.541708246514956"><ele>1038.5</ele><time>2026-04-25T08:38:13.999Z</time></trkpt><trkpt lat="44.42598903052326" lon="8.54180538323433"><ele>1038.75</ele><time>2026-04-25T08:38:14.999Z</time></trkpt><trkpt lat="44.42605592638453" lon="8.541928584768863"><ele>1039.0</ele><time>2026-04-25T08:38:15.999Z</time></trkpt><trkpt lat="44.42610959428839" lon="8.542081550926053"><ele>1040.5</ele><time>2026-04-25T08:38:16.999Z</time></trkpt><trkpt lat="44.42617099853502" lon="8.542254296856077"><ele>1042.0</ele><time>2026-04-25T08:38:17.999Z</time></trkpt><trkpt lat="44.42623528127725" lon="8.54243009843685"><ele>1043.5</ele><time>2026-04-25T08:38:18.999Z</time></trkpt><trkpt lat="44.4263007959811" lon="8.542607511793914"><ele>1045.0</ele><time>2026-04-25T08:38:19.999Z</time></trkpt><trkpt lat="44.42635686340279" lon="8.542760173959563"><ele>1048.0</ele><time>2026-04-25T08:38:20.999Z</time></trkpt><trkpt lat="44.426410557868046" lon="8.542894106247374"><ele>1051.0</ele><time>2026-04-25T08:38:21.999Z</time></trkpt><trkpt lat="44.426483650629315" lon="8.542999078028766"><ele>1054.0</ele><time>2026-04-25T08:38:22.999Z</time></trkpt><trkpt lat="44.42658245979199" lon="8.543092939759307"><ele>1057.0</ele><time>2026-04-25T08:38:23.999Z</time></trkpt><trkpt lat="44.426696173262954" lon="8.543166623445446"><ele>1057.0</ele><time>2026-04-25T08:38:24.999Z</time></trkpt><trkpt lat="44.426797667879924" lon="8.543230648256138"><ele>1057.0</ele><time>2026-04-25T08:38:25.999Z</time></trkpt><trkpt lat="44.42690216190215" lon="8.543247234557093"><ele>1057.0</ele><time>2026-04-25T08:38:26.999Z</time></trkpt><trkpt lat="44.42702581749942" lon="8.54320363774883"><ele>1057.0</ele><time>2026-04-25T08:38:27.999Z</time></trkpt><trkpt lat="44.427160922777176" lon="8.543115946285335"><ele>1057.75</ele><time>2026-04-25T08:38:28.999Z</time></trkpt><trkpt lat="44.4273056126636" lon="8.543004290125403"><ele>1058.5</ele><time>2026-04-25T08:38:29.999Z</time></trkpt><trkpt lat="44.42736559153387" lon="8.542951769540629"><ele>1059.25</ele><time>2026-04-25T08:38:30.999Z</time></trkpt><trkpt lat="44.427490131025216" lon="8.54280844935223"><ele>1060.0</ele><time>2026-04-25T08:38:31.999Z</time></trkpt><trkpt lat="44.427592272523256" lon="8.542680772018018"><ele>1058.6</ele><time>2026-04-25T08:38:32.999Z</time></trkpt><trkpt lat="44.42767164639373" lon="8.542553224512698"><ele>1057.2</ele><time>2026-04-25T08:38:33.999Z</time></trkpt><trkpt lat="44.4277232318413" lon="8.542426620690367"><ele>1055.8</ele><time>2026-04-25T08:38:34.999Z</time></trkpt><trkpt lat="44.4277612977564" lon="8.542289514176419"><ele>1054.4</ele><time>2026-04-25T08:38:35.999Z</time></trkpt><trkpt lat="44.42779038981477" lon="8.542153280511819"><ele>1053.0</ele><time>2026-04-25T08:38:36.999Z</time></trkpt><trkpt lat="44.427802641491716" lon="8.541993659625986"><ele>1052.25</ele><time>2026-04-25T08:38:37.999Z</time></trkpt><trkpt lat="44.4277967323515" lon="8.54180367391845"><ele>1051.5</ele><time>2026-04-25T08:38:38.999Z</time></trkpt><trkpt lat="44.42779013817404" lon="8.541586980168375"><ele>1050.75</ele><time>2026-04-25T08:38:39.999Z</time></trkpt><trkpt lat="44.427787477330284" lon="8.541378191386286"><ele>1050.0</ele><time>2026-04-25T08:38:40.999Z</time></trkpt><trkpt lat="44.42781268090124" lon="8.541202393915517"><ele>1049.4</ele><time>2026-04-25T08:38:41.999Z</time></trkpt><trkpt lat="44.42782089362194" lon="8.541060304374724"><ele>1048.8</ele><time>2026-04-25T08:38:42.999Z</time></trkpt><trkpt lat="44.4278461428643" lon="8.54093890105506"><ele>1048.2</ele><time>2026-04-25T08:38:43.999Z</time></trkpt><trkpt lat="44.42787603771098" lon="8.540820572014638"><ele>1047.6</ele><time>2026-04-25T08:38:44.999Z</time></trkpt><trkpt lat="44.42789569407677" lon="8.540689256998087"><ele>1047.0</ele><time>2026-04-25T08:38:45.999Z</time></trkpt><trkpt lat="44.42793108382039" lon="8.540546728801857"><ele>1052.5</ele><time>2026-04-25T08:38:46.999Z</time></trkpt><trkpt lat="44.42798315187197" lon="8.540411796321258"><ele>1058.0</ele><time>2026-04-25T08:38:47.999Z</time></trkpt><trkpt lat="44.42802704789065" lon="8.540279333651606"><ele>1063.5</ele><time>2026-04-25T08:38:48.999Z</time></trkpt><trkpt lat="44.42809480173387" lon="8.540142626744062"><ele>1069.0</ele><time>2026-04-25T08:38:49.999Z</time></trkpt><trkpt lat="44.42817881702796" lon="8.539996231493687"><ele>1069.0</ele><time>2026-04-25T08:38:50.999Z</time></trkpt><trkpt lat="44.428264154848144" lon="8.539872694935786"><ele>1069.0</ele><time>2026-04-25T08:38:51.999Z</time></trkpt><trkpt lat="44.428349508789104" lon="8.539770466190516"><ele>1069.0</ele><time>2026-04-25T08:38:52.999Z</time></trkpt><trkpt lat="44.42843252300875" lon="8.539684166469678"><ele>1069.0</ele><time>2026-04-25T08:38:53.999Z</time></trkpt><trkpt lat="44.42851690854404" lon="8.53963746727772"><ele>1069.0</ele><time>2026-04-25T08:38:54.999Z</time></trkpt><trkpt lat="44.4285774839633" lon="8.539607488087801"><ele>1069.0</ele><time>2026-04-25T08:38:56Z</time></trkpt><trkpt lat="44.42866123976789" lon="8.539670497469297"><ele>1069.0</ele><time>2026-04-25T08:38:58Z</time></trkpt><trkpt lat="44.42867417632863" lon="8.539759725242398"><ele>1069.0</ele><time>2026-04-25T08:38:59Z</time></trkpt><trkpt lat="44.42865040927046" lon="8.539854257172005"><ele>1069.0</ele><time>2026-04-25T08:39:00Z</time></trkpt><trkpt lat="44.4285632462255" lon="8.53988521429926"><ele>1069.0</ele><time>2026-04-25T08:39:01Z</time></trkpt><trkpt lat="44.428492541221665" lon="8.539973743155635"><ele>1069.0</ele><time>2026-04-25T08:39:02Z</time></trkpt><trkpt lat="44.42842729175434" lon="8.540090934613135"><ele>1069.0</ele><time>2026-04-25T08:39:03Z</time></trkpt><trkpt lat="44.42836897897715" lon="8.54022155525025"><ele>1069.0</ele><time>2026-04-25T08:39:04Z</time></trkpt><trkpt lat="44.428322523910346" lon="8.540403434864498"><ele>1069.0</ele><time>2026-04-25T08:39:05Z</time></trkpt><trkpt lat="44.42828680077175" lon="8.540608482440105"><ele>1069.0</ele><time>2026-04-25T08:39:06Z</time></trkpt><trkpt lat="44.42825531196052" lon="8.54076361204975"><ele>1071.0</ele><time>2026-04-25T08:39:07Z</time></trkpt><trkpt lat="44.42824139771019" lon="8.54090525640572"><ele>1073.0</ele><time>2026-04-25T08:39:08Z</time></trkpt><trkpt lat="44.42824413990359" lon="8.541065790276031"><ele>1075.0</ele><time>2026-04-25T08:39:09Z</time></trkpt><trkpt lat="44.42825496944002" lon="8.541216785878913"><ele>1077.0</ele><time>2026-04-25T08:39:10Z</time></trkpt><trkpt lat="44.42827711185121" lon="8.541349556493012"><ele>1079.0</ele><time>2026-04-25T08:39:11Z</time></trkpt><trkpt lat="44.42832074698158" lon="8.541499621532367"><ele>1079.5</ele><time>2026-04-25T08:39:12Z</time></trkpt><trkpt lat="44.42837242166228" lon="8.541668127972674"><ele>1080.0</ele><time>2026-04-25T08:39:13Z</time></trkpt><trkpt lat="44.42840566707993" lon="8.541834250682712"><ele>1080.5</ele><time>2026-04-25T08:39:14Z</time></trkpt><trkpt lat="44.428436343871034" lon="8.541977923329235"><ele>1081.0</ele><time>2026-04-25T08:39:15Z</time></trkpt><trkpt lat="44.428479616966555" lon="8.542092732336751"><ele>1079.5</ele><time>2026-04-25T08:39:16Z</time></trkpt><trkpt lat="44.4285495601218" lon="8.542195661302495"><ele>1078.0</ele><time>2026-04-25T08:39:17Z</time></trkpt><trkpt lat="44.428638132635335" lon="8.542301349122527"><ele>1076.5</ele><time>2026-04-25T08:39:18Z</time></trkpt><trkpt lat="44.42873157452112" lon="8.542417848209034"><ele>1075.0</ele><time>2026-04-25T08:39:19Z</time></trkpt><trkpt lat="44.428817276210154" lon="8.542540430068918"><ele>1079.0</ele><time>2026-04-25T08:39:20Z</time></trkpt><trkpt lat="44.42891619183297" lon="8.542650684849956"><ele>1083.0</ele><time>2026-04-25T08:39:21Z</time></trkpt><trkpt lat="44.429036405730116" lon="8.542741225773021"><ele>1087.0</ele><time>2026-04-25T08:39:22Z</time></trkpt><trkpt lat="44.429156808952804" lon="8.54283260115116"><ele>1091.0</ele><time>2026-04-25T08:39:23Z</time></trkpt><trkpt lat="44.42925629326933" lon="8.542915270676572"><ele>1091.0</ele><time>2026-04-25T08:39:24Z</time></trkpt><trkpt lat="44.42934995519803" lon="8.542973764264943"><ele>1091.0</ele><time>2026-04-25T08:39:25Z</time></trkpt><trkpt lat="44.429443426445005" lon="8.543005463435106"><ele>1091.0</ele><time>2026-04-25T08:39:26Z</time></trkpt><trkpt lat="44.42955179663325" lon="8.542998099186176"><ele>1091.0</ele><time>2026-04-25T08:39:27Z</time></trkpt><trkpt lat="44.429672109170916" lon="8.542976627778199"><ele>1091.0</ele><time>2026-04-25T08:39:28Z</time></trkpt><trkpt lat="44.429787669401705" lon="8.54296926033437"><ele>1092.6</ele><time>2026-04-25T08:39:29Z</time></trkpt><trkpt lat="44.42988855056029" lon="8.542997030892185"><ele>1094.1999999999998</ele><time>2026-04-25T08:39:30Z</time></trkpt><trkpt lat="44.42997730530599" lon="8.543052183194167"><ele>1095.8000000000002</ele><time>2026-04-25T08:39:31Z</time></trkpt><trkpt lat="44.43004683863087" lon="8.543127954134977"><ele>1097.4</ele><time>2026-04-25T08:39:32Z</time></trkpt><trkpt lat="44.4301055905567" lon="8.5432227183899"><ele>1099.0</ele><time>2026-04-25T08:39:33Z</time></trkpt><trkpt lat="44.430160483914875" lon="8.543327147066453"><ele>1099.0</ele><time>2026-04-25T08:39:34Z</time></trkpt><trkpt lat="44.43021291805844" lon="8.543455084821863"><ele>1099.0</ele><time>2026-04-25T08:39:35Z</time></trkpt><trkpt lat="44.43025035387809" lon="8.543605515528734"><ele>1099.0</ele><time>2026-04-25T08:39:36Z</time></trkpt><trkpt lat="44.43027537489137" lon="8.543753231824969"><ele>1099.0</ele><time>2026-04-25T08:39:37Z</time></trkpt><trkpt lat="44.43030849141497" lon="8.543875705450505"><ele>1099.0</ele><time>2026-04-25T08:39:38Z</time></trkpt><trkpt lat="44.43036878360854" lon="8.543964810098593"><ele>1099.5</ele><time>2026-04-25T08:39:39Z</time></trkpt><trkpt lat="44.430462188561734" lon="8.544027604820057"><ele>1100.0</ele><time>2026-04-25T08:39:40Z</time></trkpt><trkpt lat="44.43058443280726" lon="8.54404349864476"><ele>1100.5</ele><time>2026-04-25T08:39:41Z</time></trkpt><trkpt lat="44.43070738415063" lon="8.544052240410682"><ele>1101.0</ele><time>2026-04-25T08:39:42Z</time></trkpt><trkpt lat="44.43081223022599" lon="8.544068536145543"><ele>1101.1666666666667</ele><time>2026-04-25T08:39:43Z</time></trkpt><trkpt lat="44.43090033012201" lon="8.544100053099275"><ele>1101.3333333333333</ele><time>2026-04-25T08:39:44Z</time></trkpt><trkpt lat="44.43095707711081" lon="8.544173807434255"><ele>1101.5</ele><time>2026-04-25T08:39:45Z</time></trkpt><trkpt lat="44.43099196777882" lon="8.54425205592759"><ele>1101.6666666666665</ele><time>2026-04-25T08:39:46Z</time></trkpt><trkpt lat="44.43100346502077" lon="8.544350365283155"><ele>1101.8333333333333</ele><time>2026-04-25T08:39:47Z</time></trkpt><trkpt lat="44.43097368589231" lon="8.54449957921487"><ele>1102.0</ele><time>2026-04-25T08:39:49Z</time></trkpt><trkpt lat="44.430914612550424" lon="8.544623310484129"><ele>1103.5</ele><time>2026-04-25T08:39:51Z</time></trkpt><trkpt lat="44.430848546882075" lon="8.544664383716173"><ele>1105.0</ele><time>2026-04-25T08:39:52Z</time></trkpt><trkpt lat="44.43077727650329" lon="8.5447257219217"><ele>1106.5</ele><time>2026-04-25T08:39:53Z</time></trkpt><trkpt lat="44.43069673222657" lon="8.544795723260222"><ele>1108.0</ele><time>2026-04-25T08:39:54Z</time></trkpt><trkpt lat="44.430617525378" lon="8.544870342689336"><ele>1109.5</ele><time>2026-04-25T08:39:55Z</time></trkpt><trkpt lat="44.43056342524784" lon="8.544964796663578"><ele>1111.0</ele><time>2026-04-25T08:39:56Z</time></trkpt><trkpt lat="44.430510401110425" lon="8.54505521669604"><ele>1110.3999999999999</ele><time>2026-04-25T08:39:57Z</time></trkpt><trkpt lat="44.43044618963028" lon="8.545158210896588"><ele>1109.8</ele><time>2026-04-25T08:39:58Z</time></trkpt><trkpt lat="44.43039153516574" lon="8.545295463148962"><ele>1109.1999999999998</ele><time>2026-04-25T08:39:59Z</time></trkpt><trkpt lat="44.43033477864954" lon="8.545431944085967"><ele>1108.6</ele><time>2026-04-25T08:40:00Z</time></trkpt><trkpt lat="44.430275264441434" lon="8.54554315400116"><ele>1108.0</ele><time>2026-04-25T08:40:01Z</time></trkpt><trkpt lat="44.43019892859027" lon="8.545644410862744"><ele>1111.25</ele><time>2026-04-25T08:40:02Z</time></trkpt><trkpt lat="44.43010335229286" lon="8.54576902252421"><ele>1114.5</ele><time>2026-04-25T08:40:03Z</time></trkpt><trkpt lat="44.43000522779429" lon="8.545894953881202"><ele>1117.75</ele><time>2026-04-25T08:40:04Z</time></trkpt><trkpt lat="44.42991070499981" lon="8.546001144434426"><ele>1121.0</ele><time>2026-04-25T08:40:05Z</time></trkpt><trkpt lat="44.42981821484486" lon="8.546074726930184"><ele>1121.0</ele><time>2026-04-25T08:40:06Z</time></trkpt><trkpt lat="44.42971864534096" lon="8.546115066557935"><ele>1121.0</ele><time>2026-04-25T08:40:06.999Z</time></trkpt><trkpt lat="44.4295956671538" lon="8.54616187557614"><ele>1121.0</ele><time>2026-04-25T08:40:07.999Z</time></trkpt><trkpt lat="44.42946692155452" lon="8.546211793212281"><ele>1121.0</ele><time>2026-04-25T08:40:08.999Z</time></trkpt><trkpt lat="44.42935084599311" lon="8.546281446211575"><ele>1124.0</ele><time>2026-04-25T08:40:09.999Z</time></trkpt><trkpt lat="44.42924698854184" lon="8.54632104658423"><ele>1127.0</ele><time>2026-04-25T08:40:10.999Z</time></trkpt><trkpt lat="44.42915883094121" lon="8.546356628328725"><ele>1130.0</ele><time>2026-04-25T08:40:11.999Z</time></trkpt><trkpt lat="44.42908649606312" lon="8.54641689127357"><ele>1133.0</ele><time>2026-04-25T08:40:12.999Z</time></trkpt><trkpt lat="44.42902034235346" lon="8.546478895577147"><ele>1136.0</ele><time>2026-04-25T08:40:13.999Z</time></trkpt><trkpt lat="44.42895781446128" lon="8.54656514242418"><ele>1136.0</ele><time>2026-04-25T08:40:14.999Z</time></trkpt><trkpt lat="44.42889576755597" lon="8.546663238985033"><ele>1136.0</ele><time>2026-04-25T08:40:15.999Z</time></trkpt><trkpt lat="44.42884043783611" lon="8.546781696479865"><ele>1136.0</ele><time>2026-04-25T08:40:16.999Z</time></trkpt><trkpt lat="44.42878177615861" lon="8.54691734892082"><ele>1136.0</ele><time>2026-04-25T08:40:17.999Z</time></trkpt><trkpt lat="44.428714005885745" lon="8.547065131687368"><ele>1136.0</ele><time>2026-04-25T08:40:18.999Z</time></trkpt><trkpt lat="44.42863216941541" lon="8.547231779448724"><ele>1135.8</ele><time>2026-04-25T08:40:19.999Z</time></trkpt><trkpt lat="44.428560034822816" lon="8.547385478256746"><ele>1135.6</ele><time>2026-04-25T08:40:20.999Z</time></trkpt><trkpt lat="44.4285013037931" lon="8.547508703449038"><ele>1135.4</ele><time>2026-04-25T08:40:21.999Z</time></trkpt><trkpt lat="44.428462678166746" lon="8.54761965645641"><ele>1135.2</ele><time>2026-04-25T08:40:22.999Z</time></trkpt><trkpt lat="44.42844264578148" lon="8.547759429237358"><ele>1135.0</ele><time>2026-04-25T08:40:23.999Z</time></trkpt><trkpt lat="44.428428575653584" lon="8.54792123480977"><ele>1135.5</ele><time>2026-04-25T08:40:24.999Z</time></trkpt><trkpt lat="44.42839383094385" lon="8.548074612536995"><ele>1136.0</ele><time>2026-04-25T08:40:25.999Z</time></trkpt><trkpt lat="44.42838916538077" lon="8.548202753973172"><ele>1136.5</ele><time>2026-04-25T08:40:26.999Z</time></trkpt><trkpt lat="44.42837580011067" lon="8.548310716832008"><ele>1137.0</ele><time>2026-04-25T08:40:27.999Z</time></trkpt><trkpt lat="44.42838425528057" lon="8.548419029447704"><ele>1137.5</ele><time>2026-04-25T08:40:28.999Z</time></trkpt><trkpt lat="44.42840875440636" lon="8.548518528351652"><ele>1138.0</ele><time>2026-04-25T08:40:29.999Z</time></trkpt><trkpt lat="44.42843830994545" lon="8.54860363374078"><ele>1138.0</ele><time>2026-04-25T08:40:30.999Z</time></trkpt><trkpt lat="44.428477148259056" lon="8.548679168037793"><ele>1138.0</ele><time>2026-04-25T08:40:31.999Z</time></trkpt><trkpt lat="44.428525266231546" lon="8.548757256448095"><ele>1138.0</ele><time>2026-04-25T08:40:32.999Z</time></trkpt><trkpt lat="44.428581711347086" lon="8.548836540240867"><ele>1138.0</ele><time>2026-04-25T08:40:33.999Z</time></trkpt><trkpt lat="44.42864701660436" lon="8.548910501701604"><ele>1138.0</ele><time>2026-04-25T08:40:34.999Z</time></trkpt><trkpt lat="44.428724715654255" lon="8.548978969719078"><ele>1138.0</ele><time>2026-04-25T08:40:35.999Z</time></trkpt><trkpt lat="44.42881404540336" lon="8.549053648261003"><ele>1142.4</ele><time>2026-04-25T08:40:36.999Z</time></trkpt><trkpt lat="44.428914809927086" lon="8.549135492319087"><ele>1146.8</ele><time>2026-04-25T08:40:37.999Z</time></trkpt><trkpt lat="44.42900444352819" lon="8.549209852683994"><ele>1151.2</ele><time>2026-04-25T08:40:38.999Z</time></trkpt><trkpt lat="44.42909125474554" lon="8.549285484744827"><ele>1155.6</ele><time>2026-04-25T08:40:39.999Z</time></trkpt><trkpt lat="44.42917856307082" lon="8.549371821590901"><ele>1160.0</ele><time>2026-04-25T08:40:40.999Z</time></trkpt><trkpt lat="44.429263642916894" lon="8.54946818858385"><ele>1155.0</ele><time>2026-04-25T08:40:41.999Z</time></trkpt><trkpt lat="44.42934972568071" lon="8.549575345637193"><ele>1150.0</ele><time>2026-04-25T08:40:42.999Z</time></trkpt><trkpt lat="44.42943963086099" lon="8.549686443275863"><ele>1145.0</ele><time>2026-04-25T08:40:43.999Z</time></trkpt><trkpt lat="44.42953445530218" lon="8.549804302126445"><ele>1140.0</ele><time>2026-04-25T08:40:44.999Z</time></trkpt><trkpt lat="44.42963685193645" lon="8.549940627527574"><ele>1147.6666666666667</ele><time>2026-04-25T08:40:45.999Z</time></trkpt><trkpt lat="44.42973940805206" lon="8.550104074903963"><ele>1155.3333333333335</ele><time>2026-04-25T08:40:46.999Z</time></trkpt><trkpt lat="44.429844903668624" lon="8.5502949588213"><ele>1163.0</ele><time>2026-04-25T08:40:47.999Z</time></trkpt><trkpt lat="44.42995925062889" lon="8.550497224645085"><ele>1163.0</ele><time>2026-04-25T08:40:48.999Z</time></trkpt><trkpt lat="44.430070457532004" lon="8.550681435030238"><ele>1163.0</ele><time>2026-04-25T08:40:49.999Z</time></trkpt><trkpt lat="44.43017563376319" lon="8.550853966200975"><ele>1163.0</ele><time>2026-04-25T08:40:50.999Z</time></trkpt><trkpt lat="44.43027192200774" lon="8.551017478800517"><ele>1163.0</ele><time>2026-04-25T08:40:51.999Z</time></trkpt><trkpt lat="44.430360343582045" lon="8.551164539616558"><ele>1163.0</ele><time>2026-04-25T08:40:52.999Z</time></trkpt><trkpt lat="44.4304385478995" lon="8.55130105955833"><ele>1163.0</ele><time>2026-04-25T08:40:53.999Z</time></trkpt><trkpt lat="44.43050868055123" lon="8.551434730641173"><ele>1163.0</ele><time>2026-04-25T08:40:54.999Z</time></trkpt><trkpt lat="44.43057762548283" lon="8.551560464973036"><ele>1168.75</ele><time>2026-04-25T08:40:55.999Z</time></trkpt><trkpt lat="44.43063138080845" lon="8.551691230568293"><ele>1174.5</ele><time>2026-04-25T08:40:56.999Z</time></trkpt><trkpt lat="44.43066684519322" lon="8.551840788108537"><ele>1180.25</ele><time>2026-04-25T08:40:57.999Z</time></trkpt><trkpt lat="44.43069114049966" lon="8.551997522193751"><ele>1186.0</ele><time>2026-04-25T08:40:58.999Z</time></trkpt><trkpt lat="44.43067417483414" lon="8.552183352048818"><ele>1187.25</ele><time>2026-04-25T08:40:59.999Z</time></trkpt><trkpt lat="44.43065750396433" lon="8.552359321437455"><ele>1188.5</ele><time>2026-04-25T08:41:00.999Z</time></trkpt><trkpt lat="44.43065526297118" lon="8.552564753733265"><ele>1189.75</ele><time>2026-04-25T08:41:02Z</time></trkpt><trkpt lat="44.430622368993525" lon="8.552757461329737"><ele>1191.0</ele><time>2026-04-25T08:41:03Z</time></trkpt><trkpt lat="44.430624118007955" lon="8.552934697657026"><ele>1192.3333333333333</ele><time>2026-04-25T08:41:04Z</time></trkpt><trkpt lat="44.430610572679925" lon="8.553075845960201"><ele>1193.6666666666667</ele><time>2026-04-25T08:41:05Z</time></trkpt><trkpt lat="44.43060016905531" lon="8.553180587721867"><ele>1195.0</ele><time>2026-04-25T08:41:06Z</time></trkpt><trkpt lat="44.43058736866331" lon="8.55327542690137"><ele>1196.3333333333335</ele><time>2026-04-25T08:41:07Z</time></trkpt><trkpt lat="44.430527524785134" lon="8.553389675185514"><ele>1197.6666666666667</ele><time>2026-04-25T08:41:09Z</time></trkpt><trkpt lat="44.43045794960327" lon="8.553447397488375"><ele>1199.0</ele><time>2026-04-25T08:41:11Z</time></trkpt><trkpt lat="44.43039714418276" lon="8.553481266453243"><ele>1199.0</ele><time>2026-04-25T08:41:13Z</time></trkpt><trkpt lat="44.43029953030262" lon="8.5535257898224"><ele>1199.0</ele><time>2026-04-25T08:41:15Z</time></trkpt><trkpt lat="44.43023625328616" lon="8.553561804954418"><ele>1199.0</ele><time>2026-04-25T08:41:16Z</time></trkpt><trkpt lat="44.43015493689129" lon="8.553598054544976"><ele>1199.0</ele><time>2026-04-25T08:41:17Z</time></trkpt><trkpt lat="44.43006065463587" lon="8.55362136827979"><ele>1199.0</ele><time>2026-04-25T08:41:18Z</time></trkpt><trkpt lat="44.42997921124467" lon="8.553663424447082"><ele>1199.0</ele><time>2026-04-25T08:41:19Z</time></trkpt><trkpt lat="44.42989559962761" lon="8.55372563786133"><ele>1199.0</ele><time>2026-04-25T08:41:20Z</time></trkpt><trkpt lat="44.429798720972585" lon="8.553849672876458"><ele>1199.0</ele><time>2026-04-25T08:41:21Z</time></trkpt><trkpt lat="44.42971936987691" lon="8.553986679758587"><ele>1199.0</ele><time>2026-04-25T08:41:22Z</time></trkpt><trkpt lat="44.42964913925177" lon="8.554124124324279"><ele>1199.0</ele><time>2026-04-25T08:41:23Z</time></trkpt><trkpt lat="44.42958971039089" lon="8.554239434102104"><ele>1196.4</ele><time>2026-04-25T08:41:24Z</time></trkpt><trkpt lat="44.42951023093108" lon="8.554330644798453"><ele>1193.8000000000002</ele><time>2026-04-25T08:41:25Z</time></trkpt><trkpt lat="44.4294114681255" lon="8.55441714062012"><ele>1191.1999999999998</ele><time>2026-04-25T08:41:26Z</time></trkpt><trkpt lat="44.42933467865641" lon="8.554508092526955"><ele>1188.6</ele><time>2026-04-25T08:41:27Z</time></trkpt><trkpt lat="44.429262130172944" lon="8.554564319072721"><ele>1186.0</ele><time>2026-04-25T08:41:28Z</time></trkpt><trkpt lat="44.42922635470024" lon="8.554650020382798"><ele>1186.0</ele><time>2026-04-25T08:41:29Z</time></trkpt><trkpt lat="44.429240554545956" lon="8.554768859372912"><ele>1186.0</ele><time>2026-04-25T08:41:30Z</time></trkpt><trkpt lat="44.42926913359266" lon="8.554873156180577"><ele>1186.0</ele><time>2026-04-25T08:41:31Z</time></trkpt><trkpt lat="44.429338688495484" lon="8.554941977924992"><ele>1186.0</ele><time>2026-04-25T08:41:32Z</time></trkpt><trkpt lat="44.429412169797324" lon="8.555002975947792"><ele>1186.0</ele><time>2026-04-25T08:41:33Z</time></trkpt><trkpt lat="44.4295095406653" lon="8.555057185241779"><ele>1186.0</ele><time>2026-04-25T08:41:34Z</time></trkpt><trkpt lat="44.429613657308" lon="8.55512662077872"><ele>1190.0</ele><time>2026-04-25T08:41:35Z</time></trkpt><trkpt lat="44.42972859797425" lon="8.555206728787633"><ele>1194.0</ele><time>2026-04-25T08:41:36Z</time></trkpt><trkpt lat="44.42984972053137" lon="8.555277335883495"><ele>1198.0</ele><time>2026-04-25T08:41:37Z</time></trkpt><trkpt lat="44.42995210530667" lon="8.55535288280704"><ele>1202.0</ele><time>2026-04-25T08:41:38Z</time></trkpt><trkpt lat="44.43003024764715" lon="8.555418248284173"><ele>1202.0</ele><time>2026-04-25T08:41:39Z</time></trkpt><trkpt lat="44.43008585065922" lon="8.555473653988393"><ele>1202.0</ele><time>2026-04-25T08:41:40Z</time></trkpt><trkpt lat="44.43011987784381" lon="8.55555490690847"><ele>1202.0</ele><time>2026-04-25T08:41:41Z</time></trkpt><trkpt lat="44.4301411775273" lon="8.555711806331251"><ele>1202.0</ele><time>2026-04-25T08:41:43Z</time></trkpt><trkpt lat="44.43013894974053" lon="8.555809463395434"><ele>1202.0</ele><time>2026-04-25T08:41:44Z</time></trkpt><trkpt lat="44.430152900299696" lon="8.555904351852229"><ele>1202.0</ele><time>2026-04-25T08:41:45Z</time></trkpt><trkpt lat="44.43015727825972" lon="8.55600563203606"><ele>1202.0</ele><time>2026-04-25T08:41:46Z</time></trkpt><trkpt lat="44.43018841505597" lon="8.556090939351234"><ele>1202.0</ele><time>2026-04-25T08:41:47Z</time></trkpt><trkpt lat="44.430245452246425" lon="8.556173577915004"><ele>1202.0</ele><time>2026-04-25T08:41:48Z</time></trkpt><trkpt lat="44.430315606919734" lon="8.55624971167563"><ele>1202.0</ele><time>2026-04-25T08:41:49Z</time></trkpt><trkpt lat="44.430395910427286" lon="8.556328262326327"><ele>1202.0</ele><time>2026-04-25T08:41:50Z</time></trkpt><trkpt lat="44.43048099284844" lon="8.556418729937146"><ele>1202.0</ele><time>2026-04-25T08:41:51Z</time></trkpt><trkpt lat="44.430558702346225" lon="8.556537882073565"><ele>1202.3333333333335</ele><time>2026-04-25T08:41:52Z</time></trkpt><trkpt lat="44.430607374582365" lon="8.556660550204379"><ele>1202.6666666666667</ele><time>2026-04-25T08:41:53Z</time></trkpt><trkpt lat="44.43063576913849" lon="8.556768765209595"><ele>1203.0</ele><time>2026-04-25T08:41:54Z</time></trkpt><trkpt lat="44.43067417548384" lon="8.556864084858278"><ele>1203.3333333333333</ele><time>2026-04-25T08:41:55Z</time></trkpt><trkpt lat="44.43073252681151" lon="8.556948321532815"><ele>1203.6666666666665</ele><time>2026-04-25T08:41:56Z</time></trkpt><trkpt lat="44.430812559783675" lon="8.55700841430335"><ele>1204.0</ele><time>2026-04-25T08:41:57Z</time></trkpt><trkpt lat="44.43090277313111" lon="8.557060663013894"><ele>1204.0</ele><time>2026-04-25T08:41:58Z</time></trkpt><trkpt lat="44.43099777187876" lon="8.557126281835284"><ele>1204.0</ele><time>2026-04-25T08:41:59Z</time></trkpt><trkpt lat="44.43108792268569" lon="8.557237071403298"><ele>1204.0</ele><time>2026-04-25T08:42:00Z</time></trkpt><trkpt lat="44.43117670736658" lon="8.557357227139128"><ele>1204.0</ele><time>2026-04-25T08:42:01Z</time></trkpt><trkpt lat="44.43127004972109" lon="8.557473684776097"><ele>1206.8333333333333</ele><time>2026-04-25T08:42:02Z</time></trkpt><trkpt lat="44.431346692507084" lon="8.557568670771364"><ele>1209.6666666666665</ele><time>2026-04-25T08:42:03Z</time></trkpt><trkpt lat="44.43138462287212" lon="8.557684511698065"><ele>1212.5</ele><time>2026-04-25T08:42:04Z</time></trkpt><trkpt lat="44.431406750845746" lon="8.557792694985034"><ele>1215.3333333333333</ele><time>2026-04-25T08:42:05Z</time></trkpt><trkpt lat="44.43138780716707" lon="8.557888731262498"><ele>1218.1666666666667</ele><time>2026-04-25T08:42:06Z</time></trkpt><trkpt lat="44.4313758281306" lon="8.55801700100137"><ele>1221.0</ele><time>2026-04-25T08:42:07Z</time></trkpt><trkpt lat="44.43137061525222" lon="8.558164359701177"><ele>1221.0</ele><time>2026-04-25T08:42:07.999Z</time></trkpt><trkpt lat="44.43138896637673" lon="8.558309499540787"><ele>1221.0</ele><time>2026-04-25T08:42:08.999Z</time></trkpt><trkpt lat="44.43141277956139" lon="8.558445662332852"><ele>1221.0</ele><time>2026-04-25T08:42:09.999Z</time></trkpt><trkpt lat="44.43145610245244" lon="8.558596656588827"><ele>1221.0</ele><time>2026-04-25T08:42:10.999Z</time></trkpt><trkpt lat="44.431500623183766" lon="8.558729722322003"><ele>1221.0</ele><time>2026-04-25T08:42:11.999Z</time></trkpt><trkpt lat="44.431546347059225" lon="8.558837089523735"><ele>1221.6</ele><time>2026-04-25T08:42:12.999Z</time></trkpt><trkpt lat="44.43160614221534" lon="8.558914727798088"><ele>1222.1999999999998</ele><time>2026-04-25T08:42:13.999Z</time></trkpt><trkpt lat="44.431681900738866" lon="8.558985707583446"><ele>1222.8000000000002</ele><time>2026-04-25T08:42:14.999Z</time></trkpt><trkpt lat="44.431779254111866" lon="8.559056436744347"><ele>1223.4</ele><time>2026-04-25T08:42:15.999Z</time></trkpt><trkpt lat="44.431863118781436" lon="8.559112368354292"><ele>1224.0</ele><time>2026-04-25T08:42:16.999Z</time></trkpt><trkpt lat="44.43195746338608" lon="8.559203830277342"><ele>1224.0</ele><time>2026-04-25T08:42:17.999Z</time></trkpt><trkpt lat="44.4320165215885" lon="8.559295826647952"><ele>1224.0</ele><time>2026-04-25T08:42:18.999Z</time></trkpt><trkpt lat="44.432063767139894" lon="8.559365251171748"><ele>1224.0</ele><time>2026-04-25T08:42:19.999Z</time></trkpt><trkpt lat="44.432112264618986" lon="8.559442719679025"><ele>1224.0</ele><time>2026-04-25T08:42:21.999Z</time></trkpt><trkpt lat="44.432168862884865" lon="8.55952889130287"><ele>1224.0</ele><time>2026-04-25T08:42:35.999Z</time></trkpt><trkpt lat="44.43221443838594" lon="8.559614564442558"><ele>1224.0</ele><time>2026-04-25T08:42:36.999Z</time></trkpt><trkpt lat="44.43225885281047" lon="8.559730648158856"><ele>1226.1666666666667</ele><time>2026-04-25T08:42:37.999Z</time></trkpt><trkpt lat="44.43226493549159" lon="8.559836603260711"><ele>1228.3333333333333</ele><time>2026-04-25T08:42:38.999Z</time></trkpt><trkpt lat="44.432286632453014" lon="8.55995110706512"><ele>1230.5</ele><time>2026-04-25T08:42:39.999Z</time></trkpt><trkpt lat="44.43227570291363" lon="8.560077388635456"><ele>1232.6666666666665</ele><time>2026-04-25T08:42:40.999Z</time></trkpt><trkpt lat="44.43227634152205" lon="8.560168504004336"><ele>1234.8333333333333</ele><time>2026-04-25T08:42:42.999Z</time></trkpt><trkpt lat="44.4322791174599" lon="8.560257070183368"><ele>1237.0</ele><time>2026-04-25T08:46:20.999Z</time></trkpt><trkpt lat="44.432317647373864" lon="8.560432484036689"><ele>1237.8</ele><time>2026-04-25T08:46:22.999Z</time></trkpt><trkpt lat="44.432322713118175" lon="8.56054776698247"><ele>1238.6</ele><time>2026-04-25T08:46:23.999Z</time></trkpt><trkpt lat="44.43234394696744" lon="8.560646451268443"><ele>1239.3999999999999</ele><time>2026-04-25T08:46:24.999Z</time></trkpt><trkpt lat="44.43236856947401" lon="8.560760884134472"><ele>1240.2</ele><time>2026-04-25T08:46:25.999Z</time></trkpt><trkpt lat="44.4323982216012" lon="8.560903102083936"><ele>1241.0</ele><time>2026-04-25T08:46:26.999Z</time></trkpt><trkpt lat="44.432427102106764" lon="8.56105041965396"><ele>1241.8333333333335</ele><time>2026-04-25T08:46:27.999Z</time></trkpt><trkpt lat="44.4324696012727" lon="8.56120157292381"><ele>1242.6666666666667</ele><time>2026-04-25T08:46:29.999Z</time></trkpt><trkpt lat="44.43248873002121" lon="8.561326868136755"><ele>1243.5</ele><time>2026-04-25T08:46:32.999Z</time></trkpt><trkpt lat="44.43249602832262" lon="8.561461561507784"><ele>1244.3333333333333</ele><time>2026-04-25T08:46:35.999Z</time></trkpt><trkpt lat="44.432473346031436" lon="8.561549682313986"><ele>1245.1666666666665</ele><time>2026-04-25T08:46:36.999Z</time></trkpt><trkpt lat="44.432437662384636" lon="8.561642972604577"><ele>1246.0</ele><time>2026-04-25T08:46:37.999Z</time></trkpt><trkpt lat="44.43238977145786" lon="8.561753001391878"><ele>1246.0</ele><time>2026-04-25T08:46:38.999Z</time></trkpt><trkpt lat="44.43234533327436" lon="8.561858379194307"><ele>1246.0</ele><time>2026-04-25T08:46:39.999Z</time></trkpt><trkpt lat="44.432316380570754" lon="8.561952435474216"><ele>1246.0</ele><time>2026-04-25T08:46:40.999Z</time></trkpt><trkpt lat="44.43227879805207" lon="8.562048905899786"><ele>1246.0</ele><time>2026-04-25T08:46:41.999Z</time></trkpt><trkpt lat="44.43223575397661" lon="8.562145259271372"><ele>1246.0</ele><time>2026-04-25T08:46:42.999Z</time></trkpt><trkpt lat="44.43220198088083" lon="8.562250511462594"><ele>1246.0</ele><time>2026-04-25T08:46:43.999Z</time></trkpt><trkpt lat="44.43217456388034" lon="8.562357679905583"><ele>1245.6</ele><time>2026-04-25T08:46:44.999Z</time></trkpt><trkpt lat="44.432150804983635" lon="8.562470121632428"><ele>1245.1999999999998</ele><time>2026-04-25T08:46:45.999Z</time></trkpt><trkpt lat="44.43213663731404" lon="8.562601378364237"><ele>1244.8000000000002</ele><time>2026-04-25T08:46:46.999Z</time></trkpt><trkpt lat="44.43211009771827" lon="8.562750806334538"><ele>1244.4</ele><time>2026-04-25T08:46:47.999Z</time></trkpt><trkpt lat="44.43208558909922" lon="8.562905747650996"><ele>1244.0</ele><time>2026-04-25T08:46:48.999Z</time></trkpt><trkpt lat="44.43206279970673" lon="8.563030883308059"><ele>1244.0</ele><time>2026-04-25T08:46:49.999Z</time></trkpt><trkpt lat="44.432047964202916" lon="8.563141952359741"><ele>1244.0</ele><time>2026-04-25T08:46:50.999Z</time></trkpt><trkpt lat="44.432017807263435" lon="8.563319835805888"><ele>1244.0</ele><time>2026-04-25T08:46:52.999Z</time></trkpt><trkpt lat="44.432018679935375" lon="8.563498711518617"><ele>1244.0</ele><time>2026-04-25T08:46:54.999Z</time></trkpt><trkpt lat="44.43204542928354" lon="8.563596976186638"><ele>1244.0</ele><time>2026-04-25T08:46:55.999Z</time></trkpt><trkpt lat="44.43207756327462" lon="8.563699388183018"><ele>1244.2</ele><time>2026-04-25T08:46:56.999Z</time></trkpt><trkpt lat="44.432121790456705" lon="8.563808937654331"><ele>1244.4</ele><time>2026-04-25T08:46:57.999Z</time></trkpt><trkpt lat="44.432172347578344" lon="8.563927909398819"><ele>1244.6</ele><time>2026-04-25T08:46:58.999Z</time></trkpt><trkpt lat="44.432229448352224" lon="8.564059695956807"><ele>1244.8</ele><time>2026-04-25T08:46:59.999Z</time></trkpt><trkpt lat="44.43227318705438" lon="8.564210052539035"><ele>1245.0</ele><time>2026-04-25T08:47:00.999Z</time></trkpt><trkpt lat="44.432327130149574" lon="8.564317002543143"><ele>1248.8333333333333</ele><time>2026-04-25T08:47:01.999Z</time></trkpt><trkpt lat="44.43235990811366" lon="8.564414311100908"><ele>1252.6666666666667</ele><time>2026-04-25T08:47:02.999Z</time></trkpt><trkpt lat="44.432375808420595" lon="8.564588147271703"><ele>1256.5</ele><time>2026-04-25T08:47:04.999Z</time></trkpt><trkpt lat="44.43237804183287" lon="8.564683610511443"><ele>1260.3333333333335</ele><time>2026-04-25T08:47:05.999Z</time></trkpt><trkpt lat="44.4323727521679" lon="8.56477271877553"><ele>1264.1666666666667</ele><time>2026-04-25T08:47:06.999Z</time></trkpt><trkpt lat="44.432460314449365" lon="8.564865850694616"><ele>1268.0</ele><time>2026-04-25T08:47:08.999Z</time></trkpt><trkpt lat="44.43255186582684" lon="8.564823872405318"><ele>1268.0</ele><time>2026-04-25T08:47:10.999Z</time></trkpt><trkpt lat="44.43260446875828" lon="8.564672242041642"><ele>1268.0</ele><time>2026-04-25T08:47:12.999Z</time></trkpt><trkpt lat="44.432612742420574" lon="8.564568053763479"><ele>1268.0</ele><time>2026-04-25T08:47:13.999Z</time></trkpt><trkpt lat="44.43262060755245" lon="8.564454639216342"><ele>1268.0</ele><time>2026-04-25T08:47:14.998Z</time></trkpt><trkpt lat="44.43263800825143" lon="8.564338457252923"><ele>1268.0</ele><time>2026-04-25T08:47:15.998Z</time></trkpt><trkpt lat="44.43267399219405" lon="8.564225114452187"><ele>1268.3333333333335</ele><time>2026-04-25T08:47:16.998Z</time></trkpt><trkpt lat="44.43271465775628" lon="8.564107564641574"><ele>1268.6666666666667</ele><time>2026-04-25T08:47:17.998Z</time></trkpt><trkpt lat="44.43275220388489" lon="8.563995004546182"><ele>1269.0</ele><time>2026-04-25T08:47:19Z</time></trkpt><trkpt lat="44.43277935491686" lon="8.563897467535522"><ele>1269.3333333333333</ele><time>2026-04-25T08:47:20Z</time></trkpt><trkpt lat="44.432809425880954" lon="8.56381333976396"><ele>1269.6666666666665</ele><time>2026-04-25T08:47:21Z</time></trkpt><trkpt lat="44.43290939183171" lon="8.563740419272344"><ele>1270.0</ele><time>2026-04-25T08:47:23Z</time></trkpt><trkpt lat="44.432999035428494" lon="8.563811802343272"><ele>1270.5</ele><time>2026-04-25T08:47:25Z</time></trkpt><trkpt lat="44.43303619434427" lon="8.563961655813454"><ele>1271.0</ele><time>2026-04-25T08:47:27Z</time></trkpt><trkpt lat="44.43305895861621" lon="8.564052249401785"><ele>1271.5</ele><time>2026-04-25T08:47:28Z</time></trkpt><trkpt lat="44.43308483656372" lon="8.56415792033582"><ele>1272.0</ele><time>2026-04-25T08:47:29Z</time></trkpt><trkpt lat="44.43311119576528" lon="8.56427116315402"><ele>1272.5</ele><time>2026-04-25T08:47:30Z</time></trkpt><trkpt lat="44.433139815159294" lon="8.564398982308546"><ele>1273.0</ele><time>2026-04-25T08:47:31Z</time></trkpt><trkpt lat="44.43316576414294" lon="8.56451449666877"><ele>1274.8</ele><time>2026-04-25T08:47:32Z</time></trkpt><trkpt lat="44.43318591869122" lon="8.56461722912443"><ele>1276.6</ele><time>2026-04-25T08:47:33Z</time></trkpt><trkpt lat="44.43317515476349" lon="8.564765961674095"><ele>1278.3999999999999</ele><time>2026-04-25T08:47:35Z</time></trkpt><trkpt lat="44.433164897292414" lon="8.564876412790781"><ele>1280.1999999999998</ele><time>2026-04-25T08:47:37Z</time></trkpt><trkpt lat="44.43315608957304" lon="8.565026062085764"><ele>1282.0</ele><time>2026-04-25T08:47:40Z</time></trkpt><trkpt lat="44.43313223859775" lon="8.565149803732137"><ele>1282.0</ele><time>2026-04-25T08:47:42Z</time></trkpt><trkpt lat="44.43308364434441" lon="8.565255620688214"><ele>1282.0</ele><time>2026-04-25T08:47:44Z</time></trkpt><trkpt lat="44.43301063745793" lon="8.565323132353475"><ele>1282.0</ele><time>2026-04-25T08:47:46Z</time></trkpt><trkpt lat="44.43291814970694" lon="8.565432476874749"><ele>1282.0</ele><time>2026-04-25T08:47:48Z</time></trkpt><trkpt lat="44.432868060821384" lon="8.56549880000835"><ele>1282.0</ele><time>2026-04-25T08:47:49Z</time></trkpt><trkpt lat="44.43282305739362" lon="8.565568883836502"><ele>1282.0</ele><time>2026-04-25T08:47:50Z</time></trkpt><trkpt lat="44.43276064044655" lon="8.565700876342433"><ele>1281.3999999999999</ele><time>2026-04-25T08:47:52Z</time></trkpt><trkpt lat="44.432714896303786" lon="8.565855316826962"><ele>1280.8</ele><time>2026-04-25T08:47:54Z</time></trkpt><trkpt lat="44.43267974217667" lon="8.565991502457804"><ele>1280.2</ele><time>2026-04-25T08:47:56Z</time></trkpt><trkpt lat="44.432645725359436" lon="8.566118288867807"><ele>1279.6</ele><time>2026-04-25T08:47:58Z</time></trkpt><trkpt lat="44.43262701764556" lon="8.566208886320105"><ele>1279.0</ele><time>2026-04-25T08:47:59Z</time></trkpt><trkpt lat="44.43260393593926" lon="8.566312542123216"><ele>1279.0</ele><time>2026-04-25T08:48:00Z</time></trkpt><trkpt lat="44.432595474561545" lon="8.566416681962913"><ele>1279.0</ele><time>2026-04-25T08:48:01Z</time></trkpt><trkpt lat="44.43260250543875" lon="8.566516866240784"><ele>1279.0</ele><time>2026-04-25T08:48:02Z</time></trkpt><trkpt lat="44.43259172573998" lon="8.566610613559515"><ele>1279.0</ele><time>2026-04-25T08:48:03Z</time></trkpt><trkpt lat="44.43258702657018" lon="8.566699084835884"><ele>1279.0</ele><time>2026-04-25T08:48:04Z</time></trkpt><trkpt lat="44.432577495992476" lon="8.566866516523078"><ele>1279.0</ele><time>2026-04-25T08:48:05.999Z</time></trkpt><trkpt lat="44.432567384395654" lon="8.567022686197681"><ele>1278.1666666666665</ele><time>2026-04-25T08:48:07.999Z</time></trkpt><trkpt lat="44.432553389439825" lon="8.567110310555288"><ele>1277.3333333333333</ele><time>2026-04-25T08:48:08.999Z</time></trkpt><trkpt lat="44.432551057813725" lon="8.567202073835805"><ele>1276.5</ele><time>2026-04-25T08:48:09.999Z</time></trkpt><trkpt lat="44.43255125258923" lon="8.567292892974075"><ele>1275.6666666666667</ele><time>2026-04-25T08:48:10.999Z</time></trkpt><trkpt lat="44.43255422117986" lon="8.567387922553953"><ele>1274.8333333333335</ele><time>2026-04-25T08:48:11.999Z</time></trkpt><trkpt lat="44.43257386808505" lon="8.567481672426792"><ele>1274.0</ele><time>2026-04-25T08:48:12.999Z</time></trkpt><trkpt lat="44.43257653045727" lon="8.567651828121456"><ele>1274.0</ele><time>2026-04-25T08:48:14.999Z</time></trkpt><trkpt lat="44.43257762371385" lon="8.567814255640592"><ele>1274.0</ele><time>2026-04-25T08:48:16.999Z</time></trkpt><trkpt lat="44.4325837364545" lon="8.567912238932541"><ele>1274.0</ele><time>2026-04-25T08:48:17.999Z</time></trkpt><trkpt lat="44.43258823045233" lon="8.568017621300404"><ele>1274.0</ele><time>2026-04-25T08:48:18.999Z</time></trkpt><trkpt lat="44.43259126043612" lon="8.568129933387322"><ele>1274.0</ele><time>2026-04-25T08:48:19.999Z</time></trkpt><trkpt lat="44.43258246892433" lon="8.568243631041375"><ele>1274.0</ele><time>2026-04-25T08:48:20.999Z</time></trkpt><trkpt lat="44.43256296998699" lon="8.568355135871577"><ele>1273.0</ele><time>2026-04-25T08:48:21.999Z</time></trkpt><trkpt lat="44.432535259069105" lon="8.568471961863942"><ele>1272.0</ele><time>2026-04-25T08:48:22.999Z</time></trkpt><trkpt lat="44.43251001080164" lon="8.568580688679637"><ele>1271.0</ele><time>2026-04-25T08:48:23.999Z</time></trkpt><trkpt lat="44.43248712875041" lon="8.568694673890636"><ele>1270.0</ele><time>2026-04-25T08:48:24.999Z</time></trkpt><trkpt lat="44.43245403623574" lon="8.568800867482455"><ele>1269.0</ele><time>2026-04-25T08:48:25.999Z</time></trkpt><trkpt lat="44.43244939809578" lon="8.568898851406871"><ele>1268.0</ele><time>2026-04-25T08:48:26.999Z</time></trkpt><trkpt lat="44.43241844762737" lon="8.568986858025728"><ele>1266.4</ele><time>2026-04-25T08:48:27.999Z</time></trkpt><trkpt lat="44.43241877484923" lon="8.569075971136591"><ele>1264.8</ele><time>2026-04-25T08:48:28.999Z</time></trkpt><trkpt lat="44.432397677690574" lon="8.5692086135576"><ele>1263.2</ele><time>2026-04-25T08:48:30.999Z</time></trkpt><trkpt lat="44.43237184013217" lon="8.569357068927975"><ele>1261.6</ele><time>2026-04-25T08:48:32.999Z</time></trkpt><trkpt lat="44.43235459308129" lon="8.569517227016332"><ele>1260.0</ele><time>2026-04-25T08:48:34.999Z</time></trkpt><trkpt lat="44.43237548858799" lon="8.56960340847179"><ele>1258.4</ele><time>2026-04-25T08:48:35.999Z</time></trkpt><trkpt lat="44.432369500543395" lon="8.56978368929529"><ele>1256.8</ele><time>2026-04-25T08:48:37.999Z</time></trkpt><trkpt lat="44.432351350186096" lon="8.569869814739361"><ele>1255.2</ele><time>2026-04-25T08:48:38.999Z</time></trkpt><trkpt lat="44.43229001500792" lon="8.570002754598319"><ele>1253.6</ele><time>2026-04-25T08:48:40.999Z</time></trkpt><trkpt lat="44.43220645281369" lon="8.570100351373082"><ele>1252.0</ele><time>2026-04-25T08:48:42.999Z</time></trkpt><trkpt lat="44.43211680823609" lon="8.570179512512341"><ele>1251.2</ele><time>2026-04-25T08:48:44.999Z</time></trkpt><trkpt lat="44.432032487889785" lon="8.570246904907668"><ele>1250.4</ele><time>2026-04-25T08:48:46.999Z</time></trkpt><trkpt lat="44.431952552519284" lon="8.570301531948237"><ele>1249.6</ele><time>2026-04-25T08:48:48.999Z</time></trkpt><trkpt lat="44.43190166248483" lon="8.5703961122277"><ele>1248.8</ele><time>2026-04-25T08:48:50.999Z</time></trkpt><trkpt lat="44.43185865405184" lon="8.570530947146247"><ele>1248.0</ele><time>2026-04-25T08:48:52.999Z</time></trkpt><trkpt lat="44.431827094708446" lon="8.570693492630982"><ele>1247.2857142857144</ele><time>2026-04-25T08:48:54.999Z</time></trkpt><trkpt lat="44.4318007894725" lon="8.570777043766308"><ele>1246.5714285714284</ele><time>2026-04-25T08:48:55.999Z</time></trkpt><trkpt lat="44.43177468879028" lon="8.570866455923461"><ele>1245.857142857143</ele><time>2026-04-25T08:48:56.999Z</time></trkpt><trkpt lat="44.43173754557078" lon="8.570946090817552"><ele>1245.1428571428573</ele><time>2026-04-25T08:48:57.999Z</time></trkpt><trkpt lat="44.43170897973029" lon="8.571042717826304"><ele>1244.4285714285716</ele><time>2026-04-25T08:48:58.999Z</time></trkpt><trkpt lat="44.43168153371743" lon="8.571143802975357"><ele>1243.7142857142858</ele><time>2026-04-25T08:48:59.999Z</time></trkpt><trkpt lat="44.43165578876013" lon="8.571249691616952"><ele>1243.0</ele><time>2026-04-25T08:49:00.999Z</time></trkpt><trkpt lat="44.43163502419136" lon="8.571355881483727"><ele>1242.857142857143</ele><time>2026-04-25T08:49:01.999Z</time></trkpt><trkpt lat="44.4316340810883" lon="8.571473328951829"><ele>1242.7142857142858</ele><time>2026-04-25T08:49:02.999Z</time></trkpt><trkpt lat="44.431618022344296" lon="8.571577744892787"><ele>1242.5714285714284</ele><time>2026-04-25T08:49:03.999Z</time></trkpt><trkpt lat="44.43160686953187" lon="8.571679056678816"><ele>1242.4285714285716</ele><time>2026-04-25T08:49:04.999Z</time></trkpt><trkpt lat="44.4316017910437" lon="8.571777504190555"><ele>1242.2857142857142</ele><time>2026-04-25T08:49:05.999Z</time></trkpt><trkpt lat="44.431599509279486" lon="8.571873806658628"><ele>1242.142857142857</ele><time>2026-04-25T08:49:06.999Z</time></trkpt><trkpt lat="44.43160020493168" lon="8.571969103325499"><ele>1242.0</ele><time>2026-04-25T08:49:07.999Z</time></trkpt><trkpt lat="44.43159989588875" lon="8.572059072867326"><ele>1241.6</ele><time>2026-04-25T08:49:08.999Z</time></trkpt><trkpt lat="44.43157402881211" lon="8.572209718620286"><ele>1241.2</ele><time>2026-04-25T08:49:10.999Z</time></trkpt><trkpt lat="44.431545516800796" lon="8.572315935489481"><ele>1240.8</ele><time>2026-04-25T08:49:12.999Z</time></trkpt><trkpt lat="44.43144115363149" lon="8.57231983433444"><ele>1240.4</ele><time>2026-04-25T08:49:14.999Z</time></trkpt><trkpt lat="44.431323829521716" lon="8.572240283589116"><ele>1240.0</ele><time>2026-04-25T08:49:16.999Z</time></trkpt><trkpt lat="44.43125734978037" lon="8.572195711950862"><ele>1237.4</ele><time>2026-04-25T08:49:17.998Z</time></trkpt><trkpt lat="44.43118698709864" lon="8.57215041282994"><ele>1234.8</ele><time>2026-04-25T08:49:18.998Z</time></trkpt><trkpt lat="44.43111916721564" lon="8.572110287673578"><ele>1232.2</ele><time>2026-04-25T08:49:19.998Z</time></trkpt><trkpt lat="44.43100826656302" lon="8.572063852474441"><ele>1229.6</ele><time>2026-04-25T08:49:21.998Z</time></trkpt><trkpt lat="44.43088563533963" lon="8.57205049382117"><ele>1227.0</ele><time>2026-04-25T08:49:23.998Z</time></trkpt><trkpt lat="44.430817851122015" lon="8.572087385553063"><ele>1227.0</ele><time>2026-04-25T08:49:25Z</time></trkpt><trkpt lat="44.4307571955986" lon="8.572153466693337"><ele>1227.0</ele><time>2026-04-25T08:49:26Z</time></trkpt><trkpt lat="44.430702215368406" lon="8.572216362442994"><ele>1227.0</ele><time>2026-04-25T08:49:27Z</time></trkpt><trkpt lat="44.43064955774014" lon="8.572282858460532"><ele>1227.0</ele><time>2026-04-25T08:49:28Z</time></trkpt><trkpt lat="44.4306072354122" lon="8.57236578282455"><ele>1227.0</ele><time>2026-04-25T08:49:29Z</time></trkpt><trkpt lat="44.430556230008705" lon="8.572428856620926"><ele>1227.0</ele><time>2026-04-25T08:49:30Z</time></trkpt><trkpt lat="44.43050173484296" lon="8.572489125578759"><ele>1227.0</ele><time>2026-04-25T08:49:31Z</time></trkpt><trkpt lat="44.43046063920104" lon="8.572570429697572"><ele>1224.8333333333333</ele><time>2026-04-25T08:49:32Z</time></trkpt><trkpt lat="44.430434473774966" lon="8.572661974951675"><ele>1222.6666666666667</ele><time>2026-04-25T08:49:33Z</time></trkpt><trkpt lat="44.430427025343285" lon="8.572758599164835"><ele>1220.5</ele><time>2026-04-25T08:49:34Z</time></trkpt><trkpt lat="44.43042360517825" lon="8.57285421735301"><ele>1218.3333333333335</ele><time>2026-04-25T08:49:35Z</time></trkpt><trkpt lat="44.43041969847815" lon="8.572959785605697"><ele>1216.1666666666667</ele><time>2026-04-25T08:49:36Z</time></trkpt><trkpt lat="44.43041532008993" lon="8.573078100084443"><ele>1214.0</ele><time>2026-04-25T08:49:37Z</time></trkpt><trkpt lat="44.43042639077297" lon="8.573200986719298"><ele>1213.5</ele><time>2026-04-25T08:49:38Z</time></trkpt><trkpt lat="44.430415406686635" lon="8.573324328641315"><ele>1213.0</ele><time>2026-04-25T08:49:39Z</time></trkpt><trkpt lat="44.430403883492225" lon="8.573442033072219"><ele>1212.5</ele><time>2026-04-25T08:49:40Z</time></trkpt><trkpt lat="44.430390873655824" lon="8.573550658417057"><ele>1212.0</ele><time>2026-04-25T08:49:41Z</time></trkpt><trkpt lat="44.43038565796316" lon="8.573652853002669"><ele>1211.5</ele><time>2026-04-25T08:49:42Z</time></trkpt><trkpt lat="44.43040222367646" lon="8.573758036756942"><ele>1211.0</ele><time>2026-04-25T08:49:43Z</time></trkpt><trkpt lat="44.43042325113838" lon="8.573862477300004"><ele>1211.6666666666667</ele><time>2026-04-25T08:49:44Z</time></trkpt><trkpt lat="44.43045577775069" lon="8.573960836387847"><ele>1212.3333333333335</ele><time>2026-04-25T08:49:45Z</time></trkpt><trkpt lat="44.43048955515439" lon="8.574061231463311"><ele>1213.0</ele><time>2026-04-25T08:49:46Z</time></trkpt><trkpt lat="44.43052473253932" lon="8.574158452643989"><ele>1213.6666666666667</ele><time>2026-04-25T08:49:47Z</time></trkpt><trkpt lat="44.43055588194711" lon="8.574257077152254"><ele>1214.3333333333333</ele><time>2026-04-25T08:49:48Z</time></trkpt><trkpt lat="44.43058079434784" lon="8.574352301038662"><ele>1215.0</ele><time>2026-04-25T08:49:49Z</time></trkpt><trkpt lat="44.430605037562884" lon="8.57444807156876"><ele>1213.1666666666667</ele><time>2026-04-25T08:49:50Z</time></trkpt><trkpt lat="44.43062743815354" lon="8.574541661130105"><ele>1211.3333333333333</ele><time>2026-04-25T08:49:51Z</time></trkpt><trkpt lat="44.43065128534963" lon="8.574640055085984"><ele>1209.5</ele><time>2026-04-25T08:49:52Z</time></trkpt><trkpt lat="44.430680629722296" lon="8.574748234962717"><ele>1207.6666666666665</ele><time>2026-04-25T08:49:53Z</time></trkpt><trkpt lat="44.43071255746192" lon="8.574862378959521"><ele>1205.8333333333333</ele><time>2026-04-25T08:49:54Z</time></trkpt><trkpt lat="44.43073885129406" lon="8.574971922714157"><ele>1204.0</ele><time>2026-04-25T08:49:55Z</time></trkpt><trkpt lat="44.43077142309303" lon="8.575075104591056"><ele>1204.0</ele><time>2026-04-25T08:49:56Z</time></trkpt><trkpt lat="44.43080926319167" lon="8.57517524703994"><ele>1204.0</ele><time>2026-04-25T08:49:57Z</time></trkpt><trkpt lat="44.4308512609642" lon="8.575270827949593"><ele>1204.0</ele><time>2026-04-25T08:49:58Z</time></trkpt><trkpt lat="44.43088931982237" lon="8.575360180997537"><ele>1204.0</ele><time>2026-04-25T08:49:59Z</time></trkpt><trkpt lat="44.43091633979783" lon="8.575458269239075"><ele>1204.0</ele><time>2026-04-25T08:50:00Z</time></trkpt><trkpt lat="44.43092295540974" lon="8.575562599135957"><ele>1204.0</ele><time>2026-04-25T08:50:01Z</time></trkpt><trkpt lat="44.430910026425" lon="8.575676103602163"><ele>1202.6666666666665</ele><time>2026-04-25T08:50:02Z</time></trkpt><trkpt lat="44.43086661260778" lon="8.575783165662223"><ele>1201.3333333333333</ele><time>2026-04-25T08:50:03Z</time></trkpt><trkpt lat="44.430827332465704" lon="8.575906857213598"><ele>1200.0</ele><time>2026-04-25T08:50:04Z</time></trkpt><trkpt lat="44.43080291020044" lon="8.57603154803669"><ele>1198.6666666666667</ele><time>2026-04-25T08:50:05Z</time></trkpt><trkpt lat="44.43076078291983" lon="8.576140229113122"><ele>1197.3333333333335</ele><time>2026-04-25T08:50:06Z</time></trkpt><trkpt lat="44.430719063701716" lon="8.576235385403455"><ele>1196.0</ele><time>2026-04-25T08:50:07Z</time></trkpt><trkpt lat="44.43066230434001" lon="8.57629564589338"><ele>1195.0</ele><time>2026-04-25T08:50:07.999Z</time></trkpt><trkpt lat="44.43055165260844" lon="8.576360680182031"><ele>1194.0</ele><time>2026-04-25T08:50:09.999Z</time></trkpt><trkpt lat="44.43048199601082" lon="8.576372686506188"><ele>1193.0</ele><time>2026-04-25T08:50:10.999Z</time></trkpt><trkpt lat="44.43040428422946" lon="8.576417697267347"><ele>1192.0</ele><time>2026-04-25T08:50:11.999Z</time></trkpt><trkpt lat="44.430325215746905" lon="8.576449980210324"><ele>1191.0</ele><time>2026-04-25T08:50:12.999Z</time></trkpt><trkpt lat="44.430246294657366" lon="8.57646858453351"><ele>1190.0</ele><time>2026-04-25T08:50:13.999Z</time></trkpt><trkpt lat="44.43018044730337" lon="8.576534627101639"><ele>1188.6666666666667</ele><time>2026-04-25T08:50:14.999Z</time></trkpt><trkpt lat="44.43013101639306" lon="8.576617777521534"><ele>1187.3333333333335</ele><time>2026-04-25T08:50:15.999Z</time></trkpt><trkpt lat="44.43009475250033" lon="8.576716904543103"><ele>1186.0</ele><time>2026-04-25T08:50:16.999Z</time></trkpt><trkpt lat="44.43006708017674" lon="8.576813518056202"><ele>1184.6666666666667</ele><time>2026-04-25T08:50:17.999Z</time></trkpt><trkpt lat="44.43005852152257" lon="8.576920867488386"><ele>1183.3333333333333</ele><time>2026-04-25T08:50:18.999Z</time></trkpt><trkpt lat="44.43003610097589" lon="8.577028309596614"><ele>1182.0</ele><time>2026-04-25T08:50:19.999Z</time></trkpt><trkpt lat="44.43001767354914" lon="8.577135546299246"><ele>1180.8333333333333</ele><time>2026-04-25T08:50:20.999Z</time></trkpt><trkpt lat="44.43001266943749" lon="8.577242470229244"><ele>1179.6666666666667</ele><time>2026-04-25T08:50:21.999Z</time></trkpt><trkpt lat="44.430019234807524" lon="8.577351544851183"><ele>1178.5</ele><time>2026-04-25T08:50:22.999Z</time></trkpt><trkpt lat="44.430035043717865" lon="8.577458662580772"><ele>1177.3333333333335</ele><time>2026-04-25T08:50:23.999Z</time></trkpt><trkpt lat="44.430062315188096" lon="8.577560306101542"><ele>1176.1666666666667</ele><time>2026-04-25T08:50:24.999Z</time></trkpt><trkpt lat="44.4300991689362" lon="8.577653884387773"><ele>1175.0</ele><time>2026-04-25T08:50:25.999Z</time></trkpt><trkpt lat="44.430150316399" lon="8.577742642475433"><ele>1175.0</ele><time>2026-04-25T08:50:26.999Z</time></trkpt><trkpt lat="44.43020216216387" lon="8.5778330150973"><ele>1175.0</ele><time>2026-04-25T08:50:27.999Z</time></trkpt><trkpt lat="44.43024815312021" lon="8.577930736621733"><ele>1175.0</ele><time>2026-04-25T08:50:28.999Z</time></trkpt><trkpt lat="44.430269084428346" lon="8.578052306371887"><ele>1175.0</ele><time>2026-04-25T08:50:29.999Z</time></trkpt><trkpt lat="44.430318606712724" lon="8.57814472739216"><ele>1175.0</ele><time>2026-04-25T08:50:30.999Z</time></trkpt><trkpt lat="44.430363096925305" lon="8.578248428588553"><ele>1175.0</ele><time>2026-04-25T08:50:31.999Z</time></trkpt><trkpt lat="44.43040247599298" lon="8.578356237517331"><ele>1174.3333333333335</ele><time>2026-04-25T08:50:32.999Z</time></trkpt><trkpt lat="44.430452280422784" lon="8.578455261123052"><ele>1173.6666666666667</ele><time>2026-04-25T08:50:33.999Z</time></trkpt><trkpt lat="44.43050503076978" lon="8.578557523379834"><ele>1173.0</ele><time>2026-04-25T08:50:34.999Z</time></trkpt><trkpt lat="44.430559476536416" lon="8.578659041702897"><ele>1172.3333333333333</ele><time>2026-04-25T08:50:35.999Z</time></trkpt><trkpt lat="44.430615827403386" lon="8.578762885015546"><ele>1171.6666666666665</ele><time>2026-04-25T08:50:36.999Z</time></trkpt><trkpt lat="44.430662753851124" lon="8.578855381155417"><ele>1171.0</ele><time>2026-04-25T08:50:37.999Z</time></trkpt><trkpt lat="44.43071354911332" lon="8.578956717884434"><ele>1169.5</ele><time>2026-04-25T08:50:38.999Z</time></trkpt><trkpt lat="44.43071152180805" lon="8.57908794800209"><ele>1168.0</ele><time>2026-04-25T08:50:39.999Z</time></trkpt><trkpt lat="44.43072615894657" lon="8.579210373078737"><ele>1166.5</ele><time>2026-04-25T08:50:40.999Z</time></trkpt><trkpt lat="44.43073776424231" lon="8.57933134928111"><ele>1165.0</ele><time>2026-04-25T08:50:41.999Z</time></trkpt><trkpt lat="44.43074355910306" lon="8.579449228577968"><ele>1163.5</ele><time>2026-04-25T08:50:42.999Z</time></trkpt><trkpt lat="44.430743167781" lon="8.579566720084676"><ele>1162.0</ele><time>2026-04-25T08:50:43.999Z</time></trkpt><trkpt lat="44.43074175642628" lon="8.579682937644176"><ele>1161.857142857143</ele><time>2026-04-25T08:50:44.999Z</time></trkpt><trkpt lat="44.43074049814449" lon="8.579789862598853"><ele>1161.7142857142858</ele><time>2026-04-25T08:50:45.999Z</time></trkpt><trkpt lat="44.43073443248802" lon="8.579886256791092"><ele>1161.5714285714284</ele><time>2026-04-25T08:50:46.999Z</time></trkpt><trkpt lat="44.430720867208414" lon="8.579985047526359"><ele>1161.4285714285716</ele><time>2026-04-25T08:50:47.999Z</time></trkpt><trkpt lat="44.43069746344866" lon="8.580081208813715"><ele>1161.2857142857142</ele><time>2026-04-25T08:50:48.999Z</time></trkpt><trkpt lat="44.430670993051606" lon="8.580180082018204"><ele>1161.142857142857</ele><time>2026-04-25T08:50:49.999Z</time></trkpt><trkpt lat="44.430631095627284" lon="8.580264408585897"><ele>1161.0</ele><time>2026-04-25T08:50:50.999Z</time></trkpt><trkpt lat="44.43056961514524" lon="8.580353057383254"><ele>1161.0</ele><time>2026-04-25T08:50:51.999Z</time></trkpt><trkpt lat="44.4305055499404" lon="8.580445498855182"><ele>1161.0</ele><time>2026-04-25T08:50:52.999Z</time></trkpt><trkpt lat="44.43045840219724" lon="8.580536014043387"><ele>1161.0</ele><time>2026-04-25T08:50:53.999Z</time></trkpt><trkpt lat="44.430422518809706" lon="8.58061663909318"><ele>1161.0</ele><time>2026-04-25T08:50:54.999Z</time></trkpt><trkpt lat="44.430372635167956" lon="8.58068947935806"><ele>1161.0</ele><time>2026-04-25T08:50:55.999Z</time></trkpt><trkpt lat="44.43034485506519" lon="8.580769707219098"><ele>1161.0</ele><time>2026-04-25T08:50:56.999Z</time></trkpt><trkpt lat="44.430319863105645" lon="8.580872775693086"><ele>1158.5</ele><time>2026-04-25T08:50:57.999Z</time></trkpt><trkpt lat="44.43030610622851" lon="8.580981726108547"><ele>1156.0</ele><time>2026-04-25T08:50:58.999Z</time></trkpt><trkpt lat="44.43030375444272" lon="8.581096501693802"><ele>1153.5</ele><time>2026-04-25T08:50:59.999Z</time></trkpt><trkpt lat="44.430305446228225" lon="8.581224230733646"><ele>1151.0</ele><time>2026-04-25T08:51:00.999Z</time></trkpt><trkpt lat="44.43031100463607" lon="8.581331654894562"><ele>1148.5</ele><time>2026-04-25T08:51:01.999Z</time></trkpt><trkpt lat="44.4303174884962" lon="8.581442839061115"><ele>1146.0</ele><time>2026-04-25T08:51:02.999Z</time></trkpt><trkpt lat="44.43032144948151" lon="8.581553409549619"><ele>1145.5</ele><time>2026-04-25T08:51:03.999Z</time></trkpt><trkpt lat="44.43032432026645" lon="8.581667839268428"><ele>1145.0</ele><time>2026-04-25T08:51:04.999Z</time></trkpt><trkpt lat="44.430323510087895" lon="8.581791066381237"><ele>1144.5</ele><time>2026-04-25T08:51:05.999Z</time></trkpt><trkpt lat="44.43031162786057" lon="8.581900853720557"><ele>1144.0</ele><time>2026-04-25T08:51:06.999Z</time></trkpt><trkpt lat="44.43030054955411" lon="8.582006131201341"><ele>1143.5</ele><time>2026-04-25T08:51:07.999Z</time></trkpt><trkpt lat="44.43029342371633" lon="8.582109370437589"><ele>1143.0</ele><time>2026-04-25T08:51:08.999Z</time></trkpt><trkpt lat="44.430292254421076" lon="8.58220115319974"><ele>1142.6666666666667</ele><time>2026-04-25T08:51:09.999Z</time></trkpt><trkpt lat="44.430296763727334" lon="8.582296865662169"><ele>1142.3333333333333</ele><time>2026-04-25T08:51:10.999Z</time></trkpt><trkpt lat="44.43031089163172" lon="8.58238603660969"><ele>1142.0</ele><time>2026-04-25T08:51:11.999Z</time></trkpt><trkpt lat="44.43033995325718" lon="8.582472374249216"><ele>1141.6666666666665</ele><time>2026-04-25T08:51:12.999Z</time></trkpt><trkpt lat="44.43038024411978" lon="8.582619302965394"><ele>1141.3333333333333</ele><time>2026-04-25T08:51:14.999Z</time></trkpt><trkpt lat="44.43038357345999" lon="8.582772475092302"><ele>1141.0</ele><time>2026-04-25T08:51:16.999Z</time></trkpt><trkpt lat="44.4303707846255" lon="8.58294352418725"><ele>1141.0</ele><time>2026-04-25T08:51:18.999Z</time></trkpt><trkpt lat="44.43035593706114" lon="8.583036444731002"><ele>1141.0</ele><time>2026-04-25T08:51:19.998Z</time></trkpt><trkpt lat="44.430336402590775" lon="8.583123171489268"><ele>1141.0</ele><time>2026-04-25T08:51:20.998Z</time></trkpt><trkpt lat="44.43030715719744" lon="8.583212128400755"><ele>1141.0</ele><time>2026-04-25T08:51:21.998Z</time></trkpt><trkpt lat="44.43026275253976" lon="8.58329796012041"><ele>1141.0</ele><time>2026-04-25T08:51:22.998Z</time></trkpt><trkpt lat="44.43020813238771" lon="8.583385347902526"><ele>1141.0</ele><time>2026-04-25T08:51:23.998Z</time></trkpt><trkpt lat="44.430150684618724" lon="8.583481776617901"><ele>1141.0</ele><time>2026-04-25T08:51:24.998Z</time></trkpt><trkpt lat="44.43010044844158" lon="8.58356485648471"><ele>1141.0</ele><time>2026-04-25T08:51:25.998Z</time></trkpt><trkpt lat="44.43005164046459" lon="8.58363662123142"><ele>1141.0</ele><time>2026-04-25T08:51:26.998Z</time></trkpt><trkpt lat="44.42996298557193" lon="8.583743197688058"><ele>1141.0</ele><time>2026-04-25T08:51:28.998Z</time></trkpt><trkpt lat="44.429897552125915" lon="8.583770601511445"><ele>1141.0</ele><time>2026-04-25T08:51:30Z</time></trkpt><trkpt lat="44.429817231054756" lon="8.583781205979841"><ele>1141.0</ele><time>2026-04-25T08:51:31Z</time></trkpt><trkpt lat="44.429733001481615" lon="8.583768992089224"><ele>1141.2</ele><time>2026-04-25T08:51:32Z</time></trkpt><trkpt lat="44.429661946906194" lon="8.583813542686169"><ele>1141.3999999999999</ele><time>2026-04-25T08:51:33Z</time></trkpt><trkpt lat="44.42958276633694" lon="8.583854098628278"><ele>1141.6</ele><time>2026-04-25T08:51:34Z</time></trkpt><trkpt lat="44.42949055195006" lon="8.583893410536584"><ele>1141.8</ele><time>2026-04-25T08:51:35Z</time></trkpt><trkpt lat="44.42938897905635" lon="8.583963323936407"><ele>1142.0</ele><time>2026-04-25T08:51:36Z</time></trkpt><trkpt lat="44.42929002279484" lon="8.584029120638446"><ele>1142.0</ele><time>2026-04-25T08:51:37Z</time></trkpt><trkpt lat="44.42919623624373" lon="8.584091479958241"><ele>1142.0</ele><time>2026-04-25T08:51:38Z</time></trkpt><trkpt lat="44.42910999385292" lon="8.584163335906402"><ele>1142.0</ele><time>2026-04-25T08:51:39Z</time></trkpt><trkpt lat="44.429034231182065" lon="8.584230934035267"><ele>1142.0</ele><time>2026-04-25T08:51:40Z</time></trkpt><trkpt lat="44.42895675431907" lon="8.584289826061205"><ele>1142.0</ele><time>2026-04-25T08:51:41Z</time></trkpt><trkpt lat="44.42888619621849" lon="8.584335340977574"><ele>1142.0</ele><time>2026-04-25T08:51:42Z</time></trkpt><trkpt lat="44.428816595140475" lon="8.58437876844784"><ele>1142.0</ele><time>2026-04-25T08:51:43Z</time></trkpt><trkpt lat="44.42874894069269" lon="8.584420981360598"><ele>1142.0</ele><time>2026-04-25T08:51:44Z</time></trkpt><trkpt lat="44.42867974419257" lon="8.584464790052671"><ele>1142.0</ele><time>2026-04-25T08:51:45Z</time></trkpt><trkpt lat="44.42862153803626" lon="8.584503599773335"><ele>1142.0</ele><time>2026-04-25T08:51:46Z</time></trkpt><trkpt lat="44.428559944076845" lon="8.58454977086761"><ele>1142.0</ele><time>2026-04-25T08:51:47Z</time></trkpt><trkpt lat="44.42850910252189" lon="8.584602152882342"><ele>1142.0</ele><time>2026-04-25T08:51:48Z</time></trkpt><trkpt lat="44.428440004222296" lon="8.584737277490277"><ele>1139.8333333333335</ele><time>2026-04-25T08:51:50Z</time></trkpt><trkpt lat="44.42839985961015" lon="8.584892824884895"><ele>1137.6666666666667</ele><time>2026-04-25T08:51:52Z</time></trkpt><trkpt lat="44.42839575438556" lon="8.584982116537208"><ele>1135.5</ele><time>2026-04-25T08:51:53Z</time></trkpt><trkpt lat="44.42840427690305" lon="8.585076107709869"><ele>1133.3333333333333</ele><time>2026-04-25T08:51:54Z</time></trkpt><trkpt lat="44.428414910540525" lon="8.585173778781417"><ele>1131.1666666666665</ele><time>2026-04-25T08:51:55Z</time></trkpt><trkpt lat="44.42842547808489" lon="8.585279716829051"><ele>1129.0</ele><time>2026-04-25T08:51:56Z</time></trkpt><trkpt lat="44.42842121295525" lon="8.585374089698611"><ele>1128.6666666666665</ele><time>2026-04-25T08:51:57Z</time></trkpt><trkpt lat="44.42841585900234" lon="8.585465326347881"><ele>1128.3333333333333</ele><time>2026-04-25T08:51:58Z</time></trkpt><trkpt lat="44.428383040614136" lon="8.58554859858021"><ele>1128.0</ele><time>2026-04-25T08:51:59Z</time></trkpt><trkpt lat="44.428326912399015" lon="8.585687228871675"><ele>1127.6666666666667</ele><time>2026-04-25T08:52:01Z</time></trkpt><trkpt lat="44.428285241056116" lon="8.585757824994932"><ele>1127.3333333333335</ele><time>2026-04-25T08:52:02Z</time></trkpt><trkpt lat="44.42823913132541" lon="8.585833929783323"><ele>1127.0</ele><time>2026-04-25T08:52:03Z</time></trkpt><trkpt lat="44.42819224211255" lon="8.585912062381269"><ele>1127.0</ele><time>2026-04-25T08:52:03.999Z</time></trkpt><trkpt lat="44.42815838524022" lon="8.58600561402662"><ele>1127.0</ele><time>2026-04-25T08:52:04.999Z</time></trkpt><trkpt lat="44.42811402728925" lon="8.586075675423775"><ele>1127.0</ele><time>2026-04-25T08:52:05.999Z</time></trkpt><trkpt lat="44.428039603260444" lon="8.586200872339727"><ele>1127.0</ele><time>2026-04-25T08:52:07.999Z</time></trkpt><trkpt lat="44.42797095738091" lon="8.586338860561057"><ele>1127.0</ele><time>2026-04-25T08:52:09.999Z</time></trkpt><trkpt lat="44.42788859049141" lon="8.586463687395918"><ele>1124.8333333333335</ele><time>2026-04-25T08:52:11.999Z</time></trkpt><trkpt lat="44.427829979362485" lon="8.586586247220419"><ele>1122.6666666666667</ele><time>2026-04-25T08:52:13.999Z</time></trkpt><trkpt lat="44.42778632970937" lon="8.586701504022717"><ele>1120.5</ele><time>2026-04-25T08:52:15.999Z</time></trkpt><trkpt lat="44.427766980699126" lon="8.586812062246032"><ele>1118.3333333333333</ele><time>2026-04-25T08:52:18.999Z</time></trkpt><trkpt lat="44.427793595355176" lon="8.586908816978015"><ele>1116.1666666666665</ele><time>2026-04-25T08:52:20.999Z</time></trkpt><trkpt lat="44.427855196379625" lon="8.58696717784342"><ele>1114.0</ele><time>2026-04-25T08:52:22.999Z</time></trkpt><trkpt lat="44.42791402954468" lon="8.58700057939181"><ele>1113.3333333333333</ele><time>2026-04-25T08:52:24.999Z</time></trkpt><trkpt lat="44.42798549145126" lon="8.58705059935234"><ele>1112.6666666666665</ele><time>2026-04-25T08:52:26.999Z</time></trkpt><trkpt lat="44.42807688882143" lon="8.58710354357925"><ele>1112.0</ele><time>2026-04-25T08:52:28.999Z</time></trkpt><trkpt lat="44.42814059746477" lon="8.587117366167506"><ele>1111.3333333333333</ele><time>2026-04-25T08:52:29.999Z</time></trkpt><trkpt lat="44.428207570014756" lon="8.587166377054816"><ele>1110.6666666666667</ele><time>2026-04-25T08:52:30.999Z</time></trkpt><trkpt lat="44.42827617103376" lon="8.587194477422363"><ele>1110.0</ele><time>2026-04-25T08:52:31.999Z</time></trkpt><trkpt lat="44.42834784131403" lon="8.587208775803104"><ele>1110.0</ele><time>2026-04-25T08:52:32.999Z</time></trkpt><trkpt lat="44.42841027427703" lon="8.587220426352621"><ele>1110.0</ele><time>2026-04-25T08:52:33.999Z</time></trkpt><trkpt lat="44.42846504341454" lon="8.587265094085401"><ele>1110.0</ele><time>2026-04-25T08:52:34.999Z</time></trkpt><trkpt lat="44.42856247017541" lon="8.587349845882407"><ele>1110.0</ele><time>2026-04-25T08:52:36.999Z</time></trkpt><trkpt lat="44.42862917525766" lon="8.587452098640712"><ele>1110.0</ele><time>2026-04-25T08:52:38.999Z</time></trkpt><trkpt lat="44.42872366206517" lon="8.587463827165914"><ele>1110.0</ele><time>2026-04-25T08:52:40.999Z</time></trkpt><trkpt lat="44.428799575080774" lon="8.587441386524171"><ele>1110.3333333333333</ele><time>2026-04-25T08:52:42.999Z</time></trkpt><trkpt lat="44.42887573329927" lon="8.587375304823539"><ele>1110.6666666666667</ele><time>2026-04-25T08:52:44.999Z</time></trkpt><trkpt lat="44.428946970807594" lon="8.587329569079461"><ele>1111.0</ele><time>2026-04-25T08:52:45.999Z</time></trkpt><trkpt lat="44.42900947182504" lon="8.587253466890957"><ele>1111.3333333333335</ele><time>2026-04-25T08:52:46.999Z</time></trkpt><trkpt lat="44.42906730839686" lon="8.587184587475203"><ele>1111.6666666666667</ele><time>2026-04-25T08:52:47.999Z</time></trkpt><trkpt lat="44.429150174575575" lon="8.587075998103536"><ele>1112.0</ele><time>2026-04-25T08:52:49.999Z</time></trkpt><trkpt lat="44.429255914013275" lon="8.587011007028135"><ele>1113.4285714285713</ele><time>2026-04-25T08:52:51.999Z</time></trkpt><trkpt lat="44.42931658782672" lon="8.586981802691946"><ele>1114.857142857143</ele><time>2026-04-25T08:52:52.999Z</time></trkpt><trkpt lat="44.42938719437706" lon="8.586947434517516"><ele>1116.2857142857142</ele><time>2026-04-25T08:52:53.999Z</time></trkpt><trkpt lat="44.42945740355237" lon="8.586920425628685"><ele>1117.7142857142858</ele><time>2026-04-25T08:52:54.999Z</time></trkpt><trkpt lat="44.429536738050786" lon="8.586895392596036"><ele>1119.142857142857</ele><time>2026-04-25T08:52:55.999Z</time></trkpt><trkpt lat="44.4296086408428" lon="8.586872225701397"><ele>1120.5714285714284</ele><time>2026-04-25T08:52:56.999Z</time></trkpt><trkpt lat="44.42967281994316" lon="8.586852793336815"><ele>1122.0</ele><time>2026-04-25T08:52:57.999Z</time></trkpt><trkpt lat="44.42977829940993" lon="8.58681369292905"><ele>1122.1666666666667</ele><time>2026-04-25T08:52:59.999Z</time></trkpt><trkpt lat="44.42988190105369" lon="8.586750328239292"><ele>1122.3333333333333</ele><time>2026-04-25T08:53:01.999Z</time></trkpt><trkpt lat="44.429987590740716" lon="8.586688071912715"><ele>1122.5</ele><time>2026-04-25T08:53:03.999Z</time></trkpt><trkpt lat="44.43006717848507" lon="8.586658047838807"><ele>1122.6666666666665</ele><time>2026-04-25T08:53:04.999Z</time></trkpt><trkpt lat="44.43013156959835" lon="8.586639580834982"><ele>1122.8333333333333</ele><time>2026-04-25T08:53:05.999Z</time></trkpt><trkpt lat="44.43019879514887" lon="8.58662123077435"><ele>1123.0</ele><time>2026-04-25T08:53:06.999Z</time></trkpt><trkpt lat="44.430274700193756" lon="8.586601014203806"><ele>1123.0</ele><time>2026-04-25T08:53:07.999Z</time></trkpt><trkpt lat="44.43035086828" lon="8.58659961945944"><ele>1123.0</ele><time>2026-04-25T08:53:08.999Z</time></trkpt><trkpt lat="44.43043011822277" lon="8.586587918578518"><ele>1123.0</ele><time>2026-04-25T08:53:09.999Z</time></trkpt><trkpt lat="44.43054249326571" lon="8.586571326857257"><ele>1123.0</ele><time>2026-04-25T08:53:11.999Z</time></trkpt><trkpt lat="44.43063599307318" lon="8.586537135138874"><ele>1123.0</ele><time>2026-04-25T08:53:13.999Z</time></trkpt><trkpt lat="44.430704445799044" lon="8.586542863860004"><ele>1123.0</ele><time>2026-04-25T08:53:14.999Z</time></trkpt><trkpt lat="44.43078451033086" lon="8.58653888396944"><ele>1123.1666666666665</ele><time>2026-04-25T08:53:15.999Z</time></trkpt><trkpt lat="44.43086666743936" lon="8.586537257626244"><ele>1123.3333333333333</ele><time>2026-04-25T08:53:16.999Z</time></trkpt><trkpt lat="44.430954789634484" lon="8.586519301078111"><ele>1123.5</ele><time>2026-04-25T08:53:17.999Z</time></trkpt><trkpt lat="44.43103421741914" lon="8.586510278996336"><ele>1123.6666666666667</ele><time>2026-04-25T08:53:18.999Z</time></trkpt><trkpt lat="44.43110781204785" lon="8.586521757730951"><ele>1123.8333333333335</ele><time>2026-04-25T08:53:19.998Z</time></trkpt><trkpt lat="44.431208377651004" lon="8.586530659317422"><ele>1124.0</ele><time>2026-04-25T08:53:21.998Z</time></trkpt><trkpt lat="44.43130576160313" lon="8.58650521078234"><ele>1122.4</ele><time>2026-04-25T08:53:23.998Z</time></trkpt><trkpt lat="44.431410802315135" lon="8.586451646799397"><ele>1120.8000000000002</ele><time>2026-04-25T08:53:25.998Z</time></trkpt><trkpt lat="44.431498354063066" lon="8.586353179440714"><ele>1119.1999999999998</ele><time>2026-04-25T08:53:27.998Z</time></trkpt><trkpt lat="44.431568876905544" lon="8.586279251221237"><ele>1117.6</ele><time>2026-04-25T08:53:29.998Z</time></trkpt><trkpt lat="44.43167762847905" lon="8.586287708311204"><ele>1116.0</ele><time>2026-04-25T08:53:31.998Z</time></trkpt><trkpt lat="44.43173983221299" lon="8.586317483013692"><ele>1116.0</ele><time>2026-04-25T08:53:32.998Z</time></trkpt><trkpt lat="44.43180284974234" lon="8.586362819369208"><ele>1116.0</ele><time>2026-04-25T08:53:33.998Z</time></trkpt><trkpt lat="44.431866653693056" lon="8.586417445317045"><ele>1116.0</ele><time>2026-04-25T08:53:35Z</time></trkpt><trkpt lat="44.43192631699934" lon="8.586485520932042"><ele>1116.0</ele><time>2026-04-25T08:53:36Z</time></trkpt><trkpt lat="44.43199119017539" lon="8.586548978253782"><ele>1116.0</ele><time>2026-04-25T08:53:37Z</time></trkpt><trkpt lat="44.432063220325986" lon="8.586594374387776"><ele>1116.0</ele><time>2026-04-25T08:53:38Z</time></trkpt><trkpt lat="44.432140402212674" lon="8.58662872738537"><ele>1114.3333333333333</ele><time>2026-04-25T08:53:39Z</time></trkpt><trkpt lat="44.4322211192832" lon="8.586656668507738"><ele>1112.6666666666667</ele><time>2026-04-25T08:53:40Z</time></trkpt><trkpt lat="44.43230196549804" lon="8.586684041464697"><ele>1111.0</ele><time>2026-04-25T08:53:41Z</time></trkpt><trkpt lat="44.43238149317253" lon="8.586714814702368"><ele>1109.3333333333335</ele><time>2026-04-25T08:53:42Z</time></trkpt><trkpt lat="44.43245654634057" lon="8.586746577333898"><ele>1107.6666666666667</ele><time>2026-04-25T08:53:43Z</time></trkpt><trkpt lat="44.43252864690795" lon="8.586776591497582"><ele>1106.0</ele><time>2026-04-25T08:53:44Z</time></trkpt><trkpt lat="44.43259941592012" lon="8.586798419655798"><ele>1106.0</ele><time>2026-04-25T08:53:45Z</time></trkpt><trkpt lat="44.43267322402021" lon="8.586811774673903"><ele>1106.0</ele><time>2026-04-25T08:53:46Z</time></trkpt><trkpt lat="44.432750997155026" lon="8.586806282268427"><ele>1106.0</ele><time>2026-04-25T08:53:47Z</time></trkpt><trkpt lat="44.43283364822402" lon="8.586786268631057"><ele>1106.0</ele><time>2026-04-25T08:53:48Z</time></trkpt><trkpt lat="44.43289997725916" lon="8.58676472512986"><ele>1106.0</ele><time>2026-04-25T08:53:49Z</time></trkpt><trkpt lat="44.433000417152535" lon="8.586732951251216"><ele>1106.0</ele><time>2026-04-25T08:53:51Z</time></trkpt><trkpt lat="44.4331208869697" lon="8.58669675515885"><ele>1103.8333333333335</ele><time>2026-04-25T08:53:53Z</time></trkpt><trkpt lat="44.433185411338435" lon="8.58667428422219"><ele>1101.6666666666667</ele><time>2026-04-25T08:53:54Z</time></trkpt><trkpt lat="44.433251469800844" lon="8.58663489492523"><ele>1099.5</ele><time>2026-04-25T08:53:55Z</time></trkpt><trkpt lat="44.43332197821156" lon="8.586586663812872"><ele>1097.3333333333333</ele><time>2026-04-25T08:53:56Z</time></trkpt><trkpt lat="44.43339885303098" lon="8.586523916768362"><ele>1095.1666666666665</ele><time>2026-04-25T08:53:57Z</time></trkpt><trkpt lat="44.4334709578754" lon="8.586454428556682"><ele>1093.0</ele><time>2026-04-25T08:53:58Z</time></trkpt><trkpt lat="44.43354928879262" lon="8.586405035408104"><ele>1093.0</ele><time>2026-04-25T08:53:59Z</time></trkpt><trkpt lat="44.43361291265164" lon="8.586325147991785"><ele>1093.0</ele><time>2026-04-25T08:54:00Z</time></trkpt><trkpt lat="44.43368211697165" lon="8.586266224362571"><ele>1093.0</ele><time>2026-04-25T08:54:01Z</time></trkpt><trkpt lat="44.433753164354954" lon="8.586216431347456"><ele>1093.0</ele><time>2026-04-25T08:54:02Z</time></trkpt><trkpt lat="44.433820115773855" lon="8.586159323097036"><ele>1093.0</ele><time>2026-04-25T08:54:03Z</time></trkpt><trkpt lat="44.43388450962389" lon="8.586102289366943"><ele>1093.0</ele><time>2026-04-25T08:54:04Z</time></trkpt><trkpt lat="44.433941199394404" lon="8.586034350509589"><ele>1091.0</ele><time>2026-04-25T08:54:04.999Z</time></trkpt><trkpt lat="44.43400459586664" lon="8.585977820432374"><ele>1089.0</ele><time>2026-04-25T08:54:05.999Z</time></trkpt><trkpt lat="44.43405328796339" lon="8.58589634668551"><ele>1087.0</ele><time>2026-04-25T08:54:06.999Z</time></trkpt><trkpt lat="44.43409528701877" lon="8.585799216209388"><ele>1085.0</ele><time>2026-04-25T08:54:07.999Z</time></trkpt><trkpt lat="44.43412085560057" lon="8.58568480766254"><ele>1083.0</ele><time>2026-04-25T08:54:08.999Z</time></trkpt><trkpt lat="44.43413446318069" lon="8.585578879917913"><ele>1081.0</ele><time>2026-04-25T08:54:09.999Z</time></trkpt><trkpt lat="44.43411776237197" lon="8.58546831186026"><ele>1081.0</ele><time>2026-04-25T08:54:10.999Z</time></trkpt><trkpt lat="44.43412698394686" lon="8.585358930744938"><ele>1081.0</ele><time>2026-04-25T08:54:11.999Z</time></trkpt><trkpt lat="44.434124638721016" lon="8.585244221620878"><ele>1081.0</ele><time>2026-04-25T08:54:12.999Z</time></trkpt><trkpt lat="44.43412974574699" lon="8.585132580817373"><ele>1081.0</ele><time>2026-04-25T08:54:13.999Z</time></trkpt><trkpt lat="44.43412437845519" lon="8.585033039147294"><ele>1081.0</ele><time>2026-04-25T08:54:14.999Z</time></trkpt><trkpt lat="44.43410578427948" lon="8.584874914303468"><ele>1081.0</ele><time>2026-04-25T08:54:16.999Z</time></trkpt><trkpt lat="44.434117652198296" lon="8.584770751711863"><ele>1081.0</ele><time>2026-04-25T08:54:18.999Z</time></trkpt><trkpt lat="44.434197766112796" lon="8.584751643164253"><ele>1081.0</ele><time>2026-04-25T08:54:20.999Z</time></trkpt><trkpt lat="44.43428544622319" lon="8.584774032218197"><ele>1081.0</ele><time>2026-04-25T08:54:22.999Z</time></trkpt><trkpt lat="44.43435025796097" lon="8.58486212021234"><ele>1081.0</ele><time>2026-04-25T08:54:24.999Z</time></trkpt><trkpt lat="44.434402409229946" lon="8.584941681710134"><ele>1081.0</ele><time>2026-04-25T08:54:26.999Z</time></trkpt><trkpt lat="44.43447916786593" lon="8.584988284702328"><ele>1081.0</ele><time>2026-04-25T08:54:28.999Z</time></trkpt><trkpt lat="44.43457397353047" lon="8.58502130074155"><ele>1080.0</ele><time>2026-04-25T08:54:30.999Z</time></trkpt><trkpt lat="44.43464962298184" lon="8.585020460408115"><ele>1079.0</ele><time>2026-04-25T08:54:32.999Z</time></trkpt><trkpt lat="44.43471640929861" lon="8.584979524531581"><ele>1078.0</ele><time>2026-04-25T08:54:34.999Z</time></trkpt><trkpt lat="44.43478362126388" lon="8.584921218006038"><ele>1077.0</ele><time>2026-04-25T08:54:36.999Z</time></trkpt><trkpt lat="44.43484535973347" lon="8.584838185060041"><ele>1076.0</ele><time>2026-04-25T08:54:38.999Z</time></trkpt><trkpt lat="44.434921061848854" lon="8.584802812642607"><ele>1075.0</ele><time>2026-04-25T08:54:40.999Z</time></trkpt><trkpt lat="44.43501667558845" lon="8.58489481241295"><ele>1075.0</ele><time>2026-04-25T08:54:42.999Z</time></trkpt><trkpt lat="44.43507561940428" lon="8.584958022564173"><ele>1075.0</ele><time>2026-04-25T08:54:43.999Z</time></trkpt><trkpt lat="44.43513386377349" lon="8.585025565655853"><ele>1075.0</ele><time>2026-04-25T08:54:44.999Z</time></trkpt><trkpt lat="44.43519612290873" lon="8.585081614573815"><ele>1075.0</ele><time>2026-04-25T08:54:45.999Z</time></trkpt><trkpt lat="44.435262818101975" lon="8.585123532589726"><ele>1075.0</ele><time>2026-04-25T08:54:46.999Z</time></trkpt><trkpt lat="44.435335608434826" lon="8.58514023785811"><ele>1075.0</ele><time>2026-04-25T08:54:47.999Z</time></trkpt><trkpt lat="44.4354152785802" lon="8.585149101742143"><ele>1074.1666666666665</ele><time>2026-04-25T08:54:48.999Z</time></trkpt><trkpt lat="44.4354988113675" lon="8.585150181100992"><ele>1073.3333333333333</ele><time>2026-04-25T08:54:49.999Z</time></trkpt><trkpt lat="44.43557855344113" lon="8.585148045674009"><ele>1072.5</ele><time>2026-04-25T08:54:50.999Z</time></trkpt><trkpt lat="44.43564906862585" lon="8.58515442213504"><ele>1071.6666666666667</ele><time>2026-04-25T08:54:51.999Z</time></trkpt><trkpt lat="44.43575628970788" lon="8.585203625590482"><ele>1070.8333333333335</ele><time>2026-04-25T08:54:53.999Z</time></trkpt><trkpt lat="44.43582273396008" lon="8.585164852940041"><ele>1070.0</ele><time>2026-04-25T08:54:54.999Z</time></trkpt><trkpt lat="44.43593736349114" lon="8.585190445700503"><ele>1070.0</ele><time>2026-04-25T08:54:56.999Z</time></trkpt><trkpt lat="44.436056620363644" lon="8.585175914470838"><ele>1070.0</ele><time>2026-04-25T08:54:58.999Z</time></trkpt><trkpt lat="44.436120485796465" lon="8.585153220582256"><ele>1070.0</ele><time>2026-04-25T08:54:59.999Z</time></trkpt><trkpt lat="44.436187432735" lon="8.585140397394149"><ele>1070.0</ele><time>2026-04-25T08:55:00.999Z</time></trkpt><trkpt lat="44.43626017362746" lon="8.585144166747087"><ele>1070.0</ele><time>2026-04-25T08:55:01.999Z</time></trkpt><trkpt lat="44.43631154577605" lon="8.585228751828417"><ele>1070.0</ele><time>2026-04-25T08:55:02.999Z</time></trkpt><trkpt lat="44.43637793347571" lon="8.585279340978074"><ele>1067.6</ele><time>2026-04-25T08:55:03.999Z</time></trkpt><trkpt lat="44.43649003909204" lon="8.585312917507954"><ele>1065.2</ele><time>2026-04-25T08:55:05.999Z</time></trkpt><trkpt lat="44.4365707814276" lon="8.585305311799958"><ele>1062.8</ele><time>2026-04-25T08:55:07.999Z</time></trkpt><trkpt lat="44.43668048505508" lon="8.585268810445642"><ele>1060.4</ele><time>2026-04-25T08:55:09.999Z</time></trkpt><trkpt lat="44.43674144447684" lon="8.585225951431285"><ele>1058.0</ele><time>2026-04-25T08:55:10.999Z</time></trkpt><trkpt lat="44.43681834321415" lon="8.585178767475757"><ele>1058.0</ele><time>2026-04-25T08:55:11.999Z</time></trkpt><trkpt lat="44.43689813199099" lon="8.585122425029367"><ele>1058.0</ele><time>2026-04-25T08:55:12.999Z</time></trkpt><trkpt lat="44.4369716333937" lon="8.585061497056026"><ele>1058.0</ele><time>2026-04-25T08:55:13.999Z</time></trkpt><trkpt lat="44.43703525730308" lon="8.584989202537926"><ele>1058.0</ele><time>2026-04-25T08:55:14.999Z</time></trkpt><trkpt lat="44.43708297957331" lon="8.584913197839741"><ele>1058.0</ele><time>2026-04-25T08:55:15.999Z</time></trkpt><trkpt lat="44.43717476080704" lon="8.584891451031732"><ele>1058.0</ele><time>2026-04-25T08:55:17.999Z</time></trkpt><trkpt lat="44.437259659762105" lon="8.585024172430785"><ele>1053.4</ele><time>2026-04-25T08:55:19.999Z</time></trkpt><trkpt lat="44.43732819304194" lon="8.585090117550385"><ele>1048.8</ele><time>2026-04-25T08:55:20.998Z</time></trkpt><trkpt lat="44.43740815775558" lon="8.585097898352783"><ele>1044.2</ele><time>2026-04-25T08:55:21.998Z</time></trkpt><trkpt lat="44.4375157340114" lon="8.585147943630293"><ele>1039.6</ele><time>2026-04-25T08:55:23.998Z</time></trkpt><trkpt lat="44.43756758850214" lon="8.585092356547051"><ele>1035.0</ele><time>2026-04-25T08:55:24.998Z</time></trkpt><trkpt lat="44.43761759563086" lon="8.584931142427408"><ele>1035.0</ele><time>2026-04-25T08:55:26.998Z</time></trkpt><trkpt lat="44.43761286693847" lon="8.584810569811768"><ele>1035.0</ele><time>2026-04-25T08:55:27.998Z</time></trkpt><trkpt lat="44.43759663608103" lon="8.584718791283395"><ele>1035.0</ele><time>2026-04-25T08:55:28.998Z</time></trkpt><trkpt lat="44.43759522866536" lon="8.584604439007926"><ele>1035.0</ele><time>2026-04-25T08:55:29.998Z</time></trkpt><trkpt lat="44.43762697584222" lon="8.584447349561975"><ele>1035.0</ele><time>2026-04-25T08:55:31.998Z</time></trkpt><trkpt lat="44.43765653958383" lon="8.584351307693476"><ele>1035.0</ele><time>2026-04-25T08:55:32.998Z</time></trkpt><trkpt lat="44.43768600063872" lon="8.584219446329385"><ele>1037.2</ele><time>2026-04-25T08:55:33.998Z</time></trkpt><trkpt lat="44.4377575396078" lon="8.584112952659567"><ele>1039.4</ele><time>2026-04-25T08:55:34.998Z</time></trkpt><trkpt lat="44.43780671059944" lon="8.583969080520323"><ele>1041.6</ele><time>2026-04-25T08:55:35.998Z</time></trkpt><trkpt lat="44.43783625419021" lon="8.583825102298274"><ele>1043.8</ele><time>2026-04-25T08:55:36.998Z</time></trkpt><trkpt lat="44.43787108621541" lon="8.58371425773816"><ele>1046.0</ele><time>2026-04-25T08:55:37.998Z</time></trkpt><trkpt lat="44.43794139654533" lon="8.583643740328275"><ele>1041.0</ele><time>2026-04-25T08:55:38.998Z</time></trkpt><trkpt lat="44.438017476974466" lon="8.583602465346225"><ele>1036.0</ele><time>2026-04-25T08:55:39.998Z</time></trkpt><trkpt lat="44.4381044182982" lon="8.583543166041505"><ele>1031.0</ele><time>2026-04-25T08:55:41Z</time></trkpt><trkpt lat="44.43818452302175" lon="8.58345849549149"><ele>1026.0</ele><time>2026-04-25T08:55:42Z</time></trkpt><trkpt lat="44.43826837190502" lon="8.583381441196872"><ele>1021.0</ele><time>2026-04-25T08:55:43Z</time></trkpt><trkpt lat="44.43834384220844" lon="8.583296144269386"><ele>1020.9999999999999</ele><time>2026-04-25T08:55:44Z</time></trkpt><trkpt lat="44.43839945309361" lon="8.583225940553278"><ele>1021.0</ele><time>2026-04-25T08:55:45Z</time></trkpt><trkpt lat="44.43844576698985" lon="8.58312505260903"><ele>1021.0</ele><time>2026-04-25T08:55:47Z</time></trkpt><trkpt lat="44.438431967058996" lon="8.582984092099544"><ele>1021.0</ele><time>2026-04-25T08:55:49Z</time></trkpt><trkpt lat="44.43843882207751" lon="8.582875241609134"><ele>1020.9999999999999</ele><time>2026-04-25T08:55:50Z</time></trkpt><trkpt lat="44.43843732267684" lon="8.58273373509068"><ele>1021.0</ele><time>2026-04-25T08:55:51Z</time></trkpt><trkpt lat="44.43842818736488" lon="8.582581912743786"><ele>1021.4</ele><time>2026-04-25T08:55:52Z</time></trkpt><trkpt lat="44.43841018560472" lon="8.582441740873497"><ele>1021.8</ele><time>2026-04-25T08:55:53Z</time></trkpt><trkpt lat="44.43843225069541" lon="8.58231002717308"><ele>1022.1999999999999</ele><time>2026-04-25T08:55:54Z</time></trkpt><trkpt lat="44.43842514009561" lon="8.582164407838922"><ele>1022.5999999999999</ele><time>2026-04-25T08:55:55Z</time></trkpt><trkpt lat="44.43842999154407" lon="8.582033013609372"><ele>1023.0</ele><time>2026-04-25T08:55:56Z</time></trkpt><trkpt lat="44.438441288878074" lon="8.581928704080273"><ele>1023.1666666666666</ele><time>2026-04-25T08:55:57Z</time></trkpt><trkpt lat="44.438469984221626" lon="8.581832630271704"><ele>1023.3333333333333</ele><time>2026-04-25T08:55:59Z</time></trkpt><trkpt lat="44.438580002470296" lon="8.581813935468412"><ele>1023.5</ele><time>2026-04-25T08:56:01Z</time></trkpt><trkpt lat="44.438682280535964" lon="8.581810667047336"><ele>1023.6666666666666</ele><time>2026-04-25T08:56:03Z</time></trkpt><trkpt lat="44.438755306707606" lon="8.581801359895623"><ele>1023.8333333333333</ele><time>2026-04-25T08:56:04Z</time></trkpt><trkpt lat="44.43882363183184" lon="8.581785296856166"><ele>1024.0</ele><time>2026-04-25T08:56:05Z</time></trkpt><trkpt lat="44.4389130267348" lon="8.581773131775886"><ele>1022.9999999999999</ele><time>2026-04-25T08:56:06Z</time></trkpt><trkpt lat="44.4389981106169" lon="8.581778403659388"><ele>1022.0</ele><time>2026-04-25T08:56:07Z</time></trkpt><trkpt lat="44.43907664569629" lon="8.581760470322632"><ele>1021.0</ele><time>2026-04-25T08:56:08Z</time></trkpt><trkpt lat="44.43914403406033" lon="8.58169684984756"><ele>1020.0</ele><time>2026-04-25T08:56:09Z</time></trkpt><trkpt lat="44.4392111997906" lon="8.581634619793798"><ele>1018.9999999999999</ele><time>2026-04-25T08:56:10Z</time></trkpt><trkpt lat="44.439265857357846" lon="8.581562183289009"><ele>1018.0</ele><time>2026-04-25T08:56:11Z</time></trkpt><trkpt lat="44.43931504990015" lon="8.581491702849949"><ele>1018.0</ele><time>2026-04-25T08:56:12Z</time></trkpt><trkpt lat="44.439408228869816" lon="8.581442684630325"><ele>1018.0</ele><time>2026-04-25T08:56:14Z</time></trkpt><trkpt lat="44.439508191168606" lon="8.581481591074297"><ele>1018.0</ele><time>2026-04-25T08:56:15.999Z</time></trkpt><trkpt lat="44.439550596917904" lon="8.58161200473501"><ele>1018.0</ele><time>2026-04-25T08:56:17.999Z</time></trkpt><trkpt lat="44.43963622552671" lon="8.581717803436035"><ele>1018.0</ele><time>2026-04-25T08:56:19.999Z</time></trkpt><trkpt lat="44.439749868519236" lon="8.581792683909871"><ele>1018.5</ele><time>2026-04-25T08:56:21.999Z</time></trkpt><trkpt lat="44.439872220970784" lon="8.58179703626017"><ele>1019.0</ele><time>2026-04-25T08:56:23.999Z</time></trkpt><trkpt lat="44.43998639798668" lon="8.581757459043398"><ele>1019.5</ele><time>2026-04-25T08:56:25.999Z</time></trkpt><trkpt lat="44.440112074304395" lon="8.581693844173943"><ele>1020.0</ele><time>2026-04-25T08:56:27.999Z</time></trkpt><trkpt lat="44.44020232393162" lon="8.58165078403863"><ele>1020.0</ele><time>2026-04-25T08:56:28.999Z</time></trkpt><trkpt lat="44.4402828930734" lon="8.581608710829308"><ele>1020.0</ele><time>2026-04-25T08:56:29.999Z</time></trkpt><trkpt lat="44.44034195140859" lon="8.581564944570715"><ele>1020.0</ele><time>2026-04-25T08:56:30.999Z</time></trkpt><trkpt lat="44.44041789853069" lon="8.581499953633948"><ele>1020.0</ele><time>2026-04-25T08:56:32.999Z</time></trkpt><trkpt lat="44.44045862980278" lon="8.581420539546034"><ele>1020.0</ele><time>2026-04-25T08:56:34.999Z</time></trkpt><trkpt lat="44.44051384863112" lon="8.58126214185509"><ele>1020.0</ele><time>2026-04-25T08:56:36.999Z</time></trkpt><trkpt lat="44.44055348033819" lon="8.581159617962172"><ele>1019.6666666666666</ele><time>2026-04-25T08:56:37.999Z</time></trkpt><trkpt lat="44.44058988931312" lon="8.581067345250286"><ele>1019.3333333333333</ele><time>2026-04-25T08:56:38.999Z</time></trkpt><trkpt lat="44.4406141041951" lon="8.580979002187213"><ele>1019.0</ele><time>2026-04-25T08:56:39.999Z</time></trkpt><trkpt lat="44.44066807705202" lon="8.580836704742447"><ele>1018.6666666666666</ele><time>2026-04-25T08:56:41.999Z</time></trkpt><trkpt lat="44.440740671203834" lon="8.580700644054332"><ele>1018.3333333333333</ele><time>2026-04-25T08:56:43.999Z</time></trkpt><trkpt lat="44.4407799634733" lon="8.580626893151528"><ele>1018.0</ele><time>2026-04-25T08:56:44.999Z</time></trkpt><trkpt lat="44.44079860543861" lon="8.58053241892665"><ele>1018.0</ele><time>2026-04-25T08:56:45.999Z</time></trkpt><trkpt lat="44.440851864592226" lon="8.580379782218868"><ele>1018.0</ele><time>2026-04-25T08:56:47.999Z</time></trkpt><trkpt lat="44.44091209972639" lon="8.58024931114171"><ele>1018.0</ele><time>2026-04-25T08:56:49.999Z</time></trkpt><trkpt lat="44.44098543285448" lon="8.580205022994102"><ele>1018.0</ele><time>2026-04-25T08:56:51.999Z</time></trkpt><trkpt lat="44.441061766652254" lon="8.580228806180177"><ele>1018.0</ele><time>2026-04-25T08:56:53.999Z</time></trkpt><trkpt lat="44.44115850495662" lon="8.580257604251042"><ele>1019.5999999999999</ele><time>2026-04-25T08:56:55.999Z</time></trkpt><trkpt lat="44.44128471656012" lon="8.580286328839522"><ele>1021.1999999999999</ele><time>2026-04-25T08:56:57.999Z</time></trkpt><trkpt lat="44.44135064836885" lon="8.58028089246649"><ele>1022.8</ele><time>2026-04-25T08:56:58.999Z</time></trkpt><trkpt lat="44.4414168625755" lon="8.58026673955009"><ele>1024.3999999999999</ele><time>2026-04-25T08:56:59.999Z</time></trkpt><trkpt lat="44.44154652630967" lon="8.580237003260754"><ele>1026.0</ele><time>2026-04-25T08:57:01.999Z</time></trkpt><trkpt lat="44.44160930808151" lon="8.580219772288936"><ele>1026.0</ele><time>2026-04-25T08:57:02.999Z</time></trkpt><trkpt lat="44.44172597121578" lon="8.580136755190233"><ele>1026.0</ele><time>2026-04-25T08:57:04.999Z</time></trkpt><trkpt lat="44.4417879502629" lon="8.580074795265032"><ele>1026.0</ele><time>2026-04-25T08:57:05.999Z</time></trkpt><trkpt lat="44.44185263858517" lon="8.580015627901703"><ele>1026.0</ele><time>2026-04-25T08:57:06.999Z</time></trkpt><trkpt lat="44.44192997221812" lon="8.579955487559495"><ele>1026.0</ele><time>2026-04-25T08:57:07.999Z</time></trkpt><trkpt lat="44.44201350917597" lon="8.579888787828853"><ele>1026.0</ele><time>2026-04-25T08:57:08.999Z</time></trkpt><trkpt lat="44.44209286295466" lon="8.579832030603935"><ele>1026.0</ele><time>2026-04-25T08:57:09.999Z</time></trkpt><trkpt lat="44.44215688741868" lon="8.579780132517927"><ele>1026.0</ele><time>2026-04-25T08:57:10.999Z</time></trkpt><trkpt lat="44.4422132073676" lon="8.579719104110762"><ele>1026.0</ele><time>2026-04-25T08:57:11.999Z</time></trkpt><trkpt lat="44.44228948544863" lon="8.579582564341928"><ele>1026.0</ele><time>2026-04-25T08:57:13.999Z</time></trkpt><trkpt lat="44.442370659198424" lon="8.57941175516181"><ele>1024.1666666666667</ele><time>2026-04-25T08:57:15.999Z</time></trkpt><trkpt lat="44.44239868967119" lon="8.579304910375356"><ele>1022.3333333333333</ele><time>2026-04-25T08:57:16.999Z</time></trkpt><trkpt lat="44.44241593852069" lon="8.579177434902475"><ele>1020.5</ele><time>2026-04-25T08:57:17.999Z</time></trkpt><trkpt lat="44.442418078660026" lon="8.579050136642463"><ele>1018.6666666666666</ele><time>2026-04-25T08:57:18.999Z</time></trkpt><trkpt lat="44.44240438995227" lon="8.578939282056554"><ele>1016.8333333333333</ele><time>2026-04-25T08:57:19.999Z</time></trkpt><trkpt lat="44.44238278420314" lon="8.578828194518195"><ele>1015.0</ele><time>2026-04-25T08:57:20.999Z</time></trkpt><trkpt lat="44.44235526784282" lon="8.578720554221361"><ele>1014.3333333333333</ele><time>2026-04-25T08:57:21.999Z</time></trkpt><trkpt lat="44.44231731769012" lon="8.578616429494705"><ele>1013.6666666666666</ele><time>2026-04-25T08:57:22.999Z</time></trkpt><trkpt lat="44.442275703493976" lon="8.578512331437997"><ele>1013.0</ele><time>2026-04-25T08:57:23.999Z</time></trkpt><trkpt lat="44.442231117504704" lon="8.578411998621629"><ele>1012.3333333333333</ele><time>2026-04-25T08:57:24.999Z</time></trkpt><trkpt lat="44.44218408492988" lon="8.578307016635769"><ele>1011.6666666666666</ele><time>2026-04-25T08:57:25.999Z</time></trkpt><trkpt lat="44.44214596026086" lon="8.578222838751078"><ele>1011.0</ele><time>2026-04-25T08:57:26.999Z</time></trkpt><trkpt lat="44.442107608172776" lon="8.578138158657639"><ele>1011.5999999999999</ele><time>2026-04-25T08:57:27.999Z</time></trkpt><trkpt lat="44.44206993400861" lon="8.578059336896565"><ele>1012.1999999999999</ele><time>2026-04-25T08:57:28.999Z</time></trkpt><trkpt lat="44.44200042626123" lon="8.577933519983352"><ele>1012.8000000000001</ele><time>2026-04-25T08:57:30.998Z</time></trkpt><trkpt lat="44.442019269946286" lon="8.577826814206233"><ele>1013.4000000000001</ele><time>2026-04-25T08:57:32.998Z</time></trkpt><trkpt lat="44.44206653440341" lon="8.577761471371012"><ele>1014.0</ele><time>2026-04-25T08:57:33.998Z</time></trkpt><trkpt lat="44.44220611505331" lon="8.577693170496945"><ele>1014.0</ele><time>2026-04-25T08:57:35.998Z</time></trkpt><trkpt lat="44.44231599580091" lon="8.577653583550644"><ele>1014.0000000000001</ele><time>2026-04-25T08:57:36.998Z</time></trkpt><trkpt lat="44.44241978074925" lon="8.577583252659888"><ele>1014.0000000000001</ele><time>2026-04-25T08:57:37.998Z</time></trkpt><trkpt lat="44.44250759394979" lon="8.577544007962125"><ele>1014.0</ele><time>2026-04-25T08:57:38.998Z</time></trkpt><trkpt lat="44.44259744312698" lon="8.577512641522475"><ele>1014.0</ele><time>2026-04-25T08:57:39.998Z</time></trkpt><trkpt lat="44.44268298185672" lon="8.577487225188557"><ele>1014.0</ele><time>2026-04-25T08:57:40.998Z</time></trkpt><trkpt lat="44.44277203561476" lon="8.577481181682403"><ele>1014.0000000000001</ele><time>2026-04-25T08:57:41.998Z</time></trkpt><trkpt lat="44.44286250310664" lon="8.577480725290826"><ele>1014.0000000000001</ele><time>2026-04-25T08:57:42.998Z</time></trkpt><trkpt lat="44.44295687410503" lon="8.577515009426923"><ele>1014.0</ele><time>2026-04-25T08:57:43.998Z</time></trkpt><trkpt lat="44.443043955705285" lon="8.57754920059068"><ele>1014.0</ele><time>2026-04-25T08:57:44.998Z</time></trkpt><trkpt lat="44.443127784882826" lon="8.577599844690148"><ele>1013.75</ele><time>2026-04-25T08:57:45.998Z</time></trkpt><trkpt lat="44.44321315359251" lon="8.577667611410824"><ele>1013.5</ele><time>2026-04-25T08:57:47Z</time></trkpt><trkpt lat="44.44331240423618" lon="8.577770666070913"><ele>1013.25</ele><time>2026-04-25T08:57:48Z</time></trkpt><trkpt lat="44.44341422484198" lon="8.577906280324974"><ele>1013.0</ele><time>2026-04-25T08:57:49Z</time></trkpt><trkpt lat="44.443507628563" lon="8.578050860163252"><ele>1010.75</ele><time>2026-04-25T08:57:50Z</time></trkpt><trkpt lat="44.4435835856002" lon="8.578194540296751"><ele>1008.5</ele><time>2026-04-25T08:57:51Z</time></trkpt><trkpt lat="44.44365903378306" lon="8.578340656043986"><ele>1006.25</ele><time>2026-04-25T08:57:52Z</time></trkpt><trkpt lat="44.443748250068495" lon="8.578447311319902"><ele>1004.0</ele><time>2026-04-25T08:57:53Z</time></trkpt><trkpt lat="44.443822812960136" lon="8.578552139964133"><ele>1003.5</ele><time>2026-04-25T08:57:54Z</time></trkpt><trkpt lat="44.44390683429879" lon="8.578631992191665"><ele>1003.0</ele><time>2026-04-25T08:57:55Z</time></trkpt><trkpt lat="44.44400418554315" lon="8.578688833365494"><ele>1002.5</ele><time>2026-04-25T08:57:56Z</time></trkpt><trkpt lat="44.444125132140655" lon="8.57873981846359"><ele>1002.0</ele><time>2026-04-25T08:57:57Z</time></trkpt><trkpt lat="44.44426514405501" lon="8.578787100735932"><ele>1000.6666666666667</ele><time>2026-04-25T08:57:58Z</time></trkpt><trkpt lat="44.44441199076863" lon="8.578835204482917"><ele>999.3333333333334</ele><time>2026-04-25T08:57:59Z</time></trkpt><trkpt lat="44.44455748085341" lon="8.578878673442922"><ele>998.0</ele><time>2026-04-25T08:58:00Z</time></trkpt><trkpt lat="44.44470717995908" lon="8.578921525903654"><ele>998.0</ele><time>2026-04-25T08:58:01Z</time></trkpt><trkpt lat="44.44485401555983" lon="8.57895907173521"><ele>998.0</ele><time>2026-04-25T08:58:02Z</time></trkpt><trkpt lat="44.44500256108284" lon="8.578991204139031"><ele>998.0</ele><time>2026-04-25T08:58:03Z</time></trkpt><trkpt lat="44.445151784833904" lon="8.579013557528658"><ele>998.0</ele><time>2026-04-25T08:58:04Z</time></trkpt><trkpt lat="44.445297496945514" lon="8.579041776564825"><ele>998.0</ele><time>2026-04-25T08:58:05Z</time></trkpt><trkpt lat="44.4454462308785" lon="8.57904746369532"><ele>998.0</ele><time>2026-04-25T08:58:06Z</time></trkpt><trkpt lat="44.44559842641634" lon="8.579066552509502"><ele>998.0</ele><time>2026-04-25T08:58:07Z</time></trkpt><trkpt lat="44.445758105155505" lon="8.57907043350843"><ele>997.0</ele><time>2026-04-25T08:58:08Z</time></trkpt><trkpt lat="44.44590925455529" lon="8.57907673842809"><ele>996.0</ele><time>2026-04-25T08:58:09Z</time></trkpt><trkpt lat="44.4460551178332" lon="8.579086297012813"><ele>995.0</ele><time>2026-04-25T08:58:10Z</time></trkpt><trkpt lat="44.44619822698811" lon="8.579092674704937"><ele>994.0</ele><time>2026-04-25T08:58:11Z</time></trkpt><trkpt lat="44.446327085103334" lon="8.579103931135128"><ele>993.8333333333333</ele><time>2026-04-25T08:58:12Z</time></trkpt><trkpt lat="44.44642838339215" lon="8.579109362317082"><ele>993.6666666666666</ele><time>2026-04-25T08:58:13Z</time></trkpt><trkpt lat="44.446509969407565" lon="8.579113986136297"><ele>993.5</ele><time>2026-04-25T08:58:14Z</time></trkpt><trkpt lat="44.446581128897066" lon="8.57911458676197"><ele>993.3333333333333</ele><time>2026-04-25T08:58:15Z</time></trkpt><trkpt lat="44.44665217888331" lon="8.579120750984755"><ele>993.1666666666666</ele><time>2026-04-25T08:58:16Z</time></trkpt><trkpt lat="44.44672815741105" lon="8.579129598402174"><ele>993.0</ele><time>2026-04-25T08:58:17Z</time></trkpt><trkpt lat="44.44681470631403" lon="8.579143289618555"><ele>993.0</ele><time>2026-04-25T08:58:18Z</time></trkpt><trkpt lat="44.446898272353906" lon="8.579173904214974"><ele>993.0</ele><time>2026-04-25T08:58:18.999Z</time></trkpt><trkpt lat="44.44699432310573" lon="8.579218592979544"><ele>993.0</ele><time>2026-04-25T08:58:19.999Z</time></trkpt><trkpt lat="44.44709793362619" lon="8.579275281103895"><ele>993.0</ele><time>2026-04-25T08:58:20.999Z</time></trkpt><trkpt lat="44.44718919974111" lon="8.579320171213197"><ele>993.0</ele><time>2026-04-25T08:58:21.999Z</time></trkpt><trkpt lat="44.44726633423417" lon="8.579358352723986"><ele>993.1666666666666</ele><time>2026-04-25T08:58:22.999Z</time></trkpt><trkpt lat="44.447328769830506" lon="8.579396844394541"><ele>993.3333333333333</ele><time>2026-04-25T08:58:23.999Z</time></trkpt><trkpt lat="44.44739274776173" lon="8.579450127375521"><ele>993.5</ele><time>2026-04-25T08:58:24.999Z</time></trkpt><trkpt lat="44.447466415470714" lon="8.579505428074787"><ele>993.6666666666666</ele><time>2026-04-25T08:58:25.999Z</time></trkpt><trkpt lat="44.44755062651705" lon="8.579557405263678"><ele>993.8333333333333</ele><time>2026-04-25T08:58:26.999Z</time></trkpt><trkpt lat="44.447637112254306" lon="8.579608383102746"><ele>994.0</ele><time>2026-04-25T08:58:27.999Z</time></trkpt><trkpt lat="44.44772678764222" lon="8.579654452002138"><ele>992.9999999999999</ele><time>2026-04-25T08:58:28.999Z</time></trkpt><trkpt lat="44.44781360850915" lon="8.579693077076733"><ele>992.0</ele><time>2026-04-25T08:58:29.999Z</time></trkpt><trkpt lat="44.44789799126658" lon="8.579721264350578"><ele>991.0</ele><time>2026-04-25T08:58:30.999Z</time></trkpt><trkpt lat="44.44798317280815" lon="8.57974231171745"><ele>990.0</ele><time>2026-04-25T08:58:31.999Z</time></trkpt><trkpt lat="44.448067686295914" lon="8.579762094961563"><ele>988.9999999999999</ele><time>2026-04-25T08:58:32.999Z</time></trkpt><trkpt lat="44.44815012909343" lon="8.579783778607627"><ele>988.0</ele><time>2026-04-25T08:58:33.999Z</time></trkpt><trkpt lat="44.44823265441326" lon="8.579803990317032"><ele>987.9999999999999</ele><time>2026-04-25T08:58:34.999Z</time></trkpt><trkpt lat="44.44831640568735" lon="8.579819335485313"><ele>988.0</ele><time>2026-04-25T08:58:35.999Z</time></trkpt><trkpt lat="44.448401528355134" lon="8.579820980699825"><ele>988.0</ele><time>2026-04-25T08:58:36.999Z</time></trkpt><trkpt lat="44.448482702555125" lon="8.579812798922434"><ele>988.0</ele><time>2026-04-25T08:58:37.999Z</time></trkpt><trkpt lat="44.44855899435945" lon="8.579799006020734"><ele>987.9999999999999</ele><time>2026-04-25T08:58:38.999Z</time></trkpt><trkpt lat="44.44863997201344" lon="8.579767458503083"><ele>988.0</ele><time>2026-04-25T08:58:39.999Z</time></trkpt><trkpt lat="44.44871634967902" lon="8.579714441743826"><ele>987.9999999999999</ele><time>2026-04-25T08:58:40.999Z</time></trkpt><trkpt lat="44.448787283026334" lon="8.579656046079705"><ele>988.0</ele><time>2026-04-25T08:58:41.999Z</time></trkpt><trkpt lat="44.44885767401712" lon="8.57959161911227"><ele>988.0</ele><time>2026-04-25T08:58:42.999Z</time></trkpt><trkpt lat="44.448925582434214" lon="8.579526575415573"><ele>988.0</ele><time>2026-04-25T08:58:43.999Z</time></trkpt><trkpt lat="44.448993211338845" lon="8.579464794794815"><ele>987.9999999999999</ele><time>2026-04-25T08:58:44.999Z</time></trkpt><trkpt lat="44.449061610403135" lon="8.57941064446853"><ele>988.0</ele><time>2026-04-25T08:58:45.999Z</time></trkpt><trkpt lat="44.44913577117795" lon="8.579363439297182"><ele>987.6666666666666</ele><time>2026-04-25T08:58:46.999Z</time></trkpt><trkpt lat="44.449211751639076" lon="8.579327181753696"><ele>987.3333333333333</ele><time>2026-04-25T08:58:47.999Z</time></trkpt><trkpt lat="44.44929178310432" lon="8.579295345134732"><ele>987.0</ele><time>2026-04-25T08:58:48.999Z</time></trkpt><trkpt lat="44.44937182237743" lon="8.579265875691489"><ele>986.6666666666667</ele><time>2026-04-25T08:58:49.999Z</time></trkpt><trkpt lat="44.449456147589885" lon="8.579232405314595"><ele>986.3333333333334</ele><time>2026-04-25T08:58:50.999Z</time></trkpt><trkpt lat="44.449543147975554" lon="8.579229472329255"><ele>986.0</ele><time>2026-04-25T08:58:51.999Z</time></trkpt><trkpt lat="44.4496298530522" lon="8.579207784744332"><ele>985.5000000000001</ele><time>2026-04-25T08:58:52.999Z</time></trkpt><trkpt lat="44.4497101038122" lon="8.579166986470288"><ele>985.0</ele><time>2026-04-25T08:58:53.999Z</time></trkpt><trkpt lat="44.44979426638288" lon="8.579149104957898"><ele>984.5</ele><time>2026-04-25T08:58:54.999Z</time></trkpt><trkpt lat="44.44987948706098" lon="8.579131066957054"><ele>984.0</ele><time>2026-04-25T08:58:55.999Z</time></trkpt><trkpt lat="44.449962814498264" lon="8.5791084490523"><ele>983.5000000000001</ele><time>2026-04-25T08:58:56.999Z</time></trkpt><trkpt lat="44.45004971158022" lon="8.579075052621"><ele>983.0</ele><time>2026-04-25T08:58:57.999Z</time></trkpt><trkpt lat="44.45013701500616" lon="8.57905517303986"><ele>983.0000000000001</ele><time>2026-04-25T08:58:58.999Z</time></trkpt><trkpt lat="44.45022102688131" lon="8.579029525074839"><ele>983.0</ele><time>2026-04-25T08:58:59.999Z</time></trkpt><trkpt lat="44.450311508236915" lon="8.579013364007741"><ele>983.0</ele><time>2026-04-25T08:59:00.999Z</time></trkpt><trkpt lat="44.45039333930608" lon="8.579006736400371"><ele>983.0</ele><time>2026-04-25T08:59:01.999Z</time></trkpt><trkpt lat="44.450478232220846" lon="8.579008640649862"><ele>983.0000000000001</ele><time>2026-04-25T08:59:02.999Z</time></trkpt><trkpt lat="44.45055290448475" lon="8.579018450091356"><ele>983.0</ele><time>2026-04-25T08:59:03.999Z</time></trkpt><trkpt lat="44.45063378605479" lon="8.579034058890459"><ele>980.8333333333334</ele><time>2026-04-25T08:59:04.999Z</time></trkpt><trkpt lat="44.45069916449421" lon="8.579076584514427"><ele>978.6666666666667</ele><time>2026-04-25T08:59:05.999Z</time></trkpt><trkpt lat="44.450771499621446" lon="8.579137972916453"><ele>976.5</ele><time>2026-04-25T08:59:06.999Z</time></trkpt><trkpt lat="44.4508431430992" lon="8.579216471693195"><ele>974.3333333333333</ele><time>2026-04-25T08:59:07.999Z</time></trkpt><trkpt lat="44.450915954408465" lon="8.579298660140683"><ele>972.1666666666666</ele><time>2026-04-25T08:59:08.999Z</time></trkpt><trkpt lat="44.450987348195014" lon="8.57937371965353"><ele>970.0</ele><time>2026-04-25T08:59:09.999Z</time></trkpt><trkpt lat="44.45105888742599" lon="8.579445839729232"><ele>970.0</ele><time>2026-04-25T08:59:10.999Z</time></trkpt><trkpt lat="44.45113629595298" lon="8.579511266067401"><ele>970.0</ele><time>2026-04-25T08:59:11.999Z</time></trkpt><trkpt lat="44.45121567538013" lon="8.579577475413371"><ele>970.0</ele><time>2026-04-25T08:59:12.999Z</time></trkpt><trkpt lat="44.45129235636094" lon="8.57965230131654"><ele>970.0</ele><time>2026-04-25T08:59:13.999Z</time></trkpt><trkpt lat="44.451373814806686" lon="8.579728665169071"><ele>970.0</ele><time>2026-04-25T08:59:14.999Z</time></trkpt><trkpt lat="44.451453560740966" lon="8.57981138603074"><ele>969.4999999999999</ele><time>2026-04-25T08:59:15.999Z</time></trkpt><trkpt lat="44.451529958491236" lon="8.579892184021421"><ele>969.0</ele><time>2026-04-25T08:59:16.999Z</time></trkpt><trkpt lat="44.451599459631595" lon="8.57996254076617"><ele>968.5</ele><time>2026-04-25T08:59:17.999Z</time></trkpt><trkpt lat="44.45166788823634" lon="8.580026046635108"><ele>968.0</ele><time>2026-04-25T08:59:18.999Z</time></trkpt><trkpt lat="44.45172928817697" lon="8.580088944931584"><ele>967.4999999999999</ele><time>2026-04-25T08:59:19.999Z</time></trkpt><trkpt lat="44.451799280506066" lon="8.580127022059084"><ele>967.0</ele><time>2026-04-25T08:59:20.999Z</time></trkpt><trkpt lat="44.45186661817926" lon="8.5801423267555"><ele>966.9999999999999</ele><time>2026-04-25T08:59:21.999Z</time></trkpt><trkpt lat="44.45193040362965" lon="8.580129418100599"><ele>967.0</ele><time>2026-04-25T08:59:22.999Z</time></trkpt><trkpt lat="44.45198998376796" lon="8.580096757466025"><ele>967.0</ele><time>2026-04-25T08:59:23.999Z</time></trkpt><trkpt lat="44.45205394984687" lon="8.580047736217484"><ele>967.0</ele><time>2026-04-25T08:59:24.999Z</time></trkpt><trkpt lat="44.45211392684963" lon="8.579981800245077"><ele>966.9999999999999</ele><time>2026-04-25T08:59:25.999Z</time></trkpt><trkpt lat="44.45218043789618" lon="8.5799002681841"><ele>967.0</ele><time>2026-04-25T08:59:26.999Z</time></trkpt><trkpt lat="44.45224703343252" lon="8.57980767560894"><ele>964.8</ele><time>2026-04-25T08:59:27.999Z</time></trkpt><trkpt lat="44.4523150799189" lon="8.57970321772661"><ele>962.6</ele><time>2026-04-25T08:59:28.999Z</time></trkpt><trkpt lat="44.45238528716085" lon="8.579599292682358"><ele>960.3999999999999</ele><time>2026-04-25T08:59:29.999Z</time></trkpt><trkpt lat="44.452456170114175" lon="8.579519774320534"><ele>958.1999999999999</ele><time>2026-04-25T08:59:30.999Z</time></trkpt><trkpt lat="44.45252730189771" lon="8.579461267882447"><ele>956.0</ele><time>2026-04-25T08:59:31.999Z</time></trkpt><trkpt lat="44.4526025035947" lon="8.579434337216394"><ele>956.0000000000001</ele><time>2026-04-25T08:59:32.999Z</time></trkpt><trkpt lat="44.45268646006607" lon="8.579428867461429"><ele>956.0</ele><time>2026-04-25T08:59:33.999Z</time></trkpt><trkpt lat="44.45277249096095" lon="8.579446004215896"><ele>956.0</ele><time>2026-04-25T08:59:34.998Z</time></trkpt><trkpt lat="44.452860674279755" lon="8.579465730561482"><ele>956.0</ele><time>2026-04-25T08:59:35.998Z</time></trkpt><trkpt lat="44.45294233560634" lon="8.579466569430465"><ele>956.0000000000001</ele><time>2026-04-25T08:59:36.998Z</time></trkpt><trkpt lat="44.453024286927906" lon="8.579433548128083"><ele>956.0</ele><time>2026-04-25T08:59:37.998Z</time></trkpt><trkpt lat="44.45310313902447" lon="8.579400750443842"><ele>954.8333333333334</ele><time>2026-04-25T08:59:38.998Z</time></trkpt><trkpt lat="44.453128743991954" lon="8.579290492352868"><ele>953.6666666666667</ele><time>2026-04-25T08:59:39.998Z</time></trkpt><trkpt lat="44.45315136396565" lon="8.57919994341773"><ele>952.5</ele><time>2026-04-25T08:59:40.998Z</time></trkpt><trkpt lat="44.45319346443738" lon="8.579131332405481"><ele>951.3333333333333</ele><time>2026-04-25T08:59:41.998Z</time></trkpt><trkpt lat="44.453281965990875" lon="8.579050329336452"><ele>950.1666666666666</ele><time>2026-04-25T08:59:43.998Z</time></trkpt><trkpt lat="44.45334318498044" lon="8.579087827919002"><ele>949.0</ele><time>2026-04-25T08:59:44.998Z</time></trkpt><trkpt lat="44.45339229879724" lon="8.57915958777019"><ele>948.9999999999999</ele><time>2026-04-25T08:59:45.998Z</time></trkpt><trkpt lat="44.45341580086916" lon="8.579259624882841"><ele>949.0</ele><time>2026-04-25T08:59:46.998Z</time></trkpt><trkpt lat="44.453393680093335" lon="8.579357700795173"><ele>949.0</ele><time>2026-04-25T08:59:47.998Z</time></trkpt><trkpt lat="44.45335093796616" lon="8.579452023561451"><ele>949.0</ele><time>2026-04-25T08:59:48.998Z</time></trkpt><trkpt lat="44.453295387581605" lon="8.57955139227403"><ele>948.9999999999999</ele><time>2026-04-25T08:59:49.998Z</time></trkpt><trkpt lat="44.453217013138065" lon="8.579625882902551"><ele>949.0</ele><time>2026-04-25T08:59:50.998Z</time></trkpt><trkpt lat="44.453127926001834" lon="8.579687084407526"><ele>950.4000000000001</ele><time>2026-04-25T08:59:52Z</time></trkpt><trkpt lat="44.45304600276134" lon="8.579764823810393"><ele>951.8000000000001</ele><time>2026-04-25T08:59:53Z</time></trkpt><trkpt lat="44.452963682775795" lon="8.579824922974833"><ele>953.1999999999999</ele><time>2026-04-25T08:59:54Z</time></trkpt><trkpt lat="44.452882077321334" lon="8.579875977990136"><ele>954.5999999999999</ele><time>2026-04-25T08:59:55Z</time></trkpt><trkpt lat="44.452843174391326" lon="8.579994491542179"><ele>956.0</ele><time>2026-04-25T08:59:56Z</time></trkpt><trkpt lat="44.452800259169535" lon="8.5800894938129"><ele>956.0</ele><time>2026-04-25T08:59:57Z</time></trkpt><trkpt lat="44.45276320468428" lon="8.58019422058099"><ele>955.9999999999999</ele><time>2026-04-25T08:59:58Z</time></trkpt><trkpt lat="44.45272226370356" lon="8.580309626868857"><ele>955.9999999999999</ele><time>2026-04-25T08:59:59Z</time></trkpt><trkpt lat="44.45268534128117" lon="8.580438692552589"><ele>956.0</ele><time>2026-04-25T09:00:00Z</time></trkpt><trkpt lat="44.45264525147053" lon="8.580561844456584"><ele>956.0</ele><time>2026-04-25T09:00:01Z</time></trkpt><trkpt lat="44.45260704928718" lon="8.580672650773678"><ele>954.5000000000001</ele><time>2026-04-25T09:00:02Z</time></trkpt><trkpt lat="44.4525800407485" lon="8.580772227145623"><ele>953.0</ele><time>2026-04-25T09:00:03Z</time></trkpt><trkpt lat="44.452579471310735" lon="8.580871334821714"><ele>951.5</ele><time>2026-04-25T09:00:04Z</time></trkpt><trkpt lat="44.4526041602089" lon="8.580974398665997"><ele>950.0</ele><time>2026-04-25T09:00:04.999Z</time></trkpt><trkpt lat="44.45265111660348" lon="8.581080235640155"><ele>948.5000000000001</ele><time>2026-04-25T09:00:05.999Z</time></trkpt><trkpt lat="44.45270199784543" lon="8.581181067583554"><ele>947.0</ele><time>2026-04-25T09:00:06.999Z</time></trkpt><trkpt lat="44.45275951874776" lon="8.581288495004157"><ele>945.0</ele><time>2026-04-25T09:00:07.999Z</time></trkpt><trkpt lat="44.45281416444761" lon="8.581405140021971"><ele>943.0</ele><time>2026-04-25T09:00:08.999Z</time></trkpt><trkpt lat="44.45287911917456" lon="8.581516917321624"><ele>941.0</ele><time>2026-04-25T09:00:09.999Z</time></trkpt><trkpt lat="44.452943282077946" lon="8.581631304686137"><ele>939.0</ele><time>2026-04-25T09:00:10.999Z</time></trkpt><trkpt lat="44.45300289181755" lon="8.581751894482009"><ele>937.0</ele><time>2026-04-25T09:00:11.999Z</time></trkpt><trkpt lat="44.45305900903347" lon="8.581878846674968"><ele>936.5</ele><time>2026-04-25T09:00:12.999Z</time></trkpt><trkpt lat="44.453114675166155" lon="8.582015554414397"><ele>936.0</ele><time>2026-04-25T09:00:13.999Z</time></trkpt><trkpt lat="44.4531787335942" lon="8.582155510757632"><ele>935.5</ele><time>2026-04-25T09:00:14.999Z</time></trkpt><trkpt lat="44.45323808007304" lon="8.5823239592222"><ele>935.0</ele><time>2026-04-25T09:00:15.999Z</time></trkpt><trkpt lat="44.45332668706197" lon="8.582470933603634"><ele>935.0</ele><time>2026-04-25T09:00:16.999Z</time></trkpt><trkpt lat="44.45339579377304" lon="8.582619273654277"><ele>935.0</ele><time>2026-04-25T09:00:17.999Z</time></trkpt><trkpt lat="44.45346464941111" lon="8.58277191031151"><ele>935.0</ele><time>2026-04-25T09:00:18.999Z</time></trkpt><trkpt lat="44.453530798080976" lon="8.582920490072274"><ele>935.0</ele><time>2026-04-25T09:00:19.999Z</time></trkpt><trkpt lat="44.45359453437388" lon="8.583067589175904"><ele>933.6</ele><time>2026-04-25T09:00:20.999Z</time></trkpt><trkpt lat="44.453649359193356" lon="8.583202421421829"><ele>932.2</ele><time>2026-04-25T09:00:21.999Z</time></trkpt><trkpt lat="44.4536965952205" lon="8.583331926886933"><ele>930.8</ele><time>2026-04-25T09:00:22.999Z</time></trkpt><trkpt lat="44.453713248437666" lon="8.583474183374907"><ele>929.4</ele><time>2026-04-25T09:00:23.999Z</time></trkpt><trkpt lat="44.45374658021095" lon="8.583602446979304"><ele>928.0</ele><time>2026-04-25T09:00:24.999Z</time></trkpt><trkpt lat="44.45372449856864" lon="8.583733879082235"><ele>927.1666666666666</ele><time>2026-04-25T09:00:25.999Z</time></trkpt><trkpt lat="44.45371676068742" lon="8.583845342618869"><ele>926.3333333333333</ele><time>2026-04-25T09:00:26.999Z</time></trkpt><trkpt lat="44.453712508293755" lon="8.583935974996358"><ele>925.5</ele><time>2026-04-25T09:00:27.999Z</time></trkpt><trkpt lat="44.45373676752087" lon="8.584101778142987"><ele>924.6666666666667</ele><time>2026-04-25T09:00:29.999Z</time></trkpt><trkpt lat="44.453770673692006" lon="8.584178854262815"><ele>923.8333333333334</ele><time>2026-04-25T09:00:30.999Z</time></trkpt><trkpt lat="44.45384385511366" lon="8.584244701638209"><ele>923.0</ele><time>2026-04-25T09:00:32.999Z</time></trkpt><trkpt lat="44.453906529645906" lon="8.584261815113177"><ele>923.0000000000001</ele><time>2026-04-25T09:00:34.999Z</time></trkpt><trkpt lat="44.45399591370939" lon="8.584207347279472"><ele>923.0</ele><time>2026-04-25T09:00:36.999Z</time></trkpt><trkpt lat="44.45404956929819" lon="8.584160867798618"><ele>923.0</ele><time>2026-04-25T09:00:37.999Z</time></trkpt><trkpt lat="44.454103040842575" lon="8.584101260801825"><ele>923.0</ele><time>2026-04-25T09:00:38.999Z</time></trkpt><trkpt lat="44.45416285612904" lon="8.58403422285617"><ele>923.0000000000001</ele><time>2026-04-25T09:00:39.999Z</time></trkpt><trkpt lat="44.45420802980203" lon="8.583957687457966"><ele>923.0</ele><time>2026-04-25T09:00:40.999Z</time></trkpt><trkpt lat="44.45423848040776" lon="8.583790236357482"><ele>923.0</ele><time>2026-04-25T09:00:42.999Z</time></trkpt><trkpt lat="44.45422627869007" lon="8.583702955538163"><ele>923.0</ele><time>2026-04-25T09:00:43.999Z</time></trkpt><trkpt lat="44.45419639664983" lon="8.583619768036778"><ele>923.0</ele><time>2026-04-25T09:00:44.999Z</time></trkpt><trkpt lat="44.454178422351" lon="8.583506080763057"><ele>923.0</ele><time>2026-04-25T09:00:45.999Z</time></trkpt><trkpt lat="44.454150274959076" lon="8.58340569711094"><ele>923.0</ele><time>2026-04-25T09:00:46.999Z</time></trkpt><trkpt lat="44.45411334577293" lon="8.583311554443796"><ele>923.0</ele><time>2026-04-25T09:00:47.999Z</time></trkpt><trkpt lat="44.45411759509842" lon="8.583207387848866"><ele>923.0</ele><time>2026-04-25T09:00:48.999Z</time></trkpt><trkpt lat="44.45413546361515" lon="8.583103842328416"><ele>923.0000000000001</ele><time>2026-04-25T09:00:49.999Z</time></trkpt><trkpt lat="44.45417082751936" lon="8.582999678389381"><ele>923.0</ele><time>2026-04-25T09:00:50.999Z</time></trkpt><trkpt lat="44.454230192839674" lon="8.582914349120493"><ele>923.0</ele><time>2026-04-25T09:00:51.999Z</time></trkpt><trkpt lat="44.45428348076367" lon="8.582820606576458"><ele>923.0</ele><time>2026-04-25T09:00:52.999Z</time></trkpt><trkpt lat="44.45431631803543" lon="8.582730869755867"><ele>923.0000000000001</ele><time>2026-04-25T09:00:53.999Z</time></trkpt><trkpt lat="44.45434740294058" lon="8.582645762282494"><ele>923.0</ele><time>2026-04-25T09:00:54.999Z</time></trkpt><trkpt lat="44.45435763158061" lon="8.582543366640273"><ele>923.3333333333334</ele><time>2026-04-25T09:00:55.999Z</time></trkpt><trkpt lat="44.454356105027394" lon="8.582426930530332"><ele>923.6666666666667</ele><time>2026-04-25T09:00:56.999Z</time></trkpt><trkpt lat="44.454346911968095" lon="8.582298255347986"><ele>924.0</ele><time>2026-04-25T09:00:57.999Z</time></trkpt><trkpt lat="44.45433396511131" lon="8.582177789947362"><ele>924.3333333333333</ele><time>2026-04-25T09:00:58.999Z</time></trkpt><trkpt lat="44.45432682558717" lon="8.58205633831144"><ele>924.6666666666666</ele><time>2026-04-25T09:00:59.999Z</time></trkpt><trkpt lat="44.45434366541798" lon="8.581933316610229"><ele>925.0</ele><time>2026-04-25T09:01:00.999Z</time></trkpt><trkpt lat="44.454395290134485" lon="8.581835489572414"><ele>925.9999999999999</ele><time>2026-04-25T09:01:01.999Z</time></trkpt><trkpt lat="44.45445148597726" lon="8.581743905173056"><ele>927.0</ele><time>2026-04-25T09:01:02.999Z</time></trkpt><trkpt lat="44.45450248757902" lon="8.581645059716047"><ele>928.0</ele><time>2026-04-25T09:01:03.999Z</time></trkpt><trkpt lat="44.45457750592886" lon="8.581586174446766"><ele>929.0</ele><time>2026-04-25T09:01:04.999Z</time></trkpt><trkpt lat="44.45466152511606" lon="8.581532311947257"><ele>929.9999999999999</ele><time>2026-04-25T09:01:05.999Z</time></trkpt><trkpt lat="44.45473725161999" lon="8.581470513627478"><ele>931.0</ele><time>2026-04-25T09:01:06.999Z</time></trkpt><trkpt lat="44.454803014888" lon="8.58139786104198"><ele>928.5714285714286</ele><time>2026-04-25T09:01:07.999Z</time></trkpt><trkpt lat="44.45486290581395" lon="8.581310027471515"><ele>926.1428571428571</ele><time>2026-04-25T09:01:08.999Z</time></trkpt><trkpt lat="44.45491753097737" lon="8.581233631415259"><ele>923.7142857142858</ele><time>2026-04-25T09:01:09.999Z</time></trkpt><trkpt lat="44.4549705968861" lon="8.581152105973095"><ele>921.2857142857143</ele><time>2026-04-25T09:01:10.999Z</time></trkpt><trkpt lat="44.45501127266624" lon="8.58107254581159"><ele>918.8571428571429</ele><time>2026-04-25T09:01:11.999Z</time></trkpt><trkpt lat="44.45505500263811" lon="8.580994043157576"><ele>916.4285714285716</ele><time>2026-04-25T09:01:12.999Z</time></trkpt><trkpt lat="44.4551139047443" lon="8.580958086904321"><ele>914.0000000000001</ele><time>2026-04-25T09:01:13.999Z</time></trkpt><trkpt lat="44.45518414003988" lon="8.580921751118407"><ele>914.0</ele><time>2026-04-25T09:01:14.999Z</time></trkpt><trkpt lat="44.45525699026299" lon="8.580918164901735"><ele>914.0000000000001</ele><time>2026-04-25T09:01:15.999Z</time></trkpt><trkpt lat="44.455329651443144" lon="8.580929822561714"><ele>914.0000000000001</ele><time>2026-04-25T09:01:16.999Z</time></trkpt><trkpt lat="44.455413252568924" lon="8.580976143453576"><ele>914.0</ele><time>2026-04-25T09:01:17.999Z</time></trkpt><trkpt lat="44.4555257300646" lon="8.58103443985839"><ele>914.0</ele><time>2026-04-25T09:01:18.999Z</time></trkpt><trkpt lat="44.45564915121025" lon="8.581095483237027"><ele>912.0</ele><time>2026-04-25T09:01:19.999Z</time></trkpt><trkpt lat="44.45575084723113" lon="8.581142147603673"><ele>910.0000000000001</ele><time>2026-04-25T09:01:20.999Z</time></trkpt><trkpt lat="44.45585339050657" lon="8.581185905254891"><ele>908.0000000000001</ele><time>2026-04-25T09:01:21.999Z</time></trkpt><trkpt lat="44.45594739246839" lon="8.58122502535904"><ele>906.0</ele><time>2026-04-25T09:01:22.999Z</time></trkpt><trkpt lat="44.45603923718896" lon="8.581245174514802"><ele>904.0</ele><time>2026-04-25T09:01:23.999Z</time></trkpt><trkpt lat="44.456127334950686" lon="8.581280547100187"><ele>903.8333333333333</ele><time>2026-04-25T09:01:24.999Z</time></trkpt><trkpt lat="44.456222880765544" lon="8.581317500221019"><ele>903.6666666666666</ele><time>2026-04-25T09:01:25.999Z</time></trkpt><trkpt lat="44.456313026646" lon="8.58135049041232"><ele>903.5</ele><time>2026-04-25T09:01:26.999Z</time></trkpt><trkpt lat="44.45640029923028" lon="8.581383554169259"><ele>903.3333333333333</ele><time>2026-04-25T09:01:27.998Z</time></trkpt><trkpt lat="44.456481303576034" lon="8.581409469053389"><ele>903.1666666666666</ele><time>2026-04-25T09:01:28.998Z</time></trkpt><trkpt lat="44.45655921656684" lon="8.581417887522221"><ele>903.0</ele><time>2026-04-25T09:01:29.998Z</time></trkpt><trkpt lat="44.456633577585734" lon="8.581386591972908"><ele>902.5999999999999</ele><time>2026-04-25T09:01:30.998Z</time></trkpt><trkpt lat="44.456705032959626" lon="8.58133625587139"><ele>902.1999999999999</ele><time>2026-04-25T09:01:31.998Z</time></trkpt><trkpt lat="44.4567731357586" lon="8.581252577784612"><ele>901.8</ele><time>2026-04-25T09:01:32.998Z</time></trkpt><trkpt lat="44.456834007358516" lon="8.581139166601401"><ele>901.4</ele><time>2026-04-25T09:01:33.998Z</time></trkpt><trkpt lat="44.45689984495232" lon="8.581001391665268"><ele>901.0</ele><time>2026-04-25T09:01:34.998Z</time></trkpt><trkpt lat="44.45696920500161" lon="8.58085551403256"><ele>900.8333333333333</ele><time>2026-04-25T09:01:35.998Z</time></trkpt><trkpt lat="44.45703029368397" lon="8.580724752343382"><ele>900.6666666666666</ele><time>2026-04-25T09:01:36.998Z</time></trkpt><trkpt lat="44.457080908331" lon="8.580623158774443"><ele>900.5</ele><time>2026-04-25T09:01:37.998Z</time></trkpt><trkpt lat="44.45713206738081" lon="8.580565554993463"><ele>900.3333333333333</ele><time>2026-04-25T09:01:38.998Z</time></trkpt><trkpt lat="44.45719310801615" lon="8.580529815110507"><ele>900.1666666666666</ele><time>2026-04-25T09:01:39.998Z</time></trkpt><trkpt lat="44.457302546321216" lon="8.580566703141281"><ele>900.0</ele><time>2026-04-25T09:01:41.998Z</time></trkpt><trkpt lat="44.45735141213264" lon="8.580624235780189"><ele>899.8</ele><time>2026-04-25T09:01:42.998Z</time></trkpt><trkpt lat="44.45740435889016" lon="8.580703147666613"><ele>899.6</ele><time>2026-04-25T09:01:43.998Z</time></trkpt><trkpt lat="44.4574620053837" lon="8.580798427773702"><ele>899.4000000000001</ele><time>2026-04-25T09:01:44.998Z</time></trkpt><trkpt lat="44.457532777270295" lon="8.580891510446625"><ele>899.2</ele><time>2026-04-25T09:01:45.998Z</time></trkpt><trkpt lat="44.45760198566045" lon="8.580994794854202"><ele>899.0</ele><time>2026-04-25T09:01:46.998Z</time></trkpt><trkpt lat="44.45766317665125" lon="8.58111513917137"><ele>898.0000000000001</ele><time>2026-04-25T09:01:47.998Z</time></trkpt><trkpt lat="44.45772234465057" lon="8.581233384637803"><ele>897.0</ele><time>2026-04-25T09:01:48.998Z</time></trkpt><trkpt lat="44.45777354785618" lon="8.58133144985917"><ele>896.0</ele><time>2026-04-25T09:01:49.998Z</time></trkpt><trkpt lat="44.45781722664366" lon="8.581412042182517"><ele>895.0</ele><time>2026-04-25T09:01:50.998Z</time></trkpt><trkpt lat="44.45786985586548" lon="8.581471375863767"><ele>894.0000000000001</ele><time>2026-04-25T09:01:51.998Z</time></trkpt><trkpt lat="44.45793250384958" lon="8.581506560175537"><ele>893.0</ele><time>2026-04-25T09:01:52.998Z</time></trkpt><trkpt lat="44.45799821897678" lon="8.581509707382295"><ele>893.0</ele><time>2026-04-25T09:01:53.998Z</time></trkpt><trkpt lat="44.45806226640039" lon="8.581480722248482"><ele>893.0</ele><time>2026-04-25T09:01:54.998Z</time></trkpt><trkpt lat="44.458124875479825" lon="8.581426953575642"><ele>893.0</ele><time>2026-04-25T09:01:55.998Z</time></trkpt><trkpt lat="44.458193233660836" lon="8.581341100137882"><ele>893.0</ele><time>2026-04-25T09:01:56.998Z</time></trkpt><trkpt lat="44.458276447583025" lon="8.581232600095193"><ele>893.0</ele><time>2026-04-25T09:01:58Z</time></trkpt><trkpt lat="44.458384023204665" lon="8.581135974661173"><ele>893.0</ele><time>2026-04-25T09:01:59Z</time></trkpt><trkpt lat="44.458478324685544" lon="8.581004804501909"><ele>893.0</ele><time>2026-04-25T09:02:00Z</time></trkpt><trkpt lat="44.458576149211545" lon="8.580899000110351"><ele>893.0</ele><time>2026-04-25T09:02:01Z</time></trkpt><trkpt lat="44.45866668581941" lon="8.580796156944379"><ele>893.0</ele><time>2026-04-25T09:02:02Z</time></trkpt><trkpt lat="44.458756168031975" lon="8.58069765681879"><ele>892.4</ele><time>2026-04-25T09:02:03Z</time></trkpt><trkpt lat="44.45883818260293" lon="8.580601312375228"><ele>891.8</ele><time>2026-04-25T09:02:04Z</time></trkpt><trkpt lat="44.45891610764047" lon="8.580520217200327"><ele>891.2</ele><time>2026-04-25T09:02:05Z</time></trkpt><trkpt lat="44.45899125005616" lon="8.580432570956521"><ele>890.6</ele><time>2026-04-25T09:02:06Z</time></trkpt><trkpt lat="44.45906545465188" lon="8.580357120333941"><ele>890.0</ele><time>2026-04-25T09:02:07Z</time></trkpt><trkpt lat="44.45914598511105" lon="8.580283551251974"><ele>889.6</ele><time>2026-04-25T09:02:08Z</time></trkpt><trkpt lat="44.45923461466207" lon="8.580232800156859"><ele>889.2</ele><time>2026-04-25T09:02:09Z</time></trkpt><trkpt lat="44.4593276682429" lon="8.580195972981288"><ele>888.8</ele><time>2026-04-25T09:02:10Z</time></trkpt><trkpt lat="44.459424971715315" lon="8.58016579913829"><ele>888.4</ele><time>2026-04-25T09:02:11Z</time></trkpt><trkpt lat="44.45953215652634" lon="8.580145842408056"><ele>888.0</ele><time>2026-04-25T09:02:12Z</time></trkpt><trkpt lat="44.45965070667561" lon="8.580127484226805"><ele>886.5999999999999</ele><time>2026-04-25T09:02:13Z</time></trkpt><trkpt lat="44.459757525165706" lon="8.580116550580742"><ele>885.1999999999999</ele><time>2026-04-25T09:02:14Z</time></trkpt><trkpt lat="44.45984550292745" lon="8.580094826642993"><ele>883.8</ele><time>2026-04-25T09:02:15Z</time></trkpt><trkpt lat="44.45991475447062" lon="8.580082827869262"><ele>882.4</ele><time>2026-04-25T09:02:16Z</time></trkpt><trkpt lat="44.46003132603312" lon="8.58007594019887"><ele>881.0</ele><time>2026-04-25T09:02:18Z</time></trkpt><trkpt lat="44.46014400592714" lon="8.580088846016952"><ele>881.0</ele><time>2026-04-25T09:02:20Z</time></trkpt><trkpt lat="44.460256887671214" lon="8.580105307278837"><ele>880.9999999999999</ele><time>2026-04-25T09:02:22Z</time></trkpt><trkpt lat="44.46036960141946" lon="8.58011109867228"><ele>880.9999999999999</ele><time>2026-04-25T09:02:24Z</time></trkpt><trkpt lat="44.4604859219797" lon="8.580116067342844"><ele>881.0</ele><time>2026-04-25T09:02:25.999Z</time></trkpt><trkpt lat="44.460572137840444" lon="8.58014408738802"><ele>881.0</ele><time>2026-04-25T09:02:27.999Z</time></trkpt><trkpt lat="44.46065068893916" lon="8.580207306468125"><ele>880.1666666666667</ele><time>2026-04-25T09:02:29.999Z</time></trkpt><trkpt lat="44.46074813949958" lon="8.580183350755435"><ele>879.3333333333334</ele><time>2026-04-25T09:02:31.999Z</time></trkpt><trkpt lat="44.46082445335104" lon="8.58015905128542"><ele>878.5</ele><time>2026-04-25T09:02:33.999Z</time></trkpt><trkpt lat="44.46093257937413" lon="8.580152855815545"><ele>877.6666666666667</ele><time>2026-04-25T09:02:35.999Z</time></trkpt><trkpt lat="44.46100962315542" lon="8.580169978227524"><ele>876.8333333333334</ele><time>2026-04-25T09:02:36.999Z</time></trkpt><trkpt lat="44.46109329914869" lon="8.58018438091026"><ele>876.0</ele><time>2026-04-25T09:02:37.999Z</time></trkpt><trkpt lat="44.461179227380796" lon="8.580205440882676"><ele>876.0</ele><time>2026-04-25T09:02:38.999Z</time></trkpt><trkpt lat="44.46127409689732" lon="8.580241976469702"><ele>876.0</ele><time>2026-04-25T09:02:39.999Z</time></trkpt><trkpt lat="44.46135834992935" lon="8.580233152788592"><ele>876.0</ele><time>2026-04-25T09:02:40.999Z</time></trkpt><trkpt lat="44.46143871022955" lon="8.580264059494656"><ele>876.0</ele><time>2026-04-25T09:02:41.999Z</time></trkpt><trkpt lat="44.461520191398826" lon="8.580248118582718"><ele>876.0</ele><time>2026-04-25T09:02:42.999Z</time></trkpt><trkpt lat="44.46160109984637" lon="8.580232223550391"><ele>876.0</ele><time>2026-04-25T09:02:43.999Z</time></trkpt><trkpt lat="44.46168446311621" lon="8.580209211085949"><ele>875.8333333333334</ele><time>2026-04-25T09:02:44.999Z</time></trkpt><trkpt lat="44.46177378359208" lon="8.580173733734012"><ele>875.6666666666667</ele><time>2026-04-25T09:02:45.999Z</time></trkpt><trkpt lat="44.46186361375168" lon="8.58013319675713"><ele>875.5</ele><time>2026-04-25T09:02:46.999Z</time></trkpt><trkpt lat="44.46195727142788" lon="8.580127186486175"><ele>875.3333333333334</ele><time>2026-04-25T09:02:47.999Z</time></trkpt><trkpt lat="44.46203826402753" lon="8.580104488815309"><ele>875.1666666666667</ele><time>2026-04-25T09:02:48.999Z</time></trkpt><trkpt lat="44.46211638060974" lon="8.58006345299359"><ele>875.0</ele><time>2026-04-25T09:02:49.999Z</time></trkpt><trkpt lat="44.462194948256254" lon="8.58003478967123"><ele>875.0000000000001</ele><time>2026-04-25T09:02:50.999Z</time></trkpt><trkpt lat="44.462267660335776" lon="8.579991924818819"><ele>875.0</ele><time>2026-04-25T09:02:51.999Z</time></trkpt><trkpt lat="44.46233859204644" lon="8.579935991548613"><ele>875.0</ele><time>2026-04-25T09:02:52.999Z</time></trkpt><trkpt lat="44.462409595433634" lon="8.579862324158537"><ele>875.0</ele><time>2026-04-25T09:02:53.999Z</time></trkpt><trkpt lat="44.46247938813104" lon="8.579763633016219"><ele>875.0000000000001</ele><time>2026-04-25T09:02:54.999Z</time></trkpt><trkpt lat="44.462545666147854" lon="8.579666634088001"><ele>875.0</ele><time>2026-04-25T09:02:55.999Z</time></trkpt><trkpt lat="44.46262033673264" lon="8.57955728581285"><ele>875.25</ele><time>2026-04-25T09:02:56.999Z</time></trkpt><trkpt lat="44.46269726788316" lon="8.579440792674875"><ele>875.5</ele><time>2026-04-25T09:02:57.999Z</time></trkpt><trkpt lat="44.46279040909703" lon="8.579344939315128"><ele>875.75</ele><time>2026-04-25T09:02:58.999Z</time></trkpt><trkpt lat="44.46286595796524" lon="8.579217783099923"><ele>876.0</ele><time>2026-04-25T09:02:59.999Z</time></trkpt><trkpt lat="44.462958033650146" lon="8.579122931354105"><ele>875.1999999999999</ele><time>2026-04-25T09:03:00.999Z</time></trkpt><trkpt lat="44.463032537313744" lon="8.57903576439775"><ele>874.3999999999999</ele><time>2026-04-25T09:03:01.999Z</time></trkpt><trkpt lat="44.46310217623301" lon="8.578955766640293"><ele>873.6</ele><time>2026-04-25T09:03:02.999Z</time></trkpt><trkpt lat="44.46316241826397" lon="8.578874776766607"><ele>872.8</ele><time>2026-04-25T09:03:03.999Z</time></trkpt><trkpt lat="44.463232470419726" lon="8.578794548808014"><ele>872.0</ele><time>2026-04-25T09:03:04.999Z</time></trkpt><trkpt lat="44.46329533347681" lon="8.578692669905974"><ele>872.6</ele><time>2026-04-25T09:03:05.999Z</time></trkpt><trkpt lat="44.46334410890076" lon="8.578577048277731"><ele>873.2</ele><time>2026-04-25T09:03:06.999Z</time></trkpt><trkpt lat="44.46339351304901" lon="8.578453316326694"><ele>873.8</ele><time>2026-04-25T09:03:07.999Z</time></trkpt><trkpt lat="44.4634182887552" lon="8.578322453203121"><ele>874.4</ele><time>2026-04-25T09:03:08.999Z</time></trkpt><trkpt lat="44.46345736004184" lon="8.578210792156359"><ele>875.0</ele><time>2026-04-25T09:03:09.999Z</time></trkpt><trkpt lat="44.46350620775396" lon="8.57812427768178"><ele>875.0000000000001</ele><time>2026-04-25T09:03:10.999Z</time></trkpt><trkpt lat="44.463569984420396" lon="8.578040038070721"><ele>875.0</ele><time>2026-04-25T09:03:11.999Z</time></trkpt><trkpt lat="44.46365838609406" lon="8.577961687405447"><ele>875.0</ele><time>2026-04-25T09:03:12.999Z</time></trkpt><trkpt lat="44.46374186726845" lon="8.577877663500637"><ele>875.0</ele><time>2026-04-25T09:03:13.999Z</time></trkpt><trkpt lat="44.463810676120666" lon="8.577817276902527"><ele>875.0000000000001</ele><time>2026-04-25T09:03:14.999Z</time></trkpt><trkpt lat="44.46386626974965" lon="8.577767831010386"><ele>875.0</ele><time>2026-04-25T09:03:15.999Z</time></trkpt><trkpt lat="44.46395562795899" lon="8.577726234472097"><ele>874.8</ele><time>2026-04-25T09:03:17.999Z</time></trkpt><trkpt lat="44.4640363489819" lon="8.577828989395892"><ele>874.6</ele><time>2026-04-25T09:03:20.999Z</time></trkpt><trkpt lat="44.46410320366301" lon="8.577941863229938"><ele>874.4000000000001</ele><time>2026-04-25T09:03:22.999Z</time></trkpt><trkpt lat="44.4641473282153" lon="8.578015023168597"><ele>874.2</ele><time>2026-04-25T09:03:23.999Z</time></trkpt><trkpt lat="44.46419182581957" lon="8.578083867953133"><ele>874.0</ele><time>2026-04-25T09:03:24.999Z</time></trkpt><trkpt lat="44.46430052085657" lon="8.578185394400744"><ele>873.8000000000001</ele><time>2026-04-25T09:03:26.999Z</time></trkpt><trkpt lat="44.464380046374565" lon="8.578230939425733"><ele>873.6000000000001</ele><time>2026-04-25T09:03:27.999Z</time></trkpt><trkpt lat="44.464477494831776" lon="8.578278257169213"><ele>873.4</ele><time>2026-04-25T09:03:28.999Z</time></trkpt><trkpt lat="44.464586198716454" lon="8.57834001053238"><ele>873.2</ele><time>2026-04-25T09:03:29.999Z</time></trkpt><trkpt lat="44.4646882410893" lon="8.578404358502123"><ele>873.0</ele><time>2026-04-25T09:03:30.999Z</time></trkpt><trkpt lat="44.464785273822685" lon="8.57846899063902"><ele>872.75</ele><time>2026-04-25T09:03:31.999Z</time></trkpt><trkpt lat="44.46486553819336" lon="8.578585321500512"><ele>872.5</ele><time>2026-04-25T09:03:32.999Z</time></trkpt><trkpt lat="44.464951107474704" lon="8.578700839550091"><ele>872.25</ele><time>2026-04-25T09:03:33.999Z</time></trkpt><trkpt lat="44.46504316090679" lon="8.578807828936162"><ele>872.0</ele><time>2026-04-25T09:03:34.999Z</time></trkpt><trkpt lat="44.46512172001001" lon="8.57892038420675"><ele>871.5000000000001</ele><time>2026-04-25T09:03:35.999Z</time></trkpt><trkpt lat="44.46519689756498" lon="8.579023952696383"><ele>871.0</ele><time>2026-04-25T09:03:36.999Z</time></trkpt><trkpt lat="44.465263392772165" lon="8.579118309547958"><ele>870.5</ele><time>2026-04-25T09:03:37.999Z</time></trkpt><trkpt lat="44.465319665335194" lon="8.57920528345881"><ele>870.0</ele><time>2026-04-25T09:03:38.999Z</time></trkpt><trkpt lat="44.46537164594" lon="8.579281891358262"><ele>869.5000000000001</ele><time>2026-04-25T09:03:39.999Z</time></trkpt><trkpt lat="44.46543254238175" lon="8.579353653295133"><ele>869.0</ele><time>2026-04-25T09:03:40.999Z</time></trkpt><trkpt lat="44.46550094482422" lon="8.579427518056049"><ele>869.1666666666667</ele><time>2026-04-25T09:03:41.999Z</time></trkpt><trkpt lat="44.46557786865583" lon="8.579502425997497"><ele>869.3333333333334</ele><time>2026-04-25T09:03:42.999Z</time></trkpt><trkpt lat="44.46565691322148" lon="8.579583854186078"><ele>869.5</ele><time>2026-04-25T09:03:43.999Z</time></trkpt><trkpt lat="44.46572491980502" lon="8.579648970552277"><ele>869.6666666666667</ele><time>2026-04-25T09:03:44.998Z</time></trkpt><trkpt lat="44.46579069325323" lon="8.579697738575042"><ele>869.8333333333334</ele><time>2026-04-25T09:03:45.998Z</time></trkpt><trkpt lat="44.465856425116826" lon="8.579749407138467"><ele>870.0</ele><time>2026-04-25T09:03:46.998Z</time></trkpt><trkpt lat="44.46591800110858" lon="8.579794561021332"><ele>870.0</ele><time>2026-04-25T09:03:47.998Z</time></trkpt><trkpt lat="44.46601536423895" lon="8.579862785359943"><ele>870.0</ele><time>2026-04-25T09:03:49.998Z</time></trkpt><trkpt lat="44.46608267416515" lon="8.579857112815095"><ele>870.0</ele><time>2026-04-25T09:03:50.998Z</time></trkpt><trkpt lat="44.46617918898784" lon="8.579860245506756"><ele>870.0</ele><time>2026-04-25T09:03:51.998Z</time></trkpt><trkpt lat="44.46628343042913" lon="8.579887129496072"><ele>870.0</ele><time>2026-04-25T09:03:52.998Z</time></trkpt><trkpt lat="44.466387229546186" lon="8.579887841661503"><ele>870.0</ele><time>2026-04-25T09:03:53.998Z</time></trkpt><trkpt lat="44.46649359092531" lon="8.579882260533019"><ele>870.0</ele><time>2026-04-25T09:03:54.998Z</time></trkpt><trkpt lat="44.46661230221913" lon="8.579872800052176"><ele>870.0</ele><time>2026-04-25T09:03:55.998Z</time></trkpt><trkpt lat="44.466722791415556" lon="8.579867570297383"><ele>870.0</ele><time>2026-04-25T09:03:56.998Z</time></trkpt><trkpt lat="44.46683163496176" lon="8.579845894196708"><ele>870.0</ele><time>2026-04-25T09:03:57.998Z</time></trkpt><trkpt lat="44.46693996913584" lon="8.57985834968643"><ele>870.0</ele><time>2026-04-25T09:03:58.998Z</time></trkpt><trkpt lat="44.46704357486427" lon="8.579851914564713"><ele>870.0</ele><time>2026-04-25T09:03:59.998Z</time></trkpt><trkpt lat="44.467140111128394" lon="8.57984589907846"><ele>870.0</ele><time>2026-04-25T09:04:00.998Z</time></trkpt><trkpt lat="44.4672309151458" lon="8.579842958061384"><ele>870.0</ele><time>2026-04-25T09:04:01.998Z</time></trkpt><trkpt lat="44.46731424602641" lon="8.579824904681583"><ele>870.0</ele><time>2026-04-25T09:04:02.998Z</time></trkpt><trkpt lat="44.46738777034102" lon="8.579824847048476"><ele>870.0</ele><time>2026-04-25T09:04:04Z</time></trkpt><trkpt lat="44.46745474199779" lon="8.579837941764417"><ele>868.8333333333334</ele><time>2026-04-25T09:04:05Z</time></trkpt><trkpt lat="44.467574026510924" lon="8.579885634212774"><ele>867.6666666666667</ele><time>2026-04-25T09:04:07Z</time></trkpt><trkpt lat="44.46763844341597" lon="8.579877626507981"><ele>866.5</ele><time>2026-04-25T09:04:08Z</time></trkpt><trkpt lat="44.467732009284695" lon="8.57991458439603"><ele>865.3333333333334</ele><time>2026-04-25T09:04:10Z</time></trkpt><trkpt lat="44.46780169254445" lon="8.579976479569009"><ele>864.1666666666667</ele><time>2026-04-25T09:04:13Z</time></trkpt><trkpt lat="44.46786506423671" lon="8.580010716663388"><ele>863.0</ele><time>2026-04-25T09:04:16Z</time></trkpt><trkpt lat="44.467943113420326" lon="8.57983932075762"><ele>862.0</ele><time>2026-04-25T09:04:17Z</time></trkpt><trkpt lat="44.46800906834227" lon="8.579727891544117"><ele>861.0</ele><time>2026-04-25T09:04:18Z</time></trkpt><trkpt lat="44.468092815767676" lon="8.579647123245934"><ele>860.0</ele><time>2026-04-25T09:04:19Z</time></trkpt><trkpt lat="44.46816715599066" lon="8.579564380442303"><ele>859.0</ele><time>2026-04-25T09:04:20Z</time></trkpt><trkpt lat="44.46824377105658" lon="8.579491909496944"><ele>858.0</ele><time>2026-04-25T09:04:21Z</time></trkpt><trkpt lat="44.468307325315074" lon="8.579437665892735"><ele>857.0</ele><time>2026-04-25T09:04:22Z</time></trkpt><trkpt lat="44.46842493574542" lon="8.579401290513486"><ele>856.0</ele><time>2026-04-25T09:04:23.999Z</time></trkpt><trkpt lat="44.468536323612945" lon="8.57936941490832"><ele>855.0</ele><time>2026-04-25T09:04:25.999Z</time></trkpt><trkpt lat="44.46861376891421" lon="8.57935129779402"><ele>854.0</ele><time>2026-04-25T09:04:27.999Z</time></trkpt><trkpt lat="44.46870052075983" lon="8.579396046445716"><ele>853.0</ele><time>2026-04-25T09:04:29.999Z</time></trkpt><trkpt lat="44.46873390637349" lon="8.579474243465018"><ele>853.8333333333333</ele><time>2026-04-25T09:04:30.999Z</time></trkpt><trkpt lat="44.46875950951505" lon="8.57956008987078"><ele>854.6666666666666</ele><time>2026-04-25T09:04:31.999Z</time></trkpt><trkpt lat="44.46877591739037" lon="8.579654625991715"><ele>855.5</ele><time>2026-04-25T09:04:32.999Z</time></trkpt><trkpt lat="44.46876985375933" lon="8.579767259828039"><ele>856.3333333333333</ele><time>2026-04-25T09:04:33.999Z</time></trkpt><trkpt lat="44.46876083799871" lon="8.579900097883161"><ele>857.1666666666666</ele><time>2026-04-25T09:04:34.999Z</time></trkpt><trkpt lat="44.468751081081294" lon="8.580032786313279"><ele>858.0</ele><time>2026-04-25T09:04:35.999Z</time></trkpt><trkpt lat="44.468744855807834" lon="8.580139237891071"><ele>858.0</ele><time>2026-04-25T09:04:36.999Z</time></trkpt><trkpt lat="44.46874256184725" lon="8.580289535308083"><ele>858.0</ele><time>2026-04-25T09:04:37.999Z</time></trkpt><trkpt lat="44.46874913967284" lon="8.58042240907141"><ele>858.0</ele><time>2026-04-25T09:04:38.999Z</time></trkpt><trkpt lat="44.46879287905285" lon="8.58054816053936"><ele>858.0</ele><time>2026-04-25T09:04:39.999Z</time></trkpt><trkpt lat="44.46883680102109" lon="8.580667631911572"><ele>858.0</ele><time>2026-04-25T09:04:40.999Z</time></trkpt><trkpt lat="44.46885644215267" lon="8.580797859260223"><ele>855.5999999999999</ele><time>2026-04-25T09:04:41.999Z</time></trkpt><trkpt lat="44.46891160182396" lon="8.580911962287477"><ele>853.1999999999999</ele><time>2026-04-25T09:04:42.999Z</time></trkpt><trkpt lat="44.46896024102663" lon="8.581019365632898"><ele>850.8</ele><time>2026-04-25T09:04:43.999Z</time></trkpt><trkpt lat="44.46902915555987" lon="8.581104643091592"><ele>848.4</ele><time>2026-04-25T09:04:44.999Z</time></trkpt><trkpt lat="44.46910009713913" lon="8.581182689969857"><ele>846.0</ele><time>2026-04-25T09:04:45.999Z</time></trkpt><trkpt lat="44.46918273485079" lon="8.581249360373452"><ele>846.0</ele><time>2026-04-25T09:04:46.999Z</time></trkpt><trkpt lat="44.46925715803317" lon="8.581329260311062"><ele>846.0</ele><time>2026-04-25T09:04:47.999Z</time></trkpt><trkpt lat="44.46933869788003" lon="8.58140111551487"><ele>846.0</ele><time>2026-04-25T09:04:48.999Z</time></trkpt><trkpt lat="44.46940329021814" lon="8.581507011597857"><ele>846.0</ele><time>2026-04-25T09:04:49.999Z</time></trkpt><trkpt lat="44.4694489368043" lon="8.581604858323885"><ele>846.0</ele><time>2026-04-25T09:04:50.999Z</time></trkpt><trkpt lat="44.46946530541305" lon="8.581726137879098"><ele>846.0</ele><time>2026-04-25T09:04:51.999Z</time></trkpt><trkpt lat="44.469488603894" lon="8.581860880707294"><ele>846.0</ele><time>2026-04-25T09:04:52.999Z</time></trkpt><trkpt lat="44.46949236879145" lon="8.582019782073825"><ele>846.0</ele><time>2026-04-25T09:04:53.999Z</time></trkpt><trkpt lat="44.46956704872867" lon="8.582117406052223"><ele>846.0</ele><time>2026-04-25T09:04:55.999Z</time></trkpt><trkpt lat="44.46964204266964" lon="8.582112960376174"><ele>846.0</ele><time>2026-04-25T09:04:57.999Z</time></trkpt><trkpt lat="44.469676918647785" lon="8.581962206625919"><ele>846.0</ele><time>2026-04-25T09:04:59.999Z</time></trkpt><trkpt lat="44.46964473098166" lon="8.58176891648378"><ele>846.0</ele><time>2026-04-25T09:05:01.999Z</time></trkpt><trkpt lat="44.46962338195986" lon="8.581636918689997"><ele>846.0</ele><time>2026-04-25T09:05:02.999Z</time></trkpt><trkpt lat="44.469598864548296" lon="8.581530001251982"><ele>846.0</ele><time>2026-04-25T09:05:03.999Z</time></trkpt><trkpt lat="44.46959237420183" lon="8.581420932638016"><ele>846.0</ele><time>2026-04-25T09:05:04.999Z</time></trkpt><trkpt lat="44.46956457329503" lon="8.581296159695107"><ele>839.5999999999999</ele><time>2026-04-25T09:05:06.999Z</time></trkpt><trkpt lat="44.46961798972753" lon="8.58123504770654"><ele>833.2</ele><time>2026-04-25T09:05:08.999Z</time></trkpt><trkpt lat="44.46968025133085" lon="8.581261881682316"><ele>826.8</ele><time>2026-04-25T09:05:10.999Z</time></trkpt><trkpt lat="44.469709597472395" lon="8.581392622670881"><ele>820.4000000000001</ele><time>2026-04-25T09:05:13.999Z</time></trkpt><trkpt lat="44.469720648271476" lon="8.581597235613367"><ele>814.0</ele><time>2026-04-25T09:05:15.999Z</time></trkpt><trkpt lat="44.46972249162934" lon="8.581737217624335"><ele>814.0</ele><time>2026-04-25T09:05:16.999Z</time></trkpt><trkpt lat="44.469739053138426" lon="8.581894409328946"><ele>814.0</ele><time>2026-04-25T09:05:17.999Z</time></trkpt><trkpt lat="44.469786138798135" lon="8.582013883009044"><ele>814.0</ele><time>2026-04-25T09:05:18.999Z</time></trkpt><trkpt lat="44.46981795109128" lon="8.582131420692395"><ele>814.0</ele><time>2026-04-25T09:05:19.999Z</time></trkpt><trkpt lat="44.469846352902636" lon="8.582250423929533"><ele>814.0</ele><time>2026-04-25T09:05:20.999Z</time></trkpt><trkpt lat="44.46987394751653" lon="8.582355478077815"><ele>814.6666666666666</ele><time>2026-04-25T09:05:21.999Z</time></trkpt><trkpt lat="44.469917595691086" lon="8.582427318935627"><ele>815.3333333333333</ele><time>2026-04-25T09:05:22.999Z</time></trkpt><trkpt lat="44.46997464962798" lon="8.582469212366242"><ele>816.0</ele><time>2026-04-25T09:05:23.999Z</time></trkpt><trkpt lat="44.47004156431257" lon="8.582492060423384"><ele>816.6666666666667</ele><time>2026-04-25T09:05:24.999Z</time></trkpt><trkpt lat="44.47010960650469" lon="8.582464541676138"><ele>817.3333333333334</ele><time>2026-04-25T09:05:25.999Z</time></trkpt><trkpt lat="44.47017388732258" lon="8.582361741780568"><ele>818.0</ele><time>2026-04-25T09:05:26.999Z</time></trkpt><trkpt lat="44.47025410285388" lon="8.582259786832228"><ele>818.0000000000001</ele><time>2026-04-25T09:05:27.999Z</time></trkpt><trkpt lat="44.47033704962484" lon="8.582161126818757"><ele>818.0</ele><time>2026-04-25T09:05:28.999Z</time></trkpt><trkpt lat="44.470411841315666" lon="8.582082436112072"><ele>818.0</ele><time>2026-04-25T09:05:29.999Z</time></trkpt><trkpt lat="44.4704766018149" lon="8.582031392621328"><ele>818.0</ele><time>2026-04-25T09:05:30.999Z</time></trkpt><trkpt lat="44.47054196422213" lon="8.582011241611859"><ele>818.0000000000001</ele><time>2026-04-25T09:05:31.999Z</time></trkpt><trkpt lat="44.47061272947511" lon="8.582022669573552"><ele>818.0</ele><time>2026-04-25T09:05:32.999Z</time></trkpt><trkpt lat="44.470677655371965" lon="8.582094942187098"><ele>816.1666666666667</ele><time>2026-04-25T09:05:33.999Z</time></trkpt><trkpt lat="44.470736757456216" lon="8.58212774657099"><ele>814.3333333333334</ele><time>2026-04-25T09:05:34.999Z</time></trkpt><trkpt lat="44.470799037974544" lon="8.582141857448853"><ele>812.5</ele><time>2026-04-25T09:05:35.999Z</time></trkpt><trkpt lat="44.47087650997332" lon="8.582086674719175"><ele>810.6666666666667</ele><time>2026-04-25T09:05:36.999Z</time></trkpt><trkpt lat="44.470961019164" lon="8.582039279168573"><ele>808.8333333333334</ele><time>2026-04-25T09:05:37.999Z</time></trkpt><trkpt lat="44.47104450955559" lon="8.582023718453424"><ele>807.0</ele><time>2026-04-25T09:05:38.999Z</time></trkpt><trkpt lat="44.47112112352267" lon="8.581994571856834"><ele>807.0</ele><time>2026-04-25T09:05:39.999Z</time></trkpt><trkpt lat="44.47119850244168" lon="8.582058819672028"><ele>807.0</ele><time>2026-04-25T09:05:40.999Z</time></trkpt><trkpt lat="44.471277198112766" lon="8.582135841716948"><ele>807.0</ele><time>2026-04-25T09:05:41.998Z</time></trkpt><trkpt lat="44.47136162929621" lon="8.582225116300016"><ele>807.0</ele><time>2026-04-25T09:05:42.998Z</time></trkpt><trkpt lat="44.471426608084386" lon="8.582338718182593"><ele>807.0</ele><time>2026-04-25T09:05:43.998Z</time></trkpt><trkpt lat="44.47149324131325" lon="8.582451915896323"><ele>806.0</ele><time>2026-04-25T09:05:44.998Z</time></trkpt><trkpt lat="44.47155208031429" lon="8.582535351878505"><ele>805.0</ele><time>2026-04-25T09:05:45.998Z</time></trkpt><trkpt lat="44.471631267058605" lon="8.58255833513961"><ele>804.0</ele><time>2026-04-25T09:05:46.998Z</time></trkpt><trkpt lat="44.47171150270197" lon="8.58255500677699"><ele>803.0</ele><time>2026-04-25T09:05:47.998Z</time></trkpt><trkpt lat="44.47178898671548" lon="8.582519273112233"><ele>802.0</ele><time>2026-04-25T09:05:48.998Z</time></trkpt><trkpt lat="44.471856857793355" lon="8.582453681541788"><ele>801.0</ele><time>2026-04-25T09:05:49.998Z</time></trkpt><trkpt lat="44.47189636354218" lon="8.582355595988329"><ele>801.0</ele><time>2026-04-25T09:05:50.998Z</time></trkpt><trkpt lat="44.47190713123702" lon="8.58223712145566"><ele>801.0</ele><time>2026-04-25T09:05:51.998Z</time></trkpt><trkpt lat="44.47188955573313" lon="8.582102596398299"><ele>801.0</ele><time>2026-04-25T09:05:52.998Z</time></trkpt><trkpt lat="44.47185797554433" lon="8.581965845453666"><ele>801.0</ele><time>2026-04-25T09:05:53.998Z</time></trkpt><trkpt lat="44.47184818273767" lon="8.581826582252546"><ele>801.0</ele><time>2026-04-25T09:05:54.998Z</time></trkpt><trkpt lat="44.47188987381271" lon="8.58168946793054"><ele>799.1999999999999</ele><time>2026-04-25T09:05:55.998Z</time></trkpt><trkpt lat="44.47193374533969" lon="8.581545785559198"><ele>797.4</ele><time>2026-04-25T09:05:56.998Z</time></trkpt><trkpt lat="44.47199179668137" lon="8.581412388528584"><ele>795.6</ele><time>2026-04-25T09:05:57.998Z</time></trkpt><trkpt lat="44.47206142859054" lon="8.581308062667917"><ele>793.8</ele><time>2026-04-25T09:05:58.998Z</time></trkpt><trkpt lat="44.472152368702076" lon="8.581234670948495"><ele>792.0</ele><time>2026-04-25T09:05:59.998Z</time></trkpt><trkpt lat="44.47225714997938" lon="8.58115926562702"><ele>789.3333333333334</ele><time>2026-04-25T09:06:00.998Z</time></trkpt><trkpt lat="44.47234361943005" lon="8.581073846826344"><ele>786.6666666666667</ele><time>2026-04-25T09:06:01.998Z</time></trkpt><trkpt lat="44.472422462882115" lon="8.581035960195432"><ele>784.0</ele><time>2026-04-25T09:06:02.998Z</time></trkpt><trkpt lat="44.47250779924605" lon="8.581035952396364"><ele>781.3333333333334</ele><time>2026-04-25T09:06:03.998Z</time></trkpt><trkpt lat="44.47259493012703" lon="8.581061812527906"><ele>778.6666666666667</ele><time>2026-04-25T09:06:04.998Z</time></trkpt><trkpt lat="44.472667651866374" lon="8.581057380387964"><ele>776.0</ele><time>2026-04-25T09:06:05.998Z</time></trkpt><trkpt lat="44.47272213879988" lon="8.58097912147931"><ele>776.0</ele><time>2026-04-25T09:06:06.998Z</time></trkpt><trkpt lat="44.472763088898205" lon="8.580867642675296"><ele>776.0</ele><time>2026-04-25T09:06:07.998Z</time></trkpt><trkpt lat="44.47278532542964" lon="8.580720109005885"><ele>776.0</ele><time>2026-04-25T09:06:08.998Z</time></trkpt><trkpt lat="44.47281673279209" lon="8.580592720726214"><ele>776.0</ele><time>2026-04-25T09:06:09.999Z</time></trkpt><trkpt lat="44.472873081788684" lon="8.580485894083386"><ele>776.0</ele><time>2026-04-25T09:06:10.999Z</time></trkpt><trkpt lat="44.47295116665855" lon="8.58041244746022"><ele>774.8</ele><time>2026-04-25T09:06:11.999Z</time></trkpt><trkpt lat="44.47303245371532" lon="8.580298946512732"><ele>773.5999999999999</ele><time>2026-04-25T09:06:12.999Z</time></trkpt><trkpt lat="44.473111110425826" lon="8.580205888389463"><ele>772.4</ele><time>2026-04-25T09:06:13.999Z</time></trkpt><trkpt lat="44.47318538379713" lon="8.58010767479476"><ele>771.2</ele><time>2026-04-25T09:06:14.999Z</time></trkpt><trkpt lat="44.47324423298606" lon="8.580016773510941"><ele>770.0</ele><time>2026-04-25T09:06:15.999Z</time></trkpt><trkpt lat="44.473293376175086" lon="8.579922617667128"><ele>770.0000000000001</ele><time>2026-04-25T09:06:16.999Z</time></trkpt><trkpt lat="44.473340406892085" lon="8.579824353045646"><ele>770.0</ele><time>2026-04-25T09:06:17.999Z</time></trkpt><trkpt lat="44.4733877778855" lon="8.57972354130156"><ele>770.0</ele><time>2026-04-25T09:06:18.999Z</time></trkpt><trkpt lat="44.47344532520264" lon="8.579625628813366"><ele>770.0</ele><time>2026-04-25T09:06:19.999Z</time></trkpt><trkpt lat="44.47351006445586" lon="8.579528326595558"><ele>770.0000000000001</ele><time>2026-04-25T09:06:20.999Z</time></trkpt><trkpt lat="44.47357944839405" lon="8.579469386481763"><ele>770.0</ele><time>2026-04-25T09:06:21.999Z</time></trkpt><trkpt lat="44.47365229426879" lon="8.57944362466872"><ele>766.3333333333334</ele><time>2026-04-25T09:06:22.999Z</time></trkpt><trkpt lat="44.47373148231886" lon="8.579392514008635"><ele>762.6666666666667</ele><time>2026-04-25T09:06:24.999Z</time></trkpt><trkpt lat="44.473696126671456" lon="8.579276821733306"><ele>759.0</ele><time>2026-04-25T09:06:26.999Z</time></trkpt><trkpt lat="44.47359653132003" lon="8.579268316444313"><ele>755.3333333333334</ele><time>2026-04-25T09:06:28.999Z</time></trkpt><trkpt lat="44.473501712282435" lon="8.579332217352174"><ele>751.6666666666667</ele><time>2026-04-25T09:06:30.999Z</time></trkpt><trkpt lat="44.47344548919803" lon="8.579383803816784"><ele>748.0</ele><time>2026-04-25T09:06:31.999Z</time></trkpt><trkpt lat="44.47338612504829" lon="8.579438272344488"><ele>748.0</ele><time>2026-04-25T09:06:32.999Z</time></trkpt><trkpt lat="44.47331975833462" lon="8.579497002239284"><ele>748.0</ele><time>2026-04-25T09:06:33.999Z</time></trkpt><trkpt lat="44.47324869320263" lon="8.579555644842245"><ele>748.0</ele><time>2026-04-25T09:06:34.999Z</time></trkpt><trkpt lat="44.47317835349352" lon="8.579607677127967"><ele>748.0</ele><time>2026-04-25T09:06:35.999Z</time></trkpt><trkpt lat="44.473113006430665" lon="8.579648692877644"><ele>748.0</ele><time>2026-04-25T09:06:36.999Z</time></trkpt><trkpt lat="44.47297576665706" lon="8.579661951522642"><ele>749.2</ele><time>2026-04-25T09:06:38.999Z</time></trkpt><trkpt lat="44.47288457462022" lon="8.579643983626639"><ele>750.4</ele><time>2026-04-25T09:06:39.999Z</time></trkpt><trkpt lat="44.472802165169234" lon="8.57963718046512"><ele>751.6</ele><time>2026-04-25T09:06:40.999Z</time></trkpt><trkpt lat="44.47273887162615" lon="8.579602166785108"><ele>752.8000000000001</ele><time>2026-04-25T09:06:41.999Z</time></trkpt><trkpt lat="44.47264967830434" lon="8.57946345135269"><ele>754.0</ele><time>2026-04-25T09:06:43.999Z</time></trkpt><trkpt lat="44.472627762695616" lon="8.579339658613339"><ele>754.0</ele><time>2026-04-25T09:06:44.999Z</time></trkpt><trkpt lat="44.47263161943126" lon="8.579190486152921"><ele>754.0</ele><time>2026-04-25T09:06:45.999Z</time></trkpt><trkpt lat="44.47261038569172" lon="8.579029788065512"><ele>754.0</ele><time>2026-04-25T09:06:46.999Z</time></trkpt><trkpt lat="44.472611205692445" lon="8.578908221285324"><ele>754.0</ele><time>2026-04-25T09:06:47.999Z</time></trkpt><trkpt lat="44.472607623170475" lon="8.578805329552711"><ele>754.0</ele><time>2026-04-25T09:06:48.999Z</time></trkpt><trkpt lat="44.472632045217" lon="8.578691759215427"><ele>754.0</ele><time>2026-04-25T09:06:50.999Z</time></trkpt><trkpt lat="44.47272542849707" lon="8.57864677665768"><ele>754.0</ele><time>2026-04-25T09:06:52.999Z</time></trkpt><trkpt lat="44.47278251516865" lon="8.578692145004565"><ele>754.0</ele><time>2026-04-25T09:06:53.999Z</time></trkpt><trkpt lat="44.47281267429963" lon="8.57879465797312"><ele>754.0</ele><time>2026-04-25T09:06:54.999Z</time></trkpt><trkpt lat="44.472868475975964" lon="8.578882128178396"><ele>754.0</ele><time>2026-04-25T09:06:55.999Z</time></trkpt><trkpt lat="44.47292470508568" lon="8.578972873856788"><ele>754.0</ele><time>2026-04-25T09:06:56.999Z</time></trkpt><trkpt lat="44.47303353154471" lon="8.579016513623795"><ele>753.0</ele><time>2026-04-25T09:06:58.999Z</time></trkpt><trkpt lat="44.47315829126984" lon="8.578996641215502"><ele>752.0</ele><time>2026-04-25T09:07:00.999Z</time></trkpt><trkpt lat="44.47323583418696" lon="8.578965575049518"><ele>751.0</ele><time>2026-04-25T09:07:01.999Z</time></trkpt><trkpt lat="44.47331477522367" lon="8.578931434022703"><ele>750.0</ele><time>2026-04-25T09:07:02.999Z</time></trkpt><trkpt lat="44.47338030674021" lon="8.578905040232469"><ele>749.0</ele><time>2026-04-25T09:07:03.999Z</time></trkpt><trkpt lat="44.4734488463423" lon="8.578863960524052"><ele>748.0</ele><time>2026-04-25T09:07:04.999Z</time></trkpt><trkpt lat="44.47353035574778" lon="8.578823599560007"><ele>748.0</ele><time>2026-04-25T09:07:05.999Z</time></trkpt><trkpt lat="44.47362298464512" lon="8.57879482469581"><ele>748.0</ele><time>2026-04-25T09:07:06.999Z</time></trkpt><trkpt lat="44.47371248268809" lon="8.578783828409334"><ele>748.0</ele><time>2026-04-25T09:07:07.999Z</time></trkpt><trkpt lat="44.47380502089331" lon="8.578796155384145"><ele>748.0</ele><time>2026-04-25T09:07:08.999Z</time></trkpt><trkpt lat="44.473899308367" lon="8.578817930345428"><ele>748.0</ele><time>2026-04-25T09:07:09.999Z</time></trkpt><trkpt lat="44.47398427237466" lon="8.578838682256048"><ele>743.8</ele><time>2026-04-25T09:07:10.999Z</time></trkpt><trkpt lat="44.47405488486604" lon="8.57885516770127"><ele>739.5999999999999</ele><time>2026-04-25T09:07:11.999Z</time></trkpt><trkpt lat="44.474153026485524" lon="8.578952705364905"><ele>735.4000000000001</ele><time>2026-04-25T09:07:13.999Z</time></trkpt><trkpt lat="44.47419353886266" lon="8.579055732434977"><ele>731.2</ele><time>2026-04-25T09:07:14.999Z</time></trkpt><trkpt lat="44.47423073709164" lon="8.57918999712764"><ele>727.0</ele><time>2026-04-25T09:07:15.999Z</time></trkpt><trkpt lat="44.474265776656345" lon="8.579345113409314"><ele>727.0</ele><time>2026-04-25T09:07:16.999Z</time></trkpt><trkpt lat="44.474304232167235" lon="8.579494857267541"><ele>727.0</ele><time>2026-04-25T09:07:17.999Z</time></trkpt><trkpt lat="44.474344726523654" lon="8.579616019293319"><ele>727.0</ele><time>2026-04-25T09:07:18.999Z</time></trkpt><trkpt lat="44.474383213141024" lon="8.579699203857377"><ele>727.0</ele><time>2026-04-25T09:07:19.999Z</time></trkpt><trkpt lat="44.47441596485799" lon="8.579785910020032"><ele>727.0</ele><time>2026-04-25T09:07:20.999Z</time></trkpt><trkpt lat="44.4744568079798" lon="8.579876222740191"><ele>727.0</ele><time>2026-04-25T09:07:21.999Z</time></trkpt><trkpt lat="44.474502616446244" lon="8.579967639977255"><ele>724.4000000000001</ele><time>2026-04-25T09:07:22.999Z</time></trkpt><trkpt lat="44.4745637884246" lon="8.580063734375639"><ele>721.8000000000001</ele><time>2026-04-25T09:07:23.999Z</time></trkpt><trkpt lat="44.474620725147" lon="8.580180420399145"><ele>719.2</ele><time>2026-04-25T09:07:24.999Z</time></trkpt><trkpt lat="44.47471236195302" lon="8.580269021344948"><ele>716.6</ele><time>2026-04-25T09:07:25.999Z</time></trkpt><trkpt lat="44.474787199023254" lon="8.580376118522162"><ele>714.0</ele><time>2026-04-25T09:07:26.999Z</time></trkpt><trkpt lat="44.474871202247286" lon="8.580464442344232"><ele>714.0</ele><time>2026-04-25T09:07:27.999Z</time></trkpt><trkpt lat="44.474942376098255" lon="8.580565808870634"><ele>714.0</ele><time>2026-04-25T09:07:28.999Z</time></trkpt><trkpt lat="44.475001573432905" lon="8.580669208944673"><ele>714.0</ele><time>2026-04-25T09:07:29.999Z</time></trkpt><trkpt lat="44.47505546318207" lon="8.580773755236095"><ele>714.0</ele><time>2026-04-25T09:07:30.999Z</time></trkpt><trkpt lat="44.475109400325536" lon="8.580889453134764"><ele>714.0</ele><time>2026-04-25T09:07:31.999Z</time></trkpt><trkpt lat="44.475162058595586" lon="8.581010352621226"><ele>714.0</ele><time>2026-04-25T09:07:32.999Z</time></trkpt><trkpt lat="44.47518297375174" lon="8.581139379146283"><ele>714.0</ele><time>2026-04-25T09:07:33.999Z</time></trkpt><trkpt lat="44.47521566481061" lon="8.581249713793762"><ele>714.0</ele><time>2026-04-25T09:07:34.999Z</time></trkpt><trkpt lat="44.47525828895162" lon="8.581327114515975"><ele>714.0</ele><time>2026-04-25T09:07:35.999Z</time></trkpt><trkpt lat="44.475280908152996" lon="8.581420847589744"><ele>714.0</ele><time>2026-04-25T09:07:36.999Z</time></trkpt><trkpt lat="44.47532929685154" lon="8.581502180991956"><ele>714.0</ele><time>2026-04-25T09:07:37.999Z</time></trkpt><trkpt lat="44.475379611176386" lon="8.581577679732803"><ele>710.8333333333334</ele><time>2026-04-25T09:07:38.999Z</time></trkpt><trkpt lat="44.47546073128497" lon="8.581585911071874"><ele>707.6666666666666</ele><time>2026-04-25T09:07:39.999Z</time></trkpt><trkpt lat="44.4755311027898" lon="8.581600025419496"><ele>704.5</ele><time>2026-04-25T09:07:40.999Z</time></trkpt><trkpt lat="44.475608598726595" lon="8.58163970472658"><ele>701.3333333333333</ele><time>2026-04-25T09:07:41.998Z</time></trkpt><trkpt lat="44.47569142231652" lon="8.581677000549728"><ele>698.1666666666666</ele><time>2026-04-25T09:07:42.998Z</time></trkpt><trkpt lat="44.47576597017164" lon="8.581703808942304"><ele>695.0</ele><time>2026-04-25T09:07:43.998Z</time></trkpt><trkpt lat="44.475826294012435" lon="8.581730218897968"><ele>695.0</ele><time>2026-04-25T09:07:44.998Z</time></trkpt><trkpt lat="44.47591416836514" lon="8.581758516028435"><ele>695.0</ele><time>2026-04-25T09:07:46.998Z</time></trkpt><trkpt lat="44.476007226202974" lon="8.581758428703019"><ele>695.0</ele><time>2026-04-25T09:07:48.998Z</time></trkpt><trkpt lat="44.476098864051" lon="8.581746947581205"><ele>695.0</ele><time>2026-04-25T09:07:50.998Z</time></trkpt><trkpt lat="44.476209228660935" lon="8.581729232283605"><ele>695.0</ele><time>2026-04-25T09:07:52.998Z</time></trkpt><trkpt lat="44.47627211132199" lon="8.58171994830768"><ele>696.0000000000001</ele><time>2026-04-25T09:07:53.998Z</time></trkpt><trkpt lat="44.47633454578578" lon="8.581740913668666"><ele>697.0</ele><time>2026-04-25T09:07:54.998Z</time></trkpt><trkpt lat="44.476395971047246" lon="8.581779265619412"><ele>698.0</ele><time>2026-04-25T09:07:55.998Z</time></trkpt><trkpt lat="44.47645345070985" lon="8.581838646079426"><ele>699.0</ele><time>2026-04-25T09:07:56.998Z</time></trkpt><trkpt lat="44.47649914974126" lon="8.58191293118691"><ele>700.0</ele><time>2026-04-25T09:07:57.998Z</time></trkpt><trkpt lat="44.47654385895528" lon="8.581993358928226"><ele>701.0000000000001</ele><time>2026-04-25T09:07:58.998Z</time></trkpt><trkpt lat="44.47659712547135" lon="8.582061811670073"><ele>702.0</ele><time>2026-04-25T09:07:59.998Z</time></trkpt><trkpt lat="44.476667423021006" lon="8.582108735608594"><ele>702.0</ele><time>2026-04-25T09:08:00.998Z</time></trkpt><trkpt lat="44.476750301474205" lon="8.582143878485088"><ele>702.0</ele><time>2026-04-25T09:08:01.998Z</time></trkpt><trkpt lat="44.47684396829295" lon="8.582201136757643"><ele>702.0</ele><time>2026-04-25T09:08:02.998Z</time></trkpt><trkpt lat="44.47695662348337" lon="8.582200310242365"><ele>702.0</ele><time>2026-04-25T09:08:03.998Z</time></trkpt><trkpt lat="44.47706465557871" lon="8.582221742593454"><ele>702.0</ele><time>2026-04-25T09:08:04.998Z</time></trkpt><trkpt lat="44.47715825590836" lon="8.582284152737305"><ele>698.6666666666666</ele><time>2026-04-25T09:08:05.998Z</time></trkpt><trkpt lat="44.47723942915475" lon="8.582324966136223"><ele>695.3333333333334</ele><time>2026-04-25T09:08:06.998Z</time></trkpt><trkpt lat="44.4773203604099" lon="8.582362166668943"><ele>692.0</ele><time>2026-04-25T09:08:07.998Z</time></trkpt><trkpt lat="44.477402880191406" lon="8.582390797227646"><ele>688.6666666666667</ele><time>2026-04-25T09:08:08.998Z</time></trkpt><trkpt lat="44.47748447163231" lon="8.582405195678303"><ele>685.3333333333334</ele><time>2026-04-25T09:08:09.998Z</time></trkpt><trkpt lat="44.477568158633105" lon="8.582402000946143"><ele>682.0</ele><time>2026-04-25T09:08:10.998Z</time></trkpt><trkpt lat="44.477648508911635" lon="8.582336975167328"><ele>682.0</ele><time>2026-04-25T09:08:11.998Z</time></trkpt><trkpt lat="44.47773216876749" lon="8.582314625663487"><ele>682.0</ele><time>2026-04-25T09:08:12.998Z</time></trkpt><trkpt lat="44.47780839787767" lon="8.582323299197455"><ele>682.0</ele><time>2026-04-25T09:08:13.998Z</time></trkpt><trkpt lat="44.47788777699183" lon="8.58238991771061"><ele>682.0</ele><time>2026-04-25T09:08:14.998Z</time></trkpt><trkpt lat="44.4779776842913" lon="8.582439844172342"><ele>682.0</ele><time>2026-04-25T09:08:15.999Z</time></trkpt><trkpt lat="44.47806069625663" lon="8.582505190308416"><ele>682.0</ele><time>2026-04-25T09:08:16.999Z</time></trkpt><trkpt lat="44.47814811641237" lon="8.582569962421575"><ele>683.5</ele><time>2026-04-25T09:08:17.999Z</time></trkpt><trkpt lat="44.47823370386117" lon="8.582629791536279"><ele>685.0</ele><time>2026-04-25T09:08:18.999Z</time></trkpt><trkpt lat="44.47830537850405" lon="8.58267178983911"><ele>686.5</ele><time>2026-04-25T09:08:19.999Z</time></trkpt><trkpt lat="44.47837058521533" lon="8.582740101567532"><ele>688.0</ele><time>2026-04-25T09:08:20.999Z</time></trkpt><trkpt lat="44.47844534096933" lon="8.582790806552447"><ele>689.5</ele><time>2026-04-25T09:08:21.999Z</time></trkpt><trkpt lat="44.47851693862905" lon="8.582839369480993"><ele>691.0</ele><time>2026-04-25T09:08:22.999Z</time></trkpt><trkpt lat="44.47858632809316" lon="8.582879199897528"><ele>691.0</ele><time>2026-04-25T09:08:23.999Z</time></trkpt><trkpt lat="44.4786527923273" lon="8.582925000555367"><ele>691.0</ele><time>2026-04-25T09:08:24.999Z</time></trkpt><trkpt lat="44.47872519195875" lon="8.58296824947983"><ele>691.0</ele><time>2026-04-25T09:08:25.999Z</time></trkpt><trkpt lat="44.47880386831274" lon="8.583000857925938"><ele>691.0</ele><time>2026-04-25T09:08:26.999Z</time></trkpt><trkpt lat="44.47888546613295" lon="8.58301784239845"><ele>691.0</ele><time>2026-04-25T09:08:27.999Z</time></trkpt><trkpt lat="44.47897001527975" lon="8.58303129096925"><ele>691.0</ele><time>2026-04-25T09:08:28.999Z</time></trkpt><trkpt lat="44.47905904377354" lon="8.583035715694566"><ele>686.5</ele><time>2026-04-25T09:08:29.999Z</time></trkpt><trkpt lat="44.479149370432324" lon="8.583029945575081"><ele>682.0</ele><time>2026-04-25T09:08:30.999Z</time></trkpt><trkpt lat="44.47924286548863" lon="8.583022964992786"><ele>677.5</ele><time>2026-04-25T09:08:31.999Z</time></trkpt><trkpt lat="44.479328014151896" lon="8.583015646297433"><ele>673.0</ele><time>2026-04-25T09:08:32.999Z</time></trkpt><trkpt lat="44.4794091980801" lon="8.58300547626787"><ele>668.5</ele><time>2026-04-25T09:08:33.999Z</time></trkpt><trkpt lat="44.47948637524268" lon="8.58297616367484"><ele>664.0</ele><time>2026-04-25T09:08:34.999Z</time></trkpt><trkpt lat="44.47955889970121" lon="8.582925437195717"><ele>658.8333333333334</ele><time>2026-04-25T09:08:35.999Z</time></trkpt><trkpt lat="44.479622627962314" lon="8.582876890034294"><ele>653.6666666666667</ele><time>2026-04-25T09:08:36.999Z</time></trkpt><trkpt lat="44.47968055005735" lon="8.582833866085727"><ele>648.5</ele><time>2026-04-25T09:08:37.999Z</time></trkpt><trkpt lat="44.47979718209322" lon="8.582807088180495"><ele>643.3333333333334</ele><time>2026-04-25T09:08:39.999Z</time></trkpt><trkpt lat="44.479853795784166" lon="8.582855906179912"><ele>638.1666666666666</ele><time>2026-04-25T09:08:40.999Z</time></trkpt><trkpt lat="44.479897179202375" lon="8.582947485433618"><ele>633.0</ele><time>2026-04-25T09:08:41.999Z</time></trkpt><trkpt lat="44.479928235273256" lon="8.58304633691748"><ele>633.0</ele><time>2026-04-25T09:08:42.999Z</time></trkpt><trkpt lat="44.47995227406283" lon="8.583156087899892"><ele>633.0</ele><time>2026-04-25T09:08:43.999Z</time></trkpt><trkpt lat="44.47998267389649" lon="8.583272820524629"><ele>633.0</ele><time>2026-04-25T09:08:44.999Z</time></trkpt><trkpt lat="44.48002230251842" lon="8.583410595703453"><ele>633.0</ele><time>2026-04-25T09:08:45.999Z</time></trkpt><trkpt lat="44.48006076592431" lon="8.583560785106773"><ele>633.0</ele><time>2026-04-25T09:08:46.999Z</time></trkpt><trkpt lat="44.48010324500984" lon="8.583709595092502"><ele>635.0</ele><time>2026-04-25T09:08:47.999Z</time></trkpt><trkpt lat="44.48014848754794" lon="8.583861264589144"><ele>637.0</ele><time>2026-04-25T09:08:48.999Z</time></trkpt><trkpt lat="44.48020779652561" lon="8.584000860884343"><ele>639.0</ele><time>2026-04-25T09:08:49.999Z</time></trkpt><trkpt lat="44.4802812701977" lon="8.584125952950954"><ele>641.0</ele><time>2026-04-25T09:08:50.999Z</time></trkpt><trkpt lat="44.480369715204056" lon="8.584237050763804"><ele>634.1999999999999</ele><time>2026-04-25T09:08:51.999Z</time></trkpt><trkpt lat="44.480461258201565" lon="8.584340729161159"><ele>627.4</ele><time>2026-04-25T09:08:52.999Z</time></trkpt><trkpt lat="44.480544780193895" lon="8.584445271626723"><ele>620.6</ele><time>2026-04-25T09:08:53.999Z</time></trkpt><trkpt lat="44.4806253424075" lon="8.58452195963765"><ele>613.8</ele><time>2026-04-25T09:08:54.999Z</time></trkpt><trkpt lat="44.48068423373404" lon="8.5846236082239"><ele>607.0</ele><time>2026-04-25T09:08:55.999Z</time></trkpt><trkpt lat="44.480728206325715" lon="8.58475139326692"><ele>607.0</ele><time>2026-04-25T09:08:56.999Z</time></trkpt><trkpt lat="44.48075200416008" lon="8.584888980918457"><ele>607.0</ele><time>2026-04-25T09:08:57.999Z</time></trkpt><trkpt lat="44.480768785769236" lon="8.585030252740943"><ele>607.0</ele><time>2026-04-25T09:08:58.999Z</time></trkpt><trkpt lat="44.48077761174073" lon="8.585171354934475"><ele>607.0</ele><time>2026-04-25T09:08:59.999Z</time></trkpt><trkpt lat="44.48077473979658" lon="8.585315348224285"><ele>607.0</ele><time>2026-04-25T09:09:00.999Z</time></trkpt><trkpt lat="44.48077040961618" lon="8.58545962166769"><ele>607.8000000000001</ele><time>2026-04-25T09:09:01.999Z</time></trkpt><trkpt lat="44.4807682808126" lon="8.585605222361913"><ele>608.6</ele><time>2026-04-25T09:09:02.999Z</time></trkpt><trkpt lat="44.480778414485364" lon="8.585752532538624"><ele>609.4000000000001</ele><time>2026-04-25T09:09:03.999Z</time></trkpt><trkpt lat="44.48078916090162" lon="8.585910649917603"><ele>610.2</ele><time>2026-04-25T09:09:04.999Z</time></trkpt><trkpt lat="44.48083434310481" lon="8.586070381130646"><ele>611.0</ele><time>2026-04-25T09:09:05.999Z</time></trkpt><trkpt lat="44.48088937092285" lon="8.58623229543519"><ele>613.0</ele><time>2026-04-25T09:09:06.999Z</time></trkpt><trkpt lat="44.48095296888606" lon="8.58638428821175"><ele>615.0</ele><time>2026-04-25T09:09:07.999Z</time></trkpt><trkpt lat="44.48100202540743" lon="8.586549349192188"><ele>617.0</ele><time>2026-04-25T09:09:08.999Z</time></trkpt><trkpt lat="44.48104734699239" lon="8.586719188300139"><ele>619.0</ele><time>2026-04-25T09:09:09.999Z</time></trkpt><trkpt lat="44.4810831442694" lon="8.586895730123283"><ele>621.2</ele><time>2026-04-25T09:09:10.999Z</time></trkpt><trkpt lat="44.481109965575115" lon="8.58705640660521"><ele>623.4</ele><time>2026-04-25T09:09:11.999Z</time></trkpt><trkpt lat="44.48114181151748" lon="8.587173740664324"><ele>625.6</ele><time>2026-04-25T09:09:12.999Z</time></trkpt><trkpt lat="44.481196700761885" lon="8.587275559457636"><ele>627.8</ele><time>2026-04-25T09:09:13.999Z</time></trkpt><trkpt lat="44.481262997141954" lon="8.587380170127252"><ele>630.0</ele><time>2026-04-25T09:09:14.999Z</time></trkpt><trkpt lat="44.481381993616424" lon="8.587398751086358"><ele>618.25</ele><time>2026-04-25T09:09:15.999Z</time></trkpt><trkpt lat="44.48149151726114" lon="8.587438452711517"><ele>606.5</ele><time>2026-04-25T09:09:16.999Z</time></trkpt><trkpt lat="44.4815956921672" lon="8.587512907887337"><ele>594.75</ele><time>2026-04-25T09:09:17.999Z</time></trkpt><trkpt lat="44.4816947223024" lon="8.58761744909757"><ele>583.0</ele><time>2026-04-25T09:09:18.999Z</time></trkpt><trkpt lat="44.4817987129117" lon="8.587728169149399"><ele>583.0</ele><time>2026-04-25T09:09:19.999Z</time></trkpt><trkpt lat="44.48191897124437" lon="8.587821595644586"><ele>583.0</ele><time>2026-04-25T09:09:20.999Z</time></trkpt><trkpt lat="44.482043857596686" lon="8.587909889614528"><ele>583.0</ele><time>2026-04-25T09:09:21.999Z</time></trkpt><trkpt lat="44.48216653597214" lon="8.588010288595283"><ele>583.0</ele><time>2026-04-25T09:09:22.999Z</time></trkpt><trkpt lat="44.48229025959165" lon="8.588109046292185"><ele>580.75</ele><time>2026-04-25T09:09:23.999Z</time></trkpt><trkpt lat="44.48240131739149" lon="8.588215921788672"><ele>578.5</ele><time>2026-04-25T09:09:24.999Z</time></trkpt><trkpt lat="44.4825191383532" lon="8.588282317791474"><ele>576.25</ele><time>2026-04-25T09:09:25.999Z</time></trkpt><trkpt lat="44.482637968921026" lon="8.588335914116673"><ele>574.0</ele><time>2026-04-25T09:09:26.999Z</time></trkpt><trkpt lat="44.48276373837198" lon="8.58834629524342"><ele>574.0</ele><time>2026-04-25T09:09:27.999Z</time></trkpt><trkpt lat="44.482877281238586" lon="8.588382617826246"><ele>574.0</ele><time>2026-04-25T09:09:28.999Z</time></trkpt><trkpt lat="44.48297855342603" lon="8.588449235441763"><ele>574.0</ele><time>2026-04-25T09:09:29.999Z</time></trkpt><trkpt lat="44.48306169629136" lon="8.588527584179156"><ele>574.0</ele><time>2026-04-25T09:09:30.999Z</time></trkpt><trkpt lat="44.48312087799811" lon="8.588601888954278"><ele>574.0</ele><time>2026-04-25T09:09:31.999Z</time></trkpt><trkpt lat="44.48315485653825" lon="8.588691265990787"><ele>571.3333333333334</ele><time>2026-04-25T09:09:32.999Z</time></trkpt><trkpt lat="44.483166735273" lon="8.588808958690084"><ele>568.6666666666667</ele><time>2026-04-25T09:09:33.999Z</time></trkpt><trkpt lat="44.483145821096564" lon="8.588932385122737"><ele>566.0</ele><time>2026-04-25T09:09:34.999Z</time></trkpt><trkpt lat="44.48311878212306" lon="8.589054289648022"><ele>563.3333333333334</ele><time>2026-04-25T09:09:35.999Z</time></trkpt><trkpt lat="44.483107376003595" lon="8.58916168948926"><ele>560.6666666666666</ele><time>2026-04-25T09:09:36.999Z</time></trkpt><trkpt lat="44.483121725978606" lon="8.58929450210362"><ele>558.0</ele><time>2026-04-25T09:09:38.999Z</time></trkpt><trkpt lat="44.48320319784466" lon="8.589317987646668"><ele>558.0</ele><time>2026-04-25T09:09:40.999Z</time></trkpt><trkpt lat="44.48325628506128" lon="8.589164537842507"><ele>558.0</ele><time>2026-04-25T09:09:42.999Z</time></trkpt><trkpt lat="44.4832635573737" lon="8.589051525122356"><ele>558.0</ele><time>2026-04-25T09:09:43.998Z</time></trkpt><trkpt lat="44.48328232939696" lon="8.588930900286048"><ele>558.0</ele><time>2026-04-25T09:09:44.998Z</time></trkpt><trkpt lat="44.48332037757283" lon="8.58884828831164"><ele>558.0</ele><time>2026-04-25T09:09:45.998Z</time></trkpt><trkpt lat="44.483371205214496" lon="8.588755424730378"><ele>558.0</ele><time>2026-04-25T09:09:47.998Z</time></trkpt><trkpt lat="44.483454074399376" lon="8.58883329327291"><ele>558.0</ele><time>2026-04-25T09:09:49.998Z</time></trkpt><trkpt lat="44.483446336199194" lon="8.588932332569293"><ele>558.0</ele><time>2026-04-25T09:09:50.998Z</time></trkpt><trkpt lat="44.48340964670842" lon="8.589020965255903"><ele>558.0</ele><time>2026-04-25T09:09:51.998Z</time></trkpt><trkpt lat="44.48338045321684" lon="8.58911807112378"><ele>558.0</ele><time>2026-04-25T09:09:52.998Z</time></trkpt><trkpt lat="44.483358252778125" lon="8.589226156499729"><ele>558.0</ele><time>2026-04-25T09:09:53.998Z</time></trkpt><trkpt lat="44.48332393305314" lon="8.58933126131928"><ele>558.0</ele><time>2026-04-25T09:09:54.998Z</time></trkpt><trkpt lat="44.48330584957619" lon="8.589441155200257"><ele>556.1999999999999</ele><time>2026-04-25T09:09:55.998Z</time></trkpt><trkpt lat="44.48332012696487" lon="8.589549949960174"><ele>554.4</ele><time>2026-04-25T09:09:56.998Z</time></trkpt><trkpt lat="44.48333818456726" lon="8.589640285238804"><ele>552.5999999999999</ele><time>2026-04-25T09:09:57.998Z</time></trkpt><trkpt lat="44.48342750833554" lon="8.589777441499043"><ele>550.8</ele><time>2026-04-25T09:09:59.998Z</time></trkpt><trkpt lat="44.48350193291783" lon="8.589840977130114"><ele>549.0</ele><time>2026-04-25T09:10:00.998Z</time></trkpt><trkpt lat="44.48356646872075" lon="8.589928583230883"><ele>549.0</ele><time>2026-04-25T09:10:01.998Z</time></trkpt><trkpt lat="44.483626042666444" lon="8.589989235954722"><ele>549.0</ele><time>2026-04-25T09:10:02.998Z</time></trkpt><trkpt lat="44.48367293036319" lon="8.59004823094027"><ele>549.0</ele><time>2026-04-25T09:10:03.998Z</time></trkpt><trkpt lat="44.48369151927539" lon="8.590216345843341"><ele>549.0</ele><time>2026-04-25T09:10:05.998Z</time></trkpt><trkpt lat="44.483702857513244" lon="8.5903083317767"><ele>549.0</ele><time>2026-04-25T09:10:06.998Z</time></trkpt><trkpt lat="44.483725331702324" lon="8.590393505064437"><ele>549.0</ele><time>2026-04-25T09:10:07.998Z</time></trkpt><trkpt lat="44.48375757076529" lon="8.590472727244615"><ele>547.6</ele><time>2026-04-25T09:10:08.998Z</time></trkpt><trkpt lat="44.48381372284121" lon="8.590527797297128"><ele>546.2</ele><time>2026-04-25T09:10:09.998Z</time></trkpt><trkpt lat="44.48388673143732" lon="8.590563138798053"><ele>544.8000000000001</ele><time>2026-04-25T09:10:10.998Z</time></trkpt><trkpt lat="44.48397433276447" lon="8.590577114721285"><ele>543.4</ele><time>2026-04-25T09:10:11.998Z</time></trkpt><trkpt lat="44.48407703402868" lon="8.590578383876432"><ele>542.0</ele><time>2026-04-25T09:10:12.998Z</time></trkpt><trkpt lat="44.48419889703943" lon="8.590578105636881"><ele>542.0</ele><time>2026-04-25T09:10:13.998Z</time></trkpt><trkpt lat="44.4843163602149" lon="8.59057357491062"><ele>542.0</ele><time>2026-04-25T09:10:14.998Z</time></trkpt><trkpt lat="44.48442409721731" lon="8.590565567846797"><ele>542.0</ele><time>2026-04-25T09:10:15.998Z</time></trkpt><trkpt lat="44.48454707739986" lon="8.590556348216442"><ele>542.0</ele><time>2026-04-25T09:10:16.998Z</time></trkpt><trkpt lat="44.484680709088785" lon="8.590503875803366"><ele>540.75</ele><time>2026-04-25T09:10:17.998Z</time></trkpt><trkpt lat="44.48483558184301" lon="8.590426502222078"><ele>539.5</ele><time>2026-04-25T09:10:18.998Z</time></trkpt><trkpt lat="44.484973705773164" lon="8.590374252199087"><ele>538.25</ele><time>2026-04-25T09:10:19.998Z</time></trkpt><trkpt lat="44.48510227037409" lon="8.590339459995638"><ele>537.0</ele><time>2026-04-25T09:10:20.999Z</time></trkpt><trkpt lat="44.48521725216628" lon="8.590316605404729"><ele>536.0</ele><time>2026-04-25T09:10:21.999Z</time></trkpt><trkpt lat="44.48531421305984" lon="8.590309109084371"><ele>535.0</ele><time>2026-04-25T09:10:22.999Z</time></trkpt><trkpt lat="44.48539075411259" lon="8.590284524130453"><ele>534.0</ele><time>2026-04-25T09:10:23.999Z</time></trkpt><trkpt lat="44.48545039933316" lon="8.590251963506203"><ele>533.0</ele><time>2026-04-25T09:10:24.999Z</time></trkpt><trkpt lat="44.48551883009159" lon="8.590172328877488"><ele>532.0</ele><time>2026-04-25T09:10:26.999Z</time></trkpt><trkpt lat="44.485591579252905" lon="8.590226901725357"><ele>531.0</ele><time>2026-04-25T09:10:35.999Z</time></trkpt><trkpt lat="44.48571732551366" lon="8.590333612883729"><ele>531.2</ele><time>2026-04-25T09:10:37.999Z</time></trkpt><trkpt lat="44.48583364258509" lon="8.59037576894326"><ele>531.4000000000001</ele><time>2026-04-25T09:10:38.999Z</time></trkpt><trkpt lat="44.48591878314875" lon="8.59043946225189"><ele>531.6</ele><time>2026-04-25T09:10:39.999Z</time></trkpt><trkpt lat="44.486012730498985" lon="8.590503145212537"><ele>531.8000000000001</ele><time>2026-04-25T09:10:40.999Z</time></trkpt><trkpt lat="44.48609908638053" lon="8.590552795131126"><ele>532.0</ele><time>2026-04-25T09:10:41.999Z</time></trkpt><trkpt lat="44.486159224856394" lon="8.59058470671191"><ele>532.0</ele><time>2026-04-25T09:10:42.999Z</time></trkpt><trkpt lat="44.48622613783576" lon="8.590639439392588"><ele>532.0</ele><time>2026-04-25T09:10:44.999Z</time></trkpt></trkseg><trkseg><trkpt lat="44.48334115199065" lon="8.59245072657197"><ele>560.0</ele><time>2026-04-25T09:20:24Z</time></trkpt><trkpt lat="44.483248627739705" lon="8.592531620235079"><ele>560.0</ele><time>2026-04-25T09:20:25Z</time></trkpt><trkpt lat="44.48315667854548" lon="8.592625564790476"><ele>560.0</ele><time>2026-04-25T09:20:26Z</time></trkpt><trkpt lat="44.48306793136699" lon="8.592702607394065"><ele>560.0</ele><time>2026-04-25T09:20:27Z</time></trkpt><trkpt lat="44.482969893674436" lon="8.592751808473343"><ele>560.0</ele><time>2026-04-25T09:20:28Z</time></trkpt><trkpt lat="44.48287124509412" lon="8.592762527649715"><ele>562.5</ele><time>2026-04-25T09:20:29Z</time></trkpt><trkpt lat="44.482739456853345" lon="8.592735247152994"><ele>565.0</ele><time>2026-04-25T09:20:30Z</time></trkpt><trkpt lat="44.482579639089295" lon="8.592768633605713"><ele>567.5</ele><time>2026-04-25T09:20:31Z</time></trkpt><trkpt lat="44.48246352150266" lon="8.59281623170486"><ele>570.0</ele><time>2026-04-25T09:20:31.999Z</time></trkpt><trkpt lat="44.48236241995762" lon="8.592917574779591"><ele>570.0</ele><time>2026-04-25T09:20:32.999Z</time></trkpt><trkpt lat="44.482277731742606" lon="8.593053106835459"><ele>570.0</ele><time>2026-04-25T09:20:33.999Z</time></trkpt><trkpt lat="44.482211068465716" lon="8.593200233519024"><ele>570.0</ele><time>2026-04-25T09:20:34.999Z</time></trkpt><trkpt lat="44.48214940989426" lon="8.593323225311195"><ele>570.0</ele><time>2026-04-25T09:20:35.999Z</time></trkpt><trkpt lat="44.482154374008736" lon="8.593476814436405"><ele>570.0</ele><time>2026-04-25T09:20:36.999Z</time></trkpt><trkpt lat="44.48217141391555" lon="8.593641238017584"><ele>570.0</ele><time>2026-04-25T09:20:37.999Z</time></trkpt><trkpt lat="44.482210495880544" lon="8.59377387976746"><ele>570.0</ele><time>2026-04-25T09:20:38.999Z</time></trkpt><trkpt lat="44.48223534713574" lon="8.593909974015803"><ele>570.0</ele><time>2026-04-25T09:20:39.999Z</time></trkpt><trkpt lat="44.48229228523539" lon="8.594041593729578"><ele>570.0</ele><time>2026-04-25T09:20:40.999Z</time></trkpt><trkpt lat="44.4824027181439" lon="8.594160673248078"><ele>570.0</ele><time>2026-04-25T09:20:41.999Z</time></trkpt><trkpt lat="44.482501911020606" lon="8.59429410548733"><ele>570.0</ele><time>2026-04-25T09:20:42.999Z</time></trkpt><trkpt lat="44.48255255175673" lon="8.594435077722887"><ele>570.0</ele><time>2026-04-25T09:20:43.999Z</time></trkpt><trkpt lat="44.48258280899104" lon="8.594560871637908"><ele>570.0</ele><time>2026-04-25T09:20:44.999Z</time></trkpt><trkpt lat="44.482597238186344" lon="8.594692823144909"><ele>570.0</ele><time>2026-04-25T09:20:45.999Z</time></trkpt><trkpt lat="44.482596453072276" lon="8.594827871064371"><ele>570.0</ele><time>2026-04-25T09:20:46.999Z</time></trkpt><trkpt lat="44.4825854346118" lon="8.594945443123471"><ele>570.0</ele><time>2026-04-25T09:20:47.999Z</time></trkpt><trkpt lat="44.48259030332074" lon="8.595038146652733"><ele>570.0</ele><time>2026-04-25T09:20:48.999Z</time></trkpt><trkpt lat="44.48257208505351" lon="8.595143342581498"><ele>570.0</ele><time>2026-04-25T09:20:51.001Z</time></trkpt><trkpt lat="44.48254482305407" lon="8.595303448658097"><ele>570.0</ele><time>2026-04-25T09:21:15Z</time></trkpt><trkpt lat="44.482521460714615" lon="8.595394069208792"><ele>570.0</ele><time>2026-04-25T09:21:16Z</time></trkpt><trkpt lat="44.482488274710384" lon="8.595486019703623"><ele>572.8</ele><time>2026-04-25T09:21:17Z</time></trkpt><trkpt lat="44.48243104396833" lon="8.595571802388115"><ele>575.6</ele><time>2026-04-25T09:21:18Z</time></trkpt><trkpt lat="44.48233447198425" lon="8.59566099232551"><ele>578.4</ele><time>2026-04-25T09:21:19Z</time></trkpt><trkpt lat="44.482271929270254" lon="8.595778694476671"><ele>581.2</ele><time>2026-04-25T09:21:20Z</time></trkpt><trkpt lat="44.48218934070703" lon="8.595880371305132"><ele>584.0</ele><time>2026-04-25T09:21:21Z</time></trkpt><trkpt lat="44.4821065129503" lon="8.596043555437054"><ele>579.6666666666666</ele><time>2026-04-25T09:21:22Z</time></trkpt><trkpt lat="44.482027707656464" lon="8.596226143871975"><ele>575.3333333333334</ele><time>2026-04-25T09:21:23Z</time></trkpt><trkpt lat="44.48195470276233" lon="8.596417969831402"><ele>571.0</ele><time>2026-04-25T09:21:24Z</time></trkpt><trkpt lat="44.48188927040078" lon="8.596633746247578"><ele>571.0</ele><time>2026-04-25T09:21:25Z</time></trkpt><trkpt lat="44.481822419972104" lon="8.596885307562582"><ele>571.0</ele><time>2026-04-25T09:21:26Z</time></trkpt><trkpt lat="44.48176500925925" lon="8.597132628191085"><ele>571.0</ele><time>2026-04-25T09:21:27Z</time></trkpt><trkpt lat="44.48167152241696" lon="8.597342352461569"><ele>574.3333333333334</ele><time>2026-04-25T09:21:28Z</time></trkpt><trkpt lat="44.481619605271334" lon="8.597581505509561"><ele>577.6666666666666</ele><time>2026-04-25T09:21:29Z</time></trkpt><trkpt lat="44.48155464793817" lon="8.59781760811816"><ele>581.0</ele><time>2026-04-25T09:21:30Z</time></trkpt><trkpt lat="44.481511335131316" lon="8.59804057756416"><ele>579.5</ele><time>2026-04-25T09:21:31Z</time></trkpt><trkpt lat="44.48147228907072" lon="8.598232882718124"><ele>578.0</ele><time>2026-04-25T09:21:32Z</time></trkpt><trkpt lat="44.48142550018439" lon="8.598412998686676"><ele>576.5</ele><time>2026-04-25T09:21:33Z</time></trkpt><trkpt lat="44.48134617415074" lon="8.598582398128155"><ele>575.0</ele><time>2026-04-25T09:21:34Z</time></trkpt><trkpt lat="44.48124154361412" lon="8.598764210048682"><ele>575.0</ele><time>2026-04-25T09:21:35Z</time></trkpt><trkpt lat="44.481125373021385" lon="8.598952600013908"><ele>575.0</ele><time>2026-04-25T09:21:36Z</time></trkpt><trkpt lat="44.48100736183866" lon="8.599152579329798"><ele>575.0</ele><time>2026-04-25T09:21:37Z</time></trkpt><trkpt lat="44.48092686515073" lon="8.599362722444246"><ele>585.3333333333333</ele><time>2026-04-25T09:21:38Z</time></trkpt><trkpt lat="44.48082125837692" lon="8.599551401911915"><ele>595.6666666666666</ele><time>2026-04-25T09:21:39Z</time></trkpt><trkpt lat="44.48072513054371" lon="8.59974183700512"><ele>606.0</ele><time>2026-04-25T09:21:40Z</time></trkpt><trkpt lat="44.48062490287204" lon="8.59992125184204"><ele>606.0</ele><time>2026-04-25T09:21:41Z</time></trkpt><trkpt lat="44.48051279150631" lon="8.600070916903569"><ele>606.0</ele><time>2026-04-25T09:21:42Z</time></trkpt><trkpt lat="44.48039379728925" lon="8.600204298867917"><ele>606.0</ele><time>2026-04-25T09:21:43Z</time></trkpt><trkpt lat="44.480269152035525" lon="8.600312796829174"><ele>609.3333333333334</ele><time>2026-04-25T09:21:44Z</time></trkpt><trkpt lat="44.48013334273034" lon="8.600410269747297"><ele>612.6666666666667</ele><time>2026-04-25T09:21:45Z</time></trkpt><trkpt lat="44.47998360355031" lon="8.600498365325523"><ele>616.0</ele><time>2026-04-25T09:21:46Z</time></trkpt><trkpt lat="44.4798267716423" lon="8.600553259015083"><ele>616.0</ele><time>2026-04-25T09:21:47Z</time></trkpt><trkpt lat="44.47966049201745" lon="8.60057783030591"><ele>616.0</ele><time>2026-04-25T09:21:48Z</time></trkpt><trkpt lat="44.479500721509375" lon="8.600616233432984"><ele>616.0</ele><time>2026-04-25T09:21:49Z</time></trkpt><trkpt lat="44.479359219900445" lon="8.600643215208398"><ele>614.6</ele><time>2026-04-25T09:21:50Z</time></trkpt><trkpt lat="44.479234701266606" lon="8.600687098073452"><ele>613.2</ele><time>2026-04-25T09:21:51Z</time></trkpt><trkpt lat="44.479122672099095" lon="8.600726952576814"><ele>611.8</ele><time>2026-04-25T09:21:52Z</time></trkpt><trkpt lat="44.479018311891195" lon="8.600724731010558"><ele>610.4</ele><time>2026-04-25T09:21:53Z</time></trkpt><trkpt lat="44.478929619275306" lon="8.600664378160097"><ele>609.0</ele><time>2026-04-25T09:21:54Z</time></trkpt><trkpt lat="44.47886871252117" lon="8.600536435804282"><ele>609.0</ele><time>2026-04-25T09:21:55Z</time></trkpt><trkpt lat="44.47876811341642" lon="8.600409973985569"><ele>609.0</ele><time>2026-04-25T09:21:56Z</time></trkpt><trkpt lat="44.47866490112634" lon="8.600257801653271"><ele>609.0</ele><time>2026-04-25T09:21:57Z</time></trkpt><trkpt lat="44.47853467157932" lon="8.600100713021146"><ele>610.3333333333334</ele><time>2026-04-25T09:21:58Z</time></trkpt><trkpt lat="44.478407414110926" lon="8.59993117758278"><ele>611.6666666666667</ele><time>2026-04-25T09:21:59Z</time></trkpt><trkpt lat="44.4783136051384" lon="8.599757162984103"><ele>613.0</ele><time>2026-04-25T09:22:00Z</time></trkpt><trkpt lat="44.478244118375606" lon="8.599551403568762"><ele>605.3333333333334</ele><time>2026-04-25T09:22:01Z</time></trkpt><trkpt lat="44.47817880525587" lon="8.599326785816928"><ele>597.6666666666666</ele><time>2026-04-25T09:22:02Z</time></trkpt><trkpt lat="44.47810315006787" lon="8.599102331452691"><ele>590.0</ele><time>2026-04-25T09:22:03Z</time></trkpt><trkpt lat="44.47802992729184" lon="8.5988889700888"><ele>590.0</ele><time>2026-04-25T09:22:04Z</time></trkpt><trkpt lat="44.477965039810826" lon="8.598698642131984"><ele>590.0</ele><time>2026-04-25T09:22:05Z</time></trkpt><trkpt lat="44.47790378282223" lon="8.598529622464453"><ele>590.0</ele><time>2026-04-25T09:22:06Z</time></trkpt><trkpt lat="44.477842959285304" lon="8.59838283221068"><ele>590.0</ele><time>2026-04-25T09:22:07Z</time></trkpt><trkpt lat="44.47775413317817" lon="8.59824915270291"><ele>601.0</ele><time>2026-04-25T09:22:08Z</time></trkpt><trkpt lat="44.477637030799656" lon="8.598115368992069"><ele>612.0</ele><time>2026-04-25T09:22:09Z</time></trkpt><trkpt lat="44.477500849930806" lon="8.59798337097918"><ele>623.0</ele><time>2026-04-25T09:22:10Z</time></trkpt><trkpt lat="44.47736091372651" lon="8.59784391404929"><ele>623.6666666666666</ele><time>2026-04-25T09:22:11Z</time></trkpt><trkpt lat="44.477231464016555" lon="8.597699594116435"><ele>624.3333333333334</ele><time>2026-04-25T09:22:12Z</time></trkpt><trkpt lat="44.4771057007169" lon="8.5975810327906"><ele>625.0</ele><time>2026-04-25T09:22:13Z</time></trkpt><trkpt lat="44.47698305718649" lon="8.59748787634744"><ele>625.0</ele><time>2026-04-25T09:22:14Z</time></trkpt><trkpt lat="44.47684371578416" lon="8.59740680575898"><ele>625.0</ele><time>2026-04-25T09:22:15Z</time></trkpt><trkpt lat="44.47669205365659" lon="8.597325638338374"><ele>625.0</ele><time>2026-04-25T09:22:16Z</time></trkpt><trkpt lat="44.47653669299568" lon="8.59726611688657"><ele>625.0</ele><time>2026-04-25T09:22:17Z</time></trkpt><trkpt lat="44.47638950365354" lon="8.597225069923466"><ele>625.0</ele><time>2026-04-25T09:22:18Z</time></trkpt><trkpt lat="44.47624377370451" lon="8.597209293122882"><ele>625.0</ele><time>2026-04-25T09:22:19Z</time></trkpt><trkpt lat="44.4760919295812" lon="8.597228238627755"><ele>625.0</ele><time>2026-04-25T09:22:20Z</time></trkpt><trkpt lat="44.47592944315543" lon="8.597275159771343"><ele>625.3333333333334</ele><time>2026-04-25T09:22:21Z</time></trkpt><trkpt lat="44.475763474904475" lon="8.597345278419537"><ele>625.6666666666666</ele><time>2026-04-25T09:22:22Z</time></trkpt><trkpt lat="44.475600465593814" lon="8.597442212715338"><ele>626.0</ele><time>2026-04-25T09:22:23Z</time></trkpt><trkpt lat="44.475432354251744" lon="8.597567208265664"><ele>620.3333333333333</ele><time>2026-04-25T09:22:24Z</time></trkpt><trkpt lat="44.475250551554076" lon="8.597705521829951"><ele>614.6666666666666</ele><time>2026-04-25T09:22:25Z</time></trkpt><trkpt lat="44.47505413909945" lon="8.597857677561397"><ele>609.0</ele><time>2026-04-25T09:22:26Z</time></trkpt><trkpt lat="44.474854973813784" lon="8.598024622519528"><ele>612.0</ele><time>2026-04-25T09:22:27Z</time></trkpt><trkpt lat="44.47465638629649" lon="8.598189347847391"><ele>615.0</ele><time>2026-04-25T09:22:28Z</time></trkpt><trkpt lat="44.47446272258028" lon="8.598347988885985"><ele>615.0</ele><time>2026-04-25T09:22:29Z</time></trkpt><trkpt lat="44.474282714931235" lon="8.598490704498278"><ele>615.0</ele><time>2026-04-25T09:22:30Z</time></trkpt><trkpt lat="44.47411107746117" lon="8.59862142278425"><ele>615.0</ele><time>2026-04-25T09:22:31Z</time></trkpt><trkpt lat="44.47394869460772" lon="8.59874002870617"><ele>615.6666666666666</ele><time>2026-04-25T09:22:32Z</time></trkpt><trkpt lat="44.47379787955742" lon="8.598872095534702"><ele>616.3333333333333</ele><time>2026-04-25T09:22:33Z</time></trkpt><trkpt lat="44.4736516288854" lon="8.599032919968016"><ele>617.0</ele><time>2026-04-25T09:22:34Z</time></trkpt><trkpt lat="44.47350545908926" lon="8.59919863816537"><ele>617.0</ele><time>2026-04-25T09:22:35Z</time></trkpt><trkpt lat="44.47335010823092" lon="8.599352308932112"><ele>617.0</ele><time>2026-04-25T09:22:36Z</time></trkpt><trkpt lat="44.47320867311082" lon="8.599486013678982"><ele>617.0</ele><time>2026-04-25T09:22:37Z</time></trkpt><trkpt lat="44.473079189623604" lon="8.599620376562706"><ele>619.0</ele><time>2026-04-25T09:22:38Z</time></trkpt><trkpt lat="44.47295552527645" lon="8.599745629449357"><ele>621.0</ele><time>2026-04-25T09:22:39Z</time></trkpt><trkpt lat="44.472834750248474" lon="8.599880248512488"><ele>623.0</ele><time>2026-04-25T09:22:40Z</time></trkpt><trkpt lat="44.472745872432995" lon="8.600069477005583"><ele>623.0</ele><time>2026-04-25T09:22:41Z</time></trkpt><trkpt lat="44.472668131336825" lon="8.600239106815565"><ele>623.0</ele><time>2026-04-25T09:22:42Z</time></trkpt><trkpt lat="44.47259663675259" lon="8.600383009087013"><ele>623.0</ele><time>2026-04-25T09:22:43Z</time></trkpt><trkpt lat="44.47250328309602" lon="8.600490842999378"><ele>623.0</ele><time>2026-04-25T09:22:44Z</time></trkpt><trkpt lat="44.472389439767355" lon="8.60056028974965"><ele>629.6666666666666</ele><time>2026-04-25T09:22:45Z</time></trkpt><trkpt lat="44.4722532291219" lon="8.600646031910351"><ele>636.3333333333334</ele><time>2026-04-25T09:22:46Z</time></trkpt><trkpt lat="44.47210934058601" lon="8.60072664420081"><ele>643.0</ele><time>2026-04-25T09:22:47Z</time></trkpt><trkpt lat="44.471943621426405" lon="8.600771757009879"><ele>643.0</ele><time>2026-04-25T09:22:48Z</time></trkpt><trkpt lat="44.471776027173114" lon="8.600820628421427"><ele>643.0</ele><time>2026-04-25T09:22:49Z</time></trkpt><trkpt lat="44.47161957890943" lon="8.60090897363406"><ele>643.0</ele><time>2026-04-25T09:22:50Z</time></trkpt><trkpt lat="44.47147263711061" lon="8.600924453811242"><ele>643.0</ele><time>2026-04-25T09:22:51Z</time></trkpt><trkpt lat="44.47132231535468" lon="8.600913583620246"><ele>643.0</ele><time>2026-04-25T09:22:52Z</time></trkpt><trkpt lat="44.47115687731308" lon="8.600897342038378"><ele>643.0</ele><time>2026-04-25T09:22:53Z</time></trkpt><trkpt lat="44.470980457854935" lon="8.600903003597635"><ele>643.0</ele><time>2026-04-25T09:22:54Z</time></trkpt><trkpt lat="44.470799609356106" lon="8.600848798067165"><ele>643.0</ele><time>2026-04-25T09:22:55Z</time></trkpt><trkpt lat="44.47061838454941" lon="8.600844108091755"><ele>643.0</ele><time>2026-04-25T09:22:56Z</time></trkpt><trkpt lat="44.47043416678664" lon="8.60087714497135"><ele>643.3333333333334</ele><time>2026-04-25T09:22:57Z</time></trkpt><trkpt lat="44.47023692362789" lon="8.600895518075776"><ele>643.6666666666666</ele><time>2026-04-25T09:22:58Z</time></trkpt><trkpt lat="44.47005528675525" lon="8.600901472919823"><ele>644.0</ele><time>2026-04-25T09:22:59Z</time></trkpt><trkpt lat="44.46990366206367" lon="8.600907087369519"><ele>644.0</ele><time>2026-04-25T09:23:00Z</time></trkpt><trkpt lat="44.46977842730373" lon="8.60091160009745"><ele>644.0</ele><time>2026-04-25T09:23:01Z</time></trkpt><trkpt lat="44.4696712587737" lon="8.600934842776633"><ele>644.0</ele><time>2026-04-25T09:23:02Z</time></trkpt><trkpt lat="44.46955874053248" lon="8.600998383916725"><ele>644.0</ele><time>2026-04-25T09:23:03Z</time></trkpt><trkpt lat="44.469451449403955" lon="8.6011192785971"><ele>649.6666666666666</ele><time>2026-04-25T09:23:04Z</time></trkpt><trkpt lat="44.46934966127317" lon="8.601279039681089"><ele>655.3333333333334</ele><time>2026-04-25T09:23:05Z</time></trkpt><trkpt lat="44.4692318305574" lon="8.601414558277488"><ele>661.0</ele><time>2026-04-25T09:23:06Z</time></trkpt><trkpt lat="44.469087442097866" lon="8.601477047927089"><ele>661.0</ele><time>2026-04-25T09:23:07Z</time></trkpt><trkpt lat="44.46895188401418" lon="8.601535111085026"><ele>661.0</ele><time>2026-04-25T09:23:08Z</time></trkpt><trkpt lat="44.468842280366566" lon="8.601603020072417"><ele>661.0</ele><time>2026-04-25T09:23:09Z</time></trkpt><trkpt lat="44.46875398727151" lon="8.601679861844284"><ele>661.0</ele><time>2026-04-25T09:23:10Z</time></trkpt><trkpt lat="44.46868249619283" lon="8.601790930649607"><ele>662.5</ele><time>2026-04-25T09:23:11Z</time></trkpt><trkpt lat="44.468628573632834" lon="8.601941116046696"><ele>664.0</ele><time>2026-04-25T09:23:12Z</time></trkpt><trkpt lat="44.468574731538574" lon="8.602075994097092"><ele>665.5</ele><time>2026-04-25T09:23:13Z</time></trkpt><trkpt lat="44.46846812084604" lon="8.602109321284285"><ele>667.0</ele><time>2026-04-25T09:23:14Z</time></trkpt><trkpt lat="44.46834282938661" lon="8.602169674461688"><ele>667.0</ele><time>2026-04-25T09:23:15Z</time></trkpt><trkpt lat="44.46820016783487" lon="8.602210580538529"><ele>667.0</ele><time>2026-04-25T09:23:16Z</time></trkpt><trkpt lat="44.46803646612556" lon="8.602234926859577"><ele>667.0</ele><time>2026-04-25T09:23:17Z</time></trkpt><trkpt lat="44.467903751973694" lon="8.602282220081925"><ele>667.0</ele><time>2026-04-25T09:23:18Z</time></trkpt><trkpt lat="44.467788125862704" lon="8.60234873691216"><ele>663.0</ele><time>2026-04-25T09:23:19Z</time></trkpt><trkpt lat="44.46766750313033" lon="8.602451494491712"><ele>659.0</ele><time>2026-04-25T09:23:20Z</time></trkpt><trkpt lat="44.46753863389736" lon="8.602576771290838"><ele>655.0</ele><time>2026-04-25T09:23:21Z</time></trkpt><trkpt lat="44.46740914229135" lon="8.602708370903068"><ele>653.6666666666667</ele><time>2026-04-25T09:23:22Z</time></trkpt><trkpt lat="44.46728581584884" lon="8.60284940142935"><ele>652.3333333333334</ele><time>2026-04-25T09:23:23Z</time></trkpt><trkpt lat="44.467160127777674" lon="8.602991176029095"><ele>651.0</ele><time>2026-04-25T09:23:24Z</time></trkpt><trkpt lat="44.46702775373182" lon="8.603123368976046"><ele>651.0</ele><time>2026-04-25T09:23:25Z</time></trkpt><trkpt lat="44.4668907749994" lon="8.603234358348942"><ele>651.0</ele><time>2026-04-25T09:23:26Z</time></trkpt><trkpt lat="44.46677265317636" lon="8.603323578625767"><ele>651.0</ele><time>2026-04-25T09:23:27Z</time></trkpt><trkpt lat="44.46668274990171" lon="8.603407261202188"><ele>651.0</ele><time>2026-04-25T09:23:28Z</time></trkpt><trkpt lat="44.46661970651062" lon="8.603514078947661"><ele>651.0</ele><time>2026-04-25T09:23:29Z</time></trkpt><trkpt lat="44.46656986083586" lon="8.603663305095736"><ele>651.0</ele><time>2026-04-25T09:23:30Z</time></trkpt><trkpt lat="44.46652602177647" lon="8.603837039284192"><ele>651.0</ele><time>2026-04-25T09:23:31Z</time></trkpt><trkpt lat="44.46646260035817" lon="8.604026284986956"><ele>651.0</ele><time>2026-04-25T09:23:32Z</time></trkpt><trkpt lat="44.46639110874726" lon="8.604239234975438"><ele>653.5</ele><time>2026-04-25T09:23:33Z</time></trkpt><trkpt lat="44.46632086845867" lon="8.604442603341571"><ele>656.0</ele><time>2026-04-25T09:23:34Z</time></trkpt><trkpt lat="44.46626310946816" lon="8.604623557971728"><ele>658.5</ele><time>2026-04-25T09:23:35Z</time></trkpt><trkpt lat="44.466206712179584" lon="8.604791344340212"><ele>661.0</ele><time>2026-04-25T09:23:36Z</time></trkpt><trkpt lat="44.46614678934842" lon="8.604934811258921"><ele>661.0</ele><time>2026-04-25T09:23:37Z</time></trkpt><trkpt lat="44.46606698078905" lon="8.605055038890336"><ele>661.0</ele><time>2026-04-25T09:23:38Z</time></trkpt><trkpt lat="44.46595366792531" lon="8.605115810464303"><ele>661.0</ele><time>2026-04-25T09:23:39Z</time></trkpt><trkpt lat="44.46587439165903" lon="8.605223000636368"><ele>661.0</ele><time>2026-04-25T09:23:40Z</time></trkpt><trkpt lat="44.46580734018334" lon="8.605308935846978"><ele>661.0</ele><time>2026-04-25T09:23:41Z</time></trkpt><trkpt lat="44.46580702138315" lon="8.605471125618374"><ele>664.75</ele><time>2026-04-25T09:23:42Z</time></trkpt><trkpt lat="44.46580004527538" lon="8.605638317850289"><ele>668.5</ele><time>2026-04-25T09:23:43Z</time></trkpt><trkpt lat="44.46577886157743" lon="8.605831416217077"><ele>672.25</ele><time>2026-04-25T09:23:44Z</time></trkpt><trkpt lat="44.46575737289784" lon="8.606028071294281"><ele>676.0</ele><time>2026-04-25T09:23:45Z</time></trkpt><trkpt lat="44.46573916778961" lon="8.606199696940456"><ele>676.0</ele><time>2026-04-25T09:23:46Z</time></trkpt><trkpt lat="44.4657302525307" lon="8.606349482896453"><ele>676.0</ele><time>2026-04-25T09:23:47Z</time></trkpt><trkpt lat="44.465734276264655" lon="8.606483572258533"><ele>676.0</ele><time>2026-04-25T09:23:48Z</time></trkpt><trkpt lat="44.465767329770834" lon="8.606612317061588"><ele>676.0</ele><time>2026-04-25T09:23:49Z</time></trkpt><trkpt lat="44.46582027309142" lon="8.606754661718133"><ele>676.0</ele><time>2026-04-25T09:23:50Z</time></trkpt><trkpt lat="44.4658879461038" lon="8.606917429396935"><ele>674.25</ele><time>2026-04-25T09:23:51Z</time></trkpt><trkpt lat="44.465934307160445" lon="8.607102419005791"><ele>672.5</ele><time>2026-04-25T09:23:52Z</time></trkpt><trkpt lat="44.465981493917475" lon="8.607274186561057"><ele>670.75</ele><time>2026-04-25T09:23:53Z</time></trkpt><trkpt lat="44.46600843341681" lon="8.607436629097558"><ele>669.0</ele><time>2026-04-25T09:23:54Z</time></trkpt><trkpt lat="44.46602565783892" lon="8.607612295408194"><ele>669.0</ele><time>2026-04-25T09:23:55Z</time></trkpt><trkpt lat="44.466028453288516" lon="8.607795305084991"><ele>669.0</ele><time>2026-04-25T09:23:56Z</time></trkpt><trkpt lat="44.46601120095842" lon="8.607983630631937"><ele>669.0</ele><time>2026-04-25T09:23:57Z</time></trkpt><trkpt lat="44.466011842161215" lon="8.608156799207753"><ele>669.0</ele><time>2026-04-25T09:23:58Z</time></trkpt><trkpt lat="44.46603391056367" lon="8.608313850827011"><ele>669.0</ele><time>2026-04-25T09:23:59Z</time></trkpt><trkpt lat="44.46605033074732" lon="8.60845863770911"><ele>669.0</ele><time>2026-04-25T09:24:00Z</time></trkpt><trkpt lat="44.466052222020075" lon="8.608589758873773"><ele>669.0</ele><time>2026-04-25T09:24:01Z</time></trkpt><trkpt lat="44.46613151282906" lon="8.608691645231765"><ele>669.0</ele><time>2026-04-25T09:24:02Z</time></trkpt><trkpt lat="44.46621025651355" lon="8.608793553742736"><ele>669.0</ele><time>2026-04-25T09:24:03Z</time></trkpt><trkpt lat="44.46629836997663" lon="8.608920460699663"><ele>671.0</ele><time>2026-04-25T09:24:04Z</time></trkpt><trkpt lat="44.466402164369114" lon="8.609046411618172"><ele>673.0</ele><time>2026-04-25T09:24:05Z</time></trkpt><trkpt lat="44.46651836006566" lon="8.609189676209779"><ele>675.0</ele><time>2026-04-25T09:24:06Z</time></trkpt><trkpt lat="44.46664063841312" lon="8.609342684826222"><ele>675.0</ele><time>2026-04-25T09:24:07Z</time></trkpt><trkpt lat="44.46675495164674" lon="8.609485726580548"><ele>675.0</ele><time>2026-04-25T09:24:08Z</time></trkpt><trkpt lat="44.46686147690831" lon="8.609623857386804"><ele>675.0</ele><time>2026-04-25T09:24:09Z</time></trkpt><trkpt lat="44.46696093103683" lon="8.609747627129206"><ele>675.0</ele><time>2026-04-25T09:24:10Z</time></trkpt><trkpt lat="44.46704759995987" lon="8.609814263227353"><ele>674.0</ele><time>2026-04-25T09:24:11Z</time></trkpt><trkpt lat="44.4671099562905" lon="8.60985468946541"><ele>673.0</ele><time>2026-04-25T09:24:12Z</time></trkpt><trkpt lat="44.46717609913011" lon="8.609848273487303"><ele>672.0</ele><time>2026-04-25T09:24:13Z</time></trkpt><trkpt lat="44.467248336983204" lon="8.609797125090273"><ele>671.0</ele><time>2026-04-25T09:24:14Z</time></trkpt><trkpt lat="44.467320122809" lon="8.609714998621557"><ele>670.0</ele><time>2026-04-25T09:24:15Z</time></trkpt><trkpt lat="44.46736555152448" lon="8.609597620787136"><ele>669.0</ele><time>2026-04-25T09:24:16Z</time></trkpt><trkpt lat="44.467375574905844" lon="8.609465295142414"><ele>670.5</ele><time>2026-04-25T09:24:17Z</time></trkpt><trkpt lat="44.46734583465093" lon="8.609327997698113"><ele>672.0</ele><time>2026-04-25T09:24:18Z</time></trkpt><trkpt lat="44.467283194170115" lon="8.609189691324131"><ele>673.5</ele><time>2026-04-25T09:24:19Z</time></trkpt><trkpt lat="44.467198097358974" lon="8.609043390301116"><ele>675.0</ele><time>2026-04-25T09:24:20Z</time></trkpt><trkpt lat="44.467091778509825" lon="8.608892665146325"><ele>675.0</ele><time>2026-04-25T09:24:21Z</time></trkpt><trkpt lat="44.466970147673806" lon="8.608749490913826"><ele>675.0</ele><time>2026-04-25T09:24:22Z</time></trkpt><trkpt lat="44.46686709867363" lon="8.60862314631644"><ele>675.0</ele><time>2026-04-25T09:24:23Z</time></trkpt><trkpt lat="44.46678749040952" lon="8.608516367271083"><ele>675.0</ele><time>2026-04-25T09:24:24Z</time></trkpt><trkpt lat="44.46672099541355" lon="8.608418273204393"><ele>676.6</ele><time>2026-04-25T09:24:25Z</time></trkpt><trkpt lat="44.46667628960436" lon="8.608312953814787"><ele>678.2</ele><time>2026-04-25T09:24:26Z</time></trkpt><trkpt lat="44.46666234311384" lon="8.608194112883526"><ele>679.8</ele><time>2026-04-25T09:24:27Z</time></trkpt><trkpt lat="44.466670864963504" lon="8.608066968196859"><ele>681.4</ele><time>2026-04-25T09:24:28Z</time></trkpt><trkpt lat="44.46671910797859" lon="8.607949533725662"><ele>683.0</ele><time>2026-04-25T09:24:29Z</time></trkpt><trkpt lat="44.46678769815345" lon="8.607865829071928"><ele>684.0</ele><time>2026-04-25T09:24:30Z</time></trkpt><trkpt lat="44.4668780618811" lon="8.607791984932753"><ele>685.0</ele><time>2026-04-25T09:24:31Z</time></trkpt><trkpt lat="44.46698718599492" lon="8.607730038538545"><ele>686.0</ele><time>2026-04-25T09:24:32Z</time></trkpt><trkpt lat="44.467104375880034" lon="8.60769833091087"><ele>687.0</ele><time>2026-04-25T09:24:33Z</time></trkpt><trkpt lat="44.46721959704762" lon="8.607697071347825"><ele>690.0</ele><time>2026-04-25T09:24:34Z</time></trkpt><trkpt lat="44.46732785028991" lon="8.60773144838897"><ele>693.0</ele><time>2026-04-25T09:24:35Z</time></trkpt><trkpt lat="44.4674172139968" lon="8.607829778199232"><ele>696.0</ele><time>2026-04-25T09:24:36Z</time></trkpt><trkpt lat="44.46750012403229" lon="8.60792989522164"><ele>699.0</ele><time>2026-04-25T09:24:37Z</time></trkpt><trkpt lat="44.467571221653465" lon="8.608030032934465"><ele>702.0</ele><time>2026-04-25T09:24:38Z</time></trkpt><trkpt lat="44.467581330332465" lon="8.608165090503727"><ele>702.0</ele><time>2026-04-25T09:24:39Z</time></trkpt><trkpt lat="44.467566840463206" lon="8.60827090555561"><ele>702.0</ele><time>2026-04-25T09:24:40Z</time></trkpt><trkpt lat="44.4675264966547" lon="8.608376106133022"><ele>702.0</ele><time>2026-04-25T09:24:41Z</time></trkpt><trkpt lat="44.467489389228156" lon="8.608512720140412"><ele>702.0</ele><time>2026-04-25T09:24:42Z</time></trkpt><trkpt lat="44.46745618979093" lon="8.60864999856773"><ele>702.0</ele><time>2026-04-25T09:24:43Z</time></trkpt><trkpt lat="44.46746018361183" lon="8.608782631186019"><ele>699.75</ele><time>2026-04-25T09:24:44Z</time></trkpt><trkpt lat="44.467476052942956" lon="8.60892025644064"><ele>697.5</ele><time>2026-04-25T09:24:45Z</time></trkpt><trkpt lat="44.46756722150628" lon="8.609041571024074"><ele>695.25</ele><time>2026-04-25T09:24:46Z</time></trkpt><trkpt lat="44.46766732300516" lon="8.609170196294182"><ele>693.0</ele><time>2026-04-25T09:24:47Z</time></trkpt><trkpt lat="44.4677804886906" lon="8.609300822376968"><ele>693.0</ele><time>2026-04-25T09:24:48Z</time></trkpt><trkpt lat="44.467898541534694" lon="8.609424592867052"><ele>693.0</ele><time>2026-04-25T09:24:49Z</time></trkpt><trkpt lat="44.46801692667824" lon="8.609561766281342"><ele>693.0</ele><time>2026-04-25T09:24:50Z</time></trkpt><trkpt lat="44.468130678123714" lon="8.609703109144695"><ele>698.5</ele><time>2026-04-25T09:24:51Z</time></trkpt><trkpt lat="44.468247461397986" lon="8.609791396163732"><ele>704.0</ele><time>2026-04-25T09:24:52Z</time></trkpt><trkpt lat="44.468335663716324" lon="8.609906205321373"><ele>709.5</ele><time>2026-04-25T09:24:53Z</time></trkpt><trkpt lat="44.46838888487676" lon="8.610036260016303"><ele>715.0</ele><time>2026-04-25T09:24:54Z</time></trkpt><trkpt lat="44.468378470189144" lon="8.610197259398062"><ele>714.25</ele><time>2026-04-25T09:24:55Z</time></trkpt><trkpt lat="44.468370476908206" lon="8.610378436158586"><ele>713.5</ele><time>2026-04-25T09:24:56Z</time></trkpt><trkpt lat="44.468370537364855" lon="8.610577339396963"><ele>712.75</ele><time>2026-04-25T09:24:57Z</time></trkpt><trkpt lat="44.46835018781022" lon="8.610793531540681"><ele>712.0</ele><time>2026-04-25T09:24:58Z</time></trkpt><trkpt lat="44.4683325617608" lon="8.611011100670455"><ele>713.2</ele><time>2026-04-25T09:24:58.999Z</time></trkpt><trkpt lat="44.46831839802409" lon="8.611206467991442"><ele>714.4000000000001</ele><time>2026-04-25T09:24:59.999Z</time></trkpt><trkpt lat="44.46830835795692" lon="8.61136331375326"><ele>715.5999999999999</ele><time>2026-04-25T09:25:00.999Z</time></trkpt><trkpt lat="44.468318927811104" lon="8.611494091095082"><ele>716.8</ele><time>2026-04-25T09:25:02Z</time></trkpt><trkpt lat="44.468358089122134" lon="8.61160822321038"><ele>718.0</ele><time>2026-04-25T09:25:03Z</time></trkpt><trkpt lat="44.468427920471335" lon="8.611706050362079"><ele>718.0</ele><time>2026-04-25T09:25:04Z</time></trkpt><trkpt lat="44.46851935229707" lon="8.611772563758707"><ele>718.0</ele><time>2026-04-25T09:25:05Z</time></trkpt><trkpt lat="44.46862933989423" lon="8.611786383887504"><ele>718.0</ele><time>2026-04-25T09:25:06Z</time></trkpt><trkpt lat="44.4687351996415" lon="8.61175884155912"><ele>718.0</ele><time>2026-04-25T09:25:07Z</time></trkpt><trkpt lat="44.468824777494675" lon="8.611689712973362"><ele>718.0</ele><time>2026-04-25T09:25:08Z</time></trkpt><trkpt lat="44.46889083831702" lon="8.6115582937697"><ele>722.0</ele><time>2026-04-25T09:25:09Z</time></trkpt><trkpt lat="44.46893366645901" lon="8.611399980359387"><ele>726.0</ele><time>2026-04-25T09:25:10Z</time></trkpt><trkpt lat="44.46893316171367" lon="8.611224905485146"><ele>730.0</ele><time>2026-04-25T09:25:11Z</time></trkpt><trkpt lat="44.46890249044906" lon="8.611051807830917"><ele>734.0</ele><time>2026-04-25T09:25:12Z</time></trkpt><trkpt lat="44.46883920081658" lon="8.61087543578652"><ele>734.2</ele><time>2026-04-25T09:25:13Z</time></trkpt><trkpt lat="44.468806613157255" lon="8.61070459263051"><ele>734.4000000000001</ele><time>2026-04-25T09:25:14Z</time></trkpt><trkpt lat="44.46880934331219" lon="8.610552730186237"><ele>734.6</ele><time>2026-04-25T09:25:15Z</time></trkpt><trkpt lat="44.468832780941696" lon="8.610422942775033"><ele>734.8</ele><time>2026-04-25T09:25:16Z</time></trkpt><trkpt lat="44.46888297908766" lon="8.610334087201522"><ele>735.0</ele><time>2026-04-25T09:25:17Z</time></trkpt><trkpt lat="44.46895930901182" lon="8.610283264439333"><ele>735.0</ele><time>2026-04-25T09:25:18Z</time></trkpt><trkpt lat="44.46905881510327" lon="8.610259360761875"><ele>735.0</ele><time>2026-04-25T09:25:19Z</time></trkpt><trkpt lat="44.46915929036708" lon="8.610278405673363"><ele>735.0</ele><time>2026-04-25T09:25:20Z</time></trkpt><trkpt lat="44.46923914214635" lon="8.610352446204924"><ele>735.0</ele><time>2026-04-25T09:25:21Z</time></trkpt><trkpt lat="44.46928132220274" lon="8.610487087053714"><ele>735.0</ele><time>2026-04-25T09:25:22Z</time></trkpt><trkpt lat="44.46931074595735" lon="8.610648981651138"><ele>735.0</ele><time>2026-04-25T09:25:23Z</time></trkpt><trkpt lat="44.46936188509901" lon="8.6108227762263"><ele>735.0</ele><time>2026-04-25T09:25:24Z</time></trkpt><trkpt lat="44.469397876178526" lon="8.611028647550121"><ele>735.0</ele><time>2026-04-25T09:25:25Z</time></trkpt><trkpt lat="44.46944721791027" lon="8.61124909070564"><ele>734.6666666666666</ele><time>2026-04-25T09:25:26Z</time></trkpt><trkpt lat="44.46950404012869" lon="8.611494717727016"><ele>734.3333333333333</ele><time>2026-04-25T09:25:27Z</time></trkpt><trkpt lat="44.46959191966488" lon="8.611780068524713"><ele>734.0</ele><time>2026-04-25T09:25:28Z</time></trkpt><trkpt lat="44.46967151251031" lon="8.612077767164283"><ele>741.6666666666666</ele><time>2026-04-25T09:25:29Z</time></trkpt><trkpt lat="44.46977185959329" lon="8.61234020335118"><ele>749.3333333333334</ele><time>2026-04-25T09:25:30Z</time></trkpt><trkpt lat="44.46983845879871" lon="8.612570238714335"><ele>757.0</ele><time>2026-04-25T09:25:31Z</time></trkpt><trkpt lat="44.46989890483127" lon="8.612769593410055"><ele>755.25</ele><time>2026-04-25T09:25:32Z</time></trkpt><trkpt lat="44.46995188538552" lon="8.61294524447587"><ele>753.5</ele><time>2026-04-25T09:25:33Z</time></trkpt><trkpt lat="44.470000284624135" lon="8.61310832844738"><ele>751.75</ele><time>2026-04-25T09:25:34Z</time></trkpt><trkpt lat="44.47006959573289" lon="8.613265072293082"><ele>750.0</ele><time>2026-04-25T09:25:35Z</time></trkpt><trkpt lat="44.47016627531957" lon="8.613406712985197"><ele>750.0</ele><time>2026-04-25T09:25:36Z</time></trkpt><trkpt lat="44.47026554149155" lon="8.613519968792335"><ele>750.0</ele><time>2026-04-25T09:25:37Z</time></trkpt><trkpt lat="44.470324895881284" lon="8.613629578555491"><ele>750.0</ele><time>2026-04-25T09:25:38Z</time></trkpt><trkpt lat="44.47036827909743" lon="8.613724627575593"><ele>750.0</ele><time>2026-04-25T09:25:39Z</time></trkpt><trkpt lat="44.47035976002903" lon="8.613854917957138"><ele>750.0</ele><time>2026-04-25T09:25:40Z</time></trkpt><trkpt lat="44.47030818802804" lon="8.613962736022666"><ele>752.75</ele><time>2026-04-25T09:25:41Z</time></trkpt><trkpt lat="44.47022772966354" lon="8.614052117536398"><ele>755.5</ele><time>2026-04-25T09:25:42Z</time></trkpt><trkpt lat="44.47012860672241" lon="8.614135290645807"><ele>758.25</ele><time>2026-04-25T09:25:43Z</time></trkpt><trkpt lat="44.47000562004694" lon="8.614201824675561"><ele>761.0</ele><time>2026-04-25T09:25:44Z</time></trkpt><trkpt lat="44.46990264224554" lon="8.614243750045537"><ele>761.0</ele><time>2026-04-25T09:25:45Z</time></trkpt><trkpt lat="44.469734251741805" lon="8.614285967373647"><ele>761.0</ele><time>2026-04-25T09:25:46Z</time></trkpt><trkpt lat="44.46959699622617" lon="8.614367396951137"><ele>761.0</ele><time>2026-04-25T09:25:47Z</time></trkpt><trkpt lat="44.46947981051069" lon="8.614437081261649"><ele>761.0</ele><time>2026-04-25T09:25:48Z</time></trkpt><trkpt lat="44.46937426095573" lon="8.61453746667212"><ele>764.75</ele><time>2026-04-25T09:25:49Z</time></trkpt><trkpt lat="44.46928291286326" lon="8.614647967207015"><ele>768.5</ele><time>2026-04-25T09:25:50Z</time></trkpt><trkpt lat="44.46918663115537" lon="8.61478009648145"><ele>772.25</ele><time>2026-04-25T09:25:51Z</time></trkpt><trkpt lat="44.46906429390582" lon="8.61487887039025"><ele>776.0</ele><time>2026-04-25T09:25:52Z</time></trkpt><trkpt lat="44.468937148296064" lon="8.614973667992372"><ele>776.0</ele><time>2026-04-25T09:25:53Z</time></trkpt><trkpt lat="44.46881034996876" lon="8.615070939161956"><ele>776.0</ele><time>2026-04-25T09:25:54Z</time></trkpt><trkpt lat="44.46870290599366" lon="8.615138032202125"><ele>776.0</ele><time>2026-04-25T09:25:55Z</time></trkpt><trkpt lat="44.468633028805094" lon="8.615203377019505"><ele>776.0</ele><time>2026-04-25T09:25:56Z</time></trkpt><trkpt lat="44.468592234105365" lon="8.61528413571597"><ele>776.0</ele><time>2026-04-25T09:25:57Z</time></trkpt><trkpt lat="44.46858152958963" lon="8.615396732567774"><ele>773.75</ele><time>2026-04-25T09:25:58Z</time></trkpt><trkpt lat="44.468593671529035" lon="8.615552642361996"><ele>771.5</ele><time>2026-04-25T09:25:59Z</time></trkpt><trkpt lat="44.46861586876821" lon="8.615753137491211"><ele>769.25</ele><time>2026-04-25T09:26:00Z</time></trkpt><trkpt lat="44.46864853763231" lon="8.615986057517713"><ele>767.0</ele><time>2026-04-25T09:26:01Z</time></trkpt><trkpt lat="44.46867958325139" lon="8.616207106488687"><ele>765.25</ele><time>2026-04-25T09:26:02Z</time></trkpt><trkpt lat="44.46871599417889" lon="8.61640513878837"><ele>763.5</ele><time>2026-04-25T09:26:03Z</time></trkpt><trkpt lat="44.468768221691484" lon="8.616591131848583"><ele>761.75</ele><time>2026-04-25T09:26:04Z</time></trkpt><trkpt lat="44.46883607961072" lon="8.616751188903345"><ele>760.0</ele><time>2026-04-25T09:26:05Z</time></trkpt><trkpt lat="44.468930616813445" lon="8.616875789950686"><ele>766.0</ele><time>2026-04-25T09:26:06Z</time></trkpt><trkpt lat="44.4690599415732" lon="8.616978877341738"><ele>772.0</ele><time>2026-04-25T09:26:07Z</time></trkpt><trkpt lat="44.46922476918573" lon="8.61706801982566"><ele>778.0</ele><time>2026-04-25T09:26:08Z</time></trkpt><trkpt lat="44.469318875032364" lon="8.61720540622694"><ele>778.0</ele><time>2026-04-25T09:26:09Z</time></trkpt><trkpt lat="44.46938998019806" lon="8.617308943037441"><ele>778.0</ele><time>2026-04-25T09:26:10Z</time></trkpt><trkpt lat="44.469405463056496" lon="8.617440246845307"><ele>778.0</ele><time>2026-04-25T09:26:11Z</time></trkpt><trkpt lat="44.46938775566476" lon="8.617586935746143"><ele>778.0</ele><time>2026-04-25T09:26:12Z</time></trkpt><trkpt lat="44.4693455455869" lon="8.617753338129416"><ele>778.0</ele><time>2026-04-25T09:26:13Z</time></trkpt><trkpt lat="44.46931173074736" lon="8.617941547826561"><ele>779.3333333333333</ele><time>2026-04-25T09:26:14Z</time></trkpt><trkpt lat="44.46928480475104" lon="8.618154843809277"><ele>780.6666666666667</ele><time>2026-04-25T09:26:15Z</time></trkpt><trkpt lat="44.46925808560366" lon="8.618382754362834"><ele>782.0</ele><time>2026-04-25T09:26:16Z</time></trkpt><trkpt lat="44.4692417899566" lon="8.618620734166678"><ele>783.25</ele><time>2026-04-25T09:26:17Z</time></trkpt><trkpt lat="44.46923392835065" lon="8.618839970516717"><ele>784.5</ele><time>2026-04-25T09:26:18Z</time></trkpt><trkpt lat="44.46921084154095" lon="8.6190285715967"><ele>785.75</ele><time>2026-04-25T09:26:19Z</time></trkpt><trkpt lat="44.46919981251102" lon="8.6192015566061"><ele>787.0</ele><time>2026-04-25T09:26:20Z</time></trkpt><trkpt lat="44.469176870076254" lon="8.619363137569152"><ele>788.0</ele><time>2026-04-25T09:26:21Z</time></trkpt><trkpt lat="44.46913939884756" lon="8.619533326652851"><ele>789.0</ele><time>2026-04-25T09:26:22Z</time></trkpt><trkpt lat="44.46906168005088" lon="8.619689825943565"><ele>790.0</ele><time>2026-04-25T09:26:23Z</time></trkpt><trkpt lat="44.46897945648497" lon="8.619824791883598"><ele>791.0</ele><time>2026-04-25T09:26:24Z</time></trkpt><trkpt lat="44.46892125273185" lon="8.6199548106954"><ele>791.0</ele><time>2026-04-25T09:26:25Z</time></trkpt><trkpt lat="44.46889690177101" lon="8.62010211698844"><ele>791.0</ele><time>2026-04-25T09:26:26Z</time></trkpt><trkpt lat="44.468895734811234" lon="8.620268436037993"><ele>791.0</ele><time>2026-04-25T09:26:27Z</time></trkpt><trkpt lat="44.468898646057156" lon="8.62046200553071"><ele>791.0</ele><time>2026-04-25T09:26:28Z</time></trkpt><trkpt lat="44.468955298599305" lon="8.620664241262494"><ele>790.25</ele><time>2026-04-25T09:26:29Z</time></trkpt><trkpt lat="44.46898712360592" lon="8.62086288627429"><ele>789.5</ele><time>2026-04-25T09:26:30Z</time></trkpt><trkpt lat="44.46901092815079" lon="8.621048868797264"><ele>788.75</ele><time>2026-04-25T09:26:31Z</time></trkpt><trkpt lat="44.46903494136032" lon="8.621216189491614"><ele>788.0</ele><time>2026-04-25T09:26:32Z</time></trkpt><trkpt lat="44.46905228880707" lon="8.621374234612452"><ele>787.25</ele><time>2026-04-25T09:26:33Z</time></trkpt><trkpt lat="44.46911706375352" lon="8.621507322064154"><ele>786.5</ele><time>2026-04-25T09:26:34Z</time></trkpt><trkpt lat="44.46922526722011" lon="8.62159160661866"><ele>785.75</ele><time>2026-04-25T09:26:35Z</time></trkpt><trkpt lat="44.469339494412246" lon="8.62167329418141"><ele>785.0</ele><time>2026-04-25T09:26:36Z</time></trkpt><trkpt lat="44.46944029483249" lon="8.621776651056196"><ele>785.0</ele><time>2026-04-25T09:26:37Z</time></trkpt><trkpt lat="44.469485799448954" lon="8.621926058303256"><ele>785.0</ele><time>2026-04-25T09:26:38Z</time></trkpt><trkpt lat="44.469538909135665" lon="8.622060153991098"><ele>785.0</ele><time>2026-04-25T09:26:39Z</time></trkpt><trkpt lat="44.46951254406977" lon="8.622214930672033"><ele>785.0</ele><time>2026-04-25T09:26:40Z</time></trkpt><trkpt lat="44.46948667408626" lon="8.622350597919764"><ele>785.0</ele><time>2026-04-25T09:26:41Z</time></trkpt><trkpt lat="44.46946367397513" lon="8.622476802237859"><ele>784.8333333333334</ele><time>2026-04-25T09:26:42Z</time></trkpt><trkpt lat="44.46943681855696" lon="8.622590373275509"><ele>784.6666666666667</ele><time>2026-04-25T09:26:43Z</time></trkpt><trkpt lat="44.46941118376095" lon="8.622697196100209"><ele>784.5</ele><time>2026-04-25T09:26:44Z</time></trkpt><trkpt lat="44.46938694861527" lon="8.622798186827099"><ele>784.3333333333333</ele><time>2026-04-25T09:26:45Z</time></trkpt><trkpt lat="44.46936334873364" lon="8.62289424292829"><ele>784.1666666666666</ele><time>2026-04-25T09:26:46Z</time></trkpt><trkpt lat="44.46933932776979" lon="8.62299608602752"><ele>784.0</ele><time>2026-04-25T09:26:47Z</time></trkpt><trkpt lat="44.469312579483706" lon="8.623118705125982"><ele>785.25</ele><time>2026-04-25T09:26:48Z</time></trkpt><trkpt lat="44.46928916082016" lon="8.623261481503286"><ele>786.5</ele><time>2026-04-25T09:26:49Z</time></trkpt><trkpt lat="44.46931532338298" lon="8.623431756581464"><ele>787.75</ele><time>2026-04-25T09:26:50Z</time></trkpt><trkpt lat="44.46934435257613" lon="8.623615249663121"><ele>789.0</ele><time>2026-04-25T09:26:51Z</time></trkpt><trkpt lat="44.46939022240153" lon="8.623808888229487"><ele>789.25</ele><time>2026-04-25T09:26:52Z</time></trkpt><trkpt lat="44.46942691292665" lon="8.623998004930575"><ele>789.5</ele><time>2026-04-25T09:26:53Z</time></trkpt><trkpt lat="44.469436360782915" lon="8.624175586580302"><ele>789.75</ele><time>2026-04-25T09:26:54Z</time></trkpt><trkpt lat="44.46942631836328" lon="8.624365085683053"><ele>790.0</ele><time>2026-04-25T09:26:55Z</time></trkpt><trkpt lat="44.46937746260996" lon="8.624564015768817"><ele>791.0</ele><time>2026-04-25T09:26:56Z</time></trkpt><trkpt lat="44.46935799710518" lon="8.62478073447567"><ele>792.0</ele><time>2026-04-25T09:26:57Z</time></trkpt><trkpt lat="44.469337235151656" lon="8.62501256035696"><ele>793.0</ele><time>2026-04-25T09:26:58Z</time></trkpt><trkpt lat="44.469315266220384" lon="8.62525786317949"><ele>793.0</ele><time>2026-04-25T09:26:59Z</time></trkpt><trkpt lat="44.469295713542195" lon="8.62551710561569"><ele>793.0</ele><time>2026-04-25T09:27:00Z</time></trkpt><trkpt lat="44.46927922952297" lon="8.625755662464393"><ele>793.0</ele><time>2026-04-25T09:27:01Z</time></trkpt><trkpt lat="44.46926332486692" lon="8.62597206917602"><ele>793.25</ele><time>2026-04-25T09:27:02Z</time></trkpt><trkpt lat="44.469247953600245" lon="8.626171922809322"><ele>793.5</ele><time>2026-04-25T09:27:03Z</time></trkpt><trkpt lat="44.46922602177953" lon="8.626355935238358"><ele>793.75</ele><time>2026-04-25T09:27:04Z</time></trkpt><trkpt lat="44.46918220587232" lon="8.626533287412595"><ele>794.0</ele><time>2026-04-25T09:27:05Z</time></trkpt><trkpt lat="44.469135711316625" lon="8.626724381303427"><ele>794.0</ele><time>2026-04-25T09:27:06Z</time></trkpt><trkpt lat="44.46908388503323" lon="8.626914691667668"><ele>794.0</ele><time>2026-04-25T09:27:07Z</time></trkpt><trkpt lat="44.469027784722755" lon="8.627109768341905"><ele>794.0</ele><time>2026-04-25T09:27:08.001Z</time></trkpt><trkpt lat="44.46897059368635" lon="8.627314402591358"><ele>796.0</ele><time>2026-04-25T09:27:09.001Z</time></trkpt><trkpt lat="44.468912711214" lon="8.627525105085649"><ele>798.0</ele><time>2026-04-25T09:27:10.001Z</time></trkpt><trkpt lat="44.468854227434335" lon="8.627728332873437"><ele>800.0</ele><time>2026-04-25T09:27:11.001Z</time></trkpt><trkpt lat="44.46879883344661" lon="8.627917207929947"><ele>800.25</ele><time>2026-04-25T09:27:12.001Z</time></trkpt><trkpt lat="44.46874515297752" lon="8.628101595353419"><ele>800.5</ele><time>2026-04-25T09:27:13.001Z</time></trkpt><trkpt lat="44.46869518315307" lon="8.628277202069919"><ele>800.75</ele><time>2026-04-25T09:27:14.001Z</time></trkpt><trkpt lat="44.46864959695435" lon="8.628441819475347"><ele>801.0</ele><time>2026-04-25T09:27:15.001Z</time></trkpt><trkpt lat="44.468611968480474" lon="8.628576676632274"><ele>802.1999999999999</ele><time>2026-04-25T09:27:16.001Z</time></trkpt><trkpt lat="44.46856280699365" lon="8.628687143997936"><ele>803.4</ele><time>2026-04-25T09:27:17.001Z</time></trkpt><trkpt lat="44.468489609763445" lon="8.628779519234806"><ele>804.6</ele><time>2026-04-25T09:27:18.001Z</time></trkpt><trkpt lat="44.468395241906556" lon="8.628841570462034"><ele>805.8</ele><time>2026-04-25T09:27:19.001Z</time></trkpt><trkpt lat="44.46829652249866" lon="8.628916610314425"><ele>807.0</ele><time>2026-04-25T09:27:20.001Z</time></trkpt><trkpt lat="44.46819844480037" lon="8.628969022928741"><ele>807.0</ele><time>2026-04-25T09:27:21.001Z</time></trkpt><trkpt lat="44.46812431722105" lon="8.629034249037515"><ele>807.0</ele><time>2026-04-25T09:27:22.001Z</time></trkpt><trkpt lat="44.46807699850203" lon="8.629098606341032"><ele>807.0</ele><time>2026-04-25T09:27:23.001Z</time></trkpt><trkpt lat="44.46808092095061" lon="8.629201544662381"><ele>807.0</ele><time>2026-04-25T09:27:24.001Z</time></trkpt><trkpt lat="44.46812349288408" lon="8.629282858432168"><ele>807.0</ele><time>2026-04-25T09:27:25.001Z</time></trkpt><trkpt lat="44.46820536295291" lon="8.629340855648987"><ele>807.0</ele><time>2026-04-25T09:27:26Z</time></trkpt><trkpt lat="44.4682666702982" lon="8.629441788889853"><ele>807.0</ele><time>2026-04-25T09:27:27Z</time></trkpt><trkpt lat="44.4683492020723" lon="8.629491979791162"><ele>807.0</ele><time>2026-04-25T09:27:28Z</time></trkpt><trkpt lat="44.46846303907624" lon="8.629519313953168"><ele>807.0</ele><time>2026-04-25T09:27:30Z</time></trkpt><trkpt lat="44.46853923296812" lon="8.629480913172506"><ele>807.0</ele><time>2026-04-25T09:27:31Z</time></trkpt><trkpt lat="44.46863611200647" lon="8.629406771870295"><ele>807.0</ele><time>2026-04-25T09:27:32Z</time></trkpt><trkpt lat="44.46875451895865" lon="8.629298772350522"><ele>809.0</ele><time>2026-04-25T09:27:33Z</time></trkpt><trkpt lat="44.46887320818766" lon="8.629176088170505"><ele>811.0</ele><time>2026-04-25T09:27:34Z</time></trkpt><trkpt lat="44.46898729789701" lon="8.629062158643308"><ele>813.0</ele><time>2026-04-25T09:27:35Z</time></trkpt><trkpt lat="44.46910447526967" lon="8.628957402194597"><ele>815.0</ele><time>2026-04-25T09:27:36Z</time></trkpt><trkpt lat="44.46922039653837" lon="8.62885665739917"><ele>815.0</ele><time>2026-04-25T09:27:37Z</time></trkpt><trkpt lat="44.46933061514769" lon="8.62875424671637"><ele>815.0</ele><time>2026-04-25T09:27:38Z</time></trkpt><trkpt lat="44.46943326713173" lon="8.628635433901055"><ele>815.0</ele><time>2026-04-25T09:27:39Z</time></trkpt><trkpt lat="44.46953171712909" lon="8.628502083888115"><ele>815.0</ele><time>2026-04-25T09:27:40Z</time></trkpt><trkpt lat="44.46962539164948" lon="8.628365745237769"><ele>816.0</ele><time>2026-04-25T09:27:41Z</time></trkpt><trkpt lat="44.469710663903264" lon="8.628230694145177"><ele>817.0</ele><time>2026-04-25T09:27:42Z</time></trkpt><trkpt lat="44.46979407162069" lon="8.6280952809267"><ele>818.0</ele><time>2026-04-25T09:27:43Z</time></trkpt><trkpt lat="44.46987424045292" lon="8.627971042889264"><ele>819.0</ele><time>2026-04-25T09:27:44Z</time></trkpt><trkpt lat="44.46994990200553" lon="8.627867772214945"><ele>819.0</ele><time>2026-04-25T09:27:45Z</time></trkpt><trkpt lat="44.4700215443908" lon="8.627813759189504"><ele>819.0</ele><time>2026-04-25T09:27:46Z</time></trkpt><trkpt lat="44.47008796054164" lon="8.627823855450254"><ele>819.0</ele><time>2026-04-25T09:27:47Z</time></trkpt><trkpt lat="44.470148044593635" lon="8.6278770019664"><ele>819.0</ele><time>2026-04-25T09:27:48Z</time></trkpt><trkpt lat="44.47016589088345" lon="8.62799093046673"><ele>819.0</ele><time>2026-04-25T09:27:49Z</time></trkpt><trkpt lat="44.47017781750636" lon="8.62809182859635"><ele>819.0</ele><time>2026-04-25T09:27:50Z</time></trkpt><trkpt lat="44.47011796219431" lon="8.628215661937974"><ele>819.0</ele><time>2026-04-25T09:27:51Z</time></trkpt><trkpt lat="44.47004478292244" lon="8.628354292560017"><ele>819.0</ele><time>2026-04-25T09:27:52Z</time></trkpt><trkpt lat="44.46996499922599" lon="8.628536311117317"><ele>819.0</ele><time>2026-04-25T09:27:53Z</time></trkpt><trkpt lat="44.469869424743514" lon="8.628688626092407"><ele>819.0</ele><time>2026-04-25T09:27:54Z</time></trkpt><trkpt lat="44.469800585598115" lon="8.62881895671471"><ele>821.2</ele><time>2026-04-25T09:27:55Z</time></trkpt><trkpt lat="44.469751682949564" lon="8.628944969940617"><ele>823.4000000000001</ele><time>2026-04-25T09:27:56Z</time></trkpt><trkpt lat="44.46972299547694" lon="8.629097072532904"><ele>825.6</ele><time>2026-04-25T09:27:57Z</time></trkpt><trkpt lat="44.469697112597665" lon="8.629255197028403"><ele>827.8</ele><time>2026-04-25T09:27:58Z</time></trkpt><trkpt lat="44.4696491810922" lon="8.629402956667521"><ele>830.0</ele><time>2026-04-25T09:27:59Z</time></trkpt><trkpt lat="44.469627777080206" lon="8.629557784633922"><ele>829.0</ele><time>2026-04-25T09:28:00Z</time></trkpt><trkpt lat="44.46959438549801" lon="8.629708677767962"><ele>828.0</ele><time>2026-04-25T09:28:01Z</time></trkpt><trkpt lat="44.469565965095086" lon="8.629868070242056"><ele>827.0</ele><time>2026-04-25T09:28:02Z</time></trkpt><trkpt lat="44.46951635457098" lon="8.630031589089164"><ele>826.0</ele><time>2026-04-25T09:28:03Z</time></trkpt><trkpt lat="44.46947836800042" lon="8.630210417651217"><ele>828.5</ele><time>2026-04-25T09:28:04Z</time></trkpt><trkpt lat="44.46943513741793" lon="8.630400207629213"><ele>831.0</ele><time>2026-04-25T09:28:05Z</time></trkpt><trkpt lat="44.46939252972382" lon="8.63057886391765"><ele>833.5</ele><time>2026-04-25T09:28:06Z</time></trkpt><trkpt lat="44.46936710941111" lon="8.630734256822988"><ele>836.0</ele><time>2026-04-25T09:28:07Z</time></trkpt><trkpt lat="44.46931871467691" lon="8.630856552162328"><ele>836.0</ele><time>2026-04-25T09:28:08Z</time></trkpt><trkpt lat="44.469235632742446" lon="8.630949474566316"><ele>836.0</ele><time>2026-04-25T09:28:09Z</time></trkpt><trkpt lat="44.469150646163605" lon="8.631072167483865"><ele>836.0</ele><time>2026-04-25T09:28:10Z</time></trkpt><trkpt lat="44.469067374948146" lon="8.63122682341744"><ele>836.0</ele><time>2026-04-25T09:28:11Z</time></trkpt><trkpt lat="44.46896631851675" lon="8.631364636403868"><ele>837.5999999999999</ele><time>2026-04-25T09:28:12Z</time></trkpt><trkpt lat="44.46889076314793" lon="8.631489884806335"><ele>839.2</ele><time>2026-04-25T09:28:13Z</time></trkpt><trkpt lat="44.46881527781873" lon="8.631567283310911"><ele>840.8</ele><time>2026-04-25T09:28:14Z</time></trkpt><trkpt lat="44.468757059933594" lon="8.63165075398087"><ele>842.4000000000001</ele><time>2026-04-25T09:28:15Z</time></trkpt><trkpt lat="44.46867105134176" lon="8.631638102151259"><ele>844.0</ele><time>2026-04-25T09:28:16Z</time></trkpt><trkpt lat="44.46858606011251" lon="8.631604617846076"><ele>844.0</ele><time>2026-04-25T09:28:17Z</time></trkpt><trkpt lat="44.46847351325137" lon="8.631557293879277"><ele>844.0</ele><time>2026-04-25T09:28:18Z</time></trkpt><trkpt lat="44.46835356598651" lon="8.631495253724038"><ele>844.0</ele><time>2026-04-25T09:28:19Z</time></trkpt><trkpt lat="44.46824473095568" lon="8.63145223748871"><ele>844.0</ele><time>2026-04-25T09:28:20Z</time></trkpt><trkpt lat="44.46812239121336" lon="8.63140821052298"><ele>844.0</ele><time>2026-04-25T09:28:21Z</time></trkpt><trkpt lat="44.467985959799805" lon="8.631358871196039"><ele>844.0</ele><time>2026-04-25T09:28:22Z</time></trkpt><trkpt lat="44.46783254280491" lon="8.63130607798625"><ele>844.0</ele><time>2026-04-25T09:28:23Z</time></trkpt><trkpt lat="44.46767068151529" lon="8.6312452029415"><ele>847.0</ele><time>2026-04-25T09:28:24Z</time></trkpt><trkpt lat="44.467524225027816" lon="8.631191293296169"><ele>850.0</ele><time>2026-04-25T09:28:25Z</time></trkpt><trkpt lat="44.46739978625946" lon="8.631135736717388"><ele>853.0</ele><time>2026-04-25T09:28:26Z</time></trkpt><trkpt lat="44.46729437584123" lon="8.631084779727027"><ele>856.0</ele><time>2026-04-25T09:28:27Z</time></trkpt><trkpt lat="44.467208988201065" lon="8.631046964590583"><ele>855.4999999999999</ele><time>2026-04-25T09:28:28Z</time></trkpt><trkpt lat="44.46713500406522" lon="8.63102557839226"><ele>855.0</ele><time>2026-04-25T09:28:29Z</time></trkpt><trkpt lat="44.467071905816184" lon="8.631034950471642"><ele>854.5</ele><time>2026-04-25T09:28:30Z</time></trkpt><trkpt lat="44.46700683183591" lon="8.63107266902116"><ele>854.0</ele><time>2026-04-25T09:28:31Z</time></trkpt><trkpt lat="44.46693786241135" lon="8.631143456959633"><ele>853.4999999999999</ele><time>2026-04-25T09:28:32Z</time></trkpt><trkpt lat="44.46687786767843" lon="8.631220413716962"><ele>853.0</ele><time>2026-04-25T09:28:33Z</time></trkpt><trkpt lat="44.466814879745264" lon="8.631310804668894"><ele>853.0</ele><time>2026-04-25T09:28:34Z</time></trkpt><trkpt lat="44.466746798592986" lon="8.6313962403445"><ele>853.0</ele><time>2026-04-25T09:28:35Z</time></trkpt><trkpt lat="44.466661900144864" lon="8.631536642273373"><ele>853.0</ele><time>2026-04-25T09:28:36Z</time></trkpt><trkpt lat="44.46656520133308" lon="8.63168796921785"><ele>853.0</ele><time>2026-04-25T09:28:37Z</time></trkpt><trkpt lat="44.46647667358649" lon="8.631815013542957"><ele>853.0</ele><time>2026-04-25T09:28:38Z</time></trkpt><trkpt lat="44.466378984545784" lon="8.63192076284203"><ele>853.0</ele><time>2026-04-25T09:28:39Z</time></trkpt><trkpt lat="44.466298828860545" lon="8.632010554063312"><ele>853.0</ele><time>2026-04-25T09:28:40Z</time></trkpt><trkpt lat="44.466243110903434" lon="8.632084253661619"><ele>853.0</ele><time>2026-04-25T09:28:41Z</time></trkpt><trkpt lat="44.46620308589646" lon="8.632242628643702"><ele>853.0</ele><time>2026-04-25T09:28:43Z</time></trkpt><trkpt lat="44.466195151544696" lon="8.632367793477638"><ele>853.5</ele><time>2026-04-25T09:28:44Z</time></trkpt><trkpt lat="44.46617770324686" lon="8.632511359340972"><ele>854.0</ele><time>2026-04-25T09:28:45Z</time></trkpt><trkpt lat="44.46615166658307" lon="8.63266727410139"><ele>854.5</ele><time>2026-04-25T09:28:46Z</time></trkpt><trkpt lat="44.466123696479656" lon="8.632839746033904"><ele>855.0</ele><time>2026-04-25T09:28:47Z</time></trkpt><trkpt lat="44.46610044160699" lon="8.633020396023076"><ele>858.2</ele><time>2026-04-25T09:28:48Z</time></trkpt><trkpt lat="44.46607400347258" lon="8.633178006281414"><ele>861.4</ele><time>2026-04-25T09:28:49Z</time></trkpt><trkpt lat="44.46602181917762" lon="8.633294196902488"><ele>864.5999999999999</ele><time>2026-04-25T09:28:50Z</time></trkpt><trkpt lat="44.46596695679587" lon="8.633406941646184"><ele>867.8</ele><time>2026-04-25T09:28:51Z</time></trkpt><trkpt lat="44.46590137193719" lon="8.633507608708953"><ele>871.0</ele><time>2026-04-25T09:28:52Z</time></trkpt><trkpt lat="44.46583614564814" lon="8.633595683565673"><ele>871.0</ele><time>2026-04-25T09:28:53Z</time></trkpt><trkpt lat="44.46577755217685" lon="8.633667263473898"><ele>870.9999999999999</ele><time>2026-04-25T09:28:54Z</time></trkpt><trkpt lat="44.46567768973417" lon="8.633751398382186"><ele>870.9999999999999</ele><time>2026-04-25T09:28:56Z</time></trkpt><trkpt lat="44.46555876972634" lon="8.633708057205691"><ele>871.0</ele><time>2026-04-25T09:28:58Z</time></trkpt><trkpt lat="44.465516996759625" lon="8.633618945461107"><ele>871.0</ele><time>2026-04-25T09:28:59Z</time></trkpt><trkpt lat="44.465512672342804" lon="8.633497092504575"><ele>870.9999999999999</ele><time>2026-04-25T09:29:00Z</time></trkpt><trkpt lat="44.46548139604609" lon="8.63337991888394"><ele>871.0</ele><time>2026-04-25T09:29:01Z</time></trkpt><trkpt lat="44.46545995413329" lon="8.633247364224218"><ele>871.0</ele><time>2026-04-25T09:29:02Z</time></trkpt><trkpt lat="44.46541247624147" lon="8.633142076013725"><ele>871.0</ele><time>2026-04-25T09:29:03Z</time></trkpt><trkpt lat="44.46534820665818" lon="8.633079930418681"><ele>870.9999999999999</ele><time>2026-04-25T09:29:04Z</time></trkpt><trkpt lat="44.46526653968803" lon="8.633042430286146"><ele>871.0</ele><time>2026-04-25T09:29:05Z</time></trkpt><trkpt lat="44.46516010616908" lon="8.633018473833449"><ele>873.0</ele><time>2026-04-25T09:29:06Z</time></trkpt><trkpt lat="44.46504550362426" lon="8.63299801384853"><ele>874.9999999999999</ele><time>2026-04-25T09:29:07Z</time></trkpt><trkpt lat="44.464938985905654" lon="8.632966802647132"><ele>876.9999999999999</ele><time>2026-04-25T09:29:08Z</time></trkpt><trkpt lat="44.464847775530515" lon="8.632949598786137"><ele>879.0</ele><time>2026-04-25T09:29:09Z</time></trkpt><trkpt lat="44.46476453816384" lon="8.632968950283487"><ele>881.0</ele><time>2026-04-25T09:29:10Z</time></trkpt><trkpt lat="44.46468630799697" lon="8.633029904734162"><ele>881.0</ele><time>2026-04-25T09:29:11Z</time></trkpt><trkpt lat="44.4646141046823" lon="8.633130500211664"><ele>881.0</ele><time>2026-04-25T09:29:12Z</time></trkpt><trkpt lat="44.46455660150147" lon="8.633264540262777"><ele>881.0</ele><time>2026-04-25T09:29:13Z</time></trkpt><trkpt lat="44.4645035021004" lon="8.633409913708087"><ele>881.0</ele><time>2026-04-25T09:29:14.001Z</time></trkpt><trkpt lat="44.46443023142994" lon="8.633570008956251"><ele>885.0</ele><time>2026-04-25T09:29:15.001Z</time></trkpt><trkpt lat="44.46435276646344" lon="8.633700978335606"><ele>889.0</ele><time>2026-04-25T09:29:16.001Z</time></trkpt><trkpt lat="44.4642732811147" lon="8.633796522255865"><ele>893.0</ele><time>2026-04-25T09:29:17.001Z</time></trkpt><trkpt lat="44.46417336355044" lon="8.633854115325725"><ele>897.0</ele><time>2026-04-25T09:29:18.001Z</time></trkpt><trkpt lat="44.464057919355966" lon="8.633882844949136"><ele>897.0</ele><time>2026-04-25T09:29:19.001Z</time></trkpt><trkpt lat="44.46394687873281" lon="8.633897210360402"><ele>897.0</ele><time>2026-04-25T09:29:20.001Z</time></trkpt><trkpt lat="44.46385717375458" lon="8.633933004941301"><ele>897.0</ele><time>2026-04-25T09:29:21.001Z</time></trkpt><trkpt lat="44.46378180128519" lon="8.634022714881759"><ele>897.0</ele><time>2026-04-25T09:29:22.001Z</time></trkpt><trkpt lat="44.46370794982943" lon="8.634143454622228"><ele>897.0</ele><time>2026-04-25T09:29:23.001Z</time></trkpt><trkpt lat="44.46362369471883" lon="8.634279355446235"><ele>893.75</ele><time>2026-04-25T09:29:24.001Z</time></trkpt><trkpt lat="44.463531298609375" lon="8.634419353439391"><ele>890.5</ele><time>2026-04-25T09:29:25.001Z</time></trkpt><trkpt lat="44.463428766076056" lon="8.634551420778294"><ele>887.25</ele><time>2026-04-25T09:29:26.001Z</time></trkpt><trkpt lat="44.46332034456805" lon="8.634662634400735"><ele>884.0</ele><time>2026-04-25T09:29:27.001Z</time></trkpt><trkpt lat="44.46320940823721" lon="8.634741738913034"><ele>888.75</ele><time>2026-04-25T09:29:28.001Z</time></trkpt><trkpt lat="44.463081213771794" lon="8.634762966495158"><ele>893.5</ele><time>2026-04-25T09:29:29.001Z</time></trkpt><trkpt lat="44.462937935806785" lon="8.634811470348286"><ele>898.25</ele><time>2026-04-25T09:29:30.001Z</time></trkpt><trkpt lat="44.46277855697382" lon="8.63483195267387"><ele>903.0</ele><time>2026-04-25T09:29:31.001Z</time></trkpt><trkpt lat="44.462631857715024" lon="8.63485997229125"><ele>903.0</ele><time>2026-04-25T09:29:32.001Z</time></trkpt><trkpt lat="44.46249863447444" lon="8.634895676120124"><ele>903.0</ele><time>2026-04-25T09:29:33.001Z</time></trkpt><trkpt lat="44.4623738665589" lon="8.634935335530537"><ele>903.0</ele><time>2026-04-25T09:29:34.001Z</time></trkpt><trkpt lat="44.46225998418136" lon="8.634981270538605"><ele>903.0</ele><time>2026-04-25T09:29:35.001Z</time></trkpt><trkpt lat="44.46215845468005" lon="8.635035738706064"><ele>904.8</ele><time>2026-04-25T09:29:36.001Z</time></trkpt><trkpt lat="44.462067366946066" lon="8.635098468084522"><ele>906.5999999999999</ele><time>2026-04-25T09:29:37.001Z</time></trkpt><trkpt lat="44.46198041767557" lon="8.635169737412712"><ele>908.4000000000001</ele><time>2026-04-25T09:29:38.001Z</time></trkpt><trkpt lat="44.46189933417208" lon="8.635261745074438"><ele>910.2</ele><time>2026-04-25T09:29:39.001Z</time></trkpt><trkpt lat="44.46182689466127" lon="8.635377521283853"><ele>912.0</ele><time>2026-04-25T09:29:40.001Z</time></trkpt><trkpt lat="44.46176729246115" lon="8.635510317638571"><ele>912.0</ele><time>2026-04-25T09:29:41.001Z</time></trkpt><trkpt lat="44.46170499435336" lon="8.635642991827687"><ele>912.0</ele><time>2026-04-25T09:29:42.001Z</time></trkpt><trkpt lat="44.46162699444393" lon="8.635734610359023"><ele>912.0</ele><time>2026-04-25T09:29:43Z</time></trkpt><trkpt lat="44.46155391917828" lon="8.635801488770293"><ele>912.0</ele><time>2026-04-25T09:29:44Z</time></trkpt><trkpt lat="44.461466888394234" lon="8.635836310013241"><ele>912.0</ele><time>2026-04-25T09:29:45Z</time></trkpt><trkpt lat="44.461361475141786" lon="8.635856660761347"><ele>912.0</ele><time>2026-04-25T09:29:46Z</time></trkpt><trkpt lat="44.46124761499386" lon="8.6358983016301"><ele>912.0</ele><time>2026-04-25T09:29:47Z</time></trkpt><trkpt lat="44.46112348097813" lon="8.635918581052154"><ele>912.0</ele><time>2026-04-25T09:29:48Z</time></trkpt><trkpt lat="44.46099617197263" lon="8.635952854913752"><ele>912.0</ele><time>2026-04-25T09:29:49Z</time></trkpt><trkpt lat="44.460869566757424" lon="8.635978249612076"><ele>912.0</ele><time>2026-04-25T09:29:50Z</time></trkpt><trkpt lat="44.4607665178548" lon="8.636003114151451"><ele>912.0</ele><time>2026-04-25T09:29:51Z</time></trkpt><trkpt lat="44.46067884952963" lon="8.636022423278598"><ele>912.0</ele><time>2026-04-25T09:29:52Z</time></trkpt><trkpt lat="44.460599643668495" lon="8.636030888649273"><ele>912.0</ele><time>2026-04-25T09:29:53Z</time></trkpt><trkpt lat="44.46053332497952" lon="8.636005797647128"><ele>912.0</ele><time>2026-04-25T09:29:54Z</time></trkpt><trkpt lat="44.460469780942844" lon="8.635937673526438"><ele>912.0</ele><time>2026-04-25T09:29:55Z</time></trkpt><trkpt lat="44.46042379793677" lon="8.635818910828766"><ele>914.0</ele><time>2026-04-25T09:29:56Z</time></trkpt><trkpt lat="44.46040890297502" lon="8.635661904986884"><ele>916.0</ele><time>2026-04-25T09:29:57Z</time></trkpt><trkpt lat="44.460346526072655" lon="8.635507987249628"><ele>918.0</ele><time>2026-04-25T09:29:58Z</time></trkpt><trkpt lat="44.4602911635494" lon="8.635325750147027"><ele>920.0</ele><time>2026-04-25T09:29:59Z</time></trkpt><trkpt lat="44.460260477263034" lon="8.635119224713923"><ele>920.0</ele><time>2026-04-25T09:30:00Z</time></trkpt><trkpt lat="44.46021768854395" lon="8.63493889316528"><ele>920.0</ele><time>2026-04-25T09:30:01Z</time></trkpt><trkpt lat="44.46017025349638" lon="8.634791125011365"><ele>920.0</ele><time>2026-04-25T09:30:02Z</time></trkpt><trkpt lat="44.460106139234796" lon="8.634667801216956"><ele>920.0</ele><time>2026-04-25T09:30:03Z</time></trkpt><trkpt lat="44.460039839660936" lon="8.634573103263207"><ele>920.0</ele><time>2026-04-25T09:30:04Z</time></trkpt><trkpt lat="44.459952934428486" lon="8.634518812895871"><ele>920.0</ele><time>2026-04-25T09:30:05Z</time></trkpt><trkpt lat="44.459850396730914" lon="8.634532119401909"><ele>920.0</ele><time>2026-04-25T09:30:06Z</time></trkpt><trkpt lat="44.459736849995224" lon="8.634536087736166"><ele>920.0</ele><time>2026-04-25T09:30:07Z</time></trkpt><trkpt lat="44.45960637278349" lon="8.634537244473133"><ele>920.0</ele><time>2026-04-25T09:30:08Z</time></trkpt><trkpt lat="44.45946249848076" lon="8.634535073928003"><ele>926.6666666666667</ele><time>2026-04-25T09:30:09Z</time></trkpt><trkpt lat="44.459310565747714" lon="8.634535346634376"><ele>933.3333333333333</ele><time>2026-04-25T09:30:10Z</time></trkpt><trkpt lat="44.459148478861124" lon="8.63453255414411"><ele>940.0</ele><time>2026-04-25T09:30:11Z</time></trkpt><trkpt lat="44.45899117729406" lon="8.634528823882354"><ele>940.0</ele><time>2026-04-25T09:30:12Z</time></trkpt><trkpt lat="44.45883694945671" lon="8.634522370605362"><ele>940.0</ele><time>2026-04-25T09:30:13Z</time></trkpt><trkpt lat="44.45867588250765" lon="8.63451708842745"><ele>940.0</ele><time>2026-04-25T09:30:14Z</time></trkpt><trkpt lat="44.458512980425475" lon="8.634516264196401"><ele>942.6666666666666</ele><time>2026-04-25T09:30:15Z</time></trkpt><trkpt lat="44.458356498181516" lon="8.634511771116077"><ele>945.3333333333333</ele><time>2026-04-25T09:30:16Z</time></trkpt><trkpt lat="44.45819623411176" lon="8.634505781730207"><ele>948.0</ele><time>2026-04-25T09:30:17Z</time></trkpt><trkpt lat="44.45804834450261" lon="8.634493831654233"><ele>943.75</ele><time>2026-04-25T09:30:18Z</time></trkpt><trkpt lat="44.457908646336" lon="8.634453069636114"><ele>939.5</ele><time>2026-04-25T09:30:19Z</time></trkpt><trkpt lat="44.45777514163648" lon="8.634459395951971"><ele>935.25</ele><time>2026-04-25T09:30:20Z</time></trkpt><trkpt lat="44.45763776742812" lon="8.634458548950185"><ele>931.0</ele><time>2026-04-25T09:30:21Z</time></trkpt><trkpt lat="44.457503753510515" lon="8.634458043545877"><ele>931.0</ele><time>2026-04-25T09:30:22Z</time></trkpt><trkpt lat="44.457371270757314" lon="8.63445411666423"><ele>931.0</ele><time>2026-04-25T09:30:23Z</time></trkpt><trkpt lat="44.45724300823094" lon="8.634463456210144"><ele>931.0</ele><time>2026-04-25T09:30:24Z</time></trkpt><trkpt lat="44.457134553927524" lon="8.634474883092706"><ele>931.0</ele><time>2026-04-25T09:30:25Z</time></trkpt><trkpt lat="44.45703955429642" lon="8.634493609857637"><ele>935.5999999999999</ele><time>2026-04-25T09:30:26Z</time></trkpt><trkpt lat="44.456948372002" lon="8.634519806762105"><ele>940.1999999999999</ele><time>2026-04-25T09:30:27Z</time></trkpt><trkpt lat="44.456845400749366" lon="8.634559560311306"><ele>944.8000000000001</ele><time>2026-04-25T09:30:28Z</time></trkpt><trkpt lat="44.45674187432968" lon="8.634593525738318"><ele>949.4000000000001</ele><time>2026-04-25T09:30:29Z</time></trkpt><trkpt lat="44.456636507188016" lon="8.634621169781498"><ele>954.0</ele><time>2026-04-25T09:30:30Z</time></trkpt><trkpt lat="44.45653012739973" lon="8.634650512152374"><ele>954.0</ele><time>2026-04-25T09:30:31Z</time></trkpt><trkpt lat="44.456420154262645" lon="8.634681533202805"><ele>954.0</ele><time>2026-04-25T09:30:32Z</time></trkpt><trkpt lat="44.45630399056276" lon="8.634721740317959"><ele>954.0</ele><time>2026-04-25T09:30:33Z</time></trkpt><trkpt lat="44.45618092371635" lon="8.634760320651047"><ele>954.0</ele><time>2026-04-25T09:30:34Z</time></trkpt><trkpt lat="44.456062491434004" lon="8.63479443709788"><ele>954.3333333333334</ele><time>2026-04-25T09:30:35Z</time></trkpt><trkpt lat="44.45596044199432" lon="8.634826037307048"><ele>954.6666666666667</ele><time>2026-04-25T09:30:36Z</time></trkpt><trkpt lat="44.45587211529477" lon="8.634861557133775"><ele>955.0</ele><time>2026-04-25T09:30:37Z</time></trkpt><trkpt lat="44.45580404507733" lon="8.634909508062893"><ele>955.3333333333334</ele><time>2026-04-25T09:30:38Z</time></trkpt><trkpt lat="44.45574608183316" lon="8.634985639162545"><ele>955.6666666666667</ele><time>2026-04-25T09:30:39Z</time></trkpt><trkpt lat="44.45569659965569" lon="8.635080430660754"><ele>956.0</ele><time>2026-04-25T09:30:40Z</time></trkpt><trkpt lat="44.4556594615886" lon="8.635178880235252"><ele>956.0</ele><time>2026-04-25T09:30:41Z</time></trkpt><trkpt lat="44.45563468503348" lon="8.635294395021615"><ele>955.9999999999999</ele><time>2026-04-25T09:30:42Z</time></trkpt><trkpt lat="44.45562698926547" lon="8.635435216990356"><ele>955.9999999999999</ele><time>2026-04-25T09:30:43Z</time></trkpt><trkpt lat="44.455643640892795" lon="8.635584597381136"><ele>956.0</ele><time>2026-04-25T09:30:44Z</time></trkpt><trkpt lat="44.45567784965566" lon="8.635734089088814"><ele>956.0</ele><time>2026-04-25T09:30:45Z</time></trkpt><trkpt lat="44.45573566050321" lon="8.635868888079372"><ele>957.0</ele><time>2026-04-25T09:30:46Z</time></trkpt><trkpt lat="44.455814121751544" lon="8.63597391406012"><ele>958.0</ele><time>2026-04-25T09:30:47Z</time></trkpt><trkpt lat="44.455903091315" lon="8.636068454094895"><ele>959.0</ele><time>2026-04-25T09:30:48Z</time></trkpt><trkpt lat="44.45600264372852" lon="8.636179661789798"><ele>960.0</ele><time>2026-04-25T09:30:49Z</time></trkpt><trkpt lat="44.45610753604805" lon="8.636313360006268"><ele>961.5</ele><time>2026-04-25T09:30:50Z</time></trkpt><trkpt lat="44.45619577976411" lon="8.63646651697909"><ele>963.0</ele><time>2026-04-25T09:30:51Z</time></trkpt><trkpt lat="44.45627649555383" lon="8.636601514213957"><ele>964.5</ele><time>2026-04-25T09:30:52Z</time></trkpt><trkpt lat="44.45636048307643" lon="8.63672615877833"><ele>966.0</ele><time>2026-04-25T09:30:53Z</time></trkpt><trkpt lat="44.45641511587656" lon="8.636866251866607"><ele>966.5</ele><time>2026-04-25T09:30:54Z</time></trkpt><trkpt lat="44.456457840579155" lon="8.637015325726361"><ele>967.0</ele><time>2026-04-25T09:30:55Z</time></trkpt><trkpt lat="44.45645800579999" lon="8.637174485326083"><ele>967.5</ele><time>2026-04-25T09:30:56Z</time></trkpt><trkpt lat="44.456467285505425" lon="8.637335356940136"><ele>968.0</ele><time>2026-04-25T09:30:57Z</time></trkpt><trkpt lat="44.45649374708192" lon="8.637479700170065"><ele>968.0</ele><time>2026-04-25T09:30:58Z</time></trkpt><trkpt lat="44.45652893527156" lon="8.637620998718836"><ele>968.0</ele><time>2026-04-25T09:30:59Z</time></trkpt><trkpt lat="44.45659672075489" lon="8.637758787437681"><ele>968.0</ele><time>2026-04-25T09:31:00Z</time></trkpt><trkpt lat="44.45668634695723" lon="8.637899211198972"><ele>968.0</ele><time>2026-04-25T09:31:01Z</time></trkpt><trkpt lat="44.456786498500534" lon="8.638049562035587"><ele>966.25</ele><time>2026-04-25T09:31:02Z</time></trkpt><trkpt lat="44.456880667080846" lon="8.638212656982477"><ele>964.5</ele><time>2026-04-25T09:31:03Z</time></trkpt><trkpt lat="44.45697270259391" lon="8.638378878857212"><ele>962.75</ele><time>2026-04-25T09:31:04Z</time></trkpt><trkpt lat="44.45706451529222" lon="8.638535041407069"><ele>961.0</ele><time>2026-04-25T09:31:05Z</time></trkpt><trkpt lat="44.45714703024904" lon="8.638681081632662"><ele>965.25</ele><time>2026-04-25T09:31:06Z</time></trkpt><trkpt lat="44.45720146424561" lon="8.638842196808827"><ele>969.5</ele><time>2026-04-25T09:31:07Z</time></trkpt><trkpt lat="44.45726641939277" lon="8.638983440344257"><ele>973.75</ele><time>2026-04-25T09:31:08Z</time></trkpt><trkpt lat="44.45730513379692" lon="8.639154829950375"><ele>978.0</ele><time>2026-04-25T09:31:09Z</time></trkpt><trkpt lat="44.45733824535087" lon="8.639351695169418"><ele>976.5</ele><time>2026-04-25T09:31:10Z</time></trkpt><trkpt lat="44.457365498810674" lon="8.639545490824215"><ele>975.0</ele><time>2026-04-25T09:31:11Z</time></trkpt><trkpt lat="44.457396235164175" lon="8.639722601711446"><ele>973.5</ele><time>2026-04-25T09:31:12Z</time></trkpt><trkpt lat="44.4574177349618" lon="8.639894047578325"><ele>972.0</ele><time>2026-04-25T09:31:13Z</time></trkpt><trkpt lat="44.457495564735666" lon="8.640033531467179"><ele>972.0</ele><time>2026-04-25T09:31:14Z</time></trkpt><trkpt lat="44.45758186201525" lon="8.640176271951624"><ele>972.0</ele><time>2026-04-25T09:31:15Z</time></trkpt><trkpt lat="44.457684866172464" lon="8.640313383534378"><ele>972.0</ele><time>2026-04-25T09:31:16Z</time></trkpt><trkpt lat="44.457782390674566" lon="8.640471750103428"><ele>972.0</ele><time>2026-04-25T09:31:17Z</time></trkpt><trkpt lat="44.45785960090614" lon="8.640649785657144"><ele>970.5</ele><time>2026-04-25T09:31:18Z</time></trkpt><trkpt lat="44.45789795886564" lon="8.640847452316457"><ele>969.0</ele><time>2026-04-25T09:31:19Z</time></trkpt><trkpt lat="44.45793940995144" lon="8.641041277176877"><ele>967.5</ele><time>2026-04-25T09:31:20.001Z</time></trkpt><trkpt lat="44.457990768975485" lon="8.641229255243058"><ele>966.0</ele><time>2026-04-25T09:31:21.001Z</time></trkpt><trkpt lat="44.4580642290104" lon="8.641395295304983"><ele>969.5</ele><time>2026-04-25T09:31:22.001Z</time></trkpt><trkpt lat="44.45810792906401" lon="8.64157687272466"><ele>973.0</ele><time>2026-04-25T09:31:23.001Z</time></trkpt><trkpt lat="44.45818705588772" lon="8.641743886867927"><ele>976.5</ele><time>2026-04-25T09:31:24.001Z</time></trkpt><trkpt lat="44.45825262873352" lon="8.641914760695265"><ele>980.0</ele><time>2026-04-25T09:31:25.001Z</time></trkpt><trkpt lat="44.45830929705757" lon="8.642065145305565"><ele>980.0</ele><time>2026-04-25T09:31:26.001Z</time></trkpt><trkpt lat="44.458348160450434" lon="8.642224086501868"><ele>980.0</ele><time>2026-04-25T09:31:27.001Z</time></trkpt><trkpt lat="44.45839293109894" lon="8.642381091296311"><ele>980.0</ele><time>2026-04-25T09:31:28.001Z</time></trkpt><trkpt lat="44.4584239671087" lon="8.642541577936269"><ele>980.0</ele><time>2026-04-25T09:31:29.001Z</time></trkpt><trkpt lat="44.458454831108384" lon="8.642725624818652"><ele>978.5</ele><time>2026-04-25T09:31:30.001Z</time></trkpt><trkpt lat="44.45848050368616" lon="8.642918497034271"><ele>977.0</ele><time>2026-04-25T09:31:31.001Z</time></trkpt><trkpt lat="44.45849810245911" lon="8.643104264974848"><ele>975.5</ele><time>2026-04-25T09:31:32.001Z</time></trkpt><trkpt lat="44.45851054335595" lon="8.643269318954447"><ele>974.0</ele><time>2026-04-25T09:31:33.001Z</time></trkpt><trkpt lat="44.45854531503718" lon="8.643392970969975"><ele>974.0</ele><time>2026-04-25T09:31:34.001Z</time></trkpt><trkpt lat="44.45857269324093" lon="8.643516870821086"><ele>974.0</ele><time>2026-04-25T09:31:35.001Z</time></trkpt><trkpt lat="44.45862992048267" lon="8.643655702259306"><ele>974.0</ele><time>2026-04-25T09:31:36.001Z</time></trkpt><trkpt lat="44.45869951969828" lon="8.643808848361036"><ele>974.0</ele><time>2026-04-25T09:31:37.001Z</time></trkpt><trkpt lat="44.458774481218626" lon="8.643975973141288"><ele>976.5</ele><time>2026-04-25T09:31:38.001Z</time></trkpt><trkpt lat="44.45883949607959" lon="8.64416276306843"><ele>979.0</ele><time>2026-04-25T09:31:39.001Z</time></trkpt><trkpt lat="44.45890237269501" lon="8.644334356745544"><ele>981.5</ele><time>2026-04-25T09:31:40.001Z</time></trkpt><trkpt lat="44.458951201589066" lon="8.64449780881917"><ele>984.0</ele><time>2026-04-25T09:31:41.001Z</time></trkpt><trkpt lat="44.45900382194549" lon="8.644663204929175"><ele>984.0</ele><time>2026-04-25T09:31:42.001Z</time></trkpt><trkpt lat="44.45908746156837" lon="8.644822014367405"><ele>984.0</ele><time>2026-04-25T09:31:43.001Z</time></trkpt><trkpt lat="44.459169902470514" lon="8.644991238025561"><ele>984.0</ele><time>2026-04-25T09:31:44.001Z</time></trkpt><trkpt lat="44.45926811167807" lon="8.645169381714641"><ele>984.0</ele><time>2026-04-25T09:31:45Z</time></trkpt><trkpt lat="44.45937433307805" lon="8.645347321082205"><ele>980.0</ele><time>2026-04-25T09:31:46Z</time></trkpt><trkpt lat="44.459471794328515" lon="8.645543207974162"><ele>976.0</ele><time>2026-04-25T09:31:47Z</time></trkpt><trkpt lat="44.45958317776988" lon="8.64569851575072"><ele>972.0</ele><time>2026-04-25T09:31:48Z</time></trkpt><trkpt lat="44.45967180602549" lon="8.645870960665077"><ele>980.0</ele><time>2026-04-25T09:31:49Z</time></trkpt><trkpt lat="44.4597303164452" lon="8.646074467537943"><ele>988.0</ele><time>2026-04-25T09:31:50Z</time></trkpt><trkpt lat="44.4598075524201" lon="8.646271660152204"><ele>996.0</ele><time>2026-04-25T09:31:51Z</time></trkpt><trkpt lat="44.459862668045936" lon="8.64648966854629"><ele>996.0</ele><time>2026-04-25T09:31:52Z</time></trkpt><trkpt lat="44.45991895070117" lon="8.64671152404519"><ele>996.0</ele><time>2026-04-25T09:31:53Z</time></trkpt><trkpt lat="44.459974587790285" lon="8.646934024584302"><ele>996.0</ele><time>2026-04-25T09:31:54Z</time></trkpt><trkpt lat="44.46004113340677" lon="8.64715651059289"><ele>994.3333333333333</ele><time>2026-04-25T09:31:55Z</time></trkpt><trkpt lat="44.460105053003424" lon="8.647389801552482"><ele>992.6666666666666</ele><time>2026-04-25T09:31:56Z</time></trkpt><trkpt lat="44.46014759055649" lon="8.647625187646044"><ele>991.0</ele><time>2026-04-25T09:31:57Z</time></trkpt><trkpt lat="44.46017138108747" lon="8.647844173797512"><ele>989.25</ele><time>2026-04-25T09:31:58Z</time></trkpt><trkpt lat="44.46019192549162" lon="8.648049737224632"><ele>987.5</ele><time>2026-04-25T09:31:59Z</time></trkpt><trkpt lat="44.46022947654223" lon="8.6482398757814"><ele>985.75</ele><time>2026-04-25T09:32:00Z</time></trkpt><trkpt lat="44.46028206965147" lon="8.648420846605818"><ele>984.0</ele><time>2026-04-25T09:32:01Z</time></trkpt><trkpt lat="44.46034218439047" lon="8.64859769356889"><ele>980.5</ele><time>2026-04-25T09:32:02Z</time></trkpt><trkpt lat="44.460407483790284" lon="8.648769689734845"><ele>977.0</ele><time>2026-04-25T09:32:03Z</time></trkpt><trkpt lat="44.46048212185777" lon="8.648940631460679"><ele>973.5</ele><time>2026-04-25T09:32:04Z</time></trkpt><trkpt lat="44.460567559256084" lon="8.64911426982678"><ele>970.0</ele><time>2026-04-25T09:32:05Z</time></trkpt><trkpt lat="44.46067532613561" lon="8.649291459274684"><ele>975.0</ele><time>2026-04-25T09:32:06Z</time></trkpt><trkpt lat="44.46080141942993" lon="8.649474513322254"><ele>980.0</ele><time>2026-04-25T09:32:07Z</time></trkpt><trkpt lat="44.460933575410394" lon="8.649661774699728"><ele>985.0</ele><time>2026-04-25T09:32:08Z</time></trkpt><trkpt lat="44.461070674500604" lon="8.649848191000324"><ele>985.0</ele><time>2026-04-25T09:32:09Z</time></trkpt><trkpt lat="44.46119515130753" lon="8.650014734512038"><ele>985.0</ele><time>2026-04-25T09:32:10Z</time></trkpt><trkpt lat="44.46131079130197" lon="8.650174680358093"><ele>985.0</ele><time>2026-04-25T09:32:11Z</time></trkpt><trkpt lat="44.4614032892133" lon="8.650338950420524"><ele>989.0</ele><time>2026-04-25T09:32:12Z</time></trkpt><trkpt lat="44.46147976787629" lon="8.65048224645418"><ele>993.0</ele><time>2026-04-25T09:32:13Z</time></trkpt><trkpt lat="44.46152874262055" lon="8.650619314366201"><ele>997.0</ele><time>2026-04-25T09:32:14Z</time></trkpt><trkpt lat="44.46157203902027" lon="8.650764976185627"><ele>1001.0</ele><time>2026-04-25T09:32:15Z</time></trkpt><trkpt lat="44.46162209430677" lon="8.650941914718263"><ele>1002.3333333333334</ele><time>2026-04-25T09:32:16Z</time></trkpt><trkpt lat="44.461664784639765" lon="8.651144109939"><ele>1003.6666666666667</ele><time>2026-04-25T09:32:17Z</time></trkpt><trkpt lat="44.46172082763197" lon="8.651357990680118"><ele>1005.0</ele><time>2026-04-25T09:32:18Z</time></trkpt><trkpt lat="44.46175394038228" lon="8.65159148300982"><ele>1005.0</ele><time>2026-04-25T09:32:19Z</time></trkpt><trkpt lat="44.461771990037114" lon="8.651813482687801"><ele>1005.0</ele><time>2026-04-25T09:32:20Z</time></trkpt><trkpt lat="44.46179549508548" lon="8.652006049588724"><ele>1005.0</ele><time>2026-04-25T09:32:21Z</time></trkpt><trkpt lat="44.461829638222696" lon="8.652183895909443"><ele>1005.0</ele><time>2026-04-25T09:32:22Z</time></trkpt><trkpt lat="44.46188671088777" lon="8.65235699320337"><ele>1004.25</ele><time>2026-04-25T09:32:23Z</time></trkpt><trkpt lat="44.461966542212316" lon="8.65252045683943"><ele>1003.5</ele><time>2026-04-25T09:32:24Z</time></trkpt><trkpt lat="44.46205301066196" lon="8.652690270146799"><ele>1002.75</ele><time>2026-04-25T09:32:25Z</time></trkpt><trkpt lat="44.46210182581516" lon="8.652896751890246"><ele>1002.0</ele><time>2026-04-25T09:32:26Z</time></trkpt><trkpt lat="44.46216712813406" lon="8.653103373019206"><ele>1005.0</ele><time>2026-04-25T09:32:27Z</time></trkpt><trkpt lat="44.462186535024045" lon="8.653317641036951"><ele>1008.0</ele><time>2026-04-25T09:32:28Z</time></trkpt><trkpt lat="44.46219835912119" lon="8.653507417377662"><ele>1011.0</ele><time>2026-04-25T09:32:29Z</time></trkpt><trkpt lat="44.46222740181398" lon="8.653667067825415"><ele>1014.0</ele><time>2026-04-25T09:32:30Z</time></trkpt><trkpt lat="44.46228537108862" lon="8.65379645784664"><ele>1014.0</ele><time>2026-04-25T09:32:31Z</time></trkpt><trkpt lat="44.46234869922425" lon="8.653936557345485"><ele>1014.0</ele><time>2026-04-25T09:32:32Z</time></trkpt><trkpt lat="44.462434001925494" lon="8.65406643269927"><ele>1014.0</ele><time>2026-04-25T09:32:33Z</time></trkpt><trkpt lat="44.462528063028714" lon="8.654185847481024"><ele>1014.0</ele><time>2026-04-25T09:32:34Z</time></trkpt><trkpt lat="44.462633284658736" lon="8.654282148862734"><ele>1014.0</ele><time>2026-04-25T09:32:35Z</time></trkpt><trkpt lat="44.46275011161352" lon="8.654360541171702"><ele>1014.0</ele><time>2026-04-25T09:32:36Z</time></trkpt><trkpt lat="44.462887183073825" lon="8.654418360552851"><ele>1014.0</ele><time>2026-04-25T09:32:37Z</time></trkpt><trkpt lat="44.46303948730805" lon="8.654461306803613"><ele>1014.0</ele><time>2026-04-25T09:32:38Z</time></trkpt><trkpt lat="44.46320251702986" lon="8.654511539630422"><ele>1013.6666666666667</ele><time>2026-04-25T09:32:39Z</time></trkpt><trkpt lat="44.46336261100767" lon="8.654562306912357"><ele>1013.3333333333334</ele><time>2026-04-25T09:32:40Z</time></trkpt><trkpt lat="44.46351284263792" lon="8.65460117582565"><ele>1013.0</ele><time>2026-04-25T09:32:41Z</time></trkpt><trkpt lat="44.46364678299411" lon="8.654648087812836"><ele>1013.0</ele><time>2026-04-25T09:32:42Z</time></trkpt><trkpt lat="44.46376647429718" lon="8.654702815990271"><ele>1013.0</ele><time>2026-04-25T09:32:43Z</time></trkpt><trkpt lat="44.46386715894939" lon="8.654760726345163"><ele>1013.0</ele><time>2026-04-25T09:32:44Z</time></trkpt><trkpt lat="44.46394179692442" lon="8.654834392942917"><ele>1013.0</ele><time>2026-04-25T09:32:45Z</time></trkpt><trkpt lat="44.463997654988496" lon="8.65492781581778"><ele>1013.0</ele><time>2026-04-25T09:32:46Z</time></trkpt><trkpt lat="44.464002339318846" lon="8.655067702099954"><ele>1016.5</ele><time>2026-04-25T09:32:47Z</time></trkpt><trkpt lat="44.46402189064172" lon="8.655225199629028"><ele>1020.0</ele><time>2026-04-25T09:32:48Z</time></trkpt><trkpt lat="44.46402665573001" lon="8.655408622248485"><ele>1023.5</ele><time>2026-04-25T09:32:49Z</time></trkpt><trkpt lat="44.4640202163163" lon="8.65562088145405"><ele>1027.0</ele><time>2026-04-25T09:32:50Z</time></trkpt><trkpt lat="44.464022798584445" lon="8.655851297430331"><ele>1027.0</ele><time>2026-04-25T09:32:51Z</time></trkpt><trkpt lat="44.4640170932365" lon="8.656063148554104"><ele>1027.0</ele><time>2026-04-25T09:32:52Z</time></trkpt><trkpt lat="44.46401108050608" lon="8.656239919720907"><ele>1027.0</ele><time>2026-04-25T09:32:53Z</time></trkpt><trkpt lat="44.46400023342247" lon="8.656376507205467"><ele>1027.0</ele><time>2026-04-25T09:32:54Z</time></trkpt><trkpt lat="44.46395066246293" lon="8.656478699378575"><ele>1028.0</ele><time>2026-04-25T09:32:55Z</time></trkpt><trkpt lat="44.46389097872373" lon="8.656591499042806"><ele>1029.0</ele><time>2026-04-25T09:32:56Z</time></trkpt><trkpt lat="44.46381653532422" lon="8.6567406933354"><ele>1030.0</ele><time>2026-04-25T09:32:57Z</time></trkpt><trkpt lat="44.463740450141074" lon="8.656913930735012"><ele>1031.0</ele><time>2026-04-25T09:32:58Z</time></trkpt><trkpt lat="44.46365965983574" lon="8.657106754285575"><ele>1031.25</ele><time>2026-04-25T09:32:59Z</time></trkpt><trkpt lat="44.463580085905996" lon="8.657297104643492"><ele>1031.5</ele><time>2026-04-25T09:33:00Z</time></trkpt><trkpt lat="44.463501666572874" lon="8.657468127797245"><ele>1031.75</ele><time>2026-04-25T09:33:01Z</time></trkpt><trkpt lat="44.46342738383069" lon="8.657610256728395"><ele>1032.0</ele><time>2026-04-25T09:33:02Z</time></trkpt><trkpt lat="44.4633442111513" lon="8.657720542788121"><ele>1031.5</ele><time>2026-04-25T09:33:03Z</time></trkpt><trkpt lat="44.46324054593477" lon="8.657798948383718"><ele>1031.0</ele><time>2026-04-25T09:33:04Z</time></trkpt><trkpt lat="44.463116126871824" lon="8.657840757923664"><ele>1030.5</ele><time>2026-04-25T09:33:05Z</time></trkpt><trkpt lat="44.462980380018784" lon="8.657851858612107"><ele>1030.0</ele><time>2026-04-25T09:33:06Z</time></trkpt><trkpt lat="44.46283277120887" lon="8.657861323343804"><ele>1030.0</ele><time>2026-04-25T09:33:07Z</time></trkpt><trkpt lat="44.46270256746578" lon="8.657893983804467"><ele>1030.0</ele><time>2026-04-25T09:33:08Z</time></trkpt><trkpt lat="44.46259342926705" lon="8.657963429743546"><ele>1030.0</ele><time>2026-04-25T09:33:09Z</time></trkpt><trkpt lat="44.462516213904316" lon="8.658052585711955"><ele>1030.0</ele><time>2026-04-25T09:33:10Z</time></trkpt><trkpt lat="44.46245770611206" lon="8.658166576073148"><ele>1030.0</ele><time>2026-04-25T09:33:11Z</time></trkpt><trkpt lat="44.4624240512464" lon="8.658313032370838"><ele>1030.0</ele><time>2026-04-25T09:33:12Z</time></trkpt><trkpt lat="44.4624090325768" lon="8.658479078542992"><ele>1030.0</ele><time>2026-04-25T09:33:13Z</time></trkpt><trkpt lat="44.46240762518376" lon="8.658669121015718"><ele>1030.0</ele><time>2026-04-25T09:33:14Z</time></trkpt><trkpt lat="44.46241042901485" lon="8.658877932175347"><ele>1032.3333333333333</ele><time>2026-04-25T09:33:15Z</time></trkpt><trkpt lat="44.462394009834924" lon="8.659093455840626"><ele>1034.6666666666667</ele><time>2026-04-25T09:33:16Z</time></trkpt><trkpt lat="44.462415590291265" lon="8.659302245955166"><ele>1037.0</ele><time>2026-04-25T09:33:17Z</time></trkpt><trkpt lat="44.46244354544366" lon="8.659514992782082"><ele>1037.0</ele><time>2026-04-25T09:33:18Z</time></trkpt><trkpt lat="44.4624882693266" lon="8.65974727626069"><ele>1037.0</ele><time>2026-04-25T09:33:19Z</time></trkpt><trkpt lat="44.462538805935786" lon="8.659972634186904"><ele>1037.0</ele><time>2026-04-25T09:33:20Z</time></trkpt><trkpt lat="44.462578248888285" lon="8.660175444467722"><ele>1037.8</ele><time>2026-04-25T09:33:21Z</time></trkpt><trkpt lat="44.4626031009141" lon="8.660348110922827"><ele>1038.6</ele><time>2026-04-25T09:33:22Z</time></trkpt><trkpt lat="44.462595301020556" lon="8.660493130704477"><ele>1039.3999999999999</ele><time>2026-04-25T09:33:23Z</time></trkpt><trkpt lat="44.46257735243146" lon="8.660618907169892"><ele>1040.2</ele><time>2026-04-25T09:33:24Z</time></trkpt><trkpt lat="44.46253643401561" lon="8.660729769363032"><ele>1041.0</ele><time>2026-04-25T09:33:25.001Z</time></trkpt><trkpt lat="44.46247563106415" lon="8.66083690378699"><ele>1041.0</ele><time>2026-04-25T09:33:26.001Z</time></trkpt><trkpt lat="44.462397475596624" lon="8.660954982848294"><ele>1041.0</ele><time>2026-04-25T09:33:27.001Z</time></trkpt><trkpt lat="44.46227839258549" lon="8.661024337981438"><ele>1041.0</ele><time>2026-04-25T09:33:28.001Z</time></trkpt><trkpt lat="44.46217432377559" lon="8.66111062149816"><ele>1041.0</ele><time>2026-04-25T09:33:29.001Z</time></trkpt><trkpt lat="44.4621001818771" lon="8.66117125575163"><ele>1042.3999999999999</ele><time>2026-04-25T09:33:30.001Z</time></trkpt><trkpt lat="44.46203992036272" lon="8.661230652292401"><ele>1043.8</ele><time>2026-04-25T09:33:31.001Z</time></trkpt><trkpt lat="44.46203433486418" lon="8.66136256426095"><ele>1045.1999999999998</ele><time>2026-04-25T09:33:32.001Z</time></trkpt><trkpt lat="44.46202314438182" lon="8.66149597112828"><ele>1046.6</ele><time>2026-04-25T09:33:33.001Z</time></trkpt><trkpt lat="44.46207970872999" lon="8.66165729254768"><ele>1048.0</ele><time>2026-04-25T09:33:34.001Z</time></trkpt><trkpt lat="44.46211775011747" lon="8.6618554462299"><ele>1048.0</ele><time>2026-04-25T09:33:35.001Z</time></trkpt><trkpt lat="44.4621606568957" lon="8.662044533726512"><ele>1048.0</ele><time>2026-04-25T09:33:36.001Z</time></trkpt><trkpt lat="44.4621892092059" lon="8.662207796100027"><ele>1048.0</ele><time>2026-04-25T09:33:37.001Z</time></trkpt><trkpt lat="44.46222632305558" lon="8.66236263058596"><ele>1048.0</ele><time>2026-04-25T09:33:38.001Z</time></trkpt><trkpt lat="44.46222899215622" lon="8.66252437145675"><ele>1048.0</ele><time>2026-04-25T09:33:39.001Z</time></trkpt><trkpt lat="44.46219683420989" lon="8.662695915445948"><ele>1048.0</ele><time>2026-04-25T09:33:40.001Z</time></trkpt><trkpt lat="44.462160817383094" lon="8.662876501780623"><ele>1048.0</ele><time>2026-04-25T09:33:41.001Z</time></trkpt><trkpt lat="44.46210721173238" lon="8.663082926633958"><ele>1048.0</ele><time>2026-04-25T09:33:42.001Z</time></trkpt><trkpt lat="44.46203623311143" lon="8.663313598005255"><ele>1044.6666666666665</ele><time>2026-04-25T09:33:43.001Z</time></trkpt><trkpt lat="44.46195424082338" lon="8.663562457875155"><ele>1041.3333333333333</ele><time>2026-04-25T09:33:44.001Z</time></trkpt><trkpt lat="44.461898723084246" lon="8.663793910595706"><ele>1038.0</ele><time>2026-04-25T09:33:45.001Z</time></trkpt><trkpt lat="44.461857726042396" lon="8.664002140529083"><ele>1038.0</ele><time>2026-04-25T09:33:46.001Z</time></trkpt><trkpt lat="44.46179749286111" lon="8.66420409331354"><ele>1038.0</ele><time>2026-04-25T09:33:47.001Z</time></trkpt><trkpt lat="44.46173939733454" lon="8.664394312023315"><ele>1038.0</ele><time>2026-04-25T09:33:48.001Z</time></trkpt><trkpt lat="44.46166989668471" lon="8.6645707652497"><ele>1038.0</ele><time>2026-04-25T09:33:49.001Z</time></trkpt><trkpt lat="44.46163586732918" lon="8.664765069147553"><ele>1040.6666666666667</ele><time>2026-04-25T09:33:50.001Z</time></trkpt><trkpt lat="44.4616364373478" lon="8.664973889010389"><ele>1043.3333333333335</ele><time>2026-04-25T09:33:51.001Z</time></trkpt><trkpt lat="44.46163450529767" lon="8.665207435820772"><ele>1046.0</ele><time>2026-04-25T09:33:52Z</time></trkpt><trkpt lat="44.46163034001964" lon="8.665440082663599"><ele>1046.6666666666667</ele><time>2026-04-25T09:33:53Z</time></trkpt><trkpt lat="44.46162309290513" lon="8.665683599033109"><ele>1047.3333333333333</ele><time>2026-04-25T09:33:54Z</time></trkpt><trkpt lat="44.46161653086394" lon="8.665917195132748"><ele>1048.0</ele><time>2026-04-25T09:33:55Z</time></trkpt><trkpt lat="44.46161211196429" lon="8.666141753518666"><ele>1048.75</ele><time>2026-04-25T09:33:56Z</time></trkpt><trkpt lat="44.46160797718294" lon="8.666364068929909"><ele>1049.5</ele><time>2026-04-25T09:33:57Z</time></trkpt><trkpt lat="44.46159864921125" lon="8.666564093667905"><ele>1050.25</ele><time>2026-04-25T09:33:58Z</time></trkpt><trkpt lat="44.4615771726833" lon="8.666748338479405"><ele>1051.0</ele><time>2026-04-25T09:33:59Z</time></trkpt><trkpt lat="44.461588616400746" lon="8.66692976218414"><ele>1051.0</ele><time>2026-04-25T09:34:00Z</time></trkpt><trkpt lat="44.46157978136658" lon="8.667089088340326"><ele>1051.0</ele><time>2026-04-25T09:34:01Z</time></trkpt><trkpt lat="44.46158129201551" lon="8.66722876545606"><ele>1051.0</ele><time>2026-04-25T09:34:02Z</time></trkpt><trkpt lat="44.46159821859561" lon="8.667364487437284"><ele>1051.0</ele><time>2026-04-25T09:34:03Z</time></trkpt><trkpt lat="44.46163674573062" lon="8.667499349721627"><ele>1051.0</ele><time>2026-04-25T09:34:04Z</time></trkpt><trkpt lat="44.4617084329054" lon="8.667617917536674"><ele>1051.0</ele><time>2026-04-25T09:34:05Z</time></trkpt><trkpt lat="44.46179393746465" lon="8.66771325378859"><ele>1051.0</ele><time>2026-04-25T09:34:06Z</time></trkpt><trkpt lat="44.46190068734487" lon="8.667750986690189"><ele>1051.0</ele><time>2026-04-25T09:34:07Z</time></trkpt><trkpt lat="44.46199865556031" lon="8.667775763461538"><ele>1051.0</ele><time>2026-04-25T09:34:08Z</time></trkpt><trkpt lat="44.46210057019139" lon="8.667767080303827"><ele>1051.0</ele><time>2026-04-25T09:34:09Z</time></trkpt><trkpt lat="44.462201480366105" lon="8.667739019056032"><ele>1052.75</ele><time>2026-04-25T09:34:10Z</time></trkpt><trkpt lat="44.46231185945416" lon="8.667709477951185"><ele>1054.5</ele><time>2026-04-25T09:34:11Z</time></trkpt><trkpt lat="44.46243422779749" lon="8.667691251949167"><ele>1056.25</ele><time>2026-04-25T09:34:12Z</time></trkpt><trkpt lat="44.4625726701406" lon="8.667663444691259"><ele>1058.0</ele><time>2026-04-25T09:34:13Z</time></trkpt><trkpt lat="44.462727253805674" lon="8.66762607274759"><ele>1058.0</ele><time>2026-04-25T09:34:14Z</time></trkpt><trkpt lat="44.4628989579607" lon="8.667582437771697"><ele>1058.0</ele><time>2026-04-25T09:34:15Z</time></trkpt><trkpt lat="44.46307219076109" lon="8.66753235816496"><ele>1058.0</ele><time>2026-04-25T09:34:16Z</time></trkpt><trkpt lat="44.463239313885026" lon="8.66747357449021"><ele>1057.3333333333335</ele><time>2026-04-25T09:34:17Z</time></trkpt><trkpt lat="44.46341916588907" lon="8.667409395923904"><ele>1056.6666666666667</ele><time>2026-04-25T09:34:18Z</time></trkpt><trkpt lat="44.463608628662875" lon="8.667340355711199"><ele>1056.0</ele><time>2026-04-25T09:34:19Z</time></trkpt><trkpt lat="44.46379126118821" lon="8.667278291081805"><ele>1053.0</ele><time>2026-04-25T09:34:20Z</time></trkpt><trkpt lat="44.46396159286552" lon="8.667217088254015"><ele>1050.0</ele><time>2026-04-25T09:34:21Z</time></trkpt><trkpt lat="44.46412794091906" lon="8.667158680762187"><ele>1047.0</ele><time>2026-04-25T09:34:22Z</time></trkpt><trkpt lat="44.4642980947551" lon="8.667108509289324"><ele>1047.0</ele><time>2026-04-25T09:34:23Z</time></trkpt><trkpt lat="44.464464951922366" lon="8.667064029737976"><ele>1047.0</ele><time>2026-04-25T09:34:24Z</time></trkpt><trkpt lat="44.46462367045391" lon="8.667019879061701"><ele>1047.0</ele><time>2026-04-25T09:34:25Z</time></trkpt><trkpt lat="44.464783605971675" lon="8.666995305450175"><ele>1043.5</ele><time>2026-04-25T09:34:26Z</time></trkpt><trkpt lat="44.46493397273878" lon="8.666945783133146"><ele>1040.0</ele><time>2026-04-25T09:34:27Z</time></trkpt><trkpt lat="44.46506141369966" lon="8.666917901252393"><ele>1036.5</ele><time>2026-04-25T09:34:28Z</time></trkpt><trkpt lat="44.465181613045935" lon="8.666900626743448"><ele>1033.0</ele><time>2026-04-25T09:34:29Z</time></trkpt><trkpt lat="44.46530276750604" lon="8.66694534646309"><ele>1033.0</ele><time>2026-04-25T09:34:30Z</time></trkpt><trkpt lat="44.46543035495378" lon="8.666993401943548"><ele>1033.0</ele><time>2026-04-25T09:34:31Z</time></trkpt><trkpt lat="44.4655660888297" lon="8.667045957807549"><ele>1033.0</ele><time>2026-04-25T09:34:32Z</time></trkpt><trkpt lat="44.46570146941209" lon="8.667074792588117"><ele>1033.0</ele><time>2026-04-25T09:34:33Z</time></trkpt><trkpt lat="44.4658218496764" lon="8.667119469562461"><ele>1034.0</ele><time>2026-04-25T09:34:34Z</time></trkpt><trkpt lat="44.46593757135177" lon="8.667128201114224"><ele>1035.0</ele><time>2026-04-25T09:34:35Z</time></trkpt><trkpt lat="44.466054982090945" lon="8.66709991786839"><ele>1036.0</ele><time>2026-04-25T09:34:36Z</time></trkpt><trkpt lat="44.466168022293274" lon="8.667023260506289"><ele>1037.0</ele><time>2026-04-25T09:34:37Z</time></trkpt><trkpt lat="44.46627688068696" lon="8.666912311500424"><ele>1038.25</ele><time>2026-04-25T09:34:38Z</time></trkpt><trkpt lat="44.4663947489892" lon="8.666777480163965"><ele>1039.5</ele><time>2026-04-25T09:34:39Z</time></trkpt><trkpt lat="44.466517709817616" lon="8.66666424439834"><ele>1040.75</ele><time>2026-04-25T09:34:40Z</time></trkpt><trkpt lat="44.4666494552375" lon="8.666572556939027"><ele>1042.0</ele><time>2026-04-25T09:34:41Z</time></trkpt><trkpt lat="44.466798040698144" lon="8.666485698014725"><ele>1042.0</ele><time>2026-04-25T09:34:42Z</time></trkpt><trkpt lat="44.46696147892682" lon="8.666413994726062"><ele>1042.0</ele><time>2026-04-25T09:34:43Z</time></trkpt><trkpt lat="44.46713023267356" lon="8.66639522839759"><ele>1042.0</ele><time>2026-04-25T09:34:44Z</time></trkpt><trkpt lat="44.46728782352699" lon="8.666340504600605"><ele>1036.0</ele><time>2026-04-25T09:34:45Z</time></trkpt><trkpt lat="44.467441256999464" lon="8.666292788481469"><ele>1030.0</ele><time>2026-04-25T09:34:46Z</time></trkpt><trkpt lat="44.46759571984215" lon="8.666225663068188"><ele>1024.0</ele><time>2026-04-25T09:34:47Z</time></trkpt><trkpt lat="44.467751040969915" lon="8.6661421207226"><ele>1021.6666666666666</ele><time>2026-04-25T09:34:48Z</time></trkpt><trkpt lat="44.467897901951694" lon="8.666040318390534"><ele>1019.3333333333333</ele><time>2026-04-25T09:34:49Z</time></trkpt><trkpt lat="44.46805056032301" lon="8.665919025347083"><ele>1017.0</ele><time>2026-04-25T09:34:50Z</time></trkpt><trkpt lat="44.46819641282902" lon="8.665787393552506"><ele>1017.0</ele><time>2026-04-25T09:34:51Z</time></trkpt><trkpt lat="44.46834039993559" lon="8.665645776820968"><ele>1017.0</ele><time>2026-04-25T09:34:52Z</time></trkpt><trkpt lat="44.46848301855809" lon="8.665516190078469"><ele>1017.0</ele><time>2026-04-25T09:34:53Z</time></trkpt><trkpt lat="44.468615522246004" lon="8.665395876134781"><ele>1017.0</ele><time>2026-04-25T09:34:54Z</time></trkpt><trkpt lat="44.46873033081439" lon="8.665284829375079"><ele>1017.0</ele><time>2026-04-25T09:34:55Z</time></trkpt><trkpt lat="44.46883494372481" lon="8.665179070584877"><ele>1017.0</ele><time>2026-04-25T09:34:56Z</time></trkpt><trkpt lat="44.46892783083545" lon="8.665095748977006"><ele>1017.0</ele><time>2026-04-25T09:34:57Z</time></trkpt><trkpt lat="44.46902428333585" lon="8.665038862474372"><ele>1015.0</ele><time>2026-04-25T09:34:58Z</time></trkpt><trkpt lat="44.469108180695315" lon="8.665015313142552"><ele>1013.0</ele><time>2026-04-25T09:34:59Z</time></trkpt><trkpt lat="44.469177662804704" lon="8.665059011001746"><ele>1011.0</ele><time>2026-04-25T09:35:00Z</time></trkpt><trkpt lat="44.4692342464703" lon="8.665140739115925"><ele>1009.0</ele><time>2026-04-25T09:35:01Z</time></trkpt><trkpt lat="44.46927724947564" lon="8.665263452180175"><ele>1007.0</ele><time>2026-04-25T09:35:02Z</time></trkpt><trkpt lat="44.469265586588044" lon="8.665416409114618"><ele>1006.0</ele><time>2026-04-25T09:35:03Z</time></trkpt><trkpt lat="44.46921333914411" lon="8.665535254680686"><ele>1005.0</ele><time>2026-04-25T09:35:04Z</time></trkpt><trkpt lat="44.46912348325821" lon="8.665618512006404"><ele>1004.0</ele><time>2026-04-25T09:35:05Z</time></trkpt><trkpt lat="44.46899158051178" lon="8.665680035911263"><ele>1003.0</ele><time>2026-04-25T09:35:06Z</time></trkpt><trkpt lat="44.46885900034343" lon="8.665771995188209"><ele>1003.0</ele><time>2026-04-25T09:35:07Z</time></trkpt><trkpt lat="44.46873631607727" lon="8.665886110991593"><ele>1003.0</ele><time>2026-04-25T09:35:08Z</time></trkpt><trkpt lat="44.468626572696074" lon="8.666000837642985"><ele>1003.0</ele><time>2026-04-25T09:35:09Z</time></trkpt><trkpt lat="44.468529171322814" lon="8.666123124665086"><ele>1003.0</ele><time>2026-04-25T09:35:10Z</time></trkpt><trkpt lat="44.46843978041087" lon="8.666253722124036"><ele>1003.0</ele><time>2026-04-25T09:35:11Z</time></trkpt><trkpt lat="44.468358569944705" lon="8.666389513843455"><ele>1003.0</ele><time>2026-04-25T09:35:12Z</time></trkpt><trkpt lat="44.46827907414055" lon="8.666527533476712"><ele>1003.0</ele><time>2026-04-25T09:35:13Z</time></trkpt><trkpt lat="44.46819939612076" lon="8.666668487782513"><ele>1003.0</ele><time>2026-04-25T09:35:14Z</time></trkpt><trkpt lat="44.468106395341756" lon="8.666817980245305"><ele>1003.3333333333333</ele><time>2026-04-25T09:35:15Z</time></trkpt><trkpt lat="44.468007669558055" lon="8.666984044916683"><ele>1003.6666666666667</ele><time>2026-04-25T09:35:16Z</time></trkpt><trkpt lat="44.467909750959834" lon="8.667145056545296"><ele>1004.0</ele><time>2026-04-25T09:35:17Z</time></trkpt><trkpt lat="44.46781548454257" lon="8.667313767585133"><ele>1004.0</ele><time>2026-04-25T09:35:18Z</time></trkpt><trkpt lat="44.46773327581574" lon="8.667513484661725"><ele>1004.0</ele><time>2026-04-25T09:35:19Z</time></trkpt><trkpt lat="44.46766615798216" lon="8.667755790997768"><ele>1004.0</ele><time>2026-04-25T09:35:20Z</time></trkpt><trkpt lat="44.467609676436815" lon="8.668000793457853"><ele>999.6666666666667</ele><time>2026-04-25T09:35:21Z</time></trkpt><trkpt lat="44.46755477277318" lon="8.66823844172204"><ele>995.3333333333333</ele><time>2026-04-25T09:35:22Z</time></trkpt><trkpt lat="44.46748543212436" lon="8.668464521896547"><ele>991.0</ele><time>2026-04-25T09:35:23Z</time></trkpt><trkpt lat="44.46739931133737" lon="8.668688486175487"><ele>990.0</ele><time>2026-04-25T09:35:24Z</time></trkpt><trkpt lat="44.467296433397934" lon="8.66889783296366"><ele>989.0</ele><time>2026-04-25T09:35:25Z</time></trkpt><trkpt lat="44.46719318048975" lon="8.669097000112751"><ele>988.0</ele><time>2026-04-25T09:35:25.999Z</time></trkpt><trkpt lat="44.467100295750086" lon="8.669289668141884"><ele>985.0</ele><time>2026-04-25T09:35:26.999Z</time></trkpt><trkpt lat="44.46702002458667" lon="8.669461547581449"><ele>982.0</ele><time>2026-04-25T09:35:27.999Z</time></trkpt><trkpt lat="44.4669428840964" lon="8.669627355331555"><ele>979.0</ele><time>2026-04-25T09:35:28.999Z</time></trkpt><trkpt lat="44.466863491905805" lon="8.66979007431592"><ele>976.0</ele><time>2026-04-25T09:35:29.999Z</time></trkpt><trkpt lat="44.46678687811541" lon="8.669945198670115"><ele>976.0</ele><time>2026-04-25T09:35:31.001Z</time></trkpt><trkpt lat="44.46672075522242" lon="8.670088035592473"><ele>975.9999999999999</ele><time>2026-04-25T09:35:32.001Z</time></trkpt><trkpt lat="44.46666092577008" lon="8.670217680719505"><ele>975.9999999999999</ele><time>2026-04-25T09:35:33.001Z</time></trkpt><trkpt lat="44.466613678071255" lon="8.670330604195323"><ele>976.0</ele><time>2026-04-25T09:35:34.001Z</time></trkpt><trkpt lat="44.46658416991424" lon="8.670439489026151"><ele>976.0</ele><time>2026-04-25T09:35:35.001Z</time></trkpt><trkpt lat="44.46657526385881" lon="8.670558305261968"><ele>973.8333333333333</ele><time>2026-04-25T09:35:36.001Z</time></trkpt><trkpt lat="44.46659482917482" lon="8.670680682839254"><ele>971.6666666666666</ele><time>2026-04-25T09:35:37.001Z</time></trkpt><trkpt lat="44.466628981649656" lon="8.670795157238114"><ele>969.5</ele><time>2026-04-25T09:35:38.001Z</time></trkpt><trkpt lat="44.466677041338166" lon="8.670890099542921"><ele>967.3333333333333</ele><time>2026-04-25T09:35:39.001Z</time></trkpt><trkpt lat="44.466742098282886" lon="8.670967290592078"><ele>965.1666666666666</ele><time>2026-04-25T09:35:40.001Z</time></trkpt><trkpt lat="44.46682408157413" lon="8.671021933848703"><ele>963.0</ele><time>2026-04-25T09:35:41.001Z</time></trkpt><trkpt lat="44.466918922856486" lon="8.671049365936467"><ele>963.0</ele><time>2026-04-25T09:35:42.001Z</time></trkpt><trkpt lat="44.467028140692875" lon="8.67105648784126"><ele>963.0</ele><time>2026-04-25T09:35:43.001Z</time></trkpt><trkpt lat="44.46714352558844" lon="8.671033810688968"><ele>963.0</ele><time>2026-04-25T09:35:44.001Z</time></trkpt><trkpt lat="44.467256389741046" lon="8.670990323140947"><ele>963.0</ele><time>2026-04-25T09:35:45.001Z</time></trkpt><trkpt lat="44.467369021547796" lon="8.670937251389319"><ele>962.75</ele><time>2026-04-25T09:35:46.001Z</time></trkpt><trkpt lat="44.46747987768621" lon="8.670872336038768"><ele>962.5</ele><time>2026-04-25T09:35:47.001Z</time></trkpt><trkpt lat="44.46759504979039" lon="8.670811525213017"><ele>962.25</ele><time>2026-04-25T09:35:48.001Z</time></trkpt><trkpt lat="44.467716626210475" lon="8.670755736151746"><ele>962.0</ele><time>2026-04-25T09:35:49.001Z</time></trkpt><trkpt lat="44.46784671755501" lon="8.67069274927824"><ele>955.3333333333334</ele><time>2026-04-25T09:35:50.001Z</time></trkpt><trkpt lat="44.46799483416466" lon="8.670617540009067"><ele>948.6666666666667</ele><time>2026-04-25T09:35:51.001Z</time></trkpt><trkpt lat="44.4681482072444" lon="8.670543475826927"><ele>942.0</ele><time>2026-04-25T09:35:52.001Z</time></trkpt><trkpt lat="44.46830392443478" lon="8.670470662022733"><ele>942.0</ele><time>2026-04-25T09:35:53.001Z</time></trkpt><trkpt lat="44.46846809812262" lon="8.670389370647461"><ele>942.0</ele><time>2026-04-25T09:35:54.001Z</time></trkpt><trkpt lat="44.46862680383186" lon="8.670312333065848"><ele>942.0</ele><time>2026-04-25T09:35:55.001Z</time></trkpt><trkpt lat="44.46877994917555" lon="8.67023801283058"><ele>945.0</ele><time>2026-04-25T09:35:56Z</time></trkpt><trkpt lat="44.46893415829965" lon="8.670169258290132"><ele>948.0</ele><time>2026-04-25T09:35:57Z</time></trkpt><trkpt lat="44.46908524718384" lon="8.670095787852974"><ele>951.0</ele><time>2026-04-25T09:35:58Z</time></trkpt><trkpt lat="44.469229877842395" lon="8.670008899578809"><ele>951.0</ele><time>2026-04-25T09:35:59Z</time></trkpt><trkpt lat="44.4693650860369" lon="8.669905530774297"><ele>951.0</ele><time>2026-04-25T09:36:00Z</time></trkpt><trkpt lat="44.46949350242749" lon="8.669777695483905"><ele>951.0</ele><time>2026-04-25T09:36:01Z</time></trkpt><trkpt lat="44.46961275002777" lon="8.669653224951176"><ele>948.5999999999999</ele><time>2026-04-25T09:36:02Z</time></trkpt><trkpt lat="44.469721359702234" lon="8.669547981297821"><ele>946.1999999999999</ele><time>2026-04-25T09:36:03Z</time></trkpt><trkpt lat="44.46981258196773" lon="8.669459334848193"><ele>943.8000000000001</ele><time>2026-04-25T09:36:04Z</time></trkpt><trkpt lat="44.469900029695346" lon="8.66939294219504"><ele>941.4000000000001</ele><time>2026-04-25T09:36:05Z</time></trkpt><trkpt lat="44.46999767716493" lon="8.669343726845037"><ele>939.0</ele><time>2026-04-25T09:36:06Z</time></trkpt><trkpt lat="44.47010544352154" lon="8.669313079277979"><ele>939.0</ele><time>2026-04-25T09:36:07Z</time></trkpt><trkpt lat="44.47022871385168" lon="8.669300279945567"><ele>939.0</ele><time>2026-04-25T09:36:08Z</time></trkpt><trkpt lat="44.4703721494148" lon="8.669307609771076"><ele>939.0</ele><time>2026-04-25T09:36:09Z</time></trkpt><trkpt lat="44.47054118163753" lon="8.669322028240362"><ele>939.0</ele><time>2026-04-25T09:36:10Z</time></trkpt><trkpt lat="44.470738465073396" lon="8.669337856527864"><ele>939.0</ele><time>2026-04-25T09:36:11Z</time></trkpt><trkpt lat="44.47093835096361" lon="8.669352882710488"><ele>939.0</ele><time>2026-04-25T09:36:12Z</time></trkpt><trkpt lat="44.47114595683696" lon="8.669366305935025"><ele>939.0</ele><time>2026-04-25T09:36:13Z</time></trkpt><trkpt lat="44.47137404947266" lon="8.669380416893432"><ele>939.0</ele><time>2026-04-25T09:36:14Z</time></trkpt><trkpt lat="44.47161255639366" lon="8.669396344235144"><ele>939.0</ele><time>2026-04-25T09:36:15Z</time></trkpt><trkpt lat="44.47184014233069" lon="8.66941079165354"><ele>939.0</ele><time>2026-04-25T09:36:16Z</time></trkpt><trkpt lat="44.47204646684288" lon="8.669423843446184"><ele>939.0</ele><time>2026-04-25T09:36:17Z</time></trkpt><trkpt lat="44.472233581687405" lon="8.669431765421418"><ele>939.0</ele><time>2026-04-25T09:36:18Z</time></trkpt><trkpt lat="44.47240995251077" lon="8.66944256939145"><ele>936.6666666666667</ele><time>2026-04-25T09:36:19Z</time></trkpt><trkpt lat="44.47257795301103" lon="8.66945940642363"><ele>934.3333333333334</ele><time>2026-04-25T09:36:20Z</time></trkpt><trkpt lat="44.47273974921794" lon="8.669471081089586"><ele>932.0</ele><time>2026-04-25T09:36:21Z</time></trkpt><trkpt lat="44.472900883381406" lon="8.669463909471723"><ele>932.6666666666667</ele><time>2026-04-25T09:36:22Z</time></trkpt><trkpt lat="44.47306816139644" lon="8.669431196372201"><ele>933.3333333333333</ele><time>2026-04-25T09:36:23Z</time></trkpt><trkpt lat="44.47323193687136" lon="8.669364292495484"><ele>934.0</ele><time>2026-04-25T09:36:24Z</time></trkpt><trkpt lat="44.47338604420277" lon="8.669264930373332"><ele>934.0</ele><time>2026-04-25T09:36:25Z</time></trkpt><trkpt lat="44.47352968456875" lon="8.669136842288255"><ele>934.0</ele><time>2026-04-25T09:36:26Z</time></trkpt><trkpt lat="44.473660119890354" lon="8.668981210606889"><ele>934.0</ele><time>2026-04-25T09:36:27Z</time></trkpt><trkpt lat="44.47377437549964" lon="8.66879569823064"><ele>937.0</ele><time>2026-04-25T09:36:28Z</time></trkpt><trkpt lat="44.47386418960217" lon="8.66860021626424"><ele>940.0</ele><time>2026-04-25T09:36:29Z</time></trkpt><trkpt lat="44.47393729465605" lon="8.6684276656577"><ele>943.0</ele><time>2026-04-25T09:36:30Z</time></trkpt><trkpt lat="44.474000616674" lon="8.668294797339032"><ele>946.0</ele><time>2026-04-25T09:36:31Z</time></trkpt><trkpt lat="44.47407136014562" lon="8.668172124106071"><ele>946.0</ele><time>2026-04-25T09:36:32Z</time></trkpt><trkpt lat="44.47416477365807" lon="8.668085850830806"><ele>946.0</ele><time>2026-04-25T09:36:33Z</time></trkpt><trkpt lat="44.474276341582986" lon="8.668050462488026"><ele>946.0</ele><time>2026-04-25T09:36:34Z</time></trkpt><trkpt lat="44.47440035325637" lon="8.668062401582153"><ele>946.0</ele><time>2026-04-25T09:36:35Z</time></trkpt><trkpt lat="44.474523241326985" lon="8.668146004253702"><ele>948.0</ele><time>2026-04-25T09:36:36Z</time></trkpt><trkpt lat="44.474669911569286" lon="8.668203457419201"><ele>950.0</ele><time>2026-04-25T09:36:37Z</time></trkpt><trkpt lat="44.474818052190706" lon="8.668285619850012"><ele>952.0</ele><time>2026-04-25T09:36:38Z</time></trkpt><trkpt lat="44.47498399794699" lon="8.668326160167483"><ele>952.0</ele><time>2026-04-25T09:36:39Z</time></trkpt><trkpt lat="44.47514529845596" lon="8.668330451227389"><ele>952.0</ele><time>2026-04-25T09:36:40Z</time></trkpt><trkpt lat="44.475302893895346" lon="8.668299296361978"><ele>952.0</ele><time>2026-04-25T09:36:41Z</time></trkpt><trkpt lat="44.47545871228196" lon="8.668236784514932"><ele>956.3333333333333</ele><time>2026-04-25T09:36:42Z</time></trkpt><trkpt lat="44.47560081479034" lon="8.668139966245386"><ele>960.6666666666667</ele><time>2026-04-25T09:36:43Z</time></trkpt><trkpt lat="44.47573716627483" lon="8.668016630476817"><ele>965.0</ele><time>2026-04-25T09:36:44Z</time></trkpt><trkpt lat="44.47587150464013" lon="8.667863348155718"><ele>960.0</ele><time>2026-04-25T09:36:45Z</time></trkpt><trkpt lat="44.47598695165577" lon="8.667711009088032"><ele>955.0</ele><time>2026-04-25T09:36:46Z</time></trkpt><trkpt lat="44.476093547632665" lon="8.667607752242915"><ele>950.0</ele><time>2026-04-25T09:36:47Z</time></trkpt><trkpt lat="44.47617535612111" lon="8.667496146508938"><ele>945.0</ele><time>2026-04-25T09:36:48Z</time></trkpt><trkpt lat="44.47625921097599" lon="8.667445068679028"><ele>947.5</ele><time>2026-04-25T09:36:49Z</time></trkpt><trkpt lat="44.4763340415978" lon="8.667448365915405"><ele>950.0</ele><time>2026-04-25T09:36:50Z</time></trkpt><trkpt lat="44.47639320828422" lon="8.667499713324766"><ele>952.5</ele><time>2026-04-25T09:36:51Z</time></trkpt><trkpt lat="44.47642659971426" lon="8.66759722341851"><ele>955.0</ele><time>2026-04-25T09:36:52Z</time></trkpt><trkpt lat="44.476432065376876" lon="8.667705341474054"><ele>957.5</ele><time>2026-04-25T09:36:53Z</time></trkpt><trkpt lat="44.47640072879565" lon="8.667809791602405"><ele>960.0</ele><time>2026-04-25T09:36:54Z</time></trkpt><trkpt lat="44.476321973667275" lon="8.667879154902508"><ele>961.25</ele><time>2026-04-25T09:36:55Z</time></trkpt><trkpt lat="44.47624960129688" lon="8.667982621411541"><ele>962.5</ele><time>2026-04-25T09:36:56Z</time></trkpt><trkpt lat="44.47614772691575" lon="8.66807859707879"><ele>963.75</ele><time>2026-04-25T09:36:57Z</time></trkpt><trkpt lat="44.476040302717145" lon="8.668197122661672"><ele>965.0</ele><time>2026-04-25T09:36:58Z</time></trkpt><trkpt lat="44.47592366337567" lon="8.668324297147445"><ele>965.0</ele><time>2026-04-25T09:36:59Z</time></trkpt><trkpt lat="44.47579682446463" lon="8.668462814428846"><ele>965.0</ele><time>2026-04-25T09:37:00Z</time></trkpt><trkpt lat="44.475666732311886" lon="8.66861184972462"><ele>965.0</ele><time>2026-04-25T09:37:01Z</time></trkpt><trkpt lat="44.47554161071168" lon="8.668758434572252"><ele>965.25</ele><time>2026-04-25T09:37:02Z</time></trkpt><trkpt lat="44.47542795500739" lon="8.668885912819317"><ele>965.5</ele><time>2026-04-25T09:37:03Z</time></trkpt><trkpt lat="44.47532948122792" lon="8.668998737644978"><ele>965.75</ele><time>2026-04-25T09:37:04Z</time></trkpt><trkpt lat="44.47524776192484" lon="8.669114762769107"><ele>966.0</ele><time>2026-04-25T09:37:05Z</time></trkpt><trkpt lat="44.47518054733298" lon="8.669245660462042"><ele>966.0</ele><time>2026-04-25T09:37:06Z</time></trkpt><trkpt lat="44.47512960756809" lon="8.669389208341602"><ele>966.0</ele><time>2026-04-25T09:37:07Z</time></trkpt><trkpt lat="44.47510365381878" lon="8.669541098176127"><ele>966.0</ele><time>2026-04-25T09:37:08Z</time></trkpt><trkpt lat="44.47510575922453" lon="8.669694614824884"><ele>966.0</ele><time>2026-04-25T09:37:09Z</time></trkpt><trkpt lat="44.47513535489026" lon="8.669855121355777"><ele>965.75</ele><time>2026-04-25T09:37:10Z</time></trkpt><trkpt lat="44.47519730613287" lon="8.670021866838782"><ele>965.5</ele><time>2026-04-25T09:37:11Z</time></trkpt><trkpt lat="44.475275500398965" lon="8.67019359119548"><ele>965.25</ele><time>2026-04-25T09:37:12Z</time></trkpt><trkpt lat="44.47536100305644" lon="8.670378095961967"><ele>965.0</ele><time>2026-04-25T09:37:13Z</time></trkpt><trkpt lat="44.47543997881169" lon="8.670569481611555"><ele>963.5</ele><time>2026-04-25T09:37:14Z</time></trkpt><trkpt lat="44.47552577730431" lon="8.670764139020317"><ele>962.0</ele><time>2026-04-25T09:37:15Z</time></trkpt><trkpt lat="44.475601010247665" lon="8.67094242912549"><ele>960.5</ele><time>2026-04-25T09:37:16Z</time></trkpt><trkpt lat="44.475670997209065" lon="8.671106187241497"><ele>959.0</ele><time>2026-04-25T09:37:17Z</time></trkpt><trkpt lat="44.475740624240395" lon="8.671246590186856"><ele>959.0</ele><time>2026-04-25T09:37:18Z</time></trkpt><trkpt lat="44.475821337432066" lon="8.671349582026442"><ele>959.0000000000001</ele><time>2026-04-25T09:37:19Z</time></trkpt><trkpt lat="44.47591154065468" lon="8.671432145307708"><ele>959.0000000000001</ele><time>2026-04-25T09:37:20Z</time></trkpt><trkpt lat="44.476013133445036" lon="8.671491938361363"><ele>959.0</ele><time>2026-04-25T09:37:21Z</time></trkpt><trkpt lat="44.47611957955857" lon="8.671545399955297"><ele>959.0</ele><time>2026-04-25T09:37:22Z</time></trkpt><trkpt lat="44.476229929911156" lon="8.671585368129971"><ele>962.1666666666667</ele><time>2026-04-25T09:37:22.999Z</time></trkpt><trkpt lat="44.4763269059882" lon="8.671636650693518"><ele>965.3333333333334</ele><time>2026-04-25T09:37:23.999Z</time></trkpt><trkpt lat="44.47641429542096" lon="8.671670748021937"><ele>968.5</ele><time>2026-04-25T09:37:24.999Z</time></trkpt><trkpt lat="44.476477862733184" lon="8.671689025786156"><ele>971.6666666666667</ele><time>2026-04-25T09:37:25.999Z</time></trkpt><trkpt lat="44.47655781275271" lon="8.671684897937096"><ele>974.8333333333334</ele><time>2026-04-25T09:38:02Z</time></trkpt><trkpt lat="44.476629442788244" lon="8.671686771446375"><ele>978.0</ele><time>2026-04-25T09:38:03Z</time></trkpt><trkpt lat="44.47669773028048" lon="8.671691136084366"><ele>978.0</ele><time>2026-04-25T09:38:04Z</time></trkpt><trkpt lat="44.476812632105506" lon="8.671656519399008"><ele>978.0</ele><time>2026-04-25T09:38:05Z</time></trkpt><trkpt lat="44.476940157994136" lon="8.67162064574895"><ele>978.0</ele><time>2026-04-25T09:38:06Z</time></trkpt><trkpt lat="44.4770610118664" lon="8.671599021827486"><ele>978.0</ele><time>2026-04-25T09:38:07Z</time></trkpt><trkpt lat="44.477159387304525" lon="8.671610918665335"><ele>980.2</ele><time>2026-04-25T09:38:08Z</time></trkpt><trkpt lat="44.4772191479564" lon="8.671643769814821"><ele>982.4</ele><time>2026-04-25T09:38:09Z</time></trkpt><trkpt lat="44.4772728517083" lon="8.671720401353264"><ele>984.6000000000001</ele><time>2026-04-25T09:38:10Z</time></trkpt><trkpt lat="44.477348624518804" lon="8.671824623805561"><ele>986.8000000000001</ele><time>2026-04-25T09:38:11Z</time></trkpt><trkpt lat="44.47743179372879" lon="8.671889093819415"><ele>989.0</ele><time>2026-04-25T09:38:12Z</time></trkpt><trkpt lat="44.47754369681248" lon="8.671994076013398"><ele>982.75</ele><time>2026-04-25T09:38:13Z</time></trkpt><trkpt lat="44.477669432358624" lon="8.672045058633673"><ele>976.5</ele><time>2026-04-25T09:38:14Z</time></trkpt><trkpt lat="44.477814566574956" lon="8.6720692010684"><ele>970.25</ele><time>2026-04-25T09:38:15Z</time></trkpt><trkpt lat="44.47797379695988" lon="8.672095962151564"><ele>964.0</ele><time>2026-04-25T09:38:16Z</time></trkpt><trkpt lat="44.47809584035304" lon="8.672153472914301"><ele>964.0</ele><time>2026-04-25T09:38:17Z</time></trkpt><trkpt lat="44.47818934364221" lon="8.672219611635567"><ele>964.0</ele><time>2026-04-25T09:38:18Z</time></trkpt><trkpt lat="44.47832287825499" lon="8.672315000227508"><ele>964.0</ele><time>2026-04-25T09:38:19Z</time></trkpt><trkpt lat="44.478451117103674" lon="8.672422024876257"><ele>964.0</ele><time>2026-04-25T09:38:20Z</time></trkpt><trkpt lat="44.47855901953547" lon="8.672526451376525"><ele>964.0</ele><time>2026-04-25T09:38:21Z</time></trkpt><trkpt lat="44.47867237259604" lon="8.672652322931084"><ele>964.0</ele><time>2026-04-25T09:38:22Z</time></trkpt><trkpt lat="44.47876585596724" lon="8.672771432939141"><ele>964.0</ele><time>2026-04-25T09:38:23Z</time></trkpt><trkpt lat="44.47885136623224" lon="8.67289421962647"><ele>964.0</ele><time>2026-04-25T09:38:24Z</time></trkpt><trkpt lat="44.47891734315959" lon="8.673021931091737"><ele>961.5</ele><time>2026-04-25T09:38:25Z</time></trkpt><trkpt lat="44.47896134399621" lon="8.67318013002899"><ele>959.0</ele><time>2026-04-25T09:38:26Z</time></trkpt><trkpt lat="44.478951524205755" lon="8.673351828256656"><ele>956.5</ele><time>2026-04-25T09:38:27Z</time></trkpt><trkpt lat="44.47896368120006" lon="8.673529140415148"><ele>954.0</ele><time>2026-04-25T09:38:28Z</time></trkpt><trkpt lat="44.47899556423267" lon="8.673687905125817"><ele>954.0</ele><time>2026-04-25T09:38:29Z</time></trkpt><trkpt lat="44.479046261747705" lon="8.673837570013985"><ele>954.0</ele><time>2026-04-25T09:38:30Z</time></trkpt><trkpt lat="44.479129290341604" lon="8.673973606233957"><ele>954.0</ele><time>2026-04-25T09:38:31Z</time></trkpt><trkpt lat="44.47923734306941" lon="8.674093419599505"><ele>954.0</ele><time>2026-04-25T09:38:32Z</time></trkpt><trkpt lat="44.4793442065397" lon="8.674195263860787"><ele>954.0</ele><time>2026-04-25T09:38:33Z</time></trkpt><trkpt lat="44.479421103892946" lon="8.67434115834345"><ele>954.0000000000001</ele><time>2026-04-25T09:38:34Z</time></trkpt><trkpt lat="44.479463993704485" lon="8.674467852071283"><ele>954.0000000000001</ele><time>2026-04-25T09:38:35Z</time></trkpt><trkpt lat="44.4794527154015" lon="8.674641646600259"><ele>954.0</ele><time>2026-04-25T09:38:36Z</time></trkpt><trkpt lat="44.47942224718784" lon="8.674765250345285"><ele>954.0</ele><time>2026-04-25T09:38:37Z</time></trkpt><trkpt lat="44.479360777809816" lon="8.674888366985883"><ele>951.2</ele><time>2026-04-25T09:38:38Z</time></trkpt><trkpt lat="44.47927516044328" lon="8.674994273783929"><ele>948.4000000000001</ele><time>2026-04-25T09:38:39Z</time></trkpt><trkpt lat="44.479212926273455" lon="8.67511671829049"><ele>945.6</ele><time>2026-04-25T09:38:40Z</time></trkpt><trkpt lat="44.47918734170593" lon="8.675265102680072"><ele>942.8</ele><time>2026-04-25T09:38:41Z</time></trkpt><trkpt lat="44.479192495367755" lon="8.67540775847519"><ele>940.0</ele><time>2026-04-25T09:38:42Z</time></trkpt><trkpt lat="44.47922698165127" lon="8.67554240950872"><ele>939.0</ele><time>2026-04-25T09:38:43Z</time></trkpt><trkpt lat="44.479291108143144" lon="8.675652278589403"><ele>938.0</ele><time>2026-04-25T09:38:44Z</time></trkpt><trkpt lat="44.479347758737674" lon="8.675758762887375"><ele>937.0</ele><time>2026-04-25T09:38:45Z</time></trkpt><trkpt lat="44.47940492531617" lon="8.675884011668396"><ele>936.0</ele><time>2026-04-25T09:38:46Z</time></trkpt><trkpt lat="44.479451553843084" lon="8.676033758840184"><ele>935.0</ele><time>2026-04-25T09:38:47Z</time></trkpt><trkpt lat="44.47945871719895" lon="8.676199339604118"><ele>931.5</ele><time>2026-04-25T09:38:48Z</time></trkpt><trkpt lat="44.479439219520444" lon="8.676364433511843"><ele>928.0</ele><time>2026-04-25T09:38:49Z</time></trkpt><trkpt lat="44.47941817896694" lon="8.676553142830945"><ele>924.5</ele><time>2026-04-25T09:38:50Z</time></trkpt><trkpt lat="44.4794023422326" lon="8.676780361602882"><ele>921.0</ele><time>2026-04-25T09:38:51Z</time></trkpt><trkpt lat="44.479383263374885" lon="8.677007537215914"><ele>919.5</ele><time>2026-04-25T09:38:52Z</time></trkpt><trkpt lat="44.47936599144282" lon="8.677213202845731"><ele>918.0</ele><time>2026-04-25T09:38:53Z</time></trkpt><trkpt lat="44.47934767641017" lon="8.67741193481166"><ele>916.5</ele><time>2026-04-25T09:38:54Z</time></trkpt><trkpt lat="44.47934032165771" lon="8.677597114028472"><ele>915.0</ele><time>2026-04-25T09:38:55Z</time></trkpt><trkpt lat="44.47936607538062" lon="8.677749495527735"><ele>917.25</ele><time>2026-04-25T09:38:56Z</time></trkpt><trkpt lat="44.47941838702693" lon="8.677883658214693"><ele>919.5</ele><time>2026-04-25T09:38:57Z</time></trkpt><trkpt lat="44.47949080999873" lon="8.678003787169564"><ele>921.75</ele><time>2026-04-25T09:38:58Z</time></trkpt><trkpt lat="44.47959658610055" lon="8.678090380774767"><ele>924.0</ele><time>2026-04-25T09:38:59Z</time></trkpt><trkpt lat="44.47973586633719" lon="8.678162257818467"><ele>924.0</ele><time>2026-04-25T09:39:00Z</time></trkpt><trkpt lat="44.47989082953006" lon="8.678259201718925"><ele>924.0</ele><time>2026-04-25T09:39:01Z</time></trkpt><trkpt lat="44.48003638856432" lon="8.678354943748502"><ele>924.0</ele><time>2026-04-25T09:39:02Z</time></trkpt><trkpt lat="44.480156031336584" lon="8.678503183417357"><ele>928.6666666666667</ele><time>2026-04-25T09:39:03Z</time></trkpt><trkpt lat="44.48026319654724" lon="8.678667030111235"><ele>933.3333333333334</ele><time>2026-04-25T09:39:04Z</time></trkpt><trkpt lat="44.4803664140556" lon="8.678846175658192"><ele>938.0</ele><time>2026-04-25T09:39:05Z</time></trkpt><trkpt lat="44.48046518553763" lon="8.679023787795698"><ele>938.0</ele><time>2026-04-25T09:39:06Z</time></trkpt><trkpt lat="44.480532744540085" lon="8.679178261418622"><ele>938.0</ele><time>2026-04-25T09:39:07Z</time></trkpt><trkpt lat="44.48057269302321" lon="8.679304862909591"><ele>938.0</ele><time>2026-04-25T09:39:08Z</time></trkpt><trkpt lat="44.48055918340316" lon="8.679530564659958"><ele>938.0</ele><time>2026-04-25T09:39:09Z</time></trkpt><trkpt lat="44.480558050422374" lon="8.679734005555837"><ele>933.5</ele><time>2026-04-25T09:39:10Z</time></trkpt><trkpt lat="44.480561435808674" lon="8.67994476676776"><ele>929.0</ele><time>2026-04-25T09:39:11Z</time></trkpt><trkpt lat="44.480589243507474" lon="8.680126310304358"><ele>924.5</ele><time>2026-04-25T09:39:12Z</time></trkpt><trkpt lat="44.48064447017396" lon="8.68028704799197"><ele>920.0</ele><time>2026-04-25T09:39:13Z</time></trkpt><trkpt lat="44.48072507587879" lon="8.68039401125199"><ele>912.75</ele><time>2026-04-25T09:39:14Z</time></trkpt><trkpt lat="44.480826898321055" lon="8.680468333752177"><ele>905.5</ele><time>2026-04-25T09:39:15Z</time></trkpt><trkpt lat="44.480948210044915" lon="8.68051705408634"><ele>898.25</ele><time>2026-04-25T09:39:16Z</time></trkpt><trkpt lat="44.481090230522284" lon="8.680578498454995"><ele>891.0</ele><time>2026-04-25T09:39:17Z</time></trkpt><trkpt lat="44.48120118687507" lon="8.680688561075163"><ele>892.25</ele><time>2026-04-25T09:39:18Z</time></trkpt><trkpt lat="44.481298097934825" lon="8.680828637826915"><ele>893.5</ele><time>2026-04-25T09:39:19Z</time></trkpt><trkpt lat="44.48137379107541" lon="8.680993061201413"><ele>894.75</ele><time>2026-04-25T09:39:19.999Z</time></trkpt><trkpt lat="44.48140899467334" lon="8.681176113571398"><ele>896.0</ele><time>2026-04-25T09:39:20.999Z</time></trkpt><trkpt lat="44.48145140255804" lon="8.681382153301671"><ele>896.0</ele><time>2026-04-25T09:39:21.999Z</time></trkpt><trkpt lat="44.48150848953294" lon="8.681612576612364"><ele>896.0</ele><time>2026-04-25T09:39:22.999Z</time></trkpt><trkpt lat="44.4815538412979" lon="8.681862109636583"><ele>896.0</ele><time>2026-04-25T09:39:23.999Z</time></trkpt><trkpt lat="44.48160953272807" lon="8.682105419640882"><ele>891.0</ele><time>2026-04-25T09:39:24.999Z</time></trkpt><trkpt lat="44.48165433253242" lon="8.682329509999958"><ele>886.0</ele><time>2026-04-25T09:39:25.999Z</time></trkpt><trkpt lat="44.481683684367546" lon="8.68252768842428"><ele>881.0</ele><time>2026-04-25T09:39:26.999Z</time></trkpt><trkpt lat="44.48168911803187" lon="8.682724331991789"><ele>879.75</ele><time>2026-04-25T09:39:27.999Z</time></trkpt><trkpt lat="44.48164628798886" lon="8.682920351027796"><ele>878.5</ele><time>2026-04-25T09:39:28.999Z</time></trkpt><trkpt lat="44.48163158529617" lon="8.68310605336249"><ele>877.25</ele><time>2026-04-25T09:39:29.999Z</time></trkpt><trkpt lat="44.48162455628264" lon="8.683276000002493"><ele>876.0</ele><time>2026-04-25T09:39:30.999Z</time></trkpt><trkpt lat="44.48164517561957" lon="8.6834494166924"><ele>871.3333333333333</ele><time>2026-04-25T09:39:31.999Z</time></trkpt><trkpt lat="44.48169411395137" lon="8.683629670337098"><ele>866.6666666666666</ele><time>2026-04-25T09:39:32.999Z</time></trkpt><trkpt lat="44.4817673290279" lon="8.683815370234894"><ele>862.0</ele><time>2026-04-25T09:39:33.999Z</time></trkpt><trkpt lat="44.48185165870708" lon="8.684018508570471"><ele>862.0</ele><time>2026-04-25T09:39:34.999Z</time></trkpt><trkpt lat="44.48194263034391" lon="8.684218590535295"><ele>862.0</ele><time>2026-04-25T09:39:35.999Z</time></trkpt><trkpt lat="44.482044739802944" lon="8.684408435852593"><ele>862.0</ele><time>2026-04-25T09:39:36.999Z</time></trkpt><trkpt lat="44.4821718559049" lon="8.684585295940513"><ele>866.3333333333333</ele><time>2026-04-25T09:39:37.999Z</time></trkpt><trkpt lat="44.48230432965646" lon="8.684758879844372"><ele>870.6666666666667</ele><time>2026-04-25T09:39:38.999Z</time></trkpt><trkpt lat="44.48243161833991" lon="8.684927901259288"><ele>875.0</ele><time>2026-04-25T09:39:39.999Z</time></trkpt><trkpt lat="44.48254974522637" lon="8.685090856346973"><ele>875.0</ele><time>2026-04-25T09:39:40.999Z</time></trkpt><trkpt lat="44.482651736067766" lon="8.685242875945853"><ele>875.0</ele><time>2026-04-25T09:39:41.999Z</time></trkpt><trkpt lat="44.48274439397993" lon="8.685375280902036"><ele>875.0</ele><time>2026-04-25T09:39:43.001Z</time></trkpt><trkpt lat="44.482830001404686" lon="8.6854937187638"><ele>875.0</ele><time>2026-04-25T09:39:44.001Z</time></trkpt><trkpt lat="44.4828969288899" lon="8.685629087423374"><ele>869.75</ele><time>2026-04-25T09:39:45.001Z</time></trkpt><trkpt lat="44.48292242025818" lon="8.6857831915461"><ele>864.5</ele><time>2026-04-25T09:39:46.001Z</time></trkpt><trkpt lat="44.48292258100094" lon="8.685940965362027"><ele>859.25</ele><time>2026-04-25T09:39:47.001Z</time></trkpt><trkpt lat="44.48288882857893" lon="8.686094049201486"><ele>854.0</ele><time>2026-04-25T09:39:48.001Z</time></trkpt><trkpt lat="44.48280769005697" lon="8.686241322227598"><ele>854.0</ele><time>2026-04-25T09:39:49.001Z</time></trkpt><trkpt lat="44.48272784890515" lon="8.68641859627833"><ele>854.0</ele><time>2026-04-25T09:39:50.001Z</time></trkpt><trkpt lat="44.48260855376312" lon="8.686605419104888"><ele>854.0</ele><time>2026-04-25T09:39:51.001Z</time></trkpt><trkpt lat="44.48253027906553" lon="8.686764935062797"><ele>854.0</ele><time>2026-04-25T09:39:52.001Z</time></trkpt><trkpt lat="44.482471211582414" lon="8.686910482193094"><ele>854.0</ele><time>2026-04-25T09:39:53.001Z</time></trkpt><trkpt lat="44.48244442652155" lon="8.687069737051539"><ele>854.0</ele><time>2026-04-25T09:39:54.001Z</time></trkpt><trkpt lat="44.48244238191368" lon="8.687239020177394"><ele>854.0</ele><time>2026-04-25T09:39:55.001Z</time></trkpt><trkpt lat="44.48246627410024" lon="8.68740694570234"><ele>853.25</ele><time>2026-04-25T09:39:56.001Z</time></trkpt><trkpt lat="44.48252212527702" lon="8.687580912538186"><ele>852.5</ele><time>2026-04-25T09:39:57Z</time></trkpt><trkpt lat="44.482598489890705" lon="8.687749659732312"><ele>851.75</ele><time>2026-04-25T09:39:58Z</time></trkpt><trkpt lat="44.48267961564087" lon="8.687908711544345"><ele>851.0</ele><time>2026-04-25T09:39:59Z</time></trkpt><trkpt lat="44.482737542790254" lon="8.688059694571946"><ele>851.0</ele><time>2026-04-25T09:40:00Z</time></trkpt><trkpt lat="44.48276835873026" lon="8.688205838351955"><ele>851.0</ele><time>2026-04-25T09:40:01Z</time></trkpt><trkpt lat="44.482760612726885" lon="8.688359393678903"><ele>851.0</ele><time>2026-04-25T09:40:02Z</time></trkpt><trkpt lat="44.48270796408378" lon="8.688493047262748"><ele>851.0</ele><time>2026-04-25T09:40:03Z</time></trkpt><trkpt lat="44.48263982393044" lon="8.68861105914344"><ele>851.0</ele><time>2026-04-25T09:40:04Z</time></trkpt><trkpt lat="44.48254726918628" lon="8.688786152841162"><ele>853.5</ele><time>2026-04-25T09:40:05Z</time></trkpt><trkpt lat="44.48249424844127" lon="8.689004428984715"><ele>856.0</ele><time>2026-04-25T09:40:06Z</time></trkpt><trkpt lat="44.48247493619976" lon="8.689173318098243"><ele>858.5</ele><time>2026-04-25T09:40:07Z</time></trkpt><trkpt lat="44.48241781300068" lon="8.689369969587108"><ele>861.0</ele><time>2026-04-25T09:40:08Z</time></trkpt><trkpt lat="44.4823720532466" lon="8.689558414953297"><ele>864.25</ele><time>2026-04-25T09:40:09Z</time></trkpt><trkpt lat="44.48231213918753" lon="8.689717793165006"><ele>867.5</ele><time>2026-04-25T09:40:10Z</time></trkpt><trkpt lat="44.48221712387695" lon="8.689843461316368"><ele>870.75</ele><time>2026-04-25T09:40:11Z</time></trkpt><trkpt lat="44.482096364721166" lon="8.689959702790865"><ele>874.0</ele><time>2026-04-25T09:40:12Z</time></trkpt><trkpt lat="44.48198036571894" lon="8.690100134018302"><ele>866.0</ele><time>2026-04-25T09:40:13Z</time></trkpt><trkpt lat="44.48186091303447" lon="8.690214269648312"><ele>858.0</ele><time>2026-04-25T09:40:14Z</time></trkpt><trkpt lat="44.48175715854311" lon="8.690338716465474"><ele>850.0</ele><time>2026-04-25T09:40:15Z</time></trkpt><trkpt lat="44.48167255760247" lon="8.690484190206968"><ele>842.0</ele><time>2026-04-25T09:40:16Z</time></trkpt><trkpt lat="44.481611819378415" lon="8.690653130485071"><ele>842.0</ele><time>2026-04-25T09:40:17Z</time></trkpt><trkpt lat="44.48157950902819" lon="8.690837211833998"><ele>842.0</ele><time>2026-04-25T09:40:18Z</time></trkpt><trkpt lat="44.48157117483541" lon="8.691029341357812"><ele>842.0</ele><time>2026-04-25T09:40:19Z</time></trkpt><trkpt lat="44.48160038577347" lon="8.691228100678067"><ele>842.0</ele><time>2026-04-25T09:40:20Z</time></trkpt><trkpt lat="44.48164966711678" lon="8.691421816229214"><ele>838.0</ele><time>2026-04-25T09:40:21Z</time></trkpt><trkpt lat="44.481736361342186" lon="8.69162732150349"><ele>834.0</ele><time>2026-04-25T09:40:22Z</time></trkpt><trkpt lat="44.48183213113292" lon="8.691852987306705"><ele>830.0</ele><time>2026-04-25T09:40:23Z</time></trkpt><trkpt lat="44.48188262551633" lon="8.692095782711062"><ele>824.0</ele><time>2026-04-25T09:40:24Z</time></trkpt><trkpt lat="44.481950323643325" lon="8.69231384279607"><ele>818.0</ele><time>2026-04-25T09:40:25Z</time></trkpt><trkpt lat="44.48200765409097" lon="8.692531815479537"><ele>812.0</ele><time>2026-04-25T09:40:26Z</time></trkpt><trkpt lat="44.48207618834797" lon="8.692731966970229"><ele>818.6666666666667</ele><time>2026-04-25T09:40:27Z</time></trkpt><trkpt lat="44.48216836482728" lon="8.692915912074964"><ele>825.3333333333333</ele><time>2026-04-25T09:40:28Z</time></trkpt><trkpt lat="44.48228495478539" lon="8.693082064801647"><ele>832.0</ele><time>2026-04-25T09:40:29Z</time></trkpt><trkpt lat="44.482414117996875" lon="8.693236333689836"><ele>832.0</ele><time>2026-04-25T09:40:30Z</time></trkpt><trkpt lat="44.482535316923574" lon="8.693388012757346"><ele>832.0</ele><time>2026-04-25T09:40:31Z</time></trkpt><trkpt lat="44.48263007744411" lon="8.693545392659624"><ele>832.0</ele><time>2026-04-25T09:40:32Z</time></trkpt><trkpt lat="44.48272157467799" lon="8.693648085608693"><ele>832.0</ele><time>2026-04-25T09:40:33Z</time></trkpt><trkpt lat="44.482771718682294" lon="8.69376299692539"><ele>829.8</ele><time>2026-04-25T09:40:34Z</time></trkpt><trkpt lat="44.48279248637887" lon="8.69389106890622"><ele>827.6</ele><time>2026-04-25T09:40:35Z</time></trkpt><trkpt lat="44.48276688575577" lon="8.694035613991828"><ele>825.4</ele><time>2026-04-25T09:40:36Z</time></trkpt><trkpt lat="44.48270670724731" lon="8.694175246949957"><ele>823.1999999999999</ele><time>2026-04-25T09:40:37Z</time></trkpt><trkpt lat="44.48259327540842" lon="8.694269155476876"><ele>821.0</ele><time>2026-04-25T09:40:38Z</time></trkpt><trkpt lat="44.48248053800687" lon="8.694411331803472"><ele>823.3333333333334</ele><time>2026-04-25T09:40:39Z</time></trkpt><trkpt lat="44.4823359561353" lon="8.694548243120199"><ele>825.6666666666667</ele><time>2026-04-25T09:40:40Z</time></trkpt><trkpt lat="44.48220177670425" lon="8.694689947596505"><ele>828.0</ele><time>2026-04-25T09:40:41Z</time></trkpt><trkpt lat="44.4820751205245" lon="8.694823635783678"><ele>821.5</ele><time>2026-04-25T09:40:42Z</time></trkpt><trkpt lat="44.48194995335653" lon="8.694944761121635"><ele>815.0</ele><time>2026-04-25T09:40:43Z</time></trkpt><trkpt lat="44.481825926821934" lon="8.695054693077239"><ele>808.5</ele><time>2026-04-25T09:40:44Z</time></trkpt><trkpt lat="44.48171572285853" lon="8.695145686424544"><ele>802.0</ele><time>2026-04-25T09:40:45Z</time></trkpt><trkpt lat="44.48161065595428" lon="8.695240569509663"><ele>799.0</ele><time>2026-04-25T09:40:46Z</time></trkpt><trkpt lat="44.48150245265011" lon="8.695339978672447"><ele>796.0</ele><time>2026-04-25T09:40:47Z</time></trkpt><trkpt lat="44.48140493982492" lon="8.695441000858967"><ele>793.0</ele><time>2026-04-25T09:40:48Z</time></trkpt><trkpt lat="44.48131336247202" lon="8.695550136539342"><ele>790.0</ele><time>2026-04-25T09:40:49Z</time></trkpt><trkpt lat="44.48122389653321" lon="8.695665895133343"><ele>790.0</ele><time>2026-04-25T09:40:50Z</time></trkpt><trkpt lat="44.48113790877148" lon="8.695781468388095"><ele>790.0</ele><time>2026-04-25T09:40:51Z</time></trkpt><trkpt lat="44.48105418714442" lon="8.69590169312833"><ele>790.0</ele><time>2026-04-25T09:40:52Z</time></trkpt><trkpt lat="44.48098102833789" lon="8.696031462501637"><ele>790.0</ele><time>2026-04-25T09:40:53Z</time></trkpt><trkpt lat="44.48092171135966" lon="8.696178136450854"><ele>792.5</ele><time>2026-04-25T09:40:54Z</time></trkpt><trkpt lat="44.48087585310768" lon="8.696331328163065"><ele>795.0</ele><time>2026-04-25T09:40:55Z</time></trkpt><trkpt lat="44.48084042530743" lon="8.696486428548774"><ele>797.5</ele><time>2026-04-25T09:40:56Z</time></trkpt><trkpt lat="44.48081478075309" lon="8.696641590593805"><ele>800.0</ele><time>2026-04-25T09:40:57Z</time></trkpt><trkpt lat="44.48081362987551" lon="8.696793269154249"><ele>799.8</ele><time>2026-04-25T09:40:58Z</time></trkpt><trkpt lat="44.48083437696481" lon="8.696939094719768"><ele>799.6</ele><time>2026-04-25T09:40:59Z</time></trkpt><trkpt lat="44.480861326731805" lon="8.697080061936543"><ele>799.4000000000001</ele><time>2026-04-25T09:41:00Z</time></trkpt><trkpt lat="44.480873931896724" lon="8.697226259828659"><ele>799.2</ele><time>2026-04-25T09:41:01Z</time></trkpt><trkpt lat="44.48085776591294" lon="8.697380194234773"><ele>799.0</ele><time>2026-04-25T09:41:02Z</time></trkpt><trkpt lat="44.48079439587572" lon="8.69751984079096"><ele>799.0</ele><time>2026-04-25T09:41:03Z</time></trkpt><trkpt lat="44.48072130710233" lon="8.697651031459909"><ele>799.0</ele><time>2026-04-25T09:41:04Z</time></trkpt><trkpt lat="44.480654549038434" lon="8.697794371153657"><ele>799.0</ele><time>2026-04-25T09:41:05Z</time></trkpt><trkpt lat="44.48058038584208" lon="8.697929661733948"><ele>799.0</ele><time>2026-04-25T09:41:06Z</time></trkpt><trkpt lat="44.48050859258474" lon="8.698063895482367"><ele>798.4000000000001</ele><time>2026-04-25T09:41:07Z</time></trkpt><trkpt lat="44.480450720486445" lon="8.698201726673263"><ele>797.8</ele><time>2026-04-25T09:41:08Z</time></trkpt><trkpt lat="44.480428753590466" lon="8.69835750562152"><ele>797.2</ele><time>2026-04-25T09:41:09Z</time></trkpt><trkpt lat="44.48044234374901" lon="8.698515967134224"><ele>796.5999999999999</ele><time>2026-04-25T09:41:10Z</time></trkpt><trkpt lat="44.48048771909589" lon="8.698653157829224"><ele>796.0</ele><time>2026-04-25T09:41:11Z</time></trkpt><trkpt lat="44.48056560951679" lon="8.69876391407638"><ele>792.25</ele><time>2026-04-25T09:41:12Z</time></trkpt><trkpt lat="44.48066316392807" lon="8.698864959266237"><ele>788.5</ele><time>2026-04-25T09:41:12.999Z</time></trkpt><trkpt lat="44.480768154989924" lon="8.698959668216405"><ele>784.75</ele><time>2026-04-25T09:41:13.999Z</time></trkpt><trkpt lat="44.480856557188964" lon="8.699062763656803"><ele>781.0</ele><time>2026-04-25T09:41:14.999Z</time></trkpt><trkpt lat="44.48091697146717" lon="8.699195025838845"><ele>781.0</ele><time>2026-04-25T09:41:15.999Z</time></trkpt><trkpt lat="44.48095768148316" lon="8.699343297941175"><ele>781.0</ele><time>2026-04-25T09:41:16.999Z</time></trkpt><trkpt lat="44.480961244858676" lon="8.699498617826162"><ele>781.0</ele><time>2026-04-25T09:41:17.999Z</time></trkpt><trkpt lat="44.48091244949686" lon="8.699641737701647"><ele>781.0</ele><time>2026-04-25T09:41:18.999Z</time></trkpt><trkpt lat="44.48087617930084" lon="8.699789682607632"><ele>781.0</ele><time>2026-04-25T09:41:19.999Z</time></trkpt><trkpt lat="44.48083403317515" lon="8.699930705678366"><ele>778.25</ele><time>2026-04-25T09:41:20.999Z</time></trkpt><trkpt lat="44.48082731447655" lon="8.7000818706119"><ele>775.5</ele><time>2026-04-25T09:41:21.999Z</time></trkpt><trkpt lat="44.48085359919452" lon="8.700255225510581"><ele>772.75</ele><time>2026-04-25T09:41:22.999Z</time></trkpt><trkpt lat="44.480907415906266" lon="8.700437658678311"><ele>770.0</ele><time>2026-04-25T09:41:23.999Z</time></trkpt><trkpt lat="44.48097303853219" lon="8.700619603392516"><ele>768.6666666666667</ele><time>2026-04-25T09:41:24.999Z</time></trkpt><trkpt lat="44.480992684315055" lon="8.70082233633116"><ele>767.3333333333334</ele><time>2026-04-25T09:41:25.999Z</time></trkpt><trkpt lat="44.48100736356651" lon="8.701021441573516"><ele>766.0</ele><time>2026-04-25T09:41:26.999Z</time></trkpt><trkpt lat="44.48100919470645" lon="8.701257498321615"><ele>764.6666666666667</ele><time>2026-04-25T09:41:27.999Z</time></trkpt><trkpt lat="44.4810039238858" lon="8.701516016754033"><ele>763.3333333333334</ele><time>2026-04-25T09:41:28.999Z</time></trkpt><trkpt lat="44.4810065455287" lon="8.701750749219832"><ele>762.0</ele><time>2026-04-25T09:41:29.999Z</time></trkpt><trkpt lat="44.4810010955438" lon="8.701944670483897"><ele>762.0</ele><time>2026-04-25T09:41:30.999Z</time></trkpt><trkpt lat="44.48098164692556" lon="8.702122595114309"><ele>762.0</ele><time>2026-04-25T09:41:31.999Z</time></trkpt><trkpt lat="44.48093298580195" lon="8.702275275756044"><ele>762.0</ele><time>2026-04-25T09:41:32.999Z</time></trkpt><trkpt lat="44.4808637093731" lon="8.702408123440492"><ele>762.0</ele><time>2026-04-25T09:41:33.999Z</time></trkpt><trkpt lat="44.48077646478134" lon="8.702529783979484"><ele>762.0</ele><time>2026-04-25T09:41:34.999Z</time></trkpt><trkpt lat="44.480683816753064" lon="8.702643833014548"><ele>762.0</ele><time>2026-04-25T09:41:35.999Z</time></trkpt><trkpt lat="44.48060357111101" lon="8.702769802585545"><ele>762.0</ele><time>2026-04-25T09:41:36.999Z</time></trkpt><trkpt lat="44.48054019535176" lon="8.70289690653644"><ele>762.0</ele><time>2026-04-25T09:41:37.999Z</time></trkpt><trkpt lat="44.480490117976565" lon="8.703024437100161"><ele>764.0</ele><time>2026-04-25T09:41:38.999Z</time></trkpt><trkpt lat="44.480468744926576" lon="8.703145552629794"><ele>766.0</ele><time>2026-04-25T09:41:39.999Z</time></trkpt><trkpt lat="44.48048065427462" lon="8.703293281257896"><ele>768.0</ele><time>2026-04-25T09:41:40.999Z</time></trkpt><trkpt lat="44.48044311962045" lon="8.703428336102569"><ele>770.0</ele><time>2026-04-25T09:41:41.999Z</time></trkpt><trkpt lat="44.48036067944547" lon="8.703543467383259"><ele>772.0</ele><time>2026-04-25T09:41:42.999Z</time></trkpt><trkpt lat="44.48026654783409" lon="8.703701821193759"><ele>772.0</ele><time>2026-04-25T09:41:43.999Z</time></trkpt><trkpt lat="44.48015262670703" lon="8.703888696966951"><ele>772.0</ele><time>2026-04-25T09:41:44.999Z</time></trkpt><trkpt lat="44.48002223451883" lon="8.704076432068394"><ele>772.0</ele><time>2026-04-25T09:41:45.999Z</time></trkpt><trkpt lat="44.479898045408284" lon="8.70423655622448"><ele>772.0</ele><time>2026-04-25T09:41:46.999Z</time></trkpt><trkpt lat="44.47977488274593" lon="8.704394419273783"><ele>772.0</ele><time>2026-04-25T09:41:47.999Z</time></trkpt><trkpt lat="44.47966865725752" lon="8.70455497670194"><ele>772.0</ele><time>2026-04-25T09:41:49Z</time></trkpt><trkpt lat="44.479544726468305" lon="8.704659983117896"><ele>769.6666666666666</ele><time>2026-04-25T09:41:50Z</time></trkpt><trkpt lat="44.47941117373362" lon="8.70477134309977"><ele>767.3333333333333</ele><time>2026-04-25T09:41:51Z</time></trkpt><trkpt lat="44.47925890496811" lon="8.704891426078234"><ele>765.0</ele><time>2026-04-25T09:41:52Z</time></trkpt><trkpt lat="44.479089714350145" lon="8.705000093792425"><ele>765.0</ele><time>2026-04-25T09:41:53Z</time></trkpt><trkpt lat="44.47894128966569" lon="8.705084439970857"><ele>765.0</ele><time>2026-04-25T09:41:54Z</time></trkpt><trkpt lat="44.47880784628247" lon="8.705174743239997"><ele>765.0</ele><time>2026-04-25T09:41:55Z</time></trkpt><trkpt lat="44.478679382647805" lon="8.705247249104568"><ele>765.0</ele><time>2026-04-25T09:41:56Z</time></trkpt><trkpt lat="44.47858320301732" lon="8.705305225154616"><ele>763.8333333333334</ele><time>2026-04-25T09:41:57Z</time></trkpt><trkpt lat="44.47852772006846" lon="8.70537452364511"><ele>762.6666666666666</ele><time>2026-04-25T09:41:58Z</time></trkpt><trkpt lat="44.47850165742085" lon="8.70548060310038"><ele>761.5</ele><time>2026-04-25T09:41:59Z</time></trkpt><trkpt lat="44.478507964999515" lon="8.705599207929605"><ele>760.3333333333333</ele><time>2026-04-25T09:42:00Z</time></trkpt><trkpt lat="44.47855870035715" lon="8.70569430522766"><ele>759.1666666666666</ele><time>2026-04-25T09:42:01Z</time></trkpt><trkpt lat="44.478665740358906" lon="8.705773152501873"><ele>758.0</ele><time>2026-04-25T09:42:02Z</time></trkpt><trkpt lat="44.47876620560901" lon="8.705868295063675"><ele>761.75</ele><time>2026-04-25T09:42:03Z</time></trkpt><trkpt lat="44.47887784655155" lon="8.70598851230024"><ele>765.5</ele><time>2026-04-25T09:42:04Z</time></trkpt><trkpt lat="44.478982186651514" lon="8.706108373550652"><ele>769.25</ele><time>2026-04-25T09:42:05Z</time></trkpt><trkpt lat="44.47905829168867" lon="8.706224723348953"><ele>773.0</ele><time>2026-04-25T09:42:06Z</time></trkpt><trkpt lat="44.479075341637625" lon="8.706355727309179"><ele>773.0</ele><time>2026-04-25T09:42:07Z</time></trkpt><trkpt lat="44.47908551368317" lon="8.706493819274144"><ele>773.0</ele><time>2026-04-25T09:42:08Z</time></trkpt><trkpt lat="44.479083476191754" lon="8.706661620653431"><ele>773.0</ele><time>2026-04-25T09:42:09Z</time></trkpt><trkpt lat="44.479068610372565" lon="8.706842459307628"><ele>773.0</ele><time>2026-04-25T09:42:10Z</time></trkpt><trkpt lat="44.47900109987806" lon="8.70699631024155"><ele>773.2</ele><time>2026-04-25T09:42:11Z</time></trkpt><trkpt lat="44.47895808279952" lon="8.707166005535097"><ele>773.4</ele><time>2026-04-25T09:42:12Z</time></trkpt><trkpt lat="44.47891046149213" lon="8.707303787836027"><ele>773.6</ele><time>2026-04-25T09:42:13Z</time></trkpt><trkpt lat="44.4788968584691" lon="8.707418212123272"><ele>773.8000000000001</ele><time>2026-04-25T09:42:14Z</time></trkpt><trkpt lat="44.47892021759029" lon="8.707535199897393"><ele>774.0</ele><time>2026-04-25T09:42:15Z</time></trkpt><trkpt lat="44.47896651848857" lon="8.707655075788992"><ele>773.4000000000001</ele><time>2026-04-25T09:42:16Z</time></trkpt><trkpt lat="44.47900955884481" lon="8.707778228074181"><ele>772.8</ele><time>2026-04-25T09:42:17Z</time></trkpt><trkpt lat="44.47901213217755" lon="8.707900674967874"><ele>772.2</ele><time>2026-04-25T09:42:18Z</time></trkpt><trkpt lat="44.47895435232096" lon="8.708001567708441"><ele>771.5999999999999</ele><time>2026-04-25T09:42:19Z</time></trkpt><trkpt lat="44.4788968412359" lon="8.708116898754987"><ele>771.0</ele><time>2026-04-25T09:42:20Z</time></trkpt><trkpt lat="44.47882138382147" lon="8.708233910352556"><ele>771.0</ele><time>2026-04-25T09:42:21Z</time></trkpt><trkpt lat="44.47877391976072" lon="8.708352688981368"><ele>771.0</ele><time>2026-04-25T09:42:22Z</time></trkpt><trkpt lat="44.47877065056979" lon="8.708470869530244"><ele>771.0</ele><time>2026-04-25T09:42:23Z</time></trkpt><trkpt lat="44.4788087925989" lon="8.708599662380271"><ele>771.0</ele><time>2026-04-25T09:42:24Z</time></trkpt><trkpt lat="44.47886671621983" lon="8.708737540170082"><ele>771.0</ele><time>2026-04-25T09:42:25Z</time></trkpt><trkpt lat="44.47890440334355" lon="8.708874327136218"><ele>771.8</ele><time>2026-04-25T09:42:26Z</time></trkpt><trkpt lat="44.47889869839714" lon="8.709006553540712"><ele>772.5999999999999</ele><time>2026-04-25T09:42:27Z</time></trkpt><trkpt lat="44.47882013113169" lon="8.709096970950952"><ele>773.4</ele><time>2026-04-25T09:42:28Z</time></trkpt><trkpt lat="44.478732419391946" lon="8.709195600124076"><ele>774.2</ele><time>2026-04-25T09:42:29Z</time></trkpt><trkpt lat="44.47863111421156" lon="8.709331592841172"><ele>775.0</ele><time>2026-04-25T09:42:30Z</time></trkpt><trkpt lat="44.478502029647395" lon="8.709480167059416"><ele>769.75</ele><time>2026-04-25T09:42:31Z</time></trkpt><trkpt lat="44.47838040272845" lon="8.709622261997918"><ele>764.5</ele><time>2026-04-25T09:42:32Z</time></trkpt><trkpt lat="44.47826912169143" lon="8.709742146259524"><ele>759.25</ele><time>2026-04-25T09:42:33Z</time></trkpt><trkpt lat="44.47818517949104" lon="8.7098379044086"><ele>754.0</ele><time>2026-04-25T09:42:34Z</time></trkpt><trkpt lat="44.478124087235976" lon="8.709957412986302"><ele>754.0</ele><time>2026-04-25T09:42:35Z</time></trkpt><trkpt lat="44.478065672455394" lon="8.710114193216025"><ele>754.0</ele><time>2026-04-25T09:42:36Z</time></trkpt><trkpt lat="44.47799914324671" lon="8.710281836281016"><ele>754.0</ele><time>2026-04-25T09:42:37Z</time></trkpt><trkpt lat="44.477932961460574" lon="8.710442894995877"><ele>754.0</ele><time>2026-04-25T09:42:38Z</time></trkpt><trkpt lat="44.477885415385124" lon="8.710602934296773"><ele>752.0</ele><time>2026-04-25T09:42:39Z</time></trkpt><trkpt lat="44.47784799393741" lon="8.710765560292597"><ele>750.0</ele><time>2026-04-25T09:42:40Z</time></trkpt><trkpt lat="44.47781128937962" lon="8.710910193444159"><ele>748.0</ele><time>2026-04-25T09:42:41Z</time></trkpt><trkpt lat="44.47775702042006" lon="8.711017095482127"><ele>746.0</ele><time>2026-04-25T09:42:42Z</time></trkpt><trkpt lat="44.47766094411775" lon="8.711050420566044"><ele>744.0</ele><time>2026-04-25T09:42:43Z</time></trkpt><trkpt lat="44.47757351706119" lon="8.711125895776963"><ele>744.0</ele><time>2026-04-25T09:42:44Z</time></trkpt><trkpt lat="44.47748934139452" lon="8.711183270041882"><ele>744.0</ele><time>2026-04-25T09:42:45Z</time></trkpt><trkpt lat="44.47742758973296" lon="8.711267394363615"><ele>744.0</ele><time>2026-04-25T09:42:46Z</time></trkpt><trkpt lat="44.477376149718886" lon="8.711371577223312"><ele>744.0</ele><time>2026-04-25T09:42:47Z</time></trkpt><trkpt lat="44.47732288748262" lon="8.71148441320238"><ele>744.0</ele><time>2026-04-25T09:42:48Z</time></trkpt><trkpt lat="44.47727644735572" lon="8.71159270419624"><ele>744.0</ele><time>2026-04-25T09:42:49Z</time></trkpt><trkpt lat="44.47725886539358" lon="8.711692692776374"><ele>744.0</ele><time>2026-04-25T09:42:50Z</time></trkpt><trkpt lat="44.47728329490107" lon="8.711783078485707"><ele>744.0</ele><time>2026-04-25T09:42:51Z</time></trkpt><trkpt lat="44.47734559293859" lon="8.711852797504966"><ele>744.0</ele><time>2026-04-25T09:42:52Z</time></trkpt><trkpt lat="44.4774263638398" lon="8.711928470617396"><ele>744.0</ele><time>2026-04-25T09:42:53Z</time></trkpt><trkpt lat="44.477500365471414" lon="8.711978911988705"><ele>744.0</ele><time>2026-04-25T09:42:54Z</time></trkpt><trkpt lat="44.4775886943101" lon="8.711989902105154"><ele>744.0</ele><time>2026-04-25T09:42:55Z</time></trkpt><trkpt lat="44.47769778379405" lon="8.711936931606381"><ele>744.0</ele><time>2026-04-25T09:42:56Z</time></trkpt><trkpt lat="44.47781133057343" lon="8.711897279593533"><ele>744.0</ele><time>2026-04-25T09:42:57Z</time></trkpt><trkpt lat="44.47790618868064" lon="8.711877003154138"><ele>744.0</ele><time>2026-04-25T09:42:58Z</time></trkpt><trkpt lat="44.477974940405375" lon="8.711913340075288"><ele>744.0</ele><time>2026-04-25T09:42:59Z</time></trkpt><trkpt lat="44.47803876000986" lon="8.711986787294714"><ele>739.2</ele><time>2026-04-25T09:43:00Z</time></trkpt><trkpt lat="44.47808356459861" lon="8.71210985617179"><ele>734.4000000000001</ele><time>2026-04-25T09:43:01Z</time></trkpt><trkpt lat="44.47814463312245" lon="8.712200102843793"><ele>729.6</ele><time>2026-04-25T09:43:02Z</time></trkpt><trkpt lat="44.47822747803852" lon="8.7122463918997"><ele>724.8</ele><time>2026-04-25T09:43:03Z</time></trkpt><trkpt lat="44.47833114034044" lon="8.712263621328935"><ele>720.0</ele><time>2026-04-25T09:43:04Z</time></trkpt><trkpt lat="44.478453972939555" lon="8.712254813875646"><ele>720.0</ele><time>2026-04-25T09:43:05Z</time></trkpt><trkpt lat="44.4785878702061" lon="8.712237760402862"><ele>720.0</ele><time>2026-04-25T09:43:06Z</time></trkpt><trkpt lat="44.47872257694348" lon="8.71222939037715"><ele>720.0</ele><time>2026-04-25T09:43:07Z</time></trkpt><trkpt lat="44.478847797727155" lon="8.712220064160444"><ele>720.0</ele><time>2026-04-25T09:43:08Z</time></trkpt><trkpt lat="44.47896565438018" lon="8.712184978285604"><ele>717.5</ele><time>2026-04-25T09:43:08.999Z</time></trkpt><trkpt lat="44.479073618880925" lon="8.712104542239429"><ele>715.0</ele><time>2026-04-25T09:43:09.999Z</time></trkpt><trkpt lat="44.479176776711284" lon="8.711968555783013"><ele>712.5</ele><time>2026-04-25T09:43:10.999Z</time></trkpt><trkpt lat="44.47928914095499" lon="8.711817549887007"><ele>710.0</ele><time>2026-04-25T09:43:11.999Z</time></trkpt><trkpt lat="44.47938972935448" lon="8.71167726512491"><ele>712.6</ele><time>2026-04-25T09:43:12.999Z</time></trkpt><trkpt lat="44.4794897810294" lon="8.711549972409232"><ele>715.2</ele><time>2026-04-25T09:43:13.999Z</time></trkpt><trkpt lat="44.479575824183634" lon="8.711427089955565"><ele>717.8</ele><time>2026-04-25T09:43:14.999Z</time></trkpt><trkpt lat="44.47967197604038" lon="8.71136308658112"><ele>720.4</ele><time>2026-04-25T09:43:15.999Z</time></trkpt><trkpt lat="44.47975359643523" lon="8.711346668682275"><ele>723.0</ele><time>2026-04-25T09:43:16.999Z</time></trkpt><trkpt lat="44.47984322560681" lon="8.71138330488821"><ele>723.0</ele><time>2026-04-25T09:43:17.999Z</time></trkpt><trkpt lat="44.47995865214371" lon="8.711435743417015"><ele>723.0</ele><time>2026-04-25T09:43:18.999Z</time></trkpt><trkpt lat="44.480099342063625" lon="8.7115091277719"><ele>723.0</ele><time>2026-04-25T09:43:19.999Z</time></trkpt><trkpt lat="44.48023930032208" lon="8.711581127444303"><ele>723.0</ele><time>2026-04-25T09:43:20.999Z</time></trkpt><trkpt lat="44.480346646813764" lon="8.71167558474398"><ele>723.0</ele><time>2026-04-25T09:43:21.999Z</time></trkpt><trkpt lat="44.48041903057057" lon="8.71179073977927"><ele>723.0</ele><time>2026-04-25T09:43:22.999Z</time></trkpt><trkpt lat="44.48044017619378" lon="8.71194477808183"><ele>723.0</ele><time>2026-04-25T09:43:23.999Z</time></trkpt><trkpt lat="44.48049871249816" lon="8.712040143584604"><ele>723.0</ele><time>2026-04-25T09:43:24.999Z</time></trkpt><trkpt lat="44.480592803673126" lon="8.712120257021521"><ele>723.0</ele><time>2026-04-25T09:43:25.999Z</time></trkpt><trkpt lat="44.480730858527096" lon="8.712181720951062"><ele>716.6666666666666</ele><time>2026-04-25T09:43:26.999Z</time></trkpt><trkpt lat="44.48089594010122" lon="8.712250786258666"><ele>710.3333333333333</ele><time>2026-04-25T09:43:27.999Z</time></trkpt><trkpt lat="44.48103700496558" lon="8.712350947079612"><ele>704.0</ele><time>2026-04-25T09:43:28.999Z</time></trkpt><trkpt lat="44.48113546245712" lon="8.712501338033157"><ele>704.0</ele><time>2026-04-25T09:43:29.999Z</time></trkpt><trkpt lat="44.48124055363772" lon="8.712602680331702"><ele>704.0</ele><time>2026-04-25T09:43:30.999Z</time></trkpt><trkpt lat="44.481340006980595" lon="8.712681570212757"><ele>704.0</ele><time>2026-04-25T09:43:31.999Z</time></trkpt><trkpt lat="44.4814515752018" lon="8.712723777282042"><ele>704.0</ele><time>2026-04-25T09:43:32.999Z</time></trkpt><trkpt lat="44.48156608991617" lon="8.712737480848022"><ele>701.5</ele><time>2026-04-25T09:43:33.999Z</time></trkpt><trkpt lat="44.481634239661986" lon="8.712839007950087"><ele>699.0</ele><time>2026-04-25T09:43:34.999Z</time></trkpt><trkpt lat="44.48169079122358" lon="8.712985195146828"><ele>696.5</ele><time>2026-04-25T09:43:35.999Z</time></trkpt><trkpt lat="44.48175085333748" lon="8.713149297145154"><ele>694.0</ele><time>2026-04-25T09:43:36.999Z</time></trkpt><trkpt lat="44.48183133427251" lon="8.713277125644248"><ele>694.0</ele><time>2026-04-25T09:43:37.999Z</time></trkpt><trkpt lat="44.48192695609441" lon="8.713358679290192"><ele>694.0</ele><time>2026-04-25T09:43:38.999Z</time></trkpt><trkpt lat="44.48203183599949" lon="8.71338738038757"><ele>694.0</ele><time>2026-04-25T09:43:39.999Z</time></trkpt><trkpt lat="44.48214246438275" lon="8.713380158504357"><ele>694.0</ele><time>2026-04-25T09:43:40.999Z</time></trkpt><trkpt lat="44.48227034064737" lon="8.713343563078292"><ele>695.6666666666667</ele><time>2026-04-25T09:43:41.999Z</time></trkpt><trkpt lat="44.48242128226496" lon="8.713280650067496"><ele>697.3333333333334</ele><time>2026-04-25T09:43:42.999Z</time></trkpt><trkpt lat="44.48259809114953" lon="8.713238375371605"><ele>699.0</ele><time>2026-04-25T09:43:43.999Z</time></trkpt><trkpt lat="44.48274032627946" lon="8.713177921604773"><ele>699.0</ele><time>2026-04-25T09:43:44.999Z</time></trkpt><trkpt lat="44.482895716810056" lon="8.713120479516578"><ele>699.0</ele><time>2026-04-25T09:43:45.999Z</time></trkpt><trkpt lat="44.48304859155012" lon="8.713067796989787"><ele>699.0</ele><time>2026-04-25T09:43:46.999Z</time></trkpt><trkpt lat="44.48319282325105" lon="8.713054834071933"><ele>695.5</ele><time>2026-04-25T09:43:47.999Z</time></trkpt><trkpt lat="44.48332424175625" lon="8.713063617000486"><ele>692.0</ele><time>2026-04-25T09:43:48.999Z</time></trkpt><trkpt lat="44.48344683935436" lon="8.71312519009626"><ele>688.5</ele><time>2026-04-25T09:43:49.999Z</time></trkpt><trkpt lat="44.483588198459316" lon="8.71317196865297"><ele>685.0</ele><time>2026-04-25T09:43:50.999Z</time></trkpt><trkpt lat="44.4837406433095" lon="8.713209415809375"><ele>686.0</ele><time>2026-04-25T09:43:51.999Z</time></trkpt><trkpt lat="44.483904462621325" lon="8.713214974657742"><ele>687.0</ele><time>2026-04-25T09:43:52.999Z</time></trkpt><trkpt lat="44.48407177681613" lon="8.713232381128115"><ele>688.0</ele><time>2026-04-25T09:43:53.999Z</time></trkpt><trkpt lat="44.484218216816764" lon="8.713319041007264"><ele>688.0</ele><time>2026-04-25T09:43:55Z</time></trkpt><trkpt lat="44.48433986138317" lon="8.713374404479913"><ele>688.0</ele><time>2026-04-25T09:43:56Z</time></trkpt><trkpt lat="44.48443205573208" lon="8.713411997162464"><ele>688.0</ele><time>2026-04-25T09:43:57Z</time></trkpt><trkpt lat="44.484489637866396" lon="8.7135075982566"><ele>688.0</ele><time>2026-04-25T09:43:58Z</time></trkpt><trkpt lat="44.484533900750606" lon="8.713609033602209"><ele>688.0</ele><time>2026-04-25T09:43:59Z</time></trkpt><trkpt lat="44.48454534711138" lon="8.713744389131724"><ele>686.0</ele><time>2026-04-25T09:44:00Z</time></trkpt><trkpt lat="44.484566074829345" lon="8.713884482035915"><ele>684.0</ele><time>2026-04-25T09:44:01Z</time></trkpt><trkpt lat="44.48460993443864" lon="8.714028318677771"><ele>682.0</ele><time>2026-04-25T09:44:02Z</time></trkpt><trkpt lat="44.484679946294754" lon="8.714155315767057"><ele>680.0</ele><time>2026-04-25T09:44:03Z</time></trkpt><trkpt lat="44.484779011772005" lon="8.714253119106772"><ele>678.0</ele><time>2026-04-25T09:44:04Z</time></trkpt><trkpt lat="44.48490336335607" lon="8.714333315484414"><ele>672.75</ele><time>2026-04-25T09:44:05Z</time></trkpt><trkpt lat="44.48502956868784" lon="8.714412480983373"><ele>667.5</ele><time>2026-04-25T09:44:06Z</time></trkpt><trkpt lat="44.48511313242935" lon="8.714547590233764"><ele>662.25</ele><time>2026-04-25T09:44:07Z</time></trkpt><trkpt lat="44.48520393176675" lon="8.714659680974792"><ele>657.0</ele><time>2026-04-25T09:44:08Z</time></trkpt><trkpt lat="44.485279222815294" lon="8.714762605925753"><ele>657.0</ele><time>2026-04-25T09:44:09Z</time></trkpt><trkpt lat="44.48538248282237" lon="8.714807070036905"><ele>657.0</ele><time>2026-04-25T09:44:10Z</time></trkpt><trkpt lat="44.48551414662893" lon="8.714831212279252"><ele>657.0</ele><time>2026-04-25T09:44:11Z</time></trkpt><trkpt lat="44.48565322513727" lon="8.7148585653563"><ele>657.0</ele><time>2026-04-25T09:44:12Z</time></trkpt><trkpt lat="44.485765738044726" lon="8.714894429230984"><ele>657.4000000000001</ele><time>2026-04-25T09:44:13Z</time></trkpt><trkpt lat="44.4858553044321" lon="8.71494638908479"><ele>657.8000000000001</ele><time>2026-04-25T09:44:14Z</time></trkpt><trkpt lat="44.48591766431454" lon="8.715037655326277"><ele>658.2</ele><time>2026-04-25T09:44:15Z</time></trkpt><trkpt lat="44.48596406546027" lon="8.715159697488119"><ele>658.6</ele><time>2026-04-25T09:44:16Z</time></trkpt><trkpt lat="44.48599820406543" lon="8.71526848511711"><ele>659.0</ele><time>2026-04-25T09:44:17Z</time></trkpt><trkpt lat="44.4860134208375" lon="8.715395315528449"><ele>659.0</ele><time>2026-04-25T09:44:18Z</time></trkpt><trkpt lat="44.48600074056862" lon="8.715520957293347"><ele>659.0</ele><time>2026-04-25T09:44:19Z</time></trkpt><trkpt lat="44.48595819486461" lon="8.715641298084588"><ele>659.0</ele><time>2026-04-25T09:44:20Z</time></trkpt><trkpt lat="44.4858871948712" lon="8.715776861832431"><ele>659.0</ele><time>2026-04-25T09:44:21Z</time></trkpt><trkpt lat="44.48578621876496" lon="8.715905214261516"><ele>659.0</ele><time>2026-04-25T09:44:22Z</time></trkpt><trkpt lat="44.485691208603335" lon="8.716004829191164"><ele>657.4000000000001</ele><time>2026-04-25T09:44:23Z</time></trkpt><trkpt lat="44.48560163472194" lon="8.716112702795588"><ele>655.8</ele><time>2026-04-25T09:44:24Z</time></trkpt><trkpt lat="44.48552049089308" lon="8.716213450861517"><ele>654.2</ele><time>2026-04-25T09:44:25Z</time></trkpt><trkpt lat="44.48546558552448" lon="8.716307278955854"><ele>652.5999999999999</ele><time>2026-04-25T09:44:26Z</time></trkpt><trkpt lat="44.48543790018822" lon="8.716407856670559"><ele>651.0</ele><time>2026-04-25T09:44:27Z</time></trkpt><trkpt lat="44.48544230205222" lon="8.7165072270332"><ele>651.0</ele><time>2026-04-25T09:44:28Z</time></trkpt><trkpt lat="44.48548167918294" lon="8.71659221116022"><ele>651.0</ele><time>2026-04-25T09:44:29Z</time></trkpt><trkpt lat="44.48555511453632" lon="8.716653359232094"><ele>651.0</ele><time>2026-04-25T09:44:30Z</time></trkpt><trkpt lat="44.48564776614669" lon="8.716677795073137"><ele>651.0</ele><time>2026-04-25T09:44:31Z</time></trkpt><trkpt lat="44.485739979975705" lon="8.716700776668816"><ele>651.0</ele><time>2026-04-25T09:44:32Z</time></trkpt><trkpt lat="44.48585222739239" lon="8.716690691577861"><ele>651.0</ele><time>2026-04-25T09:44:33Z</time></trkpt><trkpt lat="44.48595449987424" lon="8.716705005701579"><ele>651.0</ele><time>2026-04-25T09:44:34Z</time></trkpt><trkpt lat="44.48605853521605" lon="8.716715643919946"><ele>651.0</ele><time>2026-04-25T09:44:35Z</time></trkpt><trkpt lat="44.486160389863784" lon="8.716730139046172"><ele>651.0</ele><time>2026-04-25T09:44:36Z</time></trkpt><trkpt lat="44.486262677838866" lon="8.71674701174855"><ele>651.0</ele><time>2026-04-25T09:44:37Z</time></trkpt><trkpt lat="44.48636351278843" lon="8.716762546428923"><ele>652.4</ele><time>2026-04-25T09:44:38Z</time></trkpt><trkpt lat="44.48646352104089" lon="8.716776523060696"><ele>653.8</ele><time>2026-04-25T09:44:39Z</time></trkpt><trkpt lat="44.48656457677584" lon="8.716801375796134"><ele>655.1999999999999</ele><time>2026-04-25T09:44:40Z</time></trkpt><trkpt lat="44.486653122845425" lon="8.716852352468946"><ele>656.5999999999999</ele><time>2026-04-25T09:44:41Z</time></trkpt><trkpt lat="44.48672721478427" lon="8.716939764285264"><ele>658.0</ele><time>2026-04-25T09:44:42Z</time></trkpt><trkpt lat="44.48678158931427" lon="8.71705328567838"><ele>654.25</ele><time>2026-04-25T09:44:43Z</time></trkpt><trkpt lat="44.48680479061983" lon="8.717203643028386"><ele>650.5</ele><time>2026-04-25T09:44:44Z</time></trkpt><trkpt lat="44.48680186678263" lon="8.717388603602274"><ele>646.75</ele><time>2026-04-25T09:44:45Z</time></trkpt><trkpt lat="44.48678049088736" lon="8.717599437745948"><ele>643.0</ele><time>2026-04-25T09:44:46Z</time></trkpt><trkpt lat="44.48675580865447" lon="8.717791725873916"><ele>641.0</ele><time>2026-04-25T09:44:47Z</time></trkpt><trkpt lat="44.48673956700222" lon="8.717975812245305"><ele>639.0</ele><time>2026-04-25T09:44:48Z</time></trkpt><trkpt lat="44.486732047691525" lon="8.71813893589913"><ele>637.0</ele><time>2026-04-25T09:44:49Z</time></trkpt><trkpt lat="44.48674481587243" lon="8.718297875645408"><ele>635.0</ele><time>2026-04-25T09:44:50Z</time></trkpt><trkpt lat="44.486781064935485" lon="8.718452648458038"><ele>634.2</ele><time>2026-04-25T09:44:51Z</time></trkpt><trkpt lat="44.48684069796805" lon="8.718595560014306"><ele>633.4</ele><time>2026-04-25T09:44:52Z</time></trkpt><trkpt lat="44.48689024550606" lon="8.718736754528116"><ele>632.6</ele><time>2026-04-25T09:44:53Z</time></trkpt><trkpt lat="44.48689975803486" lon="8.718883144417223"><ele>631.8</ele><time>2026-04-25T09:44:54Z</time></trkpt><trkpt lat="44.48687468169358" lon="8.719010878049804"><ele>631.0</ele><time>2026-04-25T09:44:54.999Z</time></trkpt><trkpt lat="44.4868193882878" lon="8.719113270100353"><ele>631.0</ele><time>2026-04-25T09:44:55.999Z</time></trkpt><trkpt lat="44.486751070227854" lon="8.71922905469836"><ele>631.0</ele><time>2026-04-25T09:44:56.999Z</time></trkpt><trkpt lat="44.48668136496582" lon="8.719376595672255"><ele>631.0</ele><time>2026-04-25T09:44:57.999Z</time></trkpt><trkpt lat="44.48661395889263" lon="8.719545479556187"><ele>631.0</ele><time>2026-04-25T09:44:58.999Z</time></trkpt><trkpt lat="44.486556877078364" lon="8.719729404336881"><ele>634.0</ele><time>2026-04-25T09:44:59.999Z</time></trkpt><trkpt lat="44.48650784256824" lon="8.719897037748193"><ele>637.0</ele><time>2026-04-25T09:45:00.999Z</time></trkpt><trkpt lat="44.486424064803266" lon="8.720042885908546"><ele>640.0</ele><time>2026-04-25T09:45:01.999Z</time></trkpt><trkpt lat="44.486350939272626" lon="8.720189538511194"><ele>643.0</ele><time>2026-04-25T09:45:02.999Z</time></trkpt><trkpt lat="44.48629547002959" lon="8.720325634557797"><ele>643.0</ele><time>2026-04-25T09:45:03.999Z</time></trkpt><trkpt lat="44.486251702191595" lon="8.720451433479802"><ele>643.0</ele><time>2026-04-25T09:45:04.999Z</time></trkpt><trkpt lat="44.486247372999294" lon="8.720597681971972"><ele>643.0</ele><time>2026-04-25T09:45:05.999Z</time></trkpt><trkpt lat="44.486272612405244" lon="8.720778344187627"><ele>643.0</ele><time>2026-04-25T09:45:06.999Z</time></trkpt><trkpt lat="44.48629826394847" lon="8.720972777438384"><ele>638.6</ele><time>2026-04-25T09:45:07.999Z</time></trkpt><trkpt lat="44.48629651915398" lon="8.721153211270037"><ele>634.1999999999999</ele><time>2026-04-25T09:45:08.999Z</time></trkpt><trkpt lat="44.48632718703632" lon="8.72129034785147"><ele>629.8</ele><time>2026-04-25T09:45:09.999Z</time></trkpt><trkpt lat="44.48636282011029" lon="8.721392798633964"><ele>625.4</ele><time>2026-04-25T09:45:10.999Z</time></trkpt><trkpt lat="44.48643593357265" lon="8.721484325289303"><ele>621.0</ele><time>2026-04-25T09:45:11.999Z</time></trkpt><trkpt lat="44.48654428682704" lon="8.72156406801227"><ele>621.0</ele><time>2026-04-25T09:45:12.999Z</time></trkpt><trkpt lat="44.48667403502735" lon="8.721643856454486"><ele>621.0</ele><time>2026-04-25T09:45:13.999Z</time></trkpt><trkpt lat="44.486798137662966" lon="8.721734077042093"><ele>621.0</ele><time>2026-04-25T09:45:14.999Z</time></trkpt><trkpt lat="44.48691127568585" lon="8.721822054531726"><ele>621.0</ele><time>2026-04-25T09:45:15.999Z</time></trkpt><trkpt lat="44.487021046189064" lon="8.721908000337294"><ele>619.6</ele><time>2026-04-25T09:45:16.999Z</time></trkpt><trkpt lat="44.48713348366201" lon="8.721979606429462"><ele>618.2</ele><time>2026-04-25T09:45:17.999Z</time></trkpt><trkpt lat="44.487244388245934" lon="8.722033916580397"><ele>616.8</ele><time>2026-04-25T09:45:18.999Z</time></trkpt><trkpt lat="44.48733714190674" lon="8.722055296936748"><ele>615.4</ele><time>2026-04-25T09:45:19.999Z</time></trkpt><trkpt lat="44.48739404203833" lon="8.722110389601983"><ele>614.0</ele><time>2026-04-25T09:45:20.999Z</time></trkpt><trkpt lat="44.487432634174944" lon="8.722253553587535"><ele>614.0</ele><time>2026-04-25T09:45:22.999Z</time></trkpt><trkpt lat="44.487393124018446" lon="8.72235004511146"><ele>614.0</ele><time>2026-04-25T09:45:23.999Z</time></trkpt><trkpt lat="44.487382671056814" lon="8.722490769456503"><ele>614.0</ele><time>2026-04-25T09:45:24.999Z</time></trkpt><trkpt lat="44.48737179627114" lon="8.722641603442977"><ele>614.0</ele><time>2026-04-25T09:45:25.999Z</time></trkpt><trkpt lat="44.487376550561315" lon="8.722792743513178"><ele>614.0</ele><time>2026-04-25T09:45:26.999Z</time></trkpt><trkpt lat="44.487336282612425" lon="8.722916671821974"><ele>617.0</ele><time>2026-04-25T09:45:27.999Z</time></trkpt><trkpt lat="44.487279629197424" lon="8.723009848235407"><ele>620.0</ele><time>2026-04-25T09:45:28.999Z</time></trkpt><trkpt lat="44.48719237683589" lon="8.723084884575307"><ele>623.0</ele><time>2026-04-25T09:45:29.999Z</time></trkpt><trkpt lat="44.48710767963354" lon="8.72321233235145"><ele>626.0</ele><time>2026-04-25T09:45:30.999Z</time></trkpt><trkpt lat="44.487005248780505" lon="8.723353246862807"><ele>622.5</ele><time>2026-04-25T09:45:31.999Z</time></trkpt><trkpt lat="44.48691661091575" lon="8.723493650169834"><ele>619.0</ele><time>2026-04-25T09:45:32.999Z</time></trkpt><trkpt lat="44.48683369257256" lon="8.72361630647732"><ele>615.5</ele><time>2026-04-25T09:45:33.999Z</time></trkpt><trkpt lat="44.48675758708168" lon="8.723738556033494"><ele>612.0</ele><time>2026-04-25T09:45:34.999Z</time></trkpt><trkpt lat="44.48671452011576" lon="8.723884312916551"><ele>612.0</ele><time>2026-04-25T09:45:35.999Z</time></trkpt><trkpt lat="44.486711306519126" lon="8.72404546397287"><ele>612.0</ele><time>2026-04-25T09:45:36.999Z</time></trkpt><trkpt lat="44.48673721867144" lon="8.72421491825075"><ele>612.0</ele><time>2026-04-25T09:45:37.999Z</time></trkpt><trkpt lat="44.48679131674481" lon="8.724390797543254"><ele>612.0</ele><time>2026-04-25T09:45:38.999Z</time></trkpt><trkpt lat="44.48683666814968" lon="8.724574782698149"><ele>612.25</ele><time>2026-04-25T09:45:39.999Z</time></trkpt><trkpt lat="44.486822080169176" lon="8.724754936884407"><ele>612.5</ele><time>2026-04-25T09:45:40.999Z</time></trkpt><trkpt lat="44.48679451361208" lon="8.724923927580821"><ele>612.75</ele><time>2026-04-25T09:45:41.999Z</time></trkpt><trkpt lat="44.48675053382994" lon="8.725085220696007"><ele>613.0</ele><time>2026-04-25T09:45:42.999Z</time></trkpt><trkpt lat="44.48670054767098" lon="8.725231000939562"><ele>609.75</ele><time>2026-04-25T09:45:43.999Z</time></trkpt><trkpt lat="44.48661664511418" lon="8.725342880352741"><ele>606.5</ele><time>2026-04-25T09:45:44.999Z</time></trkpt><trkpt lat="44.48649692598379" lon="8.725411945721897"><ele>603.25</ele><time>2026-04-25T09:45:45.999Z</time></trkpt><trkpt lat="44.48636510898432" lon="8.725510319833205"><ele>600.0</ele><time>2026-04-25T09:45:46.999Z</time></trkpt><trkpt lat="44.4862099617836" lon="8.72558529217115"><ele>600.0</ele><time>2026-04-25T09:45:47.999Z</time></trkpt><trkpt lat="44.486057654287144" lon="8.725647120292367"><ele>600.0</ele><time>2026-04-25T09:45:48.999Z</time></trkpt><trkpt lat="44.48591219089037" lon="8.725732483220808"><ele>600.0</ele><time>2026-04-25T09:45:49.999Z</time></trkpt><trkpt lat="44.485782613273706" lon="8.725830703659057"><ele>600.0</ele><time>2026-04-25T09:45:50.999Z</time></trkpt><trkpt lat="44.48567738785613" lon="8.725918110105143"><ele>600.0</ele><time>2026-04-25T09:45:51.999Z</time></trkpt><trkpt lat="44.485591266642835" lon="8.726011564597266"><ele>600.0</ele><time>2026-04-25T09:45:52.999Z</time></trkpt><trkpt lat="44.485524409310685" lon="8.726122098316443"><ele>600.0</ele><time>2026-04-25T09:45:53.999Z</time></trkpt><trkpt lat="44.485484089078064" lon="8.726248145383673"><ele>600.0</ele><time>2026-04-25T09:45:54.999Z</time></trkpt><trkpt lat="44.485473355212015" lon="8.726382470219397"><ele>604.2</ele><time>2026-04-25T09:45:55.999Z</time></trkpt><trkpt lat="44.485496711212456" lon="8.72652125852382"><ele>608.4</ele><time>2026-04-25T09:45:56.999Z</time></trkpt><trkpt lat="44.48554231347133" lon="8.726669700337323"><ele>612.6</ele><time>2026-04-25T09:45:57.999Z</time></trkpt><trkpt lat="44.48555197302053" lon="8.726830642733155"><ele>616.8</ele><time>2026-04-25T09:45:58.999Z</time></trkpt><trkpt lat="44.485525046204636" lon="8.726969426441178"><ele>621.0</ele><time>2026-04-25T09:45:59.999Z</time></trkpt><trkpt lat="44.48547973843504" lon="8.72711953851862"><ele>621.25</ele><time>2026-04-25T09:46:01Z</time></trkpt><trkpt lat="44.48546817745966" lon="8.7272870134258"><ele>621.5</ele><time>2026-04-25T09:46:02Z</time></trkpt><trkpt lat="44.485490490094236" lon="8.727440456844194"><ele>621.75</ele><time>2026-04-25T09:46:03Z</time></trkpt><trkpt lat="44.48554234347643" lon="8.727588551066377"><ele>622.0</ele><time>2026-04-25T09:46:04Z</time></trkpt><trkpt lat="44.485577240341975" lon="8.727735634764416"><ele>622.6</ele><time>2026-04-25T09:46:05Z</time></trkpt><trkpt lat="44.48560073271265" lon="8.727848198024443"><ele>623.2</ele><time>2026-04-25T09:46:06Z</time></trkpt><trkpt lat="44.485588702818504" lon="8.72794109146739"><ele>623.8</ele><time>2026-04-25T09:46:07Z</time></trkpt><trkpt lat="44.485528993347124" lon="8.728011465070887"><ele>624.4</ele><time>2026-04-25T09:46:08Z</time></trkpt><trkpt lat="44.48545448505723" lon="8.728122913241563"><ele>625.0</ele><time>2026-04-25T09:46:09Z</time></trkpt><trkpt lat="44.48534322582338" lon="8.728227641403866"><ele>621.0</ele><time>2026-04-25T09:46:10Z</time></trkpt><trkpt lat="44.48521158799165" lon="8.72833933395558"><ele>617.0</ele><time>2026-04-25T09:46:11Z</time></trkpt><trkpt lat="44.485075728344434" lon="8.728454449899843"><ele>613.0</ele><time>2026-04-25T09:46:12Z</time></trkpt><trkpt lat="44.48495234971394" lon="8.728572664261296"><ele>613.0</ele><time>2026-04-25T09:46:13Z</time></trkpt><trkpt lat="44.484831295891546" lon="8.728689961388504"><ele>613.0</ele><time>2026-04-25T09:46:14Z</time></trkpt><trkpt lat="44.48469067493765" lon="8.728754216525811"><ele>613.0</ele><time>2026-04-25T09:46:15Z</time></trkpt><trkpt lat="44.484541818168395" lon="8.728808466335462"><ele>613.0</ele><time>2026-04-25T09:46:16Z</time></trkpt><trkpt lat="44.48439128687481" lon="8.728863012319508"><ele>607.5</ele><time>2026-04-25T09:46:17Z</time></trkpt><trkpt lat="44.484242925648104" lon="8.728860845567809"><ele>602.0</ele><time>2026-04-25T09:46:18Z</time></trkpt><trkpt lat="44.48411461189289" lon="8.728842109149353"><ele>596.5</ele><time>2026-04-25T09:46:19Z</time></trkpt><trkpt lat="44.48400686222862" lon="8.728847329595578"><ele>591.0</ele><time>2026-04-25T09:46:20Z</time></trkpt><trkpt lat="44.483909185210884" lon="8.728921603615994"><ele>591.0</ele><time>2026-04-25T09:46:21Z</time></trkpt><trkpt lat="44.48381028963804" lon="8.729055262297674"><ele>591.0</ele><time>2026-04-25T09:46:22Z</time></trkpt><trkpt lat="44.48371330928649" lon="8.729205048566108"><ele>591.0</ele><time>2026-04-25T09:46:23Z</time></trkpt><trkpt lat="44.483615624401374" lon="8.729343982187117"><ele>591.0</ele><time>2026-04-25T09:46:24Z</time></trkpt><trkpt lat="44.483515216979285" lon="8.729466606781122"><ele>585.5</ele><time>2026-04-25T09:46:25Z</time></trkpt><trkpt lat="44.4834079096752" lon="8.72957856804882"><ele>580.0</ele><time>2026-04-25T09:46:26Z</time></trkpt><trkpt lat="44.4832934512583" lon="8.729676070604524"><ele>574.5</ele><time>2026-04-25T09:46:27Z</time></trkpt><trkpt lat="44.48318094186214" lon="8.729758319045228"><ele>569.0</ele><time>2026-04-25T09:46:28Z</time></trkpt><trkpt lat="44.48309709829851" lon="8.72982998228607"><ele>569.0</ele><time>2026-04-25T09:46:29Z</time></trkpt><trkpt lat="44.483054913282935" lon="8.729899926441828"><ele>569.0</ele><time>2026-04-25T09:46:30Z</time></trkpt><trkpt lat="44.48305528868966" lon="8.729990836443434"><ele>569.0</ele><time>2026-04-25T09:46:31Z</time></trkpt><trkpt lat="44.483097980777615" lon="8.730078996681387"><ele>569.0</ele><time>2026-04-25T09:46:32Z</time></trkpt><trkpt lat="44.4831761105597" lon="8.730132439134342"><ele>569.0</ele><time>2026-04-25T09:46:33Z</time></trkpt><trkpt lat="44.48328009371085" lon="8.730173715380811"><ele>569.0</ele><time>2026-04-25T09:46:34Z</time></trkpt><trkpt lat="44.4834020803706" lon="8.730227894337066"><ele>569.0</ele><time>2026-04-25T09:46:35Z</time></trkpt><trkpt lat="44.48352180810209" lon="8.730313439352404"><ele>569.0</ele><time>2026-04-25T09:46:36Z</time></trkpt><trkpt lat="44.48363399159609" lon="8.730392457647774"><ele>569.0</ele><time>2026-04-25T09:46:37Z</time></trkpt><trkpt lat="44.483714462975364" lon="8.730500481830296"><ele>569.0</ele><time>2026-04-25T09:46:38Z</time></trkpt><trkpt lat="44.483769185510695" lon="8.730641101181572"><ele>569.0</ele><time>2026-04-25T09:46:39Z</time></trkpt><trkpt lat="44.483852647105714" lon="8.730767299680135"><ele>569.0</ele><time>2026-04-25T09:46:40Z</time></trkpt><trkpt lat="44.483937748089154" lon="8.730898455927326"><ele>569.0</ele><time>2026-04-25T09:46:41Z</time></trkpt><trkpt lat="44.48404595800001" lon="8.730999114381518"><ele>569.0</ele><time>2026-04-25T09:46:42Z</time></trkpt><trkpt lat="44.48416674152053" lon="8.731060233592356"><ele>564.25</ele><time>2026-04-25T09:46:43Z</time></trkpt><trkpt lat="44.48428435234609" lon="8.731111403956659"><ele>559.5</ele><time>2026-04-25T09:46:44Z</time></trkpt><trkpt lat="44.48439705586077" lon="8.731173603171417"><ele>554.75</ele><time>2026-04-25T09:46:45Z</time></trkpt><trkpt lat="44.48450991821895" lon="8.731237816068207"><ele>550.0</ele><time>2026-04-25T09:46:46Z</time></trkpt><trkpt lat="44.484621685712575" lon="8.73128780836656"><ele>550.0</ele><time>2026-04-25T09:46:47Z</time></trkpt><trkpt lat="44.48473113150029" lon="8.731322018240338"><ele>550.0</ele><time>2026-04-25T09:46:48Z</time></trkpt><trkpt lat="44.48483625704553" lon="8.731333850932003"><ele>550.0</ele><time>2026-04-25T09:46:49Z</time></trkpt><trkpt lat="44.4849346370449" lon="8.731330075069701"><ele>550.0</ele><time>2026-04-25T09:46:50Z</time></trkpt><trkpt lat="44.485021010205415" lon="8.73132109770731"><ele>550.0</ele><time>2026-04-25T09:46:51Z</time></trkpt><trkpt lat="44.485103288402456" lon="8.731316771540813"><ele>550.0</ele><time>2026-04-25T09:46:52Z</time></trkpt><trkpt lat="44.48518864140213" lon="8.731329708906744"><ele>550.0</ele><time>2026-04-25T09:46:53Z</time></trkpt><trkpt lat="44.48525691063793" lon="8.731407266912269"><ele>550.0</ele><time>2026-04-25T09:46:54Z</time></trkpt><trkpt lat="44.48533668282607" lon="8.731452995420723"><ele>550.0</ele><time>2026-04-25T09:46:55Z</time></trkpt><trkpt lat="44.48540501949794" lon="8.731520988998104"><ele>550.0</ele><time>2026-04-25T09:46:56Z</time></trkpt><trkpt lat="44.48546768660735" lon="8.731606677893605"><ele>550.0</ele><time>2026-04-25T09:46:57Z</time></trkpt><trkpt lat="44.48553563384324" lon="8.731676390741129"><ele>555.1666666666667</ele><time>2026-04-25T09:46:58Z</time></trkpt><trkpt lat="44.48558436398985" lon="8.731749423951571"><ele>560.3333333333334</ele><time>2026-04-25T09:46:59Z</time></trkpt><trkpt lat="44.48561163142338" lon="8.731833721757999"><ele>565.5</ele><time>2026-04-25T09:47:00Z</time></trkpt><trkpt lat="44.48557909458891" lon="8.731942439532908"><ele>570.6666666666666</ele><time>2026-04-25T09:47:01Z</time></trkpt><trkpt lat="44.485531218932046" lon="8.732030342548533"><ele>575.8333333333333</ele><time>2026-04-25T09:47:02Z</time></trkpt><trkpt lat="44.48550575874227" lon="8.732193571744121"><ele>581.0</ele><time>2026-04-25T09:47:04Z</time></trkpt><trkpt lat="44.48549696468327" lon="8.732361652599957"><ele>581.0</ele><time>2026-04-25T09:47:06Z</time></trkpt><trkpt lat="44.48544662122545" lon="8.732414740631722"><ele>581.0</ele><time>2026-04-25T09:47:07Z</time></trkpt><trkpt lat="44.48532657827719" lon="8.732491130917175"><ele>581.0</ele><time>2026-04-25T09:47:09Z</time></trkpt><trkpt lat="44.48525930431843" lon="8.7325038535013"><ele>581.0</ele><time>2026-04-25T09:47:09.999Z</time></trkpt><trkpt lat="44.48519898880138" lon="8.73254876323235"><ele>581.0</ele><time>2026-04-25T09:47:10.999Z</time></trkpt><trkpt lat="44.4851451659544" lon="8.732613835602306"><ele>581.0</ele><time>2026-04-25T09:47:11.999Z</time></trkpt><trkpt lat="44.48508972522692" lon="8.732687050775748"><ele>575.1666666666666</ele><time>2026-04-25T09:47:12.999Z</time></trkpt><trkpt lat="44.48503108664247" lon="8.732761195306889"><ele>569.3333333333333</ele><time>2026-04-25T09:47:13.999Z</time></trkpt><trkpt lat="44.48497169836069" lon="8.732846416074342"><ele>563.5</ele><time>2026-04-25T09:47:14.999Z</time></trkpt><trkpt lat="44.48490801830665" lon="8.732930837911304"><ele>557.6666666666666</ele><time>2026-04-25T09:47:15.999Z</time></trkpt><trkpt lat="44.48484812438302" lon="8.73302421082943"><ele>551.8333333333334</ele><time>2026-04-25T09:47:16.999Z</time></trkpt><trkpt lat="44.48480054125314" lon="8.733127917556143"><ele>546.0</ele><time>2026-04-25T09:47:17.999Z</time></trkpt><trkpt lat="44.48476367338117" lon="8.733239665746789"><ele>546.0</ele><time>2026-04-25T09:47:18.999Z</time></trkpt><trkpt lat="44.484733815165185" lon="8.73335726874515"><ele>546.0</ele><time>2026-04-25T09:47:19.999Z</time></trkpt><trkpt lat="44.484724593477736" lon="8.733481566541851"><ele>546.0</ele><time>2026-04-25T09:47:20.999Z</time></trkpt><trkpt lat="44.484739420209486" lon="8.733605941406271"><ele>546.0</ele><time>2026-04-25T09:47:21.999Z</time></trkpt><trkpt lat="44.48481172009413" lon="8.733704616080502"><ele>546.0</ele><time>2026-04-25T09:47:22.999Z</time></trkpt><trkpt lat="44.484881015445104" lon="8.73379655338965"><ele>544.0</ele><time>2026-04-25T09:47:23.999Z</time></trkpt><trkpt lat="44.48494279144093" lon="8.733896118856965"><ele>542.0</ele><time>2026-04-25T09:47:24.999Z</time></trkpt><trkpt lat="44.48499528591193" lon="8.734010085936406"><ele>540.0</ele><time>2026-04-25T09:47:25.999Z</time></trkpt><trkpt lat="44.485085551529" lon="8.734079607867251"><ele>538.0</ele><time>2026-04-25T09:47:26.999Z</time></trkpt><trkpt lat="44.48516674161154" lon="8.73415876904602"><ele>536.0</ele><time>2026-04-25T09:47:27.999Z</time></trkpt><trkpt lat="44.48524866140383" lon="8.734225975644593"><ele>536.0</ele><time>2026-04-25T09:47:28.999Z</time></trkpt><trkpt lat="44.48531820944008" lon="8.734314458150696"><ele>536.0</ele><time>2026-04-25T09:47:29.999Z</time></trkpt><trkpt lat="44.485385761699966" lon="8.734391770660945"><ele>536.0</ele><time>2026-04-25T09:47:30.999Z</time></trkpt><trkpt lat="44.48543737662753" lon="8.73447297557826"><ele>536.0</ele><time>2026-04-25T09:47:31.999Z</time></trkpt><trkpt lat="44.48547940938017" lon="8.734557924175263"><ele>536.0</ele><time>2026-04-25T09:47:32.999Z</time></trkpt><trkpt lat="44.485526682450235" lon="8.734638728637156"><ele>536.0</ele><time>2026-04-25T09:47:33.999Z</time></trkpt><trkpt lat="44.48555387617697" lon="8.734732872813785"><ele>534.5</ele><time>2026-04-25T09:47:34.999Z</time></trkpt><trkpt lat="44.48557634582686" lon="8.734826616305517"><ele>533.0</ele><time>2026-04-25T09:47:35.999Z</time></trkpt><trkpt lat="44.485583368507776" lon="8.734917996570879"><ele>531.5</ele><time>2026-04-25T09:47:36.999Z</time></trkpt><trkpt lat="44.485564947069676" lon="8.735010975618119"><ele>530.0</ele><time>2026-04-25T09:47:37.999Z</time></trkpt><trkpt lat="44.485523439252596" lon="8.735098294499288"><ele>528.5</ele><time>2026-04-25T09:47:38.999Z</time></trkpt><trkpt lat="44.485450236683455" lon="8.735152429759083"><ele>527.0</ele><time>2026-04-25T09:47:39.999Z</time></trkpt><trkpt lat="44.48538045923788" lon="8.73524416442894"><ele>527.0</ele><time>2026-04-25T09:47:40.999Z</time></trkpt><trkpt lat="44.485303255996484" lon="8.73532858948886"><ele>527.0</ele><time>2026-04-25T09:47:41.999Z</time></trkpt><trkpt lat="44.48523521413712" lon="8.735420584522288"><ele>527.0</ele><time>2026-04-25T09:47:42.999Z</time></trkpt><trkpt lat="44.4851719126648" lon="8.735512890450785"><ele>527.0</ele><time>2026-04-25T09:47:43.999Z</time></trkpt><trkpt lat="44.48510873589855" lon="8.735611966347534"><ele>527.0</ele><time>2026-04-25T09:47:44.999Z</time></trkpt><trkpt lat="44.48505851399979" lon="8.735717416026457"><ele>527.0</ele><time>2026-04-25T09:47:45.999Z</time></trkpt><trkpt lat="44.48502101625463" lon="8.735827870873408"><ele>527.0</ele><time>2026-04-25T09:47:46.999Z</time></trkpt><trkpt lat="44.48498666911271" lon="8.735918269335492"><ele>527.0</ele><time>2026-04-25T09:47:47.999Z</time></trkpt><trkpt lat="44.48495000583281" lon="8.736015339241689"><ele>527.0</ele><time>2026-04-25T09:47:49.999Z</time></trkpt><trkpt lat="44.48487643967528" lon="8.73605501655197"><ele>527.0</ele><time>2026-04-25T09:47:54.999Z</time></trkpt><trkpt lat="44.48480198693329" lon="8.735960544077784"><ele>527.0</ele><time>2026-04-25T09:47:59.999Z</time></trkpt><trkpt lat="44.48492430385784" lon="8.735826503770555"><ele>527.0</ele><time>2026-04-25T09:48:01.999Z</time></trkpt><trkpt lat="44.48496827090336" lon="8.73574481954822"><ele>527.0</ele><time>2026-04-25T09:48:02.999Z</time></trkpt><trkpt lat="44.48501502170229" lon="8.735635287406133"><ele>527.0</ele><time>2026-04-25T09:48:03.999Z</time></trkpt><trkpt lat="44.48505670803019" lon="8.735530136058905"><ele>527.0</ele><time>2026-04-25T09:48:04.999Z</time></trkpt><trkpt lat="44.48509997975405" lon="8.735425697534014"><ele>527.0</ele><time>2026-04-25T09:48:05.999Z</time></trkpt><trkpt lat="44.48514968809098" lon="8.73530508364318"><ele>527.0</ele><time>2026-04-25T09:48:07Z</time></trkpt><trkpt lat="44.48520874363273" lon="8.735174905095224"><ele>525.0</ele><time>2026-04-25T09:48:08Z</time></trkpt><trkpt lat="44.48526617134488" lon="8.735054128553942"><ele>523.0</ele><time>2026-04-25T09:48:09Z</time></trkpt><trkpt lat="44.48533161444069" lon="8.734946129830938"><ele>521.0</ele><time>2026-04-25T09:48:10Z</time></trkpt><trkpt lat="44.48542169479628" lon="8.734853834366607"><ele>519.0</ele><time>2026-04-25T09:48:11Z</time></trkpt><trkpt lat="44.48553987079882" lon="8.734784807944715"><ele>517.0</ele><time>2026-04-25T09:48:12Z</time></trkpt><trkpt lat="44.48569120454498" lon="8.73474430211581"><ele>527.0</ele><time>2026-04-25T09:48:13Z</time></trkpt><trkpt lat="44.4858687177996" lon="8.73471222556629"><ele>537.0</ele><time>2026-04-25T09:48:14Z</time></trkpt><trkpt lat="44.486068042972995" lon="8.734677802405288"><ele>547.0</ele><time>2026-04-25T09:48:15Z</time></trkpt><trkpt lat="44.48626141944376" lon="8.734648106791827"><ele>557.3333333333334</ele><time>2026-04-25T09:48:16Z</time></trkpt><trkpt lat="44.48646366876876" lon="8.734553602934609"><ele>567.6666666666666</ele><time>2026-04-25T09:48:17Z</time></trkpt><trkpt lat="44.48667820390189" lon="8.734475858936703"><ele>578.0</ele><time>2026-04-25T09:48:18Z</time></trkpt><trkpt lat="44.48689554660237" lon="8.73439657201465"><ele>572.3333333333333</ele><time>2026-04-25T09:48:19.066Z</time></trkpt><trkpt lat="44.487094753413444" lon="8.734323863262205"><ele>566.6666666666666</ele><time>2026-04-25T09:48:20.057Z</time></trkpt><trkpt lat="44.487296205714124" lon="8.734251353809798"><ele>561.0</ele><time>2026-04-25T09:48:21.051Z</time></trkpt><trkpt lat="44.48811871990688" lon="8.733780439591404"><ele>552.0</ele><time>2026-04-25T09:48:29Z</time></trkpt><trkpt lat="44.48824113797281" lon="8.7337461940764"><ele>543.0</ele><time>2026-04-25T09:48:30Z</time></trkpt><trkpt lat="44.48837176060258" lon="8.73372620972012"><ele>534.0</ele><time>2026-04-25T09:48:31Z</time></trkpt><trkpt lat="44.48848307131399" lon="8.733668306916147"><ele>525.0</ele><time>2026-04-25T09:48:32Z</time></trkpt><trkpt lat="44.48858652080671" lon="8.733582513925903"><ele>529.25</ele><time>2026-04-25T09:48:33Z</time></trkpt><trkpt lat="44.48868735338199" lon="8.73346441816572"><ele>533.5</ele><time>2026-04-25T09:48:34Z</time></trkpt><trkpt lat="44.48876366321237" lon="8.733363535839441"><ele>537.75</ele><time>2026-04-25T09:48:35Z</time></trkpt><trkpt lat="44.48883747147467" lon="8.733228566447295"><ele>542.0</ele><time>2026-04-25T09:48:36Z</time></trkpt><trkpt lat="44.4888897718697" lon="8.733096063451601"><ele>541.8000000000001</ele><time>2026-04-25T09:48:37Z</time></trkpt><trkpt lat="44.48890547120749" lon="8.732946682269876"><ele>541.6</ele><time>2026-04-25T09:48:38Z</time></trkpt><trkpt lat="44.488890477549894" lon="8.732793157902986"><ele>541.4000000000001</ele><time>2026-04-25T09:48:39Z</time></trkpt><trkpt lat="44.48884403963962" lon="8.732650296306337"><ele>541.2</ele><time>2026-04-25T09:48:40Z</time></trkpt><trkpt lat="44.48877127457982" lon="8.732523370661191"><ele>541.0</ele><time>2026-04-25T09:48:41Z</time></trkpt><trkpt lat="44.4886909845199" lon="8.732413375099803"><ele>541.0</ele><time>2026-04-25T09:48:42Z</time></trkpt><trkpt lat="44.488606677987285" lon="8.732319894711779"><ele>541.0</ele><time>2026-04-25T09:48:43Z</time></trkpt><trkpt lat="44.48854760667395" lon="8.732215738082195"><ele>541.0</ele><time>2026-04-25T09:48:44Z</time></trkpt><trkpt lat="44.488521986497375" lon="8.73209472009863"><ele>541.0</ele><time>2026-04-25T09:48:45Z</time></trkpt><trkpt lat="44.4885338711158" lon="8.731969484040102"><ele>541.0</ele><time>2026-04-25T09:48:46Z</time></trkpt><trkpt lat="44.48860429638245" lon="8.731880880793522"><ele>539.8571428571429</ele><time>2026-04-25T09:48:47Z</time></trkpt><trkpt lat="44.48866638269758" lon="8.731824137614748"><ele>538.7142857142858</ele><time>2026-04-25T09:48:48Z</time></trkpt><trkpt lat="44.48871915435418" lon="8.731733582537018"><ele>537.5714285714286</ele><time>2026-04-25T09:48:49Z</time></trkpt><trkpt lat="44.48877263143857" lon="8.731658586315321"><ele>536.4285714285714</ele><time>2026-04-25T09:48:50Z</time></trkpt><trkpt lat="44.48879067176713" lon="8.731566077809742"><ele>535.2857142857142</ele><time>2026-04-25T09:48:51Z</time></trkpt><trkpt lat="44.48878130606517" lon="8.73147169848018"><ele>534.1428571428571</ele><time>2026-04-25T09:48:52Z</time></trkpt><trkpt lat="44.488759668051124" lon="8.731369983509172"><ele>533.0</ele><time>2026-04-25T09:48:53Z</time></trkpt><trkpt lat="44.48872241027718" lon="8.73126232944498"><ele>533.0</ele><time>2026-04-25T09:48:54Z</time></trkpt><trkpt lat="44.48866985474477" lon="8.731159395858683"><ele>533.0</ele><time>2026-04-25T09:48:55Z</time></trkpt><trkpt lat="44.4886516701876" lon="8.731032997760142"><ele>533.0</ele><time>2026-04-25T09:48:56Z</time></trkpt><trkpt lat="44.488668985067704" lon="8.730915814516248"><ele>533.0</ele><time>2026-04-25T09:48:57Z</time></trkpt><trkpt lat="44.488719959715375" lon="8.730812730782226"><ele>533.0</ele><time>2026-04-25T09:48:58Z</time></trkpt><trkpt lat="44.48879462362034" lon="8.730735762167457"><ele>527.4</ele><time>2026-04-25T09:48:59Z</time></trkpt><trkpt lat="44.48888796538804" lon="8.730684739388758"><ele>521.8</ele><time>2026-04-25T09:49:00Z</time></trkpt><trkpt lat="44.488984117562765" lon="8.730659328622412"><ele>516.2</ele><time>2026-04-25T09:49:01Z</time></trkpt><trkpt lat="44.4890761254472" lon="8.730642605843782"><ele>510.6</ele><time>2026-04-25T09:49:02Z</time></trkpt><trkpt lat="44.4891694222717" lon="8.730631641431142"><ele>505.0</ele><time>2026-04-25T09:49:03Z</time></trkpt><trkpt lat="44.4892672387847" lon="8.730623664888888"><ele>505.0</ele><time>2026-04-25T09:49:03.999Z</time></trkpt><trkpt lat="44.48937037467887" lon="8.730616457632092"><ele>505.0</ele><time>2026-04-25T09:49:04.999Z</time></trkpt><trkpt lat="44.48947304294077" lon="8.730613872778349"><ele>505.0</ele><time>2026-04-25T09:49:05.999Z</time></trkpt><trkpt lat="44.48956818796484" lon="8.730602452898738"><ele>505.0</ele><time>2026-04-25T09:49:06.999Z</time></trkpt><trkpt lat="44.4896638039672" lon="8.730578176587"><ele>505.0</ele><time>2026-04-25T09:49:07.999Z</time></trkpt><trkpt lat="44.489759204139645" lon="8.730535916170421"><ele>503.2</ele><time>2026-04-25T09:49:08.999Z</time></trkpt><trkpt lat="44.48985425665415" lon="8.730484912588452"><ele>501.4</ele><time>2026-04-25T09:49:09.999Z</time></trkpt><trkpt lat="44.48993663219008" lon="8.73041641451879"><ele>499.6</ele><time>2026-04-25T09:49:10.999Z</time></trkpt><trkpt lat="44.49001813036365" lon="8.73033581313545"><ele>497.8</ele><time>2026-04-25T09:49:11.999Z</time></trkpt><trkpt lat="44.49008642992282" lon="8.730228055990917"><ele>496.0</ele><time>2026-04-25T09:49:12.999Z</time></trkpt><trkpt lat="44.49013258313665" lon="8.730095187691715"><ele>496.0</ele><time>2026-04-25T09:49:13.999Z</time></trkpt><trkpt lat="44.49014775136536" lon="8.729953362453038"><ele>496.0</ele><time>2026-04-25T09:49:14.999Z</time></trkpt><trkpt lat="44.49015746646445" lon="8.729814796387965"><ele>496.0</ele><time>2026-04-25T09:49:15.999Z</time></trkpt><trkpt lat="44.49016815557837" lon="8.729683226508863"><ele>496.0</ele><time>2026-04-25T09:49:16.999Z</time></trkpt><trkpt lat="44.49017181464251" lon="8.72955386175508"><ele>496.0</ele><time>2026-04-25T09:49:17.999Z</time></trkpt><trkpt lat="44.49017290434166" lon="8.729425707432808"><ele>497.8</ele><time>2026-04-25T09:49:18.999Z</time></trkpt><trkpt lat="44.490200873635175" lon="8.729307987956028"><ele>499.6</ele><time>2026-04-25T09:49:19.999Z</time></trkpt><trkpt lat="44.49026197725835" lon="8.72920824239518"><ele>501.4</ele><time>2026-04-25T09:49:20.999Z</time></trkpt><trkpt lat="44.4903569873549" lon="8.729165461243634"><ele>503.2</ele><time>2026-04-25T09:49:21.999Z</time></trkpt><trkpt lat="44.490444418638134" lon="8.729104980139974"><ele>505.0</ele><time>2026-04-25T09:49:22.999Z</time></trkpt><trkpt lat="44.49055250024276" lon="8.729106407799515"><ele>505.0</ele><time>2026-04-25T09:49:23.999Z</time></trkpt><trkpt lat="44.4906625775969" lon="8.72912875295136"><ele>505.0</ele><time>2026-04-25T09:49:24.999Z</time></trkpt><trkpt lat="44.490762158246135" lon="8.729180160152161"><ele>505.0</ele><time>2026-04-25T09:49:25.999Z</time></trkpt><trkpt lat="44.49084782088972" lon="8.729252301932904"><ele>505.0</ele><time>2026-04-25T09:49:26.999Z</time></trkpt><trkpt lat="44.49092502966377" lon="8.729328615112749"><ele>505.0</ele><time>2026-04-25T09:49:27.999Z</time></trkpt><trkpt lat="44.49100157632517" lon="8.729390673174741"><ele>503.0</ele><time>2026-04-25T09:49:28.999Z</time></trkpt><trkpt lat="44.491077783941705" lon="8.72943397861037"><ele>501.0</ele><time>2026-04-25T09:49:29.999Z</time></trkpt><trkpt lat="44.49115786005101" lon="8.729438323477897"><ele>499.0</ele><time>2026-04-25T09:49:30.999Z</time></trkpt><trkpt lat="44.49125346854378" lon="8.729412989609559"><ele>497.0</ele><time>2026-04-25T09:49:31.999Z</time></trkpt><trkpt lat="44.491365502940695" lon="8.729362974737823"><ele>495.0</ele><time>2026-04-25T09:49:32.999Z</time></trkpt><trkpt lat="44.491479104529596" lon="8.729301805145463"><ele>495.0</ele><time>2026-04-25T09:49:33.999Z</time></trkpt><trkpt lat="44.49158600683373" lon="8.729248077057425"><ele>495.0</ele><time>2026-04-25T09:49:34.999Z</time></trkpt><trkpt lat="44.49169129289449" lon="8.729221276001734"><ele>495.0</ele><time>2026-04-25T09:49:35.999Z</time></trkpt><trkpt lat="44.491796594027825" lon="8.729205427679926"><ele>495.0</ele><time>2026-04-25T09:49:36.999Z</time></trkpt><trkpt lat="44.49189109984998" lon="8.729146015169967"><ele>495.0</ele><time>2026-04-25T09:49:37.999Z</time></trkpt><trkpt lat="44.49197565877317" lon="8.729036016665797"><ele>495.0</ele><time>2026-04-25T09:49:38.999Z</time></trkpt><trkpt lat="44.49205679436268" lon="8.728922179089345"><ele>495.0</ele><time>2026-04-25T09:49:39.999Z</time></trkpt><trkpt lat="44.49212712946898" lon="8.7288207095609"><ele>495.0</ele><time>2026-04-25T09:49:40.999Z</time></trkpt><trkpt lat="44.492200881221365" lon="8.728727913048127"><ele>495.0</ele><time>2026-04-25T09:49:41.999Z</time></trkpt><trkpt lat="44.49228882763803" lon="8.728647497264173"><ele>495.0</ele><time>2026-04-25T09:49:42.999Z</time></trkpt><trkpt lat="44.492383895448334" lon="8.728571310469873"><ele>492.6</ele><time>2026-04-25T09:49:43.999Z</time></trkpt><trkpt lat="44.49248184836495" lon="8.728497063522813"><ele>490.2</ele><time>2026-04-25T09:49:44.999Z</time></trkpt><trkpt lat="44.49257846957261" lon="8.728419452303847"><ele>487.79999999999995</ele><time>2026-04-25T09:49:45.999Z</time></trkpt><trkpt lat="44.49266100953385" lon="8.728329901103116"><ele>485.4</ele><time>2026-04-25T09:49:46.999Z</time></trkpt><trkpt lat="44.49273213219753" lon="8.72822308535017"><ele>483.0</ele><time>2026-04-25T09:49:47.999Z</time></trkpt><trkpt lat="44.4927991955059" lon="8.728120950777697"><ele>483.0</ele><time>2026-04-25T09:49:48.999Z</time></trkpt><trkpt lat="44.49288780014258" lon="8.728059795897432"><ele>482.99999999999994</ele><time>2026-04-25T09:49:49.999Z</time></trkpt><trkpt lat="44.49297050350171" lon="8.728002777225075"><ele>482.99999999999994</ele><time>2026-04-25T09:49:50.999Z</time></trkpt><trkpt lat="44.49306087329739" lon="8.727957563205461"><ele>483.0</ele><time>2026-04-25T09:49:51.999Z</time></trkpt><trkpt lat="44.49316499534866" lon="8.727959083964162"><ele>483.0</ele><time>2026-04-25T09:49:52.999Z</time></trkpt><trkpt lat="44.493274322097065" lon="8.727988559741016"><ele>479.0</ele><time>2026-04-25T09:49:53.999Z</time></trkpt><trkpt lat="44.493400528943816" lon="8.728026313514675"><ele>475.0</ele><time>2026-04-25T09:49:54.999Z</time></trkpt><trkpt lat="44.49354909979115" lon="8.728112242941318"><ele>471.0</ele><time>2026-04-25T09:49:55.999Z</time></trkpt><trkpt lat="44.493730106387034" lon="8.728190344574536"><ele>472.33333333333337</ele><time>2026-04-25T09:49:56.999Z</time></trkpt><trkpt lat="44.4939055215934" lon="8.728268371395773"><ele>473.6666666666667</ele><time>2026-04-25T09:49:57.999Z</time></trkpt><trkpt lat="44.494061076449974" lon="8.728326825135488"><ele>475.0</ele><time>2026-04-25T09:49:58.999Z</time></trkpt><trkpt lat="44.4941995157513" lon="8.728395466289696"><ele>475.0</ele><time>2026-04-25T09:49:59.999Z</time></trkpt><trkpt lat="44.49431800027391" lon="8.728480562669876"><ele>475.0</ele><time>2026-04-25T09:50:00.999Z</time></trkpt><trkpt lat="44.49443963788599" lon="8.728555536836478"><ele>475.0</ele><time>2026-04-25T09:50:01.999Z</time></trkpt><trkpt lat="44.49457513195804" lon="8.728583872691402"><ele>475.0</ele><time>2026-04-25T09:50:02.999Z</time></trkpt><trkpt lat="44.4947246745008" lon="8.728563489743818"><ele>474.0</ele><time>2026-04-25T09:50:03.999Z</time></trkpt><trkpt lat="44.494891265296665" lon="8.728507198057365"><ele>473.0</ele><time>2026-04-25T09:50:04.999Z</time></trkpt><trkpt lat="44.4950601239971" lon="8.728429573385808"><ele>472.0</ele><time>2026-04-25T09:50:05.999Z</time></trkpt><trkpt lat="44.49523462096662" lon="8.728356207715398"><ele>472.0</ele><time>2026-04-25T09:50:06.999Z</time></trkpt><trkpt lat="44.495413766421635" lon="8.728294312683593"><ele>472.0</ele><time>2026-04-25T09:50:07.999Z</time></trkpt><trkpt lat="44.49559109129253" lon="8.728227421397131"><ele>472.0</ele><time>2026-04-25T09:50:08.999Z</time></trkpt><trkpt lat="44.495763807481836" lon="8.728166710996115"><ele>466.25</ele><time>2026-04-25T09:50:09.999Z</time></trkpt><trkpt lat="44.495930508631155" lon="8.728120796088978"><ele>460.5</ele><time>2026-04-25T09:50:10.999Z</time></trkpt><trkpt lat="44.496071120398504" lon="8.728062920229274"><ele>454.75</ele><time>2026-04-25T09:50:11.999Z</time></trkpt><trkpt lat="44.49618762055131" lon="8.727990194466674"><ele>449.0</ele><time>2026-04-25T09:50:13Z</time></trkpt><trkpt lat="44.49630241910186" lon="8.72795331544923"><ele>447.0</ele><time>2026-04-25T09:50:14Z</time></trkpt><trkpt lat="44.49642809603209" lon="8.72801213469798"><ele>445.0</ele><time>2026-04-25T09:50:15Z</time></trkpt><trkpt lat="44.496567849084265" lon="8.728068733766515"><ele>443.0</ele><time>2026-04-25T09:50:16Z</time></trkpt><trkpt lat="44.49670884203945" lon="8.728146440019103"><ele>441.0</ele><time>2026-04-25T09:50:17Z</time></trkpt><trkpt lat="44.496848809613965" lon="8.72820064201393"><ele>441.0</ele><time>2026-04-25T09:50:18Z</time></trkpt><trkpt lat="44.49696522762191" lon="8.728224853147116"><ele>441.0</ele><time>2026-04-25T09:50:19Z</time></trkpt><trkpt lat="44.49705514116625" lon="8.72820910630053"><ele>441.0</ele><time>2026-04-25T09:50:20Z</time></trkpt><trkpt lat="44.497127277271254" lon="8.728155225646764"><ele>441.0</ele><time>2026-04-25T09:50:21Z</time></trkpt><trkpt lat="44.497177017922404" lon="8.728054938442481"><ele>441.0</ele><time>2026-04-25T09:50:22Z</time></trkpt><trkpt lat="44.49719887905213" lon="8.727902976045145"><ele>439.33333333333337</ele><time>2026-04-25T09:50:23Z</time></trkpt><trkpt lat="44.497206592926304" lon="8.727698661786322"><ele>437.6666666666667</ele><time>2026-04-25T09:50:24Z</time></trkpt><trkpt lat="44.497221240593355" lon="8.727439139936184"><ele>436.0</ele><time>2026-04-25T09:50:25Z</time></trkpt><trkpt lat="44.4972552859351" lon="8.727171207708645"><ele>436.0</ele><time>2026-04-25T09:50:26Z</time></trkpt><trkpt lat="44.49728461201064" lon="8.726912119669132"><ele>436.0</ele><time>2026-04-25T09:50:27Z</time></trkpt><trkpt lat="44.497317435684636" lon="8.726672729439105"><ele>436.0</ele><time>2026-04-25T09:50:28Z</time></trkpt><trkpt lat="44.49733952728754" lon="8.72646405711319"><ele>435.20000000000005</ele><time>2026-04-25T09:50:29Z</time></trkpt><trkpt lat="44.49735051118877" lon="8.72628955411032"><ele>434.40000000000003</ele><time>2026-04-25T09:50:30Z</time></trkpt><trkpt lat="44.497345066638545" lon="8.726132221765985"><ele>433.6</ele><time>2026-04-25T09:50:31Z</time></trkpt><trkpt lat="44.49730061304534" lon="8.725993929258685"><ele>432.8</ele><time>2026-04-25T09:50:32Z</time></trkpt><trkpt lat="44.49722544495571" lon="8.725895053348927"><ele>432.0</ele><time>2026-04-25T09:50:33Z</time></trkpt><trkpt lat="44.49711634300493" lon="8.72584692382948"><ele>434.25</ele><time>2026-04-25T09:50:34Z</time></trkpt><trkpt lat="44.496995001092586" lon="8.725832824210594"><ele>436.5</ele><time>2026-04-25T09:50:35Z</time></trkpt><trkpt lat="44.49686800566071" lon="8.725800333613797"><ele>438.75</ele><time>2026-04-25T09:50:36Z</time></trkpt><trkpt lat="44.49676200234112" lon="8.72575911452811"><ele>441.0</ele><time>2026-04-25T09:50:37Z</time></trkpt><trkpt lat="44.496681216831604" lon="8.725688399614105"><ele>441.0</ele><time>2026-04-25T09:50:38Z</time></trkpt><trkpt lat="44.49662370200488" lon="8.725577214885517"><ele>441.0</ele><time>2026-04-25T09:50:39Z</time></trkpt><trkpt lat="44.49660207343669" lon="8.725432502033492"><ele>441.0</ele><time>2026-04-25T09:50:40Z</time></trkpt><trkpt lat="44.49661707644501" lon="8.725289375614567"><ele>441.0</ele><time>2026-04-25T09:50:41Z</time></trkpt><trkpt lat="44.496668965975026" lon="8.72517540173073"><ele>441.0</ele><time>2026-04-25T09:50:42Z</time></trkpt><trkpt lat="44.49675742687793" lon="8.725096743552522"><ele>441.25</ele><time>2026-04-25T09:50:43Z</time></trkpt><trkpt lat="44.496875157546285" lon="8.725046349401882"><ele>441.5</ele><time>2026-04-25T09:50:44Z</time></trkpt><trkpt lat="44.497003935814185" lon="8.725022617911359"><ele>441.75</ele><time>2026-04-25T09:50:45Z</time></trkpt><trkpt lat="44.49711614446532" lon="8.724974240848663"><ele>442.0</ele><time>2026-04-25T09:50:46Z</time></trkpt><trkpt lat="44.49720976474701" lon="8.724877521984402"><ele>438.6666666666667</ele><time>2026-04-25T09:50:47Z</time></trkpt><trkpt lat="44.49728767701532" lon="8.72472704707813"><ele>435.33333333333337</ele><time>2026-04-25T09:50:48Z</time></trkpt><trkpt lat="44.497354058061305" lon="8.724525093450119"><ele>432.0</ele><time>2026-04-25T09:50:49Z</time></trkpt><trkpt lat="44.49742560666832" lon="8.724289461404807"><ele>432.0</ele><time>2026-04-25T09:50:50Z</time></trkpt><trkpt lat="44.49749032026748" lon="8.724052381073518"><ele>432.0</ele><time>2026-04-25T09:50:51Z</time></trkpt><trkpt lat="44.497563166454434" lon="8.723814803662533"><ele>432.0</ele><time>2026-04-25T09:50:52Z</time></trkpt><trkpt lat="44.49763272014516" lon="8.723590313747982"><ele>437.0</ele><time>2026-04-25T09:50:53Z</time></trkpt><trkpt lat="44.49768221214224" lon="8.723370268777986"><ele>442.0</ele><time>2026-04-25T09:50:54Z</time></trkpt><trkpt lat="44.49772183959517" lon="8.723159897277487"><ele>447.0</ele><time>2026-04-25T09:50:55Z</time></trkpt><trkpt lat="44.497799046399905" lon="8.723005524167414"><ele>447.0</ele><time>2026-04-25T09:50:56Z</time></trkpt><trkpt lat="44.49787869802811" lon="8.722876311681071"><ele>447.0</ele><time>2026-04-25T09:50:57Z</time></trkpt><trkpt lat="44.49799772538327" lon="8.722796788780975"><ele>447.0</ele><time>2026-04-25T09:50:58Z</time></trkpt><trkpt lat="44.498139954088565" lon="8.722720009974832"><ele>447.0</ele><time>2026-04-25T09:50:59Z</time></trkpt><trkpt lat="44.49829480642653" lon="8.722619288190081"><ele>440.66666666666663</ele><time>2026-04-25T09:51:00Z</time></trkpt><trkpt lat="44.49845621724104" lon="8.7225065862318"><ele>434.3333333333333</ele><time>2026-04-25T09:51:01Z</time></trkpt><trkpt lat="44.49860726100314" lon="8.722401948388681"><ele>428.0</ele><time>2026-04-25T09:51:02Z</time></trkpt><trkpt lat="44.49875309639323" lon="8.72230661958981"><ele>423.3333333333333</ele><time>2026-04-25T09:51:03Z</time></trkpt><trkpt lat="44.49890855128321" lon="8.722217853313477"><ele>418.66666666666663</ele><time>2026-04-25T09:51:04Z</time></trkpt><trkpt lat="44.499066994462645" lon="8.722151630436308"><ele>414.0</ele><time>2026-04-25T09:51:05Z</time></trkpt><trkpt lat="44.4992258512376" lon="8.72208981472845"><ele>414.0</ele><time>2026-04-25T09:51:06Z</time></trkpt><trkpt lat="44.499362231312716" lon="8.722015155341865"><ele>414.0</ele><time>2026-04-25T09:51:07Z</time></trkpt><trkpt lat="44.4994735720927" lon="8.721953239118525"><ele>414.0</ele><time>2026-04-25T09:51:08Z</time></trkpt><trkpt lat="44.499559983589265" lon="8.72185827074067"><ele>414.0</ele><time>2026-04-25T09:51:09Z</time></trkpt><trkpt lat="44.499624701542245" lon="8.721719073073514"><ele>413.0</ele><time>2026-04-25T09:51:10Z</time></trkpt><trkpt lat="44.49966242746903" lon="8.721542975570108"><ele>412.0</ele><time>2026-04-25T09:51:11Z</time></trkpt><trkpt lat="44.49967862545542" lon="8.721333628303581"><ele>411.0</ele><time>2026-04-25T09:51:12Z</time></trkpt><trkpt lat="44.499685272461534" lon="8.72111740338206"><ele>410.0</ele><time>2026-04-25T09:51:13Z</time></trkpt><trkpt lat="44.49970225385689" lon="8.72092542472804"><ele>410.0</ele><time>2026-04-25T09:51:14Z</time></trkpt><trkpt lat="44.49974006169643" lon="8.720749578947999"><ele>410.0</ele><time>2026-04-25T09:51:15Z</time></trkpt><trkpt lat="44.49978765359188" lon="8.720581988831306"><ele>410.0</ele><time>2026-04-25T09:51:16Z</time></trkpt><trkpt lat="44.49985192715657" lon="8.720436053513582"><ele>410.0</ele><time>2026-04-25T09:51:17Z</time></trkpt><trkpt lat="44.499913070617495" lon="8.720297582808852"><ele>409.8</ele><time>2026-04-25T09:51:18Z</time></trkpt><trkpt lat="44.49997724395033" lon="8.720173722048354"><ele>409.6</ele><time>2026-04-25T09:51:19Z</time></trkpt><trkpt lat="44.50004292697897" lon="8.72005978536977"><ele>409.4</ele><time>2026-04-25T09:51:19.999Z</time></trkpt><trkpt lat="44.500101089546554" lon="8.71993838432608"><ele>409.2</ele><time>2026-04-25T09:51:20.999Z</time></trkpt><trkpt lat="44.50017153037686" lon="8.719831069300978"><ele>409.0</ele><time>2026-04-25T09:51:21.999Z</time></trkpt><trkpt lat="44.50024472980998" lon="8.719719371324038"><ele>409.0</ele><time>2026-04-25T09:51:22.999Z</time></trkpt><trkpt lat="44.50031372117262" lon="8.719602906665335"><ele>409.0</ele><time>2026-04-25T09:51:23.999Z</time></trkpt><trkpt lat="44.500377801239615" lon="8.71949175139788"><ele>409.0</ele><time>2026-04-25T09:51:24.999Z</time></trkpt><trkpt lat="44.50044322263931" lon="8.719378332927816"><ele>409.0</ele><time>2026-04-25T09:51:25.999Z</time></trkpt><trkpt lat="44.50050885772903" lon="8.719259456430242"><ele>409.0</ele><time>2026-04-25T09:51:26.999Z</time></trkpt><trkpt lat="44.50057762721805" lon="8.719136055049335"><ele>408.79999999999995</ele><time>2026-04-25T09:51:27.999Z</time></trkpt><trkpt lat="44.50064667014526" lon="8.719021339568009"><ele>408.59999999999997</ele><time>2026-04-25T09:51:28.999Z</time></trkpt><trkpt lat="44.50071804586144" lon="8.718902635134794"><ele>408.4</ele><time>2026-04-25T09:51:29.999Z</time></trkpt><trkpt lat="44.50078905430455" lon="8.718781035918209"><ele>408.2</ele><time>2026-04-25T09:51:30.999Z</time></trkpt><trkpt lat="44.500857580936376" lon="8.718655043998595"><ele>408.0</ele><time>2026-04-25T09:51:31.999Z</time></trkpt><trkpt lat="44.50092510548475" lon="8.718531694117496"><ele>407.2</ele><time>2026-04-25T09:51:32.999Z</time></trkpt><trkpt lat="44.5009952828391" lon="8.718415677212748"><ele>406.4</ele><time>2026-04-25T09:51:33.999Z</time></trkpt><trkpt lat="44.501067350429" lon="8.718299411823992"><ele>405.59999999999997</ele><time>2026-04-25T09:51:34.999Z</time></trkpt><trkpt lat="44.50113871388947" lon="8.718180786103758"><ele>404.79999999999995</ele><time>2026-04-25T09:51:35.999Z</time></trkpt><trkpt lat="44.50120866546516" lon="8.718056651476038"><ele>404.0</ele><time>2026-04-25T09:51:36.999Z</time></trkpt><trkpt lat="44.50127772177625" lon="8.71793172059356"><ele>404.0</ele><time>2026-04-25T09:51:37.999Z</time></trkpt><trkpt lat="44.50134941310954" lon="8.717807048279603"><ele>404.0</ele><time>2026-04-25T09:51:38.999Z</time></trkpt><trkpt lat="44.501423046332356" lon="8.717686891838703"><ele>404.0</ele><time>2026-04-25T09:51:39.999Z</time></trkpt><trkpt lat="44.501494114562945" lon="8.717562020157441"><ele>404.0</ele><time>2026-04-25T09:51:40.999Z</time></trkpt><trkpt lat="44.50155464006435" lon="8.717440495968729"><ele>404.0</ele><time>2026-04-25T09:51:41.999Z</time></trkpt><trkpt lat="44.501602890272274" lon="8.717328659945863"><ele>403.8333333333333</ele><time>2026-04-25T09:51:42.999Z</time></trkpt><trkpt lat="44.50163400029437" lon="8.7172257380298"><ele>403.66666666666663</ele><time>2026-04-25T09:51:43.999Z</time></trkpt><trkpt lat="44.50167145298241" lon="8.717123302450764"><ele>403.5</ele><time>2026-04-25T09:51:44.999Z</time></trkpt><trkpt lat="44.50169467163651" lon="8.717017436184989"><ele>403.33333333333337</ele><time>2026-04-25T09:51:45.999Z</time></trkpt><trkpt lat="44.501715023240735" lon="8.716915207797634"><ele>403.1666666666667</ele><time>2026-04-25T09:51:46.999Z</time></trkpt><trkpt lat="44.50178026365642" lon="8.716803701844432"><ele>403.0</ele><time>2026-04-25T09:51:48.999Z</time></trkpt><trkpt lat="44.501861410676455" lon="8.716844079568828"><ele>403.0</ele><time>2026-04-25T09:51:50.999Z</time></trkpt><trkpt lat="44.501925041907654" lon="8.716989623506908"><ele>403.0</ele><time>2026-04-25T09:51:52.999Z</time></trkpt><trkpt lat="44.501973536948924" lon="8.717103755750124"><ele>403.0</ele><time>2026-04-25T09:51:53.999Z</time></trkpt><trkpt lat="44.50203144144046" lon="8.71726003504931"><ele>403.0</ele><time>2026-04-25T09:51:54.999Z</time></trkpt><trkpt lat="44.50211773136389" lon="8.717417119037819"><ele>404.0</ele><time>2026-04-25T09:51:55.999Z</time></trkpt><trkpt lat="44.5021887274269" lon="8.717566709357822"><ele>405.0</ele><time>2026-04-25T09:51:56.999Z</time></trkpt><trkpt lat="44.50225806979661" lon="8.717714835230943"><ele>406.0</ele><time>2026-04-25T09:51:57.999Z</time></trkpt><trkpt lat="44.50233307476802" lon="8.71788390157486"><ele>407.0</ele><time>2026-04-25T09:51:58.999Z</time></trkpt><trkpt lat="44.502416648346234" lon="8.718056431559226"><ele>407.0</ele><time>2026-04-25T09:51:59.999Z</time></trkpt><trkpt lat="44.50250137995721" lon="8.718214951084443"><ele>407.0</ele><time>2026-04-25T09:52:00.999Z</time></trkpt><trkpt lat="44.50257948401394" lon="8.718368786686069"><ele>407.0</ele><time>2026-04-25T09:52:01.999Z</time></trkpt><trkpt lat="44.50265462165211" lon="8.718520605076396"><ele>407.0</ele><time>2026-04-25T09:52:02.999Z</time></trkpt><trkpt lat="44.50273159988196" lon="8.718676226524533"><ele>407.3333333333333</ele><time>2026-04-25T09:52:03.999Z</time></trkpt><trkpt lat="44.50280905277899" lon="8.718850120471474"><ele>407.66666666666663</ele><time>2026-04-25T09:52:04.999Z</time></trkpt><trkpt lat="44.50289059738502" lon="8.71903019972766"><ele>408.0</ele><time>2026-04-25T09:52:05.999Z</time></trkpt><trkpt lat="44.50295471987739" lon="8.719238029996285"><ele>407.75</ele><time>2026-04-25T09:52:06.999Z</time></trkpt><trkpt lat="44.503033150573565" lon="8.71943706550879"><ele>407.5</ele><time>2026-04-25T09:52:07.999Z</time></trkpt><trkpt lat="44.503116250399266" lon="8.719609391255274"><ele>407.25</ele><time>2026-04-25T09:52:08.999Z</time></trkpt><trkpt lat="44.50317180411724" lon="8.71978279799877"><ele>407.0</ele><time>2026-04-25T09:52:09.999Z</time></trkpt><trkpt lat="44.503255362622674" lon="8.719935419883384"><ele>407.0</ele><time>2026-04-25T09:52:10.999Z</time></trkpt><trkpt lat="44.5033667642324" lon="8.720048539849424"><ele>407.0</ele><time>2026-04-25T09:52:11.999Z</time></trkpt><trkpt lat="44.503480115973616" lon="8.720172545518626"><ele>407.0</ele><time>2026-04-25T09:52:12.999Z</time></trkpt><trkpt lat="44.50360334081158" lon="8.720301742430173"><ele>407.0</ele><time>2026-04-25T09:52:13.999Z</time></trkpt><trkpt lat="44.50370966879769" lon="8.720442223600337"><ele>408.75</ele><time>2026-04-25T09:52:14.999Z</time></trkpt><trkpt lat="44.50382585568849" lon="8.720537265374004"><ele>410.5</ele><time>2026-04-25T09:52:15.999Z</time></trkpt><trkpt lat="44.503918464652656" lon="8.720635183407714"><ele>412.25</ele><time>2026-04-25T09:52:16.999Z</time></trkpt><trkpt lat="44.50401637611946" lon="8.720711235203128"><ele>414.0</ele><time>2026-04-25T09:52:17.999Z</time></trkpt><trkpt lat="44.50411771193433" lon="8.720787775349098"><ele>414.0</ele><time>2026-04-25T09:52:19Z</time></trkpt><trkpt lat="44.50423425856881" lon="8.720819374134393"><ele>414.0</ele><time>2026-04-25T09:52:20Z</time></trkpt><trkpt lat="44.50433902135606" lon="8.720871535854677"><ele>414.0</ele><time>2026-04-25T09:52:21Z</time></trkpt><trkpt lat="44.50443395861257" lon="8.720909210188156"><ele>414.0</ele><time>2026-04-25T09:52:22Z</time></trkpt><trkpt lat="44.504511984807486" lon="8.720971931364248"><ele>414.0</ele><time>2026-04-25T09:52:23Z</time></trkpt><trkpt lat="44.50459197702715" lon="8.721025656484366"><ele>416.6</ele><time>2026-04-25T09:52:24Z</time></trkpt><trkpt lat="44.50466883716389" lon="8.721092104018844"><ele>419.2</ele><time>2026-04-25T09:52:25Z</time></trkpt><trkpt lat="44.504748108022966" lon="8.721162627086708"><ele>421.80000000000007</ele><time>2026-04-25T09:52:26Z</time></trkpt><trkpt lat="44.5047896081255" lon="8.721291900912203"><ele>424.40000000000003</ele><time>2026-04-25T09:52:27Z</time></trkpt><trkpt lat="44.50483353730843" lon="8.72142380732376"><ele>427.0</ele><time>2026-04-25T09:52:28Z</time></trkpt><trkpt lat="44.504855538096194" lon="8.72156360934218"><ele>427.0</ele><time>2026-04-25T09:52:29Z</time></trkpt><trkpt lat="44.504863545183" lon="8.721716627338246"><ele>427.0</ele><time>2026-04-25T09:52:30Z</time></trkpt><trkpt lat="44.504856059948466" lon="8.721879768070703"><ele>427.0</ele><time>2026-04-25T09:52:31Z</time></trkpt><trkpt lat="44.50483829290557" lon="8.72205062645472"><ele>427.0</ele><time>2026-04-25T09:52:32Z</time></trkpt><trkpt lat="44.504811735488644" lon="8.722219181631434"><ele>425.5</ele><time>2026-04-25T09:52:33Z</time></trkpt><trkpt lat="44.504769323489896" lon="8.722371541617763"><ele>424.0</ele><time>2026-04-25T09:52:34Z</time></trkpt><trkpt lat="44.50471493782416" lon="8.72252145315644"><ele>422.5</ele><time>2026-04-25T09:52:35Z</time></trkpt><trkpt lat="44.50466636220511" lon="8.722686568832227"><ele>421.0</ele><time>2026-04-25T09:52:36Z</time></trkpt><trkpt lat="44.504596004404256" lon="8.722850754750315"><ele>418.33333333333337</ele><time>2026-04-25T09:52:37Z</time></trkpt><trkpt lat="44.50451570780963" lon="8.723044639010824"><ele>415.66666666666663</ele><time>2026-04-25T09:52:38Z</time></trkpt><trkpt lat="44.504430220444775" lon="8.72325983862879"><ele>413.0</ele><time>2026-04-25T09:52:39Z</time></trkpt><trkpt lat="44.50433453269305" lon="8.723494060229939"><ele>413.3333333333333</ele><time>2026-04-25T09:52:40Z</time></trkpt><trkpt lat="44.50423343171825" lon="8.72373876184437"><ele>413.66666666666663</ele><time>2026-04-25T09:52:41Z</time></trkpt><trkpt lat="44.50414001679698" lon="8.72398470274751"><ele>414.0</ele><time>2026-04-25T09:52:42Z</time></trkpt><trkpt lat="44.50404587140204" lon="8.724230893428048"><ele>414.66666666666663</ele><time>2026-04-25T09:52:43Z</time></trkpt><trkpt lat="44.50395163707676" lon="8.724483439911841"><ele>415.3333333333333</ele><time>2026-04-25T09:52:44Z</time></trkpt><trkpt lat="44.50385619530521" lon="8.724733628240912"><ele>416.0</ele><time>2026-04-25T09:52:45Z</time></trkpt><trkpt lat="44.503763038036375" lon="8.724964449080641"><ele>415.66666666666663</ele><time>2026-04-25T09:52:46Z</time></trkpt><trkpt lat="44.503679397886735" lon="8.725179503616618"><ele>415.33333333333337</ele><time>2026-04-25T09:52:47Z</time></trkpt><trkpt lat="44.503599894827225" lon="8.725390089557925"><ele>415.0</ele><time>2026-04-25T09:52:48Z</time></trkpt><trkpt lat="44.503526173106906" lon="8.725591280828244"><ele>415.0</ele><time>2026-04-25T09:52:49Z</time></trkpt><trkpt lat="44.50345837172615" lon="8.72579742374939"><ele>415.0</ele><time>2026-04-25T09:52:50Z</time></trkpt><trkpt lat="44.503387546827604" lon="8.725996174423123"><ele>415.0</ele><time>2026-04-25T09:52:51Z</time></trkpt><trkpt lat="44.50330413482598" lon="8.726172482950787"><ele>418.5</ele><time>2026-04-25T09:52:52Z</time></trkpt><trkpt lat="44.50322503792308" lon="8.726330236878768"><ele>422.0</ele><time>2026-04-25T09:52:53Z</time></trkpt><trkpt lat="44.50316624206126" lon="8.72646894843661"><ele>425.5</ele><time>2026-04-25T09:52:54Z</time></trkpt><trkpt lat="44.5031324337006" lon="8.726598139347267"><ele>429.0</ele><time>2026-04-25T09:52:55Z</time></trkpt><trkpt lat="44.50312759943152" lon="8.726742801904038"><ele>430.75</ele><time>2026-04-25T09:52:56Z</time></trkpt><trkpt lat="44.503146860843195" lon="8.726911354651218"><ele>432.5</ele><time>2026-04-25T09:52:57Z</time></trkpt><trkpt lat="44.503166536198776" lon="8.72710419742393"><ele>434.25</ele><time>2026-04-25T09:52:58Z</time></trkpt><trkpt lat="44.503176155496654" lon="8.72730922859363"><ele>436.0</ele><time>2026-04-25T09:52:59Z</time></trkpt><trkpt lat="44.5031879413588" lon="8.727484521830476"><ele>436.0</ele><time>2026-04-25T09:53:00Z</time></trkpt><trkpt lat="44.50322892927137" lon="8.727635272765177"><ele>436.0</ele><time>2026-04-25T09:53:01Z</time></trkpt><trkpt lat="44.5032990921333" lon="8.727796214048707"><ele>436.0</ele><time>2026-04-25T09:53:02Z</time></trkpt><trkpt lat="44.50336161124808" lon="8.727986425290105"><ele>436.0</ele><time>2026-04-25T09:53:03Z</time></trkpt><trkpt lat="44.503399820013584" lon="8.728209134941919"><ele>434.33333333333337</ele><time>2026-04-25T09:53:04Z</time></trkpt><trkpt lat="44.50345244081687" lon="8.728464554893467"><ele>432.66666666666663</ele><time>2026-04-25T09:53:05Z</time></trkpt><trkpt lat="44.50351985811879" lon="8.728689527260702"><ele>431.0</ele><time>2026-04-25T09:53:06Z</time></trkpt><trkpt lat="44.50357483100721" lon="8.728880126359892"><ele>432.0</ele><time>2026-04-25T09:53:07Z</time></trkpt><trkpt lat="44.50363278770257" lon="8.729048417922732"><ele>433.0</ele><time>2026-04-25T09:53:08Z</time></trkpt><trkpt lat="44.50370244664233" lon="8.729221923850346"><ele>434.0</ele><time>2026-04-25T09:53:09Z</time></trkpt><trkpt lat="44.50378071932792" lon="8.729409002988868"><ele>435.0</ele><time>2026-04-25T09:53:09.999Z</time></trkpt><trkpt lat="44.50387378357788" lon="8.729607412366343"><ele>435.0</ele><time>2026-04-25T09:53:10.999Z</time></trkpt><trkpt lat="44.503980342041146" lon="8.729824703826495"><ele>435.0</ele><time>2026-04-25T09:53:11.999Z</time></trkpt><trkpt lat="44.5040997575196" lon="8.730030636868321"><ele>435.0</ele><time>2026-04-25T09:53:12.999Z</time></trkpt><trkpt lat="44.50420835173288" lon="8.73021342403742"><ele>432.0</ele><time>2026-04-25T09:53:13.999Z</time></trkpt><trkpt lat="44.5043067987891" lon="8.730387109141526"><ele>429.0</ele><time>2026-04-25T09:53:14.999Z</time></trkpt><trkpt lat="44.504388550891825" lon="8.730564029640787"><ele>426.0</ele><time>2026-04-25T09:53:15.999Z</time></trkpt><trkpt lat="44.50444167230526" lon="8.73073877465509"><ele>423.0</ele><time>2026-04-25T09:53:16.999Z</time></trkpt><trkpt lat="44.504464403060716" lon="8.730905642864453"><ele>424.0</ele><time>2026-04-25T09:53:17.999Z</time></trkpt><trkpt lat="44.50446175711046" lon="8.73108923516044"><ele>425.0</ele><time>2026-04-25T09:53:18.999Z</time></trkpt><trkpt lat="44.5044583014529" lon="8.731284536874702"><ele>426.0</ele><time>2026-04-25T09:53:19.999Z</time></trkpt><trkpt lat="44.50445525222664" lon="8.731493225219547"><ele>427.0</ele><time>2026-04-25T09:53:20.999Z</time></trkpt><trkpt lat="44.50445200514596" lon="8.7317178719775"><ele>428.6666666666667</ele><time>2026-04-25T09:53:21.999Z</time></trkpt><trkpt lat="44.50444781810077" lon="8.731951178185808"><ele>430.33333333333337</ele><time>2026-04-25T09:53:22.999Z</time></trkpt><trkpt lat="44.50444267561906" lon="8.732171503588056"><ele>432.0</ele><time>2026-04-25T09:53:23.999Z</time></trkpt><trkpt lat="44.504456042580166" lon="8.732384507268291"><ele>432.0</ele><time>2026-04-25T09:53:24.999Z</time></trkpt><trkpt lat="44.50446765203856" lon="8.73260825080317"><ele>432.0</ele><time>2026-04-25T09:53:25.999Z</time></trkpt><trkpt lat="44.5045002144989" lon="8.73284868659626"><ele>432.0</ele><time>2026-04-25T09:53:26.999Z</time></trkpt><trkpt lat="44.50452386610981" lon="8.733097882063182"><ele>432.33333333333337</ele><time>2026-04-25T09:53:27.999Z</time></trkpt><trkpt lat="44.50455840667731" lon="8.733327297897054"><ele>432.6666666666667</ele><time>2026-04-25T09:53:28.999Z</time></trkpt><trkpt lat="44.50459363713065" lon="8.733538596602335"><ele>433.0</ele><time>2026-04-25T09:53:29.999Z</time></trkpt><trkpt lat="44.5046335276692" lon="8.733738819750558"><ele>434.0</ele><time>2026-04-25T09:53:30.999Z</time></trkpt><trkpt lat="44.50468728446929" lon="8.733940632968789"><ele>435.0</ele><time>2026-04-25T09:53:31.999Z</time></trkpt><trkpt lat="44.50475050763793" lon="8.734131506672902"><ele>436.0</ele><time>2026-04-25T09:53:32.999Z</time></trkpt><trkpt lat="44.504807945800806" lon="8.734288651879197"><ele>437.0</ele><time>2026-04-25T09:53:33.999Z</time></trkpt><trkpt lat="44.504856225697004" lon="8.734417290954587"><ele>437.0</ele><time>2026-04-25T09:53:34.999Z</time></trkpt><trkpt lat="44.50489526076573" lon="8.734510743191386"><ele>437.00000000000006</ele><time>2026-04-25T09:53:35.999Z</time></trkpt><trkpt lat="44.504925550835914" lon="8.73464190768839"><ele>437.00000000000006</ele><time>2026-04-25T09:53:37.999Z</time></trkpt><trkpt lat="44.50482946310295" lon="8.734758971971548"><ele>437.0</ele><time>2026-04-25T09:53:39.999Z</time></trkpt><trkpt lat="44.50478542035055" lon="8.73484861418004"><ele>437.0</ele><time>2026-04-25T09:53:40.999Z</time></trkpt><trkpt lat="44.50473379837706" lon="8.7349491396132"><ele>437.0</ele><time>2026-04-25T09:53:41.999Z</time></trkpt><trkpt lat="44.50467547908579" lon="8.735058383478364"><ele>437.00000000000006</ele><time>2026-04-25T09:53:42.999Z</time></trkpt><trkpt lat="44.504595587732524" lon="8.735186187954318"><ele>437.00000000000006</ele><time>2026-04-25T09:53:43.999Z</time></trkpt><trkpt lat="44.50451089868428" lon="8.735298361041835"><ele>437.0</ele><time>2026-04-25T09:53:44.999Z</time></trkpt><trkpt lat="44.50443143078778" lon="8.73540596293295"><ele>437.0</ele><time>2026-04-25T09:53:45.999Z</time></trkpt><trkpt lat="44.50436506503588" lon="8.735515423568495"><ele>439.0</ele><time>2026-04-25T09:53:46.999Z</time></trkpt><trkpt lat="44.50431647046947" lon="8.735636290160086"><ele>441.0</ele><time>2026-04-25T09:53:47.999Z</time></trkpt><trkpt lat="44.50429968810017" lon="8.7357920638884"><ele>443.0</ele><time>2026-04-25T09:53:48.999Z</time></trkpt><trkpt lat="44.50435983428975" lon="8.73595961787948"><ele>445.0</ele><time>2026-04-25T09:53:49.999Z</time></trkpt><trkpt lat="44.50441054628399" lon="8.736127596945497"><ele>442.33333333333337</ele><time>2026-04-25T09:53:50.999Z</time></trkpt><trkpt lat="44.504465248020274" lon="8.736315041047414"><ele>439.66666666666663</ele><time>2026-04-25T09:53:51.999Z</time></trkpt><trkpt lat="44.50452653448511" lon="8.736484190127602"><ele>437.0</ele><time>2026-04-25T09:53:52.999Z</time></trkpt><trkpt lat="44.50459565987104" lon="8.736704218030075"><ele>437.0</ele><time>2026-04-25T09:53:53.999Z</time></trkpt><trkpt lat="44.5046525388381" lon="8.736872405079389"><ele>437.00000000000006</ele><time>2026-04-25T09:53:54.999Z</time></trkpt><trkpt lat="44.50467726095839" lon="8.737014326183251"><ele>437.00000000000006</ele><time>2026-04-25T09:53:55.999Z</time></trkpt><trkpt lat="44.50469401659492" lon="8.737112732928807"><ele>437.0</ele><time>2026-04-25T09:53:56.999Z</time></trkpt><trkpt lat="44.50466702671736" lon="8.737266454723335"><ele>437.0</ele><time>2026-04-25T09:53:58.999Z</time></trkpt><trkpt lat="44.50460199282102" lon="8.737328229776889"><ele>443.6</ele><time>2026-04-25T09:53:59.999Z</time></trkpt><trkpt lat="44.50453436892528" lon="8.737437290117972"><ele>450.20000000000005</ele><time>2026-04-25T09:54:00.999Z</time></trkpt><trkpt lat="44.50447085215953" lon="8.737543210131532"><ele>456.8</ele><time>2026-04-25T09:54:01.999Z</time></trkpt><trkpt lat="44.504457828958344" lon="8.73767872146093"><ele>463.4</ele><time>2026-04-25T09:54:02.999Z</time></trkpt><trkpt lat="44.50448580286454" lon="8.737804741068802"><ele>470.0</ele><time>2026-04-25T09:54:03.999Z</time></trkpt><trkpt lat="44.504535970858434" lon="8.737920385637914"><ele>465.8</ele><time>2026-04-25T09:54:04.999Z</time></trkpt><trkpt lat="44.50459057445758" lon="8.738033135574074"><ele>461.6</ele><time>2026-04-25T09:54:05.999Z</time></trkpt><trkpt lat="44.50470079593798" lon="8.738041765586592"><ele>457.4</ele><time>2026-04-25T09:54:06.999Z</time></trkpt><trkpt lat="44.504786677369395" lon="8.738071578827928"><ele>453.2</ele><time>2026-04-25T09:54:07.999Z</time></trkpt><trkpt lat="44.5048479484839" lon="8.738178896661903"><ele>449.0</ele><time>2026-04-25T09:54:08.999Z</time></trkpt><trkpt lat="44.50485592988635" lon="8.738343910159356"><ele>449.0</ele><time>2026-04-25T09:54:09.999Z</time></trkpt><trkpt lat="44.50487169742322" lon="8.73848501741095"><ele>449.0</ele><time>2026-04-25T09:54:10.999Z</time></trkpt><trkpt lat="44.5048739201923" lon="8.738645605930111"><ele>449.0</ele><time>2026-04-25T09:54:11.999Z</time></trkpt><trkpt lat="44.50488080098011" lon="8.738839678349933"><ele>449.0</ele><time>2026-04-25T09:54:12.999Z</time></trkpt><trkpt lat="44.504958447747875" lon="8.739054363932865"><ele>456.3333333333333</ele><time>2026-04-25T09:54:13.999Z</time></trkpt><trkpt lat="44.505012898836384" lon="8.739270773191496"><ele>463.66666666666663</ele><time>2026-04-25T09:54:14.999Z</time></trkpt><trkpt lat="44.50508524878373" lon="8.739480193316965"><ele>471.0</ele><time>2026-04-25T09:54:15.999Z</time></trkpt><trkpt lat="44.50520351781653" lon="8.739683099795418"><ele>471.0</ele><time>2026-04-25T09:54:16.999Z</time></trkpt><trkpt lat="44.50530928213474" lon="8.739888112749101"><ele>471.0</ele><time>2026-04-25T09:54:17.999Z</time></trkpt><trkpt lat="44.505397039867944" lon="8.740032360449256"><ele>471.0</ele><time>2026-04-25T09:54:18.999Z</time></trkpt><trkpt lat="44.5054965641694" lon="8.740121455106092"><ele>471.0</ele><time>2026-04-25T09:54:19.999Z</time></trkpt><trkpt lat="44.50555371469767" lon="8.740220544053688"><ele>475.8</ele><time>2026-04-25T09:54:20.999Z</time></trkpt><trkpt lat="44.50556613858101" lon="8.740315648406854"><ele>480.6</ele><time>2026-04-25T09:54:21.999Z</time></trkpt><trkpt lat="44.50559511921521" lon="8.740432235278432"><ele>485.4</ele><time>2026-04-25T09:54:22.999Z</time></trkpt><trkpt lat="44.505650649548826" lon="8.740550711991126"><ele>490.2</ele><time>2026-04-25T09:54:23.999Z</time></trkpt><trkpt lat="44.50572382305349" lon="8.740636768402746"><ele>495.0</ele><time>2026-04-25T09:54:25Z</time></trkpt><trkpt lat="44.505828919479356" lon="8.740700115519651"><ele>495.0</ele><time>2026-04-25T09:54:26Z</time></trkpt><trkpt lat="44.50594532448049" lon="8.740752001731437"><ele>495.0</ele><time>2026-04-25T09:54:27Z</time></trkpt><trkpt lat="44.506055398335924" lon="8.740780607854127"><ele>495.0</ele><time>2026-04-25T09:54:28Z</time></trkpt><trkpt lat="44.50615716633423" lon="8.740768030574392"><ele>495.0</ele><time>2026-04-25T09:54:29Z</time></trkpt><trkpt lat="44.506267410556596" lon="8.740765432479106"><ele>495.0</ele><time>2026-04-25T09:54:30Z</time></trkpt><trkpt lat="44.50638770530373" lon="8.740734166904858"><ele>493.6</ele><time>2026-04-25T09:54:31Z</time></trkpt><trkpt lat="44.506491778742706" lon="8.74070610481294"><ele>492.2</ele><time>2026-04-25T09:54:32Z</time></trkpt><trkpt lat="44.50656963508961" lon="8.740696302569582"><ele>490.79999999999995</ele><time>2026-04-25T09:54:33Z</time></trkpt><trkpt lat="44.506666923214794" lon="8.740799371556957"><ele>489.4</ele><time>2026-04-25T09:54:35Z</time></trkpt><trkpt lat="44.50670840782887" lon="8.740894426219185"><ele>488.0</ele><time>2026-04-25T09:54:36Z</time></trkpt><trkpt lat="44.5067644241879" lon="8.741005367141703"><ele>491.79999999999995</ele><time>2026-04-25T09:54:37Z</time></trkpt><trkpt lat="44.50676854632893" lon="8.74116084709176"><ele>495.59999999999997</ele><time>2026-04-25T09:54:38Z</time></trkpt><trkpt lat="44.506796852748145" lon="8.741277625720919"><ele>499.40000000000003</ele><time>2026-04-25T09:54:39Z</time></trkpt><trkpt lat="44.50684391286406" lon="8.741361378038944"><ele>503.20000000000005</ele><time>2026-04-25T09:54:40Z</time></trkpt><trkpt lat="44.50694176000434" lon="8.741386051221953"><ele>507.0</ele><time>2026-04-25T09:54:41Z</time></trkpt><trkpt lat="44.507047342937874" lon="8.74132486919753"><ele>507.6</ele><time>2026-04-25T09:54:42Z</time></trkpt><trkpt lat="44.50713443493931" lon="8.741206848965323"><ele>508.20000000000005</ele><time>2026-04-25T09:54:43Z</time></trkpt><trkpt lat="44.507231647946746" lon="8.741152710701687"><ele>508.8</ele><time>2026-04-25T09:54:44Z</time></trkpt><trkpt lat="44.50730872234146" lon="8.741123459099517"><ele>509.4</ele><time>2026-04-25T09:54:45Z</time></trkpt><trkpt lat="44.507362562156" lon="8.741169667928922"><ele>510.0</ele><time>2026-04-25T09:54:46Z</time></trkpt><trkpt lat="44.50745020507755" lon="8.741208359467851"><ele>510.0</ele><time>2026-04-25T09:54:47Z</time></trkpt><trkpt lat="44.507572235674026" lon="8.74127089093314"><ele>510.0</ele><time>2026-04-25T09:54:48Z</time></trkpt><trkpt lat="44.507719605114204" lon="8.741352168713599"><ele>510.0</ele><time>2026-04-25T09:54:49Z</time></trkpt><trkpt lat="44.50785552998511" lon="8.741421814111943"><ele>510.0</ele><time>2026-04-25T09:54:50Z</time></trkpt><trkpt lat="44.50797653173297" lon="8.74151072956173"><ele>511.5</ele><time>2026-04-25T09:54:51Z</time></trkpt><trkpt lat="44.508110723577744" lon="8.741633902841198"><ele>513.0</ele><time>2026-04-25T09:54:52Z</time></trkpt><trkpt lat="44.50823282556859" lon="8.741753916052595"><ele>514.5</ele><time>2026-04-25T09:54:53Z</time></trkpt><trkpt lat="44.50831620041116" lon="8.741853759239419"><ele>516.0</ele><time>2026-04-25T09:54:54Z</time></trkpt><trkpt lat="44.50837416599881" lon="8.741957016306054"><ele>516.0</ele><time>2026-04-25T09:54:55Z</time></trkpt><trkpt lat="44.50841846849814" lon="8.74209727272038"><ele>516.0</ele><time>2026-04-25T09:54:56Z</time></trkpt><trkpt lat="44.508473761223996" lon="8.742248468899414"><ele>516.0</ele><time>2026-04-25T09:54:57Z</time></trkpt><trkpt lat="44.50849905361828" lon="8.742408962845936"><ele>516.0</ele><time>2026-04-25T09:54:58Z</time></trkpt><trkpt lat="44.508523360328994" lon="8.742549641773472"><ele>516.0</ele><time>2026-04-25T09:54:59Z</time></trkpt><trkpt lat="44.508516503139354" lon="8.742663318472419"><ele>516.0</ele><time>2026-04-25T09:55:00Z</time></trkpt><trkpt lat="44.50848558461906" lon="8.742771427472295"><ele>516.0</ele><time>2026-04-25T09:55:01Z</time></trkpt><trkpt lat="44.50840814361291" lon="8.742861507059082"><ele>516.0</ele><time>2026-04-25T09:55:02Z</time></trkpt><trkpt lat="44.50830590442313" lon="8.742952767754034"><ele>516.0</ele><time>2026-04-25T09:55:03Z</time></trkpt><trkpt lat="44.50817604086399" lon="8.743029888026824"><ele>515.5</ele><time>2026-04-25T09:55:04Z</time></trkpt><trkpt lat="44.50803969705846" lon="8.743104335638556"><ele>515.0</ele><time>2026-04-25T09:55:05Z</time></trkpt><trkpt lat="44.50791601306821" lon="8.743183405234255"><ele>514.5</ele><time>2026-04-25T09:55:06Z</time></trkpt><trkpt lat="44.50782325813842" lon="8.74328213981733"><ele>514.0</ele><time>2026-04-25T09:55:07Z</time></trkpt><trkpt lat="44.50775975305288" lon="8.743409778520075"><ele>520.25</ele><time>2026-04-25T09:55:08Z</time></trkpt><trkpt lat="44.50772189459094" lon="8.743572171672234"><ele>526.5</ele><time>2026-04-25T09:55:09Z</time></trkpt><trkpt lat="44.50770236912696" lon="8.743758234576472"><ele>532.75</ele><time>2026-04-25T09:55:10Z</time></trkpt><trkpt lat="44.507691012760716" lon="8.74394713588071"><ele>539.0</ele><time>2026-04-25T09:55:11Z</time></trkpt><trkpt lat="44.50768704372434" lon="8.744125089577272"><ele>539.0</ele><time>2026-04-25T09:55:12Z</time></trkpt><trkpt lat="44.50770557445529" lon="8.744306639241223"><ele>539.0</ele><time>2026-04-25T09:55:13Z</time></trkpt><trkpt lat="44.50776187876282" lon="8.744501216044126"><ele>539.0</ele><time>2026-04-25T09:55:14Z</time></trkpt><trkpt lat="44.50783982319945" lon="8.744697319748013"><ele>539.0</ele><time>2026-04-25T09:55:15Z</time></trkpt><trkpt lat="44.50791343842251" lon="8.744890815014362"><ele>537.8</ele><time>2026-04-25T09:55:16Z</time></trkpt><trkpt lat="44.50798316037783" lon="8.745051138712979"><ele>536.5999999999999</ele><time>2026-04-25T09:55:17Z</time></trkpt><trkpt lat="44.50804175933695" lon="8.745186839136991"><ele>535.4</ele><time>2026-04-25T09:55:18Z</time></trkpt><trkpt lat="44.5080811056217" lon="8.745304794983301"><ele>534.1999999999999</ele><time>2026-04-25T09:55:19Z</time></trkpt><trkpt lat="44.50810965649871" lon="8.745426754236766"><ele>533.0</ele><time>2026-04-25T09:55:20Z</time></trkpt><trkpt lat="44.508078716186134" lon="8.745572992178536"><ele>533.0</ele><time>2026-04-25T09:55:21Z</time></trkpt><trkpt lat="44.508035048711506" lon="8.745718005256192"><ele>533.0</ele><time>2026-04-25T09:55:22Z</time></trkpt><trkpt lat="44.508026586821806" lon="8.745867284764996"><ele>533.0</ele><time>2026-04-25T09:55:23Z</time></trkpt><trkpt lat="44.50802061561028" lon="8.745985684199983"><ele>533.0</ele><time>2026-04-25T09:55:24Z</time></trkpt><trkpt lat="44.508058592726975" lon="8.746101514913137"><ele>533.0</ele><time>2026-04-25T09:55:24.999Z</time></trkpt><trkpt lat="44.508101207350634" lon="8.746222771054668"><ele>535.6666666666666</ele><time>2026-04-25T09:55:25.999Z</time></trkpt><trkpt lat="44.508121549422846" lon="8.746315219429851"><ele>538.3333333333333</ele><time>2026-04-25T09:55:26.999Z</time></trkpt><trkpt lat="44.508059995607766" lon="8.746405116758641"><ele>541.0</ele><time>2026-04-25T09:55:27.999Z</time></trkpt><trkpt lat="44.50804416012551" lon="8.746518904165477"><ele>543.6666666666666</ele><time>2026-04-25T09:55:28.999Z</time></trkpt><trkpt lat="44.50806795434894" lon="8.746658228920921"><ele>546.3333333333334</ele><time>2026-04-25T09:55:29.999Z</time></trkpt><trkpt lat="44.50809903007964" lon="8.746774185971207"><ele>549.0</ele><time>2026-04-25T09:55:30.999Z</time></trkpt><trkpt lat="44.508184660893725" lon="8.74687481296724"><ele>551.2</ele><time>2026-04-25T09:55:31.999Z</time></trkpt><trkpt lat="44.50824772004802" lon="8.746974924928661"><ele>553.4</ele><time>2026-04-25T09:55:32.999Z</time></trkpt><trkpt lat="44.50825888604246" lon="8.747143222195191"><ele>555.6</ele><time>2026-04-25T09:55:34.999Z</time></trkpt><trkpt lat="44.50825558512291" lon="8.747260829173491"><ele>557.8</ele><time>2026-04-25T09:55:35.999Z</time></trkpt><trkpt lat="44.50826024610032" lon="8.747396769203677"><ele>560.0</ele><time>2026-04-25T09:55:36.999Z</time></trkpt><trkpt lat="44.50830347161485" lon="8.747547607731208"><ele>560.0</ele><time>2026-04-25T09:55:37.999Z</time></trkpt><trkpt lat="44.508310215288326" lon="8.74767872657777"><ele>560.0</ele><time>2026-04-25T09:55:38.999Z</time></trkpt><trkpt lat="44.508322560090974" lon="8.747782329309185"><ele>560.0</ele><time>2026-04-25T09:55:39.999Z</time></trkpt><trkpt lat="44.50826953268242" lon="8.747873248435718"><ele>560.0</ele><time>2026-04-25T09:55:40.999Z</time></trkpt><trkpt lat="44.50818264196527" lon="8.747956452975176"><ele>560.0</ele><time>2026-04-25T09:55:41.999Z</time></trkpt><trkpt lat="44.50808024132684" lon="8.74804566081669"><ele>559.8333333333333</ele><time>2026-04-25T09:55:42.999Z</time></trkpt><trkpt lat="44.507975218749124" lon="8.748148793232664"><ele>559.6666666666666</ele><time>2026-04-25T09:55:43.999Z</time></trkpt><trkpt lat="44.507894879873305" lon="8.748232223012064"><ele>559.5</ele><time>2026-04-25T09:55:44.999Z</time></trkpt><trkpt lat="44.50784734720469" lon="8.748292380632732"><ele>559.3333333333334</ele><time>2026-04-25T09:55:45.999Z</time></trkpt><trkpt lat="44.50782125625731" lon="8.748377071939062"><ele>559.1666666666667</ele><time>2026-04-25T09:55:46.999Z</time></trkpt><trkpt lat="44.5078160445026" lon="8.748482801859904"><ele>559.0</ele><time>2026-04-25T09:55:47.999Z</time></trkpt><trkpt lat="44.50784692386243" lon="8.74859202173317"><ele>560.5</ele><time>2026-04-25T09:55:48.999Z</time></trkpt><trkpt lat="44.50790897738732" lon="8.748693290339967"><ele>562.0</ele><time>2026-04-25T09:55:49.999Z</time></trkpt><trkpt lat="44.50797145583031" lon="8.748822343328902"><ele>563.5</ele><time>2026-04-25T09:55:50.999Z</time></trkpt><trkpt lat="44.508065662520224" lon="8.748937767794372"><ele>565.0</ele><time>2026-04-25T09:55:51.999Z</time></trkpt><trkpt lat="44.50815147849679" lon="8.7490708953843"><ele>565.0</ele><time>2026-04-25T09:55:52.999Z</time></trkpt><trkpt lat="44.50825816481621" lon="8.749190888625138"><ele>565.0</ele><time>2026-04-25T09:55:53.999Z</time></trkpt><trkpt lat="44.5083774964279" lon="8.749326697229836"><ele>565.0</ele><time>2026-04-25T09:55:54.999Z</time></trkpt><trkpt lat="44.50850654900074" lon="8.749396859589094"><ele>565.0</ele><time>2026-04-25T09:55:55.999Z</time></trkpt><trkpt lat="44.50861945121996" lon="8.749465530117904"><ele>566.0</ele><time>2026-04-25T09:55:56.999Z</time></trkpt><trkpt lat="44.50874518519106" lon="8.74950856474904"><ele>567.0</ele><time>2026-04-25T09:55:57.999Z</time></trkpt><trkpt lat="44.5088757392376" lon="8.749559488984644"><ele>568.0</ele><time>2026-04-25T09:55:58.999Z</time></trkpt><trkpt lat="44.508993180572354" lon="8.749592067481121"><ele>569.0</ele><time>2026-04-25T09:55:59.999Z</time></trkpt><trkpt lat="44.50909688885639" lon="8.749618123782719"><ele>569.0</ele><time>2026-04-25T09:56:00.999Z</time></trkpt><trkpt lat="44.50919311326737" lon="8.7496410074027"><ele>569.0</ele><time>2026-04-25T09:56:01.999Z</time></trkpt><trkpt lat="44.50927875460062" lon="8.749673716091012"><ele>569.0</ele><time>2026-04-25T09:56:02.999Z</time></trkpt><trkpt lat="44.509341611829576" lon="8.749689122696664"><ele>569.0</ele><time>2026-04-25T09:56:03.999Z</time></trkpt><trkpt lat="44.50937248724691" lon="8.74979711662539"><ele>569.0</ele><time>2026-04-25T09:56:05.999Z</time></trkpt><trkpt lat="44.50942842499405" lon="8.749852148468683"><ele>569.0</ele><time>2026-04-25T09:56:08.999Z</time></trkpt><trkpt lat="44.5095197718506" lon="8.749868621438484"><ele>566.8333333333333</ele><time>2026-04-25T09:56:10.999Z</time></trkpt><trkpt lat="44.50958587061605" lon="8.749852682350824"><ele>564.6666666666666</ele><time>2026-04-25T09:56:11.999Z</time></trkpt><trkpt lat="44.5096610367165" lon="8.749831508294402"><ele>562.5</ele><time>2026-04-25T09:56:12.999Z</time></trkpt><trkpt lat="44.509744612348534" lon="8.74980162091004"><ele>560.3333333333334</ele><time>2026-04-25T09:56:13.999Z</time></trkpt><trkpt lat="44.50983337719522" lon="8.749769986159489"><ele>558.1666666666667</ele><time>2026-04-25T09:56:14.999Z</time></trkpt><trkpt lat="44.50992465783253" lon="8.749747017933812"><ele>556.0</ele><time>2026-04-25T09:56:15.999Z</time></trkpt><trkpt lat="44.51000065147157" lon="8.74972582175108"><ele>556.0</ele><time>2026-04-25T09:56:16.999Z</time></trkpt><trkpt lat="44.51006172767461" lon="8.749680324595145"><ele>556.0</ele><time>2026-04-25T09:56:17.999Z</time></trkpt><trkpt lat="44.51012318023442" lon="8.749654821994213"><ele>556.0</ele><time>2026-04-25T09:56:18.999Z</time></trkpt><trkpt lat="44.51017952363927" lon="8.74960196836828"><ele>556.0</ele><time>2026-04-25T09:56:19.999Z</time></trkpt><trkpt lat="44.510232672987726" lon="8.749534790385031"><ele>556.0</ele><time>2026-04-25T09:56:20.999Z</time></trkpt><trkpt lat="44.51028334722479" lon="8.749467389539165"><ele>556.0</ele><time>2026-04-25T09:56:21.999Z</time></trkpt><trkpt lat="44.510349769669006" lon="8.749427613777264"><ele>556.0</ele><time>2026-04-25T09:56:24.999Z</time></trkpt><trkpt lat="44.51044460280845" lon="8.749352765815742"><ele>555.8333333333334</ele><time>2026-04-25T10:04:36.999Z</time></trkpt><trkpt lat="44.510497479318566" lon="8.749285026478738"><ele>555.6666666666667</ele><time>2026-04-25T10:04:37.999Z</time></trkpt><trkpt lat="44.51055207269303" lon="8.749240083972392"><ele>555.5</ele><time>2026-04-25T10:04:38.999Z</time></trkpt><trkpt lat="44.51060991230816" lon="8.749199809182933"><ele>555.3333333333334</ele><time>2026-04-25T10:04:39.999Z</time></trkpt><trkpt lat="44.51067723521424" lon="8.749155736176446"><ele>555.1666666666666</ele><time>2026-04-25T10:04:40.999Z</time></trkpt><trkpt lat="44.51074529048918" lon="8.749116196305577"><ele>555.0</ele><time>2026-04-25T10:04:41.999Z</time></trkpt><trkpt lat="44.51086128240401" lon="8.749068382843184"><ele>555.0</ele><time>2026-04-25T10:04:43.999Z</time></trkpt><trkpt lat="44.51096559994025" lon="8.749041822822672"><ele>555.0</ele><time>2026-04-25T10:04:45.999Z</time></trkpt><trkpt lat="44.511029887901955" lon="8.749044059067938"><ele>555.0</ele><time>2026-04-25T10:04:46.999Z</time></trkpt><trkpt lat="44.511111048733945" lon="8.749051328919187"><ele>555.0</ele><time>2026-04-25T10:04:47.999Z</time></trkpt><trkpt lat="44.51121506280778" lon="8.749061537960536"><ele>555.0</ele><time>2026-04-25T10:04:48.999Z</time></trkpt><trkpt lat="44.51132902116438" lon="8.749070903974417"><ele>555.6</ele><time>2026-04-25T10:04:49.999Z</time></trkpt><trkpt lat="44.51143241481195" lon="8.749080780228107"><ele>556.2</ele><time>2026-04-25T10:04:50.999Z</time></trkpt><trkpt lat="44.51153291698242" lon="8.749079458560677"><ele>556.8</ele><time>2026-04-25T10:04:51.999Z</time></trkpt><trkpt lat="44.51162743646238" lon="8.74906297566055"><ele>557.4</ele><time>2026-04-25T10:04:52.999Z</time></trkpt><trkpt lat="44.51171694975681" lon="8.749035498620234"><ele>558.0</ele><time>2026-04-25T10:04:53.999Z</time></trkpt><trkpt lat="44.51180214817903" lon="8.74899453880456"><ele>558.0</ele><time>2026-04-25T10:04:55Z</time></trkpt><trkpt lat="44.511887068235986" lon="8.74893570650796"><ele>558.0</ele><time>2026-04-25T10:04:56Z</time></trkpt><trkpt lat="44.51198259978329" lon="8.748845871246159"><ele>558.0</ele><time>2026-04-25T10:04:57Z</time></trkpt><trkpt lat="44.51208035416017" lon="8.748767035453834"><ele>558.0</ele><time>2026-04-25T10:04:58Z</time></trkpt><trkpt lat="44.51215725688604" lon="8.748647494064"><ele>558.0</ele><time>2026-04-25T10:04:59Z</time></trkpt><trkpt lat="44.512225462156984" lon="8.748527040907927"><ele>555.3333333333334</ele><time>2026-04-25T10:05:00Z</time></trkpt><trkpt lat="44.51227543920932" lon="8.748411501089748"><ele>552.6666666666666</ele><time>2026-04-25T10:05:01Z</time></trkpt><trkpt lat="44.51234456776983" lon="8.748314187987917"><ele>550.0</ele><time>2026-04-25T10:05:02Z</time></trkpt><trkpt lat="44.51241702532584" lon="8.748242999957524"><ele>547.3333333333333</ele><time>2026-04-25T10:05:03Z</time></trkpt><trkpt lat="44.51249406989341" lon="8.748210747369956"><ele>544.6666666666666</ele><time>2026-04-25T10:05:04Z</time></trkpt><trkpt lat="44.51256958016117" lon="8.748222417161374"><ele>542.0</ele><time>2026-04-25T10:05:05Z</time></trkpt><trkpt lat="44.51265106068646" lon="8.748273549267015"><ele>542.0</ele><time>2026-04-25T10:05:06Z</time></trkpt><trkpt lat="44.51273873288199" lon="8.748361429436425"><ele>542.0</ele><time>2026-04-25T10:05:07Z</time></trkpt><trkpt lat="44.51281040232006" lon="8.748492423839837"><ele>542.0</ele><time>2026-04-25T10:05:08Z</time></trkpt><trkpt lat="44.51289637684863" lon="8.7485683691402"><ele>542.0</ele><time>2026-04-25T10:05:09Z</time></trkpt><trkpt lat="44.51297392682659" lon="8.748616925475545"><ele>542.0</ele><time>2026-04-25T10:05:10Z</time></trkpt><trkpt lat="44.513059459447106" lon="8.748653578220013"><ele>541.0</ele><time>2026-04-25T10:05:11Z</time></trkpt><trkpt lat="44.513156159700486" lon="8.748692802402996"><ele>540.0</ele><time>2026-04-25T10:05:12Z</time></trkpt><trkpt lat="44.513260934264856" lon="8.748733963379951"><ele>539.0</ele><time>2026-04-25T10:05:13Z</time></trkpt><trkpt lat="44.5133666727054" lon="8.748796784577875"><ele>538.0</ele><time>2026-04-25T10:05:14Z</time></trkpt><trkpt lat="44.51347918810672" lon="8.748845019470913"><ele>537.0</ele><time>2026-04-25T10:05:15Z</time></trkpt><trkpt lat="44.51359161070867" lon="8.748890175764961"><ele>537.0</ele><time>2026-04-25T10:05:16Z</time></trkpt><trkpt lat="44.51369595411633" lon="8.748927942120543"><ele>537.0</ele><time>2026-04-25T10:05:17Z</time></trkpt><trkpt lat="44.51374878803404" lon="8.749010646518588"><ele>537.0</ele><time>2026-04-25T10:05:18Z</time></trkpt><trkpt lat="44.513820887210045" lon="8.749105840544608"><ele>537.0</ele><time>2026-04-25T10:05:19Z</time></trkpt><trkpt lat="44.513886324302725" lon="8.749196764214526"><ele>537.0</ele><time>2026-04-25T10:05:20Z</time></trkpt><trkpt lat="44.513945191056905" lon="8.7492415848838"><ele>537.0</ele><time>2026-04-25T10:05:21Z</time></trkpt><trkpt lat="44.5140556506473" lon="8.749176315488677"><ele>534.4285714285713</ele><time>2026-04-25T10:05:23Z</time></trkpt><trkpt lat="44.514094123880234" lon="8.749103990834335"><ele>531.8571428571429</ele><time>2026-04-25T10:05:24Z</time></trkpt><trkpt lat="44.51410438287626" lon="8.749015180679287"><ele>529.2857142857142</ele><time>2026-04-25T10:05:25Z</time></trkpt><trkpt lat="44.5140904264242" lon="8.748924217474858"><ele>526.7142857142857</ele><time>2026-04-25T10:05:26Z</time></trkpt><trkpt lat="44.51405409732699" lon="8.748833607714488"><ele>524.1428571428571</ele><time>2026-04-25T10:05:27Z</time></trkpt><trkpt lat="44.51400347481216" lon="8.748749072961933"><ele>521.5714285714286</ele><time>2026-04-25T10:05:28Z</time></trkpt><trkpt lat="44.51393457172302" lon="8.748667831949692"><ele>519.0</ele><time>2026-04-25T10:05:29Z</time></trkpt><trkpt lat="44.5138726740008" lon="8.748575405154511"><ele>519.5</ele><time>2026-04-25T10:05:30Z</time></trkpt><trkpt lat="44.513836369810946" lon="8.748466301658587"><ele>520.0</ele><time>2026-04-25T10:05:31Z</time></trkpt><trkpt lat="44.513812441043086" lon="8.748353296196747"><ele>520.5</ele><time>2026-04-25T10:05:32Z</time></trkpt><trkpt lat="44.51378815001954" lon="8.748247970114047"><ele>521.0</ele><time>2026-04-25T10:05:33Z</time></trkpt><trkpt lat="44.513755837423666" lon="8.748149222889179"><ele>521.5</ele><time>2026-04-25T10:05:34Z</time></trkpt><trkpt lat="44.51370746403009" lon="8.748076663308396"><ele>522.0</ele><time>2026-04-25T10:05:35Z</time></trkpt><trkpt lat="44.51365121971019" lon="8.748004204905971"><ele>522.0</ele><time>2026-04-25T10:05:36Z</time></trkpt><trkpt lat="44.51359993450539" lon="8.747920085989536"><ele>522.0</ele><time>2026-04-25T10:05:37Z</time></trkpt><trkpt lat="44.51356773602203" lon="8.7478044184232"><ele>522.0</ele><time>2026-04-25T10:05:38Z</time></trkpt><trkpt lat="44.5135496201263" lon="8.74767189826752"><ele>522.0</ele><time>2026-04-25T10:05:39Z</time></trkpt><trkpt lat="44.513536110594195" lon="8.747554295165504"><ele>522.0</ele><time>2026-04-25T10:05:40Z</time></trkpt><trkpt lat="44.51350758984861" lon="8.747409289325278"><ele>520.75</ele><time>2026-04-25T10:05:41Z</time></trkpt><trkpt lat="44.51347214836589" lon="8.74723599947441"><ele>519.5</ele><time>2026-04-25T10:05:42Z</time></trkpt><trkpt lat="44.51343623824489" lon="8.74704529086631"><ele>518.25</ele><time>2026-04-25T10:05:43Z</time></trkpt><trkpt lat="44.51339454316314" lon="8.74687727035554"><ele>517.0</ele><time>2026-04-25T10:05:44Z</time></trkpt><trkpt lat="44.51334250791824" lon="8.746716789048456"><ele>520.2</ele><time>2026-04-25T10:05:45Z</time></trkpt><trkpt lat="44.51328629034959" lon="8.746577198149025"><ele>523.4000000000001</ele><time>2026-04-25T10:05:46Z</time></trkpt><trkpt lat="44.51322171935426" lon="8.7464646298925"><ele>526.5999999999999</ele><time>2026-04-25T10:05:47Z</time></trkpt><trkpt lat="44.51314584485325" lon="8.746371366626391"><ele>529.8</ele><time>2026-04-25T10:05:48Z</time></trkpt><trkpt lat="44.513052916963" lon="8.746288048172442"><ele>533.0</ele><time>2026-04-25T10:05:49Z</time></trkpt><trkpt lat="44.51295948966551" lon="8.7462481460831"><ele>534.8333333333333</ele><time>2026-04-25T10:05:50Z</time></trkpt><trkpt lat="44.51289590387516" lon="8.746193183511933"><ele>536.6666666666666</ele><time>2026-04-25T10:05:51Z</time></trkpt><trkpt lat="44.5128664291863" lon="8.746111040108527"><ele>538.5</ele><time>2026-04-25T10:05:51.999Z</time></trkpt><trkpt lat="44.5128275536761" lon="8.746031841300919"><ele>540.3333333333334</ele><time>2026-04-25T10:05:52.999Z</time></trkpt><trkpt lat="44.51286572864719" lon="8.745914796222976"><ele>542.1666666666667</ele><time>2026-04-25T10:05:53.999Z</time></trkpt><trkpt lat="44.512939663297104" lon="8.745844224979864"><ele>544.0</ele><time>2026-04-25T10:05:54.999Z</time></trkpt><trkpt lat="44.513014086568546" lon="8.7457421293417"><ele>544.0</ele><time>2026-04-25T10:05:55.999Z</time></trkpt><trkpt lat="44.51309337901419" lon="8.745609323094525"><ele>544.0</ele><time>2026-04-25T10:05:56.999Z</time></trkpt><trkpt lat="44.513185099554114" lon="8.74545168573763"><ele>544.0</ele><time>2026-04-25T10:05:57.999Z</time></trkpt><trkpt lat="44.51326214192437" lon="8.745299169893629"><ele>544.0</ele><time>2026-04-25T10:05:58.999Z</time></trkpt><trkpt lat="44.51333682909365" lon="8.74511713983895"><ele>540.8</ele><time>2026-04-25T10:05:59.999Z</time></trkpt><trkpt lat="44.513404205758256" lon="8.744915636853387"><ele>537.5999999999999</ele><time>2026-04-25T10:06:00.999Z</time></trkpt><trkpt lat="44.513481074239564" lon="8.744795592651663"><ele>534.4</ele><time>2026-04-25T10:06:01.999Z</time></trkpt><trkpt lat="44.51354024065947" lon="8.744733016784412"><ele>531.1999999999999</ele><time>2026-04-25T10:06:02.999Z</time></trkpt><trkpt lat="44.51362328962339" lon="8.744743494834863"><ele>528.0</ele><time>2026-04-25T10:06:04.999Z</time></trkpt><trkpt lat="44.51369424153898" lon="8.744870172551328"><ele>531.75</ele><time>2026-04-25T10:06:06.999Z</time></trkpt><trkpt lat="44.51378090658643" lon="8.74494701969125"><ele>535.5</ele><time>2026-04-25T10:06:07.999Z</time></trkpt><trkpt lat="44.51388237568104" lon="8.745037714199128"><ele>539.25</ele><time>2026-04-25T10:06:08.999Z</time></trkpt><trkpt lat="44.51399609387435" lon="8.745139511228123"><ele>543.0</ele><time>2026-04-25T10:06:09.999Z</time></trkpt><trkpt lat="44.514102798846416" lon="8.745233963828635"><ele>547.25</ele><time>2026-04-25T10:06:10.999Z</time></trkpt><trkpt lat="44.514202888606526" lon="8.745328569462645"><ele>551.5</ele><time>2026-04-25T10:06:11.999Z</time></trkpt><trkpt lat="44.51430702630755" lon="8.745442807543046"><ele>555.75</ele><time>2026-04-25T10:06:12.999Z</time></trkpt><trkpt lat="44.5144285365757" lon="8.745527697826981"><ele>560.0</ele><time>2026-04-25T10:06:13.999Z</time></trkpt><trkpt lat="44.514554313516555" lon="8.745531326712946"><ele>559.5</ele><time>2026-04-25T10:06:14.999Z</time></trkpt><trkpt lat="44.51464650826243" lon="8.745572014417567"><ele>559.0</ele><time>2026-04-25T10:06:15.999Z</time></trkpt><trkpt lat="44.51474040371542" lon="8.745670782390457"><ele>558.5</ele><time>2026-04-25T10:06:16.999Z</time></trkpt><trkpt lat="44.51485131761296" lon="8.745756772119943"><ele>558.0</ele><time>2026-04-25T10:06:17.999Z</time></trkpt><trkpt lat="44.51494590659696" lon="8.745867523079422"><ele>558.0</ele><time>2026-04-25T10:06:18.999Z</time></trkpt><trkpt lat="44.515046051270026" lon="8.745982073388902"><ele>558.0</ele><time>2026-04-25T10:06:19.999Z</time></trkpt><trkpt lat="44.5151368135649" lon="8.746089170218598"><ele>558.0</ele><time>2026-04-25T10:06:20.999Z</time></trkpt><trkpt lat="44.51521113050783" lon="8.746181933949144"><ele>558.0</ele><time>2026-04-25T10:06:21.999Z</time></trkpt><trkpt lat="44.51528075182446" lon="8.746304702134628"><ele>560.8</ele><time>2026-04-25T10:06:22.999Z</time></trkpt><trkpt lat="44.51536517139585" lon="8.74640069293447"><ele>563.5999999999999</ele><time>2026-04-25T10:06:23.999Z</time></trkpt><trkpt lat="44.51543696044211" lon="8.746476668853665"><ele>566.4000000000001</ele><time>2026-04-25T10:06:24.999Z</time></trkpt><trkpt lat="44.51551510837558" lon="8.746548431221063"><ele>569.2</ele><time>2026-04-25T10:06:25.999Z</time></trkpt><trkpt lat="44.515625983685084" lon="8.746611530047238"><ele>572.0</ele><time>2026-04-25T10:06:26.999Z</time></trkpt><trkpt lat="44.51573190786623" lon="8.746687277513066"><ele>572.0</ele><time>2026-04-25T10:06:27.999Z</time></trkpt><trkpt lat="44.5158132403162" lon="8.74680458625249"><ele>572.0</ele><time>2026-04-25T10:06:28.999Z</time></trkpt><trkpt lat="44.515887760560304" lon="8.746889496454417"><ele>572.0</ele><time>2026-04-25T10:06:29.999Z</time></trkpt><trkpt lat="44.5159503730122" lon="8.746944048182087"><ele>572.0</ele><time>2026-04-25T10:06:30.999Z</time></trkpt><trkpt lat="44.516019951764086" lon="8.746945840781148"><ele>572.0</ele><time>2026-04-25T10:06:31.999Z</time></trkpt><trkpt lat="44.516093771644314" lon="8.746897560484628"><ele>572.0</ele><time>2026-04-25T10:06:32.999Z</time></trkpt><trkpt lat="44.51616182725169" lon="8.746818299573917"><ele>573.0</ele><time>2026-04-25T10:06:33.999Z</time></trkpt><trkpt lat="44.51625274995719" lon="8.746795060830001"><ele>574.0</ele><time>2026-04-25T10:06:34.999Z</time></trkpt><trkpt lat="44.51635429589129" lon="8.746790184284754"><ele>575.0</ele><time>2026-04-25T10:06:35.999Z</time></trkpt><trkpt lat="44.5164774773434" lon="8.746760238027754"><ele>576.0</ele><time>2026-04-25T10:06:36.999Z</time></trkpt><trkpt lat="44.51661097923115" lon="8.746785646734107"><ele>576.0</ele><time>2026-04-25T10:06:37.999Z</time></trkpt><trkpt lat="44.51674324867609" lon="8.746801046020346"><ele>576.0</ele><time>2026-04-25T10:06:38.999Z</time></trkpt><trkpt lat="44.51686335810272" lon="8.746836832021362"><ele>576.0</ele><time>2026-04-25T10:06:39.999Z</time></trkpt><trkpt lat="44.51696239121968" lon="8.746901996785818"><ele>576.0</ele><time>2026-04-25T10:06:40.999Z</time></trkpt><trkpt lat="44.51703742161453" lon="8.746967680439205"><ele>577.6</ele><time>2026-04-25T10:06:41.999Z</time></trkpt><trkpt lat="44.51709615205794" lon="8.747019920519287"><ele>579.2</ele><time>2026-04-25T10:06:42.999Z</time></trkpt><trkpt lat="44.51717941342962" lon="8.746997426132056"><ele>580.8</ele><time>2026-04-25T10:06:43.999Z</time></trkpt><trkpt lat="44.51730291528867" lon="8.74699035132124"><ele>582.4</ele><time>2026-04-25T10:06:45.999Z</time></trkpt><trkpt lat="44.517383066671016" lon="8.746935041751145"><ele>584.0</ele><time>2026-04-25T10:06:46.999Z</time></trkpt><trkpt lat="44.517470617748764" lon="8.746859881739251"><ele>584.0</ele><time>2026-04-25T10:06:47.999Z</time></trkpt><trkpt lat="44.51753815452208" lon="8.7467876477066"><ele>584.0</ele><time>2026-04-25T10:06:48.999Z</time></trkpt><trkpt lat="44.51758311096317" lon="8.746722699924673"><ele>584.0</ele><time>2026-04-25T10:06:49.999Z</time></trkpt><trkpt lat="44.51755993536705" lon="8.746555964622408"><ele>584.0</ele><time>2026-04-25T10:06:51.999Z</time></trkpt><trkpt lat="44.51746387478872" lon="8.746425506678813"><ele>584.0</ele><time>2026-04-25T10:06:53.999Z</time></trkpt><trkpt lat="44.517414550839604" lon="8.746325504380467"><ele>584.0</ele><time>2026-04-25T10:06:54.999Z</time></trkpt><trkpt lat="44.51735130864025" lon="8.74619961532662"><ele>584.0</ele><time>2026-04-25T10:06:55.999Z</time></trkpt><trkpt lat="44.517285305366514" lon="8.746055020710926"><ele>584.0</ele><time>2026-04-25T10:06:56.999Z</time></trkpt><trkpt lat="44.51722622094024" lon="8.745922826666176"><ele>584.0</ele><time>2026-04-25T10:06:57.999Z</time></trkpt><trkpt lat="44.51719068145543" lon="8.745790056722022"><ele>584.0</ele><time>2026-04-25T10:06:58.999Z</time></trkpt><trkpt lat="44.517183333543045" lon="8.745695888910776"><ele>584.2</ele><time>2026-04-25T10:06:59.999Z</time></trkpt><trkpt lat="44.517203519989394" lon="8.745557958430279"><ele>584.4</ele><time>2026-04-25T10:07:01.999Z</time></trkpt><trkpt lat="44.517272377887224" lon="8.745531108821348"><ele>584.6</ele><time>2026-04-25T10:07:02.999Z</time></trkpt><trkpt lat="44.517352508549116" lon="8.74550820659415"><ele>584.8</ele><time>2026-04-25T10:07:03.999Z</time></trkpt><trkpt lat="44.51745407455004" lon="8.74546102534789"><ele>585.0</ele><time>2026-04-25T10:07:04.999Z</time></trkpt><trkpt lat="44.51754964640696" lon="8.745418029323936"><ele>585.0</ele><time>2026-04-25T10:07:05.999Z</time></trkpt><trkpt lat="44.51764519785584" lon="8.745375042502582"><ele>585.0</ele><time>2026-04-25T10:07:06.999Z</time></trkpt><trkpt lat="44.51775239992961" lon="8.745329624910935"><ele>585.0</ele><time>2026-04-25T10:07:07.999Z</time></trkpt><trkpt lat="44.51784106440747" lon="8.745292038890842"><ele>585.0</ele><time>2026-04-25T10:07:08.999Z</time></trkpt><trkpt lat="44.51794582017852" lon="8.745265747862108"><ele>585.0</ele><time>2026-04-25T10:07:10.999Z</time></trkpt><trkpt lat="44.51805548905795" lon="8.745267212670722"><ele>587.5</ele><time>2026-04-25T10:07:12.999Z</time></trkpt><trkpt lat="44.518119147926605" lon="8.745284031749028"><ele>590.0</ele><time>2026-04-25T10:07:13.999Z</time></trkpt><trkpt lat="44.51818200549935" lon="8.745325630516444"><ele>592.5</ele><time>2026-04-25T10:07:14.999Z</time></trkpt><trkpt lat="44.51824308663906" lon="8.745387488225605"><ele>595.0</ele><time>2026-04-25T10:07:15.999Z</time></trkpt><trkpt lat="44.51830045984881" lon="8.745467802561484"><ele>597.5</ele><time>2026-04-25T10:07:16.999Z</time></trkpt><trkpt lat="44.51835322519167" lon="8.745559830521193"><ele>600.0</ele><time>2026-04-25T10:07:17.999Z</time></trkpt><trkpt lat="44.51841660467553" lon="8.74564069101873"><ele>600.0</ele><time>2026-04-25T10:07:18.999Z</time></trkpt><trkpt lat="44.51849031145712" lon="8.745724884770164"><ele>600.0</ele><time>2026-04-25T10:07:19.999Z</time></trkpt><trkpt lat="44.5185832596098" lon="8.74579535960045"><ele>600.0</ele><time>2026-04-25T10:07:20.999Z</time></trkpt><trkpt lat="44.518674722904656" lon="8.7458871861416"><ele>600.0</ele><time>2026-04-25T10:07:21.999Z</time></trkpt><trkpt lat="44.51876859688872" lon="8.746009751142543"><ele>600.0</ele><time>2026-04-25T10:07:22.999Z</time></trkpt><trkpt lat="44.518868518918836" lon="8.746112605337986"><ele>603.8</ele><time>2026-04-25T10:07:23.999Z</time></trkpt><trkpt lat="44.51896987516568" lon="8.74620088927657"><ele>607.6</ele><time>2026-04-25T10:07:24.999Z</time></trkpt><trkpt lat="44.51904021421535" lon="8.746319525915531"><ele>611.4</ele><time>2026-04-25T10:07:25.999Z</time></trkpt><trkpt lat="44.51909921379463" lon="8.746426832505538"><ele>615.2</ele><time>2026-04-25T10:07:26.999Z</time></trkpt><trkpt lat="44.51914182532086" lon="8.746528460415021"><ele>619.0</ele><time>2026-04-25T10:07:27.999Z</time></trkpt><trkpt lat="44.51915213926753" lon="8.746615675474239"><ele>619.0</ele><time>2026-04-25T10:07:28.999Z</time></trkpt><trkpt lat="44.51912480045792" lon="8.746749404771588"><ele>619.0</ele><time>2026-04-25T10:07:30.999Z</time></trkpt><trkpt lat="44.51902479451377" lon="8.746889093514703"><ele>619.0</ele><time>2026-04-25T10:07:32.999Z</time></trkpt><trkpt lat="44.51896015997276" lon="8.746993011838532"><ele>619.0</ele><time>2026-04-25T10:07:33.999Z</time></trkpt><trkpt lat="44.51891960619111" lon="8.747108588891953"><ele>619.0</ele><time>2026-04-25T10:07:34.999Z</time></trkpt><trkpt lat="44.518908038731226" lon="8.747198316379745"><ele>619.6</ele><time>2026-04-25T10:07:35.999Z</time></trkpt><trkpt lat="44.51891595877753" lon="8.747339136939686"><ele>620.2</ele><time>2026-04-25T10:07:37.999Z</time></trkpt><trkpt lat="44.518989061168035" lon="8.747387415938356"><ele>620.8000000000001</ele><time>2026-04-25T10:07:38.999Z</time></trkpt><trkpt lat="44.51907639336041" lon="8.747354165337034"><ele>621.4</ele><time>2026-04-25T10:07:39.999Z</time></trkpt><trkpt lat="44.51917119716004" lon="8.747311260103524"><ele>622.0</ele><time>2026-04-25T10:07:40.999Z</time></trkpt><trkpt lat="44.519285601002466" lon="8.747247292317905"><ele>622.0</ele><time>2026-04-25T10:07:41.999Z</time></trkpt><trkpt lat="44.519396840973805" lon="8.747185789716847"><ele>622.0</ele><time>2026-04-25T10:07:42.999Z</time></trkpt><trkpt lat="44.51948181803448" lon="8.747114539522794"><ele>622.0</ele><time>2026-04-25T10:07:43.999Z</time></trkpt><trkpt lat="44.51955039466259" lon="8.747049214204228"><ele>622.0</ele><time>2026-04-25T10:07:44.999Z</time></trkpt><trkpt lat="44.519565771754394" lon="8.746916617645905"><ele>622.0</ele><time>2026-04-25T10:07:45.999Z</time></trkpt><trkpt lat="44.51957739617966" lon="8.746784457282681"><ele>621.25</ele><time>2026-04-25T10:07:46.999Z</time></trkpt><trkpt lat="44.51958226717672" lon="8.746636854588823"><ele>620.5</ele><time>2026-04-25T10:07:47.999Z</time></trkpt><trkpt lat="44.519578680096444" lon="8.746465816411696"><ele>619.75</ele><time>2026-04-25T10:07:48.999Z</time></trkpt><trkpt lat="44.51956744032105" lon="8.746293414847583"><ele>619.0</ele><time>2026-04-25T10:07:49.999Z</time></trkpt><trkpt lat="44.519556004351095" lon="8.746140845194297"><ele>619.4</ele><time>2026-04-25T10:07:50.999Z</time></trkpt><trkpt lat="44.51956042672207" lon="8.746038874043762"><ele>619.8</ele><time>2026-04-25T10:07:51.999Z</time></trkpt><trkpt lat="44.51964846294247" lon="8.745954164088563"><ele>620.2</ele><time>2026-04-25T10:07:53.999Z</time></trkpt><trkpt lat="44.51969681892084" lon="8.746021683940912"><ele>620.6</ele><time>2026-04-25T10:07:54.999Z</time></trkpt><trkpt lat="44.5197224197234" lon="8.74620406864154"><ele>621.0</ele><time>2026-04-25T10:07:56.999Z</time></trkpt><trkpt lat="44.5197390623806" lon="8.746347353417578"><ele>626.25</ele><time>2026-04-25T10:07:57.999Z</time></trkpt><trkpt lat="44.51975486182879" lon="8.746530082786812"><ele>631.5</ele><time>2026-04-25T10:07:58.999Z</time></trkpt><trkpt lat="44.51977297402509" lon="8.74673952175764"><ele>636.75</ele><time>2026-04-25T10:07:59.999Z</time></trkpt><trkpt lat="44.51978756659371" lon="8.746928251605043"><ele>642.0</ele><time>2026-04-25T10:08:00.999Z</time></trkpt><trkpt lat="44.51980065350776" lon="8.747082061491138"><ele>642.2</ele><time>2026-04-25T10:08:01.999Z</time></trkpt><trkpt lat="44.51983305857565" lon="8.747211825602767"><ele>642.4000000000001</ele><time>2026-04-25T10:08:02.999Z</time></trkpt><trkpt lat="44.51985950161965" lon="8.747336171746486"><ele>642.5999999999999</ele><time>2026-04-25T10:08:03.999Z</time></trkpt><trkpt lat="44.51990501636164" lon="8.747453390226651"><ele>642.8</ele><time>2026-04-25T10:08:04.999Z</time></trkpt><trkpt lat="44.51995937380799" lon="8.747574925538785"><ele>643.0</ele><time>2026-04-25T10:08:05.999Z</time></trkpt><trkpt lat="44.520028167466975" lon="8.74770189890472"><ele>643.0</ele><time>2026-04-25T10:08:06.999Z</time></trkpt><trkpt lat="44.52008937696926" lon="8.747821859004793"><ele>643.0</ele><time>2026-04-25T10:08:07.999Z</time></trkpt><trkpt lat="44.520126002434964" lon="8.747937351681003"><ele>643.0</ele><time>2026-04-25T10:08:08.999Z</time></trkpt><trkpt lat="44.520158516530856" lon="8.74805817415045"><ele>643.0</ele><time>2026-04-25T10:08:09.999Z</time></trkpt><trkpt lat="44.52018997967529" lon="8.74815373152755"><ele>643.0</ele><time>2026-04-25T10:08:10.999Z</time></trkpt><trkpt lat="44.52024349289022" lon="8.74822705598026"><ele>643.0</ele><time>2026-04-25T10:08:11.999Z</time></trkpt><trkpt lat="44.52033753911447" lon="8.74824639597491"><ele>645.5999999999999</ele><time>2026-04-25T10:08:12.999Z</time></trkpt><trkpt lat="44.52043572014602" lon="8.748282609517634"><ele>648.1999999999999</ele><time>2026-04-25T10:08:13.999Z</time></trkpt><trkpt lat="44.5205399486026" lon="8.748352909291267"><ele>650.8</ele><time>2026-04-25T10:08:14.999Z</time></trkpt><trkpt lat="44.520635710997325" lon="8.748418196563335"><ele>653.4</ele><time>2026-04-25T10:08:15.999Z</time></trkpt><trkpt lat="44.52071837611687" lon="8.748486703432858"><ele>656.0</ele><time>2026-04-25T10:08:16.999Z</time></trkpt><trkpt lat="44.52080315570446" lon="8.748568109725435"><ele>658.4</ele><time>2026-04-25T10:08:17.999Z</time></trkpt><trkpt lat="44.52087467900605" lon="8.748648160563159"><ele>660.8</ele><time>2026-04-25T10:08:18.999Z</time></trkpt><trkpt lat="44.52088786298374" lon="8.748787437225156"><ele>663.1999999999999</ele><time>2026-04-25T10:08:20.999Z</time></trkpt><trkpt lat="44.520861880196264" lon="8.748892456463027"><ele>665.5999999999999</ele><time>2026-04-25T10:08:22.999Z</time></trkpt><trkpt lat="44.52074771232893" lon="8.749039823918903"><ele>668.0</ele><time>2026-04-25T10:08:24.999Z</time></trkpt><trkpt lat="44.52065694291297" lon="8.74912316747934"><ele>668.0</ele><time>2026-04-25T10:08:25.999Z</time></trkpt><trkpt lat="44.52055910339985" lon="8.7492099460771"><ele>668.0</ele><time>2026-04-25T10:08:26.999Z</time></trkpt><trkpt lat="44.520464852608356" lon="8.74924102186701"><ele>668.0</ele><time>2026-04-25T10:08:27.999Z</time></trkpt><trkpt lat="44.52039000302276" lon="8.749300047481931"><ele>668.0</ele><time>2026-04-25T10:08:28.999Z</time></trkpt><trkpt lat="44.52033649876665" lon="8.749350130598842"><ele>668.0</ele><time>2026-04-25T10:08:29.999Z</time></trkpt><trkpt lat="44.52029410969652" lon="8.749513032612775"><ele>667.4</ele><time>2026-04-25T10:08:31.999Z</time></trkpt><trkpt lat="44.52033060945229" lon="8.749629303154892"><ele>666.8</ele><time>2026-04-25T10:08:32.999Z</time></trkpt><trkpt lat="44.52034416383529" lon="8.749768535699411"><ele>666.2</ele><time>2026-04-25T10:08:33.999Z</time></trkpt><trkpt lat="44.520354103612604" lon="8.749911133512583"><ele>665.6</ele><time>2026-04-25T10:08:34.999Z</time></trkpt><trkpt lat="44.520353007106884" lon="8.750030369725465"><ele>665.0</ele><time>2026-04-25T10:08:35.999Z</time></trkpt><trkpt lat="44.520348334952125" lon="8.750151037809912"><ele>668.75</ele><time>2026-04-25T10:08:36.999Z</time></trkpt><trkpt lat="44.52032879243177" lon="8.750308140147496"><ele>672.5</ele><time>2026-04-25T10:08:37.999Z</time></trkpt><trkpt lat="44.52030490314481" lon="8.750491183263648"><ele>676.25</ele><time>2026-04-25T10:08:38.999Z</time></trkpt><trkpt lat="44.520314559163594" lon="8.750665956233075"><ele>680.0</ele><time>2026-04-25T10:08:39.999Z</time></trkpt><trkpt lat="44.520302631541746" lon="8.750791343397033"><ele>680.0</ele><time>2026-04-25T10:08:40.999Z</time></trkpt><trkpt lat="44.52023487240659" lon="8.750902535642417"><ele>680.0</ele><time>2026-04-25T10:08:42.999Z</time></trkpt><trkpt lat="44.52015783635888" lon="8.750880070427682"><ele>680.0</ele><time>2026-04-25T10:08:43.999Z</time></trkpt><trkpt lat="44.52006829110363" lon="8.750891998138373"><ele>680.0</ele><time>2026-04-25T10:08:44.999Z</time></trkpt><trkpt lat="44.51996776456546" lon="8.750896864003677"><ele>680.0</ele><time>2026-04-25T10:08:45.999Z</time></trkpt><trkpt lat="44.519889051972996" lon="8.750898636433224"><ele>680.0</ele><time>2026-04-25T10:08:46.999Z</time></trkpt><trkpt lat="44.51981698346887" lon="8.751027514922374"><ele>680.0</ele><time>2026-04-25T10:08:48.999Z</time></trkpt><trkpt lat="44.51984558739154" lon="8.75111954609343"><ele>680.0</ele><time>2026-04-25T10:08:49.999Z</time></trkpt><trkpt lat="44.51990517480457" lon="8.751182614509712"><ele>680.0</ele><time>2026-04-25T10:08:50.999Z</time></trkpt><trkpt lat="44.51999093563219" lon="8.751177286599352"><ele>680.0</ele><time>2026-04-25T10:08:51.999Z</time></trkpt><trkpt lat="44.520083083815145" lon="8.751223785564171"><ele>680.0</ele><time>2026-04-25T10:08:52.999Z</time></trkpt><trkpt lat="44.52020297457098" lon="8.751248672144692"><ele>687.25</ele><time>2026-04-25T10:08:53.999Z</time></trkpt><trkpt lat="44.520317079248095" lon="8.751212608788697"><ele>694.5</ele><time>2026-04-25T10:08:54.999Z</time></trkpt><trkpt lat="44.52045113462453" lon="8.751168337936464"><ele>701.75</ele><time>2026-04-25T10:08:55.999Z</time></trkpt><trkpt lat="44.52059962092294" lon="8.75112360009065"><ele>709.0</ele><time>2026-04-25T10:08:56.999Z</time></trkpt><trkpt lat="44.52072288309049" lon="8.751092455839219"><ele>711.25</ele><time>2026-04-25T10:08:57.999Z</time></trkpt><trkpt lat="44.52084957022368" lon="8.751076697923038"><ele>713.5</ele><time>2026-04-25T10:08:58.999Z</time></trkpt><trkpt lat="44.52098929588725" lon="8.751078266585825"><ele>715.75</ele><time>2026-04-25T10:08:59.998Z</time></trkpt><trkpt lat="44.52111750012818" lon="8.75107012520087"><ele>718.0</ele><time>2026-04-25T10:09:00.998Z</time></trkpt><trkpt lat="44.5212245025103" lon="8.751042806614"><ele>715.4</ele><time>2026-04-25T10:09:01.998Z</time></trkpt><trkpt lat="44.52132343443051" lon="8.75101376301223"><ele>712.8</ele><time>2026-04-25T10:09:02.998Z</time></trkpt><trkpt lat="44.521430577841805" lon="8.7509754854413"><ele>710.2</ele><time>2026-04-25T10:09:03.998Z</time></trkpt><trkpt lat="44.52153599932139" lon="8.750935942941883"><ele>707.6</ele><time>2026-04-25T10:09:04.998Z</time></trkpt><trkpt lat="44.52164981410045" lon="8.750915724110905"><ele>705.0</ele><time>2026-04-25T10:09:05.998Z</time></trkpt><trkpt lat="44.52177077206148" lon="8.750920213649508"><ele>705.0</ele><time>2026-04-25T10:09:06.999Z</time></trkpt><trkpt lat="44.5218868977628" lon="8.7509194896278"><ele>705.0</ele><time>2026-04-25T10:09:07.999Z</time></trkpt><trkpt lat="44.52198275264559" lon="8.750894972152206"><ele>705.0</ele><time>2026-04-25T10:09:08.999Z</time></trkpt><trkpt lat="44.522084005170015" lon="8.750857622570864"><ele>705.0</ele><time>2026-04-25T10:09:09.999Z</time></trkpt><trkpt lat="44.522195924503414" lon="8.750823405847365"><ele>705.0</ele><time>2026-04-25T10:09:10.999Z</time></trkpt><trkpt lat="44.52230936384294" lon="8.750797837653746"><ele>708.5</ele><time>2026-04-25T10:09:11.999Z</time></trkpt><trkpt lat="44.52243062120294" lon="8.750791611734574"><ele>712.0</ele><time>2026-04-25T10:09:12.999Z</time></trkpt><trkpt lat="44.52255673160636" lon="8.750772468171508"><ele>715.5</ele><time>2026-04-25T10:09:13.999Z</time></trkpt><trkpt lat="44.52266787748473" lon="8.750742516816088"><ele>719.0</ele><time>2026-04-25T10:09:14.999Z</time></trkpt><trkpt lat="44.52277649544178" lon="8.750692373957579"><ele>719.0</ele><time>2026-04-25T10:09:15.999Z</time></trkpt><trkpt lat="44.52286287012943" lon="8.750647347783062"><ele>719.0</ele><time>2026-04-25T10:09:16.999Z</time></trkpt><trkpt lat="44.52293845210098" lon="8.750636219763827"><ele>719.0</ele><time>2026-04-25T10:09:17.999Z</time></trkpt><trkpt lat="44.523028928838286" lon="8.750692827679194"><ele>719.0</ele><time>2026-04-25T10:09:18.999Z</time></trkpt><trkpt lat="44.523150825667166" lon="8.750731204770076"><ele>719.0</ele><time>2026-04-25T10:09:19.999Z</time></trkpt><trkpt lat="44.523273015210464" lon="8.750771226323648"><ele>720.2</ele><time>2026-04-25T10:09:20.999Z</time></trkpt><trkpt lat="44.52338453177789" lon="8.750819130905116"><ele>721.4000000000001</ele><time>2026-04-25T10:09:21.999Z</time></trkpt><trkpt lat="44.52348856008223" lon="8.75089040006671"><ele>722.6</ele><time>2026-04-25T10:09:22.999Z</time></trkpt><trkpt lat="44.52359273331285" lon="8.750945308705012"><ele>723.8</ele><time>2026-04-25T10:09:23.999Z</time></trkpt><trkpt lat="44.52369537294328" lon="8.750963088913972"><ele>725.0</ele><time>2026-04-25T10:09:24.999Z</time></trkpt><trkpt lat="44.52378407721674" lon="8.750966968321638"><ele>726.0</ele><time>2026-04-25T10:09:25.999Z</time></trkpt><trkpt lat="44.52386204478748" lon="8.750959293237939"><ele>727.0</ele><time>2026-04-25T10:09:26.999Z</time></trkpt><trkpt lat="44.52396126997785" lon="8.75096315657538"><ele>728.0</ele><time>2026-04-25T10:09:28.999Z</time></trkpt><trkpt lat="44.52408439607526" lon="8.75097953620849"><ele>729.0</ele><time>2026-04-25T10:09:30.999Z</time></trkpt><trkpt lat="44.524181493839365" lon="8.750991988007636"><ele>730.0</ele><time>2026-04-25T10:09:31.999Z</time></trkpt><trkpt lat="44.52428771778767" lon="8.751002512096072"><ele>730.0</ele><time>2026-04-25T10:09:32.999Z</time></trkpt><trkpt lat="44.52437715196554" lon="8.751031338310488"><ele>730.0</ele><time>2026-04-25T10:09:33.999Z</time></trkpt><trkpt lat="44.5244654217948" lon="8.751074994427782"><ele>730.0</ele><time>2026-04-25T10:09:34.999Z</time></trkpt><trkpt lat="44.52454947997321" lon="8.75113961689175"><ele>730.0</ele><time>2026-04-25T10:09:35.999Z</time></trkpt><trkpt lat="44.52465012280233" lon="8.751229746515595"><ele>730.0</ele><time>2026-04-25T10:09:36.999Z</time></trkpt><trkpt lat="44.52475336019693" lon="8.751348302284686"><ele>733.6</ele><time>2026-04-25T10:09:37.999Z</time></trkpt><trkpt lat="44.52486432489919" lon="8.751428769538599"><ele>737.2</ele><time>2026-04-25T10:09:38.999Z</time></trkpt><trkpt lat="44.52495437389191" lon="8.75148479781813"><ele>740.8</ele><time>2026-04-25T10:09:39.999Z</time></trkpt><trkpt lat="44.52504912488195" lon="8.751510194647254"><ele>744.4</ele><time>2026-04-25T10:09:40.999Z</time></trkpt><trkpt lat="44.52515755211537" lon="8.751517161734204"><ele>748.0</ele><time>2026-04-25T10:09:41.999Z</time></trkpt><trkpt lat="44.52525890436462" lon="8.751547030679735"><ele>748.0</ele><time>2026-04-25T10:09:42.999Z</time></trkpt><trkpt lat="44.52533148922326" lon="8.751543668264361"><ele>748.0</ele><time>2026-04-25T10:09:43.999Z</time></trkpt><trkpt lat="44.525381569635485" lon="8.751442785751518"><ele>748.0</ele><time>2026-04-25T10:09:44.999Z</time></trkpt><trkpt lat="44.525431961960116" lon="8.751345318396794"><ele>748.0</ele><time>2026-04-25T10:09:45.999Z</time></trkpt><trkpt lat="44.52547393380016" lon="8.7512348026658"><ele>748.0</ele><time>2026-04-25T10:09:46.999Z</time></trkpt><trkpt lat="44.52548866140907" lon="8.751110530878158"><ele>748.0</ele><time>2026-04-25T10:09:47.999Z</time></trkpt><trkpt lat="44.52549116639576" lon="8.750969792379633"><ele>747.5999999999999</ele><time>2026-04-25T10:09:48.999Z</time></trkpt><trkpt lat="44.52552083553202" lon="8.750863131525824"><ele>747.1999999999999</ele><time>2026-04-25T10:09:49.999Z</time></trkpt><trkpt lat="44.52560615515974" lon="8.750747562546168"><ele>746.8</ele><time>2026-04-25T10:09:51.999Z</time></trkpt><trkpt lat="44.52573802646962" lon="8.75074873159885"><ele>746.4</ele><time>2026-04-25T10:09:53.999Z</time></trkpt><trkpt lat="44.52580161496613" lon="8.750773101499703"><ele>746.0</ele><time>2026-04-25T10:09:54.999Z</time></trkpt><trkpt lat="44.52587066096455" lon="8.750816637180503"><ele>746.0</ele><time>2026-04-25T10:09:55.999Z</time></trkpt><trkpt lat="44.525968124978974" lon="8.750895500607555"><ele>746.0</ele><time>2026-04-25T10:09:56.999Z</time></trkpt><trkpt lat="44.526077937671275" lon="8.750991358025573"><ele>746.0</ele><time>2026-04-25T10:09:57.999Z</time></trkpt><trkpt lat="44.52618349519486" lon="8.751063558648607"><ele>746.0</ele><time>2026-04-25T10:09:58.999Z</time></trkpt><trkpt lat="44.52627398814193" lon="8.751136579605198"><ele>748.1666666666666</ele><time>2026-04-25T10:09:59.999Z</time></trkpt><trkpt lat="44.52634354410247" lon="8.75121490343897"><ele>750.3333333333333</ele><time>2026-04-25T10:10:00.999Z</time></trkpt><trkpt lat="44.52640093177194" lon="8.751290596283669"><ele>752.5</ele><time>2026-04-25T10:10:01.999Z</time></trkpt><trkpt lat="44.52643884010824" lon="8.751379713105695"><ele>754.6666666666666</ele><time>2026-04-25T10:10:02.999Z</time></trkpt><trkpt lat="44.526542145666944" lon="8.751452571647437"><ele>756.8333333333334</ele><time>2026-04-25T10:10:04.999Z</time></trkpt><trkpt lat="44.526629536644435" lon="8.751489828526651"><ele>759.0</ele><time>2026-04-25T10:10:06.999Z</time></trkpt><trkpt lat="44.52671399132131" lon="8.751522575121228"><ele>759.0</ele><time>2026-04-25T10:10:08.999Z</time></trkpt><trkpt lat="44.52676227986051" lon="8.75163825744996"><ele>759.0</ele><time>2026-04-25T10:10:10.999Z</time></trkpt><trkpt lat="44.526807989991916" lon="8.751747146182154"><ele>759.0</ele><time>2026-04-25T10:10:12.999Z</time></trkpt><trkpt lat="44.52683535198212" lon="8.751827073288004"><ele>759.0</ele><time>2026-04-25T10:10:13.999Z</time></trkpt><trkpt lat="44.52683905314793" lon="8.751917873291818"><ele>759.0</ele><time>2026-04-25T10:10:14.999Z</time></trkpt><trkpt lat="44.52685308276884" lon="8.752060488488388"><ele>759.0</ele><time>2026-04-25T10:10:16.999Z</time></trkpt><trkpt lat="44.52685333333503" lon="8.752184799872222"><ele>760.5</ele><time>2026-04-25T10:10:18.999Z</time></trkpt><trkpt lat="44.5268725372456" lon="8.752294142043738"><ele>762.0</ele><time>2026-04-25T10:10:20.999Z</time></trkpt><trkpt lat="44.52693625449358" lon="8.752388610571302"><ele>763.5</ele><time>2026-04-25T10:10:22.999Z</time></trkpt><trkpt lat="44.526991361756124" lon="8.752479640820257"><ele>765.0</ele><time>2026-04-25T10:10:24.999Z</time></trkpt><trkpt lat="44.52698412495751" lon="8.752578252455349"><ele>766.5</ele><time>2026-04-25T10:10:26.999Z</time></trkpt><trkpt lat="44.52705445189465" lon="8.752686858424308"><ele>768.0</ele><time>2026-04-25T10:10:28.999Z</time></trkpt><trkpt lat="44.527098872417376" lon="8.752768815495564"><ele>768.0</ele><time>2026-04-25T10:10:31.999Z</time></trkpt><trkpt lat="44.527132556061815" lon="8.752882090701542"><ele>768.0</ele><time>2026-04-25T10:10:34.999Z</time></trkpt><trkpt lat="44.52712169851336" lon="8.753013064541769"><ele>768.0</ele><time>2026-04-25T10:10:36.999Z</time></trkpt><trkpt lat="44.527124673199985" lon="8.753144435051507"><ele>768.0</ele><time>2026-04-25T10:10:38.999Z</time></trkpt><trkpt lat="44.52715228336094" lon="8.75325911226557"><ele>768.0</ele><time>2026-04-25T10:10:40.999Z</time></trkpt><trkpt lat="44.5272408628886" lon="8.753336469476428"><ele>768.0</ele><time>2026-04-25T10:10:42.999Z</time></trkpt><trkpt lat="44.52730687509259" lon="8.75340560774166"><ele>768.0</ele><time>2026-04-25T10:10:44.999Z</time></trkpt><trkpt lat="44.52734384793687" lon="8.753496252018346"><ele>768.0</ele><time>2026-04-25T10:10:46.999Z</time></trkpt><trkpt lat="44.527334094073716" lon="8.753616764073547"><ele>768.0</ele><time>2026-04-25T10:10:48.999Z</time></trkpt><trkpt lat="44.52731806612917" lon="8.75375613174873"><ele>768.0</ele><time>2026-04-25T10:10:50.999Z</time></trkpt><trkpt lat="44.52734300547874" lon="8.753893401334329"><ele>768.0</ele><time>2026-04-25T10:10:52.999Z</time></trkpt><trkpt lat="44.52739927987704" lon="8.754021204943838"><ele>768.8</ele><time>2026-04-25T10:10:54.999Z</time></trkpt><trkpt lat="44.52739347684094" lon="8.754164445623449"><ele>769.5999999999999</ele><time>2026-04-25T10:10:56.999Z</time></trkpt><trkpt lat="44.52737061494902" lon="8.754292613478016"><ele>770.4000000000001</ele><time>2026-04-25T10:10:58.999Z</time></trkpt><trkpt lat="44.52739681030078" lon="8.754423503573433"><ele>771.2</ele><time>2026-04-25T10:11:00.999Z</time></trkpt><trkpt lat="44.527437379469525" lon="8.75458529724401"><ele>772.0</ele><time>2026-04-25T10:11:02.999Z</time></trkpt><trkpt lat="44.52743865735156" lon="8.754748253911226"><ele>773.1666666666666</ele><time>2026-04-25T10:11:04.999Z</time></trkpt><trkpt lat="44.52745952749342" lon="8.754910112492862"><ele>774.3333333333333</ele><time>2026-04-25T10:11:06.999Z</time></trkpt><trkpt lat="44.52752562365035" lon="8.754972560056109"><ele>775.5</ele><time>2026-04-25T10:11:07.999Z</time></trkpt><trkpt lat="44.52754631752054" lon="8.755063962348634"><ele>776.6666666666667</ele><time>2026-04-25T10:11:08.999Z</time></trkpt><trkpt lat="44.52758509696988" lon="8.755160887465788"><ele>777.8333333333334</ele><time>2026-04-25T10:11:09.999Z</time></trkpt><trkpt lat="44.52762905937505" lon="8.755246253434974"><ele>779.0</ele><time>2026-04-25T10:11:10.999Z</time></trkpt><trkpt lat="44.527681444251584" lon="8.755315945503844"><ele>779.6</ele><time>2026-04-25T10:11:11.999Z</time></trkpt><trkpt lat="44.52773823332847" lon="8.755362610119773"><ele>780.2</ele><time>2026-04-25T10:11:12.999Z</time></trkpt><trkpt lat="44.5278110278225" lon="8.755484979073866"><ele>780.8000000000001</ele><time>2026-04-25T10:11:14.999Z</time></trkpt><trkpt lat="44.527845535066795" lon="8.755601645489307"><ele>781.4000000000001</ele><time>2026-04-25T10:11:16.999Z</time></trkpt><trkpt lat="44.527914955170154" lon="8.755697978391785"><ele>782.0</ele><time>2026-04-25T10:11:18.999Z</time></trkpt><trkpt lat="44.528023846977455" lon="8.755717490476174"><ele>782.0000000000001</ele><time>2026-04-25T10:11:20.999Z</time></trkpt><trkpt lat="44.528101461479295" lon="8.755701486917879"><ele>782.0</ele><time>2026-04-25T10:11:22.999Z</time></trkpt><trkpt lat="44.52816851909543" lon="8.755694257806274"><ele>782.0</ele><time>2026-04-25T10:12:05.999Z</time></trkpt><trkpt lat="44.528250544119" lon="8.755694869986423"><ele>782.0</ele><time>2026-04-25T10:12:08.999Z</time></trkpt><trkpt lat="44.528334247883926" lon="8.755679302661811"><ele>782.0000000000001</ele><time>2026-04-25T10:12:10.999Z</time></trkpt><trkpt lat="44.52843512795903" lon="8.75569626848957"><ele>782.0</ele><time>2026-04-25T10:12:12.999Z</time></trkpt><trkpt lat="44.52851349417765" lon="8.755707115552175"><ele>782.0000000000001</ele><time>2026-04-25T10:12:14.999Z</time></trkpt><trkpt lat="44.52858762793032" lon="8.755718514889525"><ele>782.0</ele><time>2026-04-25T10:12:16.999Z</time></trkpt><trkpt lat="44.528659707334285" lon="8.755754689661247"><ele>782.0</ele><time>2026-04-25T10:12:18.999Z</time></trkpt><trkpt lat="44.528733976512115" lon="8.755841338324535"><ele>782.0</ele><time>2026-04-25T10:12:20.999Z</time></trkpt><trkpt lat="44.528804901744984" lon="8.755932609350584"><ele>782.0000000000001</ele><time>2026-04-25T10:12:22.999Z</time></trkpt><trkpt lat="44.52884455411073" lon="8.756048860177986"><ele>782.0</ele><time>2026-04-25T10:12:24.999Z</time></trkpt><trkpt lat="44.528893596694864" lon="8.756163962149476"><ele>780.8</ele><time>2026-04-25T10:12:26.999Z</time></trkpt><trkpt lat="44.52894291774922" lon="8.75627341146673"><ele>779.6</ele><time>2026-04-25T10:12:28.999Z</time></trkpt><trkpt lat="44.528974133431014" lon="8.756398900392877"><ele>778.4</ele><time>2026-04-25T10:12:30.999Z</time></trkpt><trkpt lat="44.52901179561891" lon="8.756524211505658"><ele>777.1999999999999</ele><time>2026-04-25T10:12:32.999Z</time></trkpt><trkpt lat="44.5290563774451" lon="8.756648504352462"><ele>776.0</ele><time>2026-04-25T10:12:34.999Z</time></trkpt><trkpt lat="44.52910807940821" lon="8.756760761013826"><ele>775.8</ele><time>2026-04-25T10:12:36.999Z</time></trkpt><trkpt lat="44.52916459497648" lon="8.756882831263981"><ele>775.5999999999999</ele><time>2026-04-25T10:12:38.999Z</time></trkpt><trkpt lat="44.529225078745206" lon="8.756984156622993"><ele>775.4</ele><time>2026-04-25T10:12:40.999Z</time></trkpt><trkpt lat="44.52928707196078" lon="8.757086534617967"><ele>775.2</ele><time>2026-04-25T10:12:42.999Z</time></trkpt><trkpt lat="44.52936088502521" lon="8.757207779575435"><ele>775.0</ele><time>2026-04-25T10:12:44.999Z</time></trkpt><trkpt lat="44.52945090948903" lon="8.75732305738361"><ele>774.9999999999999</ele><time>2026-04-25T10:12:46.999Z</time></trkpt><trkpt lat="44.5295366709252" lon="8.757436783761896"><ele>775.0</ele><time>2026-04-25T10:12:48.999Z</time></trkpt><trkpt lat="44.529575416412406" lon="8.757513973530376"><ele>775.0</ele><time>2026-04-25T10:12:49.999Z</time></trkpt><trkpt lat="44.52962548957029" lon="8.757570247496528"><ele>775.0</ele><time>2026-04-25T10:12:50.999Z</time></trkpt><trkpt lat="44.52967304454884" lon="8.757643922266674"><ele>774.9999999999999</ele><time>2026-04-25T10:12:51.999Z</time></trkpt><trkpt lat="44.529718748006125" lon="8.757724212741689"><ele>775.0</ele><time>2026-04-25T10:12:52.999Z</time></trkpt><trkpt lat="44.529764921662476" lon="8.757810355786443"><ele>774.8571428571428</ele><time>2026-04-25T10:12:53.999Z</time></trkpt><trkpt lat="44.529811938785706" lon="8.75790117955593"><ele>774.7142857142857</ele><time>2026-04-25T10:12:54.999Z</time></trkpt><trkpt lat="44.529858102449396" lon="8.757989676642419"><ele>774.5714285714286</ele><time>2026-04-25T10:12:55.999Z</time></trkpt><trkpt lat="44.529904257787976" lon="8.75807393853109"><ele>774.4285714285713</ele><time>2026-04-25T10:12:56.999Z</time></trkpt><trkpt lat="44.52994528155023" lon="8.758147340121559"><ele>774.2857142857143</ele><time>2026-04-25T10:12:57.999Z</time></trkpt><trkpt lat="44.529985766028965" lon="8.758222818620489"><ele>774.1428571428571</ele><time>2026-04-25T10:12:58.999Z</time></trkpt><trkpt lat="44.5300235201171" lon="8.758296224094371"><ele>774.0</ele><time>2026-04-25T10:12:59.999Z</time></trkpt><trkpt lat="44.53006517015493" lon="8.758371691554151"><ele>774.0</ele><time>2026-04-25T10:13:00.999Z</time></trkpt><trkpt lat="44.53010533018613" lon="8.758442124154522"><ele>774.0</ele><time>2026-04-25T10:13:01.999Z</time></trkpt><trkpt lat="44.53018197149535" lon="8.75857281186668"><ele>774.0</ele><time>2026-04-25T10:13:03.999Z</time></trkpt><trkpt lat="44.53022579961809" lon="8.758699719612038"><ele>774.0</ele><time>2026-04-25T10:13:05.999Z</time></trkpt><trkpt lat="44.5302636479628" lon="8.758826751451954"><ele>774.0</ele><time>2026-04-25T10:13:07.999Z</time></trkpt><trkpt lat="44.530296977608515" lon="8.758951250793078"><ele>774.2</ele><time>2026-04-25T10:13:09.999Z</time></trkpt><trkpt lat="44.530332090879526" lon="8.759088624749483"><ele>774.4000000000001</ele><time>2026-04-25T10:13:11.999Z</time></trkpt><trkpt lat="44.53036866028847" lon="8.759223495373714"><ele>774.6</ele><time>2026-04-25T10:13:13.999Z</time></trkpt><trkpt lat="44.53040170284471" lon="8.759350487498525"><ele>774.8</ele><time>2026-04-25T10:13:15.999Z</time></trkpt><trkpt lat="44.53042419744173" lon="8.759470850668768"><ele>775.0</ele><time>2026-04-25T10:13:17.999Z</time></trkpt><trkpt lat="44.530422183546605" lon="8.75957592457132"><ele>776.2</ele><time>2026-04-25T10:13:20Z</time></trkpt><trkpt lat="44.53041145639038" lon="8.759705600755106"><ele>777.4</ele><time>2026-04-25T10:13:22Z</time></trkpt><trkpt lat="44.53039794754196" lon="8.759855458829307"><ele>778.5999999999999</ele><time>2026-04-25T10:13:24Z</time></trkpt><trkpt lat="44.53037522140839" lon="8.759986036096857"><ele>779.8</ele><time>2026-04-25T10:13:26Z</time></trkpt><trkpt lat="44.53035197358346" lon="8.76013088682987"><ele>781.0</ele><time>2026-04-25T10:13:28Z</time></trkpt><trkpt lat="44.53031880982532" lon="8.760271146170238"><ele>782.0</ele><time>2026-04-25T10:13:30Z</time></trkpt><trkpt lat="44.53028461393193" lon="8.760408276959499"><ele>783.0</ele><time>2026-04-25T10:13:32Z</time></trkpt><trkpt lat="44.5302528143533" lon="8.760550296898428"><ele>784.0</ele><time>2026-04-25T10:13:34Z</time></trkpt><trkpt lat="44.53022272232759" lon="8.760693006420373"><ele>785.0</ele><time>2026-04-25T10:13:36Z</time></trkpt><trkpt lat="44.53019712218687" lon="8.760826710980684"><ele>786.0</ele><time>2026-04-25T10:13:38Z</time></trkpt><trkpt lat="44.53018322435277" lon="8.760946312036571"><ele>784.1999999999999</ele><time>2026-04-25T10:13:40Z</time></trkpt><trkpt lat="44.53017170591698" lon="8.761071328487924"><ele>782.4</ele><time>2026-04-25T10:13:42Z</time></trkpt><trkpt lat="44.53016049672534" lon="8.761202038932947"><ele>780.6</ele><time>2026-04-25T10:13:44Z</time></trkpt><trkpt lat="44.53015457266729" lon="8.761341166459522"><ele>778.8</ele><time>2026-04-25T10:13:46Z</time></trkpt><trkpt lat="44.53015106265463" lon="8.761478783043852"><ele>777.0</ele><time>2026-04-25T10:13:48Z</time></trkpt><trkpt lat="44.530149889384255" lon="8.761614063026268"><ele>777.0</ele><time>2026-04-25T10:13:50Z</time></trkpt><trkpt lat="44.5301455157929" lon="8.761756972381955"><ele>777.0</ele><time>2026-04-25T10:13:52Z</time></trkpt><trkpt lat="44.53014307896081" lon="8.761912158743273"><ele>777.0</ele><time>2026-04-25T10:13:54Z</time></trkpt><trkpt lat="44.53013446941927" lon="8.762054448807678"><ele>777.0</ele><time>2026-04-25T10:13:56Z</time></trkpt><trkpt lat="44.53011610941083" lon="8.76218016451575"><ele>777.0</ele><time>2026-04-25T10:13:58Z</time></trkpt><trkpt lat="44.53009834237522" lon="8.76229481241277"><ele>775.1666666666666</ele><time>2026-04-25T10:14:00Z</time></trkpt><trkpt lat="44.53008156774781" lon="8.762409754135886"><ele>773.3333333333334</ele><time>2026-04-25T10:14:03Z</time></trkpt><trkpt lat="44.53007333190038" lon="8.762500129434796"><ele>771.5</ele><time>2026-04-25T10:14:05Z</time></trkpt><trkpt lat="44.53007345139373" lon="8.762604191811603"><ele>769.6666666666667</ele><time>2026-04-25T10:14:08Z</time></trkpt><trkpt lat="44.53005788891661" lon="8.76274724287518"><ele>767.8333333333334</ele><time>2026-04-25T10:14:11Z</time></trkpt><trkpt lat="44.530076530056974" lon="8.762883094034231"><ele>766.0</ele><time>2026-04-25T10:14:13Z</time></trkpt><trkpt lat="44.53009038909194" lon="8.763019546217585"><ele>764.5999999999999</ele><time>2026-04-25T10:14:15Z</time></trkpt><trkpt lat="44.53012169787866" lon="8.763145923297659"><ele>763.2</ele><time>2026-04-25T10:14:17Z</time></trkpt><trkpt lat="44.53015761802937" lon="8.763279351404355"><ele>761.8</ele><time>2026-04-25T10:14:19Z</time></trkpt><trkpt lat="44.53019539965377" lon="8.763414866245322"><ele>760.4000000000001</ele><time>2026-04-25T10:14:21Z</time></trkpt><trkpt lat="44.53024877519875" lon="8.76354495631477"><ele>759.0</ele><time>2026-04-25T10:14:23Z</time></trkpt><trkpt lat="44.53031406316747" lon="8.76369847113972"><ele>758.8000000000001</ele><time>2026-04-25T10:14:25Z</time></trkpt><trkpt lat="44.530337623205945" lon="8.763786995050216"><ele>758.6</ele><time>2026-04-25T10:14:26Z</time></trkpt><trkpt lat="44.53041332855977" lon="8.763921847784717"><ele>758.4</ele><time>2026-04-25T10:14:28Z</time></trkpt><trkpt lat="44.530502851421396" lon="8.764028088584396"><ele>758.2</ele><time>2026-04-25T10:14:30Z</time></trkpt><trkpt lat="44.53057155242883" lon="8.76413240995772"><ele>758.0</ele><time>2026-04-25T10:14:32Z</time></trkpt><trkpt lat="44.530641329218724" lon="8.764221107505579"><ele>758.4</ele><time>2026-04-25T10:14:34Z</time></trkpt><trkpt lat="44.530724813905444" lon="8.764328851460144"><ele>758.8</ele><time>2026-04-25T10:14:36Z</time></trkpt><trkpt lat="44.53080745931846" lon="8.764434676841082"><ele>759.2</ele><time>2026-04-25T10:14:37.999Z</time></trkpt><trkpt lat="44.53088205181794" lon="8.764539672425466"><ele>759.6</ele><time>2026-04-25T10:14:39.999Z</time></trkpt><trkpt lat="44.53097047181756" lon="8.764644689968053"><ele>760.0</ele><time>2026-04-25T10:14:41.999Z</time></trkpt><trkpt lat="44.531054785196915" lon="8.76474625190122"><ele>760.8</ele><time>2026-04-25T10:14:43.999Z</time></trkpt><trkpt lat="44.53112925103813" lon="8.764866371544226"><ele>761.6</ele><time>2026-04-25T10:14:45.999Z</time></trkpt><trkpt lat="44.5312040965722" lon="8.76496004702235"><ele>762.4000000000001</ele><time>2026-04-25T10:14:47.999Z</time></trkpt><trkpt lat="44.53128154216755" lon="8.765056976287296"><ele>763.2</ele><time>2026-04-25T10:14:49.999Z</time></trkpt><trkpt lat="44.53136404627783" lon="8.765126246422495"><ele>764.0</ele><time>2026-04-25T10:14:51.999Z</time></trkpt><trkpt lat="44.53141800917357" lon="8.765200338367597"><ele>762.8571428571429</ele><time>2026-04-25T10:14:53.999Z</time></trkpt><trkpt lat="44.53142514130175" lon="8.76529980914794"><ele>761.7142857142857</ele><time>2026-04-25T10:14:55.999Z</time></trkpt><trkpt lat="44.531439375896944" lon="8.765398938972124"><ele>760.5714285714286</ele><time>2026-04-25T10:14:57.999Z</time></trkpt><trkpt lat="44.53146162477678" lon="8.765496475410282"><ele>759.4285714285714</ele><time>2026-04-25T10:14:59.999Z</time></trkpt><trkpt lat="44.531468433806936" lon="8.765598327679998"><ele>758.2857142857142</ele><time>2026-04-25T10:15:01.999Z</time></trkpt><trkpt lat="44.531475972710474" lon="8.765710023601972"><ele>757.1428571428571</ele><time>2026-04-25T10:15:03.999Z</time></trkpt><trkpt lat="44.53148610810685" lon="8.76581167071693"><ele>756.0</ele><time>2026-04-25T10:15:05.999Z</time></trkpt><trkpt lat="44.53150378914496" lon="8.765914200293766"><ele>756.0</ele><time>2026-04-25T10:15:07.999Z</time></trkpt><trkpt lat="44.53150498290128" lon="8.766017596022172"><ele>756.0</ele><time>2026-04-25T10:15:09.999Z</time></trkpt><trkpt lat="44.53150761657579" lon="8.766149263070766"><ele>756.0</ele><time>2026-04-25T10:15:11.999Z</time></trkpt><trkpt lat="44.53149726788683" lon="8.76626808748396"><ele>756.0</ele><time>2026-04-25T10:15:13.999Z</time></trkpt><trkpt lat="44.53149507985835" lon="8.766363143368805"><ele>756.0</ele><time>2026-04-25T10:15:15.999Z</time></trkpt><trkpt lat="44.53146754091169" lon="8.766453364953149"><ele>756.0</ele><time>2026-04-25T10:15:19.999Z</time></trkpt><trkpt lat="44.53164469485492" lon="8.766515528988542"><ele>757.1666666666666</ele><time>2026-04-25T10:15:22.999Z</time></trkpt><trkpt lat="44.53171934083428" lon="8.766524982904162"><ele>758.3333333333334</ele><time>2026-04-25T10:15:25Z</time></trkpt><trkpt lat="44.531612778311384" lon="8.766496726315012"><ele>759.5</ele><time>2026-04-25T10:16:14Z</time></trkpt><trkpt lat="44.53154511954445" lon="8.766473920633477"><ele>760.6666666666667</ele><time>2026-04-25T10:16:16Z</time></trkpt><trkpt lat="44.53147354689676" lon="8.766463058060282"><ele>761.8333333333334</ele><time>2026-04-25T10:16:19Z</time></trkpt><trkpt lat="44.531412583127626" lon="8.766491859214224"><ele>763.0</ele><time>2026-04-25T10:16:22Z</time></trkpt><trkpt lat="44.53133300978674" lon="8.766531250139982"><ele>763.0</ele><time>2026-04-25T10:16:34Z</time></trkpt><trkpt lat="44.531263854522585" lon="8.766575222682954"><ele>763.0</ele><time>2026-04-25T10:16:35.999Z</time></trkpt><trkpt lat="44.53121588388229" lon="8.766652235195668"><ele>763.0</ele><time>2026-04-25T10:16:37.999Z</time></trkpt><trkpt lat="44.53120811512544" lon="8.766745287862166"><ele>763.0</ele><time>2026-04-25T10:16:39.999Z</time></trkpt><trkpt lat="44.53123898872479" lon="8.766825546829521"><ele>763.0</ele><time>2026-04-25T10:16:41.999Z</time></trkpt><trkpt lat="44.53132407664758" lon="8.766867255423568"><ele>763.0</ele><time>2026-04-25T10:16:57.999Z</time></trkpt><trkpt lat="44.53138595440614" lon="8.766942733228126"><ele>765.5</ele><time>2026-04-25T10:17:00.999Z</time></trkpt><trkpt lat="44.53146863124398" lon="8.766988765657661"><ele>768.0</ele><time>2026-04-25T10:17:03.999Z</time></trkpt><trkpt lat="44.531533472558316" lon="8.76700806081929"><ele>770.5</ele><time>2026-04-25T10:17:05.999Z</time></trkpt><trkpt lat="44.53161811267724" lon="8.767027320511565"><ele>773.0</ele><time>2026-04-25T10:17:08.999Z</time></trkpt><trkpt lat="44.531715865745795" lon="8.767056501088128"><ele>775.4999999999999</ele><time>2026-04-25T10:18:18Z</time></trkpt><trkpt lat="44.53177766222275" lon="8.767078910375856"><ele>778.0</ele><time>2026-04-25T10:18:19Z</time></trkpt><trkpt lat="44.53183858071307" lon="8.76711516021047"><ele>777.9999999999999</ele><time>2026-04-25T10:18:20Z</time></trkpt><trkpt lat="44.531893759855684" lon="8.767161908101832"><ele>778.0</ele><time>2026-04-25T10:18:21Z</time></trkpt><trkpt lat="44.531926285864216" lon="8.767252820250647"><ele>778.0</ele><time>2026-04-25T10:18:22Z</time></trkpt><trkpt lat="44.532014968952154" lon="8.767308199861548"><ele>778.0</ele><time>2026-04-25T10:18:24Z</time></trkpt><trkpt lat="44.53206551712737" lon="8.767395250270607"><ele>777.9999999999999</ele><time>2026-04-25T10:18:26Z</time></trkpt><trkpt lat="44.532092178127805" lon="8.76747999470631"><ele>778.0</ele><time>2026-04-25T10:18:28Z</time></trkpt><trkpt lat="44.53207307484034" lon="8.767594794258386"><ele>777.9999999999999</ele><time>2026-04-25T10:18:30Z</time></trkpt><trkpt lat="44.53206844645595" lon="8.76769819877382"><ele>778.0</ele><time>2026-04-25T10:18:32Z</time></trkpt><trkpt lat="44.5319871241884" lon="8.767740120628465"><ele>778.0</ele><time>2026-04-25T10:18:34Z</time></trkpt><trkpt lat="44.53190560969698" lon="8.767654473622425"><ele>778.0</ele><time>2026-04-25T10:18:36Z</time></trkpt><trkpt lat="44.53183999373998" lon="8.767636396990474"><ele>777.9999999999999</ele><time>2026-04-25T10:18:37Z</time></trkpt><trkpt lat="44.531773840335966" lon="8.767657285832668"><ele>778.0</ele><time>2026-04-25T10:18:38Z</time></trkpt><trkpt lat="44.531661021170045" lon="8.76763933003756"><ele>777.9999999999999</ele><time>2026-04-25T10:18:40Z</time></trkpt><trkpt lat="44.531570498543005" lon="8.767652915868915"><ele>778.0</ele><time>2026-04-25T10:18:42Z</time></trkpt><trkpt lat="44.53148985110269" lon="8.767676349061238"><ele>778.0</ele><time>2026-04-25T10:18:44Z</time></trkpt><trkpt lat="44.53143668167926" lon="8.767763490302986"><ele>778.0</ele><time>2026-04-25T10:18:45.999Z</time></trkpt><trkpt lat="44.53141425189467" lon="8.767858792369287"><ele>777.9999999999999</ele><time>2026-04-25T10:18:47.999Z</time></trkpt><trkpt lat="44.531428958932246" lon="8.767995219053223"><ele>778.0</ele><time>2026-04-25T10:23:19.999Z</time></trkpt><trkpt lat="44.53139820254684" lon="8.768150448690525"><ele>780.5999999999999</ele><time>2026-04-25T10:23:21.999Z</time></trkpt><trkpt lat="44.53135574789647" lon="8.768250617690978"><ele>783.1999999999999</ele><time>2026-04-25T10:23:23.999Z</time></trkpt><trkpt lat="44.53130873269061" lon="8.76838335359306"><ele>785.8</ele><time>2026-04-25T10:23:25.999Z</time></trkpt><trkpt lat="44.53126503459894" lon="8.768516113154227"><ele>788.4</ele><time>2026-04-25T10:23:27.999Z</time></trkpt><trkpt lat="44.53121881207763" lon="8.768683200731296"><ele>791.0</ele><time>2026-04-25T10:23:29.999Z</time></trkpt><trkpt lat="44.53119380538862" lon="8.768794967486496"><ele>792.1428571428571</ele><time>2026-04-25T10:23:30.999Z</time></trkpt><trkpt lat="44.53116954396182" lon="8.768884607850671"><ele>793.2857142857142</ele><time>2026-04-25T10:23:31.999Z</time></trkpt><trkpt lat="44.53114081917369" lon="8.768971754229419"><ele>794.4285714285714</ele><time>2026-04-25T10:23:32.999Z</time></trkpt><trkpt lat="44.531093698271455" lon="8.769046320447663"><ele>795.5714285714286</ele><time>2026-04-25T10:23:33.999Z</time></trkpt><trkpt lat="44.53107421092527" lon="8.769136373316366"><ele>796.7142857142857</ele><time>2026-04-25T10:23:34.999Z</time></trkpt><trkpt lat="44.53102919108357" lon="8.769215516485684"><ele>797.8571428571429</ele><time>2026-04-25T10:23:35.999Z</time></trkpt><trkpt lat="44.53099498690097" lon="8.769295733423654"><ele>799.0</ele><time>2026-04-25T10:23:36.999Z</time></trkpt><trkpt lat="44.530931186885766" lon="8.76939875253349"><ele>801.8000000000001</ele><time>2026-04-25T10:23:38.999Z</time></trkpt><trkpt lat="44.530846755895915" lon="8.769502839330281"><ele>804.6</ele><time>2026-04-25T10:23:40.999Z</time></trkpt><trkpt lat="44.53079398346149" lon="8.769602588776523"><ele>807.4</ele><time>2026-04-25T10:23:42.999Z</time></trkpt><trkpt lat="44.53074892462175" lon="8.769671641343646"><ele>810.2</ele><time>2026-04-25T10:23:44.999Z</time></trkpt><trkpt lat="44.53070881083504" lon="8.769774195290777"><ele>813.0</ele><time>2026-04-25T10:23:46.999Z</time></trkpt><trkpt lat="44.530668722452035" lon="8.769924814357246"><ele>813.0</ele><time>2026-04-25T10:23:49Z</time></trkpt><trkpt lat="44.53074090707558" lon="8.770039627317338"><ele>813.0</ele><time>2026-04-25T10:23:51Z</time></trkpt><trkpt lat="44.53083392014634" lon="8.770131077432813"><ele>813.0</ele><time>2026-04-25T10:23:53Z</time></trkpt><trkpt lat="44.53089095937905" lon="8.770173679386852"><ele>813.0</ele><time>2026-04-25T10:23:55Z</time></trkpt><trkpt lat="44.530907168463884" lon="8.770266329958211"><ele>813.0</ele><time>2026-04-25T10:24:14Z</time></trkpt><trkpt lat="44.53084894388346" lon="8.770335650524656"><ele>813.0</ele><time>2026-04-25T10:24:17Z</time></trkpt><trkpt lat="44.53079421143614" lon="8.770407654086835"><ele>815.1666666666666</ele><time>2026-04-25T10:24:26Z</time></trkpt><trkpt lat="44.53074240392064" lon="8.770499015578437"><ele>817.3333333333333</ele><time>2026-04-25T10:25:05.999Z</time></trkpt><trkpt lat="44.53070569325362" lon="8.770578858180432"><ele>819.5</ele><time>2026-04-25T10:25:09.999Z</time></trkpt><trkpt lat="44.530658238185765" lon="8.770679714333767"><ele>821.6666666666666</ele><time>2026-04-25T10:25:23.999Z</time></trkpt><trkpt lat="44.53061331080767" lon="8.770751218735874"><ele>823.8333333333333</ele><time>2026-04-25T10:25:25.999Z</time></trkpt><trkpt lat="44.530558424364614" lon="8.770842848739068"><ele>826.0</ele><time>2026-04-25T10:25:27.999Z</time></trkpt><trkpt lat="44.53052907557469" lon="8.770960077443473"><ele>826.1666666666666</ele><time>2026-04-25T10:25:29.999Z</time></trkpt><trkpt lat="44.5305621347191" lon="8.771072842449762"><ele>826.3333333333333</ele><time>2026-04-25T10:25:31.999Z</time></trkpt><trkpt lat="44.5305381580896" lon="8.77116587092599"><ele>826.5</ele><time>2026-04-25T10:25:33.999Z</time></trkpt><trkpt lat="44.5305032216124" lon="8.771262927458384"><ele>826.6666666666667</ele><time>2026-04-25T10:25:35.999Z</time></trkpt><trkpt lat="44.530460872602774" lon="8.771354467799394"><ele>826.8333333333334</ele><time>2026-04-25T10:25:37.999Z</time></trkpt><trkpt lat="44.530398336579694" lon="8.77148514064865"><ele>827.0</ele><time>2026-04-25T10:25:39.999Z</time></trkpt><trkpt lat="44.5303515807189" lon="8.771545354818544"><ele>827.0000000000001</ele><time>2026-04-25T10:25:40.999Z</time></trkpt><trkpt lat="44.53027691782508" lon="8.771589827175307"><ele>827.0</ele><time>2026-04-25T10:25:42.999Z</time></trkpt><trkpt lat="44.53021184410299" lon="8.771692393576098"><ele>827.0</ele><time>2026-04-25T10:25:44.999Z</time></trkpt><trkpt lat="44.53015138659426" lon="8.771767200775649"><ele>827.0</ele><time>2026-04-25T10:25:46.999Z</time></trkpt><trkpt lat="44.530108543049124" lon="8.77186205393897"><ele>827.0000000000001</ele><time>2026-04-25T10:25:48.999Z</time></trkpt><trkpt lat="44.530104692245196" lon="8.771958716167783"><ele>827.0</ele><time>2026-04-25T10:25:50.999Z</time></trkpt><trkpt lat="44.53016105098363" lon="8.772056288286134"><ele>824.0</ele><time>2026-04-25T10:25:54Z</time></trkpt><trkpt lat="44.53023256414569" lon="8.772095960597914"><ele>821.0</ele><time>2026-04-25T10:25:56Z</time></trkpt><trkpt lat="44.53135452466362" lon="8.77240112622277"><ele>824.5999999999999</ele><time>2026-04-25T10:32:00.999Z</time></trkpt><trkpt lat="44.53143960706875" lon="8.772415779815994"><ele>828.2</ele><time>2026-04-25T10:32:03.999Z</time></trkpt><trkpt lat="44.53147994078593" lon="8.772526280248645"><ele>831.8</ele><time>2026-04-25T10:32:05.999Z</time></trkpt><trkpt lat="44.53151434554228" lon="8.772671579587694"><ele>835.4000000000001</ele><time>2026-04-25T10:32:07.999Z</time></trkpt><trkpt lat="44.53155723080834" lon="8.772830546936063"><ele>839.0</ele><time>2026-04-25T10:32:09.999Z</time></trkpt><trkpt lat="44.53161722765783" lon="8.772958168607877"><ele>839.0000000000001</ele><time>2026-04-25T10:32:11.999Z</time></trkpt><trkpt lat="44.53165779467724" lon="8.773030778551"><ele>839.0</ele><time>2026-04-25T10:32:12.999Z</time></trkpt><trkpt lat="44.531709363175366" lon="8.77310594028161"><ele>839.0</ele><time>2026-04-25T10:32:13.999Z</time></trkpt><trkpt lat="44.53178080555028" lon="8.773182236475405"><ele>839.0</ele><time>2026-04-25T10:32:14.999Z</time></trkpt><trkpt lat="44.53182152657096" lon="8.773266133407537"><ele>839.0000000000001</ele><time>2026-04-25T10:32:15.999Z</time></trkpt><trkpt lat="44.531885114647636" lon="8.77335359686933"><ele>839.0</ele><time>2026-04-25T10:32:17.999Z</time></trkpt><trkpt lat="44.53195746311027" lon="8.773494430776319"><ele>839.6</ele><time>2026-04-25T10:32:19.999Z</time></trkpt><trkpt lat="44.53201261884551" lon="8.773565491409801"><ele>840.2</ele><time>2026-04-25T10:32:20.999Z</time></trkpt><trkpt lat="44.532069277747176" lon="8.773681141438828"><ele>840.8000000000001</ele><time>2026-04-25T10:32:22.999Z</time></trkpt><trkpt lat="44.532102559054636" lon="8.773828468775218"><ele>841.4000000000001</ele><time>2026-04-25T10:32:24.999Z</time></trkpt><trkpt lat="44.532155585589024" lon="8.77397790843469"><ele>842.0</ele><time>2026-04-25T10:32:26.999Z</time></trkpt><trkpt lat="44.532158484439016" lon="8.774076605129151"><ele>842.3333333333334</ele><time>2026-04-25T10:32:27.999Z</time></trkpt><trkpt lat="44.5321785004651" lon="8.774162261593194"><ele>842.6666666666667</ele><time>2026-04-25T10:32:28.999Z</time></trkpt><trkpt lat="44.53219948460302" lon="8.774248573112523"><ele>843.0</ele><time>2026-04-25T10:32:29.999Z</time></trkpt><trkpt lat="44.532251740772494" lon="8.774396865823824"><ele>843.3333333333333</ele><time>2026-04-25T10:32:31.999Z</time></trkpt><trkpt lat="44.532284717051446" lon="8.774514264373716"><ele>843.6666666666666</ele><time>2026-04-25T10:32:33.999Z</time></trkpt><trkpt lat="44.53234102396681" lon="8.774627543179811"><ele>844.0</ele><time>2026-04-25T10:32:35.999Z</time></trkpt><trkpt lat="44.532387499749106" lon="8.774718739930833"><ele>845.8000000000001</ele><time>2026-04-25T10:32:37.999Z</time></trkpt><trkpt lat="44.53244538714541" lon="8.774793764542203"><ele>847.6</ele><time>2026-04-25T10:32:39.999Z</time></trkpt><trkpt lat="44.53250772028223" lon="8.774878208531183"><ele>849.4</ele><time>2026-04-25T10:32:42Z</time></trkpt><trkpt lat="44.53258529598035" lon="8.774960281222645"><ele>851.2</ele><time>2026-04-25T10:32:44Z</time></trkpt><trkpt lat="44.53267382083008" lon="8.775024750270948"><ele>853.0</ele><time>2026-04-25T10:32:46Z</time></trkpt><trkpt lat="44.532758098257595" lon="8.77511977799611"><ele>854.5999999999999</ele><time>2026-04-25T10:32:48Z</time></trkpt><trkpt lat="44.532841680351865" lon="8.775221587744532"><ele>856.1999999999999</ele><time>2026-04-25T10:32:50Z</time></trkpt><trkpt lat="44.53292288574769" lon="8.775348400969898"><ele>857.8</ele><time>2026-04-25T10:32:52Z</time></trkpt><trkpt lat="44.53301973406051" lon="8.775413136535708"><ele>859.4</ele><time>2026-04-25T10:32:54Z</time></trkpt><trkpt lat="44.533085248023106" lon="8.775413153045415"><ele>861.0</ele><time>2026-04-25T10:32:55Z</time></trkpt><trkpt lat="44.53315156199243" lon="8.775437780637715"><ele>861.0</ele><time>2026-04-25T10:32:56Z</time></trkpt><trkpt lat="44.53321256085558" lon="8.775466470639893"><ele>861.0</ele><time>2026-04-25T10:32:57Z</time></trkpt><trkpt lat="44.53332829230275" lon="8.77553000919086"><ele>861.0</ele><time>2026-04-25T10:32:59Z</time></trkpt><trkpt lat="44.533381202605405" lon="8.775580568638565"><ele>861.0</ele><time>2026-04-25T10:33:00Z</time></trkpt><trkpt lat="44.533443280595954" lon="8.775624753148433"><ele>861.0</ele><time>2026-04-25T10:33:01Z</time></trkpt><trkpt lat="44.53350919950342" lon="8.77567167153228"><ele>861.0</ele><time>2026-04-25T10:33:02Z</time></trkpt><trkpt lat="44.533590818504656" lon="8.775703996385303"><ele>861.0</ele><time>2026-04-25T10:33:03Z</time></trkpt><trkpt lat="44.53365546118861" lon="8.77575508429989"><ele>861.0</ele><time>2026-04-25T10:33:04Z</time></trkpt><trkpt lat="44.53371865613839" lon="8.775803648390125"><ele>861.0</ele><time>2026-04-25T10:33:05Z</time></trkpt><trkpt lat="44.533782654833296" lon="8.775849229481539"><ele>861.0</ele><time>2026-04-25T10:33:06Z</time></trkpt><trkpt lat="44.533847218019055" lon="8.775894742436602"><ele>861.0</ele><time>2026-04-25T10:33:07Z</time></trkpt><trkpt lat="44.53393549908721" lon="8.775943740869629"><ele>861.0</ele><time>2026-04-25T10:33:09Z</time></trkpt><trkpt lat="44.534024047056484" lon="8.77599931144588"><ele>861.3333333333334</ele><time>2026-04-25T10:33:11Z</time></trkpt><trkpt lat="44.534089774331825" lon="8.776033130050173"><ele>861.6666666666667</ele><time>2026-04-25T10:33:13Z</time></trkpt><trkpt lat="44.534176497771874" lon="8.776074711123679"><ele>862.0</ele><time>2026-04-25T10:33:15Z</time></trkpt><trkpt lat="44.53425380002177" lon="8.776135804932634"><ele>862.3333333333334</ele><time>2026-04-25T10:33:17Z</time></trkpt><trkpt lat="44.53432624047138" lon="8.77621348167102"><ele>862.6666666666667</ele><time>2026-04-25T10:33:19Z</time></trkpt><trkpt lat="44.53437916684348" lon="8.776311001373097"><ele>863.0</ele><time>2026-04-25T10:33:21Z</time></trkpt><trkpt lat="44.53438535270083" lon="8.776425658952261"><ele>863.0000000000001</ele><time>2026-04-25T10:33:23Z</time></trkpt><trkpt lat="44.53435823733381" lon="8.776537795609068"><ele>863.0</ele><time>2026-04-25T10:33:25Z</time></trkpt><trkpt lat="44.5342937747287" lon="8.776610862763174"><ele>863.0</ele><time>2026-04-25T10:33:27Z</time></trkpt><trkpt lat="44.53421990002069" lon="8.776637506776634"><ele>863.0</ele><time>2026-04-25T10:33:29Z</time></trkpt><trkpt lat="44.534134823271614" lon="8.776672585518012"><ele>863.0000000000001</ele><time>2026-04-25T10:33:31Z</time></trkpt><trkpt lat="44.53404940123562" lon="8.776713200724245"><ele>863.0</ele><time>2026-04-25T10:33:33Z</time></trkpt><trkpt lat="44.533959765850426" lon="8.776742440750887"><ele>863.0</ele><time>2026-04-25T10:33:35Z</time></trkpt><trkpt lat="44.53385239761381" lon="8.77678764547247"><ele>863.0</ele><time>2026-04-25T10:33:37Z</time></trkpt><trkpt lat="44.53374308256112" lon="8.776826019039188"><ele>863.0</ele><time>2026-04-25T10:33:38.999Z</time></trkpt><trkpt lat="44.53363986006038" lon="8.77686215970063"><ele>863.0</ele><time>2026-04-25T10:33:40.999Z</time></trkpt><trkpt lat="44.53354746763397" lon="8.776903403253312"><ele>863.0</ele><time>2026-04-25T10:33:42.999Z</time></trkpt><trkpt lat="44.53347450363725" lon="8.77693750724779"><ele>864.1666666666667</ele><time>2026-04-25T10:33:44.999Z</time></trkpt><trkpt lat="44.53341174432694" lon="8.776972240901125"><ele>865.3333333333334</ele><time>2026-04-25T10:33:48.999Z</time></trkpt><trkpt lat="44.533344364231496" lon="8.776922873266638"><ele>866.5</ele><time>2026-04-25T10:33:50.999Z</time></trkpt><trkpt lat="44.53327562771721" lon="8.776886029922103"><ele>867.6666666666667</ele><time>2026-04-25T10:33:51.999Z</time></trkpt><trkpt lat="44.53319339634861" lon="8.776815266701956"><ele>868.8333333333334</ele><time>2026-04-25T10:33:52.999Z</time></trkpt><trkpt lat="44.533090956861656" lon="8.776761300477526"><ele>870.0</ele><time>2026-04-25T10:33:53.999Z</time></trkpt><trkpt lat="44.5329851060742" lon="8.776719820815028"><ele>872.5</ele><time>2026-04-25T10:33:54.999Z</time></trkpt><trkpt lat="44.53285108260378" lon="8.776682757306943"><ele>875.0</ele><time>2026-04-25T10:33:55.999Z</time></trkpt><trkpt lat="44.532699501363616" lon="8.776653149203701"><ele>877.5</ele><time>2026-04-25T10:33:56.999Z</time></trkpt><trkpt lat="44.53254913880361" lon="8.77662635171777"><ele>880.0</ele><time>2026-04-25T10:33:57.999Z</time></trkpt><trkpt lat="44.532396947914606" lon="8.776586418881834"><ele>880.0</ele><time>2026-04-25T10:33:58.999Z</time></trkpt><trkpt lat="44.532251272822904" lon="8.776541530006272"><ele>880.0</ele><time>2026-04-25T10:33:59.999Z</time></trkpt><trkpt lat="44.5321209480931" lon="8.776514279922559"><ele>880.0</ele><time>2026-04-25T10:34:00.999Z</time></trkpt><trkpt lat="44.53199644579272" lon="8.776497469563713"><ele>880.0</ele><time>2026-04-25T10:34:01.999Z</time></trkpt><trkpt lat="44.53188203472532" lon="8.776488681247754"><ele>881.2</ele><time>2026-04-25T10:34:02.999Z</time></trkpt><trkpt lat="44.531777756980695" lon="8.776479405054797"><ele>882.4</ele><time>2026-04-25T10:34:03.999Z</time></trkpt><trkpt lat="44.531681019777224" lon="8.776452160878739"><ele>883.5999999999999</ele><time>2026-04-25T10:34:04.999Z</time></trkpt><trkpt lat="44.531594609968494" lon="8.776415831678484"><ele>884.8</ele><time>2026-04-25T10:34:05.999Z</time></trkpt><trkpt lat="44.531515616430084" lon="8.776384522478937"><ele>886.0</ele><time>2026-04-25T10:34:06.999Z</time></trkpt><trkpt lat="44.53143680413199" lon="8.776368077242251"><ele>885.9999999999999</ele><time>2026-04-25T10:34:07.999Z</time></trkpt><trkpt lat="44.53135696275509" lon="8.776363966287104"><ele>886.0</ele><time>2026-04-25T10:34:08.999Z</time></trkpt><trkpt lat="44.53127739181917" lon="8.7763743001594"><ele>886.0</ele><time>2026-04-25T10:34:09.999Z</time></trkpt><trkpt lat="44.531194226359744" lon="8.776356414544864"><ele>886.0</ele><time>2026-04-25T10:34:10.999Z</time></trkpt><trkpt lat="44.53111060518954" lon="8.776383184036359"><ele>885.9999999999999</ele><time>2026-04-25T10:34:11.999Z</time></trkpt><trkpt lat="44.53101902517034" lon="8.776381499943318"><ele>886.0</ele><time>2026-04-25T10:34:12.999Z</time></trkpt><trkpt lat="44.530925365256884" lon="8.776385477067924"><ele>887.4</ele><time>2026-04-25T10:34:13.999Z</time></trkpt><trkpt lat="44.53082125790653" lon="8.776382792639792"><ele>888.8</ele><time>2026-04-25T10:34:14.999Z</time></trkpt><trkpt lat="44.53071480279387" lon="8.776366901216841"><ele>890.1999999999999</ele><time>2026-04-25T10:34:15.999Z</time></trkpt><trkpt lat="44.530608072447" lon="8.776320420580927"><ele>891.5999999999999</ele><time>2026-04-25T10:34:16.999Z</time></trkpt><trkpt lat="44.530493654658294" lon="8.776327496429031"><ele>893.0</ele><time>2026-04-25T10:34:17.999Z</time></trkpt><trkpt lat="44.53037098534227" lon="8.7763136440762"><ele>893.25</ele><time>2026-04-25T10:34:18.999Z</time></trkpt><trkpt lat="44.53024176983211" lon="8.776321517735338"><ele>893.5</ele><time>2026-04-25T10:34:19.999Z</time></trkpt><trkpt lat="44.53010965954234" lon="8.77631729679763"><ele>893.75</ele><time>2026-04-25T10:34:20.999Z</time></trkpt><trkpt lat="44.52996410768012" lon="8.77636087447764"><ele>894.0</ele><time>2026-04-25T10:34:21.999Z</time></trkpt><trkpt lat="44.529832271141174" lon="8.77643752561852"><ele>894.0</ele><time>2026-04-25T10:34:22.999Z</time></trkpt><trkpt lat="44.52970412329339" lon="8.776465538998822"><ele>894.0</ele><time>2026-04-25T10:34:23.999Z</time></trkpt><trkpt lat="44.5295731311219" lon="8.776426787799975"><ele>894.0</ele><time>2026-04-25T10:34:24.999Z</time></trkpt><trkpt lat="44.52943511708372" lon="8.776414784836701"><ele>894.0</ele><time>2026-04-25T10:34:25.999Z</time></trkpt><trkpt lat="44.5293108599613" lon="8.776381453963335"><ele>893.6666666666666</ele><time>2026-04-25T10:34:26.999Z</time></trkpt><trkpt lat="44.52920801326618" lon="8.776360499461449"><ele>893.3333333333333</ele><time>2026-04-25T10:34:27.999Z</time></trkpt><trkpt lat="44.529125340328115" lon="8.776345945835146"><ele>893.0</ele><time>2026-04-25T10:34:28.999Z</time></trkpt><trkpt lat="44.529045583913934" lon="8.776345115803094"><ele>892.6666666666666</ele><time>2026-04-25T10:34:29.999Z</time></trkpt><trkpt lat="44.52897620020366" lon="8.77635897892172"><ele>892.3333333333333</ele><time>2026-04-25T10:34:30.999Z</time></trkpt><trkpt lat="44.528922679269115" lon="8.776417831257728"><ele>892.0</ele><time>2026-04-25T10:34:31.999Z</time></trkpt><trkpt lat="44.52888482096472" lon="8.776517455629044"><ele>892.0</ele><time>2026-04-25T10:34:32.999Z</time></trkpt><trkpt lat="44.528874569838784" lon="8.776636880147683"><ele>892.0</ele><time>2026-04-25T10:34:33.999Z</time></trkpt><trkpt lat="44.52887830009749" lon="8.776772979411492"><ele>892.0</ele><time>2026-04-25T10:34:34.999Z</time></trkpt><trkpt lat="44.52885721875651" lon="8.776926317615011"><ele>892.0</ele><time>2026-04-25T10:34:35.999Z</time></trkpt><trkpt lat="44.528836580233126" lon="8.777086354328285"><ele>892.0</ele><time>2026-04-25T10:34:36.999Z</time></trkpt><trkpt lat="44.52879595521676" lon="8.777240241884252"><ele>892.0</ele><time>2026-04-25T10:34:37.999Z</time></trkpt><trkpt lat="44.52874425744868" lon="8.777400786367771"><ele>892.0</ele><time>2026-04-25T10:34:38.999Z</time></trkpt><trkpt lat="44.52868847904794" lon="8.77755238492742"><ele>892.0</ele><time>2026-04-25T10:34:39.999Z</time></trkpt><trkpt lat="44.528633192863225" lon="8.777695785272053"><ele>892.0</ele><time>2026-04-25T10:34:40.999Z</time></trkpt><trkpt lat="44.52857077845799" lon="8.777852249710808"><ele>892.0</ele><time>2026-04-25T10:34:41.999Z</time></trkpt><trkpt lat="44.52850879975219" lon="8.778012480484325"><ele>892.0</ele><time>2026-04-25T10:34:42.999Z</time></trkpt><trkpt lat="44.52844445876635" lon="8.77817007150154"><ele>892.0</ele><time>2026-04-25T10:34:43.999Z</time></trkpt><trkpt lat="44.52837023432734" lon="8.778321040368168"><ele>892.0</ele><time>2026-04-25T10:34:44.999Z</time></trkpt><trkpt lat="44.528285409546086" lon="8.778455930905459"><ele>896.25</ele><time>2026-04-25T10:34:45.999Z</time></trkpt><trkpt lat="44.52818935651933" lon="8.778578634022953"><ele>900.5</ele><time>2026-04-25T10:34:46.999Z</time></trkpt><trkpt lat="44.528081954684126" lon="8.778702935389184"><ele>904.75</ele><time>2026-04-25T10:34:47.999Z</time></trkpt><trkpt lat="44.52798523453081" lon="8.778802310063911"><ele>909.0</ele><time>2026-04-25T10:34:48.999Z</time></trkpt><trkpt lat="44.52789607405973" lon="8.778887485309223"><ele>902.6666666666666</ele><time>2026-04-25T10:34:49.999Z</time></trkpt><trkpt lat="44.52783167782554" lon="8.778975959345273"><ele>896.3333333333333</ele><time>2026-04-25T10:34:50.999Z</time></trkpt><trkpt lat="44.52777144869241" lon="8.779033580558746"><ele>890.0</ele><time>2026-04-25T10:34:51.999Z</time></trkpt><trkpt lat="44.52772904613824" lon="8.779118571139787"><ele>883.6666666666666</ele><time>2026-04-25T10:34:52.999Z</time></trkpt><trkpt lat="44.5277091010795" lon="8.779232188557266"><ele>877.3333333333333</ele><time>2026-04-25T10:34:54Z</time></trkpt><trkpt lat="44.52770666705019" lon="8.779362713094258"><ele>871.0</ele><time>2026-04-25T10:34:55Z</time></trkpt><trkpt lat="44.527692685988676" lon="8.77951654913346"><ele>871.0</ele><time>2026-04-25T10:34:56Z</time></trkpt><trkpt lat="44.52768230481023" lon="8.779674201609266"><ele>871.0</ele><time>2026-04-25T10:34:57Z</time></trkpt><trkpt lat="44.52767860885075" lon="8.779828337776227"><ele>871.0</ele><time>2026-04-25T10:34:58Z</time></trkpt><trkpt lat="44.52767722668472" lon="8.779983169078788"><ele>871.0</ele><time>2026-04-25T10:34:59Z</time></trkpt><trkpt lat="44.52767356576358" lon="8.780154678783514"><ele>873.25</ele><time>2026-04-25T10:35:00Z</time></trkpt><trkpt lat="44.52766811759001" lon="8.780340342652705"><ele>875.5</ele><time>2026-04-25T10:35:01Z</time></trkpt><trkpt lat="44.52764940601604" lon="8.780522736446924"><ele>877.75</ele><time>2026-04-25T10:35:02Z</time></trkpt><trkpt lat="44.52762865708993" lon="8.780689062386985"><ele>880.0</ele><time>2026-04-25T10:35:03Z</time></trkpt><trkpt lat="44.52759439357016" lon="8.780854338270169"><ele>880.0</ele><time>2026-04-25T10:35:04Z</time></trkpt><trkpt lat="44.527544043536025" lon="8.781010866916919"><ele>880.0</ele><time>2026-04-25T10:35:05Z</time></trkpt><trkpt lat="44.52748191486029" lon="8.781159211499757"><ele>880.0</ele><time>2026-04-25T10:35:06Z</time></trkpt><trkpt lat="44.52740733388692" lon="8.78130967094873"><ele>880.0</ele><time>2026-04-25T10:35:07Z</time></trkpt><trkpt lat="44.52733913234118" lon="8.781454947990685"><ele>882.4</ele><time>2026-04-25T10:35:08Z</time></trkpt><trkpt lat="44.52729933372115" lon="8.781597099707131"><ele>884.8</ele><time>2026-04-25T10:35:09Z</time></trkpt><trkpt lat="44.527253080679344" lon="8.78172889561796"><ele>887.2</ele><time>2026-04-25T10:35:10Z</time></trkpt><trkpt lat="44.52723048147784" lon="8.781888428098219"><ele>889.6</ele><time>2026-04-25T10:35:11Z</time></trkpt><trkpt lat="44.52721840426934" lon="8.78205139148046"><ele>892.0</ele><time>2026-04-25T10:35:12Z</time></trkpt><trkpt lat="44.527169895707594" lon="8.782189250357627"><ele>893.6</ele><time>2026-04-25T10:35:13Z</time></trkpt><trkpt lat="44.52713122105543" lon="8.78231080296192"><ele>895.2</ele><time>2026-04-25T10:35:14Z</time></trkpt><trkpt lat="44.5271243214532" lon="8.78240537776182"><ele>896.8</ele><time>2026-04-25T10:35:15Z</time></trkpt><trkpt lat="44.52713654764012" lon="8.782563988305508"><ele>898.4</ele><time>2026-04-25T10:35:17Z</time></trkpt><trkpt lat="44.52722275401018" lon="8.782653796838442"><ele>900.0</ele><time>2026-04-25T10:35:18Z</time></trkpt><trkpt lat="44.52726545885735" lon="8.782777258034377"><ele>900.0</ele><time>2026-04-25T10:35:19Z</time></trkpt><trkpt lat="44.527308310326205" lon="8.782890129223176"><ele>900.0</ele><time>2026-04-25T10:35:20Z</time></trkpt><trkpt lat="44.527335369782335" lon="8.78300455665597"><ele>900.0</ele><time>2026-04-25T10:35:21Z</time></trkpt><trkpt lat="44.527289706523206" lon="8.783131097010182"><ele>900.0</ele><time>2026-04-25T10:35:22Z</time></trkpt><trkpt lat="44.52725381230275" lon="8.783257733536377"><ele>900.0</ele><time>2026-04-25T10:35:23Z</time></trkpt><trkpt lat="44.527238470274895" lon="8.783391219312161"><ele>901.0</ele><time>2026-04-25T10:35:24Z</time></trkpt><trkpt lat="44.52722410159997" lon="8.783519550577703"><ele>902.0</ele><time>2026-04-25T10:35:25Z</time></trkpt><trkpt lat="44.52720282299752" lon="8.783648366684133"><ele>903.0</ele><time>2026-04-25T10:35:26Z</time></trkpt><trkpt lat="44.52711642288425" lon="8.783730226238127"><ele>904.0</ele><time>2026-04-25T10:35:27Z</time></trkpt><trkpt lat="44.52708839508483" lon="8.783845123686465"><ele>905.0</ele><time>2026-04-25T10:35:28Z</time></trkpt><trkpt lat="44.52707083207333" lon="8.783982091926518"><ele>905.0</ele><time>2026-04-25T10:35:29Z</time></trkpt><trkpt lat="44.52706292911989" lon="8.78412824033828"><ele>905.0</ele><time>2026-04-25T10:35:30Z</time></trkpt><trkpt lat="44.52703664733189" lon="8.784262196527747"><ele>905.0</ele><time>2026-04-25T10:35:31Z</time></trkpt><trkpt lat="44.52702213814928" lon="8.784395042725853"><ele>905.0</ele><time>2026-04-25T10:35:32Z</time></trkpt><trkpt lat="44.527010704980135" lon="8.784521180459427"><ele>905.0</ele><time>2026-04-25T10:35:33Z</time></trkpt><trkpt lat="44.527003861510316" lon="8.784638011310962"><ele>900.1666666666667</ele><time>2026-04-25T10:35:34Z</time></trkpt><trkpt lat="44.52692937165787" lon="8.784703085660649"><ele>895.3333333333334</ele><time>2026-04-25T10:35:34.999Z</time></trkpt><trkpt lat="44.52685202348201" lon="8.784755578969442"><ele>890.5</ele><time>2026-04-25T10:35:35.999Z</time></trkpt><trkpt lat="44.52680637691105" lon="8.78484432655756"><ele>885.6666666666667</ele><time>2026-04-25T10:35:36.999Z</time></trkpt><trkpt lat="44.52676458463113" lon="8.784935485286884"><ele>880.8333333333334</ele><time>2026-04-25T10:35:37.999Z</time></trkpt><trkpt lat="44.526716265124215" lon="8.785013262157715"><ele>876.0</ele><time>2026-04-25T10:35:38.999Z</time></trkpt><trkpt lat="44.52667761021097" lon="8.785097687515536"><ele>876.0</ele><time>2026-04-25T10:35:39.999Z</time></trkpt><trkpt lat="44.52663555625568" lon="8.785164177913803"><ele>876.0</ele><time>2026-04-25T10:35:40.999Z</time></trkpt><trkpt lat="44.52658787047035" lon="8.785228026405155"><ele>876.0</ele><time>2026-04-25T10:35:41.999Z</time></trkpt><trkpt lat="44.526540298114796" lon="8.785286958232033"><ele>876.0</ele><time>2026-04-25T10:35:42.999Z</time></trkpt><trkpt lat="44.5264754332887" lon="8.785315671976061"><ele>876.0</ele><time>2026-04-25T10:35:43.999Z</time></trkpt><trkpt lat="44.52640700252502" lon="8.785309710166338"><ele>876.0</ele><time>2026-04-25T10:35:44.999Z</time></trkpt><trkpt lat="44.52633367020313" lon="8.785278852838303"><ele>876.0</ele><time>2026-04-25T10:35:45.999Z</time></trkpt><trkpt lat="44.52625131109931" lon="8.785230882602681"><ele>874.3333333333334</ele><time>2026-04-25T10:35:46.999Z</time></trkpt><trkpt lat="44.52616302305507" lon="8.785194583181267"><ele>872.6666666666667</ele><time>2026-04-25T10:35:47.999Z</time></trkpt><trkpt lat="44.526082489352135" lon="8.785183965816696"><ele>871.0</ele><time>2026-04-25T10:35:48.999Z</time></trkpt><trkpt lat="44.526013994478596" lon="8.785208573697668"><ele>869.3333333333334</ele><time>2026-04-25T10:35:49.999Z</time></trkpt><trkpt lat="44.52595472466653" lon="8.785262722304573"><ele>867.6666666666667</ele><time>2026-04-25T10:35:50.999Z</time></trkpt><trkpt lat="44.52590989859704" lon="8.785352492917179"><ele>866.0</ele><time>2026-04-25T10:35:51.999Z</time></trkpt><trkpt lat="44.525873504851205" lon="8.78544366346183"><ele>866.0000000000001</ele><time>2026-04-25T10:35:52.999Z</time></trkpt><trkpt lat="44.525830942252206" lon="8.785526212009302"><ele>866.0</ele><time>2026-04-25T10:35:53.999Z</time></trkpt><trkpt lat="44.52575969529334" lon="8.785572952473979"><ele>866.0</ele><time>2026-04-25T10:35:54.999Z</time></trkpt><trkpt lat="44.5256944694667" lon="8.785656975415852"><ele>866.0</ele><time>2026-04-25T10:35:55.999Z</time></trkpt><trkpt lat="44.52561628854566" lon="8.785713224314595"><ele>866.0000000000001</ele><time>2026-04-25T10:35:56.999Z</time></trkpt><trkpt lat="44.52555777345523" lon="8.785810566470493"><ele>866.0</ele><time>2026-04-25T10:35:57.999Z</time></trkpt><trkpt lat="44.52552107751307" lon="8.785930861569211"><ele>866.1666666666667</ele><time>2026-04-25T10:35:58.999Z</time></trkpt><trkpt lat="44.52546210626545" lon="8.786019343551564"><ele>866.3333333333334</ele><time>2026-04-25T10:35:59.999Z</time></trkpt><trkpt lat="44.52538889273265" lon="8.786084285199237"><ele>866.5</ele><time>2026-04-25T10:36:00.999Z</time></trkpt><trkpt lat="44.525322231799024" lon="8.786144085281856"><ele>866.6666666666667</ele><time>2026-04-25T10:36:01.999Z</time></trkpt><trkpt lat="44.525272902420255" lon="8.786217916386263"><ele>866.8333333333334</ele><time>2026-04-25T10:36:02.999Z</time></trkpt><trkpt lat="44.52525321342247" lon="8.786312086552977"><ele>867.0</ele><time>2026-04-25T10:36:03.999Z</time></trkpt><trkpt lat="44.52524373870229" lon="8.78643210600424"><ele>864.2</ele><time>2026-04-25T10:36:04.999Z</time></trkpt><trkpt lat="44.525217052689975" lon="8.786568947543419"><ele>861.4000000000001</ele><time>2026-04-25T10:36:05.999Z</time></trkpt><trkpt lat="44.52520164926744" lon="8.78671643616876"><ele>858.5999999999999</ele><time>2026-04-25T10:36:06.999Z</time></trkpt><trkpt lat="44.52518596728718" lon="8.786855186215"><ele>855.8</ele><time>2026-04-25T10:36:07.999Z</time></trkpt><trkpt lat="44.52516812000774" lon="8.786990267537348"><ele>853.0</ele><time>2026-04-25T10:36:08.999Z</time></trkpt><trkpt lat="44.525158841361616" lon="8.787122684523123"><ele>853.0</ele><time>2026-04-25T10:36:09.999Z</time></trkpt><trkpt lat="44.52508726923165" lon="8.787213571723612"><ele>853.0</ele><time>2026-04-25T10:36:10.999Z</time></trkpt><trkpt lat="44.525053543327935" lon="8.787334251522253"><ele>853.0</ele><time>2026-04-25T10:36:11.999Z</time></trkpt><trkpt lat="44.525020217594026" lon="8.787441816084556"><ele>853.0</ele><time>2026-04-25T10:36:12.999Z</time></trkpt><trkpt lat="44.52501431532256" lon="8.787567159562514"><ele>853.0</ele><time>2026-04-25T10:36:13.999Z</time></trkpt><trkpt lat="44.52499702004517" lon="8.78770062684149"><ele>853.0</ele><time>2026-04-25T10:36:14.999Z</time></trkpt><trkpt lat="44.52498927468242" lon="8.787847310309408"><ele>853.0</ele><time>2026-04-25T10:36:15.999Z</time></trkpt><trkpt lat="44.5249733126617" lon="8.787991387422354"><ele>853.0</ele><time>2026-04-25T10:36:16.999Z</time></trkpt><trkpt lat="44.52493288363709" lon="8.788130673665258"><ele>853.0</ele><time>2026-04-25T10:36:17.999Z</time></trkpt><trkpt lat="44.52485300563621" lon="8.78824787997862"><ele>853.0</ele><time>2026-04-25T10:36:18.999Z</time></trkpt><trkpt lat="44.524792122119386" lon="8.788392993602786"><ele>852.75</ele><time>2026-04-25T10:36:19.999Z</time></trkpt><trkpt lat="44.524734754146294" lon="8.788540522969134"><ele>852.5</ele><time>2026-04-25T10:36:20.999Z</time></trkpt><trkpt lat="44.52470700012732" lon="8.78870718992946"><ele>852.25</ele><time>2026-04-25T10:36:21.999Z</time></trkpt><trkpt lat="44.524703427163004" lon="8.78888567953038"><ele>852.0</ele><time>2026-04-25T10:36:22.999Z</time></trkpt><trkpt lat="44.52471079540379" lon="8.789065350643666"><ele>852.0</ele><time>2026-04-25T10:36:23.999Z</time></trkpt><trkpt lat="44.52471399773074" lon="8.789247545832216"><ele>852.0</ele><time>2026-04-25T10:36:24.999Z</time></trkpt><trkpt lat="44.5247494448316" lon="8.789451273093393"><ele>852.0</ele><time>2026-04-25T10:36:25.999Z</time></trkpt><trkpt lat="44.52479277472559" lon="8.789666937980654"><ele>852.0</ele><time>2026-04-25T10:36:26.999Z</time></trkpt><trkpt lat="44.52484211415115" lon="8.789894001169216"><ele>853.3333333333333</ele><time>2026-04-25T10:36:27.999Z</time></trkpt><trkpt lat="44.524882655435" lon="8.790115802068167"><ele>854.6666666666666</ele><time>2026-04-25T10:36:28.999Z</time></trkpt><trkpt lat="44.52492492199632" lon="8.790336982451139"><ele>856.0</ele><time>2026-04-25T10:36:29.999Z</time></trkpt><trkpt lat="44.52497223002576" lon="8.790572477422469"><ele>858.3333333333333</ele><time>2026-04-25T10:36:30.999Z</time></trkpt><trkpt lat="44.52502280819317" lon="8.790821794479562"><ele>860.6666666666667</ele><time>2026-04-25T10:36:31.999Z</time></trkpt><trkpt lat="44.52511334542341" lon="8.79104678706187"><ele>863.0</ele><time>2026-04-25T10:36:32.999Z</time></trkpt><trkpt lat="44.52517765737495" lon="8.791254551514116"><ele>864.75</ele><time>2026-04-25T10:36:33.999Z</time></trkpt><trkpt lat="44.525230546306275" lon="8.791429997188548"><ele>866.5</ele><time>2026-04-25T10:36:34.999Z</time></trkpt><trkpt lat="44.52529022806702" lon="8.791567409808378"><ele>868.25</ele><time>2026-04-25T10:36:35.999Z</time></trkpt><trkpt lat="44.525374087590116" lon="8.791686451703969"><ele>870.0</ele><time>2026-04-25T10:36:36.999Z</time></trkpt><trkpt lat="44.52545626367963" lon="8.791835389330728"><ele>868.0</ele><time>2026-04-25T10:36:37.999Z</time></trkpt><trkpt lat="44.52553023889306" lon="8.79200020236162"><ele>866.0</ele><time>2026-04-25T10:36:38.999Z</time></trkpt><trkpt lat="44.525583957096586" lon="8.792170486388745"><ele>864.0</ele><time>2026-04-25T10:36:39.999Z</time></trkpt><trkpt lat="44.525610627288124" lon="8.792326258005959"><ele>862.0</ele><time>2026-04-25T10:36:40.999Z</time></trkpt><trkpt lat="44.525615959727034" lon="8.792490299825843"><ele>862.0</ele><time>2026-04-25T10:36:41.999Z</time></trkpt><trkpt lat="44.52560717399749" lon="8.792680271526054"><ele>862.0</ele><time>2026-04-25T10:36:42.999Z</time></trkpt><trkpt lat="44.525607061499805" lon="8.792880085979963"><ele>862.0</ele><time>2026-04-25T10:36:43.999Z</time></trkpt><trkpt lat="44.525644550369826" lon="8.793078227752552"><ele>862.0</ele><time>2026-04-25T10:36:44.999Z</time></trkpt><trkpt lat="44.52565264724006" lon="8.793277795162679"><ele>862.0</ele><time>2026-04-25T10:36:45.999Z</time></trkpt><trkpt lat="44.52565549402068" lon="8.793449198977447"><ele>862.0</ele><time>2026-04-25T10:36:46.999Z</time></trkpt><trkpt lat="44.52564241410217" lon="8.793583228431068"><ele>862.0</ele><time>2026-04-25T10:36:47.999Z</time></trkpt><trkpt lat="44.52560642087537" lon="8.793711344104464"><ele>862.0</ele><time>2026-04-25T10:36:48.999Z</time></trkpt><trkpt lat="44.525541757439626" lon="8.793873357353302"><ele>862.0</ele><time>2026-04-25T10:36:49.999Z</time></trkpt><trkpt lat="44.525490050727434" lon="8.794057511644093"><ele>863.75</ele><time>2026-04-25T10:36:50.999Z</time></trkpt><trkpt lat="44.52545096462287" lon="8.794232476713693"><ele>865.5</ele><time>2026-04-25T10:36:51.999Z</time></trkpt><trkpt lat="44.525428793724544" lon="8.794399042168823"><ele>867.25</ele><time>2026-04-25T10:36:53Z</time></trkpt><trkpt lat="44.52540707315564" lon="8.79455588467771"><ele>869.0</ele><time>2026-04-25T10:36:54Z</time></trkpt><trkpt lat="44.52539316685005" lon="8.794675665470463"><ele>870.6666666666667</ele><time>2026-04-25T10:36:55Z</time></trkpt><trkpt lat="44.52537651694307" lon="8.794780706896963"><ele>872.3333333333334</ele><time>2026-04-25T10:36:56Z</time></trkpt><trkpt lat="44.52539147026437" lon="8.794897555589817"><ele>874.0</ele><time>2026-04-25T10:36:57Z</time></trkpt><trkpt lat="44.525464598818886" lon="8.794978506355724"><ele>875.6666666666667</ele><time>2026-04-25T10:36:58Z</time></trkpt><trkpt lat="44.52554824629877" lon="8.795023217556029"><ele>877.3333333333334</ele><time>2026-04-25T10:36:59Z</time></trkpt><trkpt lat="44.525646237574854" lon="8.795041156446961"><ele>879.0</ele><time>2026-04-25T10:37:00Z</time></trkpt><trkpt lat="44.52574933938993" lon="8.795059242788417"><ele>879.0</ele><time>2026-04-25T10:37:01Z</time></trkpt><trkpt lat="44.525846168941946" lon="8.795075022079873"><ele>879.0</ele><time>2026-04-25T10:37:02Z</time></trkpt><trkpt lat="44.52593406496609" lon="8.795067642298715"><ele>879.0</ele><time>2026-04-25T10:37:03Z</time></trkpt><trkpt lat="44.52602130210499" lon="8.795060996581602"><ele>879.0</ele><time>2026-04-25T10:37:04Z</time></trkpt><trkpt lat="44.52609606893427" lon="8.795079964158434"><ele>879.0</ele><time>2026-04-25T10:37:05Z</time></trkpt><trkpt lat="44.52615333174378" lon="8.795145619348528"><ele>879.0</ele><time>2026-04-25T10:37:06Z</time></trkpt><trkpt lat="44.52618160569373" lon="8.79525881142944"><ele>879.75</ele><time>2026-04-25T10:37:07Z</time></trkpt><trkpt lat="44.52615504188989" lon="8.795396093790082"><ele>880.5</ele><time>2026-04-25T10:37:08Z</time></trkpt><trkpt lat="44.5261266272178" lon="8.795573149944481"><ele>881.25</ele><time>2026-04-25T10:37:09Z</time></trkpt><trkpt lat="44.526103487137675" lon="8.795790933426307"><ele>882.0</ele><time>2026-04-25T10:37:10Z</time></trkpt><trkpt lat="44.52606256476789" lon="8.796014481670188"><ele>882.0</ele><time>2026-04-25T10:37:11Z</time></trkpt><trkpt lat="44.526038329201924" lon="8.796224465900647"><ele>882.0</ele><time>2026-04-25T10:37:12Z</time></trkpt><trkpt lat="44.52602086226448" lon="8.796382788800274"><ele>882.0</ele><time>2026-04-25T10:37:13Z</time></trkpt><trkpt lat="44.52597391775201" lon="8.796494837809226"><ele>882.0</ele><time>2026-04-25T10:37:14Z</time></trkpt><trkpt lat="44.52591793277367" lon="8.796565515420745"><ele>882.0</ele><time>2026-04-25T10:37:15Z</time></trkpt><trkpt lat="44.52586843597753" lon="8.796646241989087"><ele>882.0</ele><time>2026-04-25T10:37:16Z</time></trkpt><trkpt lat="44.52580854717453" lon="8.79671563579659"><ele>882.0</ele><time>2026-04-25T10:37:17Z</time></trkpt><trkpt lat="44.52575768133292" lon="8.796804150178698"><ele>882.0</ele><time>2026-04-25T10:37:18Z</time></trkpt><trkpt lat="44.52570742956659" lon="8.796892968513257"><ele>882.0</ele><time>2026-04-25T10:37:19Z</time></trkpt><trkpt lat="44.52563263405113" lon="8.796958299611967"><ele>882.0</ele><time>2026-04-25T10:37:20Z</time></trkpt><trkpt lat="44.52555688031387" lon="8.797049231963172"><ele>882.0</ele><time>2026-04-25T10:37:21Z</time></trkpt><trkpt lat="44.52548094279036" lon="8.797158361205383"><ele>881.0</ele><time>2026-04-25T10:37:22Z</time></trkpt><trkpt lat="44.525395151405725" lon="8.797234474333331"><ele>880.0</ele><time>2026-04-25T10:37:23Z</time></trkpt><trkpt lat="44.52530805359617" lon="8.797294180097541"><ele>879.0</ele><time>2026-04-25T10:37:24Z</time></trkpt><trkpt lat="44.52521014380763" lon="8.797347252407775"><ele>878.0</ele><time>2026-04-25T10:37:25Z</time></trkpt><trkpt lat="44.52509979884384" lon="8.797386040429299"><ele>877.0</ele><time>2026-04-25T10:37:26Z</time></trkpt><trkpt lat="44.524984135060485" lon="8.797403582432388"><ele>877.0</ele><time>2026-04-25T10:37:27Z</time></trkpt><trkpt lat="44.52485727625136" lon="8.797398848302823"><ele>877.0</ele><time>2026-04-25T10:37:28Z</time></trkpt><trkpt lat="44.52472085550797" lon="8.797367712736522"><ele>877.0</ele><time>2026-04-25T10:37:29Z</time></trkpt><trkpt lat="44.524598038728904" lon="8.797331454247221"><ele>877.0</ele><time>2026-04-25T10:37:30Z</time></trkpt><trkpt lat="44.524481382709716" lon="8.7972989224418"><ele>874.5</ele><time>2026-04-25T10:37:31Z</time></trkpt><trkpt lat="44.52437080656078" lon="8.79726243054865"><ele>872.0</ele><time>2026-04-25T10:37:32Z</time></trkpt><trkpt lat="44.52426160088277" lon="8.797215811827508"><ele>869.5</ele><time>2026-04-25T10:37:33Z</time></trkpt><trkpt lat="44.52414338965474" lon="8.797154700165143"><ele>867.0</ele><time>2026-04-25T10:37:34Z</time></trkpt><trkpt lat="44.52402242341971" lon="8.797077145743865"><ele>867.0</ele><time>2026-04-25T10:37:35Z</time></trkpt><trkpt lat="44.523910963078826" lon="8.79699862625338"><ele>867.0</ele><time>2026-04-25T10:37:36Z</time></trkpt><trkpt lat="44.52380837226107" lon="8.796888970656115"><ele>867.0</ele><time>2026-04-25T10:37:37Z</time></trkpt><trkpt lat="44.52370764672469" lon="8.796759945258131"><ele>867.0</ele><time>2026-04-25T10:37:38Z</time></trkpt><trkpt lat="44.52358273215778" lon="8.796636114235763"><ele>869.0</ele><time>2026-04-25T10:37:39Z</time></trkpt><trkpt lat="44.52343835394206" lon="8.796523250465281"><ele>871.0</ele><time>2026-04-25T10:37:40Z</time></trkpt><trkpt lat="44.52330320258772" lon="8.796421389471904"><ele>873.0</ele><time>2026-04-25T10:37:41Z</time></trkpt><trkpt lat="44.523169621571554" lon="8.796330419136908"><ele>873.0</ele><time>2026-04-25T10:37:42Z</time></trkpt><trkpt lat="44.523057814670544" lon="8.796239912831279"><ele>873.0</ele><time>2026-04-25T10:37:43Z</time></trkpt><trkpt lat="44.52293713587412" lon="8.796174666813728"><ele>873.0</ele><time>2026-04-25T10:37:44Z</time></trkpt><trkpt lat="44.52280287554576" lon="8.796142329748788"><ele>873.0</ele><time>2026-04-25T10:37:45Z</time></trkpt><trkpt lat="44.52265844633813" lon="8.796117853556279"><ele>874.75</ele><time>2026-04-25T10:37:46Z</time></trkpt><trkpt lat="44.52250821342899" lon="8.796096682245059"><ele>876.5</ele><time>2026-04-25T10:37:47Z</time></trkpt><trkpt lat="44.5223700117833" lon="8.796077435382973"><ele>878.25</ele><time>2026-04-25T10:37:47.999Z</time></trkpt><trkpt lat="44.522247999454784" lon="8.795998026571993"><ele>880.0</ele><time>2026-04-25T10:37:48.999Z</time></trkpt><trkpt lat="44.522113362665785" lon="8.79591157702336"><ele>876.6666666666666</ele><time>2026-04-25T10:37:49.999Z</time></trkpt><trkpt lat="44.52196591967523" lon="8.795827092525974"><ele>873.3333333333333</ele><time>2026-04-25T10:37:50.999Z</time></trkpt><trkpt lat="44.52182736961139" lon="8.795732313278654"><ele>870.0</ele><time>2026-04-25T10:37:51.999Z</time></trkpt><trkpt lat="44.52168692042545" lon="8.795653683426577"><ele>870.0</ele><time>2026-04-25T10:37:52.999Z</time></trkpt><trkpt lat="44.52153131496489" lon="8.795607027088518"><ele>870.0</ele><time>2026-04-25T10:37:53.999Z</time></trkpt><trkpt lat="44.52137156398397" lon="8.795583768099206"><ele>870.0</ele><time>2026-04-25T10:37:54.999Z</time></trkpt><trkpt lat="44.52123258457668" lon="8.795573322549725"><ele>868.0</ele><time>2026-04-25T10:37:55.999Z</time></trkpt><trkpt lat="44.52110656386833" lon="8.795545734811082"><ele>866.0</ele><time>2026-04-25T10:37:56.999Z</time></trkpt><trkpt lat="44.52098086890384" lon="8.79543886430966"><ele>864.0</ele><time>2026-04-25T10:37:57.999Z</time></trkpt><trkpt lat="44.52083713037362" lon="8.79531818844927"><ele>862.0</ele><time>2026-04-25T10:37:58.999Z</time></trkpt><trkpt lat="44.520668483620746" lon="8.795217420791964"><ele>865.0</ele><time>2026-04-25T10:37:59.999Z</time></trkpt><trkpt lat="44.52048871360971" lon="8.795122603715575"><ele>868.0</ele><time>2026-04-25T10:38:00.999Z</time></trkpt><trkpt lat="44.52031728234406" lon="8.795049570091928"><ele>871.0</ele><time>2026-04-25T10:38:01.999Z</time></trkpt><trkpt lat="44.52014155565322" lon="8.79498864416791"><ele>871.0</ele><time>2026-04-25T10:38:02.999Z</time></trkpt><trkpt lat="44.51995275294876" lon="8.794923361310332"><ele>871.0</ele><time>2026-04-25T10:38:03.999Z</time></trkpt><trkpt lat="44.519784157116" lon="8.794850022893002"><ele>871.0</ele><time>2026-04-25T10:38:04.999Z</time></trkpt><trkpt lat="44.519634212826396" lon="8.794786397941056"><ele>869.5</ele><time>2026-04-25T10:38:05.999Z</time></trkpt><trkpt lat="44.519487038256706" lon="8.794735365072983"><ele>868.0</ele><time>2026-04-25T10:38:06.999Z</time></trkpt><trkpt lat="44.519348671342435" lon="8.794684931674567"><ele>866.5</ele><time>2026-04-25T10:38:07.999Z</time></trkpt><trkpt lat="44.519209888641626" lon="8.794624069698997"><ele>865.0</ele><time>2026-04-25T10:38:08.999Z</time></trkpt><trkpt lat="44.519076880004604" lon="8.794530081187803"><ele>865.0</ele><time>2026-04-25T10:38:09.999Z</time></trkpt><trkpt lat="44.51893141907768" lon="8.794466447056879"><ele>865.0</ele><time>2026-04-25T10:38:10.999Z</time></trkpt><trkpt lat="44.51880197377389" lon="8.794374560637237"><ele>865.0</ele><time>2026-04-25T10:38:11.999Z</time></trkpt><trkpt lat="44.51868323601309" lon="8.79430610597512"><ele>865.0</ele><time>2026-04-25T10:38:12.999Z</time></trkpt><trkpt lat="44.518560337634874" lon="8.794263747595835"><ele>866.5</ele><time>2026-04-25T10:38:13.999Z</time></trkpt><trkpt lat="44.51842863204096" lon="8.794246223950541"><ele>868.0</ele><time>2026-04-25T10:38:14.999Z</time></trkpt><trkpt lat="44.51829542554725" lon="8.794224425215763"><ele>869.5</ele><time>2026-04-25T10:38:15.999Z</time></trkpt><trkpt lat="44.518168147972986" lon="8.7942079054017"><ele>871.0</ele><time>2026-04-25T10:38:16.999Z</time></trkpt><trkpt lat="44.51805404311986" lon="8.794189293593098"><ele>870.9999999999999</ele><time>2026-04-25T10:38:17.999Z</time></trkpt><trkpt lat="44.5179532531855" lon="8.794184711143828"><ele>871.0</ele><time>2026-04-25T10:38:18.999Z</time></trkpt><trkpt lat="44.5178679417051" lon="8.794182608984105"><ele>871.0</ele><time>2026-04-25T10:38:19.999Z</time></trkpt><trkpt lat="44.5177922078592" lon="8.794205936475045"><ele>871.0</ele><time>2026-04-25T10:38:20.999Z</time></trkpt><trkpt lat="44.5177323916375" lon="8.79427736187814"><ele>870.9999999999999</ele><time>2026-04-25T10:38:21.999Z</time></trkpt><trkpt lat="44.517686681788845" lon="8.79438399453289"><ele>871.0</ele><time>2026-04-25T10:38:22.999Z</time></trkpt><trkpt lat="44.517644804773376" lon="8.794550620251394"><ele>871.5</ele><time>2026-04-25T10:38:23.999Z</time></trkpt><trkpt lat="44.51761328953677" lon="8.794718249470337"><ele>872.0</ele><time>2026-04-25T10:38:24.999Z</time></trkpt><trkpt lat="44.517570440132936" lon="8.794897396801662"><ele>872.5</ele><time>2026-04-25T10:38:25.999Z</time></trkpt><trkpt lat="44.51754876523755" lon="8.795081746240921"><ele>873.0</ele><time>2026-04-25T10:38:26.999Z</time></trkpt><trkpt lat="44.51753271611884" lon="8.795239080691939"><ele>873.4</ele><time>2026-04-25T10:38:27.999Z</time></trkpt><trkpt lat="44.51751212503995" lon="8.795378612550317"><ele>873.8</ele><time>2026-04-25T10:38:28.999Z</time></trkpt><trkpt lat="44.5174708687398" lon="8.795494338525032"><ele>874.2</ele><time>2026-04-25T10:38:29.999Z</time></trkpt><trkpt lat="44.51743120108951" lon="8.795623085376155"><ele>874.6</ele><time>2026-04-25T10:38:30.999Z</time></trkpt><trkpt lat="44.51735541455077" lon="8.79574389955258"><ele>875.0</ele><time>2026-04-25T10:38:31.999Z</time></trkpt><trkpt lat="44.517246482380905" lon="8.795859743883293"><ele>874.25</ele><time>2026-04-25T10:38:32.999Z</time></trkpt><trkpt lat="44.51715203055546" lon="8.796015836288706"><ele>873.5</ele><time>2026-04-25T10:38:33.999Z</time></trkpt><trkpt lat="44.51705029914056" lon="8.796159002742586"><ele>872.75</ele><time>2026-04-25T10:38:34.999Z</time></trkpt><trkpt lat="44.51696152303086" lon="8.796315082707059"><ele>872.0</ele><time>2026-04-25T10:38:35.999Z</time></trkpt><trkpt lat="44.51686511794894" lon="8.79643509826178"><ele>872.0</ele><time>2026-04-25T10:38:36.999Z</time></trkpt><trkpt lat="44.51676497967548" lon="8.796527666070363"><ele>872.0</ele><time>2026-04-25T10:38:37.999Z</time></trkpt><trkpt lat="44.51663949879789" lon="8.796576213747707"><ele>872.0</ele><time>2026-04-25T10:38:38.999Z</time></trkpt><trkpt lat="44.51649813696134" lon="8.796632028582415"><ele>872.0</ele><time>2026-04-25T10:38:39.999Z</time></trkpt><trkpt lat="44.51635437367559" lon="8.796707359138694"><ele>872.0</ele><time>2026-04-25T10:38:40.999Z</time></trkpt><trkpt lat="44.51621594578579" lon="8.796758332629517"><ele>872.0</ele><time>2026-04-25T10:38:41.999Z</time></trkpt><trkpt lat="44.51608640247233" lon="8.796807288432612"><ele>872.0</ele><time>2026-04-25T10:38:42.999Z</time></trkpt><trkpt lat="44.515958682019175" lon="8.796845758762862"><ele>872.0</ele><time>2026-04-25T10:38:43.999Z</time></trkpt><trkpt lat="44.515826838086674" lon="8.796869277874203"><ele>872.0</ele><time>2026-04-25T10:38:44.999Z</time></trkpt><trkpt lat="44.51569456909821" lon="8.796880200900905"><ele>872.0</ele><time>2026-04-25T10:38:45.999Z</time></trkpt><trkpt lat="44.51557056607273" lon="8.796894271940078"><ele>872.0</ele><time>2026-04-25T10:38:46.999Z</time></trkpt><trkpt lat="44.515458100008935" lon="8.79692124137577"><ele>872.0</ele><time>2026-04-25T10:38:47.999Z</time></trkpt><trkpt lat="44.51537615239171" lon="8.796953565894208"><ele>870.0000000000001</ele><time>2026-04-25T10:38:48.999Z</time></trkpt><trkpt lat="44.51531629610627" lon="8.79699177857495"><ele>868.0</ele><time>2026-04-25T10:38:49.999Z</time></trkpt><trkpt lat="44.51524927602947" lon="8.797121325022154"><ele>866.0</ele><time>2026-04-25T10:38:51.999Z</time></trkpt><trkpt lat="44.515243803726264" lon="8.797216923494421"><ele>864.0</ele><time>2026-04-25T10:38:52.999Z</time></trkpt><trkpt lat="44.51526570247136" lon="8.797333255909694"><ele>862.0000000000001</ele><time>2026-04-25T10:38:53.999Z</time></trkpt><trkpt lat="44.51534494328143" lon="8.797438958335183"><ele>860.0</ele><time>2026-04-25T10:38:54.999Z</time></trkpt><trkpt lat="44.5153786741499" lon="8.797583659469563"><ele>858.8</ele><time>2026-04-25T10:38:55.999Z</time></trkpt><trkpt lat="44.51537695395028" lon="8.797721023289647"><ele>857.6</ele><time>2026-04-25T10:38:56.999Z</time></trkpt><trkpt lat="44.51534938198704" lon="8.79786476258645"><ele>856.4000000000001</ele><time>2026-04-25T10:38:58Z</time></trkpt><trkpt lat="44.51534248386481" lon="8.798007158034844"><ele>855.2</ele><time>2026-04-25T10:38:59Z</time></trkpt><trkpt lat="44.51535037260111" lon="8.798118679275447"><ele>854.0</ele><time>2026-04-25T10:39:00Z</time></trkpt><trkpt lat="44.51539124135431" lon="8.798213698820481"><ele>856.0</ele><time>2026-04-25T10:39:01Z</time></trkpt><trkpt lat="44.51547621356205" lon="8.798244472302649"><ele>858.0000000000001</ele><time>2026-04-25T10:39:02Z</time></trkpt><trkpt lat="44.51554650638124" lon="8.798240776963162"><ele>860.0000000000001</ele><time>2026-04-25T10:39:03Z</time></trkpt><trkpt lat="44.515633890046374" lon="8.798243263893042"><ele>862.0</ele><time>2026-04-25T10:39:04Z</time></trkpt><trkpt lat="44.51575687245374" lon="8.798252757260062"><ele>864.0</ele><time>2026-04-25T10:39:05Z</time></trkpt><trkpt lat="44.5158906458892" lon="8.79826473907982"><ele>864.0</ele><time>2026-04-25T10:39:06Z</time></trkpt><trkpt lat="44.51601658684864" lon="8.798286777119372"><ele>864.0</ele><time>2026-04-25T10:39:07Z</time></trkpt><trkpt lat="44.51615270076798" lon="8.798305123707793"><ele>864.0</ele><time>2026-04-25T10:39:08Z</time></trkpt><trkpt lat="44.51628844570978" lon="8.798327014487223"><ele>864.0</ele><time>2026-04-25T10:39:09Z</time></trkpt><trkpt lat="44.51641429625569" lon="8.798349958795592"><ele>863.4000000000001</ele><time>2026-04-25T10:39:10Z</time></trkpt><trkpt lat="44.5165277647296" lon="8.798389209296893"><ele>862.8000000000001</ele><time>2026-04-25T10:39:11Z</time></trkpt><trkpt lat="44.516624779512064" lon="8.798471347001913"><ele>862.1999999999999</ele><time>2026-04-25T10:39:12Z</time></trkpt><trkpt lat="44.5167243216429" lon="8.798517516407292"><ele>861.5999999999999</ele><time>2026-04-25T10:39:13Z</time></trkpt><trkpt lat="44.516789944959626" lon="8.798623038062843"><ele>861.0</ele><time>2026-04-25T10:39:14Z</time></trkpt><trkpt lat="44.516837992616956" lon="8.798713888613637"><ele>861.0</ele><time>2026-04-25T10:39:15Z</time></trkpt><trkpt lat="44.516872427816395" lon="8.798856583668057"><ele>861.0</ele><time>2026-04-25T10:39:17Z</time></trkpt><trkpt lat="44.516911991369284" lon="8.798978582755362"><ele>861.0</ele><time>2026-04-25T10:39:19Z</time></trkpt><trkpt lat="44.51692454795701" lon="8.799126149981369"><ele>861.0</ele><time>2026-04-25T10:39:21Z</time></trkpt><trkpt lat="44.516937994528156" lon="8.799214199416786"><ele>861.0</ele><time>2026-04-25T10:39:22Z</time></trkpt><trkpt lat="44.516963465943256" lon="8.799310760068282"><ele>861.0</ele><time>2026-04-25T10:39:23Z</time></trkpt><trkpt lat="44.516965266455365" lon="8.799421577027218"><ele>860.1666666666666</ele><time>2026-04-25T10:39:24Z</time></trkpt><trkpt lat="44.51695954718346" lon="8.79954078167613"><ele>859.3333333333333</ele><time>2026-04-25T10:39:25Z</time></trkpt><trkpt lat="44.516923767477685" lon="8.799653647499753"><ele>858.5</ele><time>2026-04-25T10:39:26Z</time></trkpt><trkpt lat="44.516902222093975" lon="8.799762314636316"><ele>857.6666666666666</ele><time>2026-04-25T10:39:27Z</time></trkpt><trkpt lat="44.51687552176157" lon="8.799860188145425"><ele>856.8333333333333</ele><time>2026-04-25T10:39:28Z</time></trkpt><trkpt lat="44.51686489347991" lon="8.799962954206332"><ele>856.0</ele><time>2026-04-25T10:39:29Z</time></trkpt><trkpt lat="44.51685631627967" lon="8.8000540567573"><ele>854.9999999999999</ele><time>2026-04-25T10:39:30Z</time></trkpt><trkpt lat="44.51687522547595" lon="8.800219305733757"><ele>854.0</ele><time>2026-04-25T10:39:32Z</time></trkpt><trkpt lat="44.51692448174032" lon="8.800290309252196"><ele>853.0</ele><time>2026-04-25T10:39:33Z</time></trkpt><trkpt lat="44.5169853098732" lon="8.800341403702786"><ele>852.0</ele><time>2026-04-25T10:39:34Z</time></trkpt><trkpt lat="44.51702757610435" lon="8.800431161112574"><ele>850.9999999999999</ele><time>2026-04-25T10:39:35Z</time></trkpt><trkpt lat="44.517080551231835" lon="8.800511795143795"><ele>850.0</ele><time>2026-04-25T10:39:36Z</time></trkpt><trkpt lat="44.51712773962096" lon="8.80059337512842"><ele>852.8333333333333</ele><time>2026-04-25T10:39:37Z</time></trkpt><trkpt lat="44.517175251045856" lon="8.800665579234416"><ele>855.6666666666666</ele><time>2026-04-25T10:39:38Z</time></trkpt><trkpt lat="44.517198572907475" lon="8.800764957939087"><ele>858.5</ele><time>2026-04-25T10:39:39Z</time></trkpt><trkpt lat="44.51719475892241" lon="8.80087186256153"><ele>861.3333333333333</ele><time>2026-04-25T10:39:40Z</time></trkpt><trkpt lat="44.51720321463827" lon="8.80098598757348"><ele>864.1666666666666</ele><time>2026-04-25T10:39:41Z</time></trkpt><trkpt lat="44.51720756724273" lon="8.80110655377285"><ele>867.0</ele><time>2026-04-25T10:39:42Z</time></trkpt><trkpt lat="44.51720746633368" lon="8.80122888168071"><ele>867.6666666666666</ele><time>2026-04-25T10:39:43Z</time></trkpt><trkpt lat="44.517196155176464" lon="8.801336102590106"><ele>868.3333333333333</ele><time>2026-04-25T10:39:44Z</time></trkpt><trkpt lat="44.51717133331938" lon="8.801436276107832"><ele>869.0</ele><time>2026-04-25T10:39:45Z</time></trkpt><trkpt lat="44.517133282392784" lon="8.801533732746515"><ele>869.6666666666666</ele><time>2026-04-25T10:39:46Z</time></trkpt><trkpt lat="44.51709267103493" lon="8.801632862814108"><ele>870.3333333333333</ele><time>2026-04-25T10:39:47Z</time></trkpt><trkpt lat="44.51706069478018" lon="8.801745612346782"><ele>871.0</ele><time>2026-04-25T10:39:48Z</time></trkpt><trkpt lat="44.51701410782983" lon="8.801848155100487"><ele>868.0</ele><time>2026-04-25T10:39:49Z</time></trkpt><trkpt lat="44.51694666892588" lon="8.801943822003146"><ele>864.9999999999999</ele><time>2026-04-25T10:39:50Z</time></trkpt><trkpt lat="44.516886761740004" lon="8.802058265950361"><ele>861.9999999999999</ele><time>2026-04-25T10:39:51Z</time></trkpt><trkpt lat="44.516835093590075" lon="8.802187766361136"><ele>859.0</ele><time>2026-04-25T10:39:52Z</time></trkpt><trkpt lat="44.516764602986285" lon="8.802308591644982"><ele>856.0</ele><time>2026-04-25T10:39:53Z</time></trkpt><trkpt lat="44.51670490797082" lon="8.802441874048498"><ele>856.0</ele><time>2026-04-25T10:39:54Z</time></trkpt><trkpt lat="44.5166552588386" lon="8.802573606287702"><ele>855.9999999999999</ele><time>2026-04-25T10:39:55Z</time></trkpt><trkpt lat="44.516613280925924" lon="8.80270826396644"><ele>855.9999999999999</ele><time>2026-04-25T10:39:56Z</time></trkpt><trkpt lat="44.516583394436324" lon="8.802846150766687"><ele>856.0</ele><time>2026-04-25T10:39:57Z</time></trkpt><trkpt lat="44.51656295235906" lon="8.802977704081426"><ele>856.0</ele><time>2026-04-25T10:39:58Z</time></trkpt><trkpt lat="44.51655077383156" lon="8.803096828328377"><ele>856.1666666666666</ele><time>2026-04-25T10:39:59Z</time></trkpt><trkpt lat="44.51653812807233" lon="8.803200726052948"><ele>856.3333333333333</ele><time>2026-04-25T10:40:00Z</time></trkpt><trkpt lat="44.516529060679055" lon="8.803291428636726"><ele>856.5</ele><time>2026-04-25T10:40:01Z</time></trkpt><trkpt lat="44.516519112251224" lon="8.803416760470203"><ele>856.6666666666667</ele><time>2026-04-25T10:40:03Z</time></trkpt><trkpt lat="44.51650316288669" lon="8.803561971164886"><ele>856.8333333333334</ele><time>2026-04-25T10:40:05Z</time></trkpt><trkpt lat="44.51651316412793" lon="8.803702514257822"><ele>857.0</ele><time>2026-04-25T10:40:07Z</time></trkpt><trkpt lat="44.516518295157745" lon="8.803823786872355"><ele>855.6</ele><time>2026-04-25T10:40:09Z</time></trkpt><trkpt lat="44.516547082439004" lon="8.803968715940808"><ele>854.2</ele><time>2026-04-25T10:40:11Z</time></trkpt><trkpt lat="44.51657335930899" lon="8.804062165484089"><ele>852.8</ele><time>2026-04-25T10:40:12Z</time></trkpt><trkpt lat="44.51661237118377" lon="8.804174389247441"><ele>851.4</ele><time>2026-04-25T10:40:13Z</time></trkpt><trkpt lat="44.51666732106577" lon="8.80431583313839"><ele>850.0</ele><time>2026-04-25T10:40:14Z</time></trkpt><trkpt lat="44.51672834453947" lon="8.804473544466562"><ele>848.0</ele><time>2026-04-25T10:40:15Z</time></trkpt><trkpt lat="44.51678487218915" lon="8.804617859166555"><ele>846.0</ele><time>2026-04-25T10:40:16Z</time></trkpt><trkpt lat="44.51684289215083" lon="8.80476598371386"><ele>844.0</ele><time>2026-04-25T10:40:17Z</time></trkpt><trkpt lat="44.51690085370039" lon="8.804911011536928"><ele>842.0</ele><time>2026-04-25T10:40:18Z</time></trkpt><trkpt lat="44.51695049739169" lon="8.805056833944573"><ele>842.2</ele><time>2026-04-25T10:40:19Z</time></trkpt><trkpt lat="44.516975906237754" lon="8.805194152753794"><ele>842.4000000000001</ele><time>2026-04-25T10:40:20Z</time></trkpt><trkpt lat="44.517001014447466" lon="8.805314202954976"><ele>842.5999999999999</ele><time>2026-04-25T10:40:21Z</time></trkpt><trkpt lat="44.51697965466251" lon="8.805434960044474"><ele>842.8</ele><time>2026-04-25T10:40:22Z</time></trkpt><trkpt lat="44.516934371826856" lon="8.80553989669817"><ele>843.0</ele><time>2026-04-25T10:40:23Z</time></trkpt><trkpt lat="44.51685326194304" lon="8.80564243214303"><ele>843.0</ele><time>2026-04-25T10:40:24Z</time></trkpt><trkpt lat="44.516738823850034" lon="8.805716451378318"><ele>843.0</ele><time>2026-04-25T10:40:25Z</time></trkpt><trkpt lat="44.51661963115317" lon="8.805840427311436"><ele>843.0</ele><time>2026-04-25T10:40:26Z</time></trkpt><trkpt lat="44.51648537068911" lon="8.805933824745484"><ele>843.0</ele><time>2026-04-25T10:40:27Z</time></trkpt><trkpt lat="44.516374811970294" lon="8.806024274008522"><ele>843.0</ele><time>2026-04-25T10:40:28Z</time></trkpt><trkpt lat="44.516276911327886" lon="8.806121428557162"><ele>843.0</ele><time>2026-04-25T10:40:29Z</time></trkpt><trkpt lat="44.51619059794404" lon="8.806228041826271"><ele>843.0</ele><time>2026-04-25T10:40:30Z</time></trkpt><trkpt lat="44.516110918579564" lon="8.80635100994362"><ele>843.0</ele><time>2026-04-25T10:40:30.999Z</time></trkpt><trkpt lat="44.516038749860876" lon="8.806505866592024"><ele>843.0</ele><time>2026-04-25T10:40:31.999Z</time></trkpt><trkpt lat="44.51596459725457" lon="8.806689620941214"><ele>843.0</ele><time>2026-04-25T10:40:32.999Z</time></trkpt><trkpt lat="44.51587340873061" lon="8.80686462375462"><ele>843.0</ele><time>2026-04-25T10:40:33.999Z</time></trkpt><trkpt lat="44.51579909915507" lon="8.807039056702804"><ele>844.5</ele><time>2026-04-25T10:40:34.999Z</time></trkpt><trkpt lat="44.51572603458707" lon="8.807209836719958"><ele>846.0</ele><time>2026-04-25T10:40:35.999Z</time></trkpt><trkpt lat="44.515656890657446" lon="8.80737157982061"><ele>847.5</ele><time>2026-04-25T10:40:36.999Z</time></trkpt><trkpt lat="44.51559689243314" lon="8.807543369666801"><ele>849.0</ele><time>2026-04-25T10:40:37.999Z</time></trkpt><trkpt lat="44.51552902364761" lon="8.807704961248477"><ele>848.5</ele><time>2026-04-25T10:40:38.999Z</time></trkpt><trkpt lat="44.51546290970009" lon="8.8078615235734"><ele>848.0</ele><time>2026-04-25T10:40:39.999Z</time></trkpt><trkpt lat="44.515382832609696" lon="8.808003959263303"><ele>847.5</ele><time>2026-04-25T10:40:40.999Z</time></trkpt><trkpt lat="44.5153146943282" lon="8.808158880185667"><ele>847.0</ele><time>2026-04-25T10:40:41.999Z</time></trkpt><trkpt lat="44.51522506632944" lon="8.808302434224741"><ele>847.0</ele><time>2026-04-25T10:40:42.999Z</time></trkpt><trkpt lat="44.515128591537504" lon="8.808446607783937"><ele>847.0</ele><time>2026-04-25T10:40:43.999Z</time></trkpt><trkpt lat="44.51502636250073" lon="8.808593603357258"><ele>847.0</ele><time>2026-04-25T10:40:44.999Z</time></trkpt><trkpt lat="44.514917484004776" lon="8.808742395197983"><ele>847.0</ele><time>2026-04-25T10:40:45.999Z</time></trkpt><trkpt lat="44.51480856083504" lon="8.80889469160218"><ele>847.25</ele><time>2026-04-25T10:40:46.999Z</time></trkpt><trkpt lat="44.5147126148522" lon="8.809055340569566"><ele>847.5</ele><time>2026-04-25T10:40:47.999Z</time></trkpt><trkpt lat="44.51461755427757" lon="8.809188073602096"><ele>847.75</ele><time>2026-04-25T10:40:48.999Z</time></trkpt><trkpt lat="44.514538137171606" lon="8.80933604864121"><ele>848.0</ele><time>2026-04-25T10:40:49.999Z</time></trkpt><trkpt lat="44.514469020206214" lon="8.809515532891258"><ele>848.0</ele><time>2026-04-25T10:40:50.999Z</time></trkpt><trkpt lat="44.51441459943276" lon="8.809722644050467"><ele>848.0</ele><time>2026-04-25T10:40:51.999Z</time></trkpt><trkpt lat="44.514366146288474" lon="8.809941808741263"><ele>848.0</ele><time>2026-04-25T10:40:52.999Z</time></trkpt><trkpt lat="44.51431639331376" lon="8.810151406033485"><ele>849.75</ele><time>2026-04-25T10:40:53.999Z</time></trkpt><trkpt lat="44.5142637131612" lon="8.810346664336986"><ele>851.5</ele><time>2026-04-25T10:40:54.999Z</time></trkpt><trkpt lat="44.51421675391722" lon="8.810520528697825"><ele>853.25</ele><time>2026-04-25T10:40:55.999Z</time></trkpt><trkpt lat="44.51418278135562" lon="8.810676901365193"><ele>855.0</ele><time>2026-04-25T10:40:56.999Z</time></trkpt><trkpt lat="44.51417131275519" lon="8.810853133011088"><ele>857.0</ele><time>2026-04-25T10:40:57.999Z</time></trkpt><trkpt lat="44.51419008175999" lon="8.811054867878674"><ele>859.0</ele><time>2026-04-25T10:40:58.999Z</time></trkpt><trkpt lat="44.51422326964108" lon="8.811272455208185"><ele>861.0</ele><time>2026-04-25T10:40:59.999Z</time></trkpt><trkpt lat="44.514253157620224" lon="8.81149760904299"><ele>861.0</ele><time>2026-04-25T10:41:00.999Z</time></trkpt><trkpt lat="44.51428291464338" lon="8.811721677598705"><ele>861.0</ele><time>2026-04-25T10:41:01.999Z</time></trkpt><trkpt lat="44.51430780899615" lon="8.811937792658863"><ele>861.0</ele><time>2026-04-25T10:41:03Z</time></trkpt><trkpt lat="44.51433950748193" lon="8.812154513184943"><ele>861.0</ele><time>2026-04-25T10:41:04Z</time></trkpt><trkpt lat="44.51438729444702" lon="8.812386083141655"><ele>861.0</ele><time>2026-04-25T10:41:05Z</time></trkpt><trkpt lat="44.51445012106143" lon="8.812630292901973"><ele>861.0</ele><time>2026-04-25T10:41:06Z</time></trkpt><trkpt lat="44.51450829947767" lon="8.812867450572464"><ele>861.0</ele><time>2026-04-25T10:41:07Z</time></trkpt><trkpt lat="44.514558103829856" lon="8.813085228554684"><ele>861.0</ele><time>2026-04-25T10:41:08Z</time></trkpt><trkpt lat="44.51460791574018" lon="8.813309023226195"><ele>861.0</ele><time>2026-04-25T10:41:09Z</time></trkpt><trkpt lat="44.51465955131179" lon="8.813531903279584"><ele>864.0</ele><time>2026-04-25T10:41:10Z</time></trkpt><trkpt lat="44.514701244946" lon="8.813756925015134"><ele>867.0</ele><time>2026-04-25T10:41:11Z</time></trkpt><trkpt lat="44.514754559724686" lon="8.813982793268842"><ele>870.0</ele><time>2026-04-25T10:41:12Z</time></trkpt><trkpt lat="44.51479954928358" lon="8.81419553352173"><ele>869.6666666666667</ele><time>2026-04-25T10:41:13Z</time></trkpt><trkpt lat="44.51484962727152" lon="8.814397203199924"><ele>869.3333333333334</ele><time>2026-04-25T10:41:14Z</time></trkpt><trkpt lat="44.51489461520925" lon="8.814603589535125"><ele>869.0</ele><time>2026-04-25T10:41:15Z</time></trkpt><trkpt lat="44.51494081177046" lon="8.81480204968606"><ele>869.0</ele><time>2026-04-25T10:41:16Z</time></trkpt><trkpt lat="44.51498664817965" lon="8.815003418062043"><ele>869.0</ele><time>2026-04-25T10:41:17Z</time></trkpt><trkpt lat="44.51503096219013" lon="8.815204151120351"><ele>869.0</ele><time>2026-04-25T10:41:18Z</time></trkpt><trkpt lat="44.515076507492125" lon="8.81540129108128"><ele>869.0</ele><time>2026-04-25T10:41:19Z</time></trkpt><trkpt lat="44.51513055489715" lon="8.815598217611479"><ele>869.0</ele><time>2026-04-25T10:41:20Z</time></trkpt><trkpt lat="44.51519410308798" lon="8.81579126812004"><ele>869.0</ele><time>2026-04-25T10:41:21Z</time></trkpt><trkpt lat="44.51526260332896" lon="8.815977146687091"><ele>869.0</ele><time>2026-04-25T10:41:22Z</time></trkpt><trkpt lat="44.51533869481171" lon="8.816160301977215"><ele>872.6666666666667</ele><time>2026-04-25T10:41:23Z</time></trkpt><trkpt lat="44.515422742956964" lon="8.816341028747155"><ele>876.3333333333333</ele><time>2026-04-25T10:41:24Z</time></trkpt><trkpt lat="44.515518374678244" lon="8.816512325878847"><ele>880.0</ele><time>2026-04-25T10:41:25Z</time></trkpt><trkpt lat="44.51562005737588" lon="8.816673458026768"><ele>880.0</ele><time>2026-04-25T10:41:26Z</time></trkpt><trkpt lat="44.51571359033241" lon="8.816816006528343"><ele>880.0</ele><time>2026-04-25T10:41:27Z</time></trkpt><trkpt lat="44.51580566379552" lon="8.816950449388061"><ele>880.0</ele><time>2026-04-25T10:41:28Z</time></trkpt><trkpt lat="44.515898632026435" lon="8.817074672975396"><ele>880.0</ele><time>2026-04-25T10:41:29Z</time></trkpt><trkpt lat="44.5159925532997" lon="8.817195418086833"><ele>879.4</ele><time>2026-04-25T10:41:30Z</time></trkpt><trkpt lat="44.51607690765821" lon="8.817307504912414"><ele>878.8</ele><time>2026-04-25T10:41:31Z</time></trkpt><trkpt lat="44.51615293005119" lon="8.817413772958746"><ele>878.2</ele><time>2026-04-25T10:41:32Z</time></trkpt><trkpt lat="44.51623040525687" lon="8.817509598336224"><ele>877.6</ele><time>2026-04-25T10:41:33Z</time></trkpt><trkpt lat="44.51632290414503" lon="8.817598297742535"><ele>877.0</ele><time>2026-04-25T10:41:34Z</time></trkpt><trkpt lat="44.516426115405864" lon="8.817674078139884"><ele>874.25</ele><time>2026-04-25T10:41:35Z</time></trkpt><trkpt lat="44.51652894292187" lon="8.81773966117705"><ele>871.5</ele><time>2026-04-25T10:41:36Z</time></trkpt><trkpt lat="44.516634871203145" lon="8.817799214175343"><ele>868.75</ele><time>2026-04-25T10:41:37Z</time></trkpt><trkpt lat="44.51674443377222" lon="8.817851709705165"><ele>866.0</ele><time>2026-04-25T10:41:38Z</time></trkpt><trkpt lat="44.51685633580848" lon="8.817913301856033"><ele>866.0</ele><time>2026-04-25T10:41:39Z</time></trkpt><trkpt lat="44.51696690653778" lon="8.817981729902694"><ele>866.0</ele><time>2026-04-25T10:41:40Z</time></trkpt><trkpt lat="44.51707504236902" lon="8.818057911950254"><ele>866.0</ele><time>2026-04-25T10:41:41Z</time></trkpt><trkpt lat="44.51717946040632" lon="8.818134820741612"><ele>866.0</ele><time>2026-04-25T10:41:42Z</time></trkpt><trkpt lat="44.51728332075298" lon="8.818205500356395"><ele>862.75</ele><time>2026-04-25T10:41:43Z</time></trkpt><trkpt lat="44.517387127276635" lon="8.818277022072403"><ele>859.5</ele><time>2026-04-25T10:41:44Z</time></trkpt><trkpt lat="44.51748807081676" lon="8.818350754932121"><ele>856.25</ele><time>2026-04-25T10:41:45Z</time></trkpt><trkpt lat="44.51759151490106" lon="8.818422250086037"><ele>853.0</ele><time>2026-04-25T10:41:46Z</time></trkpt><trkpt lat="44.51770018383999" lon="8.818498674212757"><ele>853.0</ele><time>2026-04-25T10:41:47Z</time></trkpt><trkpt lat="44.51781198862639" lon="8.81857626182312"><ele>853.0</ele><time>2026-04-25T10:41:48Z</time></trkpt><trkpt lat="44.517924464694275" lon="8.8186580058961"><ele>853.0</ele><time>2026-04-25T10:41:49Z</time></trkpt><trkpt lat="44.51803535411859" lon="8.818763495471174"><ele>853.0</ele><time>2026-04-25T10:41:50Z</time></trkpt><trkpt lat="44.51812951396947" lon="8.81890899167347"><ele>850.5</ele><time>2026-04-25T10:41:51Z</time></trkpt><trkpt lat="44.518224857272955" lon="8.819044383927913"><ele>848.0</ele><time>2026-04-25T10:41:52Z</time></trkpt><trkpt lat="44.518329672415014" lon="8.819164071857125"><ele>845.5</ele><time>2026-04-25T10:41:53Z</time></trkpt><trkpt lat="44.51841925023253" lon="8.819295542939534"><ele>843.0</ele><time>2026-04-25T10:41:54Z</time></trkpt><trkpt lat="44.51850776645198" lon="8.819421504817923"><ele>843.0</ele><time>2026-04-25T10:41:55Z</time></trkpt><trkpt lat="44.51859102376447" lon="8.819546963542447"><ele>843.0</ele><time>2026-04-25T10:41:56Z</time></trkpt><trkpt lat="44.518690056225616" lon="8.819635261990692"><ele>843.0</ele><time>2026-04-25T10:41:57Z</time></trkpt><trkpt lat="44.51879815409756" lon="8.8197001790725"><ele>843.0</ele><time>2026-04-25T10:41:58Z</time></trkpt><trkpt lat="44.5189166132338" lon="8.819740135951559"><ele>847.0</ele><time>2026-04-25T10:41:59Z</time></trkpt><trkpt lat="44.5190440269362" lon="8.819750036036103"><ele>851.0</ele><time>2026-04-25T10:42:00Z</time></trkpt><trkpt lat="44.51917873781273" lon="8.819742199089367"><ele>855.0</ele><time>2026-04-25T10:42:01Z</time></trkpt><trkpt lat="44.519322830602796" lon="8.81972558539501"><ele>859.0</ele><time>2026-04-25T10:42:02Z</time></trkpt><trkpt lat="44.519469421576815" lon="8.819705682827527"><ele>858.75</ele><time>2026-04-25T10:42:03Z</time></trkpt><trkpt lat="44.519615801669744" lon="8.819680819339013"><ele>858.5</ele><time>2026-04-25T10:42:04Z</time></trkpt><trkpt lat="44.51976077319729" lon="8.819676337736139"><ele>858.25</ele><time>2026-04-25T10:42:05Z</time></trkpt><trkpt lat="44.519905752416385" lon="8.819709603444615"><ele>858.0</ele><time>2026-04-25T10:42:06Z</time></trkpt><trkpt lat="44.5200498656419" lon="8.819769802936445"><ele>858.0</ele><time>2026-04-25T10:42:07Z</time></trkpt><trkpt lat="44.52019744802966" lon="8.81985270080135"><ele>858.0</ele><time>2026-04-25T10:42:08Z</time></trkpt><trkpt lat="44.520350406606426" lon="8.819956591168845"><ele>858.0</ele><time>2026-04-25T10:42:09Z</time></trkpt><trkpt lat="44.52050988533025" lon="8.820077018982744"><ele>856.0</ele><time>2026-04-25T10:42:10Z</time></trkpt><trkpt lat="44.520672294714416" lon="8.820192246104057"><ele>854.0</ele><time>2026-04-25T10:42:11Z</time></trkpt><trkpt lat="44.52083228777135" lon="8.820303973174537"><ele>852.0</ele><time>2026-04-25T10:42:12Z</time></trkpt><trkpt lat="44.52099406344895" lon="8.82040760219267"><ele>852.0</ele><time>2026-04-25T10:42:13Z</time></trkpt><trkpt lat="44.52115184019194" lon="8.820515566626922"><ele>852.0</ele><time>2026-04-25T10:42:14Z</time></trkpt><trkpt lat="44.52129989750274" lon="8.820618889805482"><ele>852.0</ele><time>2026-04-25T10:42:15Z</time></trkpt><trkpt lat="44.521434780435065" lon="8.820713565020208"><ele>848.75</ele><time>2026-04-25T10:42:16Z</time></trkpt><trkpt lat="44.521563577361476" lon="8.82079675092241"><ele>845.5</ele><time>2026-04-25T10:42:17Z</time></trkpt><trkpt lat="44.52167769859421" lon="8.820876557861823"><ele>842.25</ele><time>2026-04-25T10:42:18Z</time></trkpt><trkpt lat="44.521770863020016" lon="8.820946051297096"><ele>839.0</ele><time>2026-04-25T10:42:19Z</time></trkpt><trkpt lat="44.52185219486813" lon="8.821040270138763"><ele>839.0</ele><time>2026-04-25T10:42:20Z</time></trkpt><trkpt lat="44.52190328033382" lon="8.821176639207822"><ele>839.0</ele><time>2026-04-25T10:42:21Z</time></trkpt><trkpt lat="44.521928994183476" lon="8.821326172841667"><ele>839.0</ele><time>2026-04-25T10:42:22Z</time></trkpt><trkpt lat="44.52188904405067" lon="8.821490067902864"><ele>839.0</ele><time>2026-04-25T10:42:23Z</time></trkpt><trkpt lat="44.5218481702351" lon="8.821689016823273"><ele>835.6666666666667</ele><time>2026-04-25T10:42:24Z</time></trkpt><trkpt lat="44.521778773145776" lon="8.821896691895718"><ele>832.3333333333333</ele><time>2026-04-25T10:42:25Z</time></trkpt><trkpt lat="44.52170584153762" lon="8.822117216762825"><ele>829.0</ele><time>2026-04-25T10:42:26Z</time></trkpt><trkpt lat="44.52163498379696" lon="8.822347335289649"><ele>829.0</ele><time>2026-04-25T10:42:27Z</time></trkpt><trkpt lat="44.52156522994702" lon="8.822576464108753"><ele>829.0</ele><time>2026-04-25T10:42:28Z</time></trkpt><trkpt lat="44.52149765976235" lon="8.822803725791813"><ele>829.0</ele><time>2026-04-25T10:42:29Z</time></trkpt><trkpt lat="44.5214288723254" lon="8.823023926863332"><ele>826.6666666666666</ele><time>2026-04-25T10:42:30Z</time></trkpt><trkpt lat="44.521359509115825" lon="8.823243205624625"><ele>824.3333333333333</ele><time>2026-04-25T10:42:31Z</time></trkpt><trkpt lat="44.52129456947372" lon="8.823460825402867"><ele>822.0</ele><time>2026-04-25T10:42:32Z</time></trkpt><trkpt lat="44.52122923723538" lon="8.82367207722492"><ele>820.0</ele><time>2026-04-25T10:42:32.999Z</time></trkpt><trkpt lat="44.52117166135913" lon="8.823866190293487"><ele>818.0</ele><time>2026-04-25T10:42:33.999Z</time></trkpt><trkpt lat="44.521135261746366" lon="8.824037560346706"><ele>816.0</ele><time>2026-04-25T10:42:34.999Z</time></trkpt><trkpt lat="44.52112845446969" lon="8.824207637794023"><ele>814.0</ele><time>2026-04-25T10:42:35.999Z</time></trkpt><trkpt lat="44.52114892220549" lon="8.824372989751714"><ele>811.0</ele><time>2026-04-25T10:42:36.999Z</time></trkpt><trkpt lat="44.52121424884654" lon="8.82454340094806"><ele>808.0</ele><time>2026-04-25T10:42:37.999Z</time></trkpt><trkpt lat="44.5213069049386" lon="8.824713115728423"><ele>805.0</ele><time>2026-04-25T10:42:38.999Z</time></trkpt><trkpt lat="44.52142622270058" lon="8.824875842900598"><ele>806.3333333333333</ele><time>2026-04-25T10:42:39.999Z</time></trkpt><trkpt lat="44.52153653416351" lon="8.825039851651162"><ele>807.6666666666667</ele><time>2026-04-25T10:42:40.999Z</time></trkpt><trkpt lat="44.521632060003874" lon="8.825196484696047"><ele>809.0</ele><time>2026-04-25T10:42:41.999Z</time></trkpt><trkpt lat="44.52172284778246" lon="8.825350814048743"><ele>809.0</ele><time>2026-04-25T10:42:42.999Z</time></trkpt><trkpt lat="44.521812037370715" lon="8.825499994690206"><ele>809.0</ele><time>2026-04-25T10:42:43.999Z</time></trkpt><trkpt lat="44.52189736721579" lon="8.825648747629977"><ele>809.0</ele><time>2026-04-25T10:42:44.999Z</time></trkpt><trkpt lat="44.52197938888746" lon="8.825793333482496"><ele>809.0</ele><time>2026-04-25T10:42:45.999Z</time></trkpt><trkpt lat="44.52205357507466" lon="8.82594310774493"><ele>813.0</ele><time>2026-04-25T10:42:46.999Z</time></trkpt><trkpt lat="44.522116402290095" lon="8.826101221367953"><ele>817.0</ele><time>2026-04-25T10:42:47.999Z</time></trkpt><trkpt lat="44.52217012897986" lon="8.826277060539969"><ele>821.0</ele><time>2026-04-25T10:42:48.999Z</time></trkpt><trkpt lat="44.52219537801788" lon="8.826467231260896"><ele>825.0</ele><time>2026-04-25T10:42:49.999Z</time></trkpt><trkpt lat="44.52222134669662" lon="8.82665781073741"><ele>823.0</ele><time>2026-04-25T10:42:50.999Z</time></trkpt><trkpt lat="44.52222967078392" lon="8.826850624278428"><ele>821.0</ele><time>2026-04-25T10:42:51.999Z</time></trkpt><trkpt lat="44.522231153833" lon="8.827043507972926"><ele>819.0</ele><time>2026-04-25T10:42:52.999Z</time></trkpt><trkpt lat="44.52224466783183" lon="8.827228511377228"><ele>817.0</ele><time>2026-04-25T10:42:53.999Z</time></trkpt><trkpt lat="44.52224300098506" lon="8.827408679162001"><ele>817.0</ele><time>2026-04-25T10:42:54.999Z</time></trkpt><trkpt lat="44.522248774951706" lon="8.827585435026718"><ele>817.0</ele><time>2026-04-25T10:42:55.999Z</time></trkpt><trkpt lat="44.52226194674476" lon="8.827764376873944"><ele>817.0</ele><time>2026-04-25T10:42:56.999Z</time></trkpt><trkpt lat="44.5222900062793" lon="8.827942338863291"><ele>817.0</ele><time>2026-04-25T10:42:57.999Z</time></trkpt><trkpt lat="44.52233584387351" lon="8.82811467728733"><ele>814.25</ele><time>2026-04-25T10:42:58.999Z</time></trkpt><trkpt lat="44.52239944928966" lon="8.828278932892504"><ele>811.5</ele><time>2026-04-25T10:42:59.999Z</time></trkpt><trkpt lat="44.52247505765129" lon="8.828433054958081"><ele>808.75</ele><time>2026-04-25T10:43:00.999Z</time></trkpt><trkpt lat="44.52257142350583" lon="8.828579902772937"><ele>806.0</ele><time>2026-04-25T10:43:01.999Z</time></trkpt><trkpt lat="44.522680248143764" lon="8.828706199534524"><ele>803.75</ele><time>2026-04-25T10:43:02.999Z</time></trkpt><trkpt lat="44.52279807671113" lon="8.828807010433168"><ele>801.5</ele><time>2026-04-25T10:43:03.999Z</time></trkpt><trkpt lat="44.52292662183687" lon="8.828882785042559"><ele>799.25</ele><time>2026-04-25T10:43:04.999Z</time></trkpt><trkpt lat="44.52306367213671" lon="8.828936344112613"><ele>797.0</ele><time>2026-04-25T10:43:05.999Z</time></trkpt><trkpt lat="44.523212458308" lon="8.828966081068634"><ele>797.0</ele><time>2026-04-25T10:43:06.999Z</time></trkpt><trkpt lat="44.523367044968644" lon="8.828983071159007"><ele>797.0</ele><time>2026-04-25T10:43:07.999Z</time></trkpt><trkpt lat="44.523537047261456" lon="8.828988472472384"><ele>797.0</ele><time>2026-04-25T10:43:09Z</time></trkpt><trkpt lat="44.52371246384099" lon="8.828996337761359"><ele>796.3333333333334</ele><time>2026-04-25T10:43:10Z</time></trkpt><trkpt lat="44.52388618797218" lon="8.829004807473982"><ele>795.6666666666667</ele><time>2026-04-25T10:43:11Z</time></trkpt><trkpt lat="44.524048091264476" lon="8.829016771738694"><ele>795.0</ele><time>2026-04-25T10:43:12Z</time></trkpt><trkpt lat="44.52419520798936" lon="8.829032681879196"><ele>795.0</ele><time>2026-04-25T10:43:13Z</time></trkpt><trkpt lat="44.52433663567167" lon="8.829047675372532"><ele>795.0</ele><time>2026-04-25T10:43:14Z</time></trkpt><trkpt lat="44.524465975881505" lon="8.829059957661185"><ele>795.0</ele><time>2026-04-25T10:43:15Z</time></trkpt><trkpt lat="44.52459317875221" lon="8.829072729452056"><ele>795.0</ele><time>2026-04-25T10:43:16Z</time></trkpt><trkpt lat="44.524722993719365" lon="8.829082038665407"><ele>795.0</ele><time>2026-04-25T10:43:17Z</time></trkpt><trkpt lat="44.524850995461044" lon="8.829095751358006"><ele>795.0</ele><time>2026-04-25T10:43:18Z</time></trkpt><trkpt lat="44.524970511556994" lon="8.829136021693557"><ele>795.0</ele><time>2026-04-25T10:43:19Z</time></trkpt><trkpt lat="44.5250826769836" lon="8.829208088540028"><ele>795.0</ele><time>2026-04-25T10:43:20Z</time></trkpt><trkpt lat="44.52517236881183" lon="8.829328696948172"><ele>795.75</ele><time>2026-04-25T10:43:21Z</time></trkpt><trkpt lat="44.52525989068877" lon="8.82945665829769"><ele>796.5</ele><time>2026-04-25T10:43:22Z</time></trkpt><trkpt lat="44.525348894041095" lon="8.829590645501568"><ele>797.25</ele><time>2026-04-25T10:43:23Z</time></trkpt><trkpt lat="44.525429294027525" lon="8.829728229579521"><ele>798.0</ele><time>2026-04-25T10:43:24Z</time></trkpt><trkpt lat="44.52549392328677" lon="8.829861631978158"><ele>798.0</ele><time>2026-04-25T10:43:25Z</time></trkpt><trkpt lat="44.52554179727214" lon="8.82998252443751"><ele>798.0</ele><time>2026-04-25T10:43:26Z</time></trkpt><trkpt lat="44.52551414634852" lon="8.830121530494422"><ele>798.0</ele><time>2026-04-25T10:43:27Z</time></trkpt><trkpt lat="44.52546485883358" lon="8.830261642591934"><ele>798.0</ele><time>2026-04-25T10:43:28Z</time></trkpt><trkpt lat="44.525383314252956" lon="8.83035599563333"><ele>798.0</ele><time>2026-04-25T10:43:29Z</time></trkpt><trkpt lat="44.52527328485107" lon="8.830425857688207"><ele>793.0</ele><time>2026-04-25T10:43:30Z</time></trkpt><trkpt lat="44.5251453191831" lon="8.830453625081487"><ele>788.0</ele><time>2026-04-25T10:43:31Z</time></trkpt><trkpt lat="44.52503088781703" lon="8.830470291637836"><ele>783.0</ele><time>2026-04-25T10:43:32Z</time></trkpt><trkpt lat="44.52492363049966" lon="8.830532873405044"><ele>778.0</ele><time>2026-04-25T10:43:33Z</time></trkpt><trkpt lat="44.52481503475631" lon="8.830646744722296"><ele>778.0</ele><time>2026-04-25T10:43:34Z</time></trkpt><trkpt lat="44.52472025591974" lon="8.83079429546348"><ele>778.0</ele><time>2026-04-25T10:43:35Z</time></trkpt><trkpt lat="44.52463645731562" lon="8.830951181930077"><ele>778.0</ele><time>2026-04-25T10:43:36Z</time></trkpt><trkpt lat="44.5245422166686" lon="8.83109548456138"><ele>778.0</ele><time>2026-04-25T10:43:37Z</time></trkpt><trkpt lat="44.52446241885625" lon="8.831247003614664"><ele>772.5</ele><time>2026-04-25T10:43:38Z</time></trkpt><trkpt lat="44.52440404176004" lon="8.831412261144099"><ele>767.0</ele><time>2026-04-25T10:43:39Z</time></trkpt><trkpt lat="44.524368017031875" lon="8.83161204404478"><ele>761.5</ele><time>2026-04-25T10:43:40Z</time></trkpt><trkpt lat="44.52435534571788" lon="8.831848005582646"><ele>756.0</ele><time>2026-04-25T10:43:41Z</time></trkpt><trkpt lat="44.524346382555244" lon="8.832082556037676"><ele>756.25</ele><time>2026-04-25T10:43:42Z</time></trkpt><trkpt lat="44.524331916228945" lon="8.832296461395236"><ele>756.5</ele><time>2026-04-25T10:43:43Z</time></trkpt><trkpt lat="44.5243061729896" lon="8.832510223401798"><ele>756.75</ele><time>2026-04-25T10:43:44Z</time></trkpt><trkpt lat="44.52431304300314" lon="8.832673832697925"><ele>757.0</ele><time>2026-04-25T10:43:45Z</time></trkpt><trkpt lat="44.52428758681883" lon="8.832846971725285"><ele>757.0</ele><time>2026-04-25T10:43:46Z</time></trkpt><trkpt lat="44.524234249823614" lon="8.832996890974785"><ele>757.0</ele><time>2026-04-25T10:43:47Z</time></trkpt><trkpt lat="44.52415736106435" lon="8.833116227871681"><ele>757.0</ele><time>2026-04-25T10:43:48Z</time></trkpt><trkpt lat="44.52405702972298" lon="8.833202041567136"><ele>757.0</ele><time>2026-04-25T10:43:49Z</time></trkpt><trkpt lat="44.52394253699841" lon="8.833259369729626"><ele>757.0</ele><time>2026-04-25T10:43:50Z</time></trkpt><trkpt lat="44.52383149600229" lon="8.833298061833561"><ele>757.0</ele><time>2026-04-25T10:43:51Z</time></trkpt><trkpt lat="44.52373687111193" lon="8.833379021894949"><ele>757.0</ele><time>2026-04-25T10:43:52Z</time></trkpt><trkpt lat="44.52367075313947" lon="8.833496913581506"><ele>757.0</ele><time>2026-04-25T10:43:53Z</time></trkpt><trkpt lat="44.52363564205828" lon="8.833634886960292"><ele>757.0</ele><time>2026-04-25T10:43:54Z</time></trkpt><trkpt lat="44.523641741833366" lon="8.833797589445066"><ele>752.5</ele><time>2026-04-25T10:43:55Z</time></trkpt><trkpt lat="44.52367341495795" lon="8.833963743755952"><ele>748.0</ele><time>2026-04-25T10:43:56Z</time></trkpt><trkpt lat="44.5237287901388" lon="8.834131097291332"><ele>743.5</ele><time>2026-04-25T10:43:57Z</time></trkpt><trkpt lat="44.52378384679787" lon="8.8343117652077"><ele>739.0</ele><time>2026-04-25T10:43:58Z</time></trkpt><trkpt lat="44.523828278035694" lon="8.834491822536759"><ele>739.0</ele><time>2026-04-25T10:43:59Z</time></trkpt><trkpt lat="44.52388369213587" lon="8.834662760040958"><ele>739.0</ele><time>2026-04-25T10:44:00Z</time></trkpt><trkpt lat="44.52394726349407" lon="8.83483344218777"><ele>739.0</ele><time>2026-04-25T10:44:01Z</time></trkpt><trkpt lat="44.5240424130672" lon="8.835000918317075"><ele>739.0</ele><time>2026-04-25T10:44:02Z</time></trkpt><trkpt lat="44.52417864796124" lon="8.835181491767514"><ele>737.6666666666667</ele><time>2026-04-25T10:44:03Z</time></trkpt><trkpt lat="44.52433511613079" lon="8.835378049999916"><ele>736.3333333333334</ele><time>2026-04-25T10:44:04Z</time></trkpt><trkpt lat="44.52449595428378" lon="8.83559904108581"><ele>735.0</ele><time>2026-04-25T10:44:05Z</time></trkpt><trkpt lat="44.52464285032357" lon="8.835802714451916"><ele>729.0</ele><time>2026-04-25T10:44:06Z</time></trkpt><trkpt lat="44.524770666655236" lon="8.835978827311616"><ele>723.0</ele><time>2026-04-25T10:44:07Z</time></trkpt><trkpt lat="44.52487206010957" lon="8.83613104145667"><ele>717.0</ele><time>2026-04-25T10:44:08Z</time></trkpt><trkpt lat="44.52496351856879" lon="8.836262726694192"><ele>717.0</ele><time>2026-04-25T10:44:09Z</time></trkpt><trkpt lat="44.525040711964856" lon="8.836371220168365"><ele>717.0</ele><time>2026-04-25T10:44:10Z</time></trkpt><trkpt lat="44.525074988663896" lon="8.836495629844801"><ele>717.0</ele><time>2026-04-25T10:44:11Z</time></trkpt><trkpt lat="44.525092484505464" lon="8.836625233558442"><ele>717.0</ele><time>2026-04-25T10:44:12Z</time></trkpt><trkpt lat="44.52506487791517" lon="8.836745684993211"><ele>717.0</ele><time>2026-04-25T10:44:13Z</time></trkpt><trkpt lat="44.52500832231986" lon="8.836854435829935"><ele>715.8</ele><time>2026-04-25T10:44:14Z</time></trkpt><trkpt lat="44.52492849076575" lon="8.83693452614363"><ele>714.6</ele><time>2026-04-25T10:44:15Z</time></trkpt><trkpt lat="44.52483554476925" lon="8.836951981847879"><ele>713.4</ele><time>2026-04-25T10:44:16Z</time></trkpt><trkpt lat="44.52472983639631" lon="8.836920885104382"><ele>712.1999999999999</ele><time>2026-04-25T10:44:17Z</time></trkpt><trkpt lat="44.52462107148219" lon="8.83682319429299"><ele>711.0</ele><time>2026-04-25T10:44:18Z</time></trkpt><trkpt lat="44.524507887600755" lon="8.836692787193941"><ele>711.0</ele><time>2026-04-25T10:44:19Z</time></trkpt><trkpt lat="44.524376023630836" lon="8.836572767915888"><ele>711.0</ele><time>2026-04-25T10:44:20Z</time></trkpt><trkpt lat="44.52422538485619" lon="8.836467264164106"><ele>711.0</ele><time>2026-04-25T10:44:21Z</time></trkpt><trkpt lat="44.52403832422419" lon="8.836391431579434"><ele>711.0</ele><time>2026-04-25T10:44:22Z</time></trkpt><trkpt lat="44.523854026208596" lon="8.836349153815075"><ele>711.0</ele><time>2026-04-25T10:44:23Z</time></trkpt><trkpt lat="44.523676245007536" lon="8.836298418811179"><ele>711.0</ele><time>2026-04-25T10:44:24Z</time></trkpt><trkpt lat="44.52350580705188" lon="8.83624338708351"><ele>708.25</ele><time>2026-04-25T10:44:25Z</time></trkpt><trkpt lat="44.523341138005" lon="8.836194005011341"><ele>705.5</ele><time>2026-04-25T10:44:26Z</time></trkpt><trkpt lat="44.523195085491835" lon="8.836152882155337"><ele>702.75</ele><time>2026-04-25T10:44:27Z</time></trkpt><trkpt lat="44.52307223786677" lon="8.83611358278106"><ele>700.0</ele><time>2026-04-25T10:44:27.999Z</time></trkpt><trkpt lat="44.52296040624051" lon="8.836086580547818"><ele>697.8</ele><time>2026-04-25T10:44:28.999Z</time></trkpt><trkpt lat="44.52286439531673" lon="8.836076788203806"><ele>695.6</ele><time>2026-04-25T10:44:29.999Z</time></trkpt><trkpt lat="44.522767070815846" lon="8.836118138554527"><ele>693.4000000000001</ele><time>2026-04-25T10:44:30.999Z</time></trkpt><trkpt lat="44.522688170054806" lon="8.83622055368578"><ele>691.2</ele><time>2026-04-25T10:44:31.999Z</time></trkpt><trkpt lat="44.52263920810435" lon="8.836364823692895"><ele>689.0</ele><time>2026-04-25T10:44:32.999Z</time></trkpt><trkpt lat="44.52261916487546" lon="8.836517194517086"><ele>689.0</ele><time>2026-04-25T10:44:33.999Z</time></trkpt><trkpt lat="44.52264031370821" lon="8.836678902155736"><ele>689.0</ele><time>2026-04-25T10:44:34.999Z</time></trkpt><trkpt lat="44.52267463139056" lon="8.836844940679978"><ele>689.0</ele><time>2026-04-25T10:44:35.999Z</time></trkpt><trkpt lat="44.52270164341867" lon="8.837018689113515"><ele>689.0</ele><time>2026-04-25T10:44:36.999Z</time></trkpt><trkpt lat="44.52272513034325" lon="8.837203399302322"><ele>687.5</ele><time>2026-04-25T10:44:37.999Z</time></trkpt><trkpt lat="44.5227535784617" lon="8.837387621957426"><ele>686.0</ele><time>2026-04-25T10:44:38.999Z</time></trkpt><trkpt lat="44.52279359372445" lon="8.837553756798538"><ele>684.5</ele><time>2026-04-25T10:44:39.999Z</time></trkpt><trkpt lat="44.52286371682469" lon="8.837700449808228"><ele>683.0</ele><time>2026-04-25T10:44:40.999Z</time></trkpt><trkpt lat="44.52295460424033" lon="8.837820144006844"><ele>682.0</ele><time>2026-04-25T10:44:41.999Z</time></trkpt><trkpt lat="44.5230641394541" lon="8.837915157643875"><ele>681.0</ele><time>2026-04-25T10:44:42.999Z</time></trkpt><trkpt lat="44.52318285326438" lon="8.838002058312888"><ele>680.0</ele><time>2026-04-25T10:44:43.999Z</time></trkpt><trkpt lat="44.52330079055483" lon="8.838087266321743"><ele>679.0</ele><time>2026-04-25T10:44:44.999Z</time></trkpt><trkpt lat="44.52342429110312" lon="8.838188829227958"><ele>679.0</ele><time>2026-04-25T10:44:45.999Z</time></trkpt><trkpt lat="44.52354038558595" lon="8.83829761529653"><ele>679.0</ele><time>2026-04-25T10:44:46.999Z</time></trkpt><trkpt lat="44.52363741035261" lon="8.838417326813092"><ele>679.0</ele><time>2026-04-25T10:44:47.999Z</time></trkpt><trkpt lat="44.52372268826267" lon="8.838566084223471"><ele>679.0</ele><time>2026-04-25T10:44:48.999Z</time></trkpt><trkpt lat="44.52380301758176" lon="8.83874824900289"><ele>677.0</ele><time>2026-04-25T10:44:49.999Z</time></trkpt><trkpt lat="44.52387752155994" lon="8.838940452574246"><ele>675.0</ele><time>2026-04-25T10:44:50.999Z</time></trkpt><trkpt lat="44.52395316563341" lon="8.839111988906934"><ele>673.0</ele><time>2026-04-25T10:44:51.999Z</time></trkpt><trkpt lat="44.52403743181799" lon="8.839252474636142"><ele>671.0</ele><time>2026-04-25T10:44:52.999Z</time></trkpt><trkpt lat="44.52413431729084" lon="8.839359935909949"><ele>666.5</ele><time>2026-04-25T10:44:53.999Z</time></trkpt><trkpt lat="44.5242479188959" lon="8.839428835105887"><ele>662.0</ele><time>2026-04-25T10:44:54.999Z</time></trkpt><trkpt lat="44.524370928765464" lon="8.839468307693092"><ele>657.5</ele><time>2026-04-25T10:44:55.999Z</time></trkpt><trkpt lat="44.52451091029872" lon="8.839457692512577"><ele>653.0</ele><time>2026-04-25T10:44:56.999Z</time></trkpt><trkpt lat="44.52465732346862" lon="8.839428862366532"><ele>653.0</ele><time>2026-04-25T10:44:57.999Z</time></trkpt><trkpt lat="44.524802785482585" lon="8.839387627950874"><ele>653.0</ele><time>2026-04-25T10:44:58.999Z</time></trkpt><trkpt lat="44.52494203157722" lon="8.83935590009281"><ele>653.0</ele><time>2026-04-25T10:44:59.999Z</time></trkpt><trkpt lat="44.52506356384008" lon="8.839337969278512"><ele>653.0</ele><time>2026-04-25T10:45:00.999Z</time></trkpt><trkpt lat="44.525164337932154" lon="8.839353004628322"><ele>653.0</ele><time>2026-04-25T10:45:01.999Z</time></trkpt><trkpt lat="44.525252470217666" lon="8.839408451675379"><ele>653.0</ele><time>2026-04-25T10:45:02.999Z</time></trkpt><trkpt lat="44.525328331638796" lon="8.839500835378784"><ele>653.0</ele><time>2026-04-25T10:45:03.999Z</time></trkpt><trkpt lat="44.52537872248569" lon="8.839628105899138"><ele>653.0</ele><time>2026-04-25T10:45:04.999Z</time></trkpt><trkpt lat="44.52539249698683" lon="8.83977302780348"><ele>653.0</ele><time>2026-04-25T10:45:05.999Z</time></trkpt><trkpt lat="44.525374857998145" lon="8.839929875532516"><ele>653.0</ele><time>2026-04-25T10:45:06.999Z</time></trkpt><trkpt lat="44.52532182036117" lon="8.84006888296116"><ele>653.0</ele><time>2026-04-25T10:45:07.999Z</time></trkpt><trkpt lat="44.525223828447444" lon="8.84016308542561"><ele>653.0</ele><time>2026-04-25T10:45:08.999Z</time></trkpt><trkpt lat="44.52511223379157" lon="8.840215604335311"><ele>653.0</ele><time>2026-04-25T10:45:09.999Z</time></trkpt><trkpt lat="44.52497722195694" lon="8.840180732223276"><ele>646.0</ele><time>2026-04-25T10:45:10.999Z</time></trkpt><trkpt lat="44.524826582203644" lon="8.84018410655444"><ele>639.0</ele><time>2026-04-25T10:45:11.999Z</time></trkpt><trkpt lat="44.524649407311855" lon="8.840161822074785"><ele>632.0</ele><time>2026-04-25T10:45:12.999Z</time></trkpt><trkpt lat="44.52446932508023" lon="8.840148715099946"><ele>636.0</ele><time>2026-04-25T10:45:13.999Z</time></trkpt><trkpt lat="44.52430136066033" lon="8.840132942426967"><ele>640.0</ele><time>2026-04-25T10:45:15Z</time></trkpt><trkpt lat="44.52413714525342" lon="8.84011005784995"><ele>644.0</ele><time>2026-04-25T10:45:16Z</time></trkpt><trkpt lat="44.523977165443654" lon="8.840085225592835"><ele>644.0</ele><time>2026-04-25T10:45:17Z</time></trkpt><trkpt lat="44.52381855986138" lon="8.840044526239259"><ele>644.0</ele><time>2026-04-25T10:45:18Z</time></trkpt><trkpt lat="44.523665155186784" lon="8.839981715760661"><ele>644.0</ele><time>2026-04-25T10:45:19Z</time></trkpt><trkpt lat="44.52352438763787" lon="8.839913177363902"><ele>640.75</ele><time>2026-04-25T10:45:20Z</time></trkpt><trkpt lat="44.52340373617718" lon="8.839868376801629"><ele>637.5</ele><time>2026-04-25T10:45:21Z</time></trkpt><trkpt lat="44.52328146474809" lon="8.83986489290185"><ele>634.25</ele><time>2026-04-25T10:45:22Z</time></trkpt><trkpt lat="44.52316450862167" lon="8.839912931535732"><ele>631.0</ele><time>2026-04-25T10:45:23Z</time></trkpt><trkpt lat="44.523053897419615" lon="8.840010650257305"><ele>627.75</ele><time>2026-04-25T10:45:24Z</time></trkpt><trkpt lat="44.522952396724286" lon="8.840156109467927"><ele>624.5</ele><time>2026-04-25T10:45:25Z</time></trkpt><trkpt lat="44.52285368228737" lon="8.84030571163197"><ele>621.25</ele><time>2026-04-25T10:45:26Z</time></trkpt><trkpt lat="44.52273976312013" lon="8.840416207708481"><ele>618.0</ele><time>2026-04-25T10:45:27Z</time></trkpt><trkpt lat="44.522606810966124" lon="8.84046150642954"><ele>618.0</ele><time>2026-04-25T10:45:28Z</time></trkpt><trkpt lat="44.522463493407166" lon="8.840494531919685"><ele>618.0</ele><time>2026-04-25T10:45:29Z</time></trkpt><trkpt lat="44.522321121027204" lon="8.84053795099923"><ele>618.0</ele><time>2026-04-25T10:45:30Z</time></trkpt><trkpt lat="44.52220278023785" lon="8.840583571674195"><ele>618.0</ele><time>2026-04-25T10:45:31Z</time></trkpt><trkpt lat="44.522095105881775" lon="8.840676772568738"><ele>615.75</ele><time>2026-04-25T10:45:32Z</time></trkpt><trkpt lat="44.522014790389285" lon="8.840803084717594"><ele>613.5</ele><time>2026-04-25T10:45:33Z</time></trkpt><trkpt lat="44.52196348548506" lon="8.840948958054158"><ele>611.25</ele><time>2026-04-25T10:45:34Z</time></trkpt><trkpt lat="44.521937857086236" lon="8.84111655961271"><ele>609.0</ele><time>2026-04-25T10:45:35Z</time></trkpt><trkpt lat="44.521932817860325" lon="8.841306128773118"><ele>609.0</ele><time>2026-04-25T10:45:36Z</time></trkpt><trkpt lat="44.52193982015249" lon="8.84150530391101"><ele>609.0</ele><time>2026-04-25T10:45:37Z</time></trkpt><trkpt lat="44.521942050536296" lon="8.841679650476413"><ele>609.0</ele><time>2026-04-25T10:45:38Z</time></trkpt><trkpt lat="44.521930103905405" lon="8.841819864021224"><ele>609.0</ele><time>2026-04-25T10:45:39Z</time></trkpt><trkpt lat="44.5218916597759" lon="8.841930877477745"><ele>609.0</ele><time>2026-04-25T10:45:40Z</time></trkpt><trkpt lat="44.521824257433394" lon="8.842009475096406"><ele>609.0</ele><time>2026-04-25T10:45:41Z</time></trkpt><trkpt lat="44.52173765467462" lon="8.842033856008136"><ele>609.0</ele><time>2026-04-25T10:45:42Z</time></trkpt><trkpt lat="44.52164134637363" lon="8.841972027842072"><ele>609.0</ele><time>2026-04-25T10:45:43Z</time></trkpt><trkpt lat="44.52153512092312" lon="8.841869353161952"><ele>609.0</ele><time>2026-04-25T10:45:44Z</time></trkpt><trkpt lat="44.52139906171586" lon="8.841743336486543"><ele>609.0</ele><time>2026-04-25T10:45:45Z</time></trkpt><trkpt lat="44.52125289583849" lon="8.841627687105081"><ele>609.0</ele><time>2026-04-25T10:45:46Z</time></trkpt><trkpt lat="44.521119041893165" lon="8.841510844544093"><ele>609.0</ele><time>2026-04-25T10:45:47Z</time></trkpt><trkpt lat="44.52099669507984" lon="8.841388886367566"><ele>607.0</ele><time>2026-04-25T10:45:48Z</time></trkpt><trkpt lat="44.520892392546784" lon="8.84124216966112"><ele>605.0</ele><time>2026-04-25T10:45:49Z</time></trkpt><trkpt lat="44.52078489591648" lon="8.841105361372794"><ele>603.0</ele><time>2026-04-25T10:45:50Z</time></trkpt><trkpt lat="44.52069444231726" lon="8.840920129084356"><ele>603.0</ele><time>2026-04-25T10:45:51Z</time></trkpt><trkpt lat="44.52060383327729" lon="8.840721634227407"><ele>603.0</ele><time>2026-04-25T10:45:52Z</time></trkpt><trkpt lat="44.52052286037513" lon="8.840518295562362"><ele>603.0</ele><time>2026-04-25T10:45:53Z</time></trkpt><trkpt lat="44.520434057955484" lon="8.840325773000009"><ele>597.5</ele><time>2026-04-25T10:45:54Z</time></trkpt><trkpt lat="44.52034970034913" lon="8.840135977705607"><ele>592.0</ele><time>2026-04-25T10:45:55Z</time></trkpt><trkpt lat="44.520272667428884" lon="8.839957248098566"><ele>586.5</ele><time>2026-04-25T10:45:56Z</time></trkpt><trkpt lat="44.52020205612689" lon="8.839807390657795"><ele>581.0</ele><time>2026-04-25T10:45:57Z</time></trkpt><trkpt lat="44.52013542076311" lon="8.839672031082562"><ele>581.0</ele><time>2026-04-25T10:45:58Z</time></trkpt><trkpt lat="44.52005138068733" lon="8.839572317407729"><ele>581.0</ele><time>2026-04-25T10:45:59Z</time></trkpt><trkpt lat="44.519940846494826" lon="8.839527700803028"><ele>581.0</ele><time>2026-04-25T10:46:00Z</time></trkpt><trkpt lat="44.519820472498694" lon="8.839521778136584"><ele>581.0</ele><time>2026-04-25T10:46:01Z</time></trkpt><trkpt lat="44.51968992601488" lon="8.839548873975074"><ele>574.5</ele><time>2026-04-25T10:46:02Z</time></trkpt><trkpt lat="44.5195588170345" lon="8.839527237688914"><ele>568.0</ele><time>2026-04-25T10:46:03Z</time></trkpt><trkpt lat="44.51942490621098" lon="8.839528371714403"><ele>561.5</ele><time>2026-04-25T10:46:04Z</time></trkpt><trkpt lat="44.519298896967896" lon="8.83952247413772"><ele>555.0</ele><time>2026-04-25T10:46:05Z</time></trkpt><trkpt lat="44.51918842917966" lon="8.83949160935854"><ele>555.0</ele><time>2026-04-25T10:46:06Z</time></trkpt><trkpt lat="44.5191009502406" lon="8.839425532724551"><ele>555.0</ele><time>2026-04-25T10:46:07Z</time></trkpt><trkpt lat="44.51903515266353" lon="8.839324491049629"><ele>555.0</ele><time>2026-04-25T10:46:08Z</time></trkpt><trkpt lat="44.51897426751834" lon="8.83919286311432"><ele>555.0</ele><time>2026-04-25T10:46:09Z</time></trkpt><trkpt lat="44.51890447765811" lon="8.839072276609494"><ele>555.0</ele><time>2026-04-25T10:46:10Z</time></trkpt><trkpt lat="44.51885156343495" lon="8.838935296640772"><ele>554.2</ele><time>2026-04-25T10:46:11Z</time></trkpt><trkpt lat="44.51879807440142" lon="8.83880209696699"><ele>553.4</ele><time>2026-04-25T10:46:12Z</time></trkpt><trkpt lat="44.518741110426184" lon="8.838667716442718"><ele>552.6</ele><time>2026-04-25T10:46:13Z</time></trkpt><trkpt lat="44.51869084713503" lon="8.838524115460885"><ele>551.8</ele><time>2026-04-25T10:46:14Z</time></trkpt><trkpt lat="44.51865290322394" lon="8.838376411917709"><ele>551.0</ele><time>2026-04-25T10:46:15Z</time></trkpt><trkpt lat="44.51863283181195" lon="8.838216137508018"><ele>551.0</ele><time>2026-04-25T10:46:16Z</time></trkpt><trkpt lat="44.51861573707282" lon="8.838067003175937"><ele>551.0</ele><time>2026-04-25T10:46:17Z</time></trkpt><trkpt lat="44.51857788004407" lon="8.837956995175379"><ele>551.0</ele><time>2026-04-25T10:46:18Z</time></trkpt><trkpt lat="44.51850925957971" lon="8.837903288424856"><ele>551.0</ele><time>2026-04-25T10:46:19Z</time></trkpt><trkpt lat="44.51842817279922" lon="8.83789330602528"><ele>551.0</ele><time>2026-04-25T10:46:20Z</time></trkpt><trkpt lat="44.51835221177593" lon="8.837937975140674"><ele>551.0</ele><time>2026-04-25T10:46:21Z</time></trkpt><trkpt lat="44.518293790221165" lon="8.83803013515797"><ele>551.0</ele><time>2026-04-25T10:46:22Z</time></trkpt><trkpt lat="44.518265051480604" lon="8.838148326016274"><ele>551.0</ele><time>2026-04-25T10:46:23Z</time></trkpt><trkpt lat="44.518273482266586" lon="8.838259633535142"><ele>551.0</ele><time>2026-04-25T10:46:24Z</time></trkpt><trkpt lat="44.518322074886655" lon="8.838375360818551"><ele>551.0</ele><time>2026-04-25T10:46:25Z</time></trkpt><trkpt lat="44.518387765155836" lon="8.83848498325401"><ele>551.0</ele><time>2026-04-25T10:46:26Z</time></trkpt><trkpt lat="44.5184535025192" lon="8.83860971528734"><ele>547.25</ele><time>2026-04-25T10:46:27Z</time></trkpt><trkpt lat="44.51848547935359" lon="8.838753323802667"><ele>543.5</ele><time>2026-04-25T10:46:27.999Z</time></trkpt><trkpt lat="44.51852459581884" lon="8.838900898188044"><ele>539.75</ele><time>2026-04-25T10:46:28.999Z</time></trkpt><trkpt lat="44.518542061388786" lon="8.839078562154844"><ele>536.0</ele><time>2026-04-25T10:46:29.999Z</time></trkpt><trkpt lat="44.51856840321856" lon="8.839256597039261"><ele>531.5</ele><time>2026-04-25T10:46:30.999Z</time></trkpt><trkpt lat="44.51860046035756" lon="8.839429527263844"><ele>527.0</ele><time>2026-04-25T10:46:31.999Z</time></trkpt><trkpt lat="44.51863499397514" lon="8.839598901020855"><ele>522.5</ele><time>2026-04-25T10:46:32.999Z</time></trkpt><trkpt lat="44.51867637937815" lon="8.839768732253225"><ele>518.0</ele><time>2026-04-25T10:46:33.999Z</time></trkpt><trkpt lat="44.51873602476443" lon="8.839933163295617"><ele>521.0</ele><time>2026-04-25T10:46:34.999Z</time></trkpt><trkpt lat="44.51879883175152" lon="8.840089579361932"><ele>524.0</ele><time>2026-04-25T10:46:35.999Z</time></trkpt><trkpt lat="44.51886586096613" lon="8.840245296895295"><ele>527.0</ele><time>2026-04-25T10:46:36.999Z</time></trkpt><trkpt lat="44.51893026294081" lon="8.840398971684838"><ele>530.0</ele><time>2026-04-25T10:46:37.999Z</time></trkpt><trkpt lat="44.51898677259259" lon="8.840538064799288"><ele>530.0</ele><time>2026-04-25T10:46:38.999Z</time></trkpt><trkpt lat="44.51904247466892" lon="8.840649025242381"><ele>530.0</ele><time>2026-04-25T10:46:39.999Z</time></trkpt><trkpt lat="44.51911779810619" lon="8.840738491335312"><ele>530.0</ele><time>2026-04-25T10:46:40.999Z</time></trkpt><trkpt lat="44.51921028895854" lon="8.84079079752943"><ele>530.0</ele><time>2026-04-25T10:46:41.999Z</time></trkpt><trkpt lat="44.519310270208955" lon="8.840797859995673"><ele>530.0</ele><time>2026-04-25T10:46:42.999Z</time></trkpt><trkpt lat="44.51940494050451" lon="8.840798261003203"><ele>530.0</ele><time>2026-04-25T10:46:43.999Z</time></trkpt><trkpt lat="44.51949542596014" lon="8.840821570212162"><ele>530.0</ele><time>2026-04-25T10:46:44.999Z</time></trkpt><trkpt lat="44.51956496974439" lon="8.840891582057573"><ele>530.0</ele><time>2026-04-25T10:46:45.999Z</time></trkpt><trkpt lat="44.519609878676064" lon="8.840992444759486"><ele>530.0</ele><time>2026-04-25T10:46:46.999Z</time></trkpt><trkpt lat="44.51961674393524" lon="8.841132231373734"><ele>530.0</ele><time>2026-04-25T10:46:47.999Z</time></trkpt><trkpt lat="44.519587171272896" lon="8.841263749379868"><ele>523.25</ele><time>2026-04-25T10:46:48.999Z</time></trkpt><trkpt lat="44.51952490806446" lon="8.841385444636337"><ele>516.5</ele><time>2026-04-25T10:46:49.999Z</time></trkpt><trkpt lat="44.519475009011806" lon="8.84152530502642"><ele>509.75</ele><time>2026-04-25T10:46:50.999Z</time></trkpt><trkpt lat="44.51943050437118" lon="8.841667320380784"><ele>503.0</ele><time>2026-04-25T10:46:51.999Z</time></trkpt><trkpt lat="44.51944236653454" lon="8.841841940394684"><ele>500.0</ele><time>2026-04-25T10:46:52.999Z</time></trkpt><trkpt lat="44.519466644573114" lon="8.84202324838836"><ele>497.0</ele><time>2026-04-25T10:46:53.999Z</time></trkpt><trkpt lat="44.51950394581992" lon="8.842212994734593"><ele>494.0</ele><time>2026-04-25T10:46:54.999Z</time></trkpt><trkpt lat="44.51954070916698" lon="8.842409216708356"><ele>491.0</ele><time>2026-04-25T10:46:55.999Z</time></trkpt><trkpt lat="44.519588009770324" lon="8.842606605948248"><ele>495.0</ele><time>2026-04-25T10:46:56.999Z</time></trkpt><trkpt lat="44.51965189052889" lon="8.842795958880766"><ele>499.0</ele><time>2026-04-25T10:46:57.999Z</time></trkpt><trkpt lat="44.519727865101984" lon="8.842975283773459"><ele>503.0</ele><time>2026-04-25T10:46:58.999Z</time></trkpt><trkpt lat="44.5198048053227" lon="8.843142054270894"><ele>507.0</ele><time>2026-04-25T10:46:59.999Z</time></trkpt><trkpt lat="44.519874240029495" lon="8.84327991572291"><ele>507.0</ele><time>2026-04-25T10:47:00.999Z</time></trkpt><trkpt lat="44.51994829336081" lon="8.84340599562158"><ele>507.0</ele><time>2026-04-25T10:47:01.999Z</time></trkpt><trkpt lat="44.520045194932955" lon="8.84351945805168"><ele>507.0</ele><time>2026-04-25T10:47:02.999Z</time></trkpt><trkpt lat="44.5201736419634" lon="8.843615314013471"><ele>507.0</ele><time>2026-04-25T10:47:03.999Z</time></trkpt><trkpt lat="44.520307928449455" lon="8.843704667638796"><ele>505.33333333333337</ele><time>2026-04-25T10:47:04.999Z</time></trkpt><trkpt lat="44.52044086519889" lon="8.843793648444745"><ele>503.6666666666667</ele><time>2026-04-25T10:47:05.999Z</time></trkpt><trkpt lat="44.52056236716188" lon="8.843907077416162"><ele>502.0</ele><time>2026-04-25T10:47:06.999Z</time></trkpt><trkpt lat="44.520655732509546" lon="8.844095223885356"><ele>494.6666666666667</ele><time>2026-04-25T10:47:07.999Z</time></trkpt><trkpt lat="44.52076018046402" lon="8.844327867697373"><ele>487.33333333333337</ele><time>2026-04-25T10:47:08.999Z</time></trkpt><trkpt lat="44.52086919830024" lon="8.84456455706842"><ele>480.0</ele><time>2026-04-25T10:47:09.999Z</time></trkpt><trkpt lat="44.52098115847356" lon="8.844782432913178"><ele>480.0</ele><time>2026-04-25T10:47:10.999Z</time></trkpt><trkpt lat="44.52107338956988" lon="8.84498515481761"><ele>480.0</ele><time>2026-04-25T10:47:11.999Z</time></trkpt><trkpt lat="44.52115365740933" lon="8.84516739894382"><ele>480.0</ele><time>2026-04-25T10:47:12.999Z</time></trkpt><trkpt lat="44.52122307748824" lon="8.845331712622297"><ele>480.75</ele><time>2026-04-25T10:47:13.999Z</time></trkpt><trkpt lat="44.521267687822835" lon="8.845498872380576"><ele>481.5</ele><time>2026-04-25T10:47:14.999Z</time></trkpt><trkpt lat="44.5212852972074" lon="8.845683662551252"><ele>482.25</ele><time>2026-04-25T10:47:15.999Z</time></trkpt><trkpt lat="44.521256390168695" lon="8.845862552665995"><ele>483.0</ele><time>2026-04-25T10:47:16.999Z</time></trkpt><trkpt lat="44.521187799899906" lon="8.846022070341796"><ele>478.59999999999997</ele><time>2026-04-25T10:47:17.999Z</time></trkpt><trkpt lat="44.52110646795763" lon="8.846139660467646"><ele>474.19999999999993</ele><time>2026-04-25T10:47:18.999Z</time></trkpt><trkpt lat="44.52103541153486" lon="8.846224036320013"><ele>469.8</ele><time>2026-04-25T10:47:20Z</time></trkpt><trkpt lat="44.5209745346823" lon="8.846269072383574"><ele>465.4</ele><time>2026-04-25T10:47:21Z</time></trkpt><trkpt lat="44.52089080612512" lon="8.846373341621522"><ele>461.0</ele><time>2026-04-25T10:47:23Z</time></trkpt><trkpt lat="44.52084744969171" lon="8.846468067381897"><ele>461.0</ele><time>2026-04-25T10:47:24Z</time></trkpt><trkpt lat="44.520938737639035" lon="8.846643292558518"><ele>461.0</ele><time>2026-04-25T10:47:25Z</time></trkpt><trkpt lat="44.52094008631073" lon="8.846765492336049"><ele>461.0</ele><time>2026-04-25T10:47:26Z</time></trkpt><trkpt lat="44.52094764832433" lon="8.846903334513492"><ele>461.0</ele><time>2026-04-25T10:47:27Z</time></trkpt><trkpt lat="44.52095743724681" lon="8.847030588494539"><ele>461.0</ele><time>2026-04-25T10:47:28Z</time></trkpt><trkpt lat="44.520933452934855" lon="8.847146667564221"><ele>461.8333333333333</ele><time>2026-04-25T10:47:29Z</time></trkpt><trkpt lat="44.52090602655699" lon="8.847251347443283"><ele>462.66666666666663</ele><time>2026-04-25T10:47:30Z</time></trkpt><trkpt lat="44.520879730056826" lon="8.847358618564916"><ele>463.5</ele><time>2026-04-25T10:47:31Z</time></trkpt><trkpt lat="44.5208513664839" lon="8.84748534592804"><ele>464.33333333333337</ele><time>2026-04-25T10:47:32Z</time></trkpt><trkpt lat="44.52084757283129" lon="8.847622072665404"><ele>465.1666666666667</ele><time>2026-04-25T10:47:33Z</time></trkpt><trkpt lat="44.5208422224526" lon="8.847744958976984"><ele>466.0</ele><time>2026-04-25T10:47:34Z</time></trkpt><trkpt lat="44.52084962123486" lon="8.847877683364583"><ele>466.25</ele><time>2026-04-25T10:47:35Z</time></trkpt><trkpt lat="44.52084604189024" lon="8.848033270473888"><ele>466.5</ele><time>2026-04-25T10:47:36Z</time></trkpt><trkpt lat="44.52084903122303" lon="8.848198793209836"><ele>466.75</ele><time>2026-04-25T10:47:37Z</time></trkpt><trkpt lat="44.520851124213706" lon="8.848363245804297"><ele>467.0</ele><time>2026-04-25T10:47:38Z</time></trkpt><trkpt lat="44.52084966831308" lon="8.848513728800558"><ele>467.0</ele><time>2026-04-25T10:47:39Z</time></trkpt><trkpt lat="44.5208488358064" lon="8.848669153742682"><ele>467.0</ele><time>2026-04-25T10:47:40Z</time></trkpt><trkpt lat="44.520840980865415" lon="8.848827270576916"><ele>467.0</ele><time>2026-04-25T10:47:41Z</time></trkpt><trkpt lat="44.520832874755335" lon="8.84900461042232"><ele>467.0</ele><time>2026-04-25T10:47:42Z</time></trkpt><trkpt lat="44.52079963055363" lon="8.849183293774377"><ele>462.75</ele><time>2026-04-25T10:47:43Z</time></trkpt><trkpt lat="44.520785114399686" lon="8.849383472301602"><ele>458.5</ele><time>2026-04-25T10:47:44Z</time></trkpt><trkpt lat="44.52074875886493" lon="8.849587588366704"><ele>454.25</ele><time>2026-04-25T10:47:45Z</time></trkpt><trkpt lat="44.52069475615089" lon="8.849783299177282"><ele>450.0</ele><time>2026-04-25T10:47:46Z</time></trkpt><trkpt lat="44.52064921478597" lon="8.849976505174402"><ele>445.5</ele><time>2026-04-25T10:47:47Z</time></trkpt><trkpt lat="44.52059831670816" lon="8.85015384557339"><ele>441.0</ele><time>2026-04-25T10:47:48Z</time></trkpt><trkpt lat="44.52054415466023" lon="8.850292991239565"><ele>436.5</ele><time>2026-04-25T10:47:49Z</time></trkpt><trkpt lat="44.52048615733354" lon="8.850407792275732"><ele>432.0</ele><time>2026-04-25T10:47:50Z</time></trkpt><trkpt lat="44.520411368615406" lon="8.850508114790896"><ele>433.25</ele><time>2026-04-25T10:47:51Z</time></trkpt><trkpt lat="44.52029679476333" lon="8.85056759509158"><ele>434.5</ele><time>2026-04-25T10:47:52Z</time></trkpt><trkpt lat="44.520190473689624" lon="8.850680746761412"><ele>435.75</ele><time>2026-04-25T10:47:53Z</time></trkpt><trkpt lat="44.52011567462202" lon="8.850835901969873"><ele>437.0</ele><time>2026-04-25T10:47:54Z</time></trkpt><trkpt lat="44.5200323062825" lon="8.850975327594352"><ele>437.0</ele><time>2026-04-25T10:47:55Z</time></trkpt><trkpt lat="44.519932285768164" lon="8.851072242721054"><ele>437.00000000000006</ele><time>2026-04-25T10:47:56Z</time></trkpt><trkpt lat="44.519880959378156" lon="8.85121164578161"><ele>437.00000000000006</ele><time>2026-04-25T10:47:57Z</time></trkpt><trkpt lat="44.51984479727271" lon="8.85135105296473"><ele>437.0</ele><time>2026-04-25T10:47:58Z</time></trkpt><trkpt lat="44.519824855653866" lon="8.851492585966756"><ele>437.0</ele><time>2026-04-25T10:47:59Z</time></trkpt><trkpt lat="44.519827108174816" lon="8.851660247222991"><ele>435.5</ele><time>2026-04-25T10:48:00Z</time></trkpt><trkpt lat="44.51981468122433" lon="8.851840010155687"><ele>434.0</ele><time>2026-04-25T10:48:01Z</time></trkpt><trkpt lat="44.51980622761075" lon="8.852003593544666"><ele>432.5</ele><time>2026-04-25T10:48:02Z</time></trkpt><trkpt lat="44.5197838990291" lon="8.852152468564336"><ele>431.0</ele><time>2026-04-25T10:48:03Z</time></trkpt><trkpt lat="44.51973404068035" lon="8.852301096125712"><ele>431.0</ele><time>2026-04-25T10:48:04Z</time></trkpt><trkpt lat="44.5196711459891" lon="8.852475788898689"><ele>431.0</ele><time>2026-04-25T10:48:05Z</time></trkpt><trkpt lat="44.51960756265907" lon="8.852654970062801"><ele>431.0</ele><time>2026-04-25T10:48:06Z</time></trkpt><trkpt lat="44.51956812285051" lon="8.852836816880485"><ele>431.0</ele><time>2026-04-25T10:48:07Z</time></trkpt><trkpt lat="44.51953573909587" lon="8.853028667649072"><ele>429.66666666666663</ele><time>2026-04-25T10:48:08Z</time></trkpt><trkpt lat="44.51951547956209" lon="8.85324107803863"><ele>428.33333333333337</ele><time>2026-04-25T10:48:09Z</time></trkpt><trkpt lat="44.519499916355215" lon="8.853458975966035"><ele>427.0</ele><time>2026-04-25T10:48:10Z</time></trkpt><trkpt lat="44.519485124771364" lon="8.853669653753359"><ele>427.0</ele><time>2026-04-25T10:48:11Z</time></trkpt><trkpt lat="44.519462702356954" lon="8.853847670983985"><ele>427.0</ele><time>2026-04-25T10:48:12Z</time></trkpt><trkpt lat="44.51941997665262" lon="8.85400700023745"><ele>427.0</ele><time>2026-04-25T10:48:13Z</time></trkpt><trkpt lat="44.519359262242865" lon="8.85419014940869"><ele>427.0</ele><time>2026-04-25T10:48:14Z</time></trkpt><trkpt lat="44.519296596968886" lon="8.85438754488423"><ele>427.25</ele><time>2026-04-25T10:48:15Z</time></trkpt><trkpt lat="44.519262977156245" lon="8.854572443635753"><ele>427.5</ele><time>2026-04-25T10:48:16Z</time></trkpt><trkpt lat="44.51924089735101" lon="8.854716648007615"><ele>427.75</ele><time>2026-04-25T10:48:17Z</time></trkpt><trkpt lat="44.51925344895528" lon="8.85486196190046"><ele>428.0</ele><time>2026-04-25T10:48:17.999Z</time></trkpt><trkpt lat="44.519286415351836" lon="8.855032571041056"><ele>427.79999999999995</ele><time>2026-04-25T10:48:18.999Z</time></trkpt><trkpt lat="44.519310513424635" lon="8.855215935458741"><ele>427.59999999999997</ele><time>2026-04-25T10:48:19.999Z</time></trkpt><trkpt lat="44.51932052649547" lon="8.855393458598302"><ele>427.40000000000003</ele><time>2026-04-25T10:48:20.999Z</time></trkpt><trkpt lat="44.51932270568772" lon="8.855546012963789"><ele>427.20000000000005</ele><time>2026-04-25T10:48:21.999Z</time></trkpt><trkpt lat="44.51931933510794" lon="8.85565657864066"><ele>427.0</ele><time>2026-04-25T10:48:22.999Z</time></trkpt><trkpt lat="44.51929236688351" lon="8.855748059575479"><ele>427.0</ele><time>2026-04-25T10:48:23.999Z</time></trkpt><trkpt lat="44.519222649233726" lon="8.855816154020657"><ele>427.00000000000006</ele><time>2026-04-25T10:48:24.999Z</time></trkpt><trkpt lat="44.51914973167484" lon="8.85591816993746"><ele>427.00000000000006</ele><time>2026-04-25T10:48:25.999Z</time></trkpt><trkpt lat="44.51905599838022" lon="8.856036102801083"><ele>427.0</ele><time>2026-04-25T10:48:26.999Z</time></trkpt><trkpt lat="44.51896672536639" lon="8.85616758061266"><ele>427.0</ele><time>2026-04-25T10:48:27.999Z</time></trkpt><trkpt lat="44.51886614725265" lon="8.856229841903994"><ele>427.40000000000003</ele><time>2026-04-25T10:48:28.999Z</time></trkpt><trkpt lat="44.51877336162826" lon="8.856277439608867"><ele>427.80000000000007</ele><time>2026-04-25T10:48:29.999Z</time></trkpt><trkpt lat="44.51867679246273" lon="8.85631026668071"><ele>428.2</ele><time>2026-04-25T10:48:30.999Z</time></trkpt><trkpt lat="44.5185761271142" lon="8.856362450799574"><ele>428.6</ele><time>2026-04-25T10:48:31.999Z</time></trkpt><trkpt lat="44.51847825152615" lon="8.85638644379141"><ele>429.0</ele><time>2026-04-25T10:48:32.999Z</time></trkpt><trkpt lat="44.518394162940986" lon="8.856444837497538"><ele>429.0</ele><time>2026-04-25T10:48:33.999Z</time></trkpt><trkpt lat="44.518311783945705" lon="8.856525679372465"><ele>429.0</ele><time>2026-04-25T10:48:34.999Z</time></trkpt><trkpt lat="44.51821305977195" lon="8.856609488096003"><ele>429.0</ele><time>2026-04-25T10:48:35.999Z</time></trkpt><trkpt lat="44.51812921547691" lon="8.856740328524237"><ele>429.0</ele><time>2026-04-25T10:48:36.999Z</time></trkpt><trkpt lat="44.518027706750004" lon="8.85685622021541"><ele>427.5</ele><time>2026-04-25T10:48:37.999Z</time></trkpt><trkpt lat="44.517926460509955" lon="8.856977890964819"><ele>426.0</ele><time>2026-04-25T10:48:38.999Z</time></trkpt><trkpt lat="44.51783790405034" lon="8.857094598089724"><ele>424.5</ele><time>2026-04-25T10:48:39.999Z</time></trkpt><trkpt lat="44.51776205486521" lon="8.857200111915716"><ele>423.0</ele><time>2026-04-25T10:48:40.999Z</time></trkpt><trkpt lat="44.51770425816149" lon="8.8573214877286"><ele>423.0</ele><time>2026-04-25T10:48:41.999Z</time></trkpt><trkpt lat="44.51766544004327" lon="8.857452059224137"><ele>423.0</ele><time>2026-04-25T10:48:42.999Z</time></trkpt><trkpt lat="44.51764471576624" lon="8.85758320406308"><ele>423.0</ele><time>2026-04-25T10:48:43.999Z</time></trkpt><trkpt lat="44.51763014076166" lon="8.857720069935315"><ele>423.0</ele><time>2026-04-25T10:48:44.999Z</time></trkpt><trkpt lat="44.517611307994095" lon="8.857863127472502"><ele>423.0</ele><time>2026-04-25T10:48:45.999Z</time></trkpt><trkpt lat="44.51757659150193" lon="8.858000515573405"><ele>424.4</ele><time>2026-04-25T10:48:46.999Z</time></trkpt><trkpt lat="44.51750227615362" lon="8.858101217247595"><ele>425.79999999999995</ele><time>2026-04-25T10:48:47.999Z</time></trkpt><trkpt lat="44.51741709746154" lon="8.85819384142115"><ele>427.2</ele><time>2026-04-25T10:48:48.999Z</time></trkpt><trkpt lat="44.517320420768925" lon="8.85828875372396"><ele>428.6</ele><time>2026-04-25T10:48:49.999Z</time></trkpt><trkpt lat="44.517227455027175" lon="8.858375105869666"><ele>430.0</ele><time>2026-04-25T10:48:50.999Z</time></trkpt><trkpt lat="44.51713942172522" lon="8.858478436776867"><ele>428.2</ele><time>2026-04-25T10:48:51.999Z</time></trkpt><trkpt lat="44.517080705547336" lon="8.85859655596695"><ele>426.4</ele><time>2026-04-25T10:48:52.999Z</time></trkpt><trkpt lat="44.51698662187529" lon="8.858627717466314"><ele>424.6</ele><time>2026-04-25T10:48:53.999Z</time></trkpt><trkpt lat="44.51688253464977" lon="8.858640872942402"><ele>422.8</ele><time>2026-04-25T10:48:54.999Z</time></trkpt><trkpt lat="44.516786865810225" lon="8.85868864365094"><ele>421.0</ele><time>2026-04-25T10:48:55.999Z</time></trkpt><trkpt lat="44.5167229404648" lon="8.858731521991482"><ele>421.0</ele><time>2026-04-25T10:48:56.999Z</time></trkpt><trkpt lat="44.5166800287586" lon="8.858800436745888"><ele>421.0</ele><time>2026-04-25T10:48:57.999Z</time></trkpt><trkpt lat="44.516616378125" lon="8.858903114946203"><ele>421.0</ele><time>2026-04-25T10:48:58.999Z</time></trkpt><trkpt lat="44.51653418638697" lon="8.859036865069621"><ele>421.0</ele><time>2026-04-25T10:48:59.999Z</time></trkpt><trkpt lat="44.51643275702864" lon="8.859193524275359"><ele>421.0</ele><time>2026-04-25T10:49:00.999Z</time></trkpt><trkpt lat="44.51633636520359" lon="8.85933946159678"><ele>423.5</ele><time>2026-04-25T10:49:01.999Z</time></trkpt><trkpt lat="44.51625653980221" lon="8.859497477243456"><ele>426.0</ele><time>2026-04-25T10:49:02.999Z</time></trkpt><trkpt lat="44.5161662470295" lon="8.859661612036303"><ele>428.5</ele><time>2026-04-25T10:49:03.999Z</time></trkpt><trkpt lat="44.51609076874733" lon="8.859839227199446"><ele>431.0</ele><time>2026-04-25T10:49:04.999Z</time></trkpt><trkpt lat="44.51599715124174" lon="8.8599460248887"><ele>426.66666666666663</ele><time>2026-04-25T10:49:05.999Z</time></trkpt><trkpt lat="44.51591474812709" lon="8.860049841439777"><ele>422.3333333333333</ele><time>2026-04-25T10:49:06.999Z</time></trkpt><trkpt lat="44.515867234296145" lon="8.860154778543812"><ele>418.0</ele><time>2026-04-25T10:49:07.999Z</time></trkpt><trkpt lat="44.515833315032566" lon="8.860238633655003"><ele>413.66666666666663</ele><time>2026-04-25T10:49:08.999Z</time></trkpt><trkpt lat="44.51582824359714" lon="8.860334884989696"><ele>409.3333333333333</ele><time>2026-04-25T10:49:09.999Z</time></trkpt><trkpt lat="44.51586387616208" lon="8.860437411939726"><ele>405.0</ele><time>2026-04-25T10:49:10.999Z</time></trkpt><trkpt lat="44.515931376776685" lon="8.860543342783734"><ele>403.5</ele><time>2026-04-25T10:49:11.999Z</time></trkpt><trkpt lat="44.516012985154795" lon="8.860670268923771"><ele>402.0</ele><time>2026-04-25T10:49:12.999Z</time></trkpt><trkpt lat="44.51607036141024" lon="8.860792706785832"><ele>400.5</ele><time>2026-04-25T10:49:13.999Z</time></trkpt><trkpt lat="44.51610419031829" lon="8.860940369268047"><ele>399.0</ele><time>2026-04-25T10:49:14.999Z</time></trkpt><trkpt lat="44.51616953727953" lon="8.861089017724195"><ele>401.0</ele><time>2026-04-25T10:49:15.999Z</time></trkpt><trkpt lat="44.516242566986136" lon="8.861217354468705"><ele>403.0</ele><time>2026-04-25T10:49:16.999Z</time></trkpt><trkpt lat="44.516343530368815" lon="8.861334078543058"><ele>405.0</ele><time>2026-04-25T10:49:17.999Z</time></trkpt><trkpt lat="44.51641360251325" lon="8.861470909834793"><ele>407.0</ele><time>2026-04-25T10:49:18.999Z</time></trkpt><trkpt lat="44.516481855427394" lon="8.861611741205339"><ele>407.0</ele><time>2026-04-25T10:49:19.999Z</time></trkpt><trkpt lat="44.5165593849784" lon="8.86173947467906"><ele>407.0</ele><time>2026-04-25T10:49:20.999Z</time></trkpt><trkpt lat="44.51664911680606" lon="8.861832502365212"><ele>407.0</ele><time>2026-04-25T10:49:21.999Z</time></trkpt><trkpt lat="44.51674832032073" lon="8.861891190589096"><ele>407.0</ele><time>2026-04-25T10:49:22.999Z</time></trkpt><trkpt lat="44.516831623170006" lon="8.861963971942922"><ele>407.0</ele><time>2026-04-25T10:49:23.999Z</time></trkpt><trkpt lat="44.51685656036415" lon="8.862112350421736"><ele>406.0</ele><time>2026-04-25T10:49:24.999Z</time></trkpt><trkpt lat="44.51689685918527" lon="8.862269455593298"><ele>405.0</ele><time>2026-04-25T10:49:26Z</time></trkpt><trkpt lat="44.516939973292686" lon="8.862431123175119"><ele>404.0</ele><time>2026-04-25T10:49:27Z</time></trkpt><trkpt lat="44.51699444509093" lon="8.862600842965584"><ele>403.0</ele><time>2026-04-25T10:49:28Z</time></trkpt><trkpt lat="44.517075115767526" lon="8.862767461453803"><ele>403.0</ele><time>2026-04-25T10:49:29Z</time></trkpt><trkpt lat="44.51713881136736" lon="8.862944966719247"><ele>403.0</ele><time>2026-04-25T10:49:30Z</time></trkpt><trkpt lat="44.51720586497022" lon="8.863108751652552"><ele>403.0</ele><time>2026-04-25T10:49:31Z</time></trkpt><trkpt lat="44.517265221650206" lon="8.86327319336727"><ele>403.0</ele><time>2026-04-25T10:49:32Z</time></trkpt><trkpt lat="44.51730635125301" lon="8.863446111385702"><ele>399.25</ele><time>2026-04-25T10:49:33Z</time></trkpt><trkpt lat="44.5173519534195" lon="8.863616484550452"><ele>395.5</ele><time>2026-04-25T10:49:34Z</time></trkpt><trkpt lat="44.51738165181789" lon="8.863806050972826"><ele>391.75</ele><time>2026-04-25T10:49:35Z</time></trkpt><trkpt lat="44.517395113979056" lon="8.864007381289804"><ele>388.0</ele><time>2026-04-25T10:49:36Z</time></trkpt><trkpt lat="44.517403709598526" lon="8.864204464243008"><ele>384.75</ele><time>2026-04-25T10:49:37Z</time></trkpt><trkpt lat="44.51743108878745" lon="8.864375237797073"><ele>381.5</ele><time>2026-04-25T10:49:38Z</time></trkpt><trkpt lat="44.517468240637996" lon="8.864525251749486"><ele>378.25</ele><time>2026-04-25T10:49:39Z</time></trkpt><trkpt lat="44.51751997685356" lon="8.86467975184169"><ele>375.0</ele><time>2026-04-25T10:49:40Z</time></trkpt><trkpt lat="44.517564381984485" lon="8.864841612008913"><ele>375.0</ele><time>2026-04-25T10:49:41Z</time></trkpt><trkpt lat="44.51763493486047" lon="8.86497143668839"><ele>375.0</ele><time>2026-04-25T10:49:42Z</time></trkpt><trkpt lat="44.51768638976719" lon="8.865090608489997"><ele>375.0</ele><time>2026-04-25T10:49:43Z</time></trkpt><trkpt lat="44.51774712303807" lon="8.865179273346532"><ele>375.0</ele><time>2026-04-25T10:49:44Z</time></trkpt><trkpt lat="44.51782854738354" lon="8.865242899784542"><ele>375.0</ele><time>2026-04-25T10:49:45Z</time></trkpt><trkpt lat="44.517934778678594" lon="8.865285866570325"><ele>370.75</ele><time>2026-04-25T10:49:46Z</time></trkpt><trkpt lat="44.51805570028811" lon="8.865294889991633"><ele>366.5</ele><time>2026-04-25T10:49:47Z</time></trkpt><trkpt lat="44.51819010501668" lon="8.865284836048206"><ele>362.25</ele><time>2026-04-25T10:49:48Z</time></trkpt><trkpt lat="44.51832251939814" lon="8.865252461378102"><ele>358.0</ele><time>2026-04-25T10:49:49Z</time></trkpt><trkpt lat="44.51846036213689" lon="8.865201648133048"><ele>358.0</ele><time>2026-04-25T10:49:50Z</time></trkpt><trkpt lat="44.51859176546668" lon="8.865127573726248"><ele>358.0</ele><time>2026-04-25T10:49:51Z</time></trkpt><trkpt lat="44.518709511093135" lon="8.865060802123281"><ele>358.0</ele><time>2026-04-25T10:49:52Z</time></trkpt><trkpt lat="44.51882722814201" lon="8.864984039569212"><ele>358.0</ele><time>2026-04-25T10:49:53Z</time></trkpt><trkpt lat="44.518934258975065" lon="8.864868888176881"><ele>359.2</ele><time>2026-04-25T10:49:54Z</time></trkpt><trkpt lat="44.519037251826504" lon="8.864750612457897"><ele>360.4</ele><time>2026-04-25T10:49:55Z</time></trkpt><trkpt lat="44.519127531379716" lon="8.864649878953694"><ele>361.59999999999997</ele><time>2026-04-25T10:49:56Z</time></trkpt><trkpt lat="44.519201963288175" lon="8.864582444943665"><ele>362.79999999999995</ele><time>2026-04-25T10:49:57Z</time></trkpt><trkpt lat="44.51930123685575" lon="8.864527586692093"><ele>364.0</ele><time>2026-04-25T10:49:59Z</time></trkpt><trkpt lat="44.51935187963474" lon="8.864606399774384"><ele>364.0</ele><time>2026-04-25T10:50:02Z</time></trkpt><trkpt lat="44.51932998178218" lon="8.864704563445137"><ele>364.0</ele><time>2026-04-25T10:50:04Z</time></trkpt><trkpt lat="44.51925683172651" lon="8.864772646696547"><ele>364.0</ele><time>2026-04-25T10:50:06Z</time></trkpt><trkpt lat="44.51921033254816" lon="8.86483634001214"><ele>364.0</ele><time>2026-04-25T10:50:08Z</time></trkpt><trkpt lat="44.51913687867374" lon="8.864920817034921"><ele>364.0</ele><time>2026-04-25T10:50:11Z</time></trkpt><trkpt lat="44.51908807753937" lon="8.865023529309022"><ele>364.0</ele><time>2026-04-25T10:50:13Z</time></trkpt><trkpt lat="44.51904258294943" lon="8.865091798600726"><ele>363.0</ele><time>2026-04-25T10:50:14Z</time></trkpt><trkpt lat="44.51897621867605" lon="8.865163940440986"><ele>362.0</ele><time>2026-04-25T10:50:14.999Z</time></trkpt><trkpt lat="44.518909883263134" lon="8.865237537990083"><ele>361.0</ele><time>2026-04-25T10:50:15.999Z</time></trkpt><trkpt lat="44.51883569573091" lon="8.865295591208284"><ele>360.0</ele><time>2026-04-25T10:50:16.999Z</time></trkpt><trkpt lat="44.51875407342638" lon="8.865342530770373"><ele>359.0</ele><time>2026-04-25T10:50:17.999Z</time></trkpt><trkpt lat="44.51868104218748" lon="8.865431160571793"><ele>358.0</ele><time>2026-04-25T10:50:18.999Z</time></trkpt><trkpt lat="44.51863178800226" lon="8.865544377343012"><ele>358.0</ele><time>2026-04-25T10:50:19.999Z</time></trkpt><trkpt lat="44.518538203799714" lon="8.865746997877347"><ele>358.0</ele><time>2026-04-25T10:50:21.999Z</time></trkpt><trkpt lat="44.51847808908674" lon="8.865831243505328"><ele>358.0</ele><time>2026-04-25T10:50:22.999Z</time></trkpt><trkpt lat="44.51840554744677" lon="8.8659045001279"><ele>358.0</ele><time>2026-04-25T10:50:23.999Z</time></trkpt><trkpt lat="44.51832067416794" lon="8.865992853656067"><ele>352.2</ele><time>2026-04-25T10:50:24.999Z</time></trkpt><trkpt lat="44.51820899721117" lon="8.866026423648663"><ele>346.4</ele><time>2026-04-25T10:50:25.999Z</time></trkpt><trkpt lat="44.518105119645874" lon="8.866079598053805"><ele>340.59999999999997</ele><time>2026-04-25T10:50:26.999Z</time></trkpt><trkpt lat="44.51800321053064" lon="8.866134886697711"><ele>334.79999999999995</ele><time>2026-04-25T10:50:27.999Z</time></trkpt><trkpt lat="44.51791805687712" lon="8.866204854752315"><ele>329.0</ele><time>2026-04-25T10:50:28.999Z</time></trkpt><trkpt lat="44.517837570276214" lon="8.866238362985008"><ele>327.79999999999995</ele><time>2026-04-25T10:50:29.999Z</time></trkpt><trkpt lat="44.51775669752462" lon="8.866245784763565"><ele>326.59999999999997</ele><time>2026-04-25T10:50:30.999Z</time></trkpt><trkpt lat="44.517662883662986" lon="8.866212721743825"><ele>325.4</ele><time>2026-04-25T10:50:31.999Z</time></trkpt><trkpt lat="44.51756202201973" lon="8.866152230561418"><ele>324.2</ele><time>2026-04-25T10:50:32.999Z</time></trkpt><trkpt lat="44.51745122593134" lon="8.866083029899869"><ele>323.0</ele><time>2026-04-25T10:50:33.999Z</time></trkpt><trkpt lat="44.517345698500236" lon="8.866024749528972"><ele>323.0</ele><time>2026-04-25T10:50:34.999Z</time></trkpt><trkpt lat="44.51724587981627" lon="8.865965204007262"><ele>323.0</ele><time>2026-04-25T10:50:35.999Z</time></trkpt><trkpt lat="44.517162066956026" lon="8.865906225172697"><ele>323.0</ele><time>2026-04-25T10:50:36.999Z</time></trkpt><trkpt lat="44.517096446959314" lon="8.865850514493685"><ele>323.0</ele><time>2026-04-25T10:50:37.999Z</time></trkpt><trkpt lat="44.51700287072707" lon="8.865794588826464"><ele>323.0</ele><time>2026-04-25T10:50:39.999Z</time></trkpt><trkpt lat="44.516921769096164" lon="8.86584414155058"><ele>323.0</ele><time>2026-04-25T10:50:42.999Z</time></trkpt><trkpt lat="44.516931152573285" lon="8.865933417166458"><ele>323.0</ele><time>2026-04-25T10:50:43.999Z</time></trkpt><trkpt lat="44.51702709332217" lon="8.865965469546126"><ele>323.0</ele><time>2026-04-25T10:50:44.999Z</time></trkpt><trkpt lat="44.51710752200629" lon="8.866015649832049"><ele>323.0</ele><time>2026-04-25T10:50:46.999Z</time></trkpt><trkpt lat="44.517164821373186" lon="8.86605584762218"><ele>323.0</ele><time>2026-04-25T10:50:47.999Z</time></trkpt><trkpt lat="44.51722596367787" lon="8.866121304272147"><ele>323.0</ele><time>2026-04-25T10:50:48.999Z</time></trkpt><trkpt lat="44.5172848091761" lon="8.866198836004566"><ele>323.0</ele><time>2026-04-25T10:50:49.999Z</time></trkpt><trkpt lat="44.51735014871764" lon="8.866286636156143"><ele>323.0</ele><time>2026-04-25T10:50:50.999Z</time></trkpt><trkpt lat="44.5174282769835" lon="8.866379635197758"><ele>323.0</ele><time>2026-04-25T10:50:51.999Z</time></trkpt><trkpt lat="44.517515138283215" lon="8.866450392092155"><ele>323.0</ele><time>2026-04-25T10:50:52.999Z</time></trkpt><trkpt lat="44.51757017578523" lon="8.866557501827659"><ele>323.0</ele><time>2026-04-25T10:50:53.999Z</time></trkpt><trkpt lat="44.517634286920824" lon="8.866632388762822"><ele>323.0</ele><time>2026-04-25T10:50:54.999Z</time></trkpt><trkpt lat="44.517692617475504" lon="8.866701292960657"><ele>323.0</ele><time>2026-04-25T10:50:55.999Z</time></trkpt><trkpt lat="44.51775622188991" lon="8.866728854623988"><ele>323.0</ele><time>2026-04-25T10:50:56.999Z</time></trkpt><trkpt lat="44.517831967147224" lon="8.866724728887958"><ele>323.0</ele><time>2026-04-25T10:50:57.999Z</time></trkpt><trkpt lat="44.517921297131615" lon="8.866700859103336"><ele>323.0</ele><time>2026-04-25T10:50:58.999Z</time></trkpt><trkpt lat="44.51800427648601" lon="8.866672716136215"><ele>323.0</ele><time>2026-04-25T10:50:59.999Z</time></trkpt><trkpt lat="44.51806869450066" lon="8.866629878378301"><ele>324.0</ele><time>2026-04-25T10:51:00.999Z</time></trkpt><trkpt lat="44.518121665415926" lon="8.866558710827729"><ele>325.0</ele><time>2026-04-25T10:51:01.999Z</time></trkpt><trkpt lat="44.51818191190418" lon="8.866490296490218"><ele>326.0</ele><time>2026-04-25T10:51:02.999Z</time></trkpt><trkpt lat="44.51826682339016" lon="8.866463577704916"><ele>327.0</ele><time>2026-04-25T10:51:03.999Z</time></trkpt><trkpt lat="44.51837208523536" lon="8.866445972805662"><ele>328.0</ele><time>2026-04-25T10:51:04.999Z</time></trkpt><trkpt lat="44.51846717447508" lon="8.866399321397136"><ele>329.0</ele><time>2026-04-25T10:51:05.999Z</time></trkpt><trkpt lat="44.51855154818308" lon="8.866331760690812"><ele>329.0</ele><time>2026-04-25T10:51:06.999Z</time></trkpt><trkpt lat="44.51862752936013" lon="8.866255824787835"><ele>329.0</ele><time>2026-04-25T10:51:07.999Z</time></trkpt><trkpt lat="44.51869612945283" lon="8.866218272080296"><ele>329.0</ele><time>2026-04-25T10:51:08.999Z</time></trkpt><trkpt lat="44.51875852472405" lon="8.866240307146727"><ele>329.0</ele><time>2026-04-25T10:51:09.999Z</time></trkpt><trkpt lat="44.51880058810176" lon="8.866312022813151"><ele>329.0</ele><time>2026-04-25T10:51:10.999Z</time></trkpt><trkpt lat="44.51882973253595" lon="8.866391767076"><ele>329.0</ele><time>2026-04-25T10:51:11.999Z</time></trkpt><trkpt lat="44.518884113905926" lon="8.866449512608028"><ele>329.0</ele><time>2026-04-25T10:51:12.999Z</time></trkpt><trkpt lat="44.518968688761156" lon="8.866488890992635"><ele>327.33333333333337</ele><time>2026-04-25T10:51:13.999Z</time></trkpt><trkpt lat="44.519053134174364" lon="8.866544811132604"><ele>325.6666666666667</ele><time>2026-04-25T10:51:14.999Z</time></trkpt><trkpt lat="44.51912959019187" lon="8.866611540639951"><ele>324.0</ele><time>2026-04-25T10:51:15.999Z</time></trkpt><trkpt lat="44.519197423049526" lon="8.86664466594837"><ele>322.3333333333333</ele><time>2026-04-25T10:51:16.999Z</time></trkpt><trkpt lat="44.51926680325582" lon="8.866625953185967"><ele>320.66666666666663</ele><time>2026-04-25T10:51:17.999Z</time></trkpt><trkpt lat="44.51932168783838" lon="8.866571431982853"><ele>319.0</ele><time>2026-04-25T10:51:18.999Z</time></trkpt><trkpt lat="44.519370411470284" lon="8.866481899591726"><ele>319.0</ele><time>2026-04-25T10:51:19.999Z</time></trkpt><trkpt lat="44.51942027429002" lon="8.866374162947102"><ele>319.0</ele><time>2026-04-25T10:51:20.999Z</time></trkpt><trkpt lat="44.51948175597684" lon="8.866280006470712"><ele>319.0</ele><time>2026-04-25T10:51:21.999Z</time></trkpt><trkpt lat="44.51955798510456" lon="8.866208420610947"><ele>319.0</ele><time>2026-04-25T10:51:22.999Z</time></trkpt><trkpt lat="44.51965424547368" lon="8.866150061579875"><ele>319.0</ele><time>2026-04-25T10:51:23.999Z</time></trkpt><trkpt lat="44.51975130044726" lon="8.866082044202177"><ele>320.75</ele><time>2026-04-25T10:51:24.999Z</time></trkpt><trkpt lat="44.519850642315824" lon="8.865975408812092"><ele>322.5</ele><time>2026-04-25T10:51:25.999Z</time></trkpt><trkpt lat="44.519946708536416" lon="8.865852093104493"><ele>324.25</ele><time>2026-04-25T10:51:26.999Z</time></trkpt><trkpt lat="44.52003255787353" lon="8.865732961709043"><ele>326.0</ele><time>2026-04-25T10:51:27.999Z</time></trkpt><trkpt lat="44.52010243230664" lon="8.865625025524206"><ele>326.0</ele><time>2026-04-25T10:51:28.999Z</time></trkpt><trkpt lat="44.52015775603616" lon="8.865534221488256"><ele>326.0</ele><time>2026-04-25T10:51:29.999Z</time></trkpt><trkpt lat="44.520255402014286" lon="8.86546262729517"><ele>326.0</ele><time>2026-04-25T10:51:31.999Z</time></trkpt><trkpt lat="44.52035847410325" lon="8.865569942173437"><ele>326.0</ele><time>2026-04-25T10:51:33.999Z</time></trkpt><trkpt lat="44.52037820812758" lon="8.865680147835752"><ele>326.0</ele><time>2026-04-25T10:51:34.999Z</time></trkpt><trkpt lat="44.52037226550838" lon="8.865820518037076"><ele>324.8</ele><time>2026-04-25T10:51:35.999Z</time></trkpt><trkpt lat="44.520375837671025" lon="8.865975889674393"><ele>323.6</ele><time>2026-04-25T10:51:36.999Z</time></trkpt><trkpt lat="44.52038043963797" lon="8.866133192347604"><ele>322.4</ele><time>2026-04-25T10:51:37.999Z</time></trkpt><trkpt lat="44.520395526814006" lon="8.866277825704783"><ele>321.2</ele><time>2026-04-25T10:51:38.999Z</time></trkpt><trkpt lat="44.52042552764451" lon="8.866422743039815"><ele>320.0</ele><time>2026-04-25T10:51:39.999Z</time></trkpt><trkpt lat="44.52045367406476" lon="8.866559464026924"><ele>320.0</ele><time>2026-04-25T10:51:40.999Z</time></trkpt><trkpt lat="44.52046674225972" lon="8.866681957424417"><ele>320.0</ele><time>2026-04-25T10:51:41.999Z</time></trkpt><trkpt lat="44.52048964145342" lon="8.866789691135704"><ele>320.0</ele><time>2026-04-25T10:51:42.999Z</time></trkpt><trkpt lat="44.52053006458256" lon="8.866882988692122"><ele>320.0</ele><time>2026-04-25T10:51:43.999Z</time></trkpt><trkpt lat="44.52058791212441" lon="8.866969735619445"><ele>320.0</ele><time>2026-04-25T10:51:44.999Z</time></trkpt><trkpt lat="44.52065494414713" lon="8.867054143844735"><ele>320.0</ele><time>2026-04-25T10:51:45.999Z</time></trkpt><trkpt lat="44.52071898130545" lon="8.867146793328917"><ele>316.4</ele><time>2026-04-25T10:51:46.999Z</time></trkpt><trkpt lat="44.52078521975701" lon="8.8672401805766"><ele>312.8</ele><time>2026-04-25T10:51:47.999Z</time></trkpt><trkpt lat="44.52083956211717" lon="8.867349455884336"><ele>309.2</ele><time>2026-04-25T10:51:48.999Z</time></trkpt><trkpt lat="44.520912644765986" lon="8.867433028157645"><ele>305.6</ele><time>2026-04-25T10:51:49.999Z</time></trkpt><trkpt lat="44.52096863527596" lon="8.867527424284896"><ele>302.0</ele><time>2026-04-25T10:51:50.999Z</time></trkpt><trkpt lat="44.521030091884015" lon="8.867605415990207"><ele>301.6666666666667</ele><time>2026-04-25T10:51:51.999Z</time></trkpt><trkpt lat="44.52108894521215" lon="8.86768341178002"><ele>301.33333333333337</ele><time>2026-04-25T10:51:52.999Z</time></trkpt><trkpt lat="44.52114542095038" lon="8.867757323375338"><ele>301.0</ele><time>2026-04-25T10:51:53.999Z</time></trkpt><trkpt lat="44.52120741513468" lon="8.867827092190158"><ele>300.6666666666667</ele><time>2026-04-25T10:51:54.999Z</time></trkpt><trkpt lat="44.52128339317429" lon="8.867874074921957"><ele>300.3333333333333</ele><time>2026-04-25T10:51:55.999Z</time></trkpt><trkpt lat="44.521362179034675" lon="8.867912239866657"><ele>300.0</ele><time>2026-04-25T10:51:56.999Z</time></trkpt><trkpt lat="44.5214442532289" lon="8.867930187894235"><ele>300.0</ele><time>2026-04-25T10:51:57.999Z</time></trkpt><trkpt lat="44.521526669511566" lon="8.86792449202293"><ele>300.0</ele><time>2026-04-25T10:51:58.999Z</time></trkpt><trkpt lat="44.52159213703597" lon="8.867942449326765"><ele>300.0</ele><time>2026-04-25T10:51:59.999Z</time></trkpt><trkpt lat="44.52164431339283" lon="8.867997564485348"><ele>300.0</ele><time>2026-04-25T10:52:01.999Z</time></trkpt><trkpt lat="44.5215468582333" lon="8.868066414157479"><ele>300.0</ele><time>2026-04-25T10:52:03.999Z</time></trkpt><trkpt lat="44.52147503870975" lon="8.868096232416635"><ele>300.0</ele><time>2026-04-25T10:52:04.999Z</time></trkpt><trkpt lat="44.52138668901927" lon="8.868113709749807"><ele>300.0</ele><time>2026-04-25T10:52:05.999Z</time></trkpt><trkpt lat="44.521287991763984" lon="8.868172456891546"><ele>300.0</ele><time>2026-04-25T10:52:06.999Z</time></trkpt><trkpt lat="44.521197462968594" lon="8.868252877766189"><ele>300.0</ele><time>2026-04-25T10:52:07.999Z</time></trkpt><trkpt lat="44.52112444771657" lon="8.868347379527087"><ele>300.0</ele><time>2026-04-25T10:52:08.999Z</time></trkpt><trkpt lat="44.52107489411513" lon="8.868471050277762"><ele>300.0</ele><time>2026-04-25T10:52:09.999Z</time></trkpt><trkpt lat="44.521020728321716" lon="8.86859388967494"><ele>296.0</ele><time>2026-04-25T10:52:10.999Z</time></trkpt><trkpt lat="44.520969467646104" lon="8.868718969900414"><ele>292.0</ele><time>2026-04-25T10:52:11.999Z</time></trkpt><trkpt lat="44.52088574252861" lon="8.868776665381748"><ele>288.0</ele><time>2026-04-25T10:52:12.999Z</time></trkpt><trkpt lat="44.52079564758093" lon="8.868772438252378"><ele>284.0</ele><time>2026-04-25T10:52:13.999Z</time></trkpt><trkpt lat="44.520716664016895" lon="8.868713896755946"><ele>280.0</ele><time>2026-04-25T10:52:14.999Z</time></trkpt><trkpt lat="44.520670572183924" lon="8.868605607874233"><ele>280.0</ele><time>2026-04-25T10:52:15.999Z</time></trkpt><trkpt lat="44.52066565762945" lon="8.868465961791161"><ele>280.0</ele><time>2026-04-25T10:52:16.999Z</time></trkpt><trkpt lat="44.52066721151512" lon="8.868307667007679"><ele>280.0</ele><time>2026-04-25T10:52:17.999Z</time></trkpt><trkpt lat="44.520662076440516" lon="8.868150713758098"><ele>280.0</ele><time>2026-04-25T10:52:18.999Z</time></trkpt><trkpt lat="44.52065716905456" lon="8.868007212318783"><ele>280.0</ele><time>2026-04-25T10:52:19.999Z</time></trkpt><trkpt lat="44.52061608960236" lon="8.867873998030056"><ele>281.0</ele><time>2026-04-25T10:52:20.999Z</time></trkpt><trkpt lat="44.52055378444675" lon="8.867732071560091"><ele>282.0</ele><time>2026-04-25T10:52:21.999Z</time></trkpt><trkpt lat="44.520446127461604" lon="8.867621143757336"><ele>283.0</ele><time>2026-04-25T10:52:22.999Z</time></trkpt><trkpt lat="44.52035273980977" lon="8.867515629110752"><ele>284.0</ele><time>2026-04-25T10:52:23.999Z</time></trkpt><trkpt lat="44.52028309678653" lon="8.867387610400339"><ele>284.0</ele><time>2026-04-25T10:52:24.999Z</time></trkpt><trkpt lat="44.52025977897692" lon="8.867259461456852"><ele>284.0</ele><time>2026-04-25T10:52:25.999Z</time></trkpt><trkpt lat="44.52021493239493" lon="8.867127291179363"><ele>284.0</ele><time>2026-04-25T10:52:26.999Z</time></trkpt><trkpt lat="44.52016117738914" lon="8.867026292338906"><ele>284.0</ele><time>2026-04-25T10:52:27.999Z</time></trkpt><trkpt lat="44.520086181048505" lon="8.866960229202283"><ele>284.0</ele><time>2026-04-25T10:52:28.999Z</time></trkpt><trkpt lat="44.51999889095206" lon="8.866956278499211"><ele>284.0</ele><time>2026-04-25T10:52:29.999Z</time></trkpt><trkpt lat="44.519921493684635" lon="8.867030984726913"><ele>284.0</ele><time>2026-04-25T10:52:30.999Z</time></trkpt><trkpt lat="44.51987143223685" lon="8.867128942120917"><ele>284.0</ele><time>2026-04-25T10:52:31.999Z</time></trkpt><trkpt lat="44.51983280544764" lon="8.86726535972889"><ele>284.0</ele><time>2026-04-25T10:52:32.999Z</time></trkpt><trkpt lat="44.519786379726554" lon="8.867419063797115"><ele>284.0</ele><time>2026-04-25T10:52:33.999Z</time></trkpt><trkpt lat="44.51973209321607" lon="8.867569441652947"><ele>280.25</ele><time>2026-04-25T10:52:34.999Z</time></trkpt><trkpt lat="44.51973125895025" lon="8.867734346245763"><ele>276.5</ele><time>2026-04-25T10:52:35.999Z</time></trkpt><trkpt lat="44.51977558017606" lon="8.867899781755689"><ele>272.75</ele><time>2026-04-25T10:52:36.999Z</time></trkpt><trkpt lat="44.51980010600866" lon="8.868066375242414"><ele>269.0</ele><time>2026-04-25T10:52:37.999Z</time></trkpt><trkpt lat="44.519843813970255" lon="8.868205581045315"><ele>269.0</ele><time>2026-04-25T10:52:38.999Z</time></trkpt><trkpt lat="44.51984816462099" lon="8.86832712872366"><ele>269.0</ele><time>2026-04-25T10:52:39.999Z</time></trkpt><trkpt lat="44.519790107554684" lon="8.868439969452615"><ele>269.0</ele><time>2026-04-25T10:52:40.999Z</time></trkpt><trkpt lat="44.519732925043286" lon="8.86858516436655"><ele>269.0</ele><time>2026-04-25T10:52:41.999Z</time></trkpt><trkpt lat="44.51967977478803" lon="8.868724664083514"><ele>269.0</ele><time>2026-04-25T10:52:42.999Z</time></trkpt><trkpt lat="44.519639051546555" lon="8.868814417487005"><ele>266.59999999999997</ele><time>2026-04-25T10:52:43.999Z</time></trkpt><trkpt lat="44.519565660730315" lon="8.86885325432454"><ele>264.2</ele><time>2026-04-25T10:52:44.999Z</time></trkpt><trkpt lat="44.519470890171704" lon="8.868850582178847"><ele>261.79999999999995</ele><time>2026-04-25T10:52:45.999Z</time></trkpt><trkpt lat="44.51936794868727" lon="8.868874468857639"><ele>259.4</ele><time>2026-04-25T10:52:46.999Z</time></trkpt><trkpt lat="44.51929207530956" lon="8.868960438994261"><ele>257.0</ele><time>2026-04-25T10:52:47.999Z</time></trkpt><trkpt lat="44.519210363175866" lon="8.869046118395767"><ele>257.0</ele><time>2026-04-25T10:52:48.999Z</time></trkpt><trkpt lat="44.51912975683243" lon="8.869094228448706"><ele>257.0</ele><time>2026-04-25T10:52:49.999Z</time></trkpt><trkpt lat="44.5190313224351" lon="8.869105171092603"><ele>257.0</ele><time>2026-04-25T10:52:50.999Z</time></trkpt><trkpt lat="44.51894672706467" lon="8.869093570254066"><ele>257.0</ele><time>2026-04-25T10:52:51.999Z</time></trkpt><trkpt lat="44.518861935336055" lon="8.869068442025094"><ele>257.0</ele><time>2026-04-25T10:52:53.999Z</time></trkpt><trkpt lat="44.51880354879822" lon="8.86902525518936"><ele>257.0</ele><time>2026-04-25T10:52:54.999Z</time></trkpt><trkpt lat="44.518688095836914" lon="8.869005007715169"><ele>256.5</ele><time>2026-04-25T10:52:56.999Z</time></trkpt><trkpt lat="44.51863180140733" lon="8.869046327685625"><ele>256.0</ele><time>2026-04-25T10:52:57.999Z</time></trkpt><trkpt lat="44.51860594924649" lon="8.86916025010483"><ele>255.5</ele><time>2026-04-25T10:52:58.999Z</time></trkpt><trkpt lat="44.51860655826818" lon="8.869276103334485"><ele>255.0</ele><time>2026-04-25T10:52:59.999Z</time></trkpt><trkpt lat="44.518615873829994" lon="8.869397631959355"><ele>254.50000000000003</ele><time>2026-04-25T10:53:00.999Z</time></trkpt><trkpt lat="44.51862718457076" lon="8.869516829833552"><ele>254.0</ele><time>2026-04-25T10:53:01.999Z</time></trkpt><trkpt lat="44.5186393002659" lon="8.86962937164762"><ele>254.00000000000003</ele><time>2026-04-25T10:53:02.999Z</time></trkpt><trkpt lat="44.51864617804465" lon="8.869729560792294"><ele>254.0</ele><time>2026-04-25T10:53:03.999Z</time></trkpt><trkpt lat="44.5186465244244" lon="8.869824020835324"><ele>254.0</ele><time>2026-04-25T10:53:04.999Z</time></trkpt><trkpt lat="44.51860449548744" lon="8.869905202167514"><ele>254.0</ele><time>2026-04-25T10:53:05.999Z</time></trkpt><trkpt lat="44.51852442048422" lon="8.86995908653194"><ele>254.00000000000003</ele><time>2026-04-25T10:53:06.999Z</time></trkpt><trkpt lat="44.51845791257108" lon="8.870057351597461"><ele>254.0</ele><time>2026-04-25T10:53:07.999Z</time></trkpt><trkpt lat="44.51837763056999" lon="8.870113215727999"><ele>252.28571428571428</ele><time>2026-04-25T10:53:08.999Z</time></trkpt><trkpt lat="44.51831289183717" lon="8.87017812995129"><ele>250.57142857142856</ele><time>2026-04-25T10:53:09.999Z</time></trkpt><trkpt lat="44.51825057417462" lon="8.870216960500203"><ele>248.85714285714283</ele><time>2026-04-25T10:53:10.999Z</time></trkpt><trkpt lat="44.518182317050794" lon="8.870237244853092"><ele>247.14285714285714</ele><time>2026-04-25T10:53:11.999Z</time></trkpt><trkpt lat="44.51811336872342" lon="8.870271580698873"><ele>245.4285714285714</ele><time>2026-04-25T10:53:12.999Z</time></trkpt><trkpt lat="44.51804245594227" lon="8.870290733312736"><ele>243.7142857142857</ele><time>2026-04-25T10:53:13.999Z</time></trkpt><trkpt lat="44.51796877926381" lon="8.870325603634084"><ele>242.0</ele><time>2026-04-25T10:53:14.999Z</time></trkpt><trkpt lat="44.51788941658342" lon="8.870365119706316"><ele>242.00000000000003</ele><time>2026-04-25T10:53:15.999Z</time></trkpt><trkpt lat="44.51780396112253" lon="8.870378807705357"><ele>242.0</ele><time>2026-04-25T10:53:16.999Z</time></trkpt><trkpt lat="44.51772862363909" lon="8.87042617119291"><ele>242.0</ele><time>2026-04-25T10:53:17.999Z</time></trkpt><trkpt lat="44.517646743564086" lon="8.870444918430962"><ele>242.0</ele><time>2026-04-25T10:53:18.999Z</time></trkpt><trkpt lat="44.51756667545555" lon="8.870462946214156"><ele>242.00000000000003</ele><time>2026-04-25T10:53:19.999Z</time></trkpt><trkpt lat="44.51749265228364" lon="8.87048898505014"><ele>242.0</ele><time>2026-04-25T10:53:20.999Z</time></trkpt><trkpt lat="44.51742815284561" lon="8.870532078776787"><ele>242.00000000000003</ele><time>2026-04-25T10:53:21.999Z</time></trkpt><trkpt lat="44.517375283663796" lon="8.870587225046304"><ele>242.0</ele><time>2026-04-25T10:53:22.999Z</time></trkpt><trkpt lat="44.51732757352695" lon="8.870646421338147"><ele>242.0</ele><time>2026-04-25T10:53:23.999Z</time></trkpt><trkpt lat="44.517311887890955" lon="8.870740197994577"><ele>242.0</ele><time>2026-04-25T10:53:24.999Z</time></trkpt><trkpt lat="44.517275472118165" lon="8.87087560222012"><ele>242.00000000000003</ele><time>2026-04-25T10:53:26.999Z</time></trkpt><trkpt lat="44.51719168636778" lon="8.871009588031118"><ele>242.0</ele><time>2026-04-25T10:53:28.999Z</time></trkpt><trkpt lat="44.51712762546783" lon="8.871102949798956"><ele>240.39999999999998</ele><time>2026-04-25T10:53:29.999Z</time></trkpt><trkpt lat="44.51705138959482" lon="8.871187260288837"><ele>238.79999999999998</ele><time>2026-04-25T10:53:30.999Z</time></trkpt><trkpt lat="44.51696120060032" lon="8.871285613576848"><ele>237.2</ele><time>2026-04-25T10:53:31.999Z</time></trkpt><trkpt lat="44.516883902778176" lon="8.8714076198578"><ele>235.6</ele><time>2026-04-25T10:53:32.999Z</time></trkpt><trkpt lat="44.516822161063594" lon="8.871542670706727"><ele>234.0</ele><time>2026-04-25T10:53:33.999Z</time></trkpt><trkpt lat="44.51675106042462" lon="8.871664755973793"><ele>234.0</ele><time>2026-04-25T10:53:34.999Z</time></trkpt><trkpt lat="44.5166922420809" lon="8.871766913209267"><ele>234.0</ele><time>2026-04-25T10:53:35.999Z</time></trkpt><trkpt lat="44.51665420810707" lon="8.871842662179105"><ele>234.0</ele><time>2026-04-25T10:53:36.999Z</time></trkpt><trkpt lat="44.51665185228219" lon="8.871956691827977"><ele>234.0</ele><time>2026-04-25T10:53:37.999Z</time></trkpt><trkpt lat="44.516697806289734" lon="8.87207494364942"><ele>234.0</ele><time>2026-04-25T10:53:38.999Z</time></trkpt><trkpt lat="44.51677112779495" lon="8.872168540916896"><ele>234.0</ele><time>2026-04-25T10:53:39.999Z</time></trkpt><trkpt lat="44.51687258260331" lon="8.872227990943472"><ele>231.5</ele><time>2026-04-25T10:53:40.999Z</time></trkpt><trkpt lat="44.516953052746516" lon="8.872313690218267"><ele>229.0</ele><time>2026-04-25T10:53:41.999Z</time></trkpt><trkpt lat="44.51704662950114" lon="8.872323793448954"><ele>226.5</ele><time>2026-04-25T10:53:42.999Z</time></trkpt><trkpt lat="44.517117898306616" lon="8.87232485710232"><ele>224.0</ele><time>2026-04-25T10:53:43.999Z</time></trkpt><trkpt lat="44.51720156292924" lon="8.872227621472994"><ele>221.5</ele><time>2026-04-25T10:53:45.999Z</time></trkpt><trkpt lat="44.517202752360525" lon="8.872133636388648"><ele>219.0</ele><time>2026-04-25T10:53:46.999Z</time></trkpt><trkpt lat="44.51718208659663" lon="8.87203157832685"><ele>218.0</ele><time>2026-04-25T10:53:47.999Z</time></trkpt><trkpt lat="44.51720680727096" lon="8.871944374123505"><ele>217.0</ele><time>2026-04-25T10:53:48.999Z</time></trkpt><trkpt lat="44.51726136001185" lon="8.871872154496343"><ele>216.0</ele><time>2026-04-25T10:53:49.999Z</time></trkpt><trkpt lat="44.51734642959609" lon="8.871871328478615"><ele>215.0</ele><time>2026-04-25T10:53:50.999Z</time></trkpt><trkpt lat="44.51742077883988" lon="8.8718791919753"><ele>214.0</ele><time>2026-04-25T10:53:51.999Z</time></trkpt><trkpt lat="44.517491227775935" lon="8.871902424453774"><ele>213.0</ele><time>2026-04-25T10:53:52.999Z</time></trkpt><trkpt lat="44.51755768054844" lon="8.871877495305796"><ele>212.0</ele><time>2026-04-25T10:53:53.999Z</time></trkpt><trkpt lat="44.51761411576849" lon="8.871808937389709"><ele>210.16666666666669</ele><time>2026-04-25T10:53:54.999Z</time></trkpt><trkpt lat="44.517667979250405" lon="8.871738007426503"><ele>208.33333333333334</ele><time>2026-04-25T10:53:55.999Z</time></trkpt><trkpt lat="44.517728689481864" lon="8.87170971561014"><ele>206.5</ele><time>2026-04-25T10:53:56.999Z</time></trkpt><trkpt lat="44.517834048814805" lon="8.871770450006204"><ele>204.66666666666669</ele><time>2026-04-25T10:53:58.999Z</time></trkpt><trkpt lat="44.5179062788213" lon="8.871904764122618"><ele>202.83333333333334</ele><time>2026-04-25T10:54:00.999Z</time></trkpt><trkpt lat="44.51794051082709" lon="8.871986078352833"><ele>201.0</ele><time>2026-04-25T10:54:01.999Z</time></trkpt><trkpt lat="44.517977811810496" lon="8.872062408517799"><ele>201.0</ele><time>2026-04-25T10:54:02.999Z</time></trkpt><trkpt lat="44.51803901310169" lon="8.872126337061019"><ele>201.0</ele><time>2026-04-25T10:54:03.999Z</time></trkpt><trkpt lat="44.518121418806544" lon="8.872178644559412"><ele>201.0</ele><time>2026-04-25T10:54:04.999Z</time></trkpt><trkpt lat="44.51821435298506" lon="8.872235019476781"><ele>201.0</ele><time>2026-04-25T10:54:05.999Z</time></trkpt><trkpt lat="44.51830236441149" lon="8.87229967045795"><ele>201.0</ele><time>2026-04-25T10:54:06.999Z</time></trkpt><trkpt lat="44.518388109226095" lon="8.872360075115294"><ele>201.0</ele><time>2026-04-25T10:54:07.999Z</time></trkpt><trkpt lat="44.51846820158725" lon="8.872409971100446"><ele>201.0</ele><time>2026-04-25T10:54:08.999Z</time></trkpt><trkpt lat="44.518551451570026" lon="8.872418394334625"><ele>201.0</ele><time>2026-04-25T10:54:09.999Z</time></trkpt><trkpt lat="44.518630079941886" lon="8.872388222144158"><ele>201.0</ele><time>2026-04-25T10:54:10.999Z</time></trkpt><trkpt lat="44.518702793078084" lon="8.872296766584721"><ele>201.0</ele><time>2026-04-25T10:54:11.999Z</time></trkpt><trkpt lat="44.51876822513726" lon="8.872173337884252"><ele>201.0</ele><time>2026-04-25T10:54:12.999Z</time></trkpt><trkpt lat="44.51883255344826" lon="8.872025072163714"><ele>201.0</ele><time>2026-04-25T10:54:13.999Z</time></trkpt><trkpt lat="44.518892702487165" lon="8.871896992644125"><ele>201.0</ele><time>2026-04-25T10:54:14.999Z</time></trkpt><trkpt lat="44.51895581769186" lon="8.87178210370774"><ele>201.0</ele><time>2026-04-25T10:54:15.999Z</time></trkpt><trkpt lat="44.51897782277578" lon="8.871646041536762"><ele>201.0</ele><time>2026-04-25T10:54:16.999Z</time></trkpt><trkpt lat="44.5190301915111" lon="8.871554100408659"><ele>201.0</ele><time>2026-04-25T10:54:17.999Z</time></trkpt><trkpt lat="44.51911558439171" lon="8.871510294331324"><ele>201.0</ele><time>2026-04-25T10:54:18.999Z</time></trkpt><trkpt lat="44.519209497515284" lon="8.871493273731994"><ele>201.0</ele><time>2026-04-25T10:54:19.999Z</time></trkpt><trkpt lat="44.51929605203745" lon="8.871492683753866"><ele>201.0</ele><time>2026-04-25T10:54:20.999Z</time></trkpt><trkpt lat="44.51940473854834" lon="8.871567964144353"><ele>201.0</ele><time>2026-04-25T10:54:22.999Z</time></trkpt><trkpt lat="44.51942548417347" lon="8.871662841846131"><ele>201.0</ele><time>2026-04-25T10:54:23.999Z</time></trkpt><trkpt lat="44.51942745180673" lon="8.871773370058609"><ele>201.0</ele><time>2026-04-25T10:54:24.999Z</time></trkpt><trkpt lat="44.51941507120269" lon="8.871875922001697"><ele>201.0</ele><time>2026-04-25T10:54:25.999Z</time></trkpt><trkpt lat="44.51932485964425" lon="8.871964786660232"><ele>201.0</ele><time>2026-04-25T10:54:27.999Z</time></trkpt><trkpt lat="44.51923535259847" lon="8.871958776869796"><ele>201.0</ele><time>2026-04-25T10:54:28.999Z</time></trkpt><trkpt lat="44.51914251940421" lon="8.871962398495128"><ele>201.0</ele><time>2026-04-25T10:54:29.999Z</time></trkpt><trkpt lat="44.51906638248018" lon="8.872019948760865"><ele>198.0</ele><time>2026-04-25T10:54:30.999Z</time></trkpt><trkpt lat="44.51899365689228" lon="8.872086424076123"><ele>195.0</ele><time>2026-04-25T10:54:31.999Z</time></trkpt><trkpt lat="44.51897683050138" lon="8.87224825057783"><ele>192.0</ele><time>2026-04-25T10:54:32.999Z</time></trkpt><trkpt lat="44.518942690752006" lon="8.872400170206054"><ele>189.0</ele><time>2026-04-25T10:54:33.999Z</time></trkpt><trkpt lat="44.518917165474875" lon="8.872551488398148"><ele>186.0</ele><time>2026-04-25T10:54:34.999Z</time></trkpt><trkpt lat="44.51887772485676" lon="8.872699339580572"><ele>185.60000000000002</ele><time>2026-04-25T10:54:35.999Z</time></trkpt><trkpt lat="44.51881565679664" lon="8.872826974559102"><ele>185.2</ele><time>2026-04-25T10:54:36.999Z</time></trkpt><trkpt lat="44.51875432943786" lon="8.87295857142914"><ele>184.8</ele><time>2026-04-25T10:54:37.999Z</time></trkpt><trkpt lat="44.51869627634541" lon="8.873087033714121"><ele>184.39999999999998</ele><time>2026-04-25T10:54:38.999Z</time></trkpt><trkpt lat="44.51863600008611" lon="8.873211684392206"><ele>184.0</ele><time>2026-04-25T10:54:39.999Z</time></trkpt><trkpt lat="44.518572687533094" lon="8.873334744845463"><ele>181.2</ele><time>2026-04-25T10:54:40.999Z</time></trkpt><trkpt lat="44.51851095577684" lon="8.87345701905302"><ele>178.39999999999998</ele><time>2026-04-25T10:54:41.999Z</time></trkpt><trkpt lat="44.518452374462015" lon="8.873577744656755"><ele>175.6</ele><time>2026-04-25T10:54:42.999Z</time></trkpt><trkpt lat="44.51840464905174" lon="8.873709918051725"><ele>172.8</ele><time>2026-04-25T10:54:43.999Z</time></trkpt><trkpt lat="44.51837709104715" lon="8.873856723472533"><ele>170.0</ele><time>2026-04-25T10:54:44.999Z</time></trkpt><trkpt lat="44.518351652332015" lon="8.874002292061606"><ele>170.0</ele><time>2026-04-25T10:54:45.999Z</time></trkpt><trkpt lat="44.51833104686463" lon="8.874146655959832"><ele>170.0</ele><time>2026-04-25T10:54:46.999Z</time></trkpt><trkpt lat="44.51833327287803" lon="8.874275936062679"><ele>170.0</ele><time>2026-04-25T10:54:47.999Z</time></trkpt><trkpt lat="44.518317481149836" lon="8.874399553758101"><ele>170.0</ele><time>2026-04-25T10:54:48.999Z</time></trkpt><trkpt lat="44.51831544033896" lon="8.874524450286087"><ele>170.0</ele><time>2026-04-25T10:54:49.999Z</time></trkpt><trkpt lat="44.51833204732264" lon="8.874633657925317"><ele>167.85714285714286</ele><time>2026-04-25T10:54:50.999Z</time></trkpt><trkpt lat="44.518373073015404" lon="8.87471767840846"><ele>165.7142857142857</ele><time>2026-04-25T10:54:51.999Z</time></trkpt><trkpt lat="44.518434823555054" lon="8.874773755292368"><ele>163.57142857142856</ele><time>2026-04-25T10:54:52.999Z</time></trkpt><trkpt lat="44.51850653825525" lon="8.874807851041922"><ele>161.42857142857144</ele><time>2026-04-25T10:54:53.999Z</time></trkpt><trkpt lat="44.51858198109405" lon="8.874843582659778"><ele>159.28571428571428</ele><time>2026-04-25T10:54:54.999Z</time></trkpt><trkpt lat="44.51866124312688" lon="8.874865781321448"><ele>157.14285714285714</ele><time>2026-04-25T10:54:55.999Z</time></trkpt><trkpt lat="44.518723624330335" lon="8.874839918471338"><ele>155.0</ele><time>2026-04-25T10:54:56.999Z</time></trkpt><trkpt lat="44.51876776010199" lon="8.874770025287084"><ele>155.0</ele><time>2026-04-25T10:54:57.999Z</time></trkpt><trkpt lat="44.518781698287455" lon="8.874654970617867"><ele>155.0</ele><time>2026-04-25T10:54:58.999Z</time></trkpt><trkpt lat="44.51876603129428" lon="8.874509972854321"><ele>155.0</ele><time>2026-04-25T10:54:59.999Z</time></trkpt><trkpt lat="44.51875089657732" lon="8.8743426771302"><ele>155.0</ele><time>2026-04-25T10:55:00.999Z</time></trkpt><trkpt lat="44.51874937348863" lon="8.874195319714975"><ele>155.0</ele><time>2026-04-25T10:55:01.999Z</time></trkpt><trkpt lat="44.51876420205882" lon="8.874051314975947"><ele>155.0</ele><time>2026-04-25T10:55:02.999Z</time></trkpt><trkpt lat="44.51882193158982" lon="8.873924580674867"><ele>155.0</ele><time>2026-04-25T10:55:03.999Z</time></trkpt><trkpt lat="44.51889745751719" lon="8.873822186047724"><ele>155.0</ele><time>2026-04-25T10:55:04.999Z</time></trkpt><trkpt lat="44.51898081305528" lon="8.873737071013364"><ele>155.0</ele><time>2026-04-25T10:55:05.999Z</time></trkpt><trkpt lat="44.51906415750016" lon="8.873672656747832"><ele>155.0</ele><time>2026-04-25T10:55:06.999Z</time></trkpt><trkpt lat="44.519133338495756" lon="8.873622072168507"><ele>155.0</ele><time>2026-04-25T10:55:07.999Z</time></trkpt><trkpt lat="44.519213808993" lon="8.873600408980186"><ele>155.0</ele><time>2026-04-25T10:55:08.999Z</time></trkpt><trkpt lat="44.5192859485438" lon="8.8736556791097"><ele>155.0</ele><time>2026-04-25T10:55:09.999Z</time></trkpt><trkpt lat="44.51935304998153" lon="8.873691671063588"><ele>155.0</ele><time>2026-04-25T10:55:10.999Z</time></trkpt><trkpt lat="44.51944905989298" lon="8.873751656996765"><ele>155.0</ele><time>2026-04-25T10:55:12.999Z</time></trkpt><trkpt lat="44.51951696521141" lon="8.873799047934135"><ele>155.0</ele><time>2026-04-25T10:55:15.999Z</time></trkpt><trkpt lat="44.51958154667918" lon="8.87362845341914"><ele>155.2</ele><time>2026-04-25T10:55:16.999Z</time></trkpt><trkpt lat="44.51963543499314" lon="8.873542343996615"><ele>155.4</ele><time>2026-04-25T10:55:17.999Z</time></trkpt><trkpt lat="44.51972396209065" lon="8.873498088347946"><ele>155.6</ele><time>2026-04-25T10:55:18.999Z</time></trkpt><trkpt lat="44.51982549251557" lon="8.87349389677364"><ele>155.8</ele><time>2026-04-25T10:55:19.999Z</time></trkpt><trkpt lat="44.519923860144324" lon="8.87351438780321"><ele>156.0</ele><time>2026-04-25T10:55:20.999Z</time></trkpt><trkpt lat="44.52004547164994" lon="8.87353157028934"><ele>156.0</ele><time>2026-04-25T10:55:21.999Z</time></trkpt><trkpt lat="44.520176774736214" lon="8.873537742412639"><ele>156.0</ele><time>2026-04-25T10:55:22.999Z</time></trkpt><trkpt lat="44.52029677434137" lon="8.87354463702771"><ele>156.0</ele><time>2026-04-25T10:55:23.999Z</time></trkpt><trkpt lat="44.52040505515671" lon="8.87357288050726"><ele>156.0</ele><time>2026-04-25T10:55:24.999Z</time></trkpt><trkpt lat="44.52049912841341" lon="8.873615635281878"><ele>157.2</ele><time>2026-04-25T10:55:25.999Z</time></trkpt><trkpt lat="44.52057898905634" lon="8.873679836288742"><ele>158.39999999999998</ele><time>2026-04-25T10:55:26.999Z</time></trkpt><trkpt lat="44.52062019316425" lon="8.873794198898727"><ele>159.6</ele><time>2026-04-25T10:55:27.999Z</time></trkpt><trkpt lat="44.52067230863696" lon="8.873909082470734"><ele>160.79999999999998</ele><time>2026-04-25T10:55:28.999Z</time></trkpt><trkpt lat="44.520723027388925" lon="8.874035633151012"><ele>162.0</ele><time>2026-04-25T10:55:29.999Z</time></trkpt><trkpt lat="44.52076987348617" lon="8.874171361853609"><ele>162.5</ele><time>2026-04-25T10:55:30.999Z</time></trkpt><trkpt lat="44.520820897491426" lon="8.874320561169531"><ele>163.0</ele><time>2026-04-25T10:55:31.999Z</time></trkpt><trkpt lat="44.52086466131861" lon="8.87447948344924"><ele>163.5</ele><time>2026-04-25T10:55:32.999Z</time></trkpt><trkpt lat="44.520891181005645" lon="8.874651223076649"><ele>164.0</ele><time>2026-04-25T10:55:33.999Z</time></trkpt><trkpt lat="44.52091507469711" lon="8.874824217473932"><ele>164.0</ele><time>2026-04-25T10:55:34.999Z</time></trkpt><trkpt lat="44.520958608568584" lon="8.874991241336353"><ele>164.0</ele><time>2026-04-25T10:55:35.999Z</time></trkpt><trkpt lat="44.521015468576834" lon="8.875151205062997"><ele>164.0</ele><time>2026-04-25T10:55:36.999Z</time></trkpt><trkpt lat="44.521089011625726" lon="8.875301344511124"><ele>164.0</ele><time>2026-04-25T10:55:37.999Z</time></trkpt><trkpt lat="44.52116494178066" lon="8.875449824423246"><ele>164.75</ele><time>2026-04-25T10:55:38.999Z</time></trkpt><trkpt lat="44.52124458366764" lon="8.875611289752712"><ele>165.5</ele><time>2026-04-25T10:55:39.999Z</time></trkpt><trkpt lat="44.521316143824926" lon="8.875762734398728"><ele>166.25</ele><time>2026-04-25T10:55:40.999Z</time></trkpt><trkpt lat="44.52138399427954" lon="8.875895940970265"><ele>167.0</ele><time>2026-04-25T10:55:41.999Z</time></trkpt><trkpt lat="44.52145152624655" lon="8.876022222772317"><ele>170.33333333333331</ele><time>2026-04-25T10:55:42.999Z</time></trkpt><trkpt lat="44.52151670833825" lon="8.876130015482197"><ele>173.66666666666666</ele><time>2026-04-25T10:55:43.999Z</time></trkpt><trkpt lat="44.52157446482292" lon="8.876188527560371"><ele>177.0</ele><time>2026-04-25T10:55:44.999Z</time></trkpt><trkpt lat="44.5216422653094" lon="8.876207280726543"><ele>180.33333333333334</ele><time>2026-04-25T10:55:45.999Z</time></trkpt><trkpt lat="44.52171279724033" lon="8.876180850568847"><ele>183.66666666666669</ele><time>2026-04-25T10:55:46.999Z</time></trkpt><trkpt lat="44.52179634340038" lon="8.87611996970656"><ele>187.0</ele><time>2026-04-25T10:55:47.999Z</time></trkpt><trkpt lat="44.52188649092393" lon="8.876019219010773"><ele>184.66666666666669</ele><time>2026-04-25T10:55:48.999Z</time></trkpt><trkpt lat="44.52198888522415" lon="8.875883764257633"><ele>182.33333333333334</ele><time>2026-04-25T10:55:49.999Z</time></trkpt><trkpt lat="44.522105714906516" lon="8.875726108337147"><ele>180.0</ele><time>2026-04-25T10:55:50.999Z</time></trkpt><trkpt lat="44.52222180637692" lon="8.875543759618553"><ele>180.0</ele><time>2026-04-25T10:55:51.999Z</time></trkpt><trkpt lat="44.522329346948574" lon="8.875338298796429"><ele>180.0</ele><time>2026-04-25T10:55:52.999Z</time></trkpt><trkpt lat="44.52242609203513" lon="8.875152266505578"><ele>180.0</ele><time>2026-04-25T10:55:53.999Z</time></trkpt><trkpt lat="44.5225041356366" lon="8.874994803594449"><ele>180.0</ele><time>2026-04-25T10:55:54.999Z</time></trkpt><trkpt lat="44.522553995719186" lon="8.874850998416274"><ele>180.0</ele><time>2026-04-25T10:55:55.999Z</time></trkpt><trkpt lat="44.52256519738226" lon="8.87469242788849"><ele>180.0</ele><time>2026-04-25T10:55:56.999Z</time></trkpt><trkpt lat="44.52255358295425" lon="8.874486489798242"><ele>180.0</ele><time>2026-04-25T10:55:57.999Z</time></trkpt><trkpt lat="44.522561592301486" lon="8.874234685656484"><ele>180.0</ele><time>2026-04-25T10:55:58.999Z</time></trkpt><trkpt lat="44.522556474585734" lon="8.873981853315607"><ele>180.0</ele><time>2026-04-25T10:55:59.999Z</time></trkpt><trkpt lat="44.52253812871603" lon="8.87376730970485"><ele>180.0</ele><time>2026-04-25T10:56:00.999Z</time></trkpt><trkpt lat="44.52254370097827" lon="8.873575400088672"><ele>179.4</ele><time>2026-04-25T10:56:01.999Z</time></trkpt><trkpt lat="44.52256320156318" lon="8.87341970925383"><ele>178.8</ele><time>2026-04-25T10:56:02.999Z</time></trkpt><trkpt lat="44.5225937400284" lon="8.873274233348388"><ele>178.2</ele><time>2026-04-25T10:56:03.999Z</time></trkpt><trkpt lat="44.52266988381508" lon="8.873120299288383"><ele>177.6</ele><time>2026-04-25T10:56:04.999Z</time></trkpt><trkpt lat="44.522742350543105" lon="8.873040515266965"><ele>177.0</ele><time>2026-04-25T10:56:05.999Z</time></trkpt><trkpt lat="44.5228424590498" lon="8.87296240629001"><ele>183.25</ele><time>2026-04-25T10:56:06.999Z</time></trkpt><trkpt lat="44.52296892406274" lon="8.87293388702369"><ele>189.5</ele><time>2026-04-25T10:56:07.999Z</time></trkpt><trkpt lat="44.52311665659375" lon="8.872897708104135"><ele>195.75</ele><time>2026-04-25T10:56:08.999Z</time></trkpt><trkpt lat="44.523280054379754" lon="8.872860729413826"><ele>202.0</ele><time>2026-04-25T10:56:09.999Z</time></trkpt><trkpt lat="44.523446401414226" lon="8.87281678225849"><ele>202.0</ele><time>2026-04-25T10:56:10.999Z</time></trkpt><trkpt lat="44.52359240185257" lon="8.87275280965288"><ele>202.0</ele><time>2026-04-25T10:56:11.999Z</time></trkpt><trkpt lat="44.523729260095095" lon="8.872684293006516"><ele>202.0</ele><time>2026-04-25T10:56:12.999Z</time></trkpt><trkpt lat="44.523855447087286" lon="8.87258142089786"><ele>202.0</ele><time>2026-04-25T10:56:13.999Z</time></trkpt><trkpt lat="44.523964634470715" lon="8.872432719054506"><ele>200.33333333333331</ele><time>2026-04-25T10:56:14.999Z</time></trkpt><trkpt lat="44.524053409579004" lon="8.872255956012445"><ele>198.66666666666669</ele><time>2026-04-25T10:56:15.999Z</time></trkpt><trkpt lat="44.52414573413976" lon="8.872050760733117"><ele>197.0</ele><time>2026-04-25T10:56:16.999Z</time></trkpt><trkpt lat="44.524255866678196" lon="8.871851272350638"><ele>198.66666666666669</ele><time>2026-04-25T10:56:17.999Z</time></trkpt><trkpt lat="44.524373908792555" lon="8.871653553552717"><ele>200.33333333333331</ele><time>2026-04-25T10:56:18.999Z</time></trkpt><trkpt lat="44.5244906577047" lon="8.871462245997453"><ele>202.0</ele><time>2026-04-25T10:56:19.999Z</time></trkpt><trkpt lat="44.524589188257714" lon="8.871295831626144"><ele>202.0</ele><time>2026-04-25T10:56:20.999Z</time></trkpt><trkpt lat="44.524668984856675" lon="8.871184973706994"><ele>202.0</ele><time>2026-04-25T10:56:21.999Z</time></trkpt><trkpt lat="44.52476306852366" lon="8.871157318911724"><ele>202.0</ele><time>2026-04-25T10:56:22.999Z</time></trkpt><trkpt lat="44.52484787635611" lon="8.871169551699898"><ele>202.0</ele><time>2026-04-25T10:56:23.999Z</time></trkpt><trkpt lat="44.524952254182054" lon="8.871202091291197"><ele>202.0</ele><time>2026-04-25T10:56:24.999Z</time></trkpt><trkpt lat="44.525080794518274" lon="8.871270536205119"><ele>202.0</ele><time>2026-04-25T10:56:25.999Z</time></trkpt><trkpt lat="44.52521263321724" lon="8.871310810604772"><ele>202.0</ele><time>2026-04-25T10:56:26.999Z</time></trkpt><trkpt lat="44.52532893834325" lon="8.871247402269347"><ele>202.0</ele><time>2026-04-25T10:56:27.999Z</time></trkpt><trkpt lat="44.52544597823098" lon="8.871149571308187"><ele>202.0</ele><time>2026-04-25T10:56:28.999Z</time></trkpt><trkpt lat="44.5255611054731" lon="8.871024089100848"><ele>200.25</ele><time>2026-04-25T10:56:29.999Z</time></trkpt><trkpt lat="44.52568359768733" lon="8.870876639850904"><ele>198.5</ele><time>2026-04-25T10:56:30.999Z</time></trkpt><trkpt lat="44.52578318858097" lon="8.870730420390403"><ele>196.75</ele><time>2026-04-25T10:56:31.999Z</time></trkpt><trkpt lat="44.525857536157474" lon="8.870592043941247"><ele>195.0</ele><time>2026-04-25T10:56:32.999Z</time></trkpt><trkpt lat="44.525914413104246" lon="8.870415415452339"><ele>195.0</ele><time>2026-04-25T10:56:33.999Z</time></trkpt><trkpt lat="44.52596671634662" lon="8.870206494551462"><ele>195.0</ele><time>2026-04-25T10:56:34.999Z</time></trkpt><trkpt lat="44.526020663345655" lon="8.869983848263606"><ele>195.0</ele><time>2026-04-25T10:56:35.999Z</time></trkpt><trkpt lat="44.526079180301345" lon="8.869750125272661"><ele>194.66666666666669</ele><time>2026-04-25T10:56:36.999Z</time></trkpt><trkpt lat="44.526145496463805" lon="8.869493701534514"><ele>194.33333333333334</ele><time>2026-04-25T10:56:37.999Z</time></trkpt><trkpt lat="44.526214348168814" lon="8.86924707091977"><ele>194.0</ele><time>2026-04-25T10:56:38.999Z</time></trkpt><trkpt lat="44.526270679845915" lon="8.869024178638309"><ele>197.0</ele><time>2026-04-25T10:56:39.999Z</time></trkpt><trkpt lat="44.526320236401055" lon="8.868817049481724"><ele>200.0</ele><time>2026-04-25T10:56:40.999Z</time></trkpt><trkpt lat="44.52637102389329" lon="8.868625701205035"><ele>203.0</ele><time>2026-04-25T10:56:41.999Z</time></trkpt><trkpt lat="44.526418391836735" lon="8.868446867065407"><ele>206.0</ele><time>2026-04-25T10:56:42.999Z</time></trkpt><trkpt lat="44.52646211731348" lon="8.868282702501444"><ele>206.0</ele><time>2026-04-25T10:56:43.999Z</time></trkpt><trkpt lat="44.52650195872202" lon="8.868123351297609"><ele>206.0</ele><time>2026-04-25T10:56:44.999Z</time></trkpt><trkpt lat="44.526545747050164" lon="8.86797258100212"><ele>206.0</ele><time>2026-04-25T10:56:45.999Z</time></trkpt><trkpt lat="44.52659221641232" lon="8.867853662466567"><ele>206.0</ele><time>2026-04-25T10:56:46.999Z</time></trkpt><trkpt lat="44.526653536275596" lon="8.867771522637028"><ele>206.0</ele><time>2026-04-25T10:56:47.999Z</time></trkpt><trkpt lat="44.52673121654844" lon="8.867706942564602"><ele>206.00000000000003</ele><time>2026-04-25T10:56:48.999Z</time></trkpt><trkpt lat="44.52681983701501" lon="8.86767568489818"><ele>206.0</ele><time>2026-04-25T10:56:49.999Z</time></trkpt><trkpt lat="44.52690813683311" lon="8.867665121075776"><ele>206.0</ele><time>2026-04-25T10:56:50.999Z</time></trkpt><trkpt lat="44.52698924823338" lon="8.867652489545964"><ele>206.0</ele><time>2026-04-25T10:56:51.999Z</time></trkpt><trkpt lat="44.52706449611212" lon="8.867638846484686"><ele>206.00000000000003</ele><time>2026-04-25T10:56:52.999Z</time></trkpt><trkpt lat="44.52714138581794" lon="8.867631030522931"><ele>206.0</ele><time>2026-04-25T10:56:53.999Z</time></trkpt><trkpt lat="44.52721010532554" lon="8.867665441778037"><ele>208.00000000000003</ele><time>2026-04-25T10:56:54.999Z</time></trkpt><trkpt lat="44.52727443844703" lon="8.867691470554078"><ele>210.0</ele><time>2026-04-25T10:56:55.999Z</time></trkpt><trkpt lat="44.52738583288369" lon="8.867706070360546"><ele>212.0</ele><time>2026-04-25T10:56:57.999Z</time></trkpt><trkpt lat="44.527480199144016" lon="8.867685840967601"><ele>214.0</ele><time>2026-04-25T10:56:59.999Z</time></trkpt><trkpt lat="44.52758731171262" lon="8.867686104482809"><ele>216.00000000000003</ele><time>2026-04-25T10:57:01.999Z</time></trkpt><trkpt lat="44.527652278776806" lon="8.867694663720084"><ele>218.0</ele><time>2026-04-25T10:57:02.999Z</time></trkpt><trkpt lat="44.52772256525203" lon="8.867704214458254"><ele>218.0</ele><time>2026-04-25T10:57:03.999Z</time></trkpt><trkpt lat="44.52779016987766" lon="8.867734068076741"><ele>218.0</ele><time>2026-04-25T10:57:04.999Z</time></trkpt><trkpt lat="44.52789397838037" lon="8.867834121710231"><ele>218.0</ele><time>2026-04-25T10:57:06.999Z</time></trkpt><trkpt lat="44.527967786387" lon="8.867920421003948"><ele>218.0</ele><time>2026-04-25T10:57:07.999Z</time></trkpt><trkpt lat="44.52807560192694" lon="8.868022632144179"><ele>218.0</ele><time>2026-04-25T10:57:08.999Z</time></trkpt><trkpt lat="44.528170061319614" lon="8.868084682204634"><ele>216.16666666666669</ele><time>2026-04-25T10:57:09.999Z</time></trkpt><trkpt lat="44.52824913490436" lon="8.86812931587886"><ele>214.33333333333334</ele><time>2026-04-25T10:57:10.999Z</time></trkpt><trkpt lat="44.52832818274143" lon="8.86814021344586"><ele>212.5</ele><time>2026-04-25T10:57:11.999Z</time></trkpt><trkpt lat="44.5284127256664" lon="8.868096353587639"><ele>210.66666666666669</ele><time>2026-04-25T10:57:12.999Z</time></trkpt><trkpt lat="44.52848222171454" lon="8.86802181900181"><ele>208.83333333333334</ele><time>2026-04-25T10:57:13.999Z</time></trkpt><trkpt lat="44.52855385409565" lon="8.867956885693973"><ele>207.0</ele><time>2026-04-25T10:57:14.999Z</time></trkpt><trkpt lat="44.528634764455546" lon="8.86791315933916"><ele>208.39999999999998</ele><time>2026-04-25T10:57:15.999Z</time></trkpt><trkpt lat="44.528729863292476" lon="8.867954725079965"><ele>209.79999999999998</ele><time>2026-04-25T10:57:16.999Z</time></trkpt><trkpt lat="44.52882458488995" lon="8.867964315176954"><ele>211.2</ele><time>2026-04-25T10:57:17.999Z</time></trkpt><trkpt lat="44.528908631458755" lon="8.867969259254197"><ele>212.6</ele><time>2026-04-25T10:57:18.999Z</time></trkpt><trkpt lat="44.52897315865004" lon="8.867942623940287"><ele>214.0</ele><time>2026-04-25T10:57:21.999Z</time></trkpt><trkpt lat="44.529080587198145" lon="8.86789596535917"><ele>214.0</ele><time>2026-04-25T10:57:24.999Z</time></trkpt><trkpt lat="44.529153756631615" lon="8.867865785796894"><ele>213.99999999999997</ele><time>2026-04-25T10:57:25.999Z</time></trkpt><trkpt lat="44.52925050759368" lon="8.867809072013719"><ele>213.99999999999997</ele><time>2026-04-25T10:57:26.999Z</time></trkpt><trkpt lat="44.52933641057507" lon="8.867758619497277"><ele>214.0</ele><time>2026-04-25T10:57:27.999Z</time></trkpt><trkpt lat="44.52942008144932" lon="8.867703066568769"><ele>214.0</ele><time>2026-04-25T10:57:28.999Z</time></trkpt><trkpt lat="44.529521337975304" lon="8.867667395633331"><ele>214.0</ele><time>2026-04-25T10:57:29.999Z</time></trkpt><trkpt lat="44.529644981598" lon="8.867675825665062"><ele>213.99999999999997</ele><time>2026-04-25T10:57:30.999Z</time></trkpt><trkpt lat="44.52975707787622" lon="8.867671063218515"><ele>213.99999999999997</ele><time>2026-04-25T10:57:31.999Z</time></trkpt><trkpt lat="44.52986604765905" lon="8.867655225285905"><ele>214.0</ele><time>2026-04-25T10:57:32.999Z</time></trkpt><trkpt lat="44.529961372986996" lon="8.86762910398064"><ele>214.0</ele><time>2026-04-25T10:57:33.999Z</time></trkpt><trkpt lat="44.530049500813455" lon="8.867598991090325"><ele>213.99999999999997</ele><time>2026-04-25T10:57:34.999Z</time></trkpt><trkpt lat="44.53011484662607" lon="8.867553893398144"><ele>214.0</ele><time>2026-04-25T10:57:35.999Z</time></trkpt><trkpt lat="44.53018122533358" lon="8.867540318273305"><ele>214.0</ele><time>2026-04-25T10:57:36.999Z</time></trkpt><trkpt lat="44.53025970008225" lon="8.867521403095878"><ele>214.0</ele><time>2026-04-25T10:57:38.999Z</time></trkpt><trkpt lat="44.530343760827606" lon="8.86754831801441"><ele>213.99999999999997</ele><time>2026-04-25T10:57:41.999Z</time></trkpt><trkpt lat="44.53041078623141" lon="8.867568207856507"><ele>214.0</ele><time>2026-04-25T10:57:42.999Z</time></trkpt><trkpt lat="44.53050579824036" lon="8.867636053450228"><ele>217.25</ele><time>2026-04-25T10:57:43.999Z</time></trkpt><trkpt lat="44.53062238020259" lon="8.867698226218058"><ele>220.5</ele><time>2026-04-25T10:57:44.999Z</time></trkpt><trkpt lat="44.53074302075583" lon="8.867760449277583"><ele>223.75</ele><time>2026-04-25T10:57:45.999Z</time></trkpt><trkpt lat="44.53088012053979" lon="8.867789367126589"><ele>227.0</ele><time>2026-04-25T10:57:46.999Z</time></trkpt><trkpt lat="44.531029009777534" lon="8.867825296984565"><ele>227.0</ele><time>2026-04-25T10:57:47.999Z</time></trkpt><trkpt lat="44.53117137989661" lon="8.867840978848555"><ele>227.0</ele><time>2026-04-25T10:57:48.999Z</time></trkpt><trkpt lat="44.53133847519089" lon="8.867841563200464"><ele>227.0</ele><time>2026-04-25T10:57:49.999Z</time></trkpt><trkpt lat="44.531497245095984" lon="8.867851654964882"><ele>230.25</ele><time>2026-04-25T10:57:50.999Z</time></trkpt><trkpt lat="44.5316221526093" lon="8.867895042494144"><ele>233.5</ele><time>2026-04-25T10:57:51.999Z</time></trkpt><trkpt lat="44.53175576728855" lon="8.867944741161889"><ele>236.75</ele><time>2026-04-25T10:57:52.999Z</time></trkpt><trkpt lat="44.53188645424386" lon="8.86797558799593"><ele>240.0</ele><time>2026-04-25T10:57:53.999Z</time></trkpt><trkpt lat="44.531993560528655" lon="8.868007312253718"><ele>247.0</ele><time>2026-04-25T10:57:54.999Z</time></trkpt><trkpt lat="44.532089326101946" lon="8.86801406800865"><ele>254.0</ele><time>2026-04-25T10:57:55.999Z</time></trkpt><trkpt lat="44.53218496983475" lon="8.86796398544072"><ele>261.0</ele><time>2026-04-25T10:57:56.999Z</time></trkpt><trkpt lat="44.532307154222856" lon="8.867895266797778"><ele>268.0</ele><time>2026-04-25T10:57:57.999Z</time></trkpt><trkpt lat="44.53243570833504" lon="8.867852060594327"><ele>268.0</ele><time>2026-04-25T10:57:58.999Z</time></trkpt><trkpt lat="44.532541479394034" lon="8.867764690045727"><ele>268.0</ele><time>2026-04-25T10:57:59.999Z</time></trkpt><trkpt lat="44.532637815812535" lon="8.867711679662772"><ele>268.0</ele><time>2026-04-25T10:58:00.999Z</time></trkpt><trkpt lat="44.53269038228015" lon="8.86757808305622"><ele>268.0</ele><time>2026-04-25T10:58:01.999Z</time></trkpt><trkpt lat="44.53273852666784" lon="8.867428423367208"><ele>259.0</ele><time>2026-04-25T10:58:02.999Z</time></trkpt><trkpt lat="44.53276982484062" lon="8.86723442300482"><ele>250.0</ele><time>2026-04-25T10:58:03.999Z</time></trkpt><trkpt lat="44.53282462690318" lon="8.867025571444124"><ele>241.0</ele><time>2026-04-25T10:58:04.999Z</time></trkpt><trkpt lat="44.532879580201005" lon="8.866800922047828"><ele>244.75</ele><time>2026-04-25T10:58:05.999Z</time></trkpt><trkpt lat="44.53294490605719" lon="8.866591111251472"><ele>248.5</ele><time>2026-04-25T10:58:06.999Z</time></trkpt><trkpt lat="44.53299743102382" lon="8.86643556115675"><ele>252.25</ele><time>2026-04-25T10:58:07.999Z</time></trkpt><trkpt lat="44.53300809943546" lon="8.866317281153163"><ele>256.0</ele><time>2026-04-25T10:58:08.999Z</time></trkpt><trkpt lat="44.5330750575536" lon="8.86622644218064"><ele>255.99999999999997</ele><time>2026-04-25T10:58:10.999Z</time></trkpt><trkpt lat="44.53314139068123" lon="8.866320773097046"><ele>256.0</ele><time>2026-04-25T10:58:12.999Z</time></trkpt><trkpt lat="44.533093240977195" lon="8.866451567706127"><ele>256.0</ele><time>2026-04-25T10:58:14.999Z</time></trkpt><trkpt lat="44.53304780290036" lon="8.866513034931884"><ele>256.0</ele><time>2026-04-25T10:58:15.999Z</time></trkpt><trkpt lat="44.53301428049562" lon="8.866606362287177"><ele>255.99999999999997</ele><time>2026-04-25T10:58:16.999Z</time></trkpt><trkpt lat="44.53296827629134" lon="8.866699984044581"><ele>256.0</ele><time>2026-04-25T10:58:17.999Z</time></trkpt><trkpt lat="44.53293762946013" lon="8.8667842832743"><ele>256.0</ele><time>2026-04-25T10:58:18.999Z</time></trkpt><trkpt lat="44.532966787392546" lon="8.866913145200185"><ele>256.0</ele><time>2026-04-25T10:58:20.999Z</time></trkpt><trkpt lat="44.533069510431545" lon="8.86691332511965"><ele>256.0</ele><time>2026-04-25T10:58:22.999Z</time></trkpt><trkpt lat="44.53313106386142" lon="8.866745121982833"><ele>256.0</ele><time>2026-04-25T10:58:24.999Z</time></trkpt><trkpt lat="44.53315217054933" lon="8.86663277850836"><ele>256.0</ele><time>2026-04-25T10:58:25.999Z</time></trkpt><trkpt lat="44.53318625033131" lon="8.866525263462083"><ele>255.99999999999997</ele><time>2026-04-25T10:58:26.999Z</time></trkpt><trkpt lat="44.53324653504797" lon="8.866447488812822"><ele>256.0</ele><time>2026-04-25T10:58:27.999Z</time></trkpt><trkpt lat="44.53332260285865" lon="8.866415226739528"><ele>256.0</ele><time>2026-04-25T10:58:28.999Z</time></trkpt><trkpt lat="44.533406612584216" lon="8.866411869450332"><ele>256.0</ele><time>2026-04-25T10:58:29.999Z</time></trkpt><trkpt lat="44.533495127034364" lon="8.866408241940606"><ele>255.99999999999997</ele><time>2026-04-25T10:58:30.999Z</time></trkpt><trkpt lat="44.53358694677256" lon="8.86640206074334"><ele>256.0</ele><time>2026-04-25T10:58:31.999Z</time></trkpt><trkpt lat="44.53367913949188" lon="8.866375691398625"><ele>262.8</ele><time>2026-04-25T10:58:32.999Z</time></trkpt><trkpt lat="44.533771880080835" lon="8.866330404306492"><ele>269.6</ele><time>2026-04-25T10:58:33.999Z</time></trkpt><trkpt lat="44.533864790798454" lon="8.866278565579888"><ele>276.4</ele><time>2026-04-25T10:58:34.999Z</time></trkpt><trkpt lat="44.533946165566725" lon="8.866221193371512"><ele>283.2</ele><time>2026-04-25T10:58:35.999Z</time></trkpt><trkpt lat="44.534052789630536" lon="8.8661695174722"><ele>290.0</ele><time>2026-04-25T10:58:36.999Z</time></trkpt><trkpt lat="44.53416773058241" lon="8.866069429282513"><ele>289.25</ele><time>2026-04-25T10:58:37.999Z</time></trkpt><trkpt lat="44.53428332794565" lon="8.865932046481669"><ele>288.5</ele><time>2026-04-25T10:58:38.999Z</time></trkpt><trkpt lat="44.53441609557909" lon="8.865830054055298"><ele>287.75</ele><time>2026-04-25T10:58:39.999Z</time></trkpt><trkpt lat="44.53454462189468" lon="8.865755603448045"><ele>287.0</ele><time>2026-04-25T10:58:40.999Z</time></trkpt><trkpt lat="44.53470304987829" lon="8.865758176947415"><ele>287.0</ele><time>2026-04-25T10:58:41.999Z</time></trkpt><trkpt lat="44.534868801510534" lon="8.865748177838547"><ele>287.0</ele><time>2026-04-25T10:58:42.999Z</time></trkpt><trkpt lat="44.535037817071895" lon="8.865663271517079"><ele>287.0</ele><time>2026-04-25T10:58:43.999Z</time></trkpt><trkpt lat="44.5352241183076" lon="8.865572240434853"><ele>290.0</ele><time>2026-04-25T10:58:44.999Z</time></trkpt><trkpt lat="44.53540804916096" lon="8.865513254534992"><ele>293.0</ele><time>2026-04-25T10:58:45.999Z</time></trkpt><trkpt lat="44.535560551829164" lon="8.865490809228016"><ele>296.0</ele><time>2026-04-25T10:58:46.999Z</time></trkpt><trkpt lat="44.53566896650398" lon="8.865461824717627"><ele>296.0</ele><time>2026-04-25T10:58:47.999Z</time></trkpt><trkpt lat="44.535759488297884" lon="8.865396448163425"><ele>296.0</ele><time>2026-04-25T10:58:48.999Z</time></trkpt><trkpt lat="44.53583426838927" lon="8.865279783991518"><ele>296.0</ele><time>2026-04-25T10:58:49.999Z</time></trkpt><trkpt lat="44.535904132616665" lon="8.865154761492256"><ele>296.0</ele><time>2026-04-25T10:58:50.999Z</time></trkpt><trkpt lat="44.535980992868495" lon="8.865085848441378"><ele>296.0</ele><time>2026-04-25T10:58:51.999Z</time></trkpt><trkpt lat="44.53607926726705" lon="8.865071146534897"><ele>296.75</ele><time>2026-04-25T10:58:52.999Z</time></trkpt><trkpt lat="44.536207428005504" lon="8.865078511640874"><ele>297.5</ele><time>2026-04-25T10:58:53.999Z</time></trkpt><trkpt lat="44.53634688770523" lon="8.86506368450634"><ele>298.25</ele><time>2026-04-25T10:58:54.999Z</time></trkpt><trkpt lat="44.53649504365142" lon="8.865036813837381"><ele>299.0</ele><time>2026-04-25T10:58:55.999Z</time></trkpt><trkpt lat="44.53662084553184" lon="8.865007783817747"><ele>299.0</ele><time>2026-04-25T10:58:56.999Z</time></trkpt><trkpt lat="44.53671855566939" lon="8.864965427481831"><ele>299.0</ele><time>2026-04-25T10:58:57.999Z</time></trkpt><trkpt lat="44.536789811671" lon="8.864881114885256"><ele>299.0</ele><time>2026-04-25T10:58:58.999Z</time></trkpt><trkpt lat="44.53684328206603" lon="8.864767878674868"><ele>299.0</ele><time>2026-04-25T10:58:59.999Z</time></trkpt><trkpt lat="44.536837859174184" lon="8.864587602273765"><ele>299.0</ele><time>2026-04-25T10:59:00.999Z</time></trkpt><trkpt lat="44.53685065566927" lon="8.864435916268095"><ele>299.0</ele><time>2026-04-25T10:59:01.999Z</time></trkpt><trkpt lat="44.536894350219676" lon="8.864328190511984"><ele>299.0</ele><time>2026-04-25T10:59:02.999Z</time></trkpt><trkpt lat="44.536967403793454" lon="8.864255100930569"><ele>299.0</ele><time>2026-04-25T10:59:03.999Z</time></trkpt><trkpt lat="44.53705671964673" lon="8.864215944486947"><ele>299.0</ele><time>2026-04-25T10:59:04.999Z</time></trkpt><trkpt lat="44.53716501880613" lon="8.864220266296138"><ele>299.0</ele><time>2026-04-25T10:59:05.999Z</time></trkpt><trkpt lat="44.537287477053624" lon="8.864256931281622"><ele>302.5</ele><time>2026-04-25T10:59:06.999Z</time></trkpt><trkpt lat="44.53741350739519" lon="8.864304557389909"><ele>306.0</ele><time>2026-04-25T10:59:07.999Z</time></trkpt><trkpt lat="44.5375344150298" lon="8.864326361208368"><ele>309.5</ele><time>2026-04-25T10:59:08.999Z</time></trkpt><trkpt lat="44.53765031057483" lon="8.864302159914864"><ele>313.0</ele><time>2026-04-25T10:59:09.999Z</time></trkpt><trkpt lat="44.53775433895415" lon="8.864228650043325"><ele>313.0</ele><time>2026-04-25T10:59:10.999Z</time></trkpt><trkpt lat="44.53785073106875" lon="8.864114100836032"><ele>313.0</ele><time>2026-04-25T10:59:11.999Z</time></trkpt><trkpt lat="44.537950096428965" lon="8.863967665697363"><ele>313.0</ele><time>2026-04-25T10:59:12.999Z</time></trkpt><trkpt lat="44.53807258158381" lon="8.863860870806983"><ele>313.0</ele><time>2026-04-25T10:59:13.999Z</time></trkpt><trkpt lat="44.5381785841397" lon="8.863781705410108"><ele>313.3333333333333</ele><time>2026-04-25T10:59:14.999Z</time></trkpt><trkpt lat="44.53825330571483" lon="8.863690908234927"><ele>313.66666666666663</ele><time>2026-04-25T10:59:15.999Z</time></trkpt><trkpt lat="44.538302722507936" lon="8.863596614491756"><ele>314.0</ele><time>2026-04-25T10:59:16.999Z</time></trkpt><trkpt lat="44.53836148400163" lon="8.863519873129583"><ele>314.3333333333333</ele><time>2026-04-25T10:59:17.999Z</time></trkpt><trkpt lat="44.53843378520529" lon="8.863446298189176"><ele>314.6666666666667</ele><time>2026-04-25T10:59:18.999Z</time></trkpt><trkpt lat="44.538508266250155" lon="8.863403006649706"><ele>315.0</ele><time>2026-04-25T10:59:19.999Z</time></trkpt><trkpt lat="44.538586584895214" lon="8.86349329407413"><ele>318.3333333333333</ele><time>2026-04-25T10:59:21.999Z</time></trkpt><trkpt lat="44.538602150432396" lon="8.863579692636774"><ele>321.6666666666667</ele><time>2026-04-25T10:59:22.999Z</time></trkpt><trkpt lat="44.538589773398115" lon="8.863678275690852"><ele>325.0</ele><time>2026-04-25T10:59:23.999Z</time></trkpt><trkpt lat="44.538512318534785" lon="8.863725827252955"><ele>328.33333333333337</ele><time>2026-04-25T10:59:24.999Z</time></trkpt><trkpt lat="44.538438144698205" lon="8.863799924367472"><ele>331.6666666666667</ele><time>2026-04-25T10:59:25.999Z</time></trkpt><trkpt lat="44.53836136435635" lon="8.863900573238162"><ele>335.0</ele><time>2026-04-25T10:59:26.999Z</time></trkpt><trkpt lat="44.538269629819524" lon="8.863993457879598"><ele>335.0</ele><time>2026-04-25T10:59:27.999Z</time></trkpt><trkpt lat="44.538195877388496" lon="8.864059338530295"><ele>335.0</ele><time>2026-04-25T10:59:28.999Z</time></trkpt><trkpt lat="44.53815492605188" lon="8.864176128701962"><ele>335.0</ele><time>2026-04-25T10:59:30.999Z</time></trkpt><trkpt lat="44.53824791871437" lon="8.864243891335095"><ele>335.0</ele><time>2026-04-25T10:59:32.999Z</time></trkpt><trkpt lat="44.53830906350333" lon="8.864222739137668"><ele>335.0</ele><time>2026-04-25T10:59:33.999Z</time></trkpt><trkpt lat="44.53839267397324" lon="8.864172417991961"><ele>335.0</ele><time>2026-04-25T10:59:34.999Z</time></trkpt><trkpt lat="44.53849869395807" lon="8.864126380078504"><ele>335.0</ele><time>2026-04-25T10:59:35.999Z</time></trkpt><trkpt lat="44.538612577308996" lon="8.864056789678859"><ele>335.0</ele><time>2026-04-25T10:59:36.999Z</time></trkpt><trkpt lat="44.538728903688906" lon="8.863969498115454"><ele>335.0</ele><time>2026-04-25T10:59:37.999Z</time></trkpt><trkpt lat="44.538830585243744" lon="8.86387748217467"><ele>335.0</ele><time>2026-04-25T10:59:38.999Z</time></trkpt><trkpt lat="44.538914462340756" lon="8.863788398186465"><ele>336.6666666666667</ele><time>2026-04-25T10:59:39.999Z</time></trkpt><trkpt lat="44.5389959599692" lon="8.863738961624014"><ele>338.33333333333337</ele><time>2026-04-25T10:59:40.999Z</time></trkpt><trkpt lat="44.53905512950872" lon="8.863694951601685"><ele>340.0</ele><time>2026-04-25T10:59:41.999Z</time></trkpt><trkpt lat="44.5391354453063" lon="8.863747260504645"><ele>341.6666666666667</ele><time>2026-04-25T10:59:43.999Z</time></trkpt><trkpt lat="44.53913760748637" lon="8.863840290148445"><ele>343.3333333333333</ele><time>2026-04-25T10:59:44.999Z</time></trkpt><trkpt lat="44.53908385208493" lon="8.863916447077953"><ele>345.0</ele><time>2026-04-25T10:59:45.999Z</time></trkpt><trkpt lat="44.53903243584507" lon="8.863998993107998"><ele>345.0</ele><time>2026-04-25T10:59:46.999Z</time></trkpt><trkpt lat="44.53897161441382" lon="8.86411437995312"><ele>345.0</ele><time>2026-04-25T10:59:47.999Z</time></trkpt><trkpt lat="44.53889052944604" lon="8.864224811000707"><ele>345.0</ele><time>2026-04-25T10:59:48.999Z</time></trkpt><trkpt lat="44.53878130570223" lon="8.864263029731415"><ele>345.0</ele><time>2026-04-25T10:59:49.999Z</time></trkpt><trkpt lat="44.53871973850857" lon="8.864333132673806"><ele>345.0</ele><time>2026-04-25T10:59:50.999Z</time></trkpt><trkpt lat="44.53868351338941" lon="8.86444496650917"><ele>349.4</ele><time>2026-04-25T10:59:52.999Z</time></trkpt><trkpt lat="44.53877921270088" lon="8.864503383090222"><ele>353.8</ele><time>2026-04-25T10:59:54.999Z</time></trkpt><trkpt lat="44.53885560058516" lon="8.864490284365289"><ele>358.20000000000005</ele><time>2026-04-25T10:59:55.999Z</time></trkpt><trkpt lat="44.53895404302974" lon="8.864462203872682"><ele>362.6</ele><time>2026-04-25T10:59:56.999Z</time></trkpt><trkpt lat="44.53906041905021" lon="8.864430634030178"><ele>367.0</ele><time>2026-04-25T10:59:57.999Z</time></trkpt><trkpt lat="44.539167963611305" lon="8.864410733483995"><ele>367.0</ele><time>2026-04-25T10:59:58.999Z</time></trkpt><trkpt lat="44.539273615109316" lon="8.864408370320012"><ele>367.0</ele><time>2026-04-25T10:59:59.999Z</time></trkpt><trkpt lat="44.539373732921774" lon="8.864431064829624"><ele>367.0</ele><time>2026-04-25T11:00:00.999Z</time></trkpt><trkpt lat="44.53946560219372" lon="8.864502588267982"><ele>367.0</ele><time>2026-04-25T11:00:01.999Z</time></trkpt><trkpt lat="44.539557397731315" lon="8.864537898095751"><ele>367.0</ele><time>2026-04-25T11:00:02.999Z</time></trkpt><trkpt lat="44.539610245970174" lon="8.86460549427698"><ele>367.0</ele><time>2026-04-25T11:00:03.999Z</time></trkpt><trkpt lat="44.53958694200634" lon="8.864762495519113"><ele>367.0</ele><time>2026-04-25T11:00:05.999Z</time></trkpt><trkpt lat="44.53950916068306" lon="8.864800316693247"><ele>367.0</ele><time>2026-04-25T11:00:06.999Z</time></trkpt><trkpt lat="44.539431148297865" lon="8.864879682348661"><ele>367.0</ele><time>2026-04-25T11:00:07.999Z</time></trkpt><trkpt lat="44.53934609668185" lon="8.864921216950533"><ele>367.0</ele><time>2026-04-25T11:00:08.999Z</time></trkpt><trkpt lat="44.53924378092443" lon="8.864969781463135"><ele>367.0</ele><time>2026-04-25T11:00:09.999Z</time></trkpt><trkpt lat="44.53911684916593" lon="8.864979697365055"><ele>367.0</ele><time>2026-04-25T11:00:10.999Z</time></trkpt><trkpt lat="44.53899727749065" lon="8.865001581129851"><ele>367.0</ele><time>2026-04-25T11:00:11.999Z</time></trkpt><trkpt lat="44.53887846136868" lon="8.865016461933006"><ele>367.0</ele><time>2026-04-25T11:00:12.999Z</time></trkpt><trkpt lat="44.538750457886344" lon="8.865030843184064"><ele>366.0</ele><time>2026-04-25T11:00:13.999Z</time></trkpt><trkpt lat="44.538640420413934" lon="8.865026006723559"><ele>365.0</ele><time>2026-04-25T11:00:14.999Z</time></trkpt><trkpt lat="44.53855565631154" lon="8.865007350960472"><ele>364.0</ele><time>2026-04-25T11:00:15.999Z</time></trkpt><trkpt lat="44.53849023861685" lon="8.86498245457954"><ele>363.0</ele><time>2026-04-25T11:00:16.999Z</time></trkpt><trkpt lat="44.53841112104455" lon="8.865039732615422"><ele>362.0</ele><time>2026-04-25T11:00:18.999Z</time></trkpt><trkpt lat="44.538432783679774" lon="8.865177624395427"><ele>365.6</ele><time>2026-04-25T11:00:20.999Z</time></trkpt><trkpt lat="44.538510708348326" lon="8.865225778872503"><ele>369.20000000000005</ele><time>2026-04-25T11:00:21.999Z</time></trkpt><trkpt lat="44.5386124077992" lon="8.865248707485788"><ele>372.8</ele><time>2026-04-25T11:00:22.999Z</time></trkpt><trkpt lat="44.53873339051849" lon="8.865251601001251"><ele>376.4</ele><time>2026-04-25T11:00:23.999Z</time></trkpt><trkpt lat="44.53885450869976" lon="8.865234228831048"><ele>380.0</ele><time>2026-04-25T11:00:24.999Z</time></trkpt><trkpt lat="44.53896794539984" lon="8.8652329381592"><ele>382.25</ele><time>2026-04-25T11:00:25.999Z</time></trkpt><trkpt lat="44.539090633802104" lon="8.865258350722666"><ele>384.5</ele><time>2026-04-25T11:00:26.999Z</time></trkpt><trkpt lat="44.539222251273614" lon="8.865309541720848"><ele>386.75</ele><time>2026-04-25T11:00:27.999Z</time></trkpt><trkpt lat="44.53935752195608" lon="8.865362632610404"><ele>389.0</ele><time>2026-04-25T11:00:28.999Z</time></trkpt><trkpt lat="44.53948362781697" lon="8.865402145180362"><ele>389.4</ele><time>2026-04-25T11:00:29.999Z</time></trkpt><trkpt lat="44.539613199186824" lon="8.865427792192369"><ele>389.79999999999995</ele><time>2026-04-25T11:00:30.999Z</time></trkpt><trkpt lat="44.53973541922606" lon="8.865432603059292"><ele>390.20000000000005</ele><time>2026-04-25T11:00:31.999Z</time></trkpt><trkpt lat="44.53982855486388" lon="8.865438636350149"><ele>390.6</ele><time>2026-04-25T11:00:32.999Z</time></trkpt><trkpt lat="44.53990880960925" lon="8.865477421932232"><ele>391.0</ele><time>2026-04-25T11:00:33.999Z</time></trkpt><trkpt lat="44.53998339519415" lon="8.86556091115157"><ele>391.0</ele><time>2026-04-25T11:00:34.999Z</time></trkpt><trkpt lat="44.54005284113891" lon="8.865643160453436"><ele>391.0</ele><time>2026-04-25T11:00:35.999Z</time></trkpt><trkpt lat="44.54012184709597" lon="8.865748969208472"><ele>391.0</ele><time>2026-04-25T11:00:36.999Z</time></trkpt><trkpt lat="44.54018212152855" lon="8.865887179295898"><ele>391.0</ele><time>2026-04-25T11:00:37.999Z</time></trkpt><trkpt lat="44.540235976858256" lon="8.866040031590199"><ele>391.0</ele><time>2026-04-25T11:00:38.999Z</time></trkpt><trkpt lat="44.54028879696923" lon="8.866183649167917"><ele>393.0</ele><time>2026-04-25T11:00:39.999Z</time></trkpt><trkpt lat="44.54036337930248" lon="8.86630724175021"><ele>395.0</ele><time>2026-04-25T11:00:40.999Z</time></trkpt><trkpt lat="44.540450032094625" lon="8.866427290106651"><ele>397.0</ele><time>2026-04-25T11:00:41.999Z</time></trkpt><trkpt lat="44.54054064906443" lon="8.866553320043055"><ele>399.0</ele><time>2026-04-25T11:00:42.999Z</time></trkpt><trkpt lat="44.54063969206428" lon="8.866687120597017"><ele>400.5</ele><time>2026-04-25T11:00:43.999Z</time></trkpt><trkpt lat="44.540718440393206" lon="8.866832159313027"><ele>402.0</ele><time>2026-04-25T11:00:44.999Z</time></trkpt><trkpt lat="44.54081094093606" lon="8.866937461699642"><ele>403.5</ele><time>2026-04-25T11:00:45.999Z</time></trkpt><trkpt lat="44.540892266482544" lon="8.86703753545266"><ele>405.0</ele><time>2026-04-25T11:00:46.999Z</time></trkpt><trkpt lat="44.540981390431924" lon="8.867111751265503"><ele>405.0</ele><time>2026-04-25T11:00:47.999Z</time></trkpt><trkpt lat="44.54107210534598" lon="8.867162582583465"><ele>405.0</ele><time>2026-04-25T11:00:48.999Z</time></trkpt><trkpt lat="44.541129805043596" lon="8.867239570316453"><ele>405.0</ele><time>2026-04-25T11:00:49.999Z</time></trkpt><trkpt lat="44.54118212016237" lon="8.86731113385173"><ele>405.0</ele><time>2026-04-25T11:00:50.999Z</time></trkpt><trkpt lat="44.54116888461665" lon="8.867427925394255"><ele>405.0</ele><time>2026-04-25T11:00:51.999Z</time></trkpt><trkpt lat="44.54114662559929" lon="8.867551732173247"><ele>405.0</ele><time>2026-04-25T11:00:52.999Z</time></trkpt><trkpt lat="44.54112837441351" lon="8.867707188707874"><ele>406.25</ele><time>2026-04-25T11:00:53.999Z</time></trkpt><trkpt lat="44.54110867471568" lon="8.867855922657395"><ele>407.5</ele><time>2026-04-25T11:00:54.999Z</time></trkpt><trkpt lat="44.54111736367802" lon="8.868011142108607"><ele>408.75</ele><time>2026-04-25T11:00:55.999Z</time></trkpt><trkpt lat="44.54115583068242" lon="8.868169633046827"><ele>410.0</ele><time>2026-04-25T11:00:56.999Z</time></trkpt><trkpt lat="44.541183477370986" lon="8.868327470505312"><ele>411.3333333333333</ele><time>2026-04-25T11:00:57.999Z</time></trkpt><trkpt lat="44.54120099056411" lon="8.868459689632454"><ele>412.66666666666663</ele><time>2026-04-25T11:00:58.999Z</time></trkpt><trkpt lat="44.541234125373784" lon="8.86856707187823"><ele>414.0</ele><time>2026-04-25T11:00:59.999Z</time></trkpt><trkpt lat="44.541297579495755" lon="8.868631391992139"><ele>415.33333333333337</ele><time>2026-04-25T11:01:00.999Z</time></trkpt><trkpt lat="44.54135849124986" lon="8.868600220697125"><ele>416.6666666666667</ele><time>2026-04-25T11:01:01.999Z</time></trkpt><trkpt lat="44.5414415750486" lon="8.868485404285556"><ele>418.0</ele><time>2026-04-25T11:01:03.999Z</time></trkpt><trkpt lat="44.54149734890587" lon="8.868377388983317"><ele>418.0</ele><time>2026-04-25T11:01:04.999Z</time></trkpt><trkpt lat="44.54157858871469" lon="8.86827429666039"><ele>418.0</ele><time>2026-04-25T11:01:05.999Z</time></trkpt><trkpt lat="44.54165860445116" lon="8.868176616957617"><ele>418.0</ele><time>2026-04-25T11:01:06.999Z</time></trkpt><trkpt lat="44.54173641169589" lon="8.868100674125413"><ele>418.0</ele><time>2026-04-25T11:01:07.999Z</time></trkpt><trkpt lat="44.54182944851328" lon="8.86806067526218"><ele>418.0</ele><time>2026-04-25T11:01:08.999Z</time></trkpt><trkpt lat="44.541932596363026" lon="8.86811467695614"><ele>418.00000000000006</ele><time>2026-04-25T11:01:09.999Z</time></trkpt><trkpt lat="44.54202399677982" lon="8.868096580581291"><ele>418.0</ele><time>2026-04-25T11:01:10.999Z</time></trkpt><trkpt lat="44.54209064717255" lon="8.86806981199184"><ele>418.0</ele><time>2026-04-25T11:01:11.999Z</time></trkpt><trkpt lat="44.54213371774046" lon="8.86800523376507"><ele>418.0</ele><time>2026-04-25T11:01:12.999Z</time></trkpt><trkpt lat="44.54216123769162" lon="8.867910792640268"><ele>418.00000000000006</ele><time>2026-04-25T11:01:13.999Z</time></trkpt><trkpt lat="44.54218624020727" lon="8.867774622407557"><ele>418.0</ele><time>2026-04-25T11:01:14.999Z</time></trkpt><trkpt lat="44.542214725111485" lon="8.867637677292226"><ele>420.00000000000006</ele><time>2026-04-25T11:01:15.999Z</time></trkpt><trkpt lat="44.54224493686419" lon="8.86752995730355"><ele>422.0</ele><time>2026-04-25T11:01:16.999Z</time></trkpt><trkpt lat="44.54229212698211" lon="8.867460454453832"><ele>424.0</ele><time>2026-04-25T11:01:17.999Z</time></trkpt><trkpt lat="44.542394397450636" lon="8.86747577893252"><ele>426.0</ele><time>2026-04-25T11:01:19.999Z</time></trkpt><trkpt lat="44.54241590019505" lon="8.867582756220116"><ele>428.00000000000006</ele><time>2026-04-25T11:01:20.999Z</time></trkpt><trkpt lat="44.54240698165587" lon="8.867682771431072"><ele>430.0</ele><time>2026-04-25T11:01:21.999Z</time></trkpt><trkpt lat="44.54241000153133" lon="8.867814844429377"><ele>431.00000000000006</ele><time>2026-04-25T11:01:22.999Z</time></trkpt><trkpt lat="44.54239563942543" lon="8.867960910880278"><ele>432.0</ele><time>2026-04-25T11:01:23.999Z</time></trkpt><trkpt lat="44.5423878702898" lon="8.86810669572617"><ele>433.0</ele><time>2026-04-25T11:01:24.999Z</time></trkpt><trkpt lat="44.54240939094296" lon="8.868226547369828"><ele>434.0</ele><time>2026-04-25T11:01:25.999Z</time></trkpt><trkpt lat="44.54244833895429" lon="8.868299974393517"><ele>435.00000000000006</ele><time>2026-04-25T11:01:26.999Z</time></trkpt><trkpt lat="44.542500709364006" lon="8.868355135041048"><ele>436.0</ele><time>2026-04-25T11:01:28.999Z</time></trkpt><trkpt lat="44.54257202301725" lon="8.868303805003057"><ele>436.0</ele><time>2026-04-25T11:01:29.999Z</time></trkpt><trkpt lat="44.54260915394267" lon="8.868167660554976"><ele>436.0</ele><time>2026-04-25T11:01:30.999Z</time></trkpt><trkpt lat="44.54265529883924" lon="8.868045752354867"><ele>436.0</ele><time>2026-04-25T11:01:31.999Z</time></trkpt><trkpt lat="44.542716857481324" lon="8.867959227506034"><ele>436.0</ele><time>2026-04-25T11:01:32.999Z</time></trkpt><trkpt lat="44.54279001291056" lon="8.867886916532875"><ele>436.0</ele><time>2026-04-25T11:01:33.999Z</time></trkpt><trkpt lat="44.5428738575947" lon="8.86781498399803"><ele>439.0</ele><time>2026-04-25T11:01:34.999Z</time></trkpt><trkpt lat="44.54297272700756" lon="8.867749116760196"><ele>442.0</ele><time>2026-04-25T11:01:35.999Z</time></trkpt><trkpt lat="44.54309167462139" lon="8.867707008471099"><ele>445.0</ele><time>2026-04-25T11:01:36.999Z</time></trkpt><trkpt lat="44.543197768948794" lon="8.867677124708987"><ele>448.0</ele><time>2026-04-25T11:01:37.999Z</time></trkpt><trkpt lat="44.543296846759326" lon="8.86764026789822"><ele>451.0</ele><time>2026-04-25T11:01:38.999Z</time></trkpt><trkpt lat="44.543382089929835" lon="8.867590116193695"><ele>451.0</ele><time>2026-04-25T11:01:39.999Z</time></trkpt><trkpt lat="44.54344430012858" lon="8.867509177922793"><ele>451.0</ele><time>2026-04-25T11:01:40.999Z</time></trkpt><trkpt lat="44.5434901165868" lon="8.867403780990013"><ele>451.0</ele><time>2026-04-25T11:01:41.999Z</time></trkpt><trkpt lat="44.543520950458586" lon="8.867267515877263"><ele>451.0</ele><time>2026-04-25T11:01:42.999Z</time></trkpt><trkpt lat="44.54353626961241" lon="8.8671124945908"><ele>451.0</ele><time>2026-04-25T11:01:43.999Z</time></trkpt><trkpt lat="44.54355770929647" lon="8.866993752490831"><ele>451.00000000000006</ele><time>2026-04-25T11:01:44.999Z</time></trkpt><trkpt lat="44.54360336031377" lon="8.866920162397065"><ele>451.0</ele><time>2026-04-25T11:01:45.999Z</time></trkpt><trkpt lat="44.543670383367775" lon="8.86685797379603"><ele>451.0</ele><time>2026-04-25T11:01:46.999Z</time></trkpt><trkpt lat="44.54375067090347" lon="8.86680854848312"><ele>451.0</ele><time>2026-04-25T11:01:47.999Z</time></trkpt><trkpt lat="44.54384475151961" lon="8.86677655395783"><ele>451.00000000000006</ele><time>2026-04-25T11:01:48.999Z</time></trkpt><trkpt lat="44.54394092695502" lon="8.866795654299164"><ele>451.0</ele><time>2026-04-25T11:01:49.999Z</time></trkpt><trkpt lat="44.544028571155835" lon="8.866814124134242"><ele>453.8</ele><time>2026-04-25T11:01:50.999Z</time></trkpt><trkpt lat="44.54410826719193" lon="8.866843694988525"><ele>456.6</ele><time>2026-04-25T11:01:51.999Z</time></trkpt><trkpt lat="44.54421554546409" lon="8.866953031206178"><ele>459.4</ele><time>2026-04-25T11:01:52.999Z</time></trkpt><trkpt lat="44.54426729690333" lon="8.8670293018718"><ele>462.2</ele><time>2026-04-25T11:01:53.999Z</time></trkpt><trkpt lat="44.54431476097504" lon="8.867145628997447"><ele>465.0</ele><time>2026-04-25T11:01:54.999Z</time></trkpt><trkpt lat="44.544372063424525" lon="8.867300133804235"><ele>465.0</ele><time>2026-04-25T11:01:55.999Z</time></trkpt><trkpt lat="44.54445238626286" lon="8.867455041736582"><ele>465.0</ele><time>2026-04-25T11:01:56.999Z</time></trkpt><trkpt lat="44.54451523209344" lon="8.867591813632538"><ele>465.0</ele><time>2026-04-25T11:01:57.999Z</time></trkpt><trkpt lat="44.54455383784506" lon="8.867763817998137"><ele>465.0</ele><time>2026-04-25T11:01:58.999Z</time></trkpt><trkpt lat="44.54457597588665" lon="8.867955287379612"><ele>466.5</ele><time>2026-04-25T11:01:59.999Z</time></trkpt><trkpt lat="44.54460412351547" lon="8.86811992054902"><ele>468.0</ele><time>2026-04-25T11:02:01Z</time></trkpt><trkpt lat="44.5446484451257" lon="8.868232124728697"><ele>469.5</ele><time>2026-04-25T11:02:02Z</time></trkpt><trkpt lat="44.54469677569534" lon="8.868309591980037"><ele>471.0</ele><time>2026-04-25T11:02:03Z</time></trkpt><trkpt lat="44.544767807370114" lon="8.868339346314778"><ele>472.5</ele><time>2026-04-25T11:02:04Z</time></trkpt><trkpt lat="44.544848613740285" lon="8.868316400953377"><ele>474.0</ele><time>2026-04-25T11:02:05Z</time></trkpt><trkpt lat="44.54492580591342" lon="8.868242132025701"><ele>474.0</ele><time>2026-04-25T11:02:06Z</time></trkpt><trkpt lat="44.545008202701545" lon="8.868127110370157"><ele>474.0</ele><time>2026-04-25T11:02:07Z</time></trkpt><trkpt lat="44.54510187417725" lon="8.868001783213785"><ele>474.0</ele><time>2026-04-25T11:02:08Z</time></trkpt><trkpt lat="44.5451920068416" lon="8.86787314982568"><ele>474.0</ele><time>2026-04-25T11:02:09Z</time></trkpt><trkpt lat="44.54527570493039" lon="8.867750848892943"><ele>474.0</ele><time>2026-04-25T11:02:10Z</time></trkpt><trkpt lat="44.54538375690045" lon="8.867641219223199"><ele>474.0</ele><time>2026-04-25T11:02:11Z</time></trkpt><trkpt lat="44.54551920436139" lon="8.867548445037167"><ele>474.0</ele><time>2026-04-25T11:02:12Z</time></trkpt><trkpt lat="44.54567401221407" lon="8.867492294585864"><ele>474.0</ele><time>2026-04-25T11:02:13Z</time></trkpt><trkpt lat="44.545795620951836" lon="8.867407435468655"><ele>474.0</ele><time>2026-04-25T11:02:14Z</time></trkpt><trkpt lat="44.54590666464032" lon="8.867351361324113"><ele>474.0</ele><time>2026-04-25T11:02:15Z</time></trkpt><trkpt lat="44.54599203084749" lon="8.867279624907297"><ele>474.0</ele><time>2026-04-25T11:02:16Z</time></trkpt><trkpt lat="44.54603917357312" lon="8.867175271879393"><ele>474.0</ele><time>2026-04-25T11:02:17Z</time></trkpt><trkpt lat="44.546063326130344" lon="8.867057048264757"><ele>474.0</ele><time>2026-04-25T11:02:18Z</time></trkpt><trkpt lat="44.54607800605255" lon="8.86690448900541"><ele>473.4</ele><time>2026-04-25T11:02:19Z</time></trkpt><trkpt lat="44.546105700508825" lon="8.866738163365223"><ele>472.79999999999995</ele><time>2026-04-25T11:02:20Z</time></trkpt><trkpt lat="44.54617249484857" lon="8.866619461211911"><ele>472.20000000000005</ele><time>2026-04-25T11:02:21Z</time></trkpt><trkpt lat="44.5462280656228" lon="8.866546260205876"><ele>471.6</ele><time>2026-04-25T11:02:22Z</time></trkpt><trkpt lat="44.546290016572705" lon="8.866493096781763"><ele>471.0</ele><time>2026-04-25T11:02:23Z</time></trkpt><trkpt lat="44.5463604874704" lon="8.866458691876213"><ele>473.5</ele><time>2026-04-25T11:02:24Z</time></trkpt><trkpt lat="44.54644970851515" lon="8.866458033278409"><ele>476.0</ele><time>2026-04-25T11:02:25Z</time></trkpt><trkpt lat="44.54655889906407" lon="8.866474499907115"><ele>478.5</ele><time>2026-04-25T11:02:26Z</time></trkpt><trkpt lat="44.54670122007316" lon="8.866488018117078"><ele>481.0</ele><time>2026-04-25T11:02:27Z</time></trkpt><trkpt lat="44.546837001646075" lon="8.866547865637687"><ele>481.0</ele><time>2026-04-25T11:02:28Z</time></trkpt><trkpt lat="44.54695074425406" lon="8.866644312791804"><ele>481.0</ele><time>2026-04-25T11:02:29Z</time></trkpt><trkpt lat="44.54706727420749" lon="8.866757035681749"><ele>481.0</ele><time>2026-04-25T11:02:30Z</time></trkpt><trkpt lat="44.547201401305976" lon="8.866869388909334"><ele>481.0</ele><time>2026-04-25T11:02:31Z</time></trkpt><trkpt lat="44.54731934400654" lon="8.866982099973448"><ele>484.0</ele><time>2026-04-25T11:02:32Z</time></trkpt><trkpt lat="44.54740770950954" lon="8.867080582143618"><ele>487.0</ele><time>2026-04-25T11:02:33Z</time></trkpt><trkpt lat="44.54746948300519" lon="8.867195383870653"><ele>490.0</ele><time>2026-04-25T11:02:34Z</time></trkpt><trkpt lat="44.54750704216246" lon="8.86732124891838"><ele>493.0</ele><time>2026-04-25T11:02:35Z</time></trkpt><trkpt lat="44.54754001629974" lon="8.867462644155411"><ele>496.0</ele><time>2026-04-25T11:02:36Z</time></trkpt><trkpt lat="44.54758613204819" lon="8.867603600246017"><ele>499.4</ele><time>2026-04-25T11:02:37Z</time></trkpt><trkpt lat="44.547630819902786" lon="8.867754996013407"><ele>502.8</ele><time>2026-04-25T11:02:38Z</time></trkpt><trkpt lat="44.54763657098444" lon="8.867900820708412"><ele>506.19999999999993</ele><time>2026-04-25T11:02:39Z</time></trkpt><trkpt lat="44.54762229154405" lon="8.868015334900765"><ele>509.59999999999997</ele><time>2026-04-25T11:02:40Z</time></trkpt><trkpt lat="44.54755608935636" lon="8.86810257377331"><ele>513.0</ele><time>2026-04-25T11:02:40.999Z</time></trkpt><trkpt lat="44.547500599170554" lon="8.868233053102834"><ele>513.0</ele><time>2026-04-25T11:02:41.999Z</time></trkpt><trkpt lat="44.54742596901168" lon="8.868353611365412"><ele>513.0</ele><time>2026-04-25T11:02:42.999Z</time></trkpt><trkpt lat="44.54734839118866" lon="8.868439500717823"><ele>513.0</ele><time>2026-04-25T11:02:43.999Z</time></trkpt><trkpt lat="44.54727892534939" lon="8.86848408756171"><ele>513.0</ele><time>2026-04-25T11:02:44.999Z</time></trkpt><trkpt lat="44.54721307822683" lon="8.868543803907368"><ele>513.0</ele><time>2026-04-25T11:02:45.999Z</time></trkpt><trkpt lat="44.5471324737839" lon="8.868567008343106"><ele>516.0</ele><time>2026-04-25T11:02:46.999Z</time></trkpt><trkpt lat="44.547048057526354" lon="8.868600311083085"><ele>519.0</ele><time>2026-04-25T11:02:47.999Z</time></trkpt><trkpt lat="44.54694511719757" lon="8.868600520118857"><ele>522.0</ele><time>2026-04-25T11:02:48.999Z</time></trkpt><trkpt lat="44.546838643366485" lon="8.868630215641627"><ele>525.0</ele><time>2026-04-25T11:02:49.999Z</time></trkpt><trkpt lat="44.546741673803915" lon="8.868612776700251"><ele>528.0</ele><time>2026-04-25T11:02:50.999Z</time></trkpt><trkpt lat="44.54667780509369" lon="8.868508228639735"><ele>528.0</ele><time>2026-04-25T11:02:51.999Z</time></trkpt><trkpt lat="44.54660514450992" lon="8.86849546243071"><ele>528.0</ele><time>2026-04-25T11:02:52.999Z</time></trkpt><trkpt lat="44.5464977299062" lon="8.868489701362906"><ele>528.0</ele><time>2026-04-25T11:02:54.999Z</time></trkpt><trkpt lat="44.54644377050097" lon="8.868579671007419"><ele>528.0</ele><time>2026-04-25T11:02:55.999Z</time></trkpt><trkpt lat="44.54637956294556" lon="8.868706504290795"><ele>528.0</ele><time>2026-04-25T11:02:56.999Z</time></trkpt><trkpt lat="44.54631110945354" lon="8.868848413994293"><ele>528.0</ele><time>2026-04-25T11:02:57.999Z</time></trkpt><trkpt lat="44.5462756637594" lon="8.86899145634995"><ele>528.0</ele><time>2026-04-25T11:02:58.999Z</time></trkpt><trkpt lat="44.54626914338669" lon="8.869126903212685"><ele>528.0</ele><time>2026-04-25T11:02:59.999Z</time></trkpt><trkpt lat="44.5462701288765" lon="8.869290546121322"><ele>528.0</ele><time>2026-04-25T11:03:00.999Z</time></trkpt><trkpt lat="44.54623655455298" lon="8.869464335154145"><ele>526.6</ele><time>2026-04-25T11:03:01.999Z</time></trkpt><trkpt lat="44.54621423482897" lon="8.869647554238044"><ele>525.1999999999999</ele><time>2026-04-25T11:03:02.999Z</time></trkpt><trkpt lat="44.546171658254494" lon="8.869786189717425"><ele>523.8</ele><time>2026-04-25T11:03:03.999Z</time></trkpt><trkpt lat="44.54613145737347" lon="8.869881171172278"><ele>522.4</ele><time>2026-04-25T11:03:04.999Z</time></trkpt><trkpt lat="44.54606921439033" lon="8.86990895910425"><ele>521.0</ele><time>2026-04-25T11:03:05.999Z</time></trkpt><trkpt lat="44.5459793161718" lon="8.869919427939305"><ele>521.0</ele><time>2026-04-25T11:03:06.999Z</time></trkpt><trkpt lat="44.54584940800416" lon="8.869844553179236"><ele>521.0</ele><time>2026-04-25T11:03:07.999Z</time></trkpt><trkpt lat="44.54572591313437" lon="8.869814960573281"><ele>521.0</ele><time>2026-04-25T11:03:08.999Z</time></trkpt><trkpt lat="44.545619461387666" lon="8.869838616754226"><ele>521.0</ele><time>2026-04-25T11:03:09.999Z</time></trkpt><trkpt lat="44.54550409199501" lon="8.869884602340127"><ele>521.0</ele><time>2026-04-25T11:03:10.999Z</time></trkpt><trkpt lat="44.545401563086166" lon="8.869941847402592"><ele>521.0</ele><time>2026-04-25T11:03:11.999Z</time></trkpt><trkpt lat="44.5453239713033" lon="8.87001891849608"><ele>521.0</ele><time>2026-04-25T11:03:12.999Z</time></trkpt><trkpt lat="44.54528084133502" lon="8.870109980071053"><ele>521.0</ele><time>2026-04-25T11:03:13.999Z</time></trkpt><trkpt lat="44.545279214342635" lon="8.870222131806912"><ele>521.0</ele><time>2026-04-25T11:03:14.999Z</time></trkpt><trkpt lat="44.54530229786174" lon="8.87036107320125"><ele>518.75</ele><time>2026-04-25T11:03:15.999Z</time></trkpt><trkpt lat="44.545341026398575" lon="8.870526801073545"><ele>516.5</ele><time>2026-04-25T11:03:16.999Z</time></trkpt><trkpt lat="44.545411494948866" lon="8.870689547358516"><ele>514.25</ele><time>2026-04-25T11:03:17.999Z</time></trkpt><trkpt lat="44.54548636431954" lon="8.87085887361581"><ele>512.0</ele><time>2026-04-25T11:03:18.999Z</time></trkpt><trkpt lat="44.54555573628838" lon="8.871022069555494"><ele>520.5</ele><time>2026-04-25T11:03:19.999Z</time></trkpt><trkpt lat="44.54563133155401" lon="8.87118967774654"><ele>529.0</ele><time>2026-04-25T11:03:20.999Z</time></trkpt><trkpt lat="44.545715990495616" lon="8.871324489330435"><ele>537.5</ele><time>2026-04-25T11:03:21.999Z</time></trkpt><trkpt lat="44.545752337457785" lon="8.871444075313384"><ele>546.0</ele><time>2026-04-25T11:03:22.999Z</time></trkpt><trkpt lat="44.54574683888209" lon="8.871594599426336"><ele>546.0</ele><time>2026-04-25T11:03:24.999Z</time></trkpt><trkpt lat="44.545625758277374" lon="8.871622841722736"><ele>546.0</ele><time>2026-04-25T11:03:26.999Z</time></trkpt><trkpt lat="44.5455293745775" lon="8.871649975950843"><ele>546.0</ele><time>2026-04-25T11:03:27.999Z</time></trkpt><trkpt lat="44.54539435501862" lon="8.87166612965517"><ele>546.0</ele><time>2026-04-25T11:03:28.999Z</time></trkpt><trkpt lat="44.545240777472834" lon="8.871668580808905"><ele>543.0</ele><time>2026-04-25T11:03:29.999Z</time></trkpt><trkpt lat="44.54507771539605" lon="8.871709993747595"><ele>540.0</ele><time>2026-04-25T11:03:30.999Z</time></trkpt><trkpt lat="44.544912709588324" lon="8.871745562462172"><ele>537.0</ele><time>2026-04-25T11:03:31.999Z</time></trkpt><trkpt lat="44.54476405371254" lon="8.87179033206574"><ele>536.4</ele><time>2026-04-25T11:03:32.999Z</time></trkpt><trkpt lat="44.54464372034857" lon="8.8718295174139"><ele>535.8000000000001</ele><time>2026-04-25T11:03:33.999Z</time></trkpt><trkpt lat="44.54454056662856" lon="8.871844952254312"><ele>535.2</ele><time>2026-04-25T11:03:34.999Z</time></trkpt><trkpt lat="44.54446078967182" lon="8.87180518146728"><ele>534.6</ele><time>2026-04-25T11:03:35.999Z</time></trkpt><trkpt lat="44.544427836009504" lon="8.871700811225667"><ele>534.0</ele><time>2026-04-25T11:03:36.999Z</time></trkpt><trkpt lat="44.54435127865967" lon="8.871641388977116"><ele>534.0</ele><time>2026-04-25T11:03:37.999Z</time></trkpt><trkpt lat="44.54429857861876" lon="8.87157326167045"><ele>534.0</ele><time>2026-04-25T11:03:38.999Z</time></trkpt><trkpt lat="44.54422705456919" lon="8.871592482804443"><ele>534.0</ele><time>2026-04-25T11:03:39.999Z</time></trkpt><trkpt lat="44.54414766014921" lon="8.871680488350233"><ele>534.0</ele><time>2026-04-25T11:03:40.999Z</time></trkpt><trkpt lat="44.54406976565221" lon="8.871812909005042"><ele>534.0</ele><time>2026-04-25T11:03:41.999Z</time></trkpt><trkpt lat="44.543974886667534" lon="8.871926060044578"><ele>539.0</ele><time>2026-04-25T11:03:42.999Z</time></trkpt><trkpt lat="44.54383577565196" lon="8.872008650864334"><ele>544.0</ele><time>2026-04-25T11:03:43.999Z</time></trkpt><trkpt lat="44.54368146453825" lon="8.872141399274618"><ele>549.0</ele><time>2026-04-25T11:03:44.999Z</time></trkpt><trkpt lat="44.543542163539264" lon="8.87230957512908"><ele>549.0</ele><time>2026-04-25T11:03:45.999Z</time></trkpt><trkpt lat="44.54341748286234" lon="8.87247582942751"><ele>549.0</ele><time>2026-04-25T11:03:46.999Z</time></trkpt><trkpt lat="44.54331535135202" lon="8.872584855164812"><ele>549.0</ele><time>2026-04-25T11:03:47.999Z</time></trkpt><trkpt lat="44.54321756295631" lon="8.872614976837584"><ele>549.0</ele><time>2026-04-25T11:03:48.999Z</time></trkpt><trkpt lat="44.54310284886617" lon="8.872649971331454"><ele>557.25</ele><time>2026-04-25T11:03:49.999Z</time></trkpt><trkpt lat="44.542981754072144" lon="8.87269196892868"><ele>565.5</ele><time>2026-04-25T11:03:50.999Z</time></trkpt><trkpt lat="44.542849297355495" lon="8.872617405200428"><ele>573.75</ele><time>2026-04-25T11:03:51.999Z</time></trkpt><trkpt lat="44.54270256601884" lon="8.872632421658288"><ele>582.0</ele><time>2026-04-25T11:03:52.999Z</time></trkpt><trkpt lat="44.542564975372926" lon="8.872626244921376"><ele>584.5</ele><time>2026-04-25T11:03:53.999Z</time></trkpt><trkpt lat="44.542439198393076" lon="8.872598464578646"><ele>587.0</ele><time>2026-04-25T11:03:54.999Z</time></trkpt><trkpt lat="44.54231740882661" lon="8.872598102675902"><ele>589.5</ele><time>2026-04-25T11:03:55.999Z</time></trkpt><trkpt lat="44.54218887989968" lon="8.872620306453536"><ele>592.0</ele><time>2026-04-25T11:03:56.999Z</time></trkpt><trkpt lat="44.54205934354221" lon="8.872650091659226"><ele>588.0</ele><time>2026-04-25T11:03:57.999Z</time></trkpt><trkpt lat="44.54191648381408" lon="8.872670184333678"><ele>584.0</ele><time>2026-04-25T11:03:58.999Z</time></trkpt><trkpt lat="44.541778322051485" lon="8.872663776290345"><ele>580.0</ele><time>2026-04-25T11:03:59.999Z</time></trkpt><trkpt lat="44.54165836443153" lon="8.87266799922941"><ele>576.0</ele><time>2026-04-25T11:04:00.999Z</time></trkpt><trkpt lat="44.541556688726985" lon="8.87270080666299"><ele>576.0</ele><time>2026-04-25T11:04:01.999Z</time></trkpt><trkpt lat="44.54148032081095" lon="8.872789630996122"><ele>576.0</ele><time>2026-04-25T11:04:02.999Z</time></trkpt><trkpt lat="44.54141730965608" lon="8.872857457080935"><ele>576.0</ele><time>2026-04-25T11:04:03.999Z</time></trkpt><trkpt lat="44.54137095629635" lon="8.872993099201336"><ele>576.0</ele><time>2026-04-25T11:04:04.999Z</time></trkpt><trkpt lat="44.541344496329785" lon="8.873188850338444"><ele>576.0</ele><time>2026-04-25T11:04:06Z</time></trkpt><trkpt lat="44.54128723135249" lon="8.873388648951591"><ele>576.4</ele><time>2026-04-25T11:04:07Z</time></trkpt><trkpt lat="44.541240314090096" lon="8.873560475722153"><ele>576.8</ele><time>2026-04-25T11:04:08Z</time></trkpt><trkpt lat="44.54118390839853" lon="8.873692667462706"><ele>577.1999999999999</ele><time>2026-04-25T11:04:09Z</time></trkpt><trkpt lat="44.54109726232706" lon="8.873741452658884"><ele>577.6</ele><time>2026-04-25T11:04:10Z</time></trkpt><trkpt lat="44.54099526395443" lon="8.873791971931848"><ele>578.0</ele><time>2026-04-25T11:04:11Z</time></trkpt><trkpt lat="44.5408648497769" lon="8.873848083633195"><ele>578.0</ele><time>2026-04-25T11:04:12Z</time></trkpt><trkpt lat="44.54072915202719" lon="8.873904852437663"><ele>578.0</ele><time>2026-04-25T11:04:13Z</time></trkpt><trkpt lat="44.540614245163866" lon="8.873980979975059"><ele>578.0</ele><time>2026-04-25T11:04:14Z</time></trkpt><trkpt lat="44.54053590036138" lon="8.874079949358986"><ele>578.0</ele><time>2026-04-25T11:04:15Z</time></trkpt><trkpt lat="44.54047044792631" lon="8.874160407567954"><ele>578.0</ele><time>2026-04-25T11:04:16Z</time></trkpt><trkpt lat="44.54040780552234" lon="8.874246123251378"><ele>578.0</ele><time>2026-04-25T11:04:17Z</time></trkpt><trkpt lat="44.54037818283177" lon="8.874399357620018"><ele>578.0</ele><time>2026-04-25T11:04:18Z</time></trkpt><trkpt lat="44.54028586908604" lon="8.8744663747123"><ele>578.0</ele><time>2026-04-25T11:04:19Z</time></trkpt><trkpt lat="44.54023521187827" lon="8.874539354052136"><ele>578.0</ele><time>2026-04-25T11:04:20Z</time></trkpt><trkpt lat="44.54020543069736" lon="8.874729051501685"><ele>577.25</ele><time>2026-04-25T11:04:22Z</time></trkpt><trkpt lat="44.54027492015083" lon="8.874876678148588"><ele>576.5</ele><time>2026-04-25T11:04:23Z</time></trkpt><trkpt lat="44.540331965255895" lon="8.875027370683439"><ele>575.75</ele><time>2026-04-25T11:04:24Z</time></trkpt><trkpt lat="44.540403777423194" lon="8.875191551863084"><ele>575.0</ele><time>2026-04-25T11:04:25Z</time></trkpt><trkpt lat="44.54049255804265" lon="8.875368650390888"><ele>580.0</ele><time>2026-04-25T11:04:26Z</time></trkpt><trkpt lat="44.54056103882525" lon="8.875566040976583"><ele>585.0</ele><time>2026-04-25T11:04:27Z</time></trkpt><trkpt lat="44.54064794832226" lon="8.875778851248294"><ele>590.0</ele><time>2026-04-25T11:04:28Z</time></trkpt><trkpt lat="44.540742034447014" lon="8.87601170884641"><ele>590.0</ele><time>2026-04-25T11:04:29Z</time></trkpt><trkpt lat="44.54082492737123" lon="8.876225701525975"><ele>590.0</ele><time>2026-04-25T11:04:30Z</time></trkpt><trkpt lat="44.54089973223284" lon="8.876397912505498"><ele>590.0</ele><time>2026-04-25T11:04:31Z</time></trkpt><trkpt lat="44.54091987940095" lon="8.876577080973087"><ele>590.0</ele><time>2026-04-25T11:04:32Z</time></trkpt><trkpt lat="44.54095235793343" lon="8.876699557706884"><ele>592.1666666666666</ele><time>2026-04-25T11:04:33Z</time></trkpt><trkpt lat="44.54098961745276" lon="8.876779576942479"><ele>594.3333333333333</ele><time>2026-04-25T11:04:34Z</time></trkpt><trkpt lat="44.541041375316496" lon="8.876840030613046"><ele>596.5</ele><time>2026-04-25T11:04:35Z</time></trkpt><trkpt lat="44.54112628050909" lon="8.876893759378332"><ele>598.6666666666666</ele><time>2026-04-25T11:04:36Z</time></trkpt><trkpt lat="44.541222558499896" lon="8.8769415846601"><ele>600.8333333333334</ele><time>2026-04-25T11:04:37Z</time></trkpt><trkpt lat="44.541319201599215" lon="8.877011988603057"><ele>603.0</ele><time>2026-04-25T11:04:38Z</time></trkpt><trkpt lat="44.54140573955779" lon="8.877122363154882"><ele>603.0</ele><time>2026-04-25T11:04:39Z</time></trkpt><trkpt lat="44.54148765324658" lon="8.877274011582001"><ele>603.0</ele><time>2026-04-25T11:04:40Z</time></trkpt><trkpt lat="44.54156559893944" lon="8.877446053169388"><ele>603.0</ele><time>2026-04-25T11:04:41Z</time></trkpt><trkpt lat="44.54164641962203" lon="8.877628401671773"><ele>603.0</ele><time>2026-04-25T11:04:42Z</time></trkpt><trkpt lat="44.54175266057909" lon="8.877813957466744"><ele>599.0</ele><time>2026-04-25T11:04:43Z</time></trkpt><trkpt lat="44.54186955854588" lon="8.877991936948634"><ele>595.0</ele><time>2026-04-25T11:04:44Z</time></trkpt><trkpt lat="44.54198614209305" lon="8.878166466010066"><ele>591.0</ele><time>2026-04-25T11:04:45Z</time></trkpt><trkpt lat="44.54208168572021" lon="8.87833059502798"><ele>591.3333333333334</ele><time>2026-04-25T11:04:46Z</time></trkpt><trkpt lat="44.54214628497791" lon="8.87845876472649"><ele>591.6666666666666</ele><time>2026-04-25T11:04:47Z</time></trkpt><trkpt lat="44.54217760352451" lon="8.878574151377762"><ele>592.0</ele><time>2026-04-25T11:04:48Z</time></trkpt><trkpt lat="44.542178540278904" lon="8.878690922344594"><ele>592.3333333333333</ele><time>2026-04-25T11:04:49Z</time></trkpt><trkpt lat="44.54214762553729" lon="8.878796303385657"><ele>592.6666666666666</ele><time>2026-04-25T11:04:50Z</time></trkpt><trkpt lat="44.54210073862798" lon="8.878895627538594"><ele>593.0</ele><time>2026-04-25T11:04:51Z</time></trkpt><trkpt lat="44.542038445902264" lon="8.878991860823833"><ele>593.0</ele><time>2026-04-25T11:04:52Z</time></trkpt><trkpt lat="44.54199200515454" lon="8.879084378358444"><ele>593.0</ele><time>2026-04-25T11:04:53Z</time></trkpt><trkpt lat="44.541931441439935" lon="8.87916326646066"><ele>593.0</ele><time>2026-04-25T11:04:54Z</time></trkpt><trkpt lat="44.54189733791009" lon="8.879278731948261"><ele>593.0</ele><time>2026-04-25T11:04:55Z</time></trkpt><trkpt lat="44.541894448813935" lon="8.879437740598302"><ele>593.0</ele><time>2026-04-25T11:04:56Z</time></trkpt><trkpt lat="44.541912131635975" lon="8.87960254835876"><ele>592.8</ele><time>2026-04-25T11:04:57Z</time></trkpt><trkpt lat="44.5419260833958" lon="8.879746944289392"><ele>592.5999999999999</ele><time>2026-04-25T11:04:58Z</time></trkpt><trkpt lat="44.54191720263665" lon="8.879902662986735"><ele>592.4000000000001</ele><time>2026-04-25T11:04:59Z</time></trkpt><trkpt lat="44.54189043663062" lon="8.880061971242856"><ele>592.2</ele><time>2026-04-25T11:05:00Z</time></trkpt><trkpt lat="44.5418704099429" lon="8.880218936620462"><ele>592.0</ele><time>2026-04-25T11:05:01Z</time></trkpt><trkpt lat="44.54184750263054" lon="8.880357747323588"><ele>591.4</ele><time>2026-04-25T11:05:02Z</time></trkpt><trkpt lat="44.54180720766526" lon="8.880488012744834"><ele>590.8000000000001</ele><time>2026-04-25T11:05:03Z</time></trkpt><trkpt lat="44.54170570563292" lon="8.880570570132411"><ele>590.2</ele><time>2026-04-25T11:05:04Z</time></trkpt><trkpt lat="44.54164149776326" lon="8.880671875436034"><ele>589.6</ele><time>2026-04-25T11:05:05Z</time></trkpt><trkpt lat="44.54158987082345" lon="8.88075926753399"><ele>589.0</ele><time>2026-04-25T11:05:06Z</time></trkpt><trkpt lat="44.541606570735084" lon="8.880893838064342"><ele>588.2</ele><time>2026-04-25T11:05:07Z</time></trkpt><trkpt lat="44.541604173237026" lon="8.881059098031523"><ele>587.4</ele><time>2026-04-25T11:05:08Z</time></trkpt><trkpt lat="44.54161401549178" lon="8.881218043422955"><ele>586.6</ele><time>2026-04-25T11:05:09Z</time></trkpt><trkpt lat="44.54164047512834" lon="8.881352784114751"><ele>585.8</ele><time>2026-04-25T11:05:10Z</time></trkpt><trkpt lat="44.54166081166375" lon="8.881466917128938"><ele>585.0</ele><time>2026-04-25T11:05:11Z</time></trkpt><trkpt lat="44.541664784360634" lon="8.881572427272527"><ele>585.0</ele><time>2026-04-25T11:05:12Z</time></trkpt><trkpt lat="44.54166595284296" lon="8.881734925019595"><ele>585.0</ele><time>2026-04-25T11:05:14Z</time></trkpt><trkpt lat="44.54171240876427" lon="8.881861977360604"><ele>585.0</ele><time>2026-04-25T11:05:15Z</time></trkpt><trkpt lat="44.54169691208626" lon="8.882013506716131"><ele>585.0</ele><time>2026-04-25T11:05:16Z</time></trkpt><trkpt lat="44.541708746367924" lon="8.882184204048412"><ele>585.0</ele><time>2026-04-25T11:05:17Z</time></trkpt><trkpt lat="44.54170690313984" lon="8.882346158108211"><ele>584.4</ele><time>2026-04-25T11:05:18Z</time></trkpt><trkpt lat="44.54172207681079" lon="8.882458975678292"><ele>583.8</ele><time>2026-04-25T11:05:19Z</time></trkpt><trkpt lat="44.541763014191645" lon="8.88254430506121"><ele>583.2</ele><time>2026-04-25T11:05:20Z</time></trkpt><trkpt lat="44.54183482742685" lon="8.882594245549845"><ele>582.6</ele><time>2026-04-25T11:05:21Z</time></trkpt><trkpt lat="44.54194532868709" lon="8.882626561048324"><ele>582.0</ele><time>2026-04-25T11:05:22Z</time></trkpt><trkpt lat="44.5420593015717" lon="8.882631174031959"><ele>580.75</ele><time>2026-04-25T11:05:23Z</time></trkpt><trkpt lat="44.542174384048096" lon="8.882598022494703"><ele>579.5</ele><time>2026-04-25T11:05:24Z</time></trkpt><trkpt lat="44.54228437322158" lon="8.882517020912216"><ele>578.25</ele><time>2026-04-25T11:05:25Z</time></trkpt><trkpt lat="44.542380160302365" lon="8.882437440695096"><ele>577.0</ele><time>2026-04-25T11:05:26Z</time></trkpt><trkpt lat="44.54248838684441" lon="8.882401109413134"><ele>581.25</ele><time>2026-04-25T11:05:27Z</time></trkpt><trkpt lat="44.54261118541156" lon="8.882430148055505"><ele>585.5</ele><time>2026-04-25T11:05:28Z</time></trkpt><trkpt lat="44.54274078180812" lon="8.88244793774028"><ele>589.75</ele><time>2026-04-25T11:05:28.999Z</time></trkpt><trkpt lat="44.54285193243608" lon="8.882463829719203"><ele>594.0</ele><time>2026-04-25T11:05:29.999Z</time></trkpt><trkpt lat="44.5429496642033" lon="8.882560747231173"><ele>592.25</ele><time>2026-04-25T11:05:30.999Z</time></trkpt><trkpt lat="44.54306113434659" lon="8.882657170595795"><ele>590.5</ele><time>2026-04-25T11:05:31.999Z</time></trkpt><trkpt lat="44.54319587601625" lon="8.882706497181134"><ele>588.75</ele><time>2026-04-25T11:05:32.999Z</time></trkpt><trkpt lat="44.543334612443864" lon="8.882750287915952"><ele>587.0</ele><time>2026-04-25T11:05:33.999Z</time></trkpt><trkpt lat="44.543463418939766" lon="8.882780319840407"><ele>587.0</ele><time>2026-04-25T11:05:34.999Z</time></trkpt><trkpt lat="44.54357672937303" lon="8.882790457305374"><ele>587.0</ele><time>2026-04-25T11:05:35.999Z</time></trkpt><trkpt lat="44.543675876861855" lon="8.882784474982357"><ele>587.0</ele><time>2026-04-25T11:05:36.999Z</time></trkpt><trkpt lat="44.54375549740234" lon="8.88277360470308"><ele>587.0</ele><time>2026-04-25T11:05:37.999Z</time></trkpt><trkpt lat="44.54383492846686" lon="8.882679897515095"><ele>587.0</ele><time>2026-04-25T11:05:39.999Z</time></trkpt><trkpt lat="44.5438080505089" lon="8.88259224882944"><ele>591.4</ele><time>2026-04-25T11:05:40.999Z</time></trkpt><trkpt lat="44.54377779200971" lon="8.882502048970055"><ele>595.8000000000001</ele><time>2026-04-25T11:05:41.999Z</time></trkpt><trkpt lat="44.54368064885319" lon="8.88242853345254"><ele>600.2</ele><time>2026-04-25T11:05:42.999Z</time></trkpt><trkpt lat="44.54357251719969" lon="8.882366509569307"><ele>604.6</ele><time>2026-04-25T11:05:43.999Z</time></trkpt><trkpt lat="44.543476717757905" lon="8.88233658719957"><ele>609.0</ele><time>2026-04-25T11:05:44.999Z</time></trkpt><trkpt lat="44.54344023427397" lon="8.882218894126776"><ele>609.0</ele><time>2026-04-25T11:05:45.999Z</time></trkpt><trkpt lat="44.54339688828762" lon="8.882091044305147"><ele>609.0</ele><time>2026-04-25T11:05:46.999Z</time></trkpt><trkpt lat="44.5433344887263" lon="8.881952591548691"><ele>609.0</ele><time>2026-04-25T11:05:47.999Z</time></trkpt><trkpt lat="44.54327978951956" lon="8.881811427057489"><ele>609.0</ele><time>2026-04-25T11:05:48.999Z</time></trkpt><trkpt lat="44.54320512768321" lon="8.881693109500064"><ele>609.0</ele><time>2026-04-25T11:05:49.999Z</time></trkpt><trkpt lat="44.54310753661385" lon="8.88159792054656"><ele>608.5</ele><time>2026-04-25T11:05:50.999Z</time></trkpt><trkpt lat="44.543002166389165" lon="8.881501419704827"><ele>608.0</ele><time>2026-04-25T11:05:51.999Z</time></trkpt><trkpt lat="44.54287266910418" lon="8.881488451265568"><ele>607.5</ele><time>2026-04-25T11:05:52.999Z</time></trkpt><trkpt lat="44.54276789687073" lon="8.881457314248525"><ele>607.0</ele><time>2026-04-25T11:05:53.999Z</time></trkpt><trkpt lat="44.542693497078155" lon="8.881367627166865"><ele>607.0</ele><time>2026-04-25T11:05:54.999Z</time></trkpt><trkpt lat="44.54262334087075" lon="8.881257795177884"><ele>607.0</ele><time>2026-04-25T11:05:55.999Z</time></trkpt><trkpt lat="44.54255603089067" lon="8.881153372031928"><ele>607.0</ele><time>2026-04-25T11:05:56.999Z</time></trkpt><trkpt lat="44.542538702039415" lon="8.88102263984358"><ele>607.0</ele><time>2026-04-25T11:05:57.999Z</time></trkpt><trkpt lat="44.54250594210119" lon="8.88088951123663"><ele>607.0</ele><time>2026-04-25T11:05:58.999Z</time></trkpt><trkpt lat="44.54250240066888" lon="8.880728667255852"><ele>610.2</ele><time>2026-04-25T11:05:59.999Z</time></trkpt><trkpt lat="44.54248300765918" lon="8.880563545283122"><ele>613.4000000000001</ele><time>2026-04-25T11:06:00.999Z</time></trkpt><trkpt lat="44.54248479981895" lon="8.880429289331492"><ele>616.5999999999999</ele><time>2026-04-25T11:06:01.999Z</time></trkpt><trkpt lat="44.542492651229146" lon="8.880295100938092"><ele>619.8</ele><time>2026-04-25T11:06:03.999Z</time></trkpt><trkpt lat="44.542585752595066" lon="8.88022810609957"><ele>623.0</ele><time>2026-04-25T11:06:05.999Z</time></trkpt><trkpt lat="44.54264183464773" lon="8.880277927256033"><ele>623.0</ele><time>2026-04-25T11:06:06.999Z</time></trkpt><trkpt lat="44.54266888799363" lon="8.880375028298944"><ele>623.0</ele><time>2026-04-25T11:06:07.999Z</time></trkpt><trkpt lat="44.54266586211769" lon="8.880510140076785"><ele>623.0</ele><time>2026-04-25T11:06:08.999Z</time></trkpt><trkpt lat="44.542674075832224" lon="8.880632624279164"><ele>623.0</ele><time>2026-04-25T11:06:09.999Z</time></trkpt><trkpt lat="44.54271445585947" lon="8.8807379090276"><ele>623.0</ele><time>2026-04-25T11:06:10.999Z</time></trkpt><trkpt lat="44.54279489859196" lon="8.880840380727173"><ele>624.5</ele><time>2026-04-25T11:06:12Z</time></trkpt><trkpt lat="44.54289402108895" lon="8.880886586055503"><ele>626.0</ele><time>2026-04-25T11:06:13Z</time></trkpt><trkpt lat="44.54302489002419" lon="8.880907628166103"><ele>627.5</ele><time>2026-04-25T11:06:14Z</time></trkpt><trkpt lat="44.54318486461415" lon="8.880926062191712"><ele>629.0</ele><time>2026-04-25T11:06:15Z</time></trkpt><trkpt lat="44.54336698547903" lon="8.881003847514316"><ele>629.0</ele><time>2026-04-25T11:06:16Z</time></trkpt><trkpt lat="44.54353914558694" lon="8.881094538468684"><ele>629.0</ele><time>2026-04-25T11:06:17Z</time></trkpt><trkpt lat="44.54373234548557" lon="8.881178262027378"><ele>629.0</ele><time>2026-04-25T11:06:18Z</time></trkpt><trkpt lat="44.54391506306479" lon="8.88126351875778"><ele>635.6666666666666</ele><time>2026-04-25T11:06:19Z</time></trkpt><trkpt lat="44.54409120152635" lon="8.881354137374185"><ele>642.3333333333334</ele><time>2026-04-25T11:06:20Z</time></trkpt><trkpt lat="44.544279865118824" lon="8.881446065567358"><ele>649.0</ele><time>2026-04-25T11:06:21Z</time></trkpt><trkpt lat="44.544453249598526" lon="8.88153747123238"><ele>653.3333333333334</ele><time>2026-04-25T11:06:22Z</time></trkpt><trkpt lat="44.54464088916552" lon="8.881607297832408"><ele>657.6666666666666</ele><time>2026-04-25T11:06:23Z</time></trkpt><trkpt lat="44.5448231657981" lon="8.881698880789136"><ele>662.0</ele><time>2026-04-25T11:06:24Z</time></trkpt><trkpt lat="44.54497504077072" lon="8.881775223325777"><ele>658.5</ele><time>2026-04-25T11:06:25Z</time></trkpt><trkpt lat="44.54511312060097" lon="8.881833684766692"><ele>655.0</ele><time>2026-04-25T11:06:26Z</time></trkpt><trkpt lat="44.545240221900094" lon="8.881895984515708"><ele>651.5</ele><time>2026-04-25T11:06:27Z</time></trkpt><trkpt lat="44.545363120612265" lon="8.881958606585123"><ele>648.0</ele><time>2026-04-25T11:06:28Z</time></trkpt><trkpt lat="44.54548387648657" lon="8.882001153685477"><ele>648.0</ele><time>2026-04-25T11:06:29Z</time></trkpt><trkpt lat="44.545604771621335" lon="8.882015706686044"><ele>648.0</ele><time>2026-04-25T11:06:30Z</time></trkpt><trkpt lat="44.545745780015494" lon="8.881996897047232"><ele>648.0</ele><time>2026-04-25T11:06:31Z</time></trkpt><trkpt lat="44.54590088517168" lon="8.881946122239437"><ele>648.0</ele><time>2026-04-25T11:06:32Z</time></trkpt><trkpt lat="44.5460555699536" lon="8.881892569297712"><ele>648.0</ele><time>2026-04-25T11:06:33Z</time></trkpt><trkpt lat="44.54620509361332" lon="8.881841291514938"><ele>648.0</ele><time>2026-04-25T11:06:34Z</time></trkpt><trkpt lat="44.546343448406596" lon="8.881834952067088"><ele>648.0</ele><time>2026-04-25T11:06:35Z</time></trkpt><trkpt lat="44.54645884783449" lon="8.881852308849906"><ele>648.0</ele><time>2026-04-25T11:06:36Z</time></trkpt><trkpt lat="44.54658385526714" lon="8.881906121918297"><ele>652.0</ele><time>2026-04-25T11:06:37Z</time></trkpt><trkpt lat="44.546724055317554" lon="8.881964589668824"><ele>656.0</ele><time>2026-04-25T11:06:38Z</time></trkpt><trkpt lat="44.546865407968674" lon="8.882039399203503"><ele>660.0</ele><time>2026-04-25T11:06:39Z</time></trkpt><trkpt lat="44.547005805650414" lon="8.882143978018833"><ele>668.3333333333334</ele><time>2026-04-25T11:06:40Z</time></trkpt><trkpt lat="44.547160175136625" lon="8.882238727703744"><ele>676.6666666666667</ele><time>2026-04-25T11:06:41Z</time></trkpt><trkpt lat="44.54730384855791" lon="8.88235018889667"><ele>685.0</ele><time>2026-04-25T11:06:42Z</time></trkpt><trkpt lat="44.54744997386863" lon="8.882420432648619"><ele>685.0</ele><time>2026-04-25T11:06:43Z</time></trkpt><trkpt lat="44.547591577954066" lon="8.882459351532896"><ele>685.0</ele><time>2026-04-25T11:06:44Z</time></trkpt><trkpt lat="44.547703016983704" lon="8.882528616699853"><ele>685.0</ele><time>2026-04-25T11:06:45Z</time></trkpt><trkpt lat="44.547805583861496" lon="8.882602520231424"><ele>685.0</ele><time>2026-04-25T11:06:46Z</time></trkpt><trkpt lat="44.54789896673518" lon="8.882745711991014"><ele>685.75</ele><time>2026-04-25T11:06:47Z</time></trkpt><trkpt lat="44.54797901486801" lon="8.882889938463604"><ele>686.5</ele><time>2026-04-25T11:06:48Z</time></trkpt><trkpt lat="44.54805594145901" lon="8.882995507485115"><ele>687.25</ele><time>2026-04-25T11:06:49Z</time></trkpt><trkpt lat="44.548144706037284" lon="8.88305307610319"><ele>688.0</ele><time>2026-04-25T11:06:50Z</time></trkpt><trkpt lat="44.54825813755868" lon="8.883081647022419"><ele>688.0</ele><time>2026-04-25T11:06:51Z</time></trkpt><trkpt lat="44.5483711157884" lon="8.883064528328564"><ele>688.0</ele><time>2026-04-25T11:06:52Z</time></trkpt><trkpt lat="44.54848829656068" lon="8.882983649837277"><ele>688.0</ele><time>2026-04-25T11:06:53Z</time></trkpt><trkpt lat="44.54860314958208" lon="8.88284966036296"><ele>688.0</ele><time>2026-04-25T11:06:54Z</time></trkpt><trkpt lat="44.54871739215381" lon="8.882741095243336"><ele>692.8</ele><time>2026-04-25T11:06:55Z</time></trkpt><trkpt lat="44.548786395195854" lon="8.882697545537612"><ele>697.5999999999999</ele><time>2026-04-25T11:06:56Z</time></trkpt><trkpt lat="44.54887173351081" lon="8.882743607569394"><ele>702.4000000000001</ele><time>2026-04-25T11:06:58Z</time></trkpt><trkpt lat="44.548880065842006" lon="8.882855019934693"><ele>707.2</ele><time>2026-04-25T11:06:59Z</time></trkpt><trkpt lat="44.54883642732501" lon="8.882991358358424"><ele>712.0</ele><time>2026-04-25T11:07:00Z</time></trkpt><trkpt lat="44.548830977600225" lon="8.883151834286604"><ele>712.0</ele><time>2026-04-25T11:07:01Z</time></trkpt><trkpt lat="44.54880996004995" lon="8.883324034776305"><ele>712.0</ele><time>2026-04-25T11:07:02Z</time></trkpt><trkpt lat="44.548807154" lon="8.883469684169597"><ele>712.0</ele><time>2026-04-25T11:07:03Z</time></trkpt><trkpt lat="44.54883433625286" lon="8.883583614349817"><ele>712.0</ele><time>2026-04-25T11:07:04Z</time></trkpt><trkpt lat="44.54890279283824" lon="8.88367662947889"><ele>712.0</ele><time>2026-04-25T11:07:05Z</time></trkpt><trkpt lat="44.5489971588254" lon="8.883728319910466"><ele>708.5</ele><time>2026-04-25T11:07:06Z</time></trkpt><trkpt lat="44.54911529225797" lon="8.883743296935032"><ele>705.0</ele><time>2026-04-25T11:07:07Z</time></trkpt><trkpt lat="44.54924070780519" lon="8.883751296071159"><ele>701.5</ele><time>2026-04-25T11:07:08Z</time></trkpt><trkpt lat="44.54937314248571" lon="8.88377940020593"><ele>698.0</ele><time>2026-04-25T11:07:09Z</time></trkpt><trkpt lat="44.54948068737085" lon="8.883805870638083"><ele>700.3333333333333</ele><time>2026-04-25T11:07:10Z</time></trkpt><trkpt lat="44.549560992123304" lon="8.883822329444731"><ele>702.6666666666666</ele><time>2026-04-25T11:07:11Z</time></trkpt><trkpt lat="44.549653766001946" lon="8.883822440927974"><ele>705.0</ele><time>2026-04-25T11:07:13Z</time></trkpt><trkpt lat="44.54972274981573" lon="8.883804683760593"><ele>707.3333333333334</ele><time>2026-04-25T11:07:17Z</time></trkpt><trkpt lat="44.5497892351843" lon="8.883759703060152"><ele>709.6666666666667</ele><time>2026-04-25T11:07:34Z</time></trkpt><trkpt lat="44.549868797444724" lon="8.883683429217736"><ele>712.0</ele><time>2026-04-25T11:07:36Z</time></trkpt><trkpt lat="44.54996056509497" lon="8.883578826121564"><ele>711.9999999999999</ele><time>2026-04-25T11:07:38Z</time></trkpt><trkpt lat="44.55003096104021" lon="8.883498590005937"><ele>712.0</ele><time>2026-04-25T11:07:40Z</time></trkpt><trkpt lat="44.55008823434139" lon="8.883433735491192"><ele>712.0</ele><time>2026-04-25T11:07:42Z</time></trkpt><trkpt lat="44.550144970548565" lon="8.883369489092647"><ele>712.0</ele><time>2026-04-25T11:07:44Z</time></trkpt><trkpt lat="44.55019720968357" lon="8.883313518787633"><ele>712.0</ele><time>2026-04-25T11:13:08Z</time></trkpt><trkpt lat="44.550248390768495" lon="8.883259189026273"><ele>711.9999999999999</ele><time>2026-04-25T11:14:08.999Z</time></trkpt><trkpt lat="44.550304078447574" lon="8.883200075433034"><ele>712.0</ele><time>2026-04-25T11:14:10.999Z</time></trkpt><trkpt lat="44.55039195616187" lon="8.883091499565786"><ele>716.3333333333334</ele><time>2026-04-25T11:14:12.999Z</time></trkpt><trkpt lat="44.55048227878241" lon="8.883002151310174"><ele>720.6666666666667</ele><time>2026-04-25T11:14:14.999Z</time></trkpt><trkpt lat="44.55053497542889" lon="8.88295108253827"><ele>725.0</ele><time>2026-04-25T11:14:15.999Z</time></trkpt><trkpt lat="44.55060464811418" lon="8.882905058120963"><ele>729.3333333333334</ele><time>2026-04-25T11:14:16.999Z</time></trkpt><trkpt lat="44.550682930899775" lon="8.882868233627029"><ele>733.6666666666666</ele><time>2026-04-25T11:14:17.999Z</time></trkpt><trkpt lat="44.55076742687879" lon="8.882848510271538"><ele>738.0</ele><time>2026-04-25T11:14:18.999Z</time></trkpt><trkpt lat="44.55086249320408" lon="8.882789108733693"><ele>738.0</ele><time>2026-04-25T11:14:19.999Z</time></trkpt><trkpt lat="44.55097218169382" lon="8.882706449694266"><ele>738.0</ele><time>2026-04-25T11:14:20.999Z</time></trkpt><trkpt lat="44.55106086503099" lon="8.882621271615365"><ele>738.0</ele><time>2026-04-25T11:14:21.999Z</time></trkpt><trkpt lat="44.55112548176312" lon="8.882532583492091"><ele>738.0</ele><time>2026-04-25T11:14:22.999Z</time></trkpt><trkpt lat="44.551194084298125" lon="8.88249908843796"><ele>738.0</ele><time>2026-04-25T11:14:23.999Z</time></trkpt><trkpt lat="44.55129747360445" lon="8.882549483714199"><ele>738.0</ele><time>2026-04-25T11:14:25.999Z</time></trkpt><trkpt lat="44.55130039563331" lon="8.882713445122809"><ele>738.0</ele><time>2026-04-25T11:14:27.999Z</time></trkpt><trkpt lat="44.551245931045734" lon="8.882800470555653"><ele>738.0</ele><time>2026-04-25T11:14:28.999Z</time></trkpt><trkpt lat="44.55117886148996" lon="8.882889000316684"><ele>738.0</ele><time>2026-04-25T11:14:29.999Z</time></trkpt><trkpt lat="44.551114022455316" lon="8.883010712552437"><ele>738.0</ele><time>2026-04-25T11:14:30.999Z</time></trkpt><trkpt lat="44.55103488397502" lon="8.883145101087385"><ele>738.0</ele><time>2026-04-25T11:14:31.999Z</time></trkpt><trkpt lat="44.55096950447597" lon="8.883277976992085"><ele>738.0</ele><time>2026-04-25T11:14:32.999Z</time></trkpt><trkpt lat="44.55090044364951" lon="8.883397275521824"><ele>738.0</ele><time>2026-04-25T11:14:33.999Z</time></trkpt><trkpt lat="44.550850922131154" lon="8.88351801587014"><ele>738.0</ele><time>2026-04-25T11:14:34.999Z</time></trkpt><trkpt lat="44.55082905716152" lon="8.883650079376157"><ele>738.0</ele><time>2026-04-25T11:14:36Z</time></trkpt><trkpt lat="44.55081844800027" lon="8.883801990188953"><ele>740.25</ele><time>2026-04-25T11:14:37Z</time></trkpt><trkpt lat="44.55080104578331" lon="8.88396734660328"><ele>742.5</ele><time>2026-04-25T11:14:38Z</time></trkpt><trkpt lat="44.5507498149383" lon="8.88412219305289"><ele>744.75</ele><time>2026-04-25T11:14:39Z</time></trkpt><trkpt lat="44.55069161415917" lon="8.884259058411669"><ele>747.0</ele><time>2026-04-25T11:14:40Z</time></trkpt><trkpt lat="44.55067488517823" lon="8.884392982615635"><ele>747.4000000000001</ele><time>2026-04-25T11:14:41Z</time></trkpt><trkpt lat="44.550686443465835" lon="8.884529366250794"><ele>747.8000000000001</ele><time>2026-04-25T11:14:42Z</time></trkpt><trkpt lat="44.55071447995034" lon="8.884673457500085"><ele>748.2</ele><time>2026-04-25T11:14:43Z</time></trkpt><trkpt lat="44.55074934349036" lon="8.884825810702795"><ele>748.6</ele><time>2026-04-25T11:14:44Z</time></trkpt><trkpt lat="44.55076937154859" lon="8.884991288630282"><ele>749.0</ele><time>2026-04-25T11:14:45Z</time></trkpt><trkpt lat="44.55080237224659" lon="8.88514862682731"><ele>750.0</ele><time>2026-04-25T11:14:46Z</time></trkpt><trkpt lat="44.550861588750955" lon="8.885304181545365"><ele>751.0</ele><time>2026-04-25T11:14:47Z</time></trkpt><trkpt lat="44.55096265271898" lon="8.885433691910682"><ele>752.0</ele><time>2026-04-25T11:14:48Z</time></trkpt><trkpt lat="44.55107565144309" lon="8.88554774750981"><ele>753.0</ele><time>2026-04-25T11:14:49Z</time></trkpt><trkpt lat="44.55116720495073" lon="8.885646963609657"><ele>753.0</ele><time>2026-04-25T11:14:51Z</time></trkpt><trkpt lat="44.551217860982945" lon="8.885729847945479"><ele>753.0</ele><time>2026-04-25T11:14:52Z</time></trkpt><trkpt lat="44.55120255814457" lon="8.88586052175568"><ele>753.0</ele><time>2026-04-25T11:14:54Z</time></trkpt><trkpt lat="44.551148385640964" lon="8.885920033531601"><ele>753.0</ele><time>2026-04-25T11:14:55Z</time></trkpt><trkpt lat="44.551072211367405" lon="8.885981603618697"><ele>753.0</ele><time>2026-04-25T11:14:56Z</time></trkpt><trkpt lat="44.55098985141081" lon="8.886083175683446"><ele>753.0</ele><time>2026-04-25T11:14:57Z</time></trkpt><trkpt lat="44.5508656639957" lon="8.886165474940471"><ele>756.0</ele><time>2026-04-25T11:14:58Z</time></trkpt><trkpt lat="44.55076730303248" lon="8.886273662156198"><ele>759.0</ele><time>2026-04-25T11:14:59Z</time></trkpt><trkpt lat="44.550700164917984" lon="8.886317114334885"><ele>762.0</ele><time>2026-04-25T11:15:00Z</time></trkpt><trkpt lat="44.55064074681865" lon="8.886419940881675"><ele>765.0</ele><time>2026-04-25T11:15:01Z</time></trkpt><trkpt lat="44.550585098082074" lon="8.88650922767368"><ele>768.0</ele><time>2026-04-25T11:15:02Z</time></trkpt><trkpt lat="44.550548288808265" lon="8.8865828769402"><ele>771.0</ele><time>2026-04-25T11:15:03Z</time></trkpt><trkpt lat="44.55051939657637" lon="8.886666053748684"><ele>771.0</ele><time>2026-04-25T11:15:04Z</time></trkpt><trkpt lat="44.550480046654926" lon="8.88675459491454"><ele>771.0</ele><time>2026-04-25T11:15:05Z</time></trkpt><trkpt lat="44.55044776033813" lon="8.886848718288931"><ele>771.0</ele><time>2026-04-25T11:15:06Z</time></trkpt><trkpt lat="44.55043381671906" lon="8.886951407950335"><ele>771.0</ele><time>2026-04-25T11:15:07Z</time></trkpt><trkpt lat="44.55042289281287" lon="8.887067122428927"><ele>771.0</ele><time>2026-04-25T11:15:08Z</time></trkpt><trkpt lat="44.55042142647953" lon="8.887204668473665"><ele>771.0</ele><time>2026-04-25T11:15:09Z</time></trkpt><trkpt lat="44.55043334452145" lon="8.887334949343934"><ele>772.1666666666666</ele><time>2026-04-25T11:15:10Z</time></trkpt><trkpt lat="44.55045983540565" lon="8.887473213953408"><ele>773.3333333333333</ele><time>2026-04-25T11:15:11Z</time></trkpt><trkpt lat="44.55048441014319" lon="8.887607348232637"><ele>774.5</ele><time>2026-04-25T11:15:12Z</time></trkpt><trkpt lat="44.55052740515868" lon="8.887685278966176"><ele>775.6666666666666</ele><time>2026-04-25T11:15:13Z</time></trkpt><trkpt lat="44.55057359738187" lon="8.887752776024465"><ele>776.8333333333333</ele><time>2026-04-25T11:15:14Z</time></trkpt><trkpt lat="44.55063215593817" lon="8.88780527480297"><ele>778.0</ele><time>2026-04-25T11:15:15Z</time></trkpt><trkpt lat="44.550692998586634" lon="8.887840675541716"><ele>779.25</ele><time>2026-04-25T11:15:16Z</time></trkpt><trkpt lat="44.55081394012282" lon="8.887867577184792"><ele>780.5</ele><time>2026-04-25T11:15:18Z</time></trkpt><trkpt lat="44.5509496427786" lon="8.887834930165303"><ele>781.75</ele><time>2026-04-25T11:15:20Z</time></trkpt><trkpt lat="44.55104327609204" lon="8.887797579005348"><ele>783.0</ele><time>2026-04-25T11:15:21Z</time></trkpt><trkpt lat="44.55115515879319" lon="8.887738028805245"><ele>778.75</ele><time>2026-04-25T11:15:22Z</time></trkpt><trkpt lat="44.551272038739164" lon="8.887670198053408"><ele>774.5</ele><time>2026-04-25T11:15:23Z</time></trkpt><trkpt lat="44.55139132994501" lon="8.887587367700132"><ele>770.25</ele><time>2026-04-25T11:15:24Z</time></trkpt><trkpt lat="44.55150805290608" lon="8.887489923475444"><ele>766.0</ele><time>2026-04-25T11:15:24.999Z</time></trkpt><trkpt lat="44.55161858681105" lon="8.887397118458601"><ele>766.0</ele><time>2026-04-25T11:15:25.999Z</time></trkpt><trkpt lat="44.55172135268702" lon="8.88728822275632"><ele>766.0</ele><time>2026-04-25T11:15:26.999Z</time></trkpt><trkpt lat="44.55181047538101" lon="8.887169460048325"><ele>766.0</ele><time>2026-04-25T11:15:27.999Z</time></trkpt><trkpt lat="44.55188967740384" lon="8.887028007905444"><ele>766.0</ele><time>2026-04-25T11:15:28.999Z</time></trkpt><trkpt lat="44.55196695786104" lon="8.886873097383866"><ele>762.25</ele><time>2026-04-25T11:15:29.999Z</time></trkpt><trkpt lat="44.55204803315647" lon="8.886721081135466"><ele>758.5</ele><time>2026-04-25T11:15:30.999Z</time></trkpt><trkpt lat="44.55213818625978" lon="8.886586906664109"><ele>754.75</ele><time>2026-04-25T11:15:31.999Z</time></trkpt><trkpt lat="44.55221881922442" lon="8.886451644546387"><ele>751.0</ele><time>2026-04-25T11:15:32.999Z</time></trkpt><trkpt lat="44.55228128637628" lon="8.886300130249882"><ele>751.0</ele><time>2026-04-25T11:15:33.999Z</time></trkpt><trkpt lat="44.55232471059851" lon="8.886130418031472"><ele>751.0</ele><time>2026-04-25T11:15:34.999Z</time></trkpt><trkpt lat="44.55236195288256" lon="8.88595584422722"><ele>751.0</ele><time>2026-04-25T11:15:35.999Z</time></trkpt><trkpt lat="44.55239915075594" lon="8.885797490495934"><ele>751.0</ele><time>2026-04-25T11:15:36.999Z</time></trkpt><trkpt lat="44.55242425729964" lon="8.885670730130995"><ele>751.0</ele><time>2026-04-25T11:15:37.999Z</time></trkpt><trkpt lat="44.55244535889657" lon="8.885582502147514"><ele>751.0</ele><time>2026-04-25T11:15:38.999Z</time></trkpt><trkpt lat="44.5525276462722" lon="8.885544469870363"><ele>751.0</ele><time>2026-04-25T11:15:40.999Z</time></trkpt><trkpt lat="44.55259994292406" lon="8.885693606688973"><ele>751.0</ele><time>2026-04-25T11:15:42.999Z</time></trkpt><trkpt lat="44.55261137849944" lon="8.885827000397768"><ele>751.0</ele><time>2026-04-25T11:15:43.999Z</time></trkpt><trkpt lat="44.55263963920203" lon="8.885991624316318"><ele>751.0</ele><time>2026-04-25T11:15:44.999Z</time></trkpt><trkpt lat="44.5526946194325" lon="8.886143137121874"><ele>751.0</ele><time>2026-04-25T11:15:45.999Z</time></trkpt><trkpt lat="44.55277130382088" lon="8.886258658076715"><ele>751.0</ele><time>2026-04-25T11:15:46.999Z</time></trkpt><trkpt lat="44.55285320669392" lon="8.886341242672014"><ele>751.0</ele><time>2026-04-25T11:15:47.999Z</time></trkpt><trkpt lat="44.55294808197431" lon="8.8863858525531"><ele>751.0</ele><time>2026-04-25T11:15:48.999Z</time></trkpt><trkpt lat="44.55304471408593" lon="8.88641765739639"><ele>751.1666666666667</ele><time>2026-04-25T11:15:49.999Z</time></trkpt><trkpt lat="44.55314218952156" lon="8.886433037973552"><ele>751.3333333333334</ele><time>2026-04-25T11:15:50.999Z</time></trkpt><trkpt lat="44.55323850214394" lon="8.886453631446214"><ele>751.5</ele><time>2026-04-25T11:15:51.999Z</time></trkpt><trkpt lat="44.55331603990549" lon="8.886493659314059"><ele>751.6666666666666</ele><time>2026-04-25T11:15:52.999Z</time></trkpt><trkpt lat="44.55336361731577" lon="8.88657361257556"><ele>751.8333333333333</ele><time>2026-04-25T11:15:53.999Z</time></trkpt><trkpt lat="44.55337273801628" lon="8.886685734692103"><ele>752.0</ele><time>2026-04-25T11:15:54.999Z</time></trkpt><trkpt lat="44.55333862973611" lon="8.886807078951525"><ele>748.6666666666666</ele><time>2026-04-25T11:15:55.999Z</time></trkpt><trkpt lat="44.55332178965976" lon="8.886932193083425"><ele>745.3333333333333</ele><time>2026-04-25T11:15:56.999Z</time></trkpt><trkpt lat="44.5533079983828" lon="8.887040920565758"><ele>742.0</ele><time>2026-04-25T11:15:57.999Z</time></trkpt><trkpt lat="44.553309387945546" lon="8.887154759772542"><ele>738.6666666666666</ele><time>2026-04-25T11:15:58.999Z</time></trkpt><trkpt lat="44.553347105140666" lon="8.887251543627745"><ele>735.3333333333334</ele><time>2026-04-25T11:15:59.999Z</time></trkpt><trkpt lat="44.55341242281776" lon="8.887320889233429"><ele>732.0</ele><time>2026-04-25T11:16:00.999Z</time></trkpt><trkpt lat="44.55348680868178" lon="8.887362420359553"><ele>732.0</ele><time>2026-04-25T11:16:01.999Z</time></trkpt><trkpt lat="44.55356914071408" lon="8.887397661748743"><ele>732.0</ele><time>2026-04-25T11:16:02.999Z</time></trkpt><trkpt lat="44.55365704373191" lon="8.887437413803694"><ele>732.0</ele><time>2026-04-25T11:16:03.999Z</time></trkpt><trkpt lat="44.55375185426465" lon="8.887474584114804"><ele>732.0</ele><time>2026-04-25T11:16:04.999Z</time></trkpt><trkpt lat="44.55384119937067" lon="8.887511364369125"><ele>732.0</ele><time>2026-04-25T11:16:05.999Z</time></trkpt><trkpt lat="44.55393873463665" lon="8.887524155648872"><ele>731.6</ele><time>2026-04-25T11:16:06.999Z</time></trkpt><trkpt lat="44.55403745331375" lon="8.88751211445428"><ele>731.2</ele><time>2026-04-25T11:16:07.999Z</time></trkpt><trkpt lat="44.55413584225005" lon="8.887466423540298"><ele>730.8</ele><time>2026-04-25T11:16:08.999Z</time></trkpt><trkpt lat="44.554228037009935" lon="8.8873886261792"><ele>730.4</ele><time>2026-04-25T11:16:09.999Z</time></trkpt><trkpt lat="44.55430000945088" lon="8.887283639700167"><ele>730.0</ele><time>2026-04-25T11:16:10.999Z</time></trkpt><trkpt lat="44.5543662515688" lon="8.887175786635774"><ele>730.0</ele><time>2026-04-25T11:16:11.999Z</time></trkpt><trkpt lat="44.554436973997" lon="8.887082615109806"><ele>730.0</ele><time>2026-04-25T11:16:12.999Z</time></trkpt><trkpt lat="44.55451987201929" lon="8.887040792918194"><ele>730.0</ele><time>2026-04-25T11:16:13.999Z</time></trkpt><trkpt lat="44.55460464622629" lon="8.887036206918957"><ele>730.0</ele><time>2026-04-25T11:16:14.999Z</time></trkpt><trkpt lat="44.554672814043165" lon="8.887135421875072"><ele>730.0</ele><time>2026-04-25T11:16:15.999Z</time></trkpt><trkpt lat="44.554769307982426" lon="8.887207938986327"><ele>725.5</ele><time>2026-04-25T11:16:16.999Z</time></trkpt><trkpt lat="44.554868264404384" lon="8.887301193417954"><ele>721.0</ele><time>2026-04-25T11:16:17.999Z</time></trkpt><trkpt lat="44.55498045408781" lon="8.887349471972131"><ele>716.5</ele><time>2026-04-25T11:16:18.999Z</time></trkpt><trkpt lat="44.55508886603869" lon="8.887350538364057"><ele>712.0</ele><time>2026-04-25T11:16:19.999Z</time></trkpt><trkpt lat="44.5551929408496" lon="8.88730498919151"><ele>712.0</ele><time>2026-04-25T11:16:20.999Z</time></trkpt><trkpt lat="44.55529063667912" lon="8.887211704226818"><ele>712.0</ele><time>2026-04-25T11:16:21.999Z</time></trkpt><trkpt lat="44.55538300312179" lon="8.88708827139022"><ele>712.0</ele><time>2026-04-25T11:16:22.999Z</time></trkpt><trkpt lat="44.55546532951859" lon="8.886940387594965"><ele>712.0</ele><time>2026-04-25T11:16:23.999Z</time></trkpt><trkpt lat="44.55555688216773" lon="8.886799977089954"><ele>712.6</ele><time>2026-04-25T11:16:24.999Z</time></trkpt><trkpt lat="44.55564441052413" lon="8.886689162152331"><ele>713.2</ele><time>2026-04-25T11:16:25.999Z</time></trkpt><trkpt lat="44.55571623515931" lon="8.886625530362052"><ele>713.8</ele><time>2026-04-25T11:16:26.999Z</time></trkpt><trkpt lat="44.55578620306656" lon="8.886576133220167"><ele>714.4</ele><time>2026-04-25T11:16:27.999Z</time></trkpt><trkpt lat="44.55588681835163" lon="8.886578202898379"><ele>715.0</ele><time>2026-04-25T11:16:28.999Z</time></trkpt><trkpt lat="44.555988961294446" lon="8.886633595081404"><ele>715.0</ele><time>2026-04-25T11:16:29.999Z</time></trkpt><trkpt lat="44.5561019760927" lon="8.886719135428166"><ele>715.0</ele><time>2026-04-25T11:16:30.999Z</time></trkpt><trkpt lat="44.55623098115272" lon="8.88678959957195"><ele>715.0</ele><time>2026-04-25T11:16:31.999Z</time></trkpt><trkpt lat="44.55638336920829" lon="8.886823939410252"><ele>715.0</ele><time>2026-04-25T11:16:32.999Z</time></trkpt><trkpt lat="44.55654035033195" lon="8.886851099681076"><ele>706.3333333333334</ele><time>2026-04-25T11:16:33.999Z</time></trkpt><trkpt lat="44.55670526284115" lon="8.88690025575913"><ele>697.6666666666666</ele><time>2026-04-25T11:16:34.999Z</time></trkpt><trkpt lat="44.55687435247535" lon="8.886970268995727"><ele>689.0</ele><time>2026-04-25T11:16:35.999Z</time></trkpt><trkpt lat="44.557038484947235" lon="8.887038763309674"><ele>688.0</ele><time>2026-04-25T11:16:36.999Z</time></trkpt><trkpt lat="44.55718302377634" lon="8.88710508851864"><ele>687.0</ele><time>2026-04-25T11:16:37.999Z</time></trkpt><trkpt lat="44.55729591242517" lon="8.887164415239548"><ele>686.0</ele><time>2026-04-25T11:16:38.999Z</time></trkpt><trkpt lat="44.55738394335083" lon="8.887219510739676"><ele>685.0</ele><time>2026-04-25T11:16:39.999Z</time></trkpt><trkpt lat="44.55746104859902" lon="8.88725905317687"><ele>685.0</ele><time>2026-04-25T11:16:40.999Z</time></trkpt><trkpt lat="44.55754380691538" lon="8.887249979927423"><ele>685.0</ele><time>2026-04-25T11:16:42Z</time></trkpt><trkpt lat="44.55761779651904" lon="8.887180323246527"><ele>685.0</ele><time>2026-04-25T11:16:43Z</time></trkpt><trkpt lat="44.55766507045667" lon="8.887074554627517"><ele>685.0</ele><time>2026-04-25T11:16:44Z</time></trkpt><trkpt lat="44.55769207470005" lon="8.886940662508325"><ele>685.0</ele><time>2026-04-25T11:16:45Z</time></trkpt><trkpt lat="44.5576856748101" lon="8.886800788923392"><ele>687.0</ele><time>2026-04-25T11:16:46Z</time></trkpt><trkpt lat="44.55764802092979" lon="8.88667281692679"><ele>689.0</ele><time>2026-04-25T11:16:47Z</time></trkpt><trkpt lat="44.55758971944561" lon="8.88657131131681"><ele>691.0</ele><time>2026-04-25T11:16:48Z</time></trkpt><trkpt lat="44.55751559106707" lon="8.88648881471001"><ele>693.0</ele><time>2026-04-25T11:16:49Z</time></trkpt><trkpt lat="44.55742996790295" lon="8.886429594156622"><ele>695.0</ele><time>2026-04-25T11:16:50Z</time></trkpt><trkpt lat="44.557374681926056" lon="8.886370773947101"><ele>695.0</ele><time>2026-04-25T11:16:51Z</time></trkpt><trkpt lat="44.55733094220385" lon="8.88624377988119"><ele>695.0</ele><time>2026-04-25T11:16:53Z</time></trkpt><trkpt lat="44.557440246418565" lon="8.886168966739499"><ele>695.0</ele><time>2026-04-25T11:16:55Z</time></trkpt><trkpt lat="44.557515026475926" lon="8.886208545474005"><ele>695.0</ele><time>2026-04-25T11:16:56Z</time></trkpt><trkpt lat="44.55759818770042" lon="8.886242186664896"><ele>695.0</ele><time>2026-04-25T11:16:57Z</time></trkpt><trkpt lat="44.55771879255907" lon="8.886288241371561"><ele>695.0</ele><time>2026-04-25T11:16:58Z</time></trkpt><trkpt lat="44.557815431529235" lon="8.886360990153324"><ele>695.0</ele><time>2026-04-25T11:16:59Z</time></trkpt><trkpt lat="44.55789197607605" lon="8.886460603281558"><ele>695.0</ele><time>2026-04-25T11:17:00Z</time></trkpt><trkpt lat="44.55795105774743" lon="8.886591118211609"><ele>695.0</ele><time>2026-04-25T11:17:01Z</time></trkpt><trkpt lat="44.557992060194984" lon="8.886733046792994"><ele>695.0</ele><time>2026-04-25T11:17:02Z</time></trkpt><trkpt lat="44.55802477150238" lon="8.886874926113604"><ele>693.0</ele><time>2026-04-25T11:17:03Z</time></trkpt><trkpt lat="44.55806552203001" lon="8.887003557189852"><ele>691.0</ele><time>2026-04-25T11:17:04Z</time></trkpt><trkpt lat="44.55811854706832" lon="8.887116266272406"><ele>689.0</ele><time>2026-04-25T11:17:05Z</time></trkpt><trkpt lat="44.55817498424213" lon="8.887191741282361"><ele>687.0</ele><time>2026-04-25T11:17:06Z</time></trkpt><trkpt lat="44.558239201808405" lon="8.88723388884139"><ele>685.0</ele><time>2026-04-25T11:17:06.999Z</time></trkpt><trkpt lat="44.55831304895315" lon="8.887245641029777"><ele>683.0</ele><time>2026-04-25T11:17:07.999Z</time></trkpt><trkpt lat="44.558395608738074" lon="8.88724410113834"><ele>683.0</ele><time>2026-04-25T11:17:08.999Z</time></trkpt><trkpt lat="44.55847887309261" lon="8.887263811916396"><ele>683.0</ele><time>2026-04-25T11:17:09.999Z</time></trkpt><trkpt lat="44.55854484841887" lon="8.88733043872833"><ele>683.0</ele><time>2026-04-25T11:17:10.999Z</time></trkpt><trkpt lat="44.558578620208245" lon="8.887451667916375"><ele>683.0</ele><time>2026-04-25T11:17:11.999Z</time></trkpt><trkpt lat="44.55857399924189" lon="8.88760529705859"><ele>683.0</ele><time>2026-04-25T11:17:12.999Z</time></trkpt><trkpt lat="44.55859177431595" lon="8.887761483469713"><ele>680.5</ele><time>2026-04-25T11:17:13.999Z</time></trkpt><trkpt lat="44.55864721283282" lon="8.887914804356361"><ele>678.0</ele><time>2026-04-25T11:17:14.999Z</time></trkpt><trkpt lat="44.55872288717805" lon="8.888040147995595"><ele>675.5</ele><time>2026-04-25T11:17:15.999Z</time></trkpt><trkpt lat="44.55882162275009" lon="8.888128574816541"><ele>673.0</ele><time>2026-04-25T11:17:16.999Z</time></trkpt><trkpt lat="44.558922580073364" lon="8.888190231678914"><ele>672.4</ele><time>2026-04-25T11:17:17.999Z</time></trkpt><trkpt lat="44.55903199432673" lon="8.888213571781579"><ele>671.8</ele><time>2026-04-25T11:17:18.999Z</time></trkpt><trkpt lat="44.55914335789774" lon="8.888198287167613"><ele>671.2</ele><time>2026-04-25T11:17:19.999Z</time></trkpt><trkpt lat="44.559246636702674" lon="8.888149037089994"><ele>670.6</ele><time>2026-04-25T11:17:20.999Z</time></trkpt><trkpt lat="44.55933961060474" lon="8.888054242406298"><ele>670.0</ele><time>2026-04-25T11:17:21.999Z</time></trkpt><trkpt lat="44.559446518195216" lon="8.887939236467709"><ele>668.5</ele><time>2026-04-25T11:17:22.999Z</time></trkpt><trkpt lat="44.559566342386155" lon="8.887868190830476"><ele>667.0</ele><time>2026-04-25T11:17:23.999Z</time></trkpt><trkpt lat="44.55967856991006" lon="8.887811579121227"><ele>665.5</ele><time>2026-04-25T11:17:24.999Z</time></trkpt><trkpt lat="44.55981345737167" lon="8.887793891508238"><ele>664.0</ele><time>2026-04-25T11:17:25.999Z</time></trkpt><trkpt lat="44.559964338876455" lon="8.887787389653633"><ele>664.0</ele><time>2026-04-25T11:17:26.999Z</time></trkpt><trkpt lat="44.56012809671231" lon="8.887788108416421"><ele>664.0</ele><time>2026-04-25T11:17:27.999Z</time></trkpt><trkpt lat="44.56030019150132" lon="8.887793399681746"><ele>664.0</ele><time>2026-04-25T11:17:28.999Z</time></trkpt><trkpt lat="44.560467524691674" lon="8.887800431436546"><ele>662.0</ele><time>2026-04-25T11:17:29.999Z</time></trkpt><trkpt lat="44.56063284073939" lon="8.887823829342246"><ele>660.0</ele><time>2026-04-25T11:17:30.999Z</time></trkpt><trkpt lat="44.560796274052926" lon="8.887869172766399"><ele>658.0</ele><time>2026-04-25T11:17:31.999Z</time></trkpt><trkpt lat="44.56096009618541" lon="8.887906758541982"><ele>658.0</ele><time>2026-04-25T11:17:32.999Z</time></trkpt><trkpt lat="44.56114111649298" lon="8.887935622277794"><ele>658.0</ele><time>2026-04-25T11:17:33.999Z</time></trkpt><trkpt lat="44.56134066406142" lon="8.887917438804752"><ele>658.0</ele><time>2026-04-25T11:17:34.999Z</time></trkpt><trkpt lat="44.561547628526704" lon="8.887890989547564"><ele>659.0</ele><time>2026-04-25T11:17:35.999Z</time></trkpt><trkpt lat="44.56174518815645" lon="8.887865742190852"><ele>660.0</ele><time>2026-04-25T11:17:36.999Z</time></trkpt><trkpt lat="44.56193333655567" lon="8.887847512967497"><ele>661.0</ele><time>2026-04-25T11:17:37.999Z</time></trkpt><trkpt lat="44.56209687716229" lon="8.887827051694345"><ele>661.0</ele><time>2026-04-25T11:17:38.999Z</time></trkpt><trkpt lat="44.56223780441714" lon="8.887839406289782"><ele>661.0</ele><time>2026-04-25T11:17:39.999Z</time></trkpt><trkpt lat="44.562360664974804" lon="8.887862928085877"><ele>661.0</ele><time>2026-04-25T11:17:40.999Z</time></trkpt><trkpt lat="44.56247893769737" lon="8.887870331798426"><ele>661.0</ele><time>2026-04-25T11:17:41.999Z</time></trkpt><trkpt lat="44.56259658960623" lon="8.887828244248743"><ele>661.0</ele><time>2026-04-25T11:17:42.999Z</time></trkpt><trkpt lat="44.56273355854179" lon="8.88777690685852"><ele>661.0</ele><time>2026-04-25T11:17:43.999Z</time></trkpt><trkpt lat="44.56287347350001" lon="8.887700713139983"><ele>661.0</ele><time>2026-04-25T11:17:44.999Z</time></trkpt><trkpt lat="44.56300939086638" lon="8.887632059568219"><ele>661.0</ele><time>2026-04-25T11:17:45.999Z</time></trkpt><trkpt lat="44.563142938399885" lon="8.887617265534773"><ele>660.5</ele><time>2026-04-25T11:17:46.999Z</time></trkpt><trkpt lat="44.56327956965559" lon="8.887634083950637"><ele>660.0</ele><time>2026-04-25T11:17:47.999Z</time></trkpt><trkpt lat="44.56341420915607" lon="8.887610873911731"><ele>659.5</ele><time>2026-04-25T11:17:48.999Z</time></trkpt><trkpt lat="44.56354073779059" lon="8.887591753521058"><ele>659.0</ele><time>2026-04-25T11:17:49.999Z</time></trkpt><trkpt lat="44.563665460135205" lon="8.887513165341362"><ele>653.6666666666666</ele><time>2026-04-25T11:17:50.999Z</time></trkpt><trkpt lat="44.56380345042444" lon="8.887395967584206"><ele>648.3333333333334</ele><time>2026-04-25T11:17:51.999Z</time></trkpt><trkpt lat="44.56394897522985" lon="8.887254920886754"><ele>643.0</ele><time>2026-04-25T11:17:52.999Z</time></trkpt><trkpt lat="44.564081486163566" lon="8.887117094996333"><ele>643.0</ele><time>2026-04-25T11:17:53.999Z</time></trkpt><trkpt lat="44.56421817028633" lon="8.887045711851778"><ele>643.0</ele><time>2026-04-25T11:17:54.999Z</time></trkpt><trkpt lat="44.56434923995183" lon="8.887012120440525"><ele>643.0</ele><time>2026-04-25T11:17:55.999Z</time></trkpt><trkpt lat="44.56447620313118" lon="8.88702079342084"><ele>643.0</ele><time>2026-04-25T11:17:56.999Z</time></trkpt><trkpt lat="44.56460309630237" lon="8.887063030901599"><ele>642.6666666666667</ele><time>2026-04-25T11:17:57.999Z</time></trkpt><trkpt lat="44.56474947801708" lon="8.887133156248456"><ele>642.3333333333334</ele><time>2026-04-25T11:17:58.999Z</time></trkpt><trkpt lat="44.5649123154715" lon="8.887210392393968"><ele>642.0</ele><time>2026-04-25T11:17:59.999Z</time></trkpt><trkpt lat="44.565069823287075" lon="8.887257325258949"><ele>642.0</ele><time>2026-04-25T11:18:00.999Z</time></trkpt><trkpt lat="44.5652269043628" lon="8.88730272456738"><ele>642.0</ele><time>2026-04-25T11:18:01.999Z</time></trkpt><trkpt lat="44.565398820784736" lon="8.887320009936662"><ele>642.0</ele><time>2026-04-25T11:18:02.999Z</time></trkpt><trkpt lat="44.565571242221814" lon="8.887332401946797"><ele>640.25</ele><time>2026-04-25T11:18:03.999Z</time></trkpt><trkpt lat="44.56572989794371" lon="8.88735169969976"><ele>638.5</ele><time>2026-04-25T11:18:04.999Z</time></trkpt><trkpt lat="44.5658703526922" lon="8.887370824124892"><ele>636.75</ele><time>2026-04-25T11:18:05.999Z</time></trkpt><trkpt lat="44.56601410645989" lon="8.887357556144332"><ele>635.0</ele><time>2026-04-25T11:18:06.999Z</time></trkpt><trkpt lat="44.56616014997221" lon="8.887291384648773"><ele>632.0</ele><time>2026-04-25T11:18:07.999Z</time></trkpt><trkpt lat="44.56629534159992" lon="8.887241260136143"><ele>629.0</ele><time>2026-04-25T11:18:08.999Z</time></trkpt><trkpt lat="44.5664427453195" lon="8.887297325447772"><ele>626.0</ele><time>2026-04-25T11:18:09.999Z</time></trkpt><trkpt lat="44.56661320655253" lon="8.887327893039744"><ele>626.0</ele><time>2026-04-25T11:18:10.999Z</time></trkpt><trkpt lat="44.566785333821585" lon="8.88739305026066"><ele>626.0</ele><time>2026-04-25T11:18:11.999Z</time></trkpt><trkpt lat="44.566939741092796" lon="8.88743931367931"><ele>626.0</ele><time>2026-04-25T11:18:12.999Z</time></trkpt><trkpt lat="44.567063625383135" lon="8.887484802172512"><ele>624.4</ele><time>2026-04-25T11:18:13.999Z</time></trkpt><trkpt lat="44.567169961572255" lon="8.887513534455119"><ele>622.8</ele><time>2026-04-25T11:18:14.999Z</time></trkpt><trkpt lat="44.567270959402876" lon="8.88750469386079"><ele>621.1999999999999</ele><time>2026-04-25T11:18:15.999Z</time></trkpt><trkpt lat="44.56737175754072" lon="8.887446984930788"><ele>619.6</ele><time>2026-04-25T11:18:16.999Z</time></trkpt><trkpt lat="44.56747062273323" lon="8.887335962809887"><ele>618.0</ele><time>2026-04-25T11:18:17.999Z</time></trkpt><trkpt lat="44.567568504903086" lon="8.88719302644426"><ele>618.0</ele><time>2026-04-25T11:18:18.999Z</time></trkpt><trkpt lat="44.56769037893837" lon="8.887086743502048"><ele>618.0</ele><time>2026-04-25T11:18:19.999Z</time></trkpt><trkpt lat="44.56780662117152" lon="8.8869753016003"><ele>618.0</ele><time>2026-04-25T11:18:20.999Z</time></trkpt><trkpt lat="44.56794305002765" lon="8.88695455493896"><ele>618.0</ele><time>2026-04-25T11:18:21.999Z</time></trkpt><trkpt lat="44.568095767672666" lon="8.886910289728535"><ele>617.5</ele><time>2026-04-25T11:18:22.999Z</time></trkpt><trkpt lat="44.5682471256149" lon="8.886852917673098"><ele>617.0</ele><time>2026-04-25T11:18:23.999Z</time></trkpt><trkpt lat="44.56838728936988" lon="8.886804281072468"><ele>616.5</ele><time>2026-04-25T11:18:24.999Z</time></trkpt><trkpt lat="44.56851226295961" lon="8.88673310710343"><ele>616.0</ele><time>2026-04-25T11:18:25.999Z</time></trkpt><trkpt lat="44.56862147110749" lon="8.886629977635524"><ele>615.25</ele><time>2026-04-25T11:18:26.999Z</time></trkpt><trkpt lat="44.56872316022995" lon="8.886484504229468"><ele>614.5</ele><time>2026-04-25T11:18:27.999Z</time></trkpt><trkpt lat="44.56883769811345" lon="8.886348237668821"><ele>613.75</ele><time>2026-04-25T11:18:28.999Z</time></trkpt><trkpt lat="44.56895632018255" lon="8.886234147420158"><ele>613.0</ele><time>2026-04-25T11:18:29.999Z</time></trkpt><trkpt lat="44.56908743128862" lon="8.886175137351103"><ele>613.0</ele><time>2026-04-25T11:18:30.999Z</time></trkpt><trkpt lat="44.56921400486168" lon="8.886129715386186"><ele>613.0</ele><time>2026-04-25T11:18:31.999Z</time></trkpt><trkpt lat="44.569340067461525" lon="8.88607247575401"><ele>613.0</ele><time>2026-04-25T11:18:32.999Z</time></trkpt><trkpt lat="44.56946537603615" lon="8.88600843937823"><ele>613.0</ele><time>2026-04-25T11:18:33.999Z</time></trkpt><trkpt lat="44.56957230311665" lon="8.88590810257513"><ele>611.75</ele><time>2026-04-25T11:18:34.999Z</time></trkpt><trkpt lat="44.5696652495691" lon="8.885765382549257"><ele>610.5</ele><time>2026-04-25T11:18:35.999Z</time></trkpt><trkpt lat="44.56974433114344" lon="8.885586484703843"><ele>609.25</ele><time>2026-04-25T11:18:36.999Z</time></trkpt><trkpt lat="44.56982694973587" lon="8.88540791809201"><ele>608.0</ele><time>2026-04-25T11:18:37.999Z</time></trkpt><trkpt lat="44.569949748783735" lon="8.88529950228838"><ele>608.0</ele><time>2026-04-25T11:18:38.999Z</time></trkpt><trkpt lat="44.570077985518544" lon="8.885207973806034"><ele>608.0</ele><time>2026-04-25T11:18:39.999Z</time></trkpt><trkpt lat="44.57019745506855" lon="8.885098072089942"><ele>608.0</ele><time>2026-04-25T11:18:40.999Z</time></trkpt><trkpt lat="44.57030287187056" lon="8.884966443011429"><ele>608.0</ele><time>2026-04-25T11:18:41.999Z</time></trkpt><trkpt lat="44.570393175212914" lon="8.884802293361941"><ele>605.5</ele><time>2026-04-25T11:18:42.999Z</time></trkpt><trkpt lat="44.570503483961176" lon="8.88468198100571"><ele>603.0</ele><time>2026-04-25T11:18:43.999Z</time></trkpt><trkpt lat="44.5706226475967" lon="8.88459292101147"><ele>600.5</ele><time>2026-04-25T11:18:44.999Z</time></trkpt><trkpt lat="44.57074868379104" lon="8.884518168592143"><ele>598.0</ele><time>2026-04-25T11:18:45.999Z</time></trkpt><trkpt lat="44.570864265408694" lon="8.884436147931538"><ele>598.0</ele><time>2026-04-25T11:18:47Z</time></trkpt><trkpt lat="44.57097709433676" lon="8.884435356475281"><ele>598.0</ele><time>2026-04-25T11:18:48Z</time></trkpt><trkpt lat="44.57107010898334" lon="8.884490726973944"><ele>598.0</ele><time>2026-04-25T11:18:49Z</time></trkpt><trkpt lat="44.5711728381562" lon="8.884562783023854"><ele>598.0</ele><time>2026-04-25T11:18:50Z</time></trkpt><trkpt lat="44.57128721858075" lon="8.884623979079528"><ele>597.25</ele><time>2026-04-25T11:18:51Z</time></trkpt><trkpt lat="44.57140240198776" lon="8.884653980263877"><ele>596.5</ele><time>2026-04-25T11:18:52Z</time></trkpt><trkpt lat="44.57151359359589" lon="8.884629498275428"><ele>595.75</ele><time>2026-04-25T11:18:53Z</time></trkpt><trkpt lat="44.57161488415153" lon="8.884560699488794"><ele>595.0</ele><time>2026-04-25T11:18:54Z</time></trkpt><trkpt lat="44.571714691662" lon="8.884452362610867"><ele>595.0</ele><time>2026-04-25T11:18:55Z</time></trkpt><trkpt lat="44.57180015622609" lon="8.884315220716056"><ele>595.0</ele><time>2026-04-25T11:18:56Z</time></trkpt><trkpt lat="44.57187137942501" lon="8.884146358267644"><ele>595.0</ele><time>2026-04-25T11:18:57Z</time></trkpt><trkpt lat="44.57193195221301" lon="8.883967260340007"><ele>595.0</ele><time>2026-04-25T11:18:58Z</time></trkpt><trkpt lat="44.57200691085798" lon="8.883800828002137"><ele>594.2</ele><time>2026-04-25T11:18:59Z</time></trkpt><trkpt lat="44.572077816776584" lon="8.883650042290604"><ele>593.4</ele><time>2026-04-25T11:19:00Z</time></trkpt><trkpt lat="44.57214363423198" lon="8.883536393215472"><ele>592.6</ele><time>2026-04-25T11:19:01Z</time></trkpt><trkpt lat="44.57223600742726" lon="8.883479713022682"><ele>591.8</ele><time>2026-04-25T11:19:02Z</time></trkpt><trkpt lat="44.572347139344444" lon="8.883463631792809"><ele>591.0</ele><time>2026-04-25T11:19:03Z</time></trkpt><trkpt lat="44.57246167249663" lon="8.883519811844984"><ele>591.0</ele><time>2026-04-25T11:19:04Z</time></trkpt><trkpt lat="44.572566746799" lon="8.883545629322361"><ele>591.0</ele><time>2026-04-25T11:19:05Z</time></trkpt><trkpt lat="44.572655294356274" lon="8.883502240568921"><ele>591.0</ele><time>2026-04-25T11:19:05.999Z</time></trkpt><trkpt lat="44.57271357781934" lon="8.883422094423835"><ele>591.0</ele><time>2026-04-25T11:19:06.999Z</time></trkpt><trkpt lat="44.57275627524345" lon="8.883320568327937"><ele>591.0</ele><time>2026-04-25T11:19:07.999Z</time></trkpt><trkpt lat="44.57278729170154" lon="8.883183284516486"><ele>588.25</ele><time>2026-04-25T11:19:08.999Z</time></trkpt><trkpt lat="44.572807089496806" lon="8.883008373801745"><ele>585.5</ele><time>2026-04-25T11:19:09.999Z</time></trkpt><trkpt lat="44.572828508249295" lon="8.882821878928429"><ele>582.75</ele><time>2026-04-25T11:19:10.999Z</time></trkpt><trkpt lat="44.57288114458832" lon="8.882666495620313"><ele>580.0</ele><time>2026-04-25T11:19:11.999Z</time></trkpt><trkpt lat="44.572952188488124" lon="8.882542297305243"><ele>577.25</ele><time>2026-04-25T11:19:12.999Z</time></trkpt><trkpt lat="44.573041873999095" lon="8.882417460770492"><ele>574.5</ele><time>2026-04-25T11:19:13.999Z</time></trkpt><trkpt lat="44.573141792028714" lon="8.882275495869239"><ele>571.75</ele><time>2026-04-25T11:19:14.999Z</time></trkpt><trkpt lat="44.57326172662674" lon="8.88215375551303"><ele>569.0</ele><time>2026-04-25T11:19:15.999Z</time></trkpt><trkpt lat="44.573394964630936" lon="8.88204585844103"><ele>569.0</ele><time>2026-04-25T11:19:16.999Z</time></trkpt><trkpt lat="44.57350899828604" lon="8.881910361804254"><ele>569.0</ele><time>2026-04-25T11:19:17.999Z</time></trkpt><trkpt lat="44.57362232597501" lon="8.881784566862"><ele>569.0</ele><time>2026-04-25T11:19:18.999Z</time></trkpt><trkpt lat="44.573732313330105" lon="8.881660141715438"><ele>569.0</ele><time>2026-04-25T11:19:19.999Z</time></trkpt><trkpt lat="44.57383331002014" lon="8.881565072493315"><ele>567.75</ele><time>2026-04-25T11:19:20.999Z</time></trkpt><trkpt lat="44.57392673190972" lon="8.881463520087802"><ele>566.5</ele><time>2026-04-25T11:19:21.999Z</time></trkpt><trkpt lat="44.57403086285435" lon="8.8813615318657"><ele>565.25</ele><time>2026-04-25T11:19:22.999Z</time></trkpt><trkpt lat="44.574156511949205" lon="8.88130035603723"><ele>564.0</ele><time>2026-04-25T11:19:23.999Z</time></trkpt><trkpt lat="44.574268673590126" lon="8.881203492488364"><ele>564.0</ele><time>2026-04-25T11:19:24.999Z</time></trkpt><trkpt lat="44.57439050804198" lon="8.881142727350793"><ele>564.0</ele><time>2026-04-25T11:19:25.999Z</time></trkpt><trkpt lat="44.574514024093716" lon="8.881129908280284"><ele>564.0</ele><time>2026-04-25T11:19:26.999Z</time></trkpt><trkpt lat="44.57464503156274" lon="8.88113817848202"><ele>564.0</ele><time>2026-04-25T11:19:27.999Z</time></trkpt><trkpt lat="44.57478258764818" lon="8.8811257521764"><ele>561.8</ele><time>2026-04-25T11:19:28.999Z</time></trkpt><trkpt lat="44.574905434244414" lon="8.881131176657453"><ele>559.5999999999999</ele><time>2026-04-25T11:19:29.999Z</time></trkpt><trkpt lat="44.57501943129173" lon="8.881108720364333"><ele>557.4</ele><time>2026-04-25T11:19:30.999Z</time></trkpt><trkpt lat="44.575118983888764" lon="8.881069627417139"><ele>555.1999999999999</ele><time>2026-04-25T11:19:31.999Z</time></trkpt><trkpt lat="44.57520499565979" lon="8.880988035500108"><ele>553.0</ele><time>2026-04-25T11:19:32.999Z</time></trkpt><trkpt lat="44.57528745884873" lon="8.880882608621983"><ele>553.0</ele><time>2026-04-25T11:19:33.999Z</time></trkpt><trkpt lat="44.575324380562115" lon="8.880731906489013"><ele>553.0</ele><time>2026-04-25T11:19:34.999Z</time></trkpt><trkpt lat="44.57536564105102" lon="8.88059617719912"><ele>553.0</ele><time>2026-04-25T11:19:35.999Z</time></trkpt><trkpt lat="44.57540735201028" lon="8.88047054888078"><ele>553.0</ele><time>2026-04-25T11:19:36.999Z</time></trkpt><trkpt lat="44.57545399867404" lon="8.880363255050606"><ele>553.0</ele><time>2026-04-25T11:19:37.999Z</time></trkpt><trkpt lat="44.57551722592809" lon="8.880277519402046"><ele>551.8</ele><time>2026-04-25T11:19:38.999Z</time></trkpt><trkpt lat="44.57559999653638" lon="8.880239252193542"><ele>550.5999999999999</ele><time>2026-04-25T11:19:39.999Z</time></trkpt><trkpt lat="44.57567003657182" lon="8.880176998183396"><ele>549.4000000000001</ele><time>2026-04-25T11:19:40.999Z</time></trkpt><trkpt lat="44.575739239212545" lon="8.880095162807395"><ele>548.2</ele><time>2026-04-25T11:19:41.999Z</time></trkpt><trkpt lat="44.57583488852603" lon="8.880045285616118"><ele>547.0</ele><time>2026-04-25T11:19:42.999Z</time></trkpt><trkpt lat="44.57595166174389" lon="8.880033214167142"><ele>547.0</ele><time>2026-04-25T11:19:43.999Z</time></trkpt><trkpt lat="44.57606927588701" lon="8.879975300009077"><ele>547.0</ele><time>2026-04-25T11:19:44.999Z</time></trkpt><trkpt lat="44.576179190489526" lon="8.879857114448708"><ele>547.0</ele><time>2026-04-25T11:19:45.999Z</time></trkpt><trkpt lat="44.57629275568714" lon="8.879735997454693"><ele>547.0</ele><time>2026-04-25T11:19:46.999Z</time></trkpt><trkpt lat="44.576406009677235" lon="8.879622542506256"><ele>545.5</ele><time>2026-04-25T11:19:47.999Z</time></trkpt><trkpt lat="44.576516711146944" lon="8.879513741815149"><ele>544.0</ele><time>2026-04-25T11:19:48.999Z</time></trkpt><trkpt lat="44.57661891523733" lon="8.87939957785196"><ele>542.5</ele><time>2026-04-25T11:19:49.999Z</time></trkpt><trkpt lat="44.57670790263666" lon="8.87927074591963"><ele>541.0</ele><time>2026-04-25T11:19:50.999Z</time></trkpt><trkpt lat="44.57678693234824" lon="8.879131733100486"><ele>541.0</ele><time>2026-04-25T11:19:51.999Z</time></trkpt><trkpt lat="44.5768751885233" lon="8.87903181400304"><ele>541.0</ele><time>2026-04-25T11:19:52.999Z</time></trkpt><trkpt lat="44.57696376054374" lon="8.878953709902813"><ele>541.0</ele><time>2026-04-25T11:19:53.999Z</time></trkpt><trkpt lat="44.57705596077567" lon="8.878860113140375"><ele>541.0</ele><time>2026-04-25T11:19:54.999Z</time></trkpt><trkpt lat="44.57716898215153" lon="8.878793053852334"><ele>541.0</ele><time>2026-04-25T11:19:55.999Z</time></trkpt><trkpt lat="44.57727724357276" lon="8.878696302415666"><ele>541.0</ele><time>2026-04-25T11:19:56.999Z</time></trkpt><trkpt lat="44.57737379939424" lon="8.878594643096434"><ele>541.0</ele><time>2026-04-25T11:19:57.999Z</time></trkpt><trkpt lat="44.57746250575733" lon="8.878504220792694"><ele>541.0</ele><time>2026-04-25T11:19:58.999Z</time></trkpt><trkpt lat="44.57754042852328" lon="8.87840966759795"><ele>541.0</ele><time>2026-04-25T11:19:59.999Z</time></trkpt><trkpt lat="44.57759217739281" lon="8.878302456620608"><ele>541.0</ele><time>2026-04-25T11:20:00.999Z</time></trkpt><trkpt lat="44.577618280250874" lon="8.878207551747042"><ele>541.0</ele><time>2026-04-25T11:20:01.999Z</time></trkpt><trkpt lat="44.57760256583899" lon="8.878018326663256"><ele>541.0</ele><time>2026-04-25T11:20:03.999Z</time></trkpt><trkpt lat="44.577580066093965" lon="8.877893884020084"><ele>541.0</ele><time>2026-04-25T11:20:04.999Z</time></trkpt><trkpt lat="44.57756359547305" lon="8.877735917319173"><ele>539.75</ele><time>2026-04-25T11:20:05.999Z</time></trkpt><trkpt lat="44.57756553739388" lon="8.87756974780182"><ele>538.5</ele><time>2026-04-25T11:20:06.999Z</time></trkpt><trkpt lat="44.57756893171016" lon="8.877395117848472"><ele>537.25</ele><time>2026-04-25T11:20:07.999Z</time></trkpt><trkpt lat="44.57755932638566" lon="8.877233921950026"><ele>536.0</ele><time>2026-04-25T11:20:08.999Z</time></trkpt><trkpt lat="44.577573347158825" lon="8.877082244442493"><ele>536.0</ele><time>2026-04-25T11:20:09.999Z</time></trkpt><trkpt lat="44.577624405325935" lon="8.87695147389141"><ele>536.0</ele><time>2026-04-25T11:20:10.999Z</time></trkpt><trkpt lat="44.57767130361997" lon="8.876810650804588"><ele>536.0</ele><time>2026-04-25T11:20:11.999Z</time></trkpt><trkpt lat="44.57771630864335" lon="8.876666217372037"><ele>536.0</ele><time>2026-04-25T11:20:12.999Z</time></trkpt><trkpt lat="44.57777525476839" lon="8.876521873785748"><ele>536.0</ele><time>2026-04-25T11:20:13.999Z</time></trkpt><trkpt lat="44.57782312833165" lon="8.876360202809458"><ele>537.0</ele><time>2026-04-25T11:20:14.999Z</time></trkpt><trkpt lat="44.577865401333945" lon="8.876179619251051"><ele>538.0</ele><time>2026-04-25T11:20:15.999Z</time></trkpt><trkpt lat="44.577915090296564" lon="8.87599441593314"><ele>539.0</ele><time>2026-04-25T11:20:16.999Z</time></trkpt><trkpt lat="44.57796846178837" lon="8.875822006059767"><ele>540.0</ele><time>2026-04-25T11:20:17.999Z</time></trkpt><trkpt lat="44.57800600219168" lon="8.875649121520627"><ele>540.0</ele><time>2026-04-25T11:20:18.999Z</time></trkpt><trkpt lat="44.578001187407615" lon="8.875484937837102"><ele>540.0</ele><time>2026-04-25T11:20:19.999Z</time></trkpt><trkpt lat="44.57801255228803" lon="8.875351332391798"><ele>540.0</ele><time>2026-04-25T11:20:20.999Z</time></trkpt><trkpt lat="44.57804940481698" lon="8.875227735454118"><ele>540.0</ele><time>2026-04-25T11:20:21.999Z</time></trkpt><trkpt lat="44.57811783572762" lon="8.875123287768565"><ele>540.0</ele><time>2026-04-25T11:20:22.999Z</time></trkpt><trkpt lat="44.5781951149737" lon="8.875030139902947"><ele>538.4</ele><time>2026-04-25T11:20:23.999Z</time></trkpt><trkpt lat="44.578288918981436" lon="8.874964093839612"><ele>536.8</ele><time>2026-04-25T11:20:24.999Z</time></trkpt><trkpt lat="44.57838817413499" lon="8.874933471978657"><ele>535.2</ele><time>2026-04-25T11:20:25.999Z</time></trkpt><trkpt lat="44.578497781948705" lon="8.874932302531636"><ele>533.6</ele><time>2026-04-25T11:20:26.999Z</time></trkpt><trkpt lat="44.57860730078635" lon="8.874927092704256"><ele>532.0</ele><time>2026-04-25T11:20:27.999Z</time></trkpt><trkpt lat="44.57871120494056" lon="8.874903299120794"><ele>532.0</ele><time>2026-04-25T11:20:28.999Z</time></trkpt><trkpt lat="44.57880473004046" lon="8.874852367008566"><ele>532.0</ele><time>2026-04-25T11:20:29.999Z</time></trkpt><trkpt lat="44.57888736289864" lon="8.87476712965457"><ele>532.0</ele><time>2026-04-25T11:20:30.999Z</time></trkpt><trkpt lat="44.5789613147973" lon="8.87464181953046"><ele>532.0</ele><time>2026-04-25T11:20:31.999Z</time></trkpt><trkpt lat="44.579042516972166" lon="8.87450576615651"><ele>532.0</ele><time>2026-04-25T11:20:32.999Z</time></trkpt><trkpt lat="44.579128786316026" lon="8.874381970316314"><ele>532.0</ele><time>2026-04-25T11:20:33.999Z</time></trkpt><trkpt lat="44.57921043850107" lon="8.874276794626786"><ele>532.0</ele><time>2026-04-25T11:20:34.999Z</time></trkpt><trkpt lat="44.579291367840774" lon="8.874179455257142"><ele>532.0</ele><time>2026-04-25T11:20:35.999Z</time></trkpt><trkpt lat="44.5793843082274" lon="8.874110681315887"><ele>532.0</ele><time>2026-04-25T11:20:36.999Z</time></trkpt><trkpt lat="44.57947804943556" lon="8.874060242366982"><ele>532.0</ele><time>2026-04-25T11:20:37.999Z</time></trkpt><trkpt lat="44.579566522716426" lon="8.874011953937117"><ele>531.6</ele><time>2026-04-25T11:20:38.999Z</time></trkpt><trkpt lat="44.579643604291775" lon="8.873963766998042"><ele>531.2</ele><time>2026-04-25T11:20:39.999Z</time></trkpt><trkpt lat="44.57971190250422" lon="8.873919960607335"><ele>530.8</ele><time>2026-04-25T11:20:40.999Z</time></trkpt><trkpt lat="44.57980146018741" lon="8.873879432477317"><ele>530.4</ele><time>2026-04-25T11:20:42.999Z</time></trkpt><trkpt lat="44.57991946670307" lon="8.873791887426119"><ele>530.0</ele><time>2026-04-25T11:27:38.999Z</time></trkpt><trkpt lat="44.57997782676278" lon="8.873749771071125"><ele>530.0</ele><time>2026-04-25T11:27:39.999Z</time></trkpt><trkpt lat="44.5800557206854" lon="8.873692920921776"><ele>530.0</ele><time>2026-04-25T11:27:40.999Z</time></trkpt><trkpt lat="44.58012408032703" lon="8.873618774452979"><ele>530.0</ele><time>2026-04-25T11:27:41.999Z</time></trkpt><trkpt lat="44.580201978406464" lon="8.87355914681205"><ele>530.0</ele><time>2026-04-25T11:27:42.999Z</time></trkpt><trkpt lat="44.580297284387704" lon="8.873498289925587"><ele>530.0</ele><time>2026-04-25T11:27:43.999Z</time></trkpt><trkpt lat="44.58039714261754" lon="8.87340196346551"><ele>530.25</ele><time>2026-04-25T11:27:44.999Z</time></trkpt><trkpt lat="44.58049174220272" lon="8.873283697441627"><ele>530.5</ele><time>2026-04-25T11:27:45.999Z</time></trkpt><trkpt lat="44.580580540677175" lon="8.873139599555982"><ele>530.75</ele><time>2026-04-25T11:27:46.999Z</time></trkpt><trkpt lat="44.58066335377562" lon="8.872969177501112"><ele>531.0</ele><time>2026-04-25T11:27:47.999Z</time></trkpt><trkpt lat="44.580732888731134" lon="8.872788392682164"><ele>531.0</ele><time>2026-04-25T11:27:48.999Z</time></trkpt><trkpt lat="44.58080129192106" lon="8.872607914490466"><ele>531.0</ele><time>2026-04-25T11:27:50Z</time></trkpt><trkpt lat="44.58086854213877" lon="8.872439623495401"><ele>531.0</ele><time>2026-04-25T11:27:51Z</time></trkpt><trkpt lat="44.580923286126506" lon="8.87227561207506"><ele>531.0</ele><time>2026-04-25T11:27:52Z</time></trkpt><trkpt lat="44.58099020114697" lon="8.87214403426352"><ele>531.75</ele><time>2026-04-25T11:27:53Z</time></trkpt><trkpt lat="44.581064072727045" lon="8.872037669924117"><ele>532.5</ele><time>2026-04-25T11:27:54Z</time></trkpt><trkpt lat="44.58115638537836" lon="8.871944116717591"><ele>533.25</ele><time>2026-04-25T11:27:55Z</time></trkpt><trkpt lat="44.581258883695924" lon="8.871854057692662"><ele>534.0</ele><time>2026-04-25T11:27:56Z</time></trkpt><trkpt lat="44.58137709391202" lon="8.87174142055921"><ele>524.6666666666666</ele><time>2026-04-25T11:27:57Z</time></trkpt><trkpt lat="44.58150851239699" lon="8.871651682746984"><ele>515.3333333333333</ele><time>2026-04-25T11:27:58Z</time></trkpt><trkpt lat="44.58163765914099" lon="8.871533985347462"><ele>506.0</ele><time>2026-04-25T11:27:59Z</time></trkpt><trkpt lat="44.581765214428174" lon="8.871410374697213"><ele>506.0</ele><time>2026-04-25T11:28:00Z</time></trkpt><trkpt lat="44.58188468824621" lon="8.871282443140696"><ele>506.0</ele><time>2026-04-25T11:28:01Z</time></trkpt><trkpt lat="44.58199424336476" lon="8.871150916564087"><ele>506.0</ele><time>2026-04-25T11:28:02Z</time></trkpt><trkpt lat="44.582088212918606" lon="8.871025897167032"><ele>506.0</ele><time>2026-04-25T11:28:03Z</time></trkpt><trkpt lat="44.58217061475948" lon="8.870906640805956"><ele>503.8</ele><time>2026-04-25T11:28:04Z</time></trkpt><trkpt lat="44.582243324377494" lon="8.870792590906836"><ele>501.6</ele><time>2026-04-25T11:28:05Z</time></trkpt><trkpt lat="44.58229767016836" lon="8.870684999883716"><ele>499.4</ele><time>2026-04-25T11:28:06Z</time></trkpt><trkpt lat="44.582352087541516" lon="8.870619903850741"><ele>497.2</ele><time>2026-04-25T11:28:07Z</time></trkpt><trkpt lat="44.58244816247323" lon="8.870621374957512"><ele>495.0</ele><time>2026-04-25T11:28:08Z</time></trkpt><trkpt lat="44.58255528786866" lon="8.8705725065425"><ele>495.0</ele><time>2026-04-25T11:28:09Z</time></trkpt><trkpt lat="44.582674415705014" lon="8.870523931998504"><ele>495.0</ele><time>2026-04-25T11:28:10Z</time></trkpt><trkpt lat="44.58279179011973" lon="8.870475609387995"><ele>495.0</ele><time>2026-04-25T11:28:11Z</time></trkpt><trkpt lat="44.58290059425367" lon="8.870405805699164"><ele>495.0</ele><time>2026-04-25T11:28:12Z</time></trkpt><trkpt lat="44.58301999225525" lon="8.870335247614435"><ele>493.0</ele><time>2026-04-25T11:28:13Z</time></trkpt><trkpt lat="44.583138604821" lon="8.8702360545172"><ele>491.0</ele><time>2026-04-25T11:28:14Z</time></trkpt><trkpt lat="44.58325248418188" lon="8.870115799525616"><ele>489.0</ele><time>2026-04-25T11:28:15Z</time></trkpt><trkpt lat="44.583365486031916" lon="8.870010530624963"><ele>487.0</ele><time>2026-04-25T11:28:16Z</time></trkpt><trkpt lat="44.58348430263839" lon="8.869905594193437"><ele>487.0</ele><time>2026-04-25T11:28:17Z</time></trkpt><trkpt lat="44.583593224267375" lon="8.869761386115787"><ele>487.0</ele><time>2026-04-25T11:28:18Z</time></trkpt><trkpt lat="44.58368875919705" lon="8.86962535486987"><ele>487.0</ele><time>2026-04-25T11:28:19Z</time></trkpt><trkpt lat="44.583782044831466" lon="8.869491237002933"><ele>487.0</ele><time>2026-04-25T11:28:20Z</time></trkpt><trkpt lat="44.583875450389314" lon="8.86935832760341"><ele>485.25</ele><time>2026-04-25T11:28:21Z</time></trkpt><trkpt lat="44.58397183954502" lon="8.869226921244984"><ele>483.5</ele><time>2026-04-25T11:28:22Z</time></trkpt><trkpt lat="44.58406867348421" lon="8.869103832252945"><ele>481.75</ele><time>2026-04-25T11:28:23Z</time></trkpt><trkpt lat="44.58416738564724" lon="8.868999469928845"><ele>480.0</ele><time>2026-04-25T11:28:24Z</time></trkpt><trkpt lat="44.584272202337154" lon="8.868909463080657"><ele>480.0</ele><time>2026-04-25T11:28:25Z</time></trkpt><trkpt lat="44.58439089737989" lon="8.86882789236177"><ele>480.0</ele><time>2026-04-25T11:28:26Z</time></trkpt><trkpt lat="44.584515297912915" lon="8.868727198820924"><ele>480.0</ele><time>2026-04-25T11:28:27Z</time></trkpt><trkpt lat="44.58463718391442" lon="8.868612003743145"><ele>480.0</ele><time>2026-04-25T11:28:28Z</time></trkpt><trkpt lat="44.58472850239813" lon="8.868481354029122"><ele>479.5</ele><time>2026-04-25T11:28:29Z</time></trkpt><trkpt lat="44.584829701542574" lon="8.868374511205994"><ele>479.0</ele><time>2026-04-25T11:28:30Z</time></trkpt><trkpt lat="44.58492941008318" lon="8.86827132152682"><ele>478.5</ele><time>2026-04-25T11:28:31Z</time></trkpt><trkpt lat="44.58503209376289" lon="8.868153245281537"><ele>478.0</ele><time>2026-04-25T11:28:32Z</time></trkpt><trkpt lat="44.585130117859265" lon="8.86802119571254"><ele>478.0</ele><time>2026-04-25T11:28:33Z</time></trkpt><trkpt lat="44.58523576899178" lon="8.867882717284417"><ele>478.0</ele><time>2026-04-25T11:28:34Z</time></trkpt><trkpt lat="44.58534540715827" lon="8.867747531498502"><ele>478.0</ele><time>2026-04-25T11:28:35Z</time></trkpt><trkpt lat="44.58544920917982" lon="8.86760676579258"><ele>478.0</ele><time>2026-04-25T11:28:36Z</time></trkpt><trkpt lat="44.58555069905513" lon="8.867462280179483"><ele>478.5</ele><time>2026-04-25T11:28:37Z</time></trkpt><trkpt lat="44.58565567123444" lon="8.867308734089836"><ele>479.0</ele><time>2026-04-25T11:28:38Z</time></trkpt><trkpt lat="44.5857487008082" lon="8.86714769432115"><ele>479.5</ele><time>2026-04-25T11:28:39Z</time></trkpt><trkpt lat="44.585830143593746" lon="8.86699410466769"><ele>480.0</ele><time>2026-04-25T11:28:40Z</time></trkpt><trkpt lat="44.58589767790807" lon="8.86685344033025"><ele>478.4</ele><time>2026-04-25T11:28:41Z</time></trkpt><trkpt lat="44.58594473935688" lon="8.866732437889764"><ele>476.8</ele><time>2026-04-25T11:28:42Z</time></trkpt><trkpt lat="44.58596182632151" lon="8.866604810046283"><ele>475.20000000000005</ele><time>2026-04-25T11:28:43Z</time></trkpt><trkpt lat="44.585945020724125" lon="8.866455741241841"><ele>473.6</ele><time>2026-04-25T11:28:44Z</time></trkpt><trkpt lat="44.58591592899394" lon="8.866279147291259"><ele>472.0</ele><time>2026-04-25T11:28:45Z</time></trkpt><trkpt lat="44.58591668511347" lon="8.866102035733908"><ele>470.6</ele><time>2026-04-25T11:28:46Z</time></trkpt><trkpt lat="44.58592997818609" lon="8.865934077205392"><ele>469.20000000000005</ele><time>2026-04-25T11:28:47Z</time></trkpt><trkpt lat="44.58595751063489" lon="8.865788397322733"><ele>467.8</ele><time>2026-04-25T11:28:48Z</time></trkpt><trkpt lat="44.58601175722669" lon="8.865680253900756"><ele>466.4</ele><time>2026-04-25T11:28:49Z</time></trkpt><trkpt lat="44.58605538784744" lon="8.865574439403614"><ele>465.0</ele><time>2026-04-25T11:28:50Z</time></trkpt><trkpt lat="44.58614098716702" lon="8.86550185074218"><ele>464.6</ele><time>2026-04-25T11:28:51Z</time></trkpt><trkpt lat="44.58624797711466" lon="8.865455118018515"><ele>464.2</ele><time>2026-04-25T11:28:52Z</time></trkpt><trkpt lat="44.58636676823767" lon="8.86545430985477"><ele>463.79999999999995</ele><time>2026-04-25T11:28:53Z</time></trkpt><trkpt lat="44.58647241110151" lon="8.865449594271311"><ele>463.4</ele><time>2026-04-25T11:28:54Z</time></trkpt><trkpt lat="44.58657397071296" lon="8.86546172963008"><ele>463.0</ele><time>2026-04-25T11:28:55Z</time></trkpt><trkpt lat="44.58668573315683" lon="8.865470732736808"><ele>463.0</ele><time>2026-04-25T11:28:56Z</time></trkpt><trkpt lat="44.5867835261439" lon="8.865534319690745"><ele>462.99999999999994</ele><time>2026-04-25T11:28:57Z</time></trkpt><trkpt lat="44.58687735644099" lon="8.865572182353658"><ele>462.99999999999994</ele><time>2026-04-25T11:28:58Z</time></trkpt><trkpt lat="44.5869556093518" lon="8.86560986293176"><ele>463.0</ele><time>2026-04-25T11:28:59Z</time></trkpt><trkpt lat="44.587028728776005" lon="8.865595592256746"><ele>463.0</ele><time>2026-04-25T11:28:59.999Z</time></trkpt><trkpt lat="44.58711361624954" lon="8.86553126809372"><ele>462.25</ele><time>2026-04-25T11:29:00.999Z</time></trkpt><trkpt lat="44.58722196354727" lon="8.865470309979495"><ele>461.5</ele><time>2026-04-25T11:29:01.999Z</time></trkpt><trkpt lat="44.58733722139314" lon="8.865374981767546"><ele>460.75</ele><time>2026-04-25T11:29:02.999Z</time></trkpt><trkpt lat="44.58746919008585" lon="8.865347452913161"><ele>460.0</ele><time>2026-04-25T11:29:03.999Z</time></trkpt><trkpt lat="44.58759810743754" lon="8.865290769782954"><ele>460.0</ele><time>2026-04-25T11:29:04.999Z</time></trkpt><trkpt lat="44.587741784468186" lon="8.865275980812838"><ele>460.0</ele><time>2026-04-25T11:29:05.999Z</time></trkpt><trkpt lat="44.58787849695969" lon="8.865254455068763"><ele>460.0</ele><time>2026-04-25T11:29:06.999Z</time></trkpt><trkpt lat="44.58800038513837" lon="8.865216038139645"><ele>460.0</ele><time>2026-04-25T11:29:07.999Z</time></trkpt><trkpt lat="44.58811223824132" lon="8.865153420711787"><ele>460.25</ele><time>2026-04-25T11:29:08.999Z</time></trkpt><trkpt lat="44.588208260599075" lon="8.865059994325344"><ele>460.5</ele><time>2026-04-25T11:29:09.999Z</time></trkpt><trkpt lat="44.5882886806036" lon="8.864937296044738"><ele>460.75</ele><time>2026-04-25T11:29:10.999Z</time></trkpt><trkpt lat="44.58835778024236" lon="8.864792970579726"><ele>461.0</ele><time>2026-04-25T11:29:11.999Z</time></trkpt><trkpt lat="44.58841507940536" lon="8.86463665169431"><ele>461.0</ele><time>2026-04-25T11:29:12.999Z</time></trkpt><trkpt lat="44.5884599626566" lon="8.86448366984918"><ele>461.0</ele><time>2026-04-25T11:29:13.999Z</time></trkpt><trkpt lat="44.58848595756107" lon="8.86433373211109"><ele>461.0</ele><time>2026-04-25T11:29:14.999Z</time></trkpt><trkpt lat="44.58850459649716" lon="8.864181022820864"><ele>461.0</ele><time>2026-04-25T11:29:15.999Z</time></trkpt><trkpt lat="44.58851613444394" lon="8.864038354733061"><ele>461.0</ele><time>2026-04-25T11:29:16.999Z</time></trkpt><trkpt lat="44.588530959424205" lon="8.863912539727208"><ele>460.66666666666663</ele><time>2026-04-25T11:29:17.999Z</time></trkpt><trkpt lat="44.588547135737066" lon="8.863795876679914"><ele>460.3333333333333</ele><time>2026-04-25T11:29:18.999Z</time></trkpt><trkpt lat="44.58857702365806" lon="8.863694415851832"><ele>460.0</ele><time>2026-04-25T11:29:19.999Z</time></trkpt><trkpt lat="44.58860622732239" lon="8.863594515339498"><ele>459.66666666666663</ele><time>2026-04-25T11:29:20.999Z</time></trkpt><trkpt lat="44.58864685135346" lon="8.863494722306735"><ele>459.3333333333333</ele><time>2026-04-25T11:29:21.999Z</time></trkpt><trkpt lat="44.58868820008579" lon="8.863371092675273"><ele>459.0</ele><time>2026-04-25T11:29:23Z</time></trkpt><trkpt lat="44.58874285468899" lon="8.863259654734001"><ele>459.0</ele><time>2026-04-25T11:29:24Z</time></trkpt><trkpt lat="44.58879202846835" lon="8.863148663051573"><ele>459.0</ele><time>2026-04-25T11:29:25Z</time></trkpt><trkpt lat="44.588837493583206" lon="8.86304047532055"><ele>459.0</ele><time>2026-04-25T11:29:26Z</time></trkpt><trkpt lat="44.5888795457279" lon="8.862938531462893"><ele>459.0</ele><time>2026-04-25T11:29:27Z</time></trkpt><trkpt lat="44.588920464602914" lon="8.862825037109967"><ele>459.0</ele><time>2026-04-25T11:29:28Z</time></trkpt><trkpt lat="44.588966372759636" lon="8.862703453643807"><ele>458.4</ele><time>2026-04-25T11:29:29Z</time></trkpt><trkpt lat="44.588996832788396" lon="8.862578499385341"><ele>457.79999999999995</ele><time>2026-04-25T11:29:30Z</time></trkpt><trkpt lat="44.58899027585024" lon="8.862443202607986"><ele>457.20000000000005</ele><time>2026-04-25T11:29:31Z</time></trkpt><trkpt lat="44.58895520693381" lon="8.862311187912585"><ele>456.6</ele><time>2026-04-25T11:29:32Z</time></trkpt><trkpt lat="44.58888625578231" lon="8.862193899323332"><ele>456.0</ele><time>2026-04-25T11:29:33Z</time></trkpt><trkpt lat="44.58879610195371" lon="8.862099494477532"><ele>456.0</ele><time>2026-04-25T11:29:34Z</time></trkpt><trkpt lat="44.58871911147521" lon="8.862004110760063"><ele>456.0</ele><time>2026-04-25T11:29:35Z</time></trkpt><trkpt lat="44.588678040078065" lon="8.861892620448055"><ele>456.0</ele><time>2026-04-25T11:29:36Z</time></trkpt><trkpt lat="44.588690452166" lon="8.86177222335635"><ele>456.0</ele><time>2026-04-25T11:29:37Z</time></trkpt><trkpt lat="44.58870222480032" lon="8.861657475791993"><ele>456.0</ele><time>2026-04-25T11:29:38Z</time></trkpt><trkpt lat="44.58875553789925" lon="8.861532642685647"><ele>455.8</ele><time>2026-04-25T11:29:39Z</time></trkpt><trkpt lat="44.588823210697285" lon="8.861401159051017"><ele>455.6</ele><time>2026-04-25T11:29:40Z</time></trkpt><trkpt lat="44.588893291388445" lon="8.86128327894023"><ele>455.4</ele><time>2026-04-25T11:29:41Z</time></trkpt><trkpt lat="44.58896787464393" lon="8.8611963287073"><ele>455.2</ele><time>2026-04-25T11:29:42Z</time></trkpt><trkpt lat="44.589047252925695" lon="8.861136166869947"><ele>455.0</ele><time>2026-04-25T11:29:43Z</time></trkpt><trkpt lat="44.589143734036035" lon="8.861112577997213"><ele>455.0</ele><time>2026-04-25T11:29:44Z</time></trkpt><trkpt lat="44.58925500737344" lon="8.861093396175374"><ele>455.0</ele><time>2026-04-25T11:29:45Z</time></trkpt><trkpt lat="44.58938209881314" lon="8.861073804506113"><ele>455.0</ele><time>2026-04-25T11:29:46Z</time></trkpt><trkpt lat="44.589518326984795" lon="8.861080445135224"><ele>455.0</ele><time>2026-04-25T11:29:47Z</time></trkpt><trkpt lat="44.589653258551856" lon="8.861094877335411"><ele>454.25</ele><time>2026-04-25T11:29:48Z</time></trkpt><trkpt lat="44.58979003937864" lon="8.861102103295998"><ele>453.5</ele><time>2026-04-25T11:29:49Z</time></trkpt><trkpt lat="44.589933616805546" lon="8.861108188608227"><ele>452.75</ele><time>2026-04-25T11:29:50Z</time></trkpt><trkpt lat="44.59007091315049" lon="8.861123334262318"><ele>452.0</ele><time>2026-04-25T11:29:51Z</time></trkpt><trkpt lat="44.59020440238205" lon="8.861156326908208"><ele>452.0</ele><time>2026-04-25T11:29:52Z</time></trkpt><trkpt lat="44.59033049914982" lon="8.861214509985428"><ele>452.0</ele><time>2026-04-25T11:29:53Z</time></trkpt><trkpt lat="44.59045314559538" lon="8.861268078614742"><ele>452.0</ele><time>2026-04-25T11:29:54Z</time></trkpt><trkpt lat="44.590576154782354" lon="8.86129410181071"><ele>452.0</ele><time>2026-04-25T11:29:55Z</time></trkpt><trkpt lat="44.590702940896726" lon="8.861271496930069"><ele>451.5</ele><time>2026-04-25T11:29:56Z</time></trkpt><trkpt lat="44.59083511583774" lon="8.861224623954737"><ele>451.0</ele><time>2026-04-25T11:29:57Z</time></trkpt><trkpt lat="44.590970952132075" lon="8.861183992799587"><ele>450.5</ele><time>2026-04-25T11:29:58Z</time></trkpt><trkpt lat="44.59109670610731" lon="8.861168778780295"><ele>450.0</ele><time>2026-04-25T11:29:59Z</time></trkpt><trkpt lat="44.591215485524444" lon="8.861125624894534"><ele>451.5</ele><time>2026-04-25T11:30:00Z</time></trkpt><trkpt lat="44.591319250665315" lon="8.86103993349645"><ele>453.0</ele><time>2026-04-25T11:30:01Z</time></trkpt><trkpt lat="44.591405196829925" lon="8.860934029965142"><ele>454.5</ele><time>2026-04-25T11:30:02Z</time></trkpt><trkpt lat="44.59148047630282" lon="8.86080593902174"><ele>456.0</ele><time>2026-04-25T11:30:03Z</time></trkpt><trkpt lat="44.59154337754316" lon="8.860651629586673"><ele>456.0</ele><time>2026-04-25T11:30:04Z</time></trkpt><trkpt lat="44.59159960240601" lon="8.860481220525"><ele>456.0</ele><time>2026-04-25T11:30:05Z</time></trkpt><trkpt lat="44.59164511787855" lon="8.860310494598108"><ele>456.0</ele><time>2026-04-25T11:30:06Z</time></trkpt><trkpt lat="44.59168131492652" lon="8.860149043566153"><ele>456.0</ele><time>2026-04-25T11:30:07Z</time></trkpt><trkpt lat="44.59169644052153" lon="8.859984031933822"><ele>453.25</ele><time>2026-04-25T11:30:08Z</time></trkpt><trkpt lat="44.59166918412873" lon="8.859800232052036"><ele>450.5</ele><time>2026-04-25T11:30:09Z</time></trkpt><trkpt lat="44.59162150853241" lon="8.859604805867455"><ele>447.75</ele><time>2026-04-25T11:30:10Z</time></trkpt><trkpt lat="44.59155399686317" lon="8.859407221980144"><ele>445.0</ele><time>2026-04-25T11:30:11Z</time></trkpt><trkpt lat="44.59151644875965" lon="8.85921270369122"><ele>445.0</ele><time>2026-04-25T11:30:12Z</time></trkpt><trkpt lat="44.59149988674049" lon="8.859022138770918"><ele>445.0</ele><time>2026-04-25T11:30:13Z</time></trkpt><trkpt lat="44.5914890377951" lon="8.85881090546668"><ele>445.0</ele><time>2026-04-25T11:30:14Z</time></trkpt><trkpt lat="44.591460876615194" lon="8.85859397874348"><ele>445.0</ele><time>2026-04-25T11:30:15Z</time></trkpt><trkpt lat="44.5914423762065" lon="8.858391958220915"><ele>444.5</ele><time>2026-04-25T11:30:16Z</time></trkpt><trkpt lat="44.59140196464222" lon="8.858211143244217"><ele>444.0</ele><time>2026-04-25T11:30:17Z</time></trkpt><trkpt lat="44.59136170997006" lon="8.858030930523311"><ele>443.5</ele><time>2026-04-25T11:30:18Z</time></trkpt><trkpt lat="44.59131127899295" lon="8.857867986349232"><ele>443.0</ele><time>2026-04-25T11:30:19Z</time></trkpt><trkpt lat="44.59127098374482" lon="8.857729457977799"><ele>440.2</ele><time>2026-04-25T11:30:20Z</time></trkpt><trkpt lat="44.59123493003132" lon="8.85760949423863"><ele>437.4</ele><time>2026-04-25T11:30:21Z</time></trkpt><trkpt lat="44.591272327284116" lon="8.857480549743483"><ele>434.59999999999997</ele><time>2026-04-25T11:30:22Z</time></trkpt><trkpt lat="44.59130883658404" lon="8.857334220104397"><ele>431.79999999999995</ele><time>2026-04-25T11:30:23Z</time></trkpt><trkpt lat="44.591400431141025" lon="8.857191846968849"><ele>429.0</ele><time>2026-04-25T11:30:24Z</time></trkpt><trkpt lat="44.59149659599974" lon="8.85704138904849"><ele>429.0</ele><time>2026-04-25T11:30:25Z</time></trkpt><trkpt lat="44.59157900547786" lon="8.856909932965554"><ele>429.0</ele><time>2026-04-25T11:30:26Z</time></trkpt><trkpt lat="44.59165711462186" lon="8.856830263424163"><ele>429.0</ele><time>2026-04-25T11:30:27Z</time></trkpt><trkpt lat="44.59172791502165" lon="8.856778496931396"><ele>429.0</ele><time>2026-04-25T11:30:28Z</time></trkpt><trkpt lat="44.59179596623446" lon="8.856709057809804"><ele>429.0</ele><time>2026-04-25T11:30:29Z</time></trkpt><trkpt lat="44.59186978391772" lon="8.856692626096574"><ele>429.0</ele><time>2026-04-25T11:30:30Z</time></trkpt><trkpt lat="44.591940575974675" lon="8.856731549732768"><ele>429.0</ele><time>2026-04-25T11:30:31Z</time></trkpt><trkpt lat="44.59199012214306" lon="8.856840787849169"><ele>429.0</ele><time>2026-04-25T11:30:32Z</time></trkpt><trkpt lat="44.59208024284048" lon="8.856915261411164"><ele>429.0</ele><time>2026-04-25T11:30:33Z</time></trkpt><trkpt lat="44.59217126173737" lon="8.857028888036824"><ele>429.0</ele><time>2026-04-25T11:30:34Z</time></trkpt><trkpt lat="44.59228212494792" lon="8.857134335847581"><ele>427.75</ele><time>2026-04-25T11:30:35Z</time></trkpt><trkpt lat="44.59241267538414" lon="8.857228966415072"><ele>426.5</ele><time>2026-04-25T11:30:36Z</time></trkpt><trkpt lat="44.5925505654142" lon="8.857297554269284"><ele>425.25</ele><time>2026-04-25T11:30:36.999Z</time></trkpt><trkpt lat="44.592689537131676" lon="8.85735418044634"><ele>424.0</ele><time>2026-04-25T11:30:37.999Z</time></trkpt><trkpt lat="44.59282033577097" lon="8.857435755978239"><ele>426.25</ele><time>2026-04-25T11:30:38.999Z</time></trkpt><trkpt lat="44.59295164674182" lon="8.857519429340696"><ele>428.5</ele><time>2026-04-25T11:30:39.999Z</time></trkpt><trkpt lat="44.59306341536578" lon="8.857654145051795"><ele>430.75</ele><time>2026-04-25T11:30:40.999Z</time></trkpt><trkpt lat="44.593168872181835" lon="8.857794359257312"><ele>433.0</ele><time>2026-04-25T11:30:41.999Z</time></trkpt><trkpt lat="44.593267191573254" lon="8.857924912937046"><ele>433.0</ele><time>2026-04-25T11:30:42.999Z</time></trkpt><trkpt lat="44.59337467522414" lon="8.858032659786659"><ele>433.0</ele><time>2026-04-25T11:30:43.999Z</time></trkpt><trkpt lat="44.593445754925945" lon="8.858170151028009"><ele>433.0</ele><time>2026-04-25T11:30:44.999Z</time></trkpt><trkpt lat="44.59352155593202" lon="8.858317504855574"><ele>433.0</ele><time>2026-04-25T11:30:45.999Z</time></trkpt><trkpt lat="44.59357428043372" lon="8.85851056761434"><ele>434.33333333333337</ele><time>2026-04-25T11:30:46.999Z</time></trkpt><trkpt lat="44.59366217900405" lon="8.858706315657836"><ele>435.66666666666663</ele><time>2026-04-25T11:30:47.999Z</time></trkpt><trkpt lat="44.59377242579962" lon="8.858895142621428"><ele>437.0</ele><time>2026-04-25T11:30:48.999Z</time></trkpt><trkpt lat="44.59387373311734" lon="8.859076684916287"><ele>437.0</ele><time>2026-04-25T11:30:49.999Z</time></trkpt><trkpt lat="44.59396904808013" lon="8.859253437958264"><ele>437.0</ele><time>2026-04-25T11:30:50.999Z</time></trkpt><trkpt lat="44.59406079184923" lon="8.859434213454211"><ele>437.0</ele><time>2026-04-25T11:30:51.999Z</time></trkpt><trkpt lat="44.59415572257124" lon="8.859625037898189"><ele>429.3333333333333</ele><time>2026-04-25T11:30:52.999Z</time></trkpt><trkpt lat="44.59426350177461" lon="8.859801705974084"><ele>421.66666666666663</ele><time>2026-04-25T11:30:53.999Z</time></trkpt><trkpt lat="44.59438148573576" lon="8.859970281191682"><ele>414.0</ele><time>2026-04-25T11:30:54.999Z</time></trkpt><trkpt lat="44.594506782107366" lon="8.860126398457515"><ele>410.0</ele><time>2026-04-25T11:30:55.999Z</time></trkpt><trkpt lat="44.59465749485392" lon="8.860267658754008"><ele>406.0</ele><time>2026-04-25T11:30:56.999Z</time></trkpt><trkpt lat="44.594818609111904" lon="8.860408337267428"><ele>402.0</ele><time>2026-04-25T11:30:57.999Z</time></trkpt><trkpt lat="44.59497527463153" lon="8.86054914109802"><ele>402.0</ele><time>2026-04-25T11:30:58.999Z</time></trkpt><trkpt lat="44.595126427892424" lon="8.860687717732002"><ele>402.0</ele><time>2026-04-25T11:30:59.999Z</time></trkpt><trkpt lat="44.59528049549804" lon="8.860813372857622"><ele>402.0</ele><time>2026-04-25T11:31:00.999Z</time></trkpt><trkpt lat="44.59542815570259" lon="8.860929195498397"><ele>401.33333333333337</ele><time>2026-04-25T11:31:01.999Z</time></trkpt><trkpt lat="44.59557510914618" lon="8.861030357777521"><ele>400.6666666666667</ele><time>2026-04-25T11:31:02.999Z</time></trkpt><trkpt lat="44.595730564239496" lon="8.861097746627356"><ele>400.0</ele><time>2026-04-25T11:31:03.999Z</time></trkpt><trkpt lat="44.59589313815735" lon="8.861135985305738"><ele>400.0</ele><time>2026-04-25T11:31:04.999Z</time></trkpt><trkpt lat="44.59605671146377" lon="8.861174592809691"><ele>400.0</ele><time>2026-04-25T11:31:05.999Z</time></trkpt><trkpt lat="44.596222739835476" lon="8.861187459914175"><ele>400.0</ele><time>2026-04-25T11:31:06.999Z</time></trkpt><trkpt lat="44.59642446541864" lon="8.861148048225559"><ele>401.33333333333337</ele><time>2026-04-25T11:31:07.999Z</time></trkpt><trkpt lat="44.5966081901577" lon="8.861155458052648"><ele>402.66666666666663</ele><time>2026-04-25T11:31:08.999Z</time></trkpt><trkpt lat="44.59678148699853" lon="8.861146901174784"><ele>404.0</ele><time>2026-04-25T11:31:09.999Z</time></trkpt><trkpt lat="44.596952954397814" lon="8.861124984643022"><ele>403.0</ele><time>2026-04-25T11:31:10.999Z</time></trkpt><trkpt lat="44.5971259433092" lon="8.861076718288217"><ele>402.0</ele><time>2026-04-25T11:31:11.999Z</time></trkpt><trkpt lat="44.59729671263226" lon="8.860998385781663"><ele>401.0</ele><time>2026-04-25T11:31:12.999Z</time></trkpt><trkpt lat="44.59746467609244" lon="8.86089864323726"><ele>401.0</ele><time>2026-04-25T11:31:13.999Z</time></trkpt><trkpt lat="44.59762395496527" lon="8.860790307580013"><ele>401.0</ele><time>2026-04-25T11:31:14.999Z</time></trkpt><trkpt lat="44.597775391729016" lon="8.860686523615366"><ele>401.0</ele><time>2026-04-25T11:31:15.999Z</time></trkpt><trkpt lat="44.59792036870017" lon="8.860577931745519"><ele>404.0</ele><time>2026-04-25T11:31:16.999Z</time></trkpt><trkpt lat="44.598066992829" lon="8.860473270295767"><ele>407.0</ele><time>2026-04-25T11:31:17.999Z</time></trkpt><trkpt lat="44.598214921464226" lon="8.860408543830612"><ele>410.0</ele><time>2026-04-25T11:31:18.999Z</time></trkpt><trkpt lat="44.598360595774864" lon="8.860343842740122"><ele>410.0</ele><time>2026-04-25T11:31:19.999Z</time></trkpt><trkpt lat="44.598504746835246" lon="8.860305045765392"><ele>410.0</ele><time>2026-04-25T11:31:20.999Z</time></trkpt><trkpt lat="44.59864935622193" lon="8.860242368248224"><ele>410.0</ele><time>2026-04-25T11:31:21.999Z</time></trkpt><trkpt lat="44.598778670058934" lon="8.860208878845965"><ele>410.0</ele><time>2026-04-25T11:31:22.999Z</time></trkpt><trkpt lat="44.59888371439918" lon="8.860156863130227"><ele>408.25</ele><time>2026-04-25T11:31:23.999Z</time></trkpt><trkpt lat="44.5989716245312" lon="8.860075812767407"><ele>406.5</ele><time>2026-04-25T11:31:24.999Z</time></trkpt><trkpt lat="44.59905454411044" lon="8.859956438798944"><ele>404.75</ele><time>2026-04-25T11:31:25.999Z</time></trkpt><trkpt lat="44.59912868239455" lon="8.859823389865303"><ele>403.0</ele><time>2026-04-25T11:31:26.999Z</time></trkpt><trkpt lat="44.599210970132766" lon="8.859690336829406"><ele>403.0</ele><time>2026-04-25T11:31:27.999Z</time></trkpt><trkpt lat="44.59929951624451" lon="8.859552065290657"><ele>403.0</ele><time>2026-04-25T11:31:28.999Z</time></trkpt><trkpt lat="44.59939246530517" lon="8.859398501164438"><ele>403.0</ele><time>2026-04-25T11:31:29.999Z</time></trkpt><trkpt lat="44.59948376452757" lon="8.859251524503167"><ele>403.0</ele><time>2026-04-25T11:31:30.999Z</time></trkpt><trkpt lat="44.59958744859211" lon="8.859141132879088"><ele>402.75</ele><time>2026-04-25T11:31:31.999Z</time></trkpt><trkpt lat="44.59968298023068" lon="8.85904119032682"><ele>402.5</ele><time>2026-04-25T11:31:32.999Z</time></trkpt><trkpt lat="44.59978381439415" lon="8.858960587573355"><ele>402.25</ele><time>2026-04-25T11:31:33.999Z</time></trkpt><trkpt lat="44.599888121144794" lon="8.858896212833528"><ele>402.0</ele><time>2026-04-25T11:31:34.999Z</time></trkpt><trkpt lat="44.600009819305804" lon="8.858830365283161"><ele>402.0</ele><time>2026-04-25T11:31:35.999Z</time></trkpt><trkpt lat="44.60014797030509" lon="8.85880783604626"><ele>402.0</ele><time>2026-04-25T11:31:36.999Z</time></trkpt><trkpt lat="44.600300283982236" lon="8.858779157496839"><ele>402.0</ele><time>2026-04-25T11:31:37.999Z</time></trkpt><trkpt lat="44.60045404833973" lon="8.85875467599915"><ele>402.0</ele><time>2026-04-25T11:31:38.999Z</time></trkpt><trkpt lat="44.60060718785413" lon="8.858712836592609"><ele>406.5</ele><time>2026-04-25T11:31:39.999Z</time></trkpt><trkpt lat="44.60074835267172" lon="8.858701336149545"><ele>411.0</ele><time>2026-04-25T11:31:40.999Z</time></trkpt><trkpt lat="44.600881358101766" lon="8.858685109336315"><ele>415.5</ele><time>2026-04-25T11:31:41.999Z</time></trkpt><trkpt lat="44.60101752362211" lon="8.858671088521023"><ele>420.0</ele><time>2026-04-25T11:31:42.999Z</time></trkpt><trkpt lat="44.60115627268581" lon="8.858698586319699"><ele>418.75</ele><time>2026-04-25T11:31:43.999Z</time></trkpt><trkpt lat="44.6013015638049" lon="8.858683817041166"><ele>417.5</ele><time>2026-04-25T11:31:44.999Z</time></trkpt><trkpt lat="44.60145794702766" lon="8.858681750180782"><ele>416.25</ele><time>2026-04-25T11:31:45.999Z</time></trkpt><trkpt lat="44.601560127400994" lon="8.858675459954888"><ele>415.0</ele><time>2026-04-25T11:31:46.999Z</time></trkpt><trkpt lat="44.60167153703552" lon="8.858639772579673"><ele>415.0</ele><time>2026-04-25T11:31:47.999Z</time></trkpt><trkpt lat="44.60177373266403" lon="8.85856157057893"><ele>415.0</ele><time>2026-04-25T11:31:48.999Z</time></trkpt><trkpt lat="44.601874386932906" lon="8.858436704200109"><ele>415.0</ele><time>2026-04-25T11:31:49.999Z</time></trkpt><trkpt lat="44.60199075390205" lon="8.85830689811617"><ele>415.0</ele><time>2026-04-25T11:31:50.999Z</time></trkpt><trkpt lat="44.60209706656499" lon="8.858150524825147"><ele>413.75</ele><time>2026-04-25T11:31:51.999Z</time></trkpt><trkpt lat="44.6022119385683" lon="8.858027861403741"><ele>412.5</ele><time>2026-04-25T11:31:52.999Z</time></trkpt><trkpt lat="44.60230959349696" lon="8.857888616724644"><ele>411.25</ele><time>2026-04-25T11:31:53.999Z</time></trkpt><trkpt lat="44.60241410124039" lon="8.857752191536267"><ele>410.0</ele><time>2026-04-25T11:31:54.999Z</time></trkpt><trkpt lat="44.602509338407565" lon="8.857608169068472"><ele>407.75</ele><time>2026-04-25T11:31:55.999Z</time></trkpt><trkpt lat="44.602614708183935" lon="8.85746905772793"><ele>405.5</ele><time>2026-04-25T11:31:56.999Z</time></trkpt><trkpt lat="44.60269066699579" lon="8.85729352648455"><ele>403.25</ele><time>2026-04-25T11:31:57.999Z</time></trkpt><trkpt lat="44.60277299321865" lon="8.857126250943836"><ele>401.0</ele><time>2026-04-25T11:31:58.999Z</time></trkpt><trkpt lat="44.60286070333457" lon="8.856982697833221"><ele>401.0</ele><time>2026-04-25T11:31:59.999Z</time></trkpt><trkpt lat="44.602926099277965" lon="8.856823169792394"><ele>401.0</ele><time>2026-04-25T11:32:00.999Z</time></trkpt><trkpt lat="44.60300591491358" lon="8.856682416603313"><ele>401.0</ele><time>2026-04-25T11:32:01.999Z</time></trkpt><trkpt lat="44.60307843153146" lon="8.85654384584241"><ele>401.0</ele><time>2026-04-25T11:32:02.999Z</time></trkpt><trkpt lat="44.603152807815945" lon="8.856415357496632"><ele>397.6</ele><time>2026-04-25T11:32:03.999Z</time></trkpt><trkpt lat="44.60321797072305" lon="8.856298360340828"><ele>394.20000000000005</ele><time>2026-04-25T11:32:04.999Z</time></trkpt><trkpt lat="44.60327629254914" lon="8.856195044088158"><ele>390.79999999999995</ele><time>2026-04-25T11:32:05.999Z</time></trkpt><trkpt lat="44.60332572456701" lon="8.856107974791522"><ele>387.4</ele><time>2026-04-25T11:32:06.999Z</time></trkpt><trkpt lat="44.603394889234565" lon="8.855994970887759"><ele>384.0</ele><time>2026-04-25T11:32:08.999Z</time></trkpt><trkpt lat="44.60346101504777" lon="8.85591752520822"><ele>383.6666666666667</ele><time>2026-04-25T11:32:20.999Z</time></trkpt><trkpt lat="44.60351442209974" lon="8.855766211594904"><ele>383.3333333333333</ele><time>2026-04-25T11:32:22.999Z</time></trkpt><trkpt lat="44.603568727420615" lon="8.855665478137634"><ele>383.0</ele><time>2026-04-25T11:32:23.999Z</time></trkpt><trkpt lat="44.603627726509124" lon="8.855575416411616"><ele>382.66666666666663</ele><time>2026-04-25T11:32:24.999Z</time></trkpt><trkpt lat="44.60367236712241" lon="8.855500770929652"><ele>382.3333333333333</ele><time>2026-04-25T11:32:25.999Z</time></trkpt><trkpt lat="44.603718689713745" lon="8.855420113357315"><ele>382.0</ele><time>2026-04-25T11:32:26.999Z</time></trkpt><trkpt lat="44.60376859961521" lon="8.85532926112039"><ele>381.8</ele><time>2026-04-25T11:32:27.999Z</time></trkpt><trkpt lat="44.603830966243805" lon="8.855232226146779"><ele>381.6</ele><time>2026-04-25T11:32:28.999Z</time></trkpt><trkpt lat="44.6039069805935" lon="8.855123744133518"><ele>381.40000000000003</ele><time>2026-04-25T11:32:29.999Z</time></trkpt><trkpt lat="44.60399081785524" lon="8.855001701655404"><ele>381.20000000000005</ele><time>2026-04-25T11:32:30.999Z</time></trkpt><trkpt lat="44.60408003170167" lon="8.854881752004326"><ele>381.0</ele><time>2026-04-25T11:32:31.999Z</time></trkpt><trkpt lat="44.60417685770541" lon="8.854764240712687"><ele>381.6666666666667</ele><time>2026-04-25T11:32:32.999Z</time></trkpt><trkpt lat="44.60428542098624" lon="8.854640203640752"><ele>382.33333333333337</ele><time>2026-04-25T11:32:33.999Z</time></trkpt><trkpt lat="44.60442044450711" lon="8.854553043899646"><ele>383.0</ele><time>2026-04-25T11:32:34.999Z</time></trkpt><trkpt lat="44.60458749248016" lon="8.854445570653619"><ele>383.0</ele><time>2026-04-25T11:32:35.999Z</time></trkpt><trkpt lat="44.60476090483658" lon="8.854320316294668"><ele>383.0</ele><time>2026-04-25T11:32:36.999Z</time></trkpt><trkpt lat="44.60494069622224" lon="8.854224807690263"><ele>383.0</ele><time>2026-04-25T11:32:37.999Z</time></trkpt><trkpt lat="44.605137146471144" lon="8.854116465865738"><ele>380.6666666666667</ele><time>2026-04-25T11:32:38.999Z</time></trkpt><trkpt lat="44.60534646562711" lon="8.854016027613296"><ele>378.3333333333333</ele><time>2026-04-25T11:32:39.999Z</time></trkpt><trkpt lat="44.60555434219224" lon="8.853924204723297"><ele>376.0</ele><time>2026-04-25T11:32:40.999Z</time></trkpt><trkpt lat="44.60575959886654" lon="8.853834238638337"><ele>376.0</ele><time>2026-04-25T11:32:41.999Z</time></trkpt><trkpt lat="44.60596969574393" lon="8.853742279889035"><ele>376.0</ele><time>2026-04-25T11:32:42.999Z</time></trkpt><trkpt lat="44.60618735126894" lon="8.853654199577937"><ele>376.0</ele><time>2026-04-25T11:32:43.999Z</time></trkpt><trkpt lat="44.6064036980819" lon="8.853562166310612"><ele>376.3333333333333</ele><time>2026-04-25T11:32:44.999Z</time></trkpt><trkpt lat="44.60661601962804" lon="8.853474453709499"><ele>376.6666666666667</ele><time>2026-04-25T11:32:45.999Z</time></trkpt><trkpt lat="44.60682582349377" lon="8.853398614148665"><ele>377.0</ele><time>2026-04-25T11:32:46.999Z</time></trkpt><trkpt lat="44.60703205329961" lon="8.853336275878767"><ele>377.0</ele><time>2026-04-25T11:32:47.999Z</time></trkpt><trkpt lat="44.607229686591715" lon="8.853281105502425"><ele>377.0</ele><time>2026-04-25T11:32:48.999Z</time></trkpt><trkpt lat="44.60742292858661" lon="8.853220741571143"><ele>377.0</ele><time>2026-04-25T11:32:49.999Z</time></trkpt><trkpt lat="44.607607735739045" lon="8.85315879729667"><ele>377.0</ele><time>2026-04-25T11:32:50.999Z</time></trkpt><trkpt lat="44.60778936611411" lon="8.853099766251407"><ele>377.0</ele><time>2026-04-25T11:32:51.999Z</time></trkpt><trkpt lat="44.607965416248" lon="8.853034047329459"><ele>377.0</ele><time>2026-04-25T11:32:52.999Z</time></trkpt><trkpt lat="44.60813618189918" lon="8.852957521072437"><ele>383.33333333333337</ele><time>2026-04-25T11:32:53.999Z</time></trkpt><trkpt lat="44.60830098295374" lon="8.852869392297551"><ele>389.6666666666667</ele><time>2026-04-25T11:32:54.999Z</time></trkpt><trkpt lat="44.60845402340667" lon="8.852766030816676"><ele>396.0</ele><time>2026-04-25T11:32:55.999Z</time></trkpt><trkpt lat="44.60858714409786" lon="8.852647716732115"><ele>397.0</ele><time>2026-04-25T11:32:56.999Z</time></trkpt><trkpt lat="44.60869218990765" lon="8.852532538708843"><ele>398.0</ele><time>2026-04-25T11:32:57.999Z</time></trkpt><trkpt lat="44.60877135194702" lon="8.852414864550012"><ele>399.0</ele><time>2026-04-25T11:32:58.999Z</time></trkpt><trkpt lat="44.60882086470886" lon="8.8522932196888"><ele>400.0</ele><time>2026-04-25T11:32:59.999Z</time></trkpt><trkpt lat="44.60884202296279" lon="8.852154423333264"><ele>401.0</ele><time>2026-04-25T11:33:00.999Z</time></trkpt><trkpt lat="44.60883159629478" lon="8.85201089854067"><ele>401.0</ele><time>2026-04-25T11:33:01.999Z</time></trkpt><trkpt lat="44.608788401620764" lon="8.851875276446018"><ele>401.0</ele><time>2026-04-25T11:33:02.999Z</time></trkpt><trkpt lat="44.60871974497989" lon="8.851743280574723"><ele>401.0</ele><time>2026-04-25T11:33:03.999Z</time></trkpt><trkpt lat="44.608645524496225" lon="8.851617027327553"><ele>401.0</ele><time>2026-04-25T11:33:04.999Z</time></trkpt><trkpt lat="44.608582324808296" lon="8.851475683816961"><ele>392.0</ele><time>2026-04-25T11:33:05.999Z</time></trkpt><trkpt lat="44.60855805622894" lon="8.851282174726546"><ele>383.0</ele><time>2026-04-25T11:33:06.999Z</time></trkpt><trkpt lat="44.60851921477162" lon="8.851063127609626"><ele>374.0</ele><time>2026-04-25T11:33:07.999Z</time></trkpt><trkpt lat="44.6084851761632" lon="8.850835569068028"><ele>373.33333333333337</ele><time>2026-04-25T11:33:08.999Z</time></trkpt><trkpt lat="44.60845501506427" lon="8.850591349428091"><ele>372.6666666666667</ele><time>2026-04-25T11:33:09.999Z</time></trkpt><trkpt lat="44.60842285903153" lon="8.850328702475295"><ele>372.0</ele><time>2026-04-25T11:33:10.999Z</time></trkpt><trkpt lat="44.60839554086264" lon="8.850078231141158"><ele>373.3333333333333</ele><time>2026-04-25T11:33:11.999Z</time></trkpt><trkpt lat="44.60837187857161" lon="8.849843533821973"><ele>374.66666666666663</ele><time>2026-04-25T11:33:12.999Z</time></trkpt><trkpt lat="44.608347396313675" lon="8.849610844344468"><ele>376.0</ele><time>2026-04-25T11:33:13.999Z</time></trkpt><trkpt lat="44.60832996950045" lon="8.849388073208036"><ele>375.0</ele><time>2026-04-25T11:33:14.999Z</time></trkpt><trkpt lat="44.60832754711412" lon="8.849170873798455"><ele>374.0</ele><time>2026-04-25T11:33:15.999Z</time></trkpt><trkpt lat="44.60834341107593" lon="8.848962013280707"><ele>373.0</ele><time>2026-04-25T11:33:16.999Z</time></trkpt><trkpt lat="44.60837631229993" lon="8.84875933987225"><ele>373.0</ele><time>2026-04-25T11:33:17.999Z</time></trkpt><trkpt lat="44.608409373906966" lon="8.848553058945733"><ele>373.0</ele><time>2026-04-25T11:33:18.999Z</time></trkpt><trkpt lat="44.60847879975306" lon="8.848361627319091"><ele>373.0</ele><time>2026-04-25T11:33:19.999Z</time></trkpt><trkpt lat="44.60856362212922" lon="8.84817936260991"><ele>376.3333333333333</ele><time>2026-04-25T11:33:20.999Z</time></trkpt><trkpt lat="44.608662479872876" lon="8.847998950395933"><ele>379.6666666666667</ele><time>2026-04-25T11:33:21.999Z</time></trkpt><trkpt lat="44.60877124978738" lon="8.847825183697484"><ele>383.0</ele><time>2026-04-25T11:33:22.999Z</time></trkpt><trkpt lat="44.60888308129975" lon="8.847657776866075"><ele>376.0</ele><time>2026-04-25T11:33:23.999Z</time></trkpt><trkpt lat="44.608990984202784" lon="8.847508070965757"><ele>369.0</ele><time>2026-04-25T11:33:24.999Z</time></trkpt><trkpt lat="44.60910774117427" lon="8.847371572289862"><ele>362.0</ele><time>2026-04-25T11:33:25.999Z</time></trkpt><trkpt lat="44.60923764452036" lon="8.84725436832788"><ele>362.0</ele><time>2026-04-25T11:33:26.999Z</time></trkpt><trkpt lat="44.609376192519036" lon="8.84717166185205"><ele>362.0</ele><time>2026-04-25T11:33:27.999Z</time></trkpt><trkpt lat="44.609523801165636" lon="8.847102547515552"><ele>362.0</ele><time>2026-04-25T11:33:28.999Z</time></trkpt><trkpt lat="44.60968369367953" lon="8.847062907745396"><ele>366.0</ele><time>2026-04-25T11:33:29.999Z</time></trkpt><trkpt lat="44.609863333482245" lon="8.847045148572057"><ele>370.0</ele><time>2026-04-25T11:33:30.999Z</time></trkpt><trkpt lat="44.61005866495674" lon="8.847034585520813"><ele>374.0</ele><time>2026-04-25T11:33:31.999Z</time></trkpt><trkpt lat="44.610265348799956" lon="8.847021442456777"><ele>371.33333333333337</ele><time>2026-04-25T11:33:32.999Z</time></trkpt><trkpt lat="44.61047976891334" lon="8.847001201057878"><ele>368.6666666666667</ele><time>2026-04-25T11:33:33.999Z</time></trkpt><trkpt lat="44.610685231249974" lon="8.846975584783584"><ele>366.0</ele><time>2026-04-25T11:33:34.999Z</time></trkpt><trkpt lat="44.61087945455558" lon="8.846950063608077"><ele>366.0</ele><time>2026-04-25T11:33:35.999Z</time></trkpt><trkpt lat="44.61106588345769" lon="8.84692656451368"><ele>366.0</ele><time>2026-04-25T11:33:36.999Z</time></trkpt><trkpt lat="44.611238935931645" lon="8.846886121507813"><ele>366.0</ele><time>2026-04-25T11:33:37.999Z</time></trkpt><trkpt lat="44.61140060310651" lon="8.846822162219404"><ele>359.6666666666667</ele><time>2026-04-25T11:33:38.999Z</time></trkpt><trkpt lat="44.61155369413263" lon="8.84676331601893"><ele>353.33333333333337</ele><time>2026-04-25T11:33:39.999Z</time></trkpt><trkpt lat="44.611703304763694" lon="8.846699543581542"><ele>347.0</ele><time>2026-04-25T11:33:40.999Z</time></trkpt><trkpt lat="44.611846847943944" lon="8.846643461824982"><ele>348.75</ele><time>2026-04-25T11:33:41.999Z</time></trkpt><trkpt lat="44.611992773975" lon="8.846609661037782"><ele>350.5</ele><time>2026-04-25T11:33:42.999Z</time></trkpt><trkpt lat="44.61213996914823" lon="8.846586909068428"><ele>352.25</ele><time>2026-04-25T11:33:43.999Z</time></trkpt><trkpt lat="44.61228627344412" lon="8.846560940213035"><ele>354.0</ele><time>2026-04-25T11:33:44.999Z</time></trkpt><trkpt lat="44.61243330621255" lon="8.84653221089823"><ele>354.0</ele><time>2026-04-25T11:33:45.999Z</time></trkpt><trkpt lat="44.612581969335565" lon="8.846508197570246"><ele>354.0</ele><time>2026-04-25T11:33:46.999Z</time></trkpt><trkpt lat="44.61273099106701" lon="8.846478773582055"><ele>354.0</ele><time>2026-04-25T11:33:47.999Z</time></trkpt><trkpt lat="44.612879522173365" lon="8.846440737869786"><ele>354.75</ele><time>2026-04-25T11:33:48.999Z</time></trkpt><trkpt lat="44.61302400770393" lon="8.846394294861325"><ele>355.5</ele><time>2026-04-25T11:33:49.999Z</time></trkpt><trkpt lat="44.61316443230345" lon="8.846338180987061"><ele>356.25</ele><time>2026-04-25T11:33:50.999Z</time></trkpt><trkpt lat="44.613301316146945" lon="8.8462915241026"><ele>357.0</ele><time>2026-04-25T11:33:51.999Z</time></trkpt><trkpt lat="44.61343745297836" lon="8.846246827856433"><ele>357.0</ele><time>2026-04-25T11:33:53Z</time></trkpt><trkpt lat="44.613571692063836" lon="8.846199285371172"><ele>357.0</ele><time>2026-04-25T11:33:54Z</time></trkpt><trkpt lat="44.61370151323458" lon="8.846149914728809"><ele>357.0</ele><time>2026-04-25T11:33:55Z</time></trkpt><trkpt lat="44.61383043126718" lon="8.846104188145"><ele>357.0</ele><time>2026-04-25T11:33:56Z</time></trkpt><trkpt lat="44.613956440332785" lon="8.846063703279325"><ele>358.5</ele><time>2026-04-25T11:33:57Z</time></trkpt><trkpt lat="44.61408221649048" lon="8.846023126170026"><ele>360.0</ele><time>2026-04-25T11:33:58Z</time></trkpt><trkpt lat="44.614206380011545" lon="8.845982451752855"><ele>361.5</ele><time>2026-04-25T11:33:59Z</time></trkpt><trkpt lat="44.614326826441484" lon="8.845943206599312"><ele>363.0</ele><time>2026-04-25T11:34:00Z</time></trkpt><trkpt lat="44.61444353580753" lon="8.845899376562862"><ele>359.5</ele><time>2026-04-25T11:34:01Z</time></trkpt><trkpt lat="44.61455302108298" lon="8.845842561073317"><ele>356.0</ele><time>2026-04-25T11:34:02Z</time></trkpt><trkpt lat="44.614652070777886" lon="8.845763312604324"><ele>352.5</ele><time>2026-04-25T11:34:03Z</time></trkpt><trkpt lat="44.61474095107724" lon="8.84566912405877"><ele>349.0</ele><time>2026-04-25T11:34:04Z</time></trkpt><trkpt lat="44.61481999875543" lon="8.845564800595056"><ele>349.0</ele><time>2026-04-25T11:34:05Z</time></trkpt><trkpt lat="44.61490482090105" lon="8.845476300633146"><ele>349.0</ele><time>2026-04-25T11:34:06Z</time></trkpt><trkpt lat="44.614960307204335" lon="8.8453534385979"><ele>349.0</ele><time>2026-04-25T11:34:07Z</time></trkpt><trkpt lat="44.615030226581204" lon="8.845256820006204"><ele>349.0</ele><time>2026-04-25T11:34:08Z</time></trkpt><trkpt lat="44.61510311796768" lon="8.84516768531382"><ele>349.0</ele><time>2026-04-25T11:34:09Z</time></trkpt><trkpt lat="44.61518536773424" lon="8.845102401845292"><ele>348.16666666666663</ele><time>2026-04-25T11:34:10Z</time></trkpt><trkpt lat="44.61526906640428" lon="8.845061634200256"><ele>347.3333333333333</ele><time>2026-04-25T11:34:11Z</time></trkpt><trkpt lat="44.61535160875535" lon="8.845047288792593"><ele>346.5</ele><time>2026-04-25T11:34:12Z</time></trkpt><trkpt lat="44.615427645062674" lon="8.84505115366683"><ele>345.6666666666667</ele><time>2026-04-25T11:34:13Z</time></trkpt><trkpt lat="44.61549162410011" lon="8.845070318757525"><ele>344.83333333333337</ele><time>2026-04-25T11:34:14Z</time></trkpt><trkpt lat="44.61555245529379" lon="8.84509387121684"><ele>344.0</ele><time>2026-04-25T11:34:15Z</time></trkpt><trkpt lat="44.615682762215435" lon="8.845152246119003"><ele>346.2</ele><time>2026-04-25T11:34:17Z</time></trkpt><trkpt lat="44.61576602154" lon="8.845213699068932"><ele>348.4</ele><time>2026-04-25T11:34:18Z</time></trkpt><trkpt lat="44.61585385899417" lon="8.845297019309426"><ele>350.6</ele><time>2026-04-25T11:34:19Z</time></trkpt><trkpt lat="44.61594926127649" lon="8.845389371534727"><ele>352.8</ele><time>2026-04-25T11:34:20Z</time></trkpt><trkpt lat="44.61605223597254" lon="8.845467444437158"><ele>355.0</ele><time>2026-04-25T11:34:21Z</time></trkpt><trkpt lat="44.61617202154775" lon="8.845510667560841"><ele>356.0</ele><time>2026-04-25T11:34:22Z</time></trkpt><trkpt lat="44.616298433915446" lon="8.845506940582622"><ele>357.0</ele><time>2026-04-25T11:34:23Z</time></trkpt><trkpt lat="44.61643340054162" lon="8.84546355617598"><ele>358.0</ele><time>2026-04-25T11:34:24Z</time></trkpt><trkpt lat="44.616574505548186" lon="8.845420466860327"><ele>359.0</ele><time>2026-04-25T11:34:25Z</time></trkpt><trkpt lat="44.61670367115299" lon="8.84541378571354"><ele>359.0</ele><time>2026-04-25T11:34:26Z</time></trkpt><trkpt lat="44.616823071775116" lon="8.845446378268504"><ele>359.0</ele><time>2026-04-25T11:34:27Z</time></trkpt><trkpt lat="44.61693008217133" lon="8.84551231546792"><ele>359.0</ele><time>2026-04-25T11:34:28Z</time></trkpt><trkpt lat="44.617004215218785" lon="8.845608007758093"><ele>359.0</ele><time>2026-04-25T11:34:29Z</time></trkpt><trkpt lat="44.61704321982456" lon="8.845733186128312"><ele>359.0</ele><time>2026-04-25T11:34:30Z</time></trkpt><trkpt lat="44.617044628679174" lon="8.845861491732"><ele>359.4</ele><time>2026-04-25T11:34:31Z</time></trkpt><trkpt lat="44.61700811980956" lon="8.845972929461299"><ele>359.79999999999995</ele><time>2026-04-25T11:34:32Z</time></trkpt><trkpt lat="44.61692501847264" lon="8.846070467925694"><ele>360.20000000000005</ele><time>2026-04-25T11:34:33Z</time></trkpt><trkpt lat="44.61681496458332" lon="8.846126899066528"><ele>360.6</ele><time>2026-04-25T11:34:34Z</time></trkpt><trkpt lat="44.61667980954418" lon="8.846137636124103"><ele>361.0</ele><time>2026-04-25T11:34:35Z</time></trkpt><trkpt lat="44.6165743698475" lon="8.846164893814462"><ele>366.0</ele><time>2026-04-25T11:34:36Z</time></trkpt><trkpt lat="44.61642702187646" lon="8.846214668744864"><ele>371.0</ele><time>2026-04-25T11:34:37Z</time></trkpt><trkpt lat="44.61628657276228" lon="8.846302375001594"><ele>376.0</ele><time>2026-04-25T11:34:38Z</time></trkpt><trkpt lat="44.61613735617204" lon="8.846417465259774"><ele>376.0</ele><time>2026-04-25T11:34:39Z</time></trkpt><trkpt lat="44.61599227037917" lon="8.846537811551473"><ele>376.0</ele><time>2026-04-25T11:34:40Z</time></trkpt><trkpt lat="44.61585183191132" lon="8.8466331297125"><ele>376.0</ele><time>2026-04-25T11:34:41Z</time></trkpt><trkpt lat="44.615704266679096" lon="8.846776614526785"><ele>380.66666666666663</ele><time>2026-04-25T11:34:42Z</time></trkpt><trkpt lat="44.615566861530375" lon="8.846945188097672"><ele>385.3333333333333</ele><time>2026-04-25T11:34:43Z</time></trkpt><trkpt lat="44.61544105996709" lon="8.847100110023241"><ele>390.0</ele><time>2026-04-25T11:34:44Z</time></trkpt><trkpt lat="44.61531951796172" lon="8.847189039441611"><ele>390.66666666666663</ele><time>2026-04-25T11:34:45Z</time></trkpt><trkpt lat="44.61518627967587" lon="8.847145774804824"><ele>391.3333333333333</ele><time>2026-04-25T11:34:46Z</time></trkpt><trkpt lat="44.61502718470831" lon="8.847161427755466"><ele>392.0</ele><time>2026-04-25T11:34:47Z</time></trkpt><trkpt lat="44.61486237307297" lon="8.847204088787656"><ele>392.0</ele><time>2026-04-25T11:34:48Z</time></trkpt><trkpt lat="44.61468509745669" lon="8.847250205674326"><ele>392.0</ele><time>2026-04-25T11:34:49Z</time></trkpt><trkpt lat="44.614499044096874" lon="8.847294392201627"><ele>392.0</ele><time>2026-04-25T11:34:50Z</time></trkpt><trkpt lat="44.61431959421234" lon="8.847338324156775"><ele>389.25</ele><time>2026-04-25T11:34:51Z</time></trkpt><trkpt lat="44.61417120871543" lon="8.84738198242677"><ele>386.5</ele><time>2026-04-25T11:34:52Z</time></trkpt><trkpt lat="44.61403645462874" lon="8.84742968821213"><ele>383.75</ele><time>2026-04-25T11:34:53Z</time></trkpt><trkpt lat="44.61392439116577" lon="8.847499603744618"><ele>381.0</ele><time>2026-04-25T11:34:54Z</time></trkpt><trkpt lat="44.613822041860935" lon="8.84761662302175"><ele>384.33333333333337</ele><time>2026-04-25T11:34:55Z</time></trkpt><trkpt lat="44.61373263042154" lon="8.847787602546735"><ele>387.6666666666667</ele><time>2026-04-25T11:34:56Z</time></trkpt><trkpt lat="44.61363597089682" lon="8.84797505771322"><ele>391.0</ele><time>2026-04-25T11:34:57Z</time></trkpt><trkpt lat="44.61354760272744" lon="8.84813550005407"><ele>391.0</ele><time>2026-04-25T11:34:58Z</time></trkpt><trkpt lat="44.613515422086266" lon="8.848309076334486"><ele>391.0</ele><time>2026-04-25T11:34:59Z</time></trkpt><trkpt lat="44.61349964040907" lon="8.848508773714105"><ele>391.0</ele><time>2026-04-25T11:35:00Z</time></trkpt><trkpt lat="44.61350467706677" lon="8.848710845155367"><ele>391.0</ele><time>2026-04-25T11:35:01Z</time></trkpt><trkpt lat="44.61350094750659" lon="8.848878231915606"><ele>391.4</ele><time>2026-04-25T11:35:02Z</time></trkpt><trkpt lat="44.613460536330756" lon="8.849002257134211"><ele>391.8</ele><time>2026-04-25T11:35:03Z</time></trkpt><trkpt lat="44.613387962025115" lon="8.849083023554156"><ele>392.2</ele><time>2026-04-25T11:35:04Z</time></trkpt><trkpt lat="44.61329678925064" lon="8.849113794846648"><ele>392.59999999999997</ele><time>2026-04-25T11:35:05Z</time></trkpt><trkpt lat="44.61318026889625" lon="8.84911603751306"><ele>393.0</ele><time>2026-04-25T11:35:06Z</time></trkpt><trkpt lat="44.61304402636202" lon="8.849097935270423"><ele>393.0</ele><time>2026-04-25T11:35:07Z</time></trkpt><trkpt lat="44.61289456433163" lon="8.849080047936921"><ele>393.0</ele><time>2026-04-25T11:35:08Z</time></trkpt><trkpt lat="44.61275062773662" lon="8.849069844540804"><ele>393.0</ele><time>2026-04-25T11:35:09Z</time></trkpt><trkpt lat="44.61261558900023" lon="8.849096913990609"><ele>393.0</ele><time>2026-04-25T11:35:10Z</time></trkpt><trkpt lat="44.61248923063519" lon="8.84915950419665"><ele>392.33333333333337</ele><time>2026-04-25T11:35:11Z</time></trkpt><trkpt lat="44.612362307805355" lon="8.849273815890411"><ele>391.6666666666667</ele><time>2026-04-25T11:35:12Z</time></trkpt><trkpt lat="44.612230194747376" lon="8.849432407379"><ele>391.0</ele><time>2026-04-25T11:35:13Z</time></trkpt><trkpt lat="44.612099936617525" lon="8.849595720025492"><ele>399.33333333333337</ele><time>2026-04-25T11:35:14Z</time></trkpt><trkpt lat="44.6119685111619" lon="8.849745908795667"><ele>407.66666666666663</ele><time>2026-04-25T11:35:14.999Z</time></trkpt><trkpt lat="44.61183376465962" lon="8.84985856678562"><ele>416.0</ele><time>2026-04-25T11:35:15.999Z</time></trkpt><trkpt lat="44.611703094606675" lon="8.8499704137038"><ele>416.0</ele><time>2026-04-25T11:35:16.999Z</time></trkpt><trkpt lat="44.61158077337447" lon="8.850108646291915"><ele>416.0</ele><time>2026-04-25T11:35:17.999Z</time></trkpt><trkpt lat="44.61147121214484" lon="8.850278620649389"><ele>416.0</ele><time>2026-04-25T11:35:18.999Z</time></trkpt><trkpt lat="44.6113705741046" lon="8.850481035998765"><ele>418.0</ele><time>2026-04-25T11:35:19.999Z</time></trkpt><trkpt lat="44.61128024921748" lon="8.850684218722106"><ele>420.0</ele><time>2026-04-25T11:35:20.999Z</time></trkpt><trkpt lat="44.6112030993089" lon="8.850880242441889"><ele>422.0</ele><time>2026-04-25T11:35:21.999Z</time></trkpt><trkpt lat="44.61112752497595" lon="8.851073743699644"><ele>422.0</ele><time>2026-04-25T11:35:22.999Z</time></trkpt><trkpt lat="44.611041830837905" lon="8.85123444066416"><ele>422.0</ele><time>2026-04-25T11:35:23.999Z</time></trkpt><trkpt lat="44.61094882728628" lon="8.851361825311907"><ele>422.0</ele><time>2026-04-25T11:35:24.999Z</time></trkpt><trkpt lat="44.61082701301426" lon="8.85143524287109"><ele>422.0</ele><time>2026-04-25T11:35:25.999Z</time></trkpt><trkpt lat="44.6107029282427" lon="8.851530302981415"><ele>422.0</ele><time>2026-04-25T11:35:26.999Z</time></trkpt><trkpt lat="44.61058658852473" lon="8.851609092600672"><ele>422.0</ele><time>2026-04-25T11:35:27.999Z</time></trkpt><trkpt lat="44.61050872326292" lon="8.851726129849228"><ele>422.0</ele><time>2026-04-25T11:35:28.999Z</time></trkpt><trkpt lat="44.61045368769399" lon="8.85188846573689"><ele>422.0</ele><time>2026-04-25T11:35:29.999Z</time></trkpt><trkpt lat="44.61041128963634" lon="8.852064542242294"><ele>421.75</ele><time>2026-04-25T11:35:30.999Z</time></trkpt><trkpt lat="44.61036266377763" lon="8.852231100490433"><ele>421.5</ele><time>2026-04-25T11:35:31.999Z</time></trkpt><trkpt lat="44.61026463862249" lon="8.85233459058006"><ele>421.25</ele><time>2026-04-25T11:35:32.999Z</time></trkpt><trkpt lat="44.61015725782616" lon="8.852424424260567"><ele>421.0</ele><time>2026-04-25T11:35:33.999Z</time></trkpt><trkpt lat="44.61003355970332" lon="8.85251129292163"><ele>423.25</ele><time>2026-04-25T11:35:34.999Z</time></trkpt><trkpt lat="44.60992874688695" lon="8.852633927318875"><ele>425.5</ele><time>2026-04-25T11:35:36Z</time></trkpt><trkpt lat="44.609839746656064" lon="8.852777148965615"><ele>427.75</ele><time>2026-04-25T11:35:37Z</time></trkpt><trkpt lat="44.60978242678127" lon="8.852952466992454"><ele>430.0</ele><time>2026-04-25T11:35:38Z</time></trkpt><trkpt lat="44.609751262708905" lon="8.853162275871185"><ele>430.0</ele><time>2026-04-25T11:35:39Z</time></trkpt><trkpt lat="44.60972502255337" lon="8.853401170579524"><ele>430.0</ele><time>2026-04-25T11:35:40Z</time></trkpt><trkpt lat="44.609693374683076" lon="8.853633786914562"><ele>430.0</ele><time>2026-04-25T11:35:41Z</time></trkpt><trkpt lat="44.60964319559939" lon="8.853842406331616"><ele>429.0</ele><time>2026-04-25T11:35:42Z</time></trkpt><trkpt lat="44.60956910719894" lon="8.854030355843202"><ele>428.0</ele><time>2026-04-25T11:35:43Z</time></trkpt><trkpt lat="44.6094744884824" lon="8.854189111472284"><ele>427.0</ele><time>2026-04-25T11:35:44Z</time></trkpt><trkpt lat="44.6093607061358" lon="8.854330409675416"><ele>432.33333333333337</ele><time>2026-04-25T11:35:45Z</time></trkpt><trkpt lat="44.609225661400544" lon="8.854464599233328"><ele>437.66666666666663</ele><time>2026-04-25T11:35:46Z</time></trkpt><trkpt lat="44.6090751001915" lon="8.85459627898663"><ele>443.0</ele><time>2026-04-25T11:35:47Z</time></trkpt><trkpt lat="44.608913897657" lon="8.854740788745332"><ele>443.0</ele><time>2026-04-25T11:35:48Z</time></trkpt><trkpt lat="44.608748708042924" lon="8.854902438264242"><ele>443.0</ele><time>2026-04-25T11:35:49Z</time></trkpt><trkpt lat="44.608585525415144" lon="8.855079592939001"><ele>443.0</ele><time>2026-04-25T11:35:50Z</time></trkpt><trkpt lat="44.608439553503764" lon="8.855249892573472"><ele>448.3333333333333</ele><time>2026-04-25T11:35:51Z</time></trkpt><trkpt lat="44.608306162586416" lon="8.855410333853817"><ele>453.66666666666663</ele><time>2026-04-25T11:35:52Z</time></trkpt><trkpt lat="44.6081939171913" lon="8.855570609921976"><ele>459.0</ele><time>2026-04-25T11:35:53Z</time></trkpt><trkpt lat="44.60809649066764" lon="8.855730382640987"><ele>459.0</ele><time>2026-04-25T11:35:54Z</time></trkpt><trkpt lat="44.60799977880597" lon="8.855871176395224"><ele>459.0</ele><time>2026-04-25T11:35:55Z</time></trkpt><trkpt lat="44.60788726440209" lon="8.85597181447366"><ele>459.0</ele><time>2026-04-25T11:35:56Z</time></trkpt><trkpt lat="44.60776101734706" lon="8.856036358157116"><ele>459.0</ele><time>2026-04-25T11:35:57Z</time></trkpt><trkpt lat="44.607634510197116" lon="8.856088027679705"><ele>462.4</ele><time>2026-04-25T11:35:58Z</time></trkpt><trkpt lat="44.607521876733834" lon="8.856129452279925"><ele>465.79999999999995</ele><time>2026-04-25T11:35:59Z</time></trkpt><trkpt lat="44.607424211384405" lon="8.856170406074277"><ele>469.20000000000005</ele><time>2026-04-25T11:36:00Z</time></trkpt><trkpt lat="44.60734641713392" lon="8.856224981686074"><ele>472.6</ele><time>2026-04-25T11:36:01Z</time></trkpt><trkpt lat="44.60728407920672" lon="8.856298547312596"><ele>476.0</ele><time>2026-04-25T11:36:02Z</time></trkpt><trkpt lat="44.60721500698535" lon="8.856391464835747"><ele>476.0</ele><time>2026-04-25T11:36:03Z</time></trkpt><trkpt lat="44.60713423759047" lon="8.856480889212868"><ele>476.0</ele><time>2026-04-25T11:36:04Z</time></trkpt><trkpt lat="44.60704307631614" lon="8.856563387045787"><ele>476.0</ele><time>2026-04-25T11:36:05Z</time></trkpt><trkpt lat="44.60694247669125" lon="8.856616194039933"><ele>476.0</ele><time>2026-04-25T11:36:06Z</time></trkpt><trkpt lat="44.606840898613285" lon="8.856637043018805"><ele>476.0</ele><time>2026-04-25T11:36:07Z</time></trkpt><trkpt lat="44.6067491389638" lon="8.85663761934507"><ele>474.0</ele><time>2026-04-25T11:36:08Z</time></trkpt><trkpt lat="44.60667696885347" lon="8.856640553897883"><ele>472.0</ele><time>2026-04-25T11:36:09Z</time></trkpt><trkpt lat="44.60660026526865" lon="8.856682975318181"><ele>470.0</ele><time>2026-04-25T11:36:11Z</time></trkpt><trkpt lat="44.6065743275605" lon="8.85677327091487"><ele>468.0</ele><time>2026-04-25T11:36:12Z</time></trkpt><trkpt lat="44.6064974488894" lon="8.856947400066566"><ele>466.0</ele><time>2026-04-25T11:36:14Z</time></trkpt><trkpt lat="44.6064592016757" lon="8.857086486387669"><ele>466.25</ele><time>2026-04-25T11:36:15Z</time></trkpt><trkpt lat="44.606408038741314" lon="8.8572446556355"><ele>466.5</ele><time>2026-04-25T11:36:16Z</time></trkpt><trkpt lat="44.60630634120862" lon="8.85737055426137"><ele>466.75</ele><time>2026-04-25T11:36:17Z</time></trkpt><trkpt lat="44.60619966704062" lon="8.857462574987863"><ele>467.0</ele><time>2026-04-25T11:36:18Z</time></trkpt><trkpt lat="44.606097832037555" lon="8.857571138955334"><ele>472.75</ele><time>2026-04-25T11:36:19Z</time></trkpt><trkpt lat="44.605981721426645" lon="8.857681337312107"><ele>478.5</ele><time>2026-04-25T11:36:20Z</time></trkpt><trkpt lat="44.60588338048657" lon="8.857804184836482"><ele>484.25</ele><time>2026-04-25T11:36:21Z</time></trkpt><trkpt lat="44.605804221614875" lon="8.857940437415195"><ele>490.0</ele><time>2026-04-25T11:36:22Z</time></trkpt><trkpt lat="44.60574286416863" lon="8.858113257943852"><ele>490.0</ele><time>2026-04-25T11:36:23Z</time></trkpt><trkpt lat="44.605703421871624" lon="8.85831225534559"><ele>490.0</ele><time>2026-04-25T11:36:24Z</time></trkpt><trkpt lat="44.60566725479926" lon="8.858513580792199"><ele>490.0</ele><time>2026-04-25T11:36:25Z</time></trkpt><trkpt lat="44.60560840454698" lon="8.858686517752115"><ele>490.0</ele><time>2026-04-25T11:36:26Z</time></trkpt><trkpt lat="44.60549756112655" lon="8.858801228488373"><ele>488.33333333333337</ele><time>2026-04-25T11:36:27Z</time></trkpt><trkpt lat="44.605392319595104" lon="8.858943528412013"><ele>486.66666666666663</ele><time>2026-04-25T11:36:28Z</time></trkpt><trkpt lat="44.605265303897596" lon="8.859063789717574"><ele>485.0</ele><time>2026-04-25T11:36:29Z</time></trkpt><trkpt lat="44.60513844899626" lon="8.859188518473921"><ele>491.25</ele><time>2026-04-25T11:36:30Z</time></trkpt><trkpt lat="44.60500456015634" lon="8.85929543568914"><ele>497.5</ele><time>2026-04-25T11:36:31Z</time></trkpt><trkpt lat="44.60488291503523" lon="8.859369967540424"><ele>503.75</ele><time>2026-04-25T11:36:32Z</time></trkpt><trkpt lat="44.60478062916901" lon="8.859449769290567"><ele>510.0</ele><time>2026-04-25T11:36:33Z</time></trkpt><trkpt lat="44.60471670581382" lon="8.859561145195705"><ele>510.0</ele><time>2026-04-25T11:36:34Z</time></trkpt><trkpt lat="44.604687791250456" lon="8.859697010058191"><ele>510.0</ele><time>2026-04-25T11:36:35Z</time></trkpt><trkpt lat="44.6046873419885" lon="8.859855197463542"><ele>510.0</ele><time>2026-04-25T11:36:36Z</time></trkpt><trkpt lat="44.604721499860176" lon="8.860022017219313"><ele>510.0</ele><time>2026-04-25T11:36:37Z</time></trkpt><trkpt lat="44.60473788175174" lon="8.860163003557863"><ele>510.0</ele><time>2026-04-25T11:36:38Z</time></trkpt><trkpt lat="44.60470953596207" lon="8.860266504537318"><ele>512.25</ele><time>2026-04-25T11:36:39Z</time></trkpt><trkpt lat="44.604633801440215" lon="8.860331318940736"><ele>514.5</ele><time>2026-04-25T11:36:40Z</time></trkpt><trkpt lat="44.604519305997364" lon="8.860339242149534"><ele>516.75</ele><time>2026-04-25T11:36:41Z</time></trkpt><trkpt lat="44.60440250561988" lon="8.860381909402042"><ele>519.0</ele><time>2026-04-25T11:36:42Z</time></trkpt><trkpt lat="44.60426535986343" lon="8.860407301269607"><ele>519.0</ele><time>2026-04-25T11:36:43Z</time></trkpt><trkpt lat="44.60411767607358" lon="8.860458590906081"><ele>519.0</ele><time>2026-04-25T11:36:44Z</time></trkpt><trkpt lat="44.603971030192916" lon="8.860507773025953"><ele>519.0</ele><time>2026-04-25T11:36:45Z</time></trkpt><trkpt lat="44.60385461572452" lon="8.860554936094312"><ele>519.0</ele><time>2026-04-25T11:36:46Z</time></trkpt><trkpt lat="44.603763083709644" lon="8.860633994064"><ele>519.0</ele><time>2026-04-25T11:36:47Z</time></trkpt><trkpt lat="44.60369804882699" lon="8.860766160069794"><ele>519.0</ele><time>2026-04-25T11:36:48Z</time></trkpt><trkpt lat="44.60366627454711" lon="8.860925122743419"><ele>519.0</ele><time>2026-04-25T11:36:49Z</time></trkpt><trkpt lat="44.60365806875119" lon="8.861109793143813"><ele>519.0</ele><time>2026-04-25T11:36:50Z</time></trkpt><trkpt lat="44.603688453032845" lon="8.861302651313485"><ele>518.6666666666666</ele><time>2026-04-25T11:36:51Z</time></trkpt><trkpt lat="44.60373386051983" lon="8.861521974468888"><ele>518.3333333333333</ele><time>2026-04-25T11:36:52Z</time></trkpt><trkpt lat="44.60379574503991" lon="8.86174610764222"><ele>518.0</ele><time>2026-04-25T11:36:53Z</time></trkpt><trkpt lat="44.60384497385273" lon="8.861941474184091"><ele>518.0</ele><time>2026-04-25T11:36:54Z</time></trkpt><trkpt lat="44.60391348155519" lon="8.86209501065945"><ele>518.0</ele><time>2026-04-25T11:36:55Z</time></trkpt><trkpt lat="44.60401101371799" lon="8.862218103073038"><ele>518.0</ele><time>2026-04-25T11:36:56Z</time></trkpt><trkpt lat="44.60414504414931" lon="8.862314187780433"><ele>518.0</ele><time>2026-04-25T11:36:57Z</time></trkpt><trkpt lat="44.60425910589881" lon="8.862439439072626"><ele>518.0</ele><time>2026-04-25T11:36:58Z</time></trkpt><trkpt lat="44.60431770516331" lon="8.862614300850122"><ele>518.0</ele><time>2026-04-25T11:36:59Z</time></trkpt><trkpt lat="44.604370692000835" lon="8.862770007807432"><ele>518.0</ele><time>2026-04-25T11:37:00Z</time></trkpt><trkpt lat="44.604374821462585" lon="8.86292843249647"><ele>518.0</ele><time>2026-04-25T11:37:01Z</time></trkpt><trkpt lat="44.60431775183275" lon="8.863063136782989"><ele>518.0</ele><time>2026-04-25T11:37:02Z</time></trkpt><trkpt lat="44.60425294924877" lon="8.863223407227332"><ele>518.0</ele><time>2026-04-25T11:37:03Z</time></trkpt><trkpt lat="44.60421960092861" lon="8.863406914635355"><ele>518.0</ele><time>2026-04-25T11:37:04Z</time></trkpt><trkpt lat="44.60420189633405" lon="8.863609443463172"><ele>518.0</ele><time>2026-04-25T11:37:05Z</time></trkpt><trkpt lat="44.604170696666756" lon="8.863788379863708"><ele>521.5</ele><time>2026-04-25T11:37:06Z</time></trkpt><trkpt lat="44.604085104545646" lon="8.863917061786912"><ele>525.0</ele><time>2026-04-25T11:37:07Z</time></trkpt><trkpt lat="44.60396739276281" lon="8.863999910257865"><ele>528.5</ele><time>2026-04-25T11:37:08Z</time></trkpt><trkpt lat="44.60384559681132" lon="8.864098413285195"><ele>532.0</ele><time>2026-04-25T11:37:09Z</time></trkpt><trkpt lat="44.603739740266846" lon="8.86420930206672"><ele>529.3333333333334</ele><time>2026-04-25T11:37:10Z</time></trkpt><trkpt lat="44.6036659708289" lon="8.864382145482667"><ele>526.6666666666666</ele><time>2026-04-25T11:37:11Z</time></trkpt><trkpt lat="44.60360289068706" lon="8.864579319266495"><ele>524.0</ele><time>2026-04-25T11:37:12Z</time></trkpt><trkpt lat="44.603553046274754" lon="8.864800601651572"><ele>524.0</ele><time>2026-04-25T11:37:13Z</time></trkpt><trkpt lat="44.60352366200677" lon="8.865032926013061"><ele>524.0</ele><time>2026-04-25T11:37:14Z</time></trkpt><trkpt lat="44.60351046622235" lon="8.865243569279523"><ele>524.0</ele><time>2026-04-25T11:37:15Z</time></trkpt><trkpt lat="44.60347772907107" lon="8.865419763542203"><ele>524.0</ele><time>2026-04-25T11:37:16Z</time></trkpt><trkpt lat="44.60340500718846" lon="8.865547057701832"><ele>526.0</ele><time>2026-04-25T11:37:17Z</time></trkpt><trkpt lat="44.603304945188796" lon="8.865642486826118"><ele>528.0</ele><time>2026-04-25T11:37:18Z</time></trkpt><trkpt lat="44.60318523313784" lon="8.865727418773075"><ele>530.0</ele><time>2026-04-25T11:37:19Z</time></trkpt><trkpt lat="44.6030604379485" lon="8.865831205300239"><ele>532.0</ele><time>2026-04-25T11:37:20Z</time></trkpt><trkpt lat="44.60294929729437" lon="8.865942408929607"><ele>532.6666666666667</ele><time>2026-04-25T11:37:21Z</time></trkpt><trkpt lat="44.60279814395267" lon="8.866052803851668"><ele>533.3333333333334</ele><time>2026-04-25T11:37:22Z</time></trkpt><trkpt lat="44.6026483053758" lon="8.866182029238784"><ele>534.0</ele><time>2026-04-25T11:37:23Z</time></trkpt><trkpt lat="44.60248865518705" lon="8.866312752076135"><ele>534.0</ele><time>2026-04-25T11:37:24Z</time></trkpt><trkpt lat="44.60234225952755" lon="8.866481702034852"><ele>534.0</ele><time>2026-04-25T11:37:25Z</time></trkpt><trkpt lat="44.60219983341081" lon="8.866683375123339"><ele>534.0</ele><time>2026-04-25T11:37:26Z</time></trkpt><trkpt lat="44.60207058250286" lon="8.866864819291283"><ele>536.3333333333334</ele><time>2026-04-25T11:37:27Z</time></trkpt><trkpt lat="44.60192693629351" lon="8.867029793901143"><ele>538.6666666666667</ele><time>2026-04-25T11:37:28Z</time></trkpt><trkpt lat="44.6017834638137" lon="8.867188969584445"><ele>541.0</ele><time>2026-04-25T11:37:29Z</time></trkpt><trkpt lat="44.60164624082681" lon="8.867354522778134"><ele>541.0</ele><time>2026-04-25T11:37:30Z</time></trkpt><trkpt lat="44.601520009826864" lon="8.867506207182283"><ele>541.0</ele><time>2026-04-25T11:37:31Z</time></trkpt><trkpt lat="44.60140216482347" lon="8.867635097716288"><ele>541.0</ele><time>2026-04-25T11:37:32Z</time></trkpt><trkpt lat="44.60129819203896" lon="8.867752387926718"><ele>541.0</ele><time>2026-04-25T11:37:33Z</time></trkpt><trkpt lat="44.60117643894696" lon="8.867795507817071"><ele>539.0</ele><time>2026-04-25T11:37:34Z</time></trkpt><trkpt lat="44.60107376077658" lon="8.867807077848584"><ele>537.0</ele><time>2026-04-25T11:37:35Z</time></trkpt><trkpt lat="44.60097492686337" lon="8.867773350712888"><ele>535.0</ele><time>2026-04-25T11:37:36Z</time></trkpt><trkpt lat="44.600840528932785" lon="8.86772187512002"><ele>533.0</ele><time>2026-04-25T11:37:37Z</time></trkpt><trkpt lat="44.600685771142324" lon="8.867682176911902"><ele>533.0</ele><time>2026-04-25T11:37:38Z</time></trkpt><trkpt lat="44.60052648486025" lon="8.867616123748002"><ele>533.0</ele><time>2026-04-25T11:37:39Z</time></trkpt><trkpt lat="44.600379275308626" lon="8.867551965173936"><ele>533.0</ele><time>2026-04-25T11:37:40Z</time></trkpt><trkpt lat="44.60024550059684" lon="8.867502192895769"><ele>535.0</ele><time>2026-04-25T11:37:41Z</time></trkpt><trkpt lat="44.60012233946228" lon="8.867493785038391"><ele>537.0</ele><time>2026-04-25T11:37:42Z</time></trkpt><trkpt lat="44.59999352690094" lon="8.867530931481546"><ele>539.0</ele><time>2026-04-25T11:37:43Z</time></trkpt><trkpt lat="44.59986150305625" lon="8.86762723773157"><ele>541.0</ele><time>2026-04-25T11:37:44Z</time></trkpt><trkpt lat="44.59973406500727" lon="8.867767971250624"><ele>541.0</ele><time>2026-04-25T11:37:45Z</time></trkpt><trkpt lat="44.5996142675816" lon="8.867925885334435"><ele>541.0</ele><time>2026-04-25T11:37:46Z</time></trkpt><trkpt lat="44.599504786710554" lon="8.868064461016372"><ele>541.0</ele><time>2026-04-25T11:37:47Z</time></trkpt><trkpt lat="44.599400923148664" lon="8.8681820420382"><ele>541.0</ele><time>2026-04-25T11:37:48Z</time></trkpt><trkpt lat="44.599312685369306" lon="8.868294532658371"><ele>544.5</ele><time>2026-04-25T11:37:49Z</time></trkpt><trkpt lat="44.599236123711876" lon="8.868405842825625"><ele>548.0</ele><time>2026-04-25T11:37:50Z</time></trkpt><trkpt lat="44.599191059609836" lon="8.868543751611929"><ele>551.5</ele><time>2026-04-25T11:37:51Z</time></trkpt><trkpt lat="44.59918044801148" lon="8.868703220560489"><ele>555.0</ele><time>2026-04-25T11:37:52Z</time></trkpt><trkpt lat="44.59919516751206" lon="8.868878863618392"><ele>555.0</ele><time>2026-04-25T11:37:53Z</time></trkpt><trkpt lat="44.599220120091566" lon="8.869042134164314"><ele>555.0</ele><time>2026-04-25T11:37:54Z</time></trkpt><trkpt lat="44.59922965022621" lon="8.869213461612933"><ele>555.0</ele><time>2026-04-25T11:37:55Z</time></trkpt><trkpt lat="44.59922038385445" lon="8.869384556435579"><ele>555.0</ele><time>2026-04-25T11:37:56Z</time></trkpt><trkpt lat="44.59919926212547" lon="8.86954827802826"><ele>554.0</ele><time>2026-04-25T11:37:57Z</time></trkpt><trkpt lat="44.5991329092579" lon="8.869688582744601"><ele>553.0</ele><time>2026-04-25T11:37:58Z</time></trkpt><trkpt lat="44.59907021982701" lon="8.869803677525194"><ele>552.0</ele><time>2026-04-25T11:37:59Z</time></trkpt><trkpt lat="44.598987840958976" lon="8.86990519768626"><ele>551.0</ele><time>2026-04-25T11:38:00Z</time></trkpt><trkpt lat="44.59888159175055" lon="8.869974238795603"><ele>551.0</ele><time>2026-04-25T11:38:01Z</time></trkpt><trkpt lat="44.59877570489642" lon="8.87005587385462"><ele>551.0</ele><time>2026-04-25T11:38:02Z</time></trkpt><trkpt lat="44.59867318204476" lon="8.870144258347986"><ele>551.0</ele><time>2026-04-25T11:38:03Z</time></trkpt><trkpt lat="44.59857636278336" lon="8.870227614752151"><ele>551.0</ele><time>2026-04-25T11:38:04Z</time></trkpt><trkpt lat="44.598504755446534" lon="8.870336908200574"><ele>554.0</ele><time>2026-04-25T11:38:05Z</time></trkpt><trkpt lat="44.59846546116063" lon="8.870486787233753"><ele>557.0</ele><time>2026-04-25T11:38:06Z</time></trkpt><trkpt lat="44.598442434897706" lon="8.8706943739379"><ele>560.0</ele><time>2026-04-25T11:38:07Z</time></trkpt><trkpt lat="44.598417034842896" lon="8.870936803875724"><ele>563.0</ele><time>2026-04-25T11:38:08Z</time></trkpt><trkpt lat="44.59836525030606" lon="8.871192498182891"><ele>563.0</ele><time>2026-04-25T11:38:09Z</time></trkpt><trkpt lat="44.59830032143994" lon="8.8714223361544"><ele>563.0</ele><time>2026-04-25T11:38:10Z</time></trkpt><trkpt lat="44.59820558118485" lon="8.87164702324105"><ele>563.0</ele><time>2026-04-25T11:38:11Z</time></trkpt><trkpt lat="44.598110565324184" lon="8.871863202707136"><ele>562.0</ele><time>2026-04-25T11:38:12Z</time></trkpt><trkpt lat="44.59802872089082" lon="8.872040210585027"><ele>561.0</ele><time>2026-04-25T11:38:13Z</time></trkpt><trkpt lat="44.59797266915138" lon="8.872240344610425"><ele>560.0</ele><time>2026-04-25T11:38:14Z</time></trkpt><trkpt lat="44.597927895769246" lon="8.87245414754379"><ele>559.0</ele><time>2026-04-25T11:38:15Z</time></trkpt><trkpt lat="44.59790085061637" lon="8.87267031052669"><ele>558.0</ele><time>2026-04-25T11:38:16Z</time></trkpt><trkpt lat="44.59788580708763" lon="8.872893743236782"><ele>557.0</ele><time>2026-04-25T11:38:17Z</time></trkpt><trkpt lat="44.5978937099437" lon="8.873121077909161"><ele>557.0</ele><time>2026-04-25T11:38:18Z</time></trkpt><trkpt lat="44.59792241364814" lon="8.873333577290186"><ele>557.0</ele><time>2026-04-25T11:38:19Z</time></trkpt><trkpt lat="44.59794272405105" lon="8.873524117651325"><ele>557.0</ele><time>2026-04-25T11:38:20Z</time></trkpt><trkpt lat="44.597929349657804" lon="8.873706310961134"><ele>557.0</ele><time>2026-04-25T11:38:21Z</time></trkpt><trkpt lat="44.59786330853999" lon="8.87388060514921"><ele>566.0</ele><time>2026-04-25T11:38:22Z</time></trkpt><trkpt lat="44.597790988097024" lon="8.8740830354436"><ele>575.0</ele><time>2026-04-25T11:38:23Z</time></trkpt><trkpt lat="44.597717495123476" lon="8.874292664191609"><ele>584.0</ele><time>2026-04-25T11:38:24Z</time></trkpt><trkpt lat="44.597641859431945" lon="8.8744730656616"><ele>584.0</ele><time>2026-04-25T11:38:25Z</time></trkpt><trkpt lat="44.59758906168302" lon="8.87462753619896"><ele>584.0</ele><time>2026-04-25T11:38:26Z</time></trkpt><trkpt lat="44.597575328993635" lon="8.874795809394167"><ele>584.0</ele><time>2026-04-25T11:38:27Z</time></trkpt><trkpt lat="44.597605998931044" lon="8.87495322126478"><ele>584.0</ele><time>2026-04-25T11:38:28Z</time></trkpt><trkpt lat="44.59767490612621" lon="8.875103745494496"><ele>586.5</ele><time>2026-04-25T11:38:29Z</time></trkpt><trkpt lat="44.59777169235607" lon="8.875246065274803"><ele>589.0</ele><time>2026-04-25T11:38:30Z</time></trkpt><trkpt lat="44.597877706404034" lon="8.875349253054859"><ele>591.5</ele><time>2026-04-25T11:38:31Z</time></trkpt><trkpt lat="44.597991434877635" lon="8.87539676069531"><ele>594.0</ele><time>2026-04-25T11:38:32Z</time></trkpt><trkpt lat="44.59812900845513" lon="8.875375659260488"><ele>590.6666666666666</ele><time>2026-04-25T11:38:33Z</time></trkpt><trkpt lat="44.59823755821309" lon="8.875360424832737"><ele>587.3333333333334</ele><time>2026-04-25T11:38:34Z</time></trkpt><trkpt lat="44.59831701756873" lon="8.875415767498138"><ele>584.0</ele><time>2026-04-25T11:38:35Z</time></trkpt><trkpt lat="44.59837267447486" lon="8.87548196505665"><ele>580.6666666666667</ele><time>2026-04-25T11:38:36Z</time></trkpt><trkpt lat="44.598420656233614" lon="8.875561523214051"><ele>577.3333333333334</ele><time>2026-04-25T11:38:37Z</time></trkpt><trkpt lat="44.5984141003323" lon="8.87569705082669"><ele>574.0</ele><time>2026-04-25T11:38:38Z</time></trkpt><trkpt lat="44.598409041779334" lon="8.875866875281988"><ele>573.3333333333334</ele><time>2026-04-25T11:38:39Z</time></trkpt><trkpt lat="44.59837208843258" lon="8.8760703619406"><ele>572.6666666666666</ele><time>2026-04-25T11:38:40Z</time></trkpt><trkpt lat="44.598330159243126" lon="8.876292874339743"><ele>572.0</ele><time>2026-04-25T11:38:41Z</time></trkpt><trkpt lat="44.598285885518294" lon="8.876499579933453"><ele>572.0</ele><time>2026-04-25T11:38:42Z</time></trkpt><trkpt lat="44.5982533820722" lon="8.87668350092298"><ele>572.0</ele><time>2026-04-25T11:38:43Z</time></trkpt><trkpt lat="44.59823926612797" lon="8.876857588776991"><ele>572.0</ele><time>2026-04-25T11:38:44Z</time></trkpt><trkpt lat="44.598258111400426" lon="8.877018290073327"><ele>572.0</ele><time>2026-04-25T11:38:45Z</time></trkpt><trkpt lat="44.59829595253528" lon="8.87718055936124"><ele>572.6666666666666</ele><time>2026-04-25T11:38:46Z</time></trkpt><trkpt lat="44.59836295428969" lon="8.877359400752702"><ele>573.3333333333334</ele><time>2026-04-25T11:38:47Z</time></trkpt><trkpt lat="44.59844145408414" lon="8.877558301300967"><ele>574.0</ele><time>2026-04-25T11:38:48Z</time></trkpt><trkpt lat="44.598510073977515" lon="8.877794424737086"><ele>576.6666666666667</ele><time>2026-04-25T11:38:49Z</time></trkpt><trkpt lat="44.59855169601642" lon="8.878036019317815"><ele>579.3333333333334</ele><time>2026-04-25T11:38:50Z</time></trkpt><trkpt lat="44.598578002354124" lon="8.878252142534572"><ele>582.0</ele><time>2026-04-25T11:38:51Z</time></trkpt><trkpt lat="44.598630167271466" lon="8.878439027614318"><ele>578.0</ele><time>2026-04-25T11:38:52Z</time></trkpt><trkpt lat="44.59872215111245" lon="8.878601704984712"><ele>574.0</ele><time>2026-04-25T11:38:53Z</time></trkpt><trkpt lat="44.59884323154245" lon="8.878761006345403"><ele>570.0</ele><time>2026-04-25T11:38:54Z</time></trkpt><trkpt lat="44.598928933002114" lon="8.878960878242314"><ele>570.0</ele><time>2026-04-25T11:38:55Z</time></trkpt><trkpt lat="44.59901289543092" lon="8.879186918118645"><ele>570.0</ele><time>2026-04-25T11:38:56Z</time></trkpt><trkpt lat="44.59906276671736" lon="8.879417468037655"><ele>570.0</ele><time>2026-04-25T11:38:57Z</time></trkpt><trkpt lat="44.5991340461222" lon="8.879614333996743"><ele>573.0</ele><time>2026-04-25T11:38:58Z</time></trkpt><trkpt lat="44.59923378245411" lon="8.879792087437016"><ele>576.0</ele><time>2026-04-25T11:38:59Z</time></trkpt><trkpt lat="44.59936367190394" lon="8.879949729061183"><ele>579.0</ele><time>2026-04-25T11:39:00Z</time></trkpt><trkpt lat="44.59950504294685" lon="8.880087867723654"><ele>576.6666666666666</ele><time>2026-04-25T11:39:01Z</time></trkpt><trkpt lat="44.59963303450265" lon="8.880219231749034"><ele>574.3333333333333</ele><time>2026-04-25T11:39:02Z</time></trkpt><trkpt lat="44.59973192022289" lon="8.880378423773958"><ele>572.0</ele><time>2026-04-25T11:39:03Z</time></trkpt><trkpt lat="44.59978582555628" lon="8.880573312340234"><ele>572.0</ele><time>2026-04-25T11:39:04Z</time></trkpt><trkpt lat="44.59985162643042" lon="8.880734870673756"><ele>572.0</ele><time>2026-04-25T11:39:05Z</time></trkpt><trkpt lat="44.59991500350924" lon="8.880856189041785"><ele>572.0</ele><time>2026-04-25T11:39:06Z</time></trkpt><trkpt lat="44.60000829488069" lon="8.880926167496083"><ele>572.0</ele><time>2026-04-25T11:39:07Z</time></trkpt><trkpt lat="44.600137397066334" lon="8.880936206056097"><ele>571.75</ele><time>2026-04-25T11:39:08Z</time></trkpt><trkpt lat="44.600270503931846" lon="8.880954580489936"><ele>571.5</ele><time>2026-04-25T11:39:09Z</time></trkpt><trkpt lat="44.60040370779717" lon="8.880974654328492"><ele>571.25</ele><time>2026-04-25T11:39:10Z</time></trkpt><trkpt lat="44.60051386952065" lon="8.881062143560156"><ele>571.0</ele><time>2026-04-25T11:39:11Z</time></trkpt><trkpt lat="44.600595015912084" lon="8.8811942865731"><ele>571.0</ele><time>2026-04-25T11:39:12Z</time></trkpt><trkpt lat="44.6006564197624" lon="8.881360712982795"><ele>571.0</ele><time>2026-04-25T11:39:13Z</time></trkpt><trkpt lat="44.60070577771628" lon="8.881549055250852"><ele>571.0</ele><time>2026-04-25T11:39:14Z</time></trkpt><trkpt lat="44.6007515602961" lon="8.881734666206494"><ele>571.0</ele><time>2026-04-25T11:39:15Z</time></trkpt><trkpt lat="44.60080033390165" lon="8.881879266484772"><ele>574.0</ele><time>2026-04-25T11:39:16Z</time></trkpt><trkpt lat="44.600837309626705" lon="8.882009829234615"><ele>574.0</ele><time>2026-04-25T11:39:17Z</time></trkpt><trkpt lat="44.60086941182564" lon="8.88211401516872"><ele>574.0</ele><time>2026-04-25T11:39:18Z</time></trkpt><trkpt lat="44.60088309515635" lon="8.882227926393947"><ele>574.0</ele><time>2026-04-25T11:39:20Z</time></trkpt><trkpt lat="44.600986605265916" lon="8.882143380244349"><ele>574.0</ele><time>2026-04-25T11:39:25Z</time></trkpt></trkseg><trkseg><trkpt lat="44.600938996031864" lon="8.882200474699818"><ele>574.0</ele><time>2026-04-25T12:37:36Z</time></trkpt><trkpt lat="44.60090361409739" lon="8.882357414276656"><ele>574.0</ele><time>2026-04-25T12:37:37.999Z</time></trkpt><trkpt lat="44.60088155248057" lon="8.88251006929528"><ele>574.0</ele><time>2026-04-25T12:37:38.999Z</time></trkpt><trkpt lat="44.6008687004402" lon="8.882650693190989"><ele>574.0</ele><time>2026-04-25T12:37:39.999Z</time></trkpt><trkpt lat="44.600847509447206" lon="8.882782890614205"><ele>574.0</ele><time>2026-04-25T12:37:40.999Z</time></trkpt><trkpt lat="44.60079622811323" lon="8.882925557216963"><ele>573.25</ele><time>2026-04-25T12:37:41.999Z</time></trkpt><trkpt lat="44.60073307467323" lon="8.883074878223924"><ele>572.5</ele><time>2026-04-25T12:37:42.999Z</time></trkpt><trkpt lat="44.6006536266431" lon="8.88323359787343"><ele>571.75</ele><time>2026-04-25T12:37:43.999Z</time></trkpt><trkpt lat="44.600579558264386" lon="8.883407023927944"><ele>571.0</ele><time>2026-04-25T12:37:44.999Z</time></trkpt><trkpt lat="44.600505639333626" lon="8.883586214434684"><ele>569.3333333333334</ele><time>2026-04-25T12:37:45.999Z</time></trkpt><trkpt lat="44.60042808455353" lon="8.883763989117627"><ele>567.6666666666666</ele><time>2026-04-25T12:37:46.999Z</time></trkpt><trkpt lat="44.60034705468978" lon="8.883961766331725"><ele>566.0</ele><time>2026-04-25T12:37:47.999Z</time></trkpt><trkpt lat="44.600263262765814" lon="8.884159292630102"><ele>568.0</ele><time>2026-04-25T12:37:48.999Z</time></trkpt><trkpt lat="44.600188068616504" lon="8.884335779356729"><ele>570.0</ele><time>2026-04-25T12:37:49.999Z</time></trkpt><trkpt lat="44.60010873552589" lon="8.884504476057243"><ele>572.0</ele><time>2026-04-25T12:37:50.999Z</time></trkpt><trkpt lat="44.60003190548335" lon="8.884677044886244"><ele>574.0</ele><time>2026-04-25T12:37:51.999Z</time></trkpt><trkpt lat="44.59994815899395" lon="8.884843708312122"><ele>574.0</ele><time>2026-04-25T12:37:52.999Z</time></trkpt><trkpt lat="44.59985592983545" lon="8.884998475735756"><ele>574.0</ele><time>2026-04-25T12:37:53.999Z</time></trkpt><trkpt lat="44.59973818903085" lon="8.88514656620911"><ele>574.0</ele><time>2026-04-25T12:37:54.999Z</time></trkpt><trkpt lat="44.59958115963072" lon="8.885246991694398"><ele>574.5</ele><time>2026-04-25T12:37:55.999Z</time></trkpt><trkpt lat="44.59945097024263" lon="8.885375534250134"><ele>575.0</ele><time>2026-04-25T12:37:56.999Z</time></trkpt><trkpt lat="44.5993403283356" lon="8.885481154173235"><ele>575.5</ele><time>2026-04-25T12:37:57.999Z</time></trkpt><trkpt lat="44.59925877248406" lon="8.885634410919534"><ele>576.0</ele><time>2026-04-25T12:37:58.999Z</time></trkpt><trkpt lat="44.59918594710342" lon="8.885797956457985"><ele>576.0</ele><time>2026-04-25T12:37:59.999Z</time></trkpt><trkpt lat="44.599103357685436" lon="8.885910527659243"><ele>576.0</ele><time>2026-04-25T12:38:00.999Z</time></trkpt><trkpt lat="44.59898788447766" lon="8.885930629253268"><ele>576.0</ele><time>2026-04-25T12:38:01.999Z</time></trkpt><trkpt lat="44.59885841782784" lon="8.885975991852417"><ele>576.0</ele><time>2026-04-25T12:38:02.999Z</time></trkpt><trkpt lat="44.5987127072133" lon="8.886045996703917"><ele>576.0</ele><time>2026-04-25T12:38:03.999Z</time></trkpt><trkpt lat="44.59856862914168" lon="8.88611741982876"><ele>576.0</ele><time>2026-04-25T12:38:04.999Z</time></trkpt><trkpt lat="44.598428581949655" lon="8.88621107696418"><ele>576.0</ele><time>2026-04-25T12:38:05.999Z</time></trkpt><trkpt lat="44.598296232196255" lon="8.88630417110674"><ele>576.0</ele><time>2026-04-25T12:38:06.999Z</time></trkpt><trkpt lat="44.59818461908529" lon="8.886424936533045"><ele>576.0</ele><time>2026-04-25T12:38:07.999Z</time></trkpt><trkpt lat="44.598096005867816" lon="8.886564293758564"><ele>576.0</ele><time>2026-04-25T12:38:08.999Z</time></trkpt><trkpt lat="44.598028450313215" lon="8.88672009180083"><ele>576.0</ele><time>2026-04-25T12:38:09.999Z</time></trkpt><trkpt lat="44.5979763040996" lon="8.886882851858507"><ele>574.0</ele><time>2026-04-25T12:38:10.999Z</time></trkpt><trkpt lat="44.59792956159256" lon="8.88705801586146"><ele>572.0</ele><time>2026-04-25T12:38:11.999Z</time></trkpt><trkpt lat="44.597873484724865" lon="8.887235784534266"><ele>570.0</ele><time>2026-04-25T12:38:12.999Z</time></trkpt><trkpt lat="44.597807979691794" lon="8.887413172333222"><ele>568.0</ele><time>2026-04-25T12:38:13.999Z</time></trkpt><trkpt lat="44.59773701024156" lon="8.88757707672756"><ele>570.25</ele><time>2026-04-25T12:38:14.999Z</time></trkpt><trkpt lat="44.597657307290845" lon="8.8877382069485"><ele>572.5</ele><time>2026-04-25T12:38:15.999Z</time></trkpt><trkpt lat="44.597575411949705" lon="8.887884589499752"><ele>574.75</ele><time>2026-04-25T12:38:16.999Z</time></trkpt><trkpt lat="44.597496946938534" lon="8.888018413893127"><ele>577.0</ele><time>2026-04-25T12:38:17.999Z</time></trkpt><trkpt lat="44.59742570537118" lon="8.88812896209644"><ele>577.0</ele><time>2026-04-25T12:38:18.999Z</time></trkpt><trkpt lat="44.59735990394603" lon="8.888234834670701"><ele>577.0</ele><time>2026-04-25T12:38:19.999Z</time></trkpt><trkpt lat="44.59732201079893" lon="8.888352116318723"><ele>577.0</ele><time>2026-04-25T12:38:20.999Z</time></trkpt><trkpt lat="44.59730762382118" lon="8.888474761149595"><ele>577.0</ele><time>2026-04-25T12:38:21.999Z</time></trkpt><trkpt lat="44.59731918605976" lon="8.888626790418254"><ele>577.0</ele><time>2026-04-25T12:38:22.999Z</time></trkpt><trkpt lat="44.597360456057494" lon="8.888799730458151"><ele>576.25</ele><time>2026-04-25T12:38:23.999Z</time></trkpt><trkpt lat="44.59742704370671" lon="8.888993451342587"><ele>575.5</ele><time>2026-04-25T12:38:24.999Z</time></trkpt><trkpt lat="44.5974752451034" lon="8.889185245116316"><ele>574.75</ele><time>2026-04-25T12:38:25.999Z</time></trkpt><trkpt lat="44.59748427411089" lon="8.889379422047114"><ele>574.0</ele><time>2026-04-25T12:38:26.999Z</time></trkpt><trkpt lat="44.59746128205116" lon="8.889605874322367"><ele>573.5</ele><time>2026-04-25T12:38:27.999Z</time></trkpt><trkpt lat="44.59742832270072" lon="8.889827621708537"><ele>573.0</ele><time>2026-04-25T12:38:28.999Z</time></trkpt><trkpt lat="44.59739808842215" lon="8.890035495641005"><ele>572.5</ele><time>2026-04-25T12:38:29.999Z</time></trkpt><trkpt lat="44.59736897888521" lon="8.89020606523346"><ele>572.0</ele><time>2026-04-25T12:38:30.999Z</time></trkpt><trkpt lat="44.5973272412994" lon="8.89035052478297"><ele>572.0</ele><time>2026-04-25T12:38:31.999Z</time></trkpt><trkpt lat="44.597259748961385" lon="8.890482444472472"><ele>572.0</ele><time>2026-04-25T12:38:32.999Z</time></trkpt><trkpt lat="44.59717191620874" lon="8.890619736627583"><ele>572.0</ele><time>2026-04-25T12:38:33.999Z</time></trkpt><trkpt lat="44.59708078379929" lon="8.890762190725601"><ele>572.0</ele><time>2026-04-25T12:38:34.999Z</time></trkpt><trkpt lat="44.59699783579733" lon="8.890937007308992"><ele>565.0</ele><time>2026-04-25T12:38:35.999Z</time></trkpt><trkpt lat="44.59692674616258" lon="8.891119274387103"><ele>558.0</ele><time>2026-04-25T12:38:36.999Z</time></trkpt><trkpt lat="44.596868998988334" lon="8.891293767702747"><ele>551.0</ele><time>2026-04-25T12:38:37.999Z</time></trkpt><trkpt lat="44.59683041113916" lon="8.89148069716601"><ele>544.0</ele><time>2026-04-25T12:38:38.999Z</time></trkpt><trkpt lat="44.596803771296344" lon="8.891692988228714"><ele>543.0</ele><time>2026-04-25T12:38:39.999Z</time></trkpt><trkpt lat="44.59678703077166" lon="8.891901397727555"><ele>542.0</ele><time>2026-04-25T12:38:40.999Z</time></trkpt><trkpt lat="44.59676908661965" lon="8.892099423459074"><ele>541.0</ele><time>2026-04-25T12:38:41.999Z</time></trkpt><trkpt lat="44.59676489056018" lon="8.892269285775237"><ele>540.0</ele><time>2026-04-25T12:38:42.999Z</time></trkpt><trkpt lat="44.59678356052108" lon="8.892434097499462"><ele>539.5</ele><time>2026-04-25T12:38:43.999Z</time></trkpt><trkpt lat="44.59682461267343" lon="8.892596835983229"><ele>539.0</ele><time>2026-04-25T12:38:44.999Z</time></trkpt><trkpt lat="44.59689716718685" lon="8.892748945710725"><ele>538.5</ele><time>2026-04-25T12:38:45.999Z</time></trkpt><trkpt lat="44.596981536465805" lon="8.892896413482513"><ele>538.0</ele><time>2026-04-25T12:38:46.999Z</time></trkpt><trkpt lat="44.597064977989085" lon="8.893025431303721"><ele>538.0</ele><time>2026-04-25T12:38:47.999Z</time></trkpt><trkpt lat="44.59715942706774" lon="8.893123632878327"><ele>538.0</ele><time>2026-04-25T12:38:48.999Z</time></trkpt><trkpt lat="44.597276456256715" lon="8.893184836043948"><ele>538.0</ele><time>2026-04-25T12:38:49.999Z</time></trkpt><trkpt lat="44.59741652557286" lon="8.89322225584704"><ele>538.0</ele><time>2026-04-25T12:38:50.999Z</time></trkpt><trkpt lat="44.59755916112259" lon="8.893266506872894"><ele>538.0</ele><time>2026-04-25T12:38:51.999Z</time></trkpt><trkpt lat="44.5976926822788" lon="8.893329412869537"><ele>538.0</ele><time>2026-04-25T12:38:52.999Z</time></trkpt><trkpt lat="44.59781839608876" lon="8.893432501241563"><ele>538.0</ele><time>2026-04-25T12:38:53.999Z</time></trkpt><trkpt lat="44.59794036567099" lon="8.89357101979805"><ele>538.0</ele><time>2026-04-25T12:38:54.999Z</time></trkpt><trkpt lat="44.59806218353118" lon="8.893723617693132"><ele>535.3333333333334</ele><time>2026-04-25T12:38:55.999Z</time></trkpt><trkpt lat="44.59818455530945" lon="8.893864931837948"><ele>532.6666666666666</ele><time>2026-04-25T12:38:56.999Z</time></trkpt><trkpt lat="44.59830342564075" lon="8.89399764167058"><ele>530.0</ele><time>2026-04-25T12:38:57.999Z</time></trkpt><trkpt lat="44.598419012354235" lon="8.894123708656924"><ele>530.0</ele><time>2026-04-25T12:38:58.999Z</time></trkpt><trkpt lat="44.59852166154286" lon="8.894244697848855"><ele>530.0</ele><time>2026-04-25T12:38:59.999Z</time></trkpt><trkpt lat="44.59860572430768" lon="8.894374771317375"><ele>530.0</ele><time>2026-04-25T12:39:00.999Z</time></trkpt><trkpt lat="44.59866316404892" lon="8.89453572828335"><ele>530.0</ele><time>2026-04-25T12:39:01.999Z</time></trkpt><trkpt lat="44.598702725067405" lon="8.894711258127396"><ele>530.0</ele><time>2026-04-25T12:39:02.999Z</time></trkpt><trkpt lat="44.59875387979895" lon="8.894878831123197"><ele>530.0</ele><time>2026-04-25T12:39:03.999Z</time></trkpt><trkpt lat="44.598844441842154" lon="8.895018101204151"><ele>530.0</ele><time>2026-04-25T12:39:04.999Z</time></trkpt><trkpt lat="44.59896318340979" lon="8.895131012808699"><ele>530.0</ele><time>2026-04-25T12:39:05.999Z</time></trkpt><trkpt lat="44.599098749337735" lon="8.89522542926839"><ele>526.5</ele><time>2026-04-25T12:39:06.999Z</time></trkpt><trkpt lat="44.59921163537618" lon="8.895335312456254"><ele>523.0</ele><time>2026-04-25T12:39:07.999Z</time></trkpt><trkpt lat="44.59929760305811" lon="8.895475871093653"><ele>519.5</ele><time>2026-04-25T12:39:08.999Z</time></trkpt><trkpt lat="44.599364628433364" lon="8.89564126739436"><ele>516.0</ele><time>2026-04-25T12:39:09.999Z</time></trkpt><trkpt lat="44.59941896502322" lon="8.89582034637572"><ele>514.5</ele><time>2026-04-25T12:39:10.999Z</time></trkpt><trkpt lat="44.59947148704205" lon="8.89599837182939"><ele>513.0</ele><time>2026-04-25T12:39:11.999Z</time></trkpt><trkpt lat="44.59950304153292" lon="8.896177748820191"><ele>511.5</ele><time>2026-04-25T12:39:12.999Z</time></trkpt><trkpt lat="44.599502511377885" lon="8.896349237278807"><ele>510.0</ele><time>2026-04-25T12:39:13.999Z</time></trkpt><trkpt lat="44.59947525071167" lon="8.8965226642267"><ele>510.0</ele><time>2026-04-25T12:39:14.999Z</time></trkpt><trkpt lat="44.5994305685919" lon="8.896688628823666"><ele>510.0</ele><time>2026-04-25T12:39:15.999Z</time></trkpt><trkpt lat="44.59936010859093" lon="8.896869069008694"><ele>510.0</ele><time>2026-04-25T12:39:16.999Z</time></trkpt><trkpt lat="44.59927671891127" lon="8.897050189751397"><ele>510.0</ele><time>2026-04-25T12:39:17.999Z</time></trkpt><trkpt lat="44.59921032845268" lon="8.89720695512062"><ele>509.6</ele><time>2026-04-25T12:39:18.999Z</time></trkpt><trkpt lat="44.5991682961844" lon="8.897345830456116"><ele>509.2</ele><time>2026-04-25T12:39:19.999Z</time></trkpt><trkpt lat="44.599160256891665" lon="8.89746453629105"><ele>508.79999999999995</ele><time>2026-04-25T12:39:20.999Z</time></trkpt><trkpt lat="44.59917841055819" lon="8.897594290093714"><ele>508.4</ele><time>2026-04-25T12:39:21.999Z</time></trkpt><trkpt lat="44.59924114702362" lon="8.897715752141101"><ele>508.0</ele><time>2026-04-25T12:39:22.999Z</time></trkpt><trkpt lat="44.59932905888815" lon="8.897828071140177"><ele>505.75</ele><time>2026-04-25T12:39:23.999Z</time></trkpt><trkpt lat="44.599388158271154" lon="8.897957756712675"><ele>503.5</ele><time>2026-04-25T12:39:24.999Z</time></trkpt><trkpt lat="44.59939320434917" lon="8.89811786582564"><ele>501.25</ele><time>2026-04-25T12:39:25.999Z</time></trkpt><trkpt lat="44.59936607273766" lon="8.898300005254598"><ele>499.0</ele><time>2026-04-25T12:39:26.999Z</time></trkpt><trkpt lat="44.5993469952706" lon="8.89849336698862"><ele>496.33333333333337</ele><time>2026-04-25T12:39:27.999Z</time></trkpt><trkpt lat="44.599366839503574" lon="8.898700666204464"><ele>493.66666666666663</ele><time>2026-04-25T12:39:28.999Z</time></trkpt><trkpt lat="44.599415374723726" lon="8.898908232094048"><ele>491.0</ele><time>2026-04-25T12:39:29.999Z</time></trkpt><trkpt lat="44.59947960969159" lon="8.899101270658097"><ele>493.5</ele><time>2026-04-25T12:39:30.999Z</time></trkpt><trkpt lat="44.59954681937859" lon="8.899298944551305"><ele>496.0</ele><time>2026-04-25T12:39:31.999Z</time></trkpt><trkpt lat="44.59960468544897" lon="8.899490964957243"><ele>498.5</ele><time>2026-04-25T12:39:32.999Z</time></trkpt><trkpt lat="44.59966486298215" lon="8.899671833855002"><ele>501.0</ele><time>2026-04-25T12:39:33.999Z</time></trkpt><trkpt lat="44.59972542613791" lon="8.899834180452611"><ele>501.0</ele><time>2026-04-25T12:39:34.999Z</time></trkpt><trkpt lat="44.59977756821832" lon="8.899981494179437"><ele>501.0</ele><time>2026-04-25T12:39:35.999Z</time></trkpt><trkpt lat="44.59984125127406" lon="8.90010136476981"><ele>501.0</ele><time>2026-04-25T12:39:36.999Z</time></trkpt><trkpt lat="44.59992356457584" lon="8.900185743936666"><ele>501.0</ele><time>2026-04-25T12:39:37.999Z</time></trkpt><trkpt lat="44.60003276645674" lon="8.90021480435812"><ele>501.0</ele><time>2026-04-25T12:39:38.999Z</time></trkpt><trkpt lat="44.60013902939858" lon="8.900205412077689"><ele>498.6666666666667</ele><time>2026-04-25T12:39:39.999Z</time></trkpt><trkpt lat="44.60023953906139" lon="8.90018374289582"><ele>496.33333333333337</ele><time>2026-04-25T12:39:40.999Z</time></trkpt><trkpt lat="44.60032080299583" lon="8.90020469335036"><ele>494.0</ele><time>2026-04-25T12:39:41.999Z</time></trkpt><trkpt lat="44.600380451329656" lon="8.900299996542861"><ele>491.6666666666667</ele><time>2026-04-25T12:39:42.999Z</time></trkpt><trkpt lat="44.60040126759836" lon="8.900419757776337"><ele>489.33333333333337</ele><time>2026-04-25T12:39:43.999Z</time></trkpt><trkpt lat="44.60037058044176" lon="8.900531864529787"><ele>487.0</ele><time>2026-04-25T12:39:44.999Z</time></trkpt><trkpt lat="44.600300200625455" lon="8.900607547587308"><ele>487.0</ele><time>2026-04-25T12:39:45.999Z</time></trkpt><trkpt lat="44.600190953400336" lon="8.900655945560366"><ele>487.0</ele><time>2026-04-25T12:39:46.999Z</time></trkpt><trkpt lat="44.60005314766209" lon="8.900690703024592"><ele>487.0</ele><time>2026-04-25T12:39:47.999Z</time></trkpt><trkpt lat="44.59991303500476" lon="8.900728545566059"><ele>487.0</ele><time>2026-04-25T12:39:48.999Z</time></trkpt><trkpt lat="44.599780854140235" lon="8.900776186755724"><ele>487.0</ele><time>2026-04-25T12:39:49.999Z</time></trkpt><trkpt lat="44.599649674367996" lon="8.900825505615881"><ele>487.0</ele><time>2026-04-25T12:39:50.999Z</time></trkpt><trkpt lat="44.59952077281461" lon="8.900864798011755"><ele>487.0</ele><time>2026-04-25T12:39:51.999Z</time></trkpt><trkpt lat="44.59939660288114" lon="8.900889032802136"><ele>487.0</ele><time>2026-04-25T12:39:52.999Z</time></trkpt><trkpt lat="44.59927730057135" lon="8.900888095898713"><ele>486.20000000000005</ele><time>2026-04-25T12:39:53.999Z</time></trkpt><trkpt lat="44.599182404027474" lon="8.900805090204395"><ele>485.40000000000003</ele><time>2026-04-25T12:39:54.999Z</time></trkpt><trkpt lat="44.599102048002386" lon="8.900712431956029"><ele>484.59999999999997</ele><time>2026-04-25T12:39:55.999Z</time></trkpt><trkpt lat="44.59904264058703" lon="8.900588827794207"><ele>483.79999999999995</ele><time>2026-04-25T12:39:56.999Z</time></trkpt><trkpt lat="44.5989984002666" lon="8.900439982493504"><ele>483.0</ele><time>2026-04-25T12:39:57.999Z</time></trkpt><trkpt lat="44.598996454572884" lon="8.900251998150878"><ele>485.0</ele><time>2026-04-25T12:39:58.999Z</time></trkpt><trkpt lat="44.59899303273846" lon="8.900047142098806"><ele>487.0</ele><time>2026-04-25T12:39:59.999Z</time></trkpt><trkpt lat="44.59898473892782" lon="8.899861751623689"><ele>489.0</ele><time>2026-04-25T12:40:00.999Z</time></trkpt><trkpt lat="44.5989795637853" lon="8.899710808289711"><ele>491.0</ele><time>2026-04-25T12:40:01.999Z</time></trkpt><trkpt lat="44.5989762657825" lon="8.899583665014589"><ele>491.0</ele><time>2026-04-25T12:40:02.999Z</time></trkpt><trkpt lat="44.59892899971574" lon="8.899461126877526"><ele>491.0</ele><time>2026-04-25T12:40:03.999Z</time></trkpt><trkpt lat="44.598844040316436" lon="8.8993873884372"><ele>491.0</ele><time>2026-04-25T12:40:04.999Z</time></trkpt><trkpt lat="44.59874904044516" lon="8.899355490235436"><ele>491.0</ele><time>2026-04-25T12:40:05.999Z</time></trkpt><trkpt lat="44.59863674965883" lon="8.899395362464581"><ele>491.0</ele><time>2026-04-25T12:40:06.999Z</time></trkpt><trkpt lat="44.59853935018381" lon="8.899476168380698"><ele>485.0</ele><time>2026-04-25T12:40:07.999Z</time></trkpt><trkpt lat="44.59846801614711" lon="8.899602783223353"><ele>479.0</ele><time>2026-04-25T12:40:08.999Z</time></trkpt><trkpt lat="44.59843490003893" lon="8.89975246474626"><ele>473.0</ele><time>2026-04-25T12:40:09.999Z</time></trkpt><trkpt lat="44.59842005184614" lon="8.899897033772707"><ele>467.0</ele><time>2026-04-25T12:40:10.999Z</time></trkpt><trkpt lat="44.598445776627905" lon="8.90005338655253"><ele>461.0</ele><time>2026-04-25T12:40:11.999Z</time></trkpt><trkpt lat="44.59848843240871" lon="8.90023089452717"><ele>459.25</ele><time>2026-04-25T12:40:12.999Z</time></trkpt><trkpt lat="44.59855348759916" lon="8.900410281376976"><ele>457.5</ele><time>2026-04-25T12:40:13.999Z</time></trkpt><trkpt lat="44.598605583799966" lon="8.900585795829489"><ele>455.75</ele><time>2026-04-25T12:40:14.999Z</time></trkpt><trkpt lat="44.59863392811274" lon="8.900761593000754"><ele>454.0</ele><time>2026-04-25T12:40:15.999Z</time></trkpt><trkpt lat="44.59863705090345" lon="8.900948644331311"><ele>452.25</ele><time>2026-04-25T12:40:16.999Z</time></trkpt><trkpt lat="44.598623235560105" lon="8.901146755597745"><ele>450.5</ele><time>2026-04-25T12:40:17.999Z</time></trkpt><trkpt lat="44.598600508330776" lon="8.901344321436808"><ele>448.75</ele><time>2026-04-25T12:40:18.999Z</time></trkpt><trkpt lat="44.59857569274664" lon="8.90153655296121"><ele>447.0</ele><time>2026-04-25T12:40:19.999Z</time></trkpt><trkpt lat="44.59854332664335" lon="8.90172063839149"><ele>446.25</ele><time>2026-04-25T12:40:20.999Z</time></trkpt><trkpt lat="44.5985111334983" lon="8.901894322244189"><ele>445.5</ele><time>2026-04-25T12:40:21.999Z</time></trkpt><trkpt lat="44.598476118137" lon="8.90206044439374"><ele>444.75</ele><time>2026-04-25T12:40:22.999Z</time></trkpt><trkpt lat="44.598438550834224" lon="8.902219051496619"><ele>444.0</ele><time>2026-04-25T12:40:23.999Z</time></trkpt><trkpt lat="44.598401159616266" lon="8.90236853416724"><ele>444.0</ele><time>2026-04-25T12:40:24.999Z</time></trkpt><trkpt lat="44.5983630400188" lon="8.902505842775934"><ele>444.0</ele><time>2026-04-25T12:40:25.999Z</time></trkpt><trkpt lat="44.59835027598597" lon="8.902636695230774"><ele>444.0</ele><time>2026-04-25T12:40:26.999Z</time></trkpt><trkpt lat="44.598372552979875" lon="8.902750835910089"><ele>444.0</ele><time>2026-04-25T12:40:27.999Z</time></trkpt><trkpt lat="44.59842713390107" lon="8.902840043349991"><ele>444.0</ele><time>2026-04-25T12:40:28.999Z</time></trkpt><trkpt lat="44.59850335942991" lon="8.902894924010866"><ele>443.0</ele><time>2026-04-25T12:40:29.999Z</time></trkpt><trkpt lat="44.598600311339936" lon="8.902909466907307"><ele>442.0</ele><time>2026-04-25T12:40:30.999Z</time></trkpt><trkpt lat="44.59870808779135" lon="8.90289216904733"><ele>441.0</ele><time>2026-04-25T12:40:31.999Z</time></trkpt><trkpt lat="44.59882425883509" lon="8.902841953298188"><ele>440.0</ele><time>2026-04-25T12:40:32.999Z</time></trkpt><trkpt lat="44.59893635012628" lon="8.902789240234707"><ele>439.0</ele><time>2026-04-25T12:40:33.999Z</time></trkpt><trkpt lat="44.59904215557024" lon="8.902755834634197"><ele>439.0</ele><time>2026-04-25T12:40:34.999Z</time></trkpt><trkpt lat="44.59914389399599" lon="8.902723814015982"><ele>439.0</ele><time>2026-04-25T12:40:35.999Z</time></trkpt><trkpt lat="44.59924805472313" lon="8.902722638235039"><ele>439.0</ele><time>2026-04-25T12:40:36.999Z</time></trkpt><trkpt lat="44.59934871373367" lon="8.902771119527195"><ele>439.0</ele><time>2026-04-25T12:40:37.999Z</time></trkpt><trkpt lat="44.59944417314144" lon="8.902856451495653"><ele>439.0</ele><time>2026-04-25T12:40:38.999Z</time></trkpt><trkpt lat="44.59954014753829" lon="8.90292336946628"><ele>440.4</ele><time>2026-04-25T12:40:39.999Z</time></trkpt><trkpt lat="44.59961045434623" lon="8.903013099972155"><ele>441.79999999999995</ele><time>2026-04-25T12:40:40.998Z</time></trkpt><trkpt lat="44.59966302755673" lon="8.903148388372372"><ele>443.20000000000005</ele><time>2026-04-25T12:40:41.998Z</time></trkpt><trkpt lat="44.599689647387606" lon="8.903306225508391"><ele>444.6</ele><time>2026-04-25T12:40:42.998Z</time></trkpt><trkpt lat="44.59970452750789" lon="8.903463633339278"><ele>446.0</ele><time>2026-04-25T12:40:43.998Z</time></trkpt><trkpt lat="44.59969357890612" lon="8.903604612323013"><ele>447.8</ele><time>2026-04-25T12:40:44.998Z</time></trkpt><trkpt lat="44.599650954375534" lon="8.903724419582408"><ele>449.6</ele><time>2026-04-25T12:40:45.998Z</time></trkpt><trkpt lat="44.59957995349532" lon="8.903810548659848"><ele>451.4</ele><time>2026-04-25T12:40:46.998Z</time></trkpt><trkpt lat="44.59949111231333" lon="8.903854543380714"><ele>453.2</ele><time>2026-04-25T12:40:47.998Z</time></trkpt><trkpt lat="44.599389338629265" lon="8.90388873503965"><ele>455.0</ele><time>2026-04-25T12:40:48.998Z</time></trkpt><trkpt lat="44.599286845616504" lon="8.903937882370837"><ele>450.8</ele><time>2026-04-25T12:40:49.998Z</time></trkpt><trkpt lat="44.599192843011934" lon="8.904010410815113"><ele>446.6</ele><time>2026-04-25T12:40:50.998Z</time></trkpt><trkpt lat="44.599106029863" lon="8.904098168735997"><ele>442.4</ele><time>2026-04-25T12:40:51.999Z</time></trkpt><trkpt lat="44.59902635141253" lon="8.904202216139728"><ele>438.2</ele><time>2026-04-25T12:40:52.999Z</time></trkpt><trkpt lat="44.5989630646752" lon="8.904325405200227"><ele>434.0</ele><time>2026-04-25T12:40:53.999Z</time></trkpt><trkpt lat="44.59891374011342" lon="8.904470871221651"><ele>434.0</ele><time>2026-04-25T12:40:54.999Z</time></trkpt><trkpt lat="44.598875996331394" lon="8.904618301308801"><ele>434.0</ele><time>2026-04-25T12:40:55.999Z</time></trkpt><trkpt lat="44.59884800496793" lon="8.904764042094483"><ele>434.0</ele><time>2026-04-25T12:40:56.999Z</time></trkpt><trkpt lat="44.59885936306172" lon="8.904903657578513"><ele>434.0</ele><time>2026-04-25T12:40:57.999Z</time></trkpt><trkpt lat="44.59891143668289" lon="8.905125842357167"><ele>431.79999999999995</ele><time>2026-04-25T12:40:58.999Z</time></trkpt><trkpt lat="44.59892405965999" lon="8.90528638205041"><ele>429.59999999999997</ele><time>2026-04-25T12:40:59.999Z</time></trkpt><trkpt lat="44.59894188521185" lon="8.905435442659583"><ele>427.4</ele><time>2026-04-25T12:41:00.999Z</time></trkpt><trkpt lat="44.59894575960956" lon="8.9055746557616"><ele>425.2</ele><time>2026-04-25T12:41:01.999Z</time></trkpt><trkpt lat="44.59893352286673" lon="8.905702829440047"><ele>423.0</ele><time>2026-04-25T12:41:02.999Z</time></trkpt><trkpt lat="44.59889981676919" lon="8.90582461122379"><ele>422.25</ele><time>2026-04-25T12:41:03.999Z</time></trkpt><trkpt lat="44.59886864263611" lon="8.905968372065818"><ele>421.5</ele><time>2026-04-25T12:41:04.999Z</time></trkpt><trkpt lat="44.5988484806113" lon="8.906148853057866"><ele>420.75</ele><time>2026-04-25T12:41:05.999Z</time></trkpt><trkpt lat="44.598847964371" lon="8.906335258928218"><ele>420.0</ele><time>2026-04-25T12:41:06.999Z</time></trkpt><trkpt lat="44.598858274110384" lon="8.906510337882033"><ele>420.0</ele><time>2026-04-25T12:41:07.999Z</time></trkpt><trkpt lat="44.59887369902693" lon="8.906702765875941"><ele>420.0</ele><time>2026-04-25T12:41:08.999Z</time></trkpt><trkpt lat="44.59888570307762" lon="8.9069098102686"><ele>420.0</ele><time>2026-04-25T12:41:09.999Z</time></trkpt><trkpt lat="44.598899509396894" lon="8.907093718277455"><ele>420.0</ele><time>2026-04-25T12:41:10.999Z</time></trkpt><trkpt lat="44.59890899619359" lon="8.907257055933215"><ele>420.1666666666667</ele><time>2026-04-25T12:41:11.999Z</time></trkpt><trkpt lat="44.59891419437866" lon="8.907362617629893"><ele>420.33333333333337</ele><time>2026-04-25T12:41:12.999Z</time></trkpt><trkpt lat="44.59889314304787" lon="8.907472050684307"><ele>420.5</ele><time>2026-04-25T12:41:14.999Z</time></trkpt><trkpt lat="44.59898796446153" lon="8.907510932925586"><ele>420.6666666666667</ele><time>2026-04-25T12:41:15.999Z</time></trkpt><trkpt lat="44.59905116043159" lon="8.907571353349503"><ele>420.83333333333337</ele><time>2026-04-25T12:41:18.999Z</time></trkpt><trkpt lat="44.59909689464967" lon="8.907632148346693"><ele>421.0</ele><time>2026-04-25T12:41:19.999Z</time></trkpt><trkpt lat="44.59915019534259" lon="8.907721604401468"><ele>421.20000000000005</ele><time>2026-04-25T12:41:20.999Z</time></trkpt><trkpt lat="44.59921898622212" lon="8.907842410000276"><ele>421.40000000000003</ele><time>2026-04-25T12:41:21.999Z</time></trkpt><trkpt lat="44.599266312908945" lon="8.907959198806989"><ele>421.6</ele><time>2026-04-25T12:41:22.999Z</time></trkpt><trkpt lat="44.59927798789191" lon="8.908070620578652"><ele>421.8</ele><time>2026-04-25T12:41:23.999Z</time></trkpt><trkpt lat="44.59928029001699" lon="8.908201289419598"><ele>422.0</ele><time>2026-04-25T12:41:24.999Z</time></trkpt><trkpt lat="44.599270191283956" lon="8.908337320193011"><ele>422.20000000000005</ele><time>2026-04-25T12:41:25.999Z</time></trkpt><trkpt lat="44.5992753202417" lon="8.908444473833578"><ele>422.4</ele><time>2026-04-25T12:41:26.999Z</time></trkpt><trkpt lat="44.59936950301652" lon="8.908555000800634"><ele>422.6</ele><time>2026-04-25T12:41:28.999Z</time></trkpt><trkpt lat="44.599454305237884" lon="8.908612634684927"><ele>422.79999999999995</ele><time>2026-04-25T12:41:29.999Z</time></trkpt><trkpt lat="44.599542511148655" lon="8.908676477925901"><ele>423.0</ele><time>2026-04-25T12:41:30.999Z</time></trkpt><trkpt lat="44.599604429039495" lon="8.908790559388137"><ele>429.5</ele><time>2026-04-25T12:41:31.999Z</time></trkpt><trkpt lat="44.599622239632446" lon="8.90895629665583"><ele>436.0</ele><time>2026-04-25T12:41:32.999Z</time></trkpt><trkpt lat="44.599648972226994" lon="8.9091280073686"><ele>442.5</ele><time>2026-04-25T12:41:33.999Z</time></trkpt><trkpt lat="44.59964781367299" lon="8.909273868772315"><ele>449.0</ele><time>2026-04-25T12:41:34.999Z</time></trkpt><trkpt lat="44.599621907295216" lon="8.909412573999012"><ele>451.25</ele><time>2026-04-25T12:41:35.999Z</time></trkpt><trkpt lat="44.59958453430247" lon="8.90961147186673"><ele>453.5</ele><time>2026-04-25T12:41:36.999Z</time></trkpt><trkpt lat="44.599557001089885" lon="8.909799081753311"><ele>455.75</ele><time>2026-04-25T12:41:37.999Z</time></trkpt><trkpt lat="44.59951770031061" lon="8.909923496818626"><ele>458.0</ele><time>2026-04-25T12:41:38.999Z</time></trkpt><trkpt lat="44.5994559994685" lon="8.910019544020214"><ele>455.75</ele><time>2026-04-25T12:41:40.999Z</time></trkpt><trkpt lat="44.59936554417093" lon="8.910144366914857"><ele>453.5</ele><time>2026-04-25T12:41:42.999Z</time></trkpt><trkpt lat="44.59929574970068" lon="8.910256879217183"><ele>451.25</ele><time>2026-04-25T12:41:43.999Z</time></trkpt><trkpt lat="44.59921458923102" lon="8.910389653367009"><ele>449.0</ele><time>2026-04-25T12:41:44.999Z</time></trkpt><trkpt lat="44.59913239228469" lon="8.910514181599902"><ele>449.0</ele><time>2026-04-25T12:41:45.999Z</time></trkpt><trkpt lat="44.59906584330117" lon="8.910626199867925"><ele>449.0</ele><time>2026-04-25T12:41:46.999Z</time></trkpt><trkpt lat="44.59901334470706" lon="8.910757983942249"><ele>449.0</ele><time>2026-04-25T12:41:47.999Z</time></trkpt><trkpt lat="44.59897389750098" lon="8.910915174578053"><ele>449.0</ele><time>2026-04-25T12:41:48.999Z</time></trkpt><trkpt lat="44.598946314091386" lon="8.911099619725748"><ele>448.79999999999995</ele><time>2026-04-25T12:41:49.999Z</time></trkpt><trkpt lat="44.59892683743952" lon="8.911291867106517"><ele>448.59999999999997</ele><time>2026-04-25T12:41:50.999Z</time></trkpt><trkpt lat="44.59890115684759" lon="8.911459952624488"><ele>448.4</ele><time>2026-04-25T12:41:51.999Z</time></trkpt><trkpt lat="44.59889362492481" lon="8.911588158634018"><ele>448.2</ele><time>2026-04-25T12:41:52.999Z</time></trkpt><trkpt lat="44.59891942378091" lon="8.911695312840186"><ele>448.0</ele><time>2026-04-25T12:41:53.999Z</time></trkpt><trkpt lat="44.59898209163408" lon="8.911814222779704"><ele>448.0</ele><time>2026-04-25T12:41:54.999Z</time></trkpt><trkpt lat="44.59905433924512" lon="8.911964260472086"><ele>447.99999999999994</ele><time>2026-04-25T12:41:55.999Z</time></trkpt><trkpt lat="44.59911576908637" lon="8.91210923288947"><ele>447.99999999999994</ele><time>2026-04-25T12:41:56.999Z</time></trkpt><trkpt lat="44.59917141392847" lon="8.91222920943808"><ele>448.0</ele><time>2026-04-25T12:41:57.999Z</time></trkpt><trkpt lat="44.599230914524455" lon="8.912312381238007"><ele>448.0</ele><time>2026-04-25T12:41:58.999Z</time></trkpt><trkpt lat="44.59930031345978" lon="8.91235103128669"><ele>448.00000000000006</ele><time>2026-04-25T12:41:59.999Z</time></trkpt><trkpt lat="44.599378289133774" lon="8.91235214582295"><ele>448.0</ele><time>2026-04-25T12:42:00.999Z</time></trkpt><trkpt lat="44.599446308095146" lon="8.91232186598114"><ele>448.0</ele><time>2026-04-25T12:42:01.999Z</time></trkpt><trkpt lat="44.59951814690849" lon="8.912282375839444"><ele>448.0</ele><time>2026-04-25T12:42:02.999Z</time></trkpt><trkpt lat="44.59958276655549" lon="8.912165962705673"><ele>448.00000000000006</ele><time>2026-04-25T12:42:03.999Z</time></trkpt><trkpt lat="44.59965133150425" lon="8.912096810109361"><ele>448.0</ele><time>2026-04-25T12:42:04.999Z</time></trkpt><trkpt lat="44.59971943862999" lon="8.912075823289536"><ele>451.79999999999995</ele><time>2026-04-25T12:42:05.999Z</time></trkpt><trkpt lat="44.59979926991082" lon="8.912130956102187"><ele>455.59999999999997</ele><time>2026-04-25T12:42:06.999Z</time></trkpt><trkpt lat="44.59988181546625" lon="8.91221026092181"><ele>459.40000000000003</ele><time>2026-04-25T12:42:07.999Z</time></trkpt><trkpt lat="44.59996429282039" lon="8.91229291091625"><ele>463.20000000000005</ele><time>2026-04-25T12:42:08.999Z</time></trkpt><trkpt lat="44.6000384695156" lon="8.912325542577284"><ele>467.0</ele><time>2026-04-25T12:42:09.999Z</time></trkpt><trkpt lat="44.60014682208974" lon="8.912258447945256"><ele>467.0</ele><time>2026-04-25T12:42:11.999Z</time></trkpt><trkpt lat="44.60018442681817" lon="8.91214509596446"><ele>467.00000000000006</ele><time>2026-04-25T12:42:12.999Z</time></trkpt><trkpt lat="44.600178946832024" lon="8.912009849487944"><ele>467.00000000000006</ele><time>2026-04-25T12:42:13.999Z</time></trkpt><trkpt lat="44.60014416560232" lon="8.91191112803567"><ele>467.0</ele><time>2026-04-25T12:42:14.999Z</time></trkpt><trkpt lat="44.600028748660435" lon="8.911882671770702"><ele>467.0</ele><time>2026-04-25T12:42:15.999Z</time></trkpt><trkpt lat="44.599952898805896" lon="8.911803337796028"><ele>469.8</ele><time>2026-04-25T12:42:16.999Z</time></trkpt><trkpt lat="44.59986442541236" lon="8.911720967462298"><ele>472.6</ele><time>2026-04-25T12:42:17.999Z</time></trkpt><trkpt lat="44.599797111084335" lon="8.911641613513503"><ele>475.40000000000003</ele><time>2026-04-25T12:42:18.999Z</time></trkpt><trkpt lat="44.599815521622226" lon="8.911525351981751"><ele>478.20000000000005</ele><time>2026-04-25T12:42:21.999Z</time></trkpt><trkpt lat="44.59989678900343" lon="8.911409811997737"><ele>481.0</ele><time>2026-04-25T12:42:23.999Z</time></trkpt><trkpt lat="44.59994423328169" lon="8.91131318386379"><ele>481.00000000000006</ele><time>2026-04-25T12:42:24.999Z</time></trkpt><trkpt lat="44.60001434127999" lon="8.91119972745522"><ele>481.0</ele><time>2026-04-25T12:42:26.999Z</time></trkpt><trkpt lat="44.60006416169441" lon="8.911138304934866"><ele>481.0</ele><time>2026-04-25T12:42:27.999Z</time></trkpt><trkpt lat="44.60013436344859" lon="8.911085426483504"><ele>481.0</ele><time>2026-04-25T12:42:28.999Z</time></trkpt><trkpt lat="44.60019929461506" lon="8.911027399718431"><ele>481.00000000000006</ele><time>2026-04-25T12:42:29.999Z</time></trkpt><trkpt lat="44.60025756763595" lon="8.910981648058092"><ele>481.0</ele><time>2026-04-25T12:42:30.999Z</time></trkpt><trkpt lat="44.60031206321043" lon="8.910931465132636"><ele>484.0</ele><time>2026-04-25T12:42:31.999Z</time></trkpt><trkpt lat="44.60037774770361" lon="8.910912432831807"><ele>487.0</ele><time>2026-04-25T12:42:32.999Z</time></trkpt><trkpt lat="44.60046763577624" lon="8.910868810126164"><ele>490.0</ele><time>2026-04-25T12:42:34.999Z</time></trkpt><trkpt lat="44.600555349912284" lon="8.910920308391718"><ele>493.0</ele><time>2026-04-25T12:42:36.999Z</time></trkpt><trkpt lat="44.60064761669935" lon="8.910925299809154"><ele>496.0</ele><time>2026-04-25T12:42:38.999Z</time></trkpt><trkpt lat="44.60076073748971" lon="8.910837973015383"><ele>496.50000000000006</ele><time>2026-04-25T12:42:40.999Z</time></trkpt><trkpt lat="44.60083006612802" lon="8.910780904039507"><ele>497.0</ele><time>2026-04-25T12:42:41.999Z</time></trkpt><trkpt lat="44.600911554994305" lon="8.910720032047612"><ele>497.5</ele><time>2026-04-25T12:42:42.999Z</time></trkpt><trkpt lat="44.600998319545624" lon="8.910658125055692"><ele>498.0</ele><time>2026-04-25T12:42:43.999Z</time></trkpt><trkpt lat="44.601070872373434" lon="8.910588762769176"><ele>498.50000000000006</ele><time>2026-04-25T12:42:44.999Z</time></trkpt><trkpt lat="44.601119505947196" lon="8.910516153659652"><ele>499.0</ele><time>2026-04-25T12:42:45.999Z</time></trkpt><trkpt lat="44.60115460842923" lon="8.910414993296982"><ele>497.00000000000006</ele><time>2026-04-25T12:42:46.998Z</time></trkpt><trkpt lat="44.60117687169338" lon="8.91030448969479"><ele>495.0</ele><time>2026-04-25T12:42:47.998Z</time></trkpt><trkpt lat="44.6011797565888" lon="8.910184341701164"><ele>493.0</ele><time>2026-04-25T12:42:48.998Z</time></trkpt><trkpt lat="44.601168818730926" lon="8.910065881414218"><ele>491.0</ele><time>2026-04-25T12:42:49.998Z</time></trkpt><trkpt lat="44.601160886727854" lon="8.909942724875739"><ele>489.00000000000006</ele><time>2026-04-25T12:42:50.998Z</time></trkpt><trkpt lat="44.60115290551176" lon="8.909811988307334"><ele>487.0</ele><time>2026-04-25T12:42:51.998Z</time></trkpt><trkpt lat="44.60114802510256" lon="8.909679783298943"><ele>487.00000000000006</ele><time>2026-04-25T12:42:52.998Z</time></trkpt><trkpt lat="44.60115043222721" lon="8.909548132345451"><ele>487.0</ele><time>2026-04-25T12:42:53.998Z</time></trkpt><trkpt lat="44.601161060827955" lon="8.90941187597477"><ele>487.0</ele><time>2026-04-25T12:42:54.998Z</time></trkpt><trkpt lat="44.601179010020864" lon="8.909293897823268"><ele>487.0</ele><time>2026-04-25T12:42:55.999Z</time></trkpt><trkpt lat="44.60121281021513" lon="8.909209517224436"><ele>487.00000000000006</ele><time>2026-04-25T12:42:56.999Z</time></trkpt><trkpt lat="44.60122134309974" lon="8.909108976525275"><ele>487.0</ele><time>2026-04-25T12:42:57.999Z</time></trkpt><trkpt lat="44.60128426479241" lon="8.909073043731029"><ele>490.00000000000006</ele><time>2026-04-25T12:42:58.999Z</time></trkpt><trkpt lat="44.60135512591765" lon="8.909048526403899"><ele>493.0</ele><time>2026-04-25T12:42:59.999Z</time></trkpt><trkpt lat="44.60143660131444" lon="8.909028462593206"><ele>496.0</ele><time>2026-04-25T12:43:00.999Z</time></trkpt><trkpt lat="44.60152476102652" lon="8.909043873393047"><ele>499.0</ele><time>2026-04-25T12:43:01.999Z</time></trkpt><trkpt lat="44.601606695302" lon="8.909025655187264"><ele>502.00000000000006</ele><time>2026-04-25T12:43:02.999Z</time></trkpt><trkpt lat="44.60167677436273" lon="8.909074974789647"><ele>505.0</ele><time>2026-04-25T12:43:03.999Z</time></trkpt><trkpt lat="44.60174910561567" lon="8.909108154346868"><ele>505.0</ele><time>2026-04-25T12:43:04.999Z</time></trkpt><trkpt lat="44.60182352481938" lon="8.909141282579819"><ele>505.0</ele><time>2026-04-25T12:43:05.999Z</time></trkpt><trkpt lat="44.60189969017906" lon="8.909111638963454"><ele>505.0</ele><time>2026-04-25T12:43:06.999Z</time></trkpt><trkpt lat="44.601972771653806" lon="8.909045678884057"><ele>505.0</ele><time>2026-04-25T12:43:07.999Z</time></trkpt><trkpt lat="44.602073640460986" lon="8.909003753984026"><ele>505.0</ele><time>2026-04-25T12:43:08.999Z</time></trkpt><trkpt lat="44.602176071147454" lon="8.908937308398004"><ele>507.8</ele><time>2026-04-25T12:43:09.999Z</time></trkpt><trkpt lat="44.602284447856185" lon="8.90887188635573"><ele>510.6</ele><time>2026-04-25T12:43:10.999Z</time></trkpt><trkpt lat="44.602391702909635" lon="8.908814856933654"><ele>513.4</ele><time>2026-04-25T12:43:11.999Z</time></trkpt><trkpt lat="44.60248089070707" lon="8.908774754051988"><ele>516.2</ele><time>2026-04-25T12:43:12.999Z</time></trkpt><trkpt lat="44.60254344750342" lon="8.908753027358802"><ele>519.0</ele><time>2026-04-25T12:43:13.999Z</time></trkpt><trkpt lat="44.60266192638545" lon="8.908751399968745"><ele>519.0</ele><time>2026-04-25T12:43:15.999Z</time></trkpt><trkpt lat="44.602730644687796" lon="8.908746487291179"><ele>519.0</ele><time>2026-04-25T12:43:16.999Z</time></trkpt><trkpt lat="44.60282888690572" lon="8.908770057001066"><ele>519.0</ele><time>2026-04-25T12:43:17.999Z</time></trkpt><trkpt lat="44.60293810806402" lon="8.908714695331177"><ele>519.0</ele><time>2026-04-25T12:43:18.999Z</time></trkpt><trkpt lat="44.603029640538786" lon="8.908690276402968"><ele>519.0</ele><time>2026-04-25T12:43:19.999Z</time></trkpt><trkpt lat="44.60314122320046" lon="8.908692305264436"><ele>520.1666666666666</ele><time>2026-04-25T12:43:21.999Z</time></trkpt><trkpt lat="44.60320173071221" lon="8.908761351046051"><ele>521.3333333333334</ele><time>2026-04-25T12:43:22.999Z</time></trkpt><trkpt lat="44.60326700510208" lon="8.908836500068631"><ele>522.5</ele><time>2026-04-25T12:43:23.999Z</time></trkpt><trkpt lat="44.60333249070673" lon="8.908888323100673"><ele>523.6666666666667</ele><time>2026-04-25T12:43:24.999Z</time></trkpt><trkpt lat="44.60342360041061" lon="8.908961545653169"><ele>524.8333333333334</ele><time>2026-04-25T12:43:26.999Z</time></trkpt><trkpt lat="44.603482253617116" lon="8.909044757644082"><ele>526.0</ele><time>2026-04-25T12:43:28.999Z</time></trkpt><trkpt lat="44.60342265029153" lon="8.909145327112297"><ele>526.0</ele><time>2026-04-25T12:43:30.999Z</time></trkpt><trkpt lat="44.60334135790561" lon="8.909067509562377"><ele>526.0</ele><time>2026-04-25T12:43:32.999Z</time></trkpt><trkpt lat="44.603276381081" lon="8.909053704490354"><ele>526.0</ele><time>2026-04-25T12:43:33.999Z</time></trkpt><trkpt lat="44.60319627716222" lon="8.909058439118064"><ele>526.0</ele><time>2026-04-25T12:43:35.999Z</time></trkpt><trkpt lat="44.60319611833007" lon="8.90916151757154"><ele>526.0</ele><time>2026-04-25T12:43:37.999Z</time></trkpt><trkpt lat="44.60328046106974" lon="8.909230715424473"><ele>526.0</ele><time>2026-04-25T12:43:39.999Z</time></trkpt><trkpt lat="44.60333779248279" lon="8.909271042962482"><ele>531.8</ele><time>2026-04-25T12:43:40.999Z</time></trkpt><trkpt lat="44.603399922340174" lon="8.909326638059959"><ele>537.6</ele><time>2026-04-25T12:43:41.999Z</time></trkpt><trkpt lat="44.6034998769664" lon="8.909409708509834"><ele>543.4</ele><time>2026-04-25T12:43:42.999Z</time></trkpt><trkpt lat="44.6036045474861" lon="8.90950624664971"><ele>549.2</ele><time>2026-04-25T12:43:43.999Z</time></trkpt><trkpt lat="44.60369169227607" lon="8.909578804162622"><ele>555.0</ele><time>2026-04-25T12:43:44.999Z</time></trkpt><trkpt lat="44.603781215867926" lon="8.909651336193427"><ele>555.0</ele><time>2026-04-25T12:43:45.999Z</time></trkpt><trkpt lat="44.60386538001904" lon="8.90972509365511"><ele>555.0</ele><time>2026-04-25T12:43:46.999Z</time></trkpt><trkpt lat="44.603927626005564" lon="8.909804527219329"><ele>555.0</ele><time>2026-04-25T12:43:47.999Z</time></trkpt><trkpt lat="44.603979895624576" lon="8.909874814789209"><ele>555.0</ele><time>2026-04-25T12:43:48.999Z</time></trkpt><trkpt lat="44.60413335740123" lon="8.909896376087678"><ele>555.0</ele><time>2026-04-25T12:43:50.999Z</time></trkpt><trkpt lat="44.604242631047725" lon="8.909824175221077"><ele>555.0</ele><time>2026-04-25T12:43:51.999Z</time></trkpt><trkpt lat="44.60435309100673" lon="8.909778188216524"><ele>555.0</ele><time>2026-04-25T12:43:52.999Z</time></trkpt><trkpt lat="44.60446077983244" lon="8.909762567428475"><ele>555.0</ele><time>2026-04-25T12:43:53.999Z</time></trkpt><trkpt lat="44.6045864675362" lon="8.909748921432419"><ele>555.0</ele><time>2026-04-25T12:43:54.999Z</time></trkpt><trkpt lat="44.604692941876195" lon="8.909734419308533"><ele>558.2</ele><time>2026-04-25T12:43:55.999Z</time></trkpt><trkpt lat="44.604792677888014" lon="8.909705380168667"><ele>561.4</ele><time>2026-04-25T12:43:56.999Z</time></trkpt><trkpt lat="44.604877280415245" lon="8.90965540930688"><ele>564.6</ele><time>2026-04-25T12:43:57.999Z</time></trkpt><trkpt lat="44.60494684219133" lon="8.909619559354717"><ele>567.8</ele><time>2026-04-25T12:43:58.999Z</time></trkpt><trkpt lat="44.60508412124708" lon="8.90962650998522"><ele>571.0</ele><time>2026-04-25T12:44:00.999Z</time></trkpt><trkpt lat="44.60516732895567" lon="8.909690446348536"><ele>571.0</ele><time>2026-04-25T12:44:01.999Z</time></trkpt><trkpt lat="44.60525377991955" lon="8.909713941865636"><ele>571.0</ele><time>2026-04-25T12:44:02.999Z</time></trkpt><trkpt lat="44.60535072296363" lon="8.909789254458785"><ele>571.0</ele><time>2026-04-25T12:44:03.999Z</time></trkpt><trkpt lat="44.60545230532894" lon="8.909868391663041"><ele>571.0</ele><time>2026-04-25T12:44:04.999Z</time></trkpt><trkpt lat="44.60551933109032" lon="8.90999390279777"><ele>571.0</ele><time>2026-04-25T12:44:05.999Z</time></trkpt><trkpt lat="44.60558085038072" lon="8.910072073484853"><ele>572.0</ele><time>2026-04-25T12:44:06.999Z</time></trkpt><trkpt lat="44.605555249888425" lon="8.910222910598405"><ele>573.0</ele><time>2026-04-25T12:44:08.999Z</time></trkpt><trkpt lat="44.60552642021073" lon="8.910328663711772"><ele>574.0</ele><time>2026-04-25T12:44:09.999Z</time></trkpt><trkpt lat="44.60552078939441" lon="8.910466736832177"><ele>575.0</ele><time>2026-04-25T12:44:10.999Z</time></trkpt><trkpt lat="44.6055184794794" lon="8.910586702511967"><ele>576.0</ele><time>2026-04-25T12:44:11.999Z</time></trkpt><trkpt lat="44.605542363429244" lon="8.91068396047008"><ele>577.0</ele><time>2026-04-25T12:44:12.999Z</time></trkpt><trkpt lat="44.605590200642204" lon="8.910757257932845"><ele>577.0</ele><time>2026-04-25T12:44:13.999Z</time></trkpt><trkpt lat="44.6056276009856" lon="8.91083315363015"><ele>577.0</ele><time>2026-04-25T12:44:14.999Z</time></trkpt><trkpt lat="44.60569720764226" lon="8.910888098322829"><ele>577.0</ele><time>2026-04-25T12:44:15.999Z</time></trkpt><trkpt lat="44.60573047217327" lon="8.910996614940053"><ele>577.0</ele><time>2026-04-25T12:44:16.999Z</time></trkpt><trkpt lat="44.605743826400136" lon="8.911114748007677"><ele>577.0</ele><time>2026-04-25T12:44:17.999Z</time></trkpt><trkpt lat="44.6057606124777" lon="8.911218712295003"><ele>577.0</ele><time>2026-04-25T12:44:18.999Z</time></trkpt><trkpt lat="44.605811397404935" lon="8.911321308057143"><ele>577.4</ele><time>2026-04-25T12:44:20.999Z</time></trkpt><trkpt lat="44.605905250341" lon="8.91130813266527"><ele>577.8000000000001</ele><time>2026-04-25T12:44:22.999Z</time></trkpt><trkpt lat="44.6059727237437" lon="8.911247978766554"><ele>578.2</ele><time>2026-04-25T12:44:23.999Z</time></trkpt><trkpt lat="44.60607032472179" lon="8.911182388446775"><ele>578.6</ele><time>2026-04-25T12:44:24.999Z</time></trkpt><trkpt lat="44.606163053780996" lon="8.91113231059658"><ele>579.0</ele><time>2026-04-25T12:44:25.999Z</time></trkpt><trkpt lat="44.606263085306665" lon="8.91111625363976"><ele>582.3333333333334</ele><time>2026-04-25T12:44:26.999Z</time></trkpt><trkpt lat="44.60634109385345" lon="8.911109001345743"><ele>585.6666666666666</ele><time>2026-04-25T12:44:27.999Z</time></trkpt><trkpt lat="44.60641941536698" lon="8.91118741381775"><ele>589.0</ele><time>2026-04-25T12:44:29.999Z</time></trkpt><trkpt lat="44.60643221281606" lon="8.911294930030296"><ele>592.3333333333333</ele><time>2026-04-25T12:44:30.999Z</time></trkpt><trkpt lat="44.60645230543169" lon="8.9114164131462"><ele>595.6666666666666</ele><time>2026-04-25T12:44:31.999Z</time></trkpt><trkpt lat="44.60650665003555" lon="8.911518184760448"><ele>599.0</ele><time>2026-04-25T12:44:32.999Z</time></trkpt><trkpt lat="44.6065916747517" lon="8.911600626698831"><ele>599.0</ele><time>2026-04-25T12:44:33.999Z</time></trkpt><trkpt lat="44.60669441566221" lon="8.911685966284987"><ele>599.0</ele><time>2026-04-25T12:44:34.999Z</time></trkpt><trkpt lat="44.60678184495952" lon="8.911787564070163"><ele>599.0</ele><time>2026-04-25T12:44:35.999Z</time></trkpt><trkpt lat="44.606847412582056" lon="8.911862330310722"><ele>599.0</ele><time>2026-04-25T12:44:36.999Z</time></trkpt><trkpt lat="44.60697882782704" lon="8.911856156764921"><ele>599.0</ele><time>2026-04-25T12:44:38.999Z</time></trkpt><trkpt lat="44.60706068258695" lon="8.911869269267473"><ele>602.2</ele><time>2026-04-25T12:44:39.999Z</time></trkpt><trkpt lat="44.60712474897514" lon="8.91189935815445"><ele>605.4</ele><time>2026-04-25T12:44:40.999Z</time></trkpt><trkpt lat="44.607199492280735" lon="8.911977093624047"><ele>608.6</ele><time>2026-04-25T12:44:41.999Z</time></trkpt><trkpt lat="44.60728048955323" lon="8.912063984133614"><ele>611.8</ele><time>2026-04-25T12:44:42.999Z</time></trkpt><trkpt lat="44.60737966219599" lon="8.91214209693543"><ele>615.0</ele><time>2026-04-25T12:44:43.999Z</time></trkpt><trkpt lat="44.607483678270434" lon="8.912220608895437"><ele>615.0</ele><time>2026-04-25T12:44:44.999Z</time></trkpt><trkpt lat="44.60759950629332" lon="8.912301842036642"><ele>615.0</ele><time>2026-04-25T12:44:45.999Z</time></trkpt><trkpt lat="44.607709817869114" lon="8.912378964307134"><ele>615.0</ele><time>2026-04-25T12:44:46.999Z</time></trkpt><trkpt lat="44.607803970411325" lon="8.912432813094892"><ele>615.0</ele><time>2026-04-25T12:44:47.999Z</time></trkpt><trkpt lat="44.607893082948365" lon="8.912454060004588"><ele>615.0</ele><time>2026-04-25T12:44:48.999Z</time></trkpt><trkpt lat="44.607983977372015" lon="8.912478260338828"><ele>618.6</ele><time>2026-04-25T12:44:49.999Z</time></trkpt><trkpt lat="44.60807070035708" lon="8.912478279193305"><ele>622.2</ele><time>2026-04-25T12:44:50.999Z</time></trkpt><trkpt lat="44.60815569223608" lon="8.912453809341361"><ele>625.8</ele><time>2026-04-25T12:44:51.999Z</time></trkpt><trkpt lat="44.60824652515218" lon="8.91239788682468"><ele>629.4</ele><time>2026-04-25T12:44:52.999Z</time></trkpt><trkpt lat="44.60833731512993" lon="8.912311429071115"><ele>633.0</ele><time>2026-04-25T12:44:53.999Z</time></trkpt><trkpt lat="44.60842208585864" lon="8.912248258863743"><ele>633.0</ele><time>2026-04-25T12:44:54.999Z</time></trkpt><trkpt lat="44.60851324573334" lon="8.912209174589709"><ele>633.0</ele><time>2026-04-25T12:44:55.999Z</time></trkpt><trkpt lat="44.60860663774178" lon="8.912195780775608"><ele>633.0</ele><time>2026-04-25T12:44:56.999Z</time></trkpt><trkpt lat="44.60869447300508" lon="8.912190762634465"><ele>633.0</ele><time>2026-04-25T12:44:57.999Z</time></trkpt><trkpt lat="44.60877895426598" lon="8.912212720537948"><ele>633.0</ele><time>2026-04-25T12:44:58.999Z</time></trkpt><trkpt lat="44.60887277487899" lon="8.912274631985674"><ele>635.75</ele><time>2026-04-25T12:44:59.999Z</time></trkpt><trkpt lat="44.60898260484882" lon="8.912298317367295"><ele>638.5</ele><time>2026-04-25T12:45:00.999Z</time></trkpt><trkpt lat="44.609095816467445" lon="8.912333167340131"><ele>641.25</ele><time>2026-04-25T12:45:01.999Z</time></trkpt><trkpt lat="44.60922295782119" lon="8.912352564166516"><ele>644.0</ele><time>2026-04-25T12:45:02.999Z</time></trkpt><trkpt lat="44.60935563344686" lon="8.912383457843353"><ele>644.0</ele><time>2026-04-25T12:45:03.999Z</time></trkpt><trkpt lat="44.60947974177869" lon="8.91240178402512"><ele>644.0</ele><time>2026-04-25T12:45:04.999Z</time></trkpt><trkpt lat="44.60958351352689" lon="8.912406387160082"><ele>644.0</ele><time>2026-04-25T12:45:05.999Z</time></trkpt><trkpt lat="44.60967231171979" lon="8.912458644539269"><ele>644.0</ele><time>2026-04-25T12:45:06.999Z</time></trkpt><trkpt lat="44.60975237873856" lon="8.912528276880595"><ele>644.0</ele><time>2026-04-25T12:45:07.999Z</time></trkpt><trkpt lat="44.609829270944935" lon="8.91257908592994"><ele>644.6</ele><time>2026-04-25T12:45:08.999Z</time></trkpt><trkpt lat="44.609897453826605" lon="8.912587328070291"><ele>645.2</ele><time>2026-04-25T12:45:09.999Z</time></trkpt><trkpt lat="44.609967964087794" lon="8.912558096895228"><ele>645.8000000000001</ele><time>2026-04-25T12:45:10.999Z</time></trkpt><trkpt lat="44.61006553973855" lon="8.912540593212142"><ele>646.4000000000001</ele><time>2026-04-25T12:45:11.999Z</time></trkpt><trkpt lat="44.61017852852318" lon="8.912506466241227"><ele>647.0</ele><time>2026-04-25T12:45:12.999Z</time></trkpt><trkpt lat="44.610281338571596" lon="8.912490007487454"><ele>646.4000000000001</ele><time>2026-04-25T12:45:13.999Z</time></trkpt><trkpt lat="44.61036567779868" lon="8.912441927220227"><ele>645.8000000000001</ele><time>2026-04-25T12:45:14.999Z</time></trkpt><trkpt lat="44.61045304737569" lon="8.912391596131071"><ele>645.2</ele><time>2026-04-25T12:45:15.999Z</time></trkpt><trkpt lat="44.61054152550425" lon="8.912324497274914"><ele>644.6</ele><time>2026-04-25T12:45:16.999Z</time></trkpt><trkpt lat="44.610653550749" lon="8.912251587958458"><ele>644.0</ele><time>2026-04-25T12:45:17.999Z</time></trkpt><trkpt lat="44.6107671712999" lon="8.912153370022011"><ele>644.0</ele><time>2026-04-25T12:45:18.999Z</time></trkpt><trkpt lat="44.61087198452955" lon="8.912063871166609"><ele>644.0</ele><time>2026-04-25T12:45:19.999Z</time></trkpt><trkpt lat="44.61097015658664" lon="8.912003699412555"><ele>644.0</ele><time>2026-04-25T12:45:20.999Z</time></trkpt><trkpt lat="44.61108663563977" lon="8.911975667619883"><ele>644.0</ele><time>2026-04-25T12:45:21.999Z</time></trkpt><trkpt lat="44.611218862961344" lon="8.911943268712628"><ele>641.5</ele><time>2026-04-25T12:45:22.999Z</time></trkpt><trkpt lat="44.61135593230216" lon="8.911940297771723"><ele>639.0</ele><time>2026-04-25T12:45:23.999Z</time></trkpt><trkpt lat="44.611483399191734" lon="8.91190655795463"><ele>636.5</ele><time>2026-04-25T12:45:24.999Z</time></trkpt><trkpt lat="44.61159886169842" lon="8.911859896214256"><ele>634.0</ele><time>2026-04-25T12:45:25.999Z</time></trkpt><trkpt lat="44.611696284974606" lon="8.911815838577365"><ele>634.0</ele><time>2026-04-25T12:45:26.999Z</time></trkpt><trkpt lat="44.61177553256572" lon="8.91177801278943"><ele>634.0</ele><time>2026-04-25T12:45:27.999Z</time></trkpt><trkpt lat="44.61186176080907" lon="8.911702416045447"><ele>634.0</ele><time>2026-04-25T12:45:29.999Z</time></trkpt><trkpt lat="44.6118996561793" lon="8.911625298416247"><ele>634.0</ele><time>2026-04-25T12:45:30.999Z</time></trkpt><trkpt lat="44.611937903031645" lon="8.911537309378065"><ele>634.0</ele><time>2026-04-25T12:45:31.999Z</time></trkpt><trkpt lat="44.611973799705545" lon="8.911444432376635"><ele>634.0</ele><time>2026-04-25T12:45:32.999Z</time></trkpt><trkpt lat="44.612003678327085" lon="8.911345221912825"><ele>634.0</ele><time>2026-04-25T12:45:33.999Z</time></trkpt><trkpt lat="44.61202387786954" lon="8.911239387126141"><ele>634.0</ele><time>2026-04-25T12:45:34.999Z</time></trkpt><trkpt lat="44.6120396516779" lon="8.911141763462556"><ele>634.0</ele><time>2026-04-25T12:45:35.999Z</time></trkpt><trkpt lat="44.61205042358973" lon="8.911046762662664"><ele>634.0</ele><time>2026-04-25T12:45:36.999Z</time></trkpt><trkpt lat="44.61203595405272" lon="8.91089098122023"><ele>634.0</ele><time>2026-04-25T12:45:38.999Z</time></trkpt><trkpt lat="44.61200238022864" lon="8.910738973076572"><ele>634.0</ele><time>2026-04-25T12:45:40.999Z</time></trkpt><trkpt lat="44.61198549502302" lon="8.91058367576453"><ele>635.6</ele><time>2026-04-25T12:45:42.999Z</time></trkpt><trkpt lat="44.61201344004461" lon="8.910420002049424"><ele>637.2</ele><time>2026-04-25T12:45:44.999Z</time></trkpt><trkpt lat="44.612021791079826" lon="8.910248659446975"><ele>638.8000000000001</ele><time>2026-04-25T12:45:46.999Z</time></trkpt><trkpt lat="44.61203862380179" lon="8.91011909327897"><ele>640.4</ele><time>2026-04-25T12:45:48.999Z</time></trkpt><trkpt lat="44.612077536320584" lon="8.910038258400016"><ele>642.0</ele><time>2026-04-25T12:45:50.999Z</time></trkpt><trkpt lat="44.61216460428643" lon="8.909936062861041"><ele>643.8</ele><time>2026-04-25T12:45:52.999Z</time></trkpt><trkpt lat="44.612258775815576" lon="8.909875385341149"><ele>645.6</ele><time>2026-04-25T12:45:54.999Z</time></trkpt><trkpt lat="44.612325852157156" lon="8.909865582729712"><ele>647.4</ele><time>2026-04-25T12:45:57.999Z</time></trkpt><trkpt lat="44.61245345050151" lon="8.909887604787393"><ele>649.1999999999999</ele><time>2026-04-25T12:45:59.999Z</time></trkpt><trkpt lat="44.61252711574915" lon="8.909893227160696"><ele>651.0</ele><time>2026-04-25T12:46:00.999Z</time></trkpt><trkpt lat="44.61261185266944" lon="8.909919901216302"><ele>651.0</ele><time>2026-04-25T12:46:01.999Z</time></trkpt><trkpt lat="44.612705449553026" lon="8.909973434139093"><ele>651.0</ele><time>2026-04-25T12:46:02.999Z</time></trkpt><trkpt lat="44.61280017905127" lon="8.910050529671615"><ele>651.0</ele><time>2026-04-25T12:46:03.999Z</time></trkpt><trkpt lat="44.6128919125666" lon="8.910149924038237"><ele>651.0</ele><time>2026-04-25T12:46:04.999Z</time></trkpt><trkpt lat="44.61298008607951" lon="8.910246810622647"><ele>651.0</ele><time>2026-04-25T12:46:05.999Z</time></trkpt><trkpt lat="44.61306668835342" lon="8.910347690253868"><ele>650.0</ele><time>2026-04-25T12:46:06.999Z</time></trkpt><trkpt lat="44.61313904492233" lon="8.91045256290357"><ele>649.0</ele><time>2026-04-25T12:46:07.999Z</time></trkpt><trkpt lat="44.613212248509264" lon="8.910554725155404"><ele>648.0</ele><time>2026-04-25T12:46:08.999Z</time></trkpt><trkpt lat="44.61328430435541" lon="8.910642340881228"><ele>647.0</ele><time>2026-04-25T12:46:09.999Z</time></trkpt><trkpt lat="44.61336009614647" lon="8.910730933445132"><ele>646.0</ele><time>2026-04-25T12:46:10.999Z</time></trkpt><trkpt lat="44.61343941649257" lon="8.91081776287426"><ele>646.0</ele><time>2026-04-25T12:46:11.999Z</time></trkpt><trkpt lat="44.61351791481991" lon="8.910903168184015"><ele>646.0</ele><time>2026-04-25T12:46:12.999Z</time></trkpt><trkpt lat="44.61359646898069" lon="8.910993124046515"><ele>646.0</ele><time>2026-04-25T12:46:13.999Z</time></trkpt><trkpt lat="44.61367026783999" lon="8.911084494214064"><ele>646.0</ele><time>2026-04-25T12:46:15Z</time></trkpt><trkpt lat="44.61372834353311" lon="8.911169246445043"><ele>646.0</ele><time>2026-04-25T12:46:16Z</time></trkpt><trkpt lat="44.61378000058382" lon="8.911251381890034"><ele>645.3333333333334</ele><time>2026-04-25T12:46:17Z</time></trkpt><trkpt lat="44.61382522139319" lon="8.911324778239075"><ele>644.6666666666667</ele><time>2026-04-25T12:46:18Z</time></trkpt><trkpt lat="44.613900663375354" lon="8.911422186561081"><ele>644.0</ele><time>2026-04-25T12:46:20Z</time></trkpt><trkpt lat="44.61398151226625" lon="8.911492050013013"><ele>643.3333333333334</ele><time>2026-04-25T12:46:22Z</time></trkpt><trkpt lat="44.61407792422005" lon="8.911507325296682"><ele>642.6666666666666</ele><time>2026-04-25T12:46:24Z</time></trkpt><trkpt lat="44.6141348486435" lon="8.911448279878277"><ele>642.0</ele><time>2026-04-25T12:46:25Z</time></trkpt><trkpt lat="44.614197041684164" lon="8.911372091397118"><ele>642.0</ele><time>2026-04-25T12:46:26Z</time></trkpt><trkpt lat="44.614261073607175" lon="8.91130867349385"><ele>642.0</ele><time>2026-04-25T12:46:27Z</time></trkpt><trkpt lat="44.61433100144843" lon="8.911247990945968"><ele>642.0</ele><time>2026-04-25T12:46:28Z</time></trkpt><trkpt lat="44.61442501855144" lon="8.911235539987679"><ele>642.0</ele><time>2026-04-25T12:46:29Z</time></trkpt><trkpt lat="44.61452789068895" lon="8.911251205021825"><ele>642.0</ele><time>2026-04-25T12:46:30Z</time></trkpt><trkpt lat="44.61462121207634" lon="8.911232680392581"><ele>641.4</ele><time>2026-04-25T12:46:31Z</time></trkpt><trkpt lat="44.61471571275689" lon="8.911243751108556"><ele>640.8000000000001</ele><time>2026-04-25T12:46:32Z</time></trkpt><trkpt lat="44.61480809771921" lon="8.911270005024985"><ele>640.2</ele><time>2026-04-25T12:46:33Z</time></trkpt><trkpt lat="44.614904056643255" lon="8.91124866569268"><ele>639.6</ele><time>2026-04-25T12:46:34Z</time></trkpt><trkpt lat="44.61499721203324" lon="8.911256830444465"><ele>639.0</ele><time>2026-04-25T12:46:35Z</time></trkpt><trkpt lat="44.615080092551985" lon="8.911295604079754"><ele>639.0</ele><time>2026-04-25T12:46:36Z</time></trkpt><trkpt lat="44.61515635100987" lon="8.911358528679838"><ele>639.0</ele><time>2026-04-25T12:46:37Z</time></trkpt><trkpt lat="44.61522136821605" lon="8.911432953034767"><ele>639.0</ele><time>2026-04-25T12:46:38Z</time></trkpt><trkpt lat="44.61528540852113" lon="8.911514577950648"><ele>639.0</ele><time>2026-04-25T12:46:39Z</time></trkpt><trkpt lat="44.61535127891251" lon="8.911594426292988"><ele>639.0</ele><time>2026-04-25T12:46:40Z</time></trkpt><trkpt lat="44.61541447568646" lon="8.91165467591031"><ele>639.0</ele><time>2026-04-25T12:46:41Z</time></trkpt><trkpt lat="44.61548724535297" lon="8.911702756988989"><ele>639.3333333333334</ele><time>2026-04-25T12:46:42Z</time></trkpt><trkpt lat="44.615560693619045" lon="8.911743456210187"><ele>639.6666666666666</ele><time>2026-04-25T12:46:43Z</time></trkpt><trkpt lat="44.61563687605147" lon="8.911761114431725"><ele>640.0</ele><time>2026-04-25T12:46:44Z</time></trkpt><trkpt lat="44.615704333569475" lon="8.911757630008351"><ele>640.3333333333333</ele><time>2026-04-25T12:46:45Z</time></trkpt><trkpt lat="44.61577448133155" lon="8.911735733964667"><ele>640.6666666666666</ele><time>2026-04-25T12:46:46Z</time></trkpt><trkpt lat="44.61585081815085" lon="8.9117108468065"><ele>641.0</ele><time>2026-04-25T12:46:47Z</time></trkpt><trkpt lat="44.61591973818975" lon="8.91163222268343"><ele>641.0</ele><time>2026-04-25T12:46:48Z</time></trkpt><trkpt lat="44.61597424142366" lon="8.911556252850708"><ele>641.0</ele><time>2026-04-25T12:46:49Z</time></trkpt><trkpt lat="44.61603808349245" lon="8.91146776764345"><ele>641.0</ele><time>2026-04-25T12:46:51Z</time></trkpt><trkpt lat="44.61610418332792" lon="8.911552890098566"><ele>641.0</ele><time>2026-04-25T12:46:53Z</time></trkpt><trkpt lat="44.616108775451345" lon="8.91169151259355"><ele>641.0</ele><time>2026-04-25T12:46:55Z</time></trkpt><trkpt lat="44.61613199421494" lon="8.91182303510864"><ele>640.8</ele><time>2026-04-25T12:46:57Z</time></trkpt><trkpt lat="44.61620049745068" lon="8.91195167801692"><ele>640.5999999999999</ele><time>2026-04-25T12:46:58.999Z</time></trkpt><trkpt lat="44.616309537346744" lon="8.91201880924479"><ele>640.4</ele><time>2026-04-25T12:47:00.999Z</time></trkpt><trkpt lat="44.61642569791398" lon="8.912078166708259"><ele>640.2</ele><time>2026-04-25T12:47:02.999Z</time></trkpt><trkpt lat="44.616481621640894" lon="8.91214071381114"><ele>640.0</ele><time>2026-04-25T12:47:03.999Z</time></trkpt><trkpt lat="44.6165327676848" lon="8.912229075633626"><ele>640.0</ele><time>2026-04-25T12:47:04.999Z</time></trkpt><trkpt lat="44.61658723848568" lon="8.912322442803198"><ele>640.0</ele><time>2026-04-25T12:47:05.999Z</time></trkpt><trkpt lat="44.61663006168883" lon="8.912417573857468"><ele>640.0</ele><time>2026-04-25T12:47:06.999Z</time></trkpt><trkpt lat="44.61665529397739" lon="8.912532500458514"><ele>640.0</ele><time>2026-04-25T12:47:07.999Z</time></trkpt><trkpt lat="44.61666585586875" lon="8.912646659346157"><ele>640.0</ele><time>2026-04-25T12:47:08.999Z</time></trkpt><trkpt lat="44.6166728561522" lon="8.912755686507078"><ele>640.0</ele><time>2026-04-25T12:47:09.999Z</time></trkpt><trkpt lat="44.61668353040238" lon="8.912863151027848"><ele>637.8</ele><time>2026-04-25T12:47:10.999Z</time></trkpt><trkpt lat="44.61670178629298" lon="8.912979433988474"><ele>635.6</ele><time>2026-04-25T12:47:11.999Z</time></trkpt><trkpt lat="44.6167230568729" lon="8.913111112799436"><ele>633.4</ele><time>2026-04-25T12:47:12.999Z</time></trkpt><trkpt lat="44.61674595893098" lon="8.91324565202934"><ele>631.2</ele><time>2026-04-25T12:47:13.999Z</time></trkpt><trkpt lat="44.61678501085505" lon="8.913375478946366"><ele>629.0</ele><time>2026-04-25T12:47:14.999Z</time></trkpt><trkpt lat="44.61684540663574" lon="8.913504643108542"><ele>626.8</ele><time>2026-04-25T12:47:15.999Z</time></trkpt><trkpt lat="44.61691638135274" lon="8.913621323406117"><ele>624.5999999999999</ele><time>2026-04-25T12:47:16.999Z</time></trkpt><trkpt lat="44.616975138462976" lon="8.91373866104895"><ele>622.4</ele><time>2026-04-25T12:47:17.999Z</time></trkpt><trkpt lat="44.61701297221915" lon="8.913868132378376"><ele>620.1999999999999</ele><time>2026-04-25T12:47:18.999Z</time></trkpt><trkpt lat="44.61702987362897" lon="8.91400379352165"><ele>618.0</ele><time>2026-04-25T12:47:19.999Z</time></trkpt><trkpt lat="44.617026582793805" lon="8.914149853540007"><ele>616.0</ele><time>2026-04-25T12:47:20.999Z</time></trkpt><trkpt lat="44.617005225747775" lon="8.914301757839722"><ele>614.0</ele><time>2026-04-25T12:47:21.999Z</time></trkpt><trkpt lat="44.61699090542119" lon="8.9144624890602"><ele>612.0</ele><time>2026-04-25T12:47:22.999Z</time></trkpt><trkpt lat="44.616985112260174" lon="8.914613349446315"><ele>610.0</ele><time>2026-04-25T12:47:23.999Z</time></trkpt><trkpt lat="44.616986358738345" lon="8.914753610865132"><ele>608.0</ele><time>2026-04-25T12:47:24.999Z</time></trkpt><trkpt lat="44.61698952760046" lon="8.914870516987179"><ele>615.0</ele><time>2026-04-25T12:47:25.999Z</time></trkpt><trkpt lat="44.61701289140498" lon="8.91498030120873"><ele>622.0</ele><time>2026-04-25T12:47:27Z</time></trkpt><trkpt lat="44.61705425531963" lon="8.91509670242442"><ele>629.0</ele><time>2026-04-25T12:47:28Z</time></trkpt><trkpt lat="44.61710707985128" lon="8.915218317718159"><ele>636.0</ele><time>2026-04-25T12:47:29Z</time></trkpt><trkpt lat="44.617144222919755" lon="8.915335429166465"><ele>643.0</ele><time>2026-04-25T12:47:30Z</time></trkpt><trkpt lat="44.61717099645501" lon="8.915463992606211"><ele>643.0</ele><time>2026-04-25T12:47:31Z</time></trkpt><trkpt lat="44.61718213078889" lon="8.91560571423344"><ele>643.0</ele><time>2026-04-25T12:47:32Z</time></trkpt><trkpt lat="44.61717803076256" lon="8.915747379310607"><ele>643.0</ele><time>2026-04-25T12:47:33Z</time></trkpt><trkpt lat="44.61715491557088" lon="8.915877459011877"><ele>643.0</ele><time>2026-04-25T12:47:34Z</time></trkpt><trkpt lat="44.61710279775991" lon="8.91597636500695"><ele>643.0</ele><time>2026-04-25T12:47:35Z</time></trkpt><trkpt lat="44.61702238079292" lon="8.916039119435567"><ele>637.8</ele><time>2026-04-25T12:47:36Z</time></trkpt><trkpt lat="44.61694577769295" lon="8.916136005213591"><ele>632.5999999999999</ele><time>2026-04-25T12:47:37Z</time></trkpt><trkpt lat="44.616861718627554" lon="8.91622994320676"><ele>627.4000000000001</ele><time>2026-04-25T12:47:38Z</time></trkpt><trkpt lat="44.616796420352976" lon="8.916325431054354"><ele>622.2</ele><time>2026-04-25T12:47:39Z</time></trkpt><trkpt lat="44.6167341672267" lon="8.916427229251207"><ele>617.0</ele><time>2026-04-25T12:47:40Z</time></trkpt><trkpt lat="44.61667033743127" lon="8.91653571991127"><ele>617.0</ele><time>2026-04-25T12:47:41Z</time></trkpt><trkpt lat="44.61661317987219" lon="8.916655744668633"><ele>617.0</ele><time>2026-04-25T12:47:42Z</time></trkpt><trkpt lat="44.61656171765836" lon="8.916782512455914"><ele>617.0</ele><time>2026-04-25T12:47:43Z</time></trkpt><trkpt lat="44.61652392425831" lon="8.916900394803546"><ele>617.0</ele><time>2026-04-25T12:47:44Z</time></trkpt><trkpt lat="44.616504007674386" lon="8.917009834120885"><ele>617.0</ele><time>2026-04-25T12:47:45Z</time></trkpt><trkpt lat="44.616502195897596" lon="8.917132052697816"><ele>618.8000000000001</ele><time>2026-04-25T12:47:46Z</time></trkpt><trkpt lat="44.61651424601769" lon="8.917266376791074"><ele>620.6</ele><time>2026-04-25T12:47:47Z</time></trkpt><trkpt lat="44.61651685215224" lon="8.917400627336335"><ele>622.4000000000001</ele><time>2026-04-25T12:47:48Z</time></trkpt><trkpt lat="44.61649630513978" lon="8.91753274484904"><ele>624.2</ele><time>2026-04-25T12:47:49Z</time></trkpt><trkpt lat="44.61645461766887" lon="8.917663955596444"><ele>626.0</ele><time>2026-04-25T12:47:50Z</time></trkpt><trkpt lat="44.616394605725944" lon="8.917779965005975"><ele>626.6</ele><time>2026-04-25T12:47:51Z</time></trkpt><trkpt lat="44.6163521120036" lon="8.917891003345039"><ele>627.2</ele><time>2026-04-25T12:47:52Z</time></trkpt><trkpt lat="44.61632757258874" lon="8.9180143083974"><ele>627.8</ele><time>2026-04-25T12:47:53Z</time></trkpt><trkpt lat="44.61631898837059" lon="8.918158772455275"><ele>628.4</ele><time>2026-04-25T12:47:54Z</time></trkpt><trkpt lat="44.61631771128465" lon="8.91831320095663"><ele>629.0</ele><time>2026-04-25T12:47:55Z</time></trkpt><trkpt lat="44.61631439189315" lon="8.918452709808218"><ele>627.4</ele><time>2026-04-25T12:47:56Z</time></trkpt><trkpt lat="44.61631242477553" lon="8.918575204350645"><ele>625.8</ele><time>2026-04-25T12:47:57Z</time></trkpt><trkpt lat="44.616314274304465" lon="8.918670350005517"><ele>624.2</ele><time>2026-04-25T12:47:58Z</time></trkpt><trkpt lat="44.6163192012881" lon="8.918831612386763"><ele>622.6</ele><time>2026-04-25T12:48:00Z</time></trkpt><trkpt lat="44.61638883833038" lon="8.918949692734184"><ele>621.0</ele><time>2026-04-25T12:48:02Z</time></trkpt><trkpt lat="44.616501662872665" lon="8.919063439779084"><ele>620.9999999999999</ele><time>2026-04-25T12:48:04Z</time></trkpt><trkpt lat="44.61656439773345" lon="8.919145960304832"><ele>621.0</ele><time>2026-04-25T12:48:05Z</time></trkpt><trkpt lat="44.61662171537647" lon="8.91923906400822"><ele>621.0</ele><time>2026-04-25T12:48:06Z</time></trkpt><trkpt lat="44.61666872022655" lon="8.91931847794456"><ele>621.0</ele><time>2026-04-25T12:48:07Z</time></trkpt><trkpt lat="44.616724234412516" lon="8.91936215100008"><ele>621.0</ele><time>2026-04-25T12:48:08Z</time></trkpt><trkpt lat="44.61678733253928" lon="8.919392141057314"><ele>620.9999999999999</ele><time>2026-04-25T12:48:09Z</time></trkpt><trkpt lat="44.616856009659514" lon="8.919418142362796"><ele>621.0</ele><time>2026-04-25T12:48:10Z</time></trkpt><trkpt lat="44.61692773592401" lon="8.919479719797842"><ele>623.8</ele><time>2026-04-25T12:48:11Z</time></trkpt><trkpt lat="44.616980825782115" lon="8.919569956198865"><ele>626.6</ele><time>2026-04-25T12:48:12Z</time></trkpt><trkpt lat="44.61703910130624" lon="8.91967394735837"><ele>629.4</ele><time>2026-04-25T12:48:13Z</time></trkpt><trkpt lat="44.61708594995299" lon="8.919795482505604"><ele>632.2</ele><time>2026-04-25T12:48:14Z</time></trkpt><trkpt lat="44.617126004197964" lon="8.919917771647235"><ele>635.0</ele><time>2026-04-25T12:48:15Z</time></trkpt><trkpt lat="44.617164393698935" lon="8.920035666988912"><ele>633.6666666666666</ele><time>2026-04-25T12:48:16Z</time></trkpt><trkpt lat="44.617202812790715" lon="8.92014854901459"><ele>632.3333333333333</ele><time>2026-04-25T12:48:17Z</time></trkpt><trkpt lat="44.61723716542962" lon="8.920262107100106"><ele>631.0</ele><time>2026-04-25T12:48:18Z</time></trkpt><trkpt lat="44.617267757811085" lon="8.92037405624821"><ele>629.6666666666666</ele><time>2026-04-25T12:48:19Z</time></trkpt><trkpt lat="44.61729725558421" lon="8.920484611220221"><ele>628.3333333333334</ele><time>2026-04-25T12:48:20Z</time></trkpt><trkpt lat="44.617323414465496" lon="8.920587467011085"><ele>627.0</ele><time>2026-04-25T12:48:21Z</time></trkpt><trkpt lat="44.61733797056223" lon="8.920694279128966"><ele>627.0</ele><time>2026-04-25T12:48:22Z</time></trkpt><trkpt lat="44.61734005181981" lon="8.920799241557193"><ele>627.0</ele><time>2026-04-25T12:48:23Z</time></trkpt><trkpt lat="44.617336381372006" lon="8.9209072274459"><ele>627.0</ele><time>2026-04-25T12:48:24Z</time></trkpt><trkpt lat="44.61732403916428" lon="8.921023435224926"><ele>627.0</ele><time>2026-04-25T12:48:25Z</time></trkpt><trkpt lat="44.617291254174425" lon="8.921148943577558"><ele>627.0</ele><time>2026-04-25T12:48:26Z</time></trkpt><trkpt lat="44.61724951916962" lon="8.921278203559703"><ele>627.0</ele><time>2026-04-25T12:48:27Z</time></trkpt><trkpt lat="44.61720404528922" lon="8.921423093509581"><ele>629.75</ele><time>2026-04-25T12:48:28Z</time></trkpt><trkpt lat="44.61716159334981" lon="8.921568429742015"><ele>632.5</ele><time>2026-04-25T12:48:29Z</time></trkpt><trkpt lat="44.61711006884441" lon="8.921697785819035"><ele>635.25</ele><time>2026-04-25T12:48:30Z</time></trkpt><trkpt lat="44.61704654830101" lon="8.92183398355837"><ele>638.0</ele><time>2026-04-25T12:48:31Z</time></trkpt><trkpt lat="44.61698533970649" lon="8.921979037732347"><ele>631.25</ele><time>2026-04-25T12:48:32Z</time></trkpt><trkpt lat="44.616913133858404" lon="8.922111320276148"><ele>624.5</ele><time>2026-04-25T12:48:33Z</time></trkpt><trkpt lat="44.61683714347675" lon="8.922240696911363"><ele>617.75</ele><time>2026-04-25T12:48:34Z</time></trkpt><trkpt lat="44.61675332015909" lon="8.922353526224937"><ele>611.0</ele><time>2026-04-25T12:48:35Z</time></trkpt><trkpt lat="44.61668299391808" lon="8.92244868769131"><ele>611.0</ele><time>2026-04-25T12:48:36Z</time></trkpt><trkpt lat="44.61663064124205" lon="8.922530620640998"><ele>611.0</ele><time>2026-04-25T12:48:37Z</time></trkpt><trkpt lat="44.61660609263735" lon="8.922694065318627"><ele>611.0</ele><time>2026-04-25T12:48:39Z</time></trkpt><trkpt lat="44.61663650651147" lon="8.922783522060302"><ele>611.0</ele><time>2026-04-25T12:48:40Z</time></trkpt><trkpt lat="44.61669788961388" lon="8.922874612092402"><ele>611.0</ele><time>2026-04-25T12:48:41Z</time></trkpt><trkpt lat="44.61677546210725" lon="8.922977512464389"><ele>609.0</ele><time>2026-04-25T12:48:42Z</time></trkpt><trkpt lat="44.616849730913096" lon="8.923091288663494"><ele>607.0</ele><time>2026-04-25T12:48:43Z</time></trkpt><trkpt lat="44.61690005231451" lon="8.923205630941816"><ele>605.0</ele><time>2026-04-25T12:48:44Z</time></trkpt><trkpt lat="44.61691872776552" lon="8.923338931592335"><ele>603.0</ele><time>2026-04-25T12:48:45Z</time></trkpt><trkpt lat="44.6169542731109" lon="8.923465400087274"><ele>601.0</ele><time>2026-04-25T12:48:46Z</time></trkpt><trkpt lat="44.616984243183175" lon="8.923586122401717"><ele>597.0</ele><time>2026-04-25T12:48:47Z</time></trkpt><trkpt lat="44.61705591309562" lon="8.92372141359706"><ele>593.0</ele><time>2026-04-25T12:48:49Z</time></trkpt><trkpt lat="44.617154385171375" lon="8.923813344564714"><ele>589.0</ele><time>2026-04-25T12:48:51Z</time></trkpt><trkpt lat="44.61725965733475" lon="8.923828845232954"><ele>585.0</ele><time>2026-04-25T12:48:53Z</time></trkpt><trkpt lat="44.61739878129726" lon="8.9238115875654"><ele>585.0</ele><time>2026-04-25T12:48:55Z</time></trkpt><trkpt lat="44.617509744874354" lon="8.923800210053528"><ele>585.0</ele><time>2026-04-25T12:48:56Z</time></trkpt><trkpt lat="44.61762085187406" lon="8.923826768050196"><ele>585.0</ele><time>2026-04-25T12:48:57Z</time></trkpt><trkpt lat="44.61772455271777" lon="8.923844348806895"><ele>585.0</ele><time>2026-04-25T12:48:58Z</time></trkpt><trkpt lat="44.61781820107491" lon="8.923890711980654"><ele>585.0</ele><time>2026-04-25T12:48:59Z</time></trkpt><trkpt lat="44.61792177130129" lon="8.923982471843395"><ele>588.0</ele><time>2026-04-25T12:49:00Z</time></trkpt><trkpt lat="44.618029580664405" lon="8.924067774101086"><ele>591.0</ele><time>2026-04-25T12:49:01Z</time></trkpt><trkpt lat="44.61812728244017" lon="8.924149721327252"><ele>594.0</ele><time>2026-04-25T12:49:02Z</time></trkpt><trkpt lat="44.61820989935359" lon="8.92421074607791"><ele>597.0</ele><time>2026-04-25T12:49:03Z</time></trkpt><trkpt lat="44.61827849039477" lon="8.924255227009137"><ele>600.0</ele><time>2026-04-25T12:49:04Z</time></trkpt><trkpt lat="44.61831904624444" lon="8.924361812510579"><ele>600.0</ele><time>2026-04-25T12:49:06Z</time></trkpt><trkpt lat="44.61825290464202" lon="8.924487384908712"><ele>600.0</ele><time>2026-04-25T12:49:08Z</time></trkpt><trkpt lat="44.61820491032923" lon="8.924559317241943"><ele>600.0</ele><time>2026-04-25T12:49:18Z</time></trkpt><trkpt lat="44.618120678015686" lon="8.92464952618463"><ele>600.0</ele><time>2026-04-25T12:49:20Z</time></trkpt><trkpt lat="44.61805605471962" lon="8.924703971992514"><ele>600.0</ele><time>2026-04-25T12:49:21Z</time></trkpt><trkpt lat="44.61803206035659" lon="8.92485935483823"><ele>600.0</ele><time>2026-04-25T12:49:23Z</time></trkpt><trkpt lat="44.61805835463202" lon="8.924950927970798"><ele>600.0</ele><time>2026-04-25T12:49:24Z</time></trkpt><trkpt lat="44.61810123513206" lon="8.925058498716202"><ele>600.0</ele><time>2026-04-25T12:49:25Z</time></trkpt><trkpt lat="44.618149374427304" lon="8.925169485435926"><ele>600.0</ele><time>2026-04-25T12:49:26Z</time></trkpt><trkpt lat="44.618202167282874" lon="8.925294147786634"><ele>600.0</ele><time>2026-04-25T12:49:27Z</time></trkpt><trkpt lat="44.618256595745926" lon="8.925416677568544"><ele>599.0</ele><time>2026-04-25T12:49:28Z</time></trkpt><trkpt lat="44.61831187271098" lon="8.925523128317447"><ele>598.0</ele><time>2026-04-25T12:49:29Z</time></trkpt><trkpt lat="44.61836173459151" lon="8.925616460001462"><ele>597.0</ele><time>2026-04-25T12:49:30Z</time></trkpt><trkpt lat="44.61838531055037" lon="8.9257378352822"><ele>596.0</ele><time>2026-04-25T12:49:31Z</time></trkpt><trkpt lat="44.618386270675686" lon="8.925859042961505"><ele>595.0</ele><time>2026-04-25T12:49:32Z</time></trkpt><trkpt lat="44.61836460161632" lon="8.92595587251736"><ele>594.0</ele><time>2026-04-25T12:49:33Z</time></trkpt><trkpt lat="44.618313750447186" lon="8.926022124232786"><ele>596.6</ele><time>2026-04-25T12:49:34Z</time></trkpt><trkpt lat="44.618241880391764" lon="8.926075227292847"><ele>599.2</ele><time>2026-04-25T12:49:35Z</time></trkpt><trkpt lat="44.618137858866305" lon="8.926065903475184"><ele>601.8000000000001</ele><time>2026-04-25T12:49:36Z</time></trkpt><trkpt lat="44.61805737689116" lon="8.926101585189713"><ele>604.4</ele><time>2026-04-25T12:49:37Z</time></trkpt><trkpt lat="44.61799256020132" lon="8.92612767503461"><ele>607.0</ele><time>2026-04-25T12:49:38Z</time></trkpt><trkpt lat="44.61792495164737" lon="8.926268548535171"><ele>607.0</ele><time>2026-04-25T12:49:40Z</time></trkpt><trkpt lat="44.6179230221512" lon="8.926365206608457"><ele>607.0</ele><time>2026-04-25T12:49:41Z</time></trkpt><trkpt lat="44.61792524684827" lon="8.926485857158363"><ele>607.0</ele><time>2026-04-25T12:49:42Z</time></trkpt><trkpt lat="44.617905589188894" lon="8.926626122983874"><ele>607.0</ele><time>2026-04-25T12:49:43Z</time></trkpt><trkpt lat="44.61788034478907" lon="8.926744081331044"><ele>607.0</ele><time>2026-04-25T12:49:44Z</time></trkpt><trkpt lat="44.617870650657274" lon="8.926850456042017"><ele>607.0</ele><time>2026-04-25T12:49:45Z</time></trkpt><trkpt lat="44.61787776998642" lon="8.926973270561946"><ele>607.6666666666667</ele><time>2026-04-25T12:49:46Z</time></trkpt><trkpt lat="44.61789573123937" lon="8.927109901909175"><ele>608.3333333333334</ele><time>2026-04-25T12:49:47Z</time></trkpt><trkpt lat="44.617893336719305" lon="8.927239504102408"><ele>609.0</ele><time>2026-04-25T12:49:48Z</time></trkpt><trkpt lat="44.61786610643403" lon="8.927358102086158"><ele>609.6666666666666</ele><time>2026-04-25T12:49:49Z</time></trkpt><trkpt lat="44.61783337127858" lon="8.927451079972528"><ele>610.3333333333333</ele><time>2026-04-25T12:49:50Z</time></trkpt><trkpt lat="44.61778630897317" lon="8.927532627706105"><ele>611.0</ele><time>2026-04-25T12:49:51Z</time></trkpt><trkpt lat="44.61770887195211" lon="8.927572518815863"><ele>606.5714285714287</ele><time>2026-04-25T12:49:52Z</time></trkpt><trkpt lat="44.61764300418818" lon="8.927632853101906"><ele>602.1428571428571</ele><time>2026-04-25T12:49:53Z</time></trkpt><trkpt lat="44.6175852645896" lon="8.927676107803187"><ele>597.7142857142858</ele><time>2026-04-25T12:49:54Z</time></trkpt><trkpt lat="44.617557238019465" lon="8.927761585895315"><ele>593.2857142857143</ele><time>2026-04-25T12:49:55Z</time></trkpt><trkpt lat="44.61755773368708" lon="8.927858512166173"><ele>588.8571428571429</ele><time>2026-04-25T12:49:56Z</time></trkpt><trkpt lat="44.6175562268737" lon="8.927958850847961"><ele>584.4285714285714</ele><time>2026-04-25T12:49:57Z</time></trkpt><trkpt lat="44.61751786923726" lon="8.928037322989876"><ele>580.0</ele><time>2026-04-25T12:49:58Z</time></trkpt><trkpt lat="44.61744096653056" lon="8.928074855473861"><ele>580.0</ele><time>2026-04-25T12:49:59Z</time></trkpt><trkpt lat="44.61735060217461" lon="8.92805691537272"><ele>580.0</ele><time>2026-04-25T12:50:00Z</time></trkpt><trkpt lat="44.617248808949796" lon="8.9280740104907"><ele>580.0</ele><time>2026-04-25T12:50:01Z</time></trkpt><trkpt lat="44.61712375252765" lon="8.92806556280481"><ele>580.0</ele><time>2026-04-25T12:50:02Z</time></trkpt><trkpt lat="44.61704358180399" lon="8.928070665825715"><ele>580.0</ele><time>2026-04-25T12:50:03Z</time></trkpt><trkpt lat="44.6169819548895" lon="8.92810285677747"><ele>575.2</ele><time>2026-04-25T12:50:04Z</time></trkpt><trkpt lat="44.616919807744694" lon="8.928169475583319"><ele>570.4</ele><time>2026-04-25T12:50:05Z</time></trkpt><trkpt lat="44.616843653763794" lon="8.92825911128424"><ele>565.6</ele><time>2026-04-25T12:50:06Z</time></trkpt><trkpt lat="44.61675880272954" lon="8.928343568418738"><ele>560.8</ele><time>2026-04-25T12:50:07Z</time></trkpt><trkpt lat="44.616670352708994" lon="8.928477120974902"><ele>556.0</ele><time>2026-04-25T12:50:09Z</time></trkpt><trkpt lat="44.616652451641755" lon="8.928568294070192"><ele>556.0</ele><time>2026-04-25T12:50:10Z</time></trkpt><trkpt lat="44.616671173826916" lon="8.928748057834099"><ele>556.0</ele><time>2026-04-25T12:50:12Z</time></trkpt><trkpt lat="44.61670697043404" lon="8.928849455116932"><ele>556.0</ele><time>2026-04-25T12:50:13Z</time></trkpt><trkpt lat="44.61671529055531" lon="8.9289479435471"><ele>556.0</ele><time>2026-04-25T12:50:14Z</time></trkpt><trkpt lat="44.61668634850772" lon="8.929044374650713"><ele>556.0</ele><time>2026-04-25T12:50:15Z</time></trkpt><trkpt lat="44.61662980661661" lon="8.929119959106112"><ele>556.0</ele><time>2026-04-25T12:50:16Z</time></trkpt><trkpt lat="44.61655472906736" lon="8.929164642522005"><ele>556.0</ele><time>2026-04-25T12:50:17Z</time></trkpt><trkpt lat="44.616460171118334" lon="8.929140926671366"><ele>556.0</ele><time>2026-04-25T12:50:18Z</time></trkpt><trkpt lat="44.616373054705704" lon="8.92917479690929"><ele>556.0</ele><time>2026-04-25T12:50:19Z</time></trkpt><trkpt lat="44.61628929891479" lon="8.929253975346668"><ele>556.0</ele><time>2026-04-25T12:50:20Z</time></trkpt><trkpt lat="44.61618522079763" lon="8.929310227573168"><ele>556.0</ele><time>2026-04-25T12:50:21Z</time></trkpt><trkpt lat="44.61609140253359" lon="8.929355180772978"><ele>554.2</ele><time>2026-04-25T12:50:22Z</time></trkpt><trkpt lat="44.61600590186526" lon="8.929381359370147"><ele>552.4000000000001</ele><time>2026-04-25T12:50:23Z</time></trkpt><trkpt lat="44.61592336750596" lon="8.929456342691555"><ele>550.6</ele><time>2026-04-25T12:50:24Z</time></trkpt><trkpt lat="44.61583440888927" lon="8.929565112027616"><ele>548.8000000000001</ele><time>2026-04-25T12:50:25Z</time></trkpt><trkpt lat="44.61575585115642" lon="8.929675610660137"><ele>547.0</ele><time>2026-04-25T12:50:26Z</time></trkpt><trkpt lat="44.61567978566959" lon="8.929783862593583"><ele>547.0</ele><time>2026-04-25T12:50:27Z</time></trkpt><trkpt lat="44.61561275415608" lon="8.929921922055332"><ele>547.0</ele><time>2026-04-25T12:50:28Z</time></trkpt><trkpt lat="44.615541547992486" lon="8.930070548624618"><ele>547.0</ele><time>2026-04-25T12:50:29Z</time></trkpt><trkpt lat="44.615470674843074" lon="8.930211885142224"><ele>547.0</ele><time>2026-04-25T12:50:30Z</time></trkpt><trkpt lat="44.61540365931008" lon="8.930332013932826"><ele>548.6</ele><time>2026-04-25T12:50:31Z</time></trkpt><trkpt lat="44.61534566241296" lon="8.930435291349118"><ele>550.2</ele><time>2026-04-25T12:50:32Z</time></trkpt><trkpt lat="44.61531481299454" lon="8.930521233286832"><ele>551.8</ele><time>2026-04-25T12:50:33Z</time></trkpt><trkpt lat="44.615312780116994" lon="8.93062712811855"><ele>553.4</ele><time>2026-04-25T12:50:34Z</time></trkpt><trkpt lat="44.615334268445615" lon="8.93077784792218"><ele>555.0</ele><time>2026-04-25T12:50:35Z</time></trkpt><trkpt lat="44.6153754277038" lon="8.930970393963259"><ele>555.0</ele><time>2026-04-25T12:50:36Z</time></trkpt><trkpt lat="44.61540961366754" lon="8.93117858387293"><ele>555.0</ele><time>2026-04-25T12:50:37Z</time></trkpt><trkpt lat="44.615423383470414" lon="8.931362476055368"><ele>555.0</ele><time>2026-04-25T12:50:38Z</time></trkpt><trkpt lat="44.61541587708721" lon="8.931529650492791"><ele>555.0</ele><time>2026-04-25T12:50:39Z</time></trkpt><trkpt lat="44.615360010120014" lon="8.931690763086646"><ele>553.6</ele><time>2026-04-25T12:50:40Z</time></trkpt><trkpt lat="44.61534448668224" lon="8.93185943793191"><ele>552.2</ele><time>2026-04-25T12:50:41Z</time></trkpt><trkpt lat="44.61532423350725" lon="8.93198149651339"><ele>550.8</ele><time>2026-04-25T12:50:42Z</time></trkpt><trkpt lat="44.61529685806785" lon="8.932109665634146"><ele>549.4</ele><time>2026-04-25T12:50:44Z</time></trkpt><trkpt lat="44.61521810951464" lon="8.932085032361298"><ele>548.0</ele><time>2026-04-25T12:50:46Z</time></trkpt><trkpt lat="44.6152406657961" lon="8.931943783695187"><ele>541.0</ele><time>2026-04-25T12:50:48Z</time></trkpt><trkpt lat="44.61525531663187" lon="8.93174357677401"><ele>534.0</ele><time>2026-04-25T12:50:50Z</time></trkpt><trkpt lat="44.61525320097521" lon="8.931591119473932"><ele>527.0</ele><time>2026-04-25T12:50:51Z</time></trkpt><trkpt lat="44.61521654407222" lon="8.931443384898358"><ele>520.0</ele><time>2026-04-25T12:50:52Z</time></trkpt><trkpt lat="44.61519446142732" lon="8.93134387584555"><ele>513.0</ele><time>2026-04-25T12:50:53Z</time></trkpt><trkpt lat="44.61512580253066" lon="8.931262363265787"><ele>513.0</ele><time>2026-04-25T12:50:54Z</time></trkpt><trkpt lat="44.61505141010317" lon="8.931099925680765"><ele>513.0</ele><time>2026-04-25T12:50:55Z</time></trkpt><trkpt lat="44.615004402605976" lon="8.930966646360638"><ele>513.0</ele><time>2026-04-25T12:50:56Z</time></trkpt><trkpt lat="44.61494879968808" lon="8.930833976725177"><ele>513.0</ele><time>2026-04-25T12:50:57Z</time></trkpt><trkpt lat="44.614865944403434" lon="8.930738740118507"><ele>514.1428571428572</ele><time>2026-04-25T12:50:58Z</time></trkpt><trkpt lat="44.61480903970637" lon="8.930646792615345"><ele>515.2857142857143</ele><time>2026-04-25T12:50:59Z</time></trkpt><trkpt lat="44.61477358806772" lon="8.93056874775824"><ele>516.4285714285714</ele><time>2026-04-25T12:51:00Z</time></trkpt><trkpt lat="44.61476759379387" lon="8.930472190254124"><ele>517.5714285714287</ele><time>2026-04-25T12:51:01Z</time></trkpt><trkpt lat="44.61476467788452" lon="8.930356384712113"><ele>518.7142857142858</ele><time>2026-04-25T12:51:02Z</time></trkpt><trkpt lat="44.61477203402171" lon="8.93025997911264"><ele>519.8571428571429</ele><time>2026-04-25T12:51:03Z</time></trkpt><trkpt lat="44.61478223494929" lon="8.930160856256041"><ele>521.0</ele><time>2026-04-25T12:51:04Z</time></trkpt><trkpt lat="44.61482905411172" lon="8.930086626310839"><ele>519.5</ele><time>2026-04-25T12:51:05Z</time></trkpt><trkpt lat="44.61488538629394" lon="8.930013402818483"><ele>518.0</ele><time>2026-04-25T12:51:06Z</time></trkpt><trkpt lat="44.61495011711753" lon="8.92998564157621"><ele>516.5</ele><time>2026-04-25T12:51:07Z</time></trkpt><trkpt lat="44.615038461652105" lon="8.929947571545302"><ele>515.0</ele><time>2026-04-25T12:51:08Z</time></trkpt><trkpt lat="44.61512497989123" lon="8.92988432297741"><ele>513.5</ele><time>2026-04-25T12:51:09Z</time></trkpt><trkpt lat="44.615206102730376" lon="8.929830422987495"><ele>512.0</ele><time>2026-04-25T12:51:10Z</time></trkpt><trkpt lat="44.615263520267874" lon="8.929777732158623"><ele>511.99999999999994</ele><time>2026-04-25T12:51:11Z</time></trkpt><trkpt lat="44.61528786116107" lon="8.929672326398055"><ele>512.0</ele><time>2026-04-25T12:51:12Z</time></trkpt><trkpt lat="44.615301514119984" lon="8.929572627537665"><ele>512.0</ele><time>2026-04-25T12:51:13Z</time></trkpt><trkpt lat="44.615334483106196" lon="8.929472245795592"><ele>512.0</ele><time>2026-04-25T12:51:14Z</time></trkpt><trkpt lat="44.61538612649336" lon="8.92939455543832"><ele>511.99999999999994</ele><time>2026-04-25T12:51:15Z</time></trkpt><trkpt lat="44.61542549694497" lon="8.929317835422419"><ele>512.0</ele><time>2026-04-25T12:51:16Z</time></trkpt><trkpt lat="44.61545015746564" lon="8.929208390518763"><ele>511.99999999999994</ele><time>2026-04-25T12:51:18Z</time></trkpt><trkpt lat="44.615401776687605" lon="8.929130108698434"><ele>512.0</ele><time>2026-04-25T12:51:19Z</time></trkpt><trkpt lat="44.615337136222934" lon="8.92914090531947"><ele>512.0</ele><time>2026-04-25T12:51:20Z</time></trkpt><trkpt lat="44.615304557903976" lon="8.929218121246294"><ele>512.0</ele><time>2026-04-25T12:51:21Z</time></trkpt><trkpt lat="44.615249497243326" lon="8.929381251044665"><ele>511.99999999999994</ele><time>2026-04-25T12:51:23Z</time></trkpt><trkpt lat="44.61520855476177" lon="8.929473762134345"><ele>512.0</ele><time>2026-04-25T12:51:24Z</time></trkpt><trkpt lat="44.615174894971666" lon="8.929553316211965"><ele>512.0</ele><time>2026-04-25T12:51:25Z</time></trkpt><trkpt lat="44.61513160655747" lon="8.92962547698334"><ele>512.0</ele><time>2026-04-25T12:51:26Z</time></trkpt><trkpt lat="44.61506502831601" lon="8.929690433184723"><ele>512.0</ele><time>2026-04-25T12:51:27Z</time></trkpt><trkpt lat="44.61496859439738" lon="8.929693292250207"><ele>512.0</ele><time>2026-04-25T12:51:28Z</time></trkpt><trkpt lat="44.614862430702175" lon="8.929726362495519"><ele>512.0</ele><time>2026-04-25T12:51:29Z</time></trkpt><trkpt lat="44.614754620125794" lon="8.929759395368322"><ele>512.0</ele><time>2026-04-25T12:51:30Z</time></trkpt><trkpt lat="44.614665892373715" lon="8.92980192399845"><ele>512.0</ele><time>2026-04-25T12:51:31Z</time></trkpt><trkpt lat="44.614576663810375" lon="8.929894668847274"><ele>512.0</ele><time>2026-04-25T12:51:32Z</time></trkpt><trkpt lat="44.61448267132388" lon="8.929984645612555"><ele>512.0</ele><time>2026-04-25T12:51:33Z</time></trkpt><trkpt lat="44.614381223762855" lon="8.930021156047685"><ele>512.0</ele><time>2026-04-25T12:51:34Z</time></trkpt><trkpt lat="44.6142809479984" lon="8.9300507885196"><ele>506.3333333333333</ele><time>2026-04-25T12:51:35Z</time></trkpt><trkpt lat="44.614208782062335" lon="8.930099689220627"><ele>500.66666666666663</ele><time>2026-04-25T12:51:36Z</time></trkpt><trkpt lat="44.61412975235454" lon="8.930200187494302"><ele>495.0</ele><time>2026-04-25T12:51:38Z</time></trkpt><trkpt lat="44.61411189784799" lon="8.930287102792532"><ele>489.33333333333337</ele><time>2026-04-25T12:51:39Z</time></trkpt><trkpt lat="44.61409884320616" lon="8.930374806350681"><ele>483.6666666666667</ele><time>2026-04-25T12:51:40Z</time></trkpt><trkpt lat="44.614126544943566" lon="8.930489487688225"><ele>478.0</ele><time>2026-04-25T12:51:41Z</time></trkpt><trkpt lat="44.61415600488605" lon="8.930633018652617"><ele>478.0</ele><time>2026-04-25T12:51:42Z</time></trkpt><trkpt lat="44.614168506266694" lon="8.930793702053712"><ele>477.99999999999994</ele><time>2026-04-25T12:51:43Z</time></trkpt><trkpt lat="44.61415958445131" lon="8.930963403874667"><ele>477.99999999999994</ele><time>2026-04-25T12:51:44Z</time></trkpt><trkpt lat="44.614140947247485" lon="8.931110980632074"><ele>478.0</ele><time>2026-04-25T12:51:45Z</time></trkpt><trkpt lat="44.61410712519593" lon="8.931239329813979"><ele>478.0</ele><time>2026-04-25T12:51:46Z</time></trkpt><trkpt lat="44.61407941997717" lon="8.931359567302039"><ele>476.33333333333337</ele><time>2026-04-25T12:51:47Z</time></trkpt><trkpt lat="44.61409627801899" lon="8.931501770420416"><ele>474.6666666666667</ele><time>2026-04-25T12:51:49Z</time></trkpt><trkpt lat="44.614146915589195" lon="8.931577051724233"><ele>473.0</ele><time>2026-04-25T12:51:50Z</time></trkpt><trkpt lat="44.614222506772435" lon="8.93165562537455"><ele>471.33333333333337</ele><time>2026-04-25T12:51:51Z</time></trkpt><trkpt lat="44.614292857034975" lon="8.931743778458301"><ele>469.6666666666667</ele><time>2026-04-25T12:51:52Z</time></trkpt><trkpt lat="44.61432869680212" lon="8.931833944548776"><ele>468.0</ele><time>2026-04-25T12:51:53Z</time></trkpt><trkpt lat="44.614326987255744" lon="8.931956822904509"><ele>465.79999999999995</ele><time>2026-04-25T12:51:54Z</time></trkpt><trkpt lat="44.6142794182009" lon="8.932091019649139"><ele>463.59999999999997</ele><time>2026-04-25T12:51:55Z</time></trkpt><trkpt lat="44.61425965979426" lon="8.932218006472468"><ele>461.40000000000003</ele><time>2026-04-25T12:51:56Z</time></trkpt><trkpt lat="44.614269530401856" lon="8.932344365268914"><ele>459.20000000000005</ele><time>2026-04-25T12:51:57Z</time></trkpt><trkpt lat="44.61430695888159" lon="8.932478058767591"><ele>457.0</ele><time>2026-04-25T12:51:58Z</time></trkpt><trkpt lat="44.614367039396186" lon="8.932606218647797"><ele>453.20000000000005</ele><time>2026-04-25T12:51:59Z</time></trkpt><trkpt lat="44.61444030102979" lon="8.932725228735112"><ele>449.40000000000003</ele><time>2026-04-25T12:52:00Z</time></trkpt><trkpt lat="44.61450265291898" lon="8.932851379662287"><ele>445.59999999999997</ele><time>2026-04-25T12:52:01Z</time></trkpt><trkpt lat="44.61454035254291" lon="8.932981050344198"><ele>441.79999999999995</ele><time>2026-04-25T12:52:02Z</time></trkpt><trkpt lat="44.61454936006238" lon="8.933125386600612"><ele>438.0</ele><time>2026-04-25T12:52:03Z</time></trkpt><trkpt lat="44.614548292568294" lon="8.933286286418134"><ele>446.4</ele><time>2026-04-25T12:52:04Z</time></trkpt><trkpt lat="44.61454447469762" lon="8.933448896434271"><ele>454.79999999999995</ele><time>2026-04-25T12:52:05Z</time></trkpt><trkpt lat="44.61455503249068" lon="8.93360587270009"><ele>463.2</ele><time>2026-04-25T12:52:06Z</time></trkpt><trkpt lat="44.614580410363544" lon="8.933755631598382"><ele>471.6</ele><time>2026-04-25T12:52:07Z</time></trkpt><trkpt lat="44.6146160439584" lon="8.933901235538398"><ele>480.0</ele><time>2026-04-25T12:52:08Z</time></trkpt><trkpt lat="44.614648552553" lon="8.934045482090971"><ele>480.0</ele><time>2026-04-25T12:52:09Z</time></trkpt><trkpt lat="44.61467318214263" lon="8.934174615624688"><ele>480.0</ele><time>2026-04-25T12:52:10Z</time></trkpt><trkpt lat="44.614683496744526" lon="8.934303141675983"><ele>480.0</ele><time>2026-04-25T12:52:11Z</time></trkpt><trkpt lat="44.614668872117406" lon="8.934437978800496"><ele>480.0</ele><time>2026-04-25T12:52:12Z</time></trkpt><trkpt lat="44.61462953848718" lon="8.93457384355467"><ele>480.0</ele><time>2026-04-25T12:52:13Z</time></trkpt><trkpt lat="44.61457208656841" lon="8.934702741842973"><ele>478.2</ele><time>2026-04-25T12:52:14Z</time></trkpt><trkpt lat="44.61452781920414" lon="8.934833421127367"><ele>476.4</ele><time>2026-04-25T12:52:15Z</time></trkpt><trkpt lat="44.61450801593677" lon="8.934952615478089"><ele>474.6</ele><time>2026-04-25T12:52:16Z</time></trkpt><trkpt lat="44.614514961797546" lon="8.935068180804864"><ele>472.8</ele><time>2026-04-25T12:52:17Z</time></trkpt><trkpt lat="44.614539754433956" lon="8.93518086735767"><ele>471.0</ele><time>2026-04-25T12:52:18Z</time></trkpt><trkpt lat="44.614592402007496" lon="8.935291329146356"><ele>466.4</ele><time>2026-04-25T12:52:19Z</time></trkpt><trkpt lat="44.61462571064854" lon="8.935412894840873"><ele>461.8</ele><time>2026-04-25T12:52:20Z</time></trkpt><trkpt lat="44.61462066513151" lon="8.935549078958088"><ele>457.19999999999993</ele><time>2026-04-25T12:52:21Z</time></trkpt><trkpt lat="44.61460676885042" lon="8.93568184136364"><ele>452.59999999999997</ele><time>2026-04-25T12:52:22Z</time></trkpt><trkpt lat="44.61462587536598" lon="8.935816897162693"><ele>448.0</ele><time>2026-04-25T12:52:23Z</time></trkpt><trkpt lat="44.61468466743087" lon="8.935935238255926"><ele>445.0</ele><time>2026-04-25T12:52:24Z</time></trkpt><trkpt lat="44.614762696966494" lon="8.936034344738243"><ele>441.99999999999994</ele><time>2026-04-25T12:52:25Z</time></trkpt><trkpt lat="44.614841881296776" lon="8.93613095707369"><ele>438.99999999999994</ele><time>2026-04-25T12:52:26Z</time></trkpt><trkpt lat="44.61490036522476" lon="8.936240190798223"><ele>436.0</ele><time>2026-04-25T12:52:27Z</time></trkpt><trkpt lat="44.6149240848708" lon="8.936368067152092"><ele>433.0</ele><time>2026-04-25T12:52:28Z</time></trkpt><trkpt lat="44.61491697230157" lon="8.9365042702977"><ele>433.0</ele><time>2026-04-25T12:52:29Z</time></trkpt><trkpt lat="44.614885085950256" lon="8.93663444219262"><ele>432.99999999999994</ele><time>2026-04-25T12:52:30Z</time></trkpt><trkpt lat="44.61486925982963" lon="8.936752305981493"><ele>432.99999999999994</ele><time>2026-04-25T12:52:31Z</time></trkpt><trkpt lat="44.614897256542086" lon="8.936886371478659"><ele>433.0</ele><time>2026-04-25T12:52:32Z</time></trkpt><trkpt lat="44.614953909823065" lon="8.937044555941661"><ele>433.0</ele><time>2026-04-25T12:52:33Z</time></trkpt><trkpt lat="44.614985601208076" lon="8.937214423481556"><ele>428.2</ele><time>2026-04-25T12:52:34Z</time></trkpt><trkpt lat="44.61498316318534" lon="8.937389090980687"><ele>423.4</ele><time>2026-04-25T12:52:35Z</time></trkpt><trkpt lat="44.6149651758599" lon="8.937551139666704"><ele>418.59999999999997</ele><time>2026-04-25T12:52:36Z</time></trkpt><trkpt lat="44.614955759109606" lon="8.937693742203557"><ele>413.79999999999995</ele><time>2026-04-25T12:52:37Z</time></trkpt><trkpt lat="44.61495552886407" lon="8.937802779526814"><ele>409.0</ele><time>2026-04-25T12:52:38Z</time></trkpt><trkpt lat="44.61496511038605" lon="8.937896788515229"><ele>405.6</ele><time>2026-04-25T12:52:39Z</time></trkpt><trkpt lat="44.615055728171825" lon="8.937985167261258"><ele>402.2</ele><time>2026-04-25T12:52:41Z</time></trkpt><trkpt lat="44.61513143226046" lon="8.937973177032445"><ele>398.8</ele><time>2026-04-25T12:52:42Z</time></trkpt><trkpt lat="44.6152202055312" lon="8.937939855382101"><ele>395.40000000000003</ele><time>2026-04-25T12:52:43Z</time></trkpt><trkpt lat="44.61532100290187" lon="8.937907558165493"><ele>392.0</ele><time>2026-04-25T12:52:44Z</time></trkpt><trkpt lat="44.615427727018" lon="8.937865623778588"><ele>391.20000000000005</ele><time>2026-04-25T12:52:45Z</time></trkpt><trkpt lat="44.615523600951725" lon="8.93783073652845"><ele>390.4</ele><time>2026-04-25T12:52:46Z</time></trkpt><trkpt lat="44.615598020241634" lon="8.93774268628752"><ele>389.6</ele><time>2026-04-25T12:52:47Z</time></trkpt><trkpt lat="44.61566714181066" lon="8.937641546626"><ele>388.79999999999995</ele><time>2026-04-25T12:52:48Z</time></trkpt><trkpt lat="44.61574073345461" lon="8.937551953141828"><ele>388.0</ele><time>2026-04-25T12:52:49Z</time></trkpt><trkpt lat="44.61582488367716" lon="8.937468713425718"><ele>390.59999999999997</ele><time>2026-04-25T12:52:50Z</time></trkpt><trkpt lat="44.615912519949525" lon="8.937414449944358"><ele>393.2</ele><time>2026-04-25T12:52:51Z</time></trkpt><trkpt lat="44.616011764936594" lon="8.937397134045442"><ele>395.8</ele><time>2026-04-25T12:52:52Z</time></trkpt><trkpt lat="44.61611932930677" lon="8.937362405800426"><ele>398.4</ele><time>2026-04-25T12:52:53Z</time></trkpt><trkpt lat="44.616225589998386" lon="8.937355196986548"><ele>401.0</ele><time>2026-04-25T12:52:54Z</time></trkpt><trkpt lat="44.616324567592784" lon="8.937326126279848"><ele>400.99999999999994</ele><time>2026-04-25T12:52:55Z</time></trkpt><trkpt lat="44.616408496690205" lon="8.937290806505038"><ele>401.0</ele><time>2026-04-25T12:52:56Z</time></trkpt><trkpt lat="44.6164785620978" lon="8.937246859667297"><ele>401.0</ele><time>2026-04-25T12:52:57Z</time></trkpt><trkpt lat="44.61654407809073" lon="8.937190871131468"><ele>401.0</ele><time>2026-04-25T12:52:58Z</time></trkpt><trkpt lat="44.616613780572926" lon="8.937156056427538"><ele>400.99999999999994</ele><time>2026-04-25T12:52:59Z</time></trkpt><trkpt lat="44.6166738415686" lon="8.937108732304816"><ele>401.0</ele><time>2026-04-25T12:53:00Z</time></trkpt><trkpt lat="44.61673222072472" lon="8.937062312706276"><ele>400.99999999999994</ele><time>2026-04-25T12:53:01Z</time></trkpt><trkpt lat="44.616792636052104" lon="8.937011288888705"><ele>401.0</ele><time>2026-04-25T12:53:02Z</time></trkpt><trkpt lat="44.61684746602376" lon="8.93696631770262"><ele>401.0</ele><time>2026-04-25T12:53:03Z</time></trkpt><trkpt lat="44.616935912897695" lon="8.936927562284206"><ele>401.0</ele><time>2026-04-25T12:53:05Z</time></trkpt><trkpt lat="44.6169629229182" lon="8.937068906306877"><ele>400.99999999999994</ele><time>2026-04-25T12:53:07Z</time></trkpt><trkpt lat="44.616890744516205" lon="8.937157198356893"><ele>401.0</ele><time>2026-04-25T12:53:09Z</time></trkpt><trkpt lat="44.61679053062181" lon="8.937259136170812"><ele>401.0</ele><time>2026-04-25T12:53:11Z</time></trkpt><trkpt lat="44.61674583973081" lon="8.937373406870885"><ele>401.0</ele><time>2026-04-25T12:53:12Z</time></trkpt><trkpt lat="44.61671145376274" lon="8.937525706831677"><ele>401.0</ele><time>2026-04-25T12:53:13Z</time></trkpt><trkpt lat="44.616668609311546" lon="8.937667468766781"><ele>401.0</ele><time>2026-04-25T12:53:14Z</time></trkpt><trkpt lat="44.616593651062225" lon="8.937807878051782"><ele>401.0</ele><time>2026-04-25T12:53:15Z</time></trkpt><trkpt lat="44.616517734266424" lon="8.937920620227322"><ele>401.75</ele><time>2026-04-25T12:53:16Z</time></trkpt><trkpt lat="44.616446980604785" lon="8.938031211556767"><ele>402.5</ele><time>2026-04-25T12:53:17Z</time></trkpt><trkpt lat="44.6163890191365" lon="8.938165978610296"><ele>403.25</ele><time>2026-04-25T12:53:18Z</time></trkpt><trkpt lat="44.61634544612351" lon="8.938331124257113"><ele>404.0</ele><time>2026-04-25T12:53:19Z</time></trkpt><trkpt lat="44.616298013661" lon="8.938500715900599"><ele>406.79999999999995</ele><time>2026-04-25T12:53:20Z</time></trkpt><trkpt lat="44.61625443261032" lon="8.93864368179258"><ele>409.59999999999997</ele><time>2026-04-25T12:53:21Z</time></trkpt><trkpt lat="44.61620623669844" lon="8.938777922304231"><ele>412.4</ele><time>2026-04-25T12:53:22Z</time></trkpt><trkpt lat="44.61614458053228" lon="8.93890448354598"><ele>415.2</ele><time>2026-04-25T12:53:23Z</time></trkpt><trkpt lat="44.616068420985705" lon="8.939022826036025"><ele>418.0</ele><time>2026-04-25T12:53:24Z</time></trkpt><trkpt lat="44.61598624346092" lon="8.939141448980783"><ele>412.59999999999997</ele><time>2026-04-25T12:53:25Z</time></trkpt><trkpt lat="44.61590730289624" lon="8.939260905867632"><ele>407.2</ele><time>2026-04-25T12:53:26Z</time></trkpt><trkpt lat="44.615840742647926" lon="8.939370683516527"><ele>401.8</ele><time>2026-04-25T12:53:27Z</time></trkpt><trkpt lat="44.61577922999612" lon="8.939468975118155"><ele>396.4</ele><time>2026-04-25T12:53:28Z</time></trkpt><trkpt lat="44.61571858941399" lon="8.93956220723523"><ele>391.0</ele><time>2026-04-25T12:53:29Z</time></trkpt><trkpt lat="44.615653950259976" lon="8.93966498856525"><ele>391.0</ele><time>2026-04-25T12:53:30Z</time></trkpt><trkpt lat="44.615601369587004" lon="8.939777364190025"><ele>391.0</ele><time>2026-04-25T12:53:31Z</time></trkpt><trkpt lat="44.61554633195462" lon="8.939900724685733"><ele>391.0</ele><time>2026-04-25T12:53:32Z</time></trkpt><trkpt lat="44.61549903808429" lon="8.940020334876742"><ele>391.0</ele><time>2026-04-25T12:53:33Z</time></trkpt><trkpt lat="44.61543785842538" lon="8.940124554441192"><ele>391.0</ele><time>2026-04-25T12:53:34Z</time></trkpt><trkpt lat="44.61537739981662" lon="8.94021091150085"><ele>390.4285714285714</ele><time>2026-04-25T12:53:35Z</time></trkpt><trkpt lat="44.615330134645816" lon="8.940292029245919"><ele>389.85714285714283</ele><time>2026-04-25T12:53:36Z</time></trkpt><trkpt lat="44.61529041593813" lon="8.940384902494088"><ele>389.2857142857143</ele><time>2026-04-25T12:53:37Z</time></trkpt><trkpt lat="44.615270327010776" lon="8.940483210180231"><ele>388.71428571428567</ele><time>2026-04-25T12:53:38Z</time></trkpt><trkpt lat="44.61525770033928" lon="8.940591445523538"><ele>388.14285714285717</ele><time>2026-04-25T12:53:39Z</time></trkpt><trkpt lat="44.61528737352751" lon="8.94067740295637"><ele>387.57142857142856</ele><time>2026-04-25T12:53:40Z</time></trkpt><trkpt lat="44.615318663161865" lon="8.940757778103514"><ele>387.0</ele><time>2026-04-25T12:53:41Z</time></trkpt><trkpt lat="44.61533234575493" lon="8.940861976472354"><ele>379.20000000000005</ele><time>2026-04-25T12:53:43Z</time></trkpt><trkpt lat="44.615243265342684" lon="8.940871688073662"><ele>371.4</ele><time>2026-04-25T12:53:45Z</time></trkpt><trkpt lat="44.61521302995421" lon="8.940735918754385"><ele>363.6</ele><time>2026-04-25T12:53:47Z</time></trkpt><trkpt lat="44.61516973896996" lon="8.94059036057116"><ele>355.79999999999995</ele><time>2026-04-25T12:53:49Z</time></trkpt><trkpt lat="44.61517208986364" lon="8.940475324861529"><ele>348.0</ele><time>2026-04-25T12:53:50Z</time></trkpt><trkpt lat="44.615180277460254" lon="8.940338940027521"><ele>348.0</ele><time>2026-04-25T12:53:51Z</time></trkpt><trkpt lat="44.61519151403526" lon="8.940198310501476"><ele>348.0</ele><time>2026-04-25T12:53:52Z</time></trkpt><trkpt lat="44.61519374712318" lon="8.94009821510559"><ele>348.0</ele><time>2026-04-25T12:53:53Z</time></trkpt><trkpt lat="44.615135513772785" lon="8.939971536202655"><ele>348.0</ele><time>2026-04-25T12:53:55Z</time></trkpt><trkpt lat="44.615061975453294" lon="8.939993084267435"><ele>348.0</ele><time>2026-04-25T12:53:56Z</time></trkpt><trkpt lat="44.61497491226097" lon="8.940186119473909"><ele>348.0</ele><time>2026-04-25T12:53:58Z</time></trkpt><trkpt lat="44.61493132931491" lon="8.940299363197342"><ele>348.0</ele><time>2026-04-25T12:53:59Z</time></trkpt><trkpt lat="44.614873014690474" lon="8.94042817265426"><ele>348.0</ele><time>2026-04-25T12:54:00Z</time></trkpt><trkpt lat="44.61478329868767" lon="8.940538754872218"><ele>348.0</ele><time>2026-04-25T12:54:01Z</time></trkpt><trkpt lat="44.614679957915364" lon="8.940617043603003"><ele>348.0</ele><time>2026-04-25T12:54:02Z</time></trkpt><trkpt lat="44.61460756298479" lon="8.940701956357218"><ele>348.0</ele><time>2026-04-25T12:54:03Z</time></trkpt><trkpt lat="44.61455504604946" lon="8.940792321292896"><ele>348.0</ele><time>2026-04-25T12:54:04Z</time></trkpt><trkpt lat="44.61453433407556" lon="8.94089861433349"><ele>348.0</ele><time>2026-04-25T12:54:05Z</time></trkpt><trkpt lat="44.6145499599593" lon="8.941015377041824"><ele>348.0</ele><time>2026-04-25T12:54:06Z</time></trkpt><trkpt lat="44.61459379181033" lon="8.94111008341872"><ele>348.0</ele><time>2026-04-25T12:54:07Z</time></trkpt><trkpt lat="44.614661655828165" lon="8.941195058575982"><ele>348.0</ele><time>2026-04-25T12:54:08Z</time></trkpt><trkpt lat="44.61474171856182" lon="8.941292884289906"><ele>346.0</ele><time>2026-04-25T12:54:09Z</time></trkpt><trkpt lat="44.614832018392015" lon="8.941424083673883"><ele>344.0</ele><time>2026-04-25T12:54:10Z</time></trkpt><trkpt lat="44.61490910274482" lon="8.941560199481582"><ele>342.0</ele><time>2026-04-25T12:54:11Z</time></trkpt><trkpt lat="44.61498174259271" lon="8.941685853691444"><ele>340.0</ele><time>2026-04-25T12:54:12Z</time></trkpt><trkpt lat="44.61504668605364" lon="8.941814942143823"><ele>339.0</ele><time>2026-04-25T12:54:13Z</time></trkpt><trkpt lat="44.61510243782884" lon="8.941948592535251"><ele>338.0</ele><time>2026-04-25T12:54:14Z</time></trkpt><trkpt lat="44.61515691089654" lon="8.942080614225436"><ele>337.0</ele><time>2026-04-25T12:54:15Z</time></trkpt><trkpt lat="44.61520867508923" lon="8.94221224216513"><ele>336.0</ele><time>2026-04-25T12:54:16Z</time></trkpt><trkpt lat="44.615253456673834" lon="8.94234383630555"><ele>335.0</ele><time>2026-04-25T12:54:17Z</time></trkpt><trkpt lat="44.61529683544514" lon="8.942477558817137"><ele>334.4</ele><time>2026-04-25T12:54:18Z</time></trkpt><trkpt lat="44.61534340659633" lon="8.94261133728441"><ele>333.8</ele><time>2026-04-25T12:54:19Z</time></trkpt><trkpt lat="44.61538933845497" lon="8.942743673537752"><ele>333.20000000000005</ele><time>2026-04-25T12:54:20Z</time></trkpt><trkpt lat="44.615433519722785" lon="8.942870581093578"><ele>332.6</ele><time>2026-04-25T12:54:21Z</time></trkpt><trkpt lat="44.61548016694398" lon="8.942994357592"><ele>332.0</ele><time>2026-04-25T12:54:22Z</time></trkpt><trkpt lat="44.61551071192374" lon="8.943140199832914"><ele>332.0</ele><time>2026-04-25T12:54:23Z</time></trkpt><trkpt lat="44.61553909703764" lon="8.943273485400368"><ele>332.0</ele><time>2026-04-25T12:54:24Z</time></trkpt><trkpt lat="44.615560938440616" lon="8.943411220910939"><ele>332.0</ele><time>2026-04-25T12:54:25Z</time></trkpt><trkpt lat="44.61558191441783" lon="8.943541384569256"><ele>332.0</ele><time>2026-04-25T12:54:26Z</time></trkpt><trkpt lat="44.61561264018755" lon="8.943662009125793"><ele>332.0</ele><time>2026-04-25T12:54:27Z</time></trkpt><trkpt lat="44.615653129351884" lon="8.943782730727627"><ele>331.0</ele><time>2026-04-25T12:54:28Z</time></trkpt><trkpt lat="44.61570449972052" lon="8.94390960946274"><ele>330.0</ele><time>2026-04-25T12:54:29Z</time></trkpt><trkpt lat="44.6157621731636" lon="8.944034145639819"><ele>329.0</ele><time>2026-04-25T12:54:30Z</time></trkpt><trkpt lat="44.61581145853025" lon="8.944157055232251"><ele>328.0</ele><time>2026-04-25T12:54:31Z</time></trkpt><trkpt lat="44.61584045414139" lon="8.944261850860078"><ele>327.0</ele><time>2026-04-25T12:54:32Z</time></trkpt><trkpt lat="44.61585904733537" lon="8.944365411054997"><ele>326.40000000000003</ele><time>2026-04-25T12:54:33Z</time></trkpt><trkpt lat="44.6158735886032" lon="8.944454372248895"><ele>325.8</ele><time>2026-04-25T12:54:34Z</time></trkpt><trkpt lat="44.61589477316662" lon="8.94454069386692"><ele>325.2</ele><time>2026-04-25T12:54:35Z</time></trkpt><trkpt lat="44.61595886706089" lon="8.944667153775065"><ele>324.6</ele><time>2026-04-25T12:54:37Z</time></trkpt><trkpt lat="44.61601534196269" lon="8.944721763332852"><ele>324.0</ele><time>2026-04-25T12:55:44Z</time></trkpt><trkpt lat="44.616124250072694" lon="8.944581726006218"><ele>322.4</ele><time>2026-04-25T12:55:45Z</time></trkpt><trkpt lat="44.616195487230435" lon="8.944503346029087"><ele>320.79999999999995</ele><time>2026-04-25T12:55:46Z</time></trkpt><trkpt lat="44.616262613839716" lon="8.944430695448649"><ele>319.20000000000005</ele><time>2026-04-25T12:55:47Z</time></trkpt><trkpt lat="44.61634345340237" lon="8.94437675710916"><ele>317.6</ele><time>2026-04-25T12:55:48Z</time></trkpt><trkpt lat="44.616436351531505" lon="8.944334168447298"><ele>316.0</ele><time>2026-04-25T12:55:49Z</time></trkpt><trkpt lat="44.61653502976536" lon="8.94430814507252"><ele>316.0</ele><time>2026-04-25T12:55:50Z</time></trkpt><trkpt lat="44.616636003390276" lon="8.944279318860119"><ele>316.0</ele><time>2026-04-25T12:55:51Z</time></trkpt><trkpt lat="44.61674379512881" lon="8.944256718205796"><ele>316.0</ele><time>2026-04-25T12:55:52Z</time></trkpt><trkpt lat="44.616847199902125" lon="8.94423286711712"><ele>316.0</ele><time>2026-04-25T12:55:53Z</time></trkpt><trkpt lat="44.61695882655624" lon="8.944205089158165"><ele>316.0</ele><time>2026-04-25T12:55:54Z</time></trkpt><trkpt lat="44.61707313656905" lon="8.944176542385373"><ele>316.0</ele><time>2026-04-25T12:55:55Z</time></trkpt><trkpt lat="44.617192444049934" lon="8.94415603328777"><ele>316.0</ele><time>2026-04-25T12:55:56Z</time></trkpt><trkpt lat="44.61732432361266" lon="8.944156039721804"><ele>316.0</ele><time>2026-04-25T12:55:57Z</time></trkpt><trkpt lat="44.61745789055069" lon="8.944183106548184"><ele>316.0</ele><time>2026-04-25T12:55:58Z</time></trkpt><trkpt lat="44.617590576422565" lon="8.944244584800789"><ele>316.0</ele><time>2026-04-25T12:55:59Z</time></trkpt><trkpt lat="44.61772052391917" lon="8.944335545713647"><ele>316.0</ele><time>2026-04-25T12:56:00Z</time></trkpt><trkpt lat="44.61783763116832" lon="8.944436383642214"><ele>316.0</ele><time>2026-04-25T12:56:01Z</time></trkpt><trkpt lat="44.61795144718264" lon="8.944552317206956"><ele>316.0</ele><time>2026-04-25T12:56:02Z</time></trkpt><trkpt lat="44.61806602552301" lon="8.944666496242496"><ele>317.5</ele><time>2026-04-25T12:56:03Z</time></trkpt><trkpt lat="44.61818588986206" lon="8.944767793721535"><ele>319.0</ele><time>2026-04-25T12:56:04Z</time></trkpt><trkpt lat="44.618307734336604" lon="8.944861641368357"><ele>320.5</ele><time>2026-04-25T12:56:05Z</time></trkpt><trkpt lat="44.61843773126204" lon="8.944953655049673"><ele>322.0</ele><time>2026-04-25T12:56:06Z</time></trkpt><trkpt lat="44.61858319447074" lon="8.945032568178382"><ele>319.3333333333333</ele><time>2026-04-25T12:56:07Z</time></trkpt><trkpt lat="44.61874143693189" lon="8.945099311139549"><ele>316.6666666666667</ele><time>2026-04-25T12:56:08Z</time></trkpt><trkpt lat="44.61890427173637" lon="8.945159967955266"><ele>314.0</ele><time>2026-04-25T12:56:09Z</time></trkpt><trkpt lat="44.619070741350605" lon="8.945221957313525"><ele>314.0</ele><time>2026-04-25T12:56:10Z</time></trkpt><trkpt lat="44.61923733194101" lon="8.945285032155901"><ele>314.0</ele><time>2026-04-25T12:56:11Z</time></trkpt><trkpt lat="44.61939992120885" lon="8.945355510145005"><ele>314.0</ele><time>2026-04-25T12:56:12Z</time></trkpt><trkpt lat="44.619553607324086" lon="8.945420344649966"><ele>315.6666666666667</ele><time>2026-04-25T12:56:13Z</time></trkpt><trkpt lat="44.6197057875608" lon="8.945475085465139"><ele>317.3333333333333</ele><time>2026-04-25T12:56:14Z</time></trkpt><trkpt lat="44.61985576092785" lon="8.94553499269917"><ele>319.0</ele><time>2026-04-25T12:56:15Z</time></trkpt><trkpt lat="44.62000268716458" lon="8.945607605912569"><ele>319.0</ele><time>2026-04-25T12:56:16Z</time></trkpt><trkpt lat="44.620144088486605" lon="8.945700797414656"><ele>319.0</ele><time>2026-04-25T12:56:17Z</time></trkpt><trkpt lat="44.620280393563284" lon="8.9458277884753"><ele>319.0</ele><time>2026-04-25T12:56:18Z</time></trkpt><trkpt lat="44.62041307462147" lon="8.94598743212048"><ele>323.0</ele><time>2026-04-25T12:56:19Z</time></trkpt><trkpt lat="44.620538709659385" lon="8.946171224536624"><ele>327.0</ele><time>2026-04-25T12:56:20Z</time></trkpt><trkpt lat="44.62067065835587" lon="8.946351225596894"><ele>331.0</ele><time>2026-04-25T12:56:21Z</time></trkpt><trkpt lat="44.62079639656834" lon="8.946527646930845"><ele>331.0</ele><time>2026-04-25T12:56:22Z</time></trkpt><trkpt lat="44.620920734049605" lon="8.9467059690871"><ele>331.0</ele><time>2026-04-25T12:56:23Z</time></trkpt><trkpt lat="44.621046284277725" lon="8.946882497090746"><ele>331.0</ele><time>2026-04-25T12:56:24Z</time></trkpt><trkpt lat="44.621108680605914" lon="8.947119294029209"><ele>332.0</ele><time>2026-04-25T12:56:25Z</time></trkpt><trkpt lat="44.62122689379224" lon="8.947403949712605"><ele>333.0</ele><time>2026-04-25T12:56:26Z</time></trkpt><trkpt lat="44.621327621282795" lon="8.947626675128841"><ele>334.0</ele><time>2026-04-25T12:56:27Z</time></trkpt><trkpt lat="44.62141652763545" lon="8.947861127573947"><ele>334.0</ele><time>2026-04-25T12:56:28Z</time></trkpt><trkpt lat="44.62149929620134" lon="8.9480912788773"><ele>334.0</ele><time>2026-04-25T12:56:29Z</time></trkpt><trkpt lat="44.621584508278104" lon="8.948323016639776"><ele>334.0</ele><time>2026-04-25T12:56:30Z</time></trkpt><trkpt lat="44.62165730944639" lon="8.948570636642314"><ele>330.0</ele><time>2026-04-25T12:56:31Z</time></trkpt><trkpt lat="44.621712520329325" lon="8.948821759130448"><ele>326.0</ele><time>2026-04-25T12:56:32Z</time></trkpt><trkpt lat="44.62176222011445" lon="8.949074133279353"><ele>322.0</ele><time>2026-04-25T12:56:33Z</time></trkpt><trkpt lat="44.62181198832763" lon="8.949314295752274"><ele>320.66666666666663</ele><time>2026-04-25T12:56:34Z</time></trkpt><trkpt lat="44.621864174527595" lon="8.949539486445369"><ele>319.3333333333333</ele><time>2026-04-25T12:56:35Z</time></trkpt><trkpt lat="44.62190933982118" lon="8.949748841701837"><ele>318.0</ele><time>2026-04-25T12:56:36Z</time></trkpt><trkpt lat="44.621956348322335" lon="8.949948498714662"><ele>317.75</ele><time>2026-04-25T12:56:37Z</time></trkpt><trkpt lat="44.6220117340504" lon="8.95013671557124"><ele>317.5</ele><time>2026-04-25T12:56:38Z</time></trkpt><trkpt lat="44.62208814182211" lon="8.950308591671856"><ele>317.25</ele><time>2026-04-25T12:56:39Z</time></trkpt><trkpt lat="44.62218689484796" lon="8.950460049842217"><ele>317.0</ele><time>2026-04-25T12:56:40Z</time></trkpt><trkpt lat="44.622295625387565" lon="8.950591177848555"><ele>317.0</ele><time>2026-04-25T12:56:41Z</time></trkpt><trkpt lat="44.62241274905154" lon="8.950689025401305"><ele>317.0</ele><time>2026-04-25T12:56:42Z</time></trkpt><trkpt lat="44.62254242760441" lon="8.95075535011403"><ele>317.0</ele><time>2026-04-25T12:56:43Z</time></trkpt><trkpt lat="44.62267475576052" lon="8.950786251705656"><ele>317.0</ele><time>2026-04-25T12:56:44Z</time></trkpt><trkpt lat="44.62280731113532" lon="8.95076649760144"><ele>315.5</ele><time>2026-04-25T12:56:45Z</time></trkpt><trkpt lat="44.62293708730525" lon="8.950711318302485"><ele>314.0</ele><time>2026-04-25T12:56:46Z</time></trkpt><trkpt lat="44.623065168077055" lon="8.950605073468589"><ele>312.5</ele><time>2026-04-25T12:56:47Z</time></trkpt><trkpt lat="44.62319732088674" lon="8.950469473060402"><ele>311.0</ele><time>2026-04-25T12:56:48Z</time></trkpt><trkpt lat="44.62333279119156" lon="8.950306982951057"><ele>311.0</ele><time>2026-04-25T12:56:49Z</time></trkpt><trkpt lat="44.623473635028176" lon="8.950132230269038"><ele>311.0</ele><time>2026-04-25T12:56:50Z</time></trkpt><trkpt lat="44.623617602505256" lon="8.949960409217269"><ele>311.0</ele><time>2026-04-25T12:56:51Z</time></trkpt><trkpt lat="44.62375861815245" lon="8.94980318140554"><ele>311.33333333333337</ele><time>2026-04-25T12:56:52Z</time></trkpt><trkpt lat="44.62389677982783" lon="8.949620050238734"><ele>311.6666666666667</ele><time>2026-04-25T12:56:53Z</time></trkpt><trkpt lat="44.62402885505672" lon="8.949415298090885"><ele>312.0</ele><time>2026-04-25T12:56:54Z</time></trkpt><trkpt lat="44.624153560676284" lon="8.94919476122978"><ele>313.6666666666667</ele><time>2026-04-25T12:56:55Z</time></trkpt><trkpt lat="44.624292859608126" lon="8.948982438121615"><ele>315.33333333333337</ele><time>2026-04-25T12:56:56Z</time></trkpt><trkpt lat="44.62442155677918" lon="8.94873980254601"><ele>317.0</ele><time>2026-04-25T12:56:57Z</time></trkpt><trkpt lat="44.62455617742912" lon="8.9485197191549"><ele>316.33333333333337</ele><time>2026-04-25T12:56:58Z</time></trkpt><trkpt lat="44.624684381900614" lon="8.948308231982171"><ele>315.6666666666667</ele><time>2026-04-25T12:56:59Z</time></trkpt><trkpt lat="44.62480920754354" lon="8.948096470399719"><ele>315.0</ele><time>2026-04-25T12:57:00Z</time></trkpt><trkpt lat="44.62492742509869" lon="8.947899619023193"><ele>315.0</ele><time>2026-04-25T12:57:01Z</time></trkpt><trkpt lat="44.6250352769176" lon="8.947714068928473"><ele>315.0</ele><time>2026-04-25T12:57:02Z</time></trkpt><trkpt lat="44.625132493156755" lon="8.947521929441717"><ele>315.0</ele><time>2026-04-25T12:57:03Z</time></trkpt><trkpt lat="44.62522718768321" lon="8.947305407174968"><ele>314.0</ele><time>2026-04-25T12:57:04Z</time></trkpt><trkpt lat="44.625338022633294" lon="8.947087202094282"><ele>313.0</ele><time>2026-04-25T12:57:05Z</time></trkpt><trkpt lat="44.62544411504476" lon="8.946848661634803"><ele>312.0</ele><time>2026-04-25T12:57:06Z</time></trkpt><trkpt lat="44.625553288205325" lon="8.94660462461075"><ele>312.0</ele><time>2026-04-25T12:57:07Z</time></trkpt><trkpt lat="44.62565502480988" lon="8.946348841005921"><ele>312.0</ele><time>2026-04-25T12:57:08Z</time></trkpt><trkpt lat="44.6257762275883" lon="8.946103404038755"><ele>312.0</ele><time>2026-04-25T12:57:09Z</time></trkpt><trkpt lat="44.62590781420855" lon="8.945863486926102"><ele>309.6666666666667</ele><time>2026-04-25T12:57:10Z</time></trkpt><trkpt lat="44.62604850683061" lon="8.945630731498287"><ele>307.33333333333337</ele><time>2026-04-25T12:57:11Z</time></trkpt><trkpt lat="44.626198394608146" lon="8.945399495809925"><ele>305.0</ele><time>2026-04-25T12:57:12Z</time></trkpt><trkpt lat="44.626348303559965" lon="8.945168665639214"><ele>308.0</ele><time>2026-04-25T12:57:13Z</time></trkpt><trkpt lat="44.62650098820327" lon="8.944922766223318"><ele>311.0</ele><time>2026-04-25T12:57:14Z</time></trkpt><trkpt lat="44.6266508169376" lon="8.944684522529464"><ele>311.0</ele><time>2026-04-25T12:57:15Z</time></trkpt><trkpt lat="44.62679707228364" lon="8.944453154840412"><ele>311.0</ele><time>2026-04-25T12:57:16Z</time></trkpt><trkpt lat="44.62693691332157" lon="8.944230220140282"><ele>311.0</ele><time>2026-04-25T12:57:17Z</time></trkpt><trkpt lat="44.62707402149174" lon="8.944015579296927"><ele>308.6666666666667</ele><time>2026-04-25T12:57:18Z</time></trkpt><trkpt lat="44.62720574237655" lon="8.943803903679948"><ele>306.3333333333333</ele><time>2026-04-25T12:57:19Z</time></trkpt><trkpt lat="44.62733208827349" lon="8.943595733036966"><ele>304.0</ele><time>2026-04-25T12:57:20Z</time></trkpt><trkpt lat="44.62745419870764" lon="8.943398469343782"><ele>306.0</ele><time>2026-04-25T12:57:21Z</time></trkpt><trkpt lat="44.62756774440433" lon="8.943208954032498"><ele>308.0</ele><time>2026-04-25T12:57:22Z</time></trkpt><trkpt lat="44.62767294560101" lon="8.943027957185897"><ele>310.0</ele><time>2026-04-25T12:57:23Z</time></trkpt><trkpt lat="44.627773887979025" lon="8.94285664926388"><ele>310.66666666666663</ele><time>2026-04-25T12:57:24Z</time></trkpt><trkpt lat="44.627880402644465" lon="8.942697977505956"><ele>311.3333333333333</ele><time>2026-04-25T12:57:25Z</time></trkpt><trkpt lat="44.62799386406903" lon="8.942556957134961"><ele>312.0</ele><time>2026-04-25T12:57:26Z</time></trkpt><trkpt lat="44.62812792726573" lon="8.942462373535479"><ele>312.0</ele><time>2026-04-25T12:57:27Z</time></trkpt><trkpt lat="44.62825595951407" lon="8.942348586728164"><ele>312.0</ele><time>2026-04-25T12:57:28Z</time></trkpt><trkpt lat="44.62839629960078" lon="8.942261229256193"><ele>312.0</ele><time>2026-04-25T12:57:29Z</time></trkpt><trkpt lat="44.62853410657855" lon="8.942165582771386"><ele>309.0</ele><time>2026-04-25T12:57:30Z</time></trkpt><trkpt lat="44.6286757876419" lon="8.942069013941175"><ele>306.0</ele><time>2026-04-25T12:57:31Z</time></trkpt><trkpt lat="44.62882007037598" lon="8.941967339104256"><ele>303.0</ele><time>2026-04-25T12:57:32Z</time></trkpt><trkpt lat="44.62896722497896" lon="8.941863768021493"><ele>303.0</ele><time>2026-04-25T12:57:33Z</time></trkpt><trkpt lat="44.62911563336391" lon="8.941758671615993"><ele>303.0</ele><time>2026-04-25T12:57:34Z</time></trkpt><trkpt lat="44.62926740278238" lon="8.941653568977758"><ele>303.0</ele><time>2026-04-25T12:57:35Z</time></trkpt><trkpt lat="44.629417538435895" lon="8.941548291614913"><ele>303.0</ele><time>2026-04-25T12:57:36Z</time></trkpt><trkpt lat="44.62956794377703" lon="8.941445836325256"><ele>303.0</ele><time>2026-04-25T12:57:37Z</time></trkpt><trkpt lat="44.629709875493624" lon="8.941338915950222"><ele>303.0</ele><time>2026-04-25T12:57:38Z</time></trkpt><trkpt lat="44.62984748108292" lon="8.941238831073937"><ele>303.0</ele><time>2026-04-25T12:57:39Z</time></trkpt><trkpt lat="44.62997762466833" lon="8.941156508319457"><ele>303.0</ele><time>2026-04-25T12:57:40Z</time></trkpt><trkpt lat="44.63009813652318" lon="8.941104300963184"><ele>303.0</ele><time>2026-04-25T12:57:41Z</time></trkpt><trkpt lat="44.630219408330056" lon="8.941076444106383"><ele>303.0</ele><time>2026-04-25T12:57:42Z</time></trkpt><trkpt lat="44.630338880776954" lon="8.941104709249093"><ele>303.75</ele><time>2026-04-25T12:57:43Z</time></trkpt><trkpt lat="44.63045533412404" lon="8.941160522726255"><ele>304.5</ele><time>2026-04-25T12:57:44Z</time></trkpt><trkpt lat="44.63057587059072" lon="8.941212657108212"><ele>305.25</ele><time>2026-04-25T12:57:45Z</time></trkpt><trkpt lat="44.630703470158984" lon="8.941258380188785"><ele>306.0</ele><time>2026-04-25T12:57:46Z</time></trkpt><trkpt lat="44.63082438563779" lon="8.941310858282868"><ele>306.0</ele><time>2026-04-25T12:57:47Z</time></trkpt><trkpt lat="44.630942328392734" lon="8.94138833013572"><ele>306.0</ele><time>2026-04-25T12:57:48Z</time></trkpt><trkpt lat="44.63106105810621" lon="8.941497800611604"><ele>306.0</ele><time>2026-04-25T12:57:49Z</time></trkpt><trkpt lat="44.63118601980257" lon="8.941618620984967"><ele>306.0</ele><time>2026-04-25T12:57:50Z</time></trkpt><trkpt lat="44.63131274526317" lon="8.941731952985295"><ele>305.6666666666667</ele><time>2026-04-25T12:57:51Z</time></trkpt><trkpt lat="44.63144496799588" lon="8.94184982677791"><ele>305.33333333333337</ele><time>2026-04-25T12:57:52Z</time></trkpt><trkpt lat="44.63157833158033" lon="8.941975641535299"><ele>305.0</ele><time>2026-04-25T12:57:53Z</time></trkpt><trkpt lat="44.631712378022826" lon="8.94208849976737"><ele>305.0</ele><time>2026-04-25T12:57:54Z</time></trkpt><trkpt lat="44.631843721703184" lon="8.942184226116598"><ele>305.0</ele><time>2026-04-25T12:57:55Z</time></trkpt><trkpt lat="44.63197609423295" lon="8.94226097435405"><ele>305.0</ele><time>2026-04-25T12:57:56Z</time></trkpt><trkpt lat="44.63209916458509" lon="8.942333764434007"><ele>305.0</ele><time>2026-04-25T12:57:57Z</time></trkpt><trkpt lat="44.63221015626469" lon="8.942434861639457"><ele>306.0</ele><time>2026-04-25T12:57:58Z</time></trkpt><trkpt lat="44.63230200137939" lon="8.942573211983017"><ele>307.0</ele><time>2026-04-25T12:57:59Z</time></trkpt><trkpt lat="44.632389507339546" lon="8.942732680294961"><ele>308.0</ele><time>2026-04-25T12:58:00Z</time></trkpt><trkpt lat="44.63247535891834" lon="8.94289764940241"><ele>309.0</ele><time>2026-04-25T12:58:01Z</time></trkpt><trkpt lat="44.63256318202034" lon="8.943050734758748"><ele>309.0</ele><time>2026-04-25T12:58:02Z</time></trkpt><trkpt lat="44.63264525236308" lon="8.943195531391531"><ele>309.0</ele><time>2026-04-25T12:58:03Z</time></trkpt><trkpt lat="44.632724332217336" lon="8.943337191665353"><ele>309.0</ele><time>2026-04-25T12:58:04Z</time></trkpt><trkpt lat="44.63280615718717" lon="8.943478134001825"><ele>309.0</ele><time>2026-04-25T12:58:05Z</time></trkpt><trkpt lat="44.632888369360735" lon="8.943619018736555"><ele>310.0</ele><time>2026-04-25T12:58:06Z</time></trkpt><trkpt lat="44.63297253744097" lon="8.943760980144953"><ele>311.0</ele><time>2026-04-25T12:58:07Z</time></trkpt><trkpt lat="44.633053494224" lon="8.94390657906399"><ele>312.0</ele><time>2026-04-25T12:58:08Z</time></trkpt><trkpt lat="44.63312830334328" lon="8.944043936747116"><ele>313.0</ele><time>2026-04-25T12:58:09Z</time></trkpt><trkpt lat="44.633203178475334" lon="8.944175306631605"><ele>311.25</ele><time>2026-04-25T12:58:10Z</time></trkpt><trkpt lat="44.63327298201413" lon="8.944303054655395"><ele>309.5</ele><time>2026-04-25T12:58:11Z</time></trkpt><trkpt lat="44.63334578219627" lon="8.944434230177183"><ele>307.75</ele><time>2026-04-25T12:58:12Z</time></trkpt><trkpt lat="44.63342377354286" lon="8.944567790211712"><ele>306.0</ele><time>2026-04-25T12:58:13Z</time></trkpt><trkpt lat="44.63350448018557" lon="8.944703810559224"><ele>306.0</ele><time>2026-04-25T12:58:14Z</time></trkpt><trkpt lat="44.633593173119586" lon="8.944845942294572"><ele>306.0</ele><time>2026-04-25T12:58:15Z</time></trkpt><trkpt lat="44.6336721232139" lon="8.94498876317297"><ele>306.0</ele><time>2026-04-25T12:58:16Z</time></trkpt><trkpt lat="44.63374483486548" lon="8.945124109250328"><ele>306.0</ele><time>2026-04-25T12:58:17Z</time></trkpt><trkpt lat="44.63381693905645" lon="8.945251273371467"><ele>307.5</ele><time>2026-04-25T12:58:18Z</time></trkpt><trkpt lat="44.63388839504766" lon="8.945371769581373"><ele>309.0</ele><time>2026-04-25T12:58:19Z</time></trkpt><trkpt lat="44.63396126710936" lon="8.945492255771478"><ele>310.5</ele><time>2026-04-25T12:58:20Z</time></trkpt><trkpt lat="44.63403668260326" lon="8.945609512940534"><ele>312.0</ele><time>2026-04-25T12:58:21Z</time></trkpt><trkpt lat="44.634121306520086" lon="8.945727786651632"><ele>312.0</ele><time>2026-04-25T12:58:22Z</time></trkpt><trkpt lat="44.63421447504004" lon="8.945844937694945"><ele>312.0</ele><time>2026-04-25T12:58:23Z</time></trkpt><trkpt lat="44.634312465786664" lon="8.945951346419713"><ele>312.0</ele><time>2026-04-25T12:58:24Z</time></trkpt><trkpt lat="44.63440987575071" lon="8.946058274484757"><ele>312.0</ele><time>2026-04-25T12:58:25Z</time></trkpt><trkpt lat="44.63449392131027" lon="8.946190020036738"><ele>315.5</ele><time>2026-04-25T12:58:26Z</time></trkpt><trkpt lat="44.63456078968562" lon="8.946346145162156"><ele>319.0</ele><time>2026-04-25T12:58:27Z</time></trkpt><trkpt lat="44.634618939277274" lon="8.94649631167933"><ele>322.5</ele><time>2026-04-25T12:58:28Z</time></trkpt><trkpt lat="44.63466766640103" lon="8.946640353741468"><ele>326.0</ele><time>2026-04-25T12:58:29Z</time></trkpt><trkpt lat="44.63470840903458" lon="8.946790405382023"><ele>326.0</ele><time>2026-04-25T12:58:30Z</time></trkpt><trkpt lat="44.63474148565025" lon="8.946948806580215"><ele>326.0</ele><time>2026-04-25T12:58:31Z</time></trkpt><trkpt lat="44.63476750405754" lon="8.947115532666002"><ele>326.0</ele><time>2026-04-25T12:58:32Z</time></trkpt><trkpt lat="44.634791856035015" lon="8.947285824957492"><ele>326.0</ele><time>2026-04-25T12:58:33Z</time></trkpt><trkpt lat="44.63482088292404" lon="8.947458673719531"><ele>323.75</ele><time>2026-04-25T12:58:34Z</time></trkpt><trkpt lat="44.634849007258644" lon="8.947630026465793"><ele>321.5</ele><time>2026-04-25T12:58:35Z</time></trkpt><trkpt lat="44.63487280969503" lon="8.947790669467027"><ele>319.25</ele><time>2026-04-25T12:58:36Z</time></trkpt><trkpt lat="44.63488864179487" lon="8.947951181883962"><ele>317.0</ele><time>2026-04-25T12:58:37Z</time></trkpt><trkpt lat="44.63489142766641" lon="8.948121957378385"><ele>317.0</ele><time>2026-04-25T12:58:38Z</time></trkpt><trkpt lat="44.63488855538901" lon="8.948297832901867"><ele>317.0</ele><time>2026-04-25T12:58:39Z</time></trkpt><trkpt lat="44.63488367425113" lon="8.948464347339328"><ele>317.0</ele><time>2026-04-25T12:58:40Z</time></trkpt><trkpt lat="44.6348817383046" lon="8.948619200978467"><ele>317.0</ele><time>2026-04-25T12:58:41Z</time></trkpt><trkpt lat="44.63488153982575" lon="8.948774734283273"><ele>314.8</ele><time>2026-04-25T12:58:42Z</time></trkpt><trkpt lat="44.63487760759954" lon="8.9489256109374"><ele>312.6</ele><time>2026-04-25T12:58:43Z</time></trkpt><trkpt lat="44.63488304285876" lon="8.949073531106285"><ele>310.40000000000003</ele><time>2026-04-25T12:58:44Z</time></trkpt><trkpt lat="44.634913932132946" lon="8.949204573301577"><ele>308.2</ele><time>2026-04-25T12:58:45Z</time></trkpt><trkpt lat="44.634966009091016" lon="8.949321391055529"><ele>306.0</ele><time>2026-04-25T12:58:46Z</time></trkpt><trkpt lat="44.6350394885664" lon="8.949431627260061"><ele>307.0</ele><time>2026-04-25T12:58:47Z</time></trkpt><trkpt lat="44.635127487144814" lon="8.949535911662586"><ele>308.0</ele><time>2026-04-25T12:58:48Z</time></trkpt><trkpt lat="44.63522755907261" lon="8.949636754357192"><ele>309.0</ele><time>2026-04-25T12:58:49Z</time></trkpt><trkpt lat="44.6353403936132" lon="8.949737907564103"><ele>310.0</ele><time>2026-04-25T12:58:50Z</time></trkpt><trkpt lat="44.63546373087689" lon="8.949836343345405"><ele>310.0</ele><time>2026-04-25T12:58:51Z</time></trkpt><trkpt lat="44.635591156344276" lon="8.94994256775429"><ele>310.0</ele><time>2026-04-25T12:58:52Z</time></trkpt><trkpt lat="44.63572093231446" lon="8.950056978989704"><ele>310.0</ele><time>2026-04-25T12:58:53Z</time></trkpt><trkpt lat="44.63584082519562" lon="8.950164998769367"><ele>310.0</ele><time>2026-04-25T12:58:54Z</time></trkpt><trkpt lat="44.63594871952151" lon="8.950263841250793"><ele>309.25</ele><time>2026-04-25T12:58:55Z</time></trkpt><trkpt lat="44.63605611680484" lon="8.950363830525964"><ele>308.5</ele><time>2026-04-25T12:58:56Z</time></trkpt><trkpt lat="44.63615587134671" lon="8.950453214253592"><ele>307.75</ele><time>2026-04-25T12:58:57Z</time></trkpt><trkpt lat="44.63625403260651" lon="8.9505432057875"><ele>307.0</ele><time>2026-04-25T12:58:58Z</time></trkpt><trkpt lat="44.636354791829746" lon="8.950632550286013"><ele>307.0</ele><time>2026-04-25T12:58:59Z</time></trkpt><trkpt lat="44.63645563792789" lon="8.95072757743858"><ele>307.0</ele><time>2026-04-25T12:59:00Z</time></trkpt><trkpt lat="44.63655933035894" lon="8.950827755921402"><ele>307.0</ele><time>2026-04-25T12:59:01Z</time></trkpt><trkpt lat="44.63666536495139" lon="8.950926119639284"><ele>307.0</ele><time>2026-04-25T12:59:02Z</time></trkpt><trkpt lat="44.636778777226866" lon="8.95102138104972"><ele>306.0</ele><time>2026-04-25T12:59:03Z</time></trkpt><trkpt lat="44.636891357240906" lon="8.95112369972214"><ele>305.0</ele><time>2026-04-25T12:59:04Z</time></trkpt><trkpt lat="44.63700056081451" lon="8.951222294679539"><ele>304.0</ele><time>2026-04-25T12:59:05Z</time></trkpt><trkpt lat="44.63711249535799" lon="8.95132128489645"><ele>303.0</ele><time>2026-04-25T12:59:06Z</time></trkpt><trkpt lat="44.637225630599254" lon="8.951416119300726"><ele>303.0</ele><time>2026-04-25T12:59:07Z</time></trkpt><trkpt lat="44.637334666798075" lon="8.951511238781372"><ele>303.0</ele><time>2026-04-25T12:59:08Z</time></trkpt><trkpt lat="44.63743448213401" lon="8.951597793565798"><ele>303.0</ele><time>2026-04-25T12:59:09Z</time></trkpt><trkpt lat="44.63753568414257" lon="8.951669974942723"><ele>303.0</ele><time>2026-04-25T12:59:10Z</time></trkpt><trkpt lat="44.63763722536782" lon="8.951728220634283"><ele>302.2</ele><time>2026-04-25T12:59:11Z</time></trkpt><trkpt lat="44.637734751056605" lon="8.951779598550809"><ele>301.4</ele><time>2026-04-25T12:59:12Z</time></trkpt><trkpt lat="44.63782712697976" lon="8.951822860179343"><ele>300.59999999999997</ele><time>2026-04-25T12:59:13Z</time></trkpt><trkpt lat="44.63791894641434" lon="8.95186468970829"><ele>299.8</ele><time>2026-04-25T12:59:14Z</time></trkpt><trkpt lat="44.63801361810495" lon="8.951902758562635"><ele>299.0</ele><time>2026-04-25T12:59:15Z</time></trkpt><trkpt lat="44.638114840600515" lon="8.951938549095788"><ele>299.0</ele><time>2026-04-25T12:59:16Z</time></trkpt><trkpt lat="44.63821953627791" lon="8.95198186998221"><ele>299.0</ele><time>2026-04-25T12:59:17Z</time></trkpt><trkpt lat="44.63832645855954" lon="8.952027035772991"><ele>299.0</ele><time>2026-04-25T12:59:18Z</time></trkpt><trkpt lat="44.638435225477004" lon="8.95207113146348"><ele>299.0</ele><time>2026-04-25T12:59:19Z</time></trkpt><trkpt lat="44.638542857527774" lon="8.952117449514084"><ele>299.0</ele><time>2026-04-25T12:59:20Z</time></trkpt><trkpt lat="44.638651248070204" lon="8.952162033187783"><ele>300.0</ele><time>2026-04-25T12:59:21Z</time></trkpt><trkpt lat="44.63876130472332" lon="8.952204933576075"><ele>301.0</ele><time>2026-04-25T12:59:22Z</time></trkpt><trkpt lat="44.63887210117494" lon="8.952250835991025"><ele>302.0</ele><time>2026-04-25T12:59:23Z</time></trkpt><trkpt lat="44.63898271778349" lon="8.952298478550723"><ele>303.0</ele><time>2026-04-25T12:59:24Z</time></trkpt><trkpt lat="44.63909172068174" lon="8.952349527548003"><ele>303.0</ele><time>2026-04-25T12:59:25Z</time></trkpt><trkpt lat="44.639204312977775" lon="8.952392994791346"><ele>303.0</ele><time>2026-04-25T12:59:26Z</time></trkpt><trkpt lat="44.639315416048866" lon="8.95244308529255"><ele>303.0</ele><time>2026-04-25T12:59:27Z</time></trkpt><trkpt lat="44.63942979044614" lon="8.952489737281994"><ele>303.0</ele><time>2026-04-25T12:59:28Z</time></trkpt><trkpt lat="44.63954153600436" lon="8.952532796276639"><ele>301.0</ele><time>2026-04-25T12:59:29Z</time></trkpt><trkpt lat="44.63964720436037" lon="8.95257354074598"><ele>299.0</ele><time>2026-04-25T12:59:30Z</time></trkpt><trkpt lat="44.63975102515687" lon="8.952612463679568"><ele>297.0</ele><time>2026-04-25T12:59:31Z</time></trkpt><trkpt lat="44.639852428476935" lon="8.952641688281577"><ele>295.0</ele><time>2026-04-25T12:59:32Z</time></trkpt><trkpt lat="44.639939081690905" lon="8.952671576013994"><ele>293.0</ele><time>2026-04-25T12:59:33Z</time></trkpt><trkpt lat="44.640015306224456" lon="8.952691351980471"><ele>293.0</ele><time>2026-04-25T12:59:34Z</time></trkpt><trkpt lat="44.640120569122494" lon="8.952718469812948"><ele>293.0</ele><time>2026-04-25T12:59:36Z</time></trkpt><trkpt lat="44.640200218335316" lon="8.952740334617618"><ele>293.0</ele><time>2026-04-25T12:59:38Z</time></trkpt><trkpt lat="44.640275590151234" lon="8.95279000706033"><ele>293.0</ele><time>2026-04-25T12:59:40Z</time></trkpt><trkpt lat="44.640350789525684" lon="8.95280066681763"><ele>293.0</ele><time>2026-04-25T12:59:42Z</time></trkpt><trkpt lat="44.640391230317086" lon="8.952602425231506"><ele>296.57142857142856</ele><time>2026-04-25T12:59:43Z</time></trkpt><trkpt lat="44.640423499893" lon="8.952512252807006"><ele>300.1428571428571</ele><time>2026-04-25T12:59:44Z</time></trkpt><trkpt lat="44.640453304153496" lon="8.952418069741295"><ele>303.71428571428567</ele><time>2026-04-25T12:59:45Z</time></trkpt><trkpt lat="44.640496212319434" lon="8.952345689354916"><ele>307.2857142857143</ele><time>2026-04-25T12:59:46Z</time></trkpt><trkpt lat="44.64054898606567" lon="8.9522771063661"><ele>310.8571428571429</ele><time>2026-04-25T12:59:47Z</time></trkpt><trkpt lat="44.640617921892364" lon="8.952250260188038"><ele>314.4285714285714</ele><time>2026-04-25T12:59:48Z</time></trkpt><trkpt lat="44.640689293877685" lon="8.952275827533224"><ele>318.0</ele><time>2026-04-25T12:59:49Z</time></trkpt><trkpt lat="44.64075738532477" lon="8.952348543339141"><ele>318.0</ele><time>2026-04-25T12:59:50Z</time></trkpt><trkpt lat="44.64082964987005" lon="8.952434804048467"><ele>318.0</ele><time>2026-04-25T12:59:51Z</time></trkpt><trkpt lat="44.64090079015533" lon="8.95255333983526"><ele>318.0</ele><time>2026-04-25T12:59:52Z</time></trkpt><trkpt lat="44.640947779641934" lon="8.952693229670958"><ele>318.0</ele><time>2026-04-25T12:59:53Z</time></trkpt><trkpt lat="44.640990837230035" lon="8.952841170374478"><ele>318.0</ele><time>2026-04-25T12:59:54Z</time></trkpt><trkpt lat="44.64102775563668" lon="8.952983787811405"><ele>312.5</ele><time>2026-04-25T12:59:55Z</time></trkpt><trkpt lat="44.64106250718254" lon="8.953134999452471"><ele>307.0</ele><time>2026-04-25T12:59:56Z</time></trkpt><trkpt lat="44.641097276440235" lon="8.953286217389733"><ele>301.5</ele><time>2026-04-25T12:59:57Z</time></trkpt><trkpt lat="44.64113294652367" lon="8.953440736978278"><ele>296.0</ele><time>2026-04-25T12:59:58Z</time></trkpt><trkpt lat="44.64117246533159" lon="8.953614592438806"><ele>297.6666666666667</ele><time>2026-04-25T12:59:59Z</time></trkpt><trkpt lat="44.641221235965794" lon="8.953826626405611"><ele>299.3333333333333</ele><time>2026-04-25T13:00:00Z</time></trkpt><trkpt lat="44.64127710803941" lon="8.954062139679547"><ele>301.0</ele><time>2026-04-25T13:00:01Z</time></trkpt><trkpt lat="44.64134319903085" lon="8.954271398242673"><ele>301.0</ele><time>2026-04-25T13:00:02Z</time></trkpt><trkpt lat="44.6413855873258" lon="8.954473974643317"><ele>301.0</ele><time>2026-04-25T13:00:03Z</time></trkpt><trkpt lat="44.641427887011716" lon="8.95466041516886"><ele>301.0</ele><time>2026-04-25T13:00:04Z</time></trkpt><trkpt lat="44.64146189719241" lon="8.954832549502065"><ele>301.0</ele><time>2026-04-25T13:00:05Z</time></trkpt><trkpt lat="44.64145989514832" lon="8.955006200994523"><ele>301.25</ele><time>2026-04-25T13:00:06Z</time></trkpt><trkpt lat="44.64141919480961" lon="8.955169929681519"><ele>301.5</ele><time>2026-04-25T13:00:07Z</time></trkpt><trkpt lat="44.641351930620175" lon="8.955323998183095"><ele>301.75</ele><time>2026-04-25T13:00:08Z</time></trkpt><trkpt lat="44.641312224400785" lon="8.955472514031088"><ele>302.0</ele><time>2026-04-25T13:00:09Z</time></trkpt><trkpt lat="44.641312044764184" lon="8.955616788948355"><ele>302.0</ele><time>2026-04-25T13:00:10Z</time></trkpt><trkpt lat="44.64136184783182" lon="8.95572916542241"><ele>302.0</ele><time>2026-04-25T13:00:11Z</time></trkpt><trkpt lat="44.64142411220711" lon="8.95584217545831"><ele>302.0</ele><time>2026-04-25T13:00:12Z</time></trkpt><trkpt lat="44.641491826942016" lon="8.95596711892871"><ele>302.0</ele><time>2026-04-25T13:00:13Z</time></trkpt><trkpt lat="44.64158551179214" lon="8.956081096304787"><ele>302.0</ele><time>2026-04-25T13:00:14Z</time></trkpt><trkpt lat="44.64169818194445" lon="8.956166535220875"><ele>302.25</ele><time>2026-04-25T13:00:15Z</time></trkpt><trkpt lat="44.64181811269008" lon="8.956193212141654"><ele>302.5</ele><time>2026-04-25T13:00:16Z</time></trkpt><trkpt lat="44.6419030096634" lon="8.956288402876245"><ele>302.75</ele><time>2026-04-25T13:00:17Z</time></trkpt><trkpt lat="44.64195769355983" lon="8.956430781255664"><ele>303.0</ele><time>2026-04-25T13:00:18Z</time></trkpt><trkpt lat="44.6420207317296" lon="8.956575088395681"><ele>303.4</ele><time>2026-04-25T13:00:19Z</time></trkpt><trkpt lat="44.64209483237278" lon="8.95671804899738"><ele>303.8</ele><time>2026-04-25T13:00:20Z</time></trkpt><trkpt lat="44.64215256593279" lon="8.956856456198034"><ele>304.2</ele><time>2026-04-25T13:00:21Z</time></trkpt><trkpt lat="44.64221829310645" lon="8.956972410585719"><ele>304.6</ele><time>2026-04-25T13:00:22Z</time></trkpt><trkpt lat="44.64228830171744" lon="8.95706983081674"><ele>305.0</ele><time>2026-04-25T13:00:23Z</time></trkpt><trkpt lat="44.64235630226635" lon="8.957167014872926"><ele>305.0</ele><time>2026-04-25T13:00:24Z</time></trkpt><trkpt lat="44.64243709658814" lon="8.957253199000304"><ele>305.0</ele><time>2026-04-25T13:00:25Z</time></trkpt><trkpt lat="44.64252075261068" lon="8.957341748562506"><ele>305.0</ele><time>2026-04-25T13:00:26Z</time></trkpt><trkpt lat="44.64261511088717" lon="8.95742743523131"><ele>305.0</ele><time>2026-04-25T13:00:27Z</time></trkpt><trkpt lat="44.642718444820936" lon="8.95750681695582"><ele>305.0</ele><time>2026-04-25T13:00:28Z</time></trkpt><trkpt lat="44.6428298268075" lon="8.957573710764406"><ele>306.6</ele><time>2026-04-25T13:00:29Z</time></trkpt><trkpt lat="44.64293622250621" lon="8.957627897536215"><ele>308.2</ele><time>2026-04-25T13:00:30Z</time></trkpt><trkpt lat="44.64304387512395" lon="8.9576449783507"><ele>309.8</ele><time>2026-04-25T13:00:31Z</time></trkpt><trkpt lat="44.643143359110766" lon="8.957649063370676"><ele>311.4</ele><time>2026-04-25T13:00:32Z</time></trkpt><trkpt lat="44.64324477855699" lon="8.957621841039845"><ele>313.0</ele><time>2026-04-25T13:00:33Z</time></trkpt><trkpt lat="44.64333569474719" lon="8.957610864335116"><ele>313.0</ele><time>2026-04-25T13:00:34Z</time></trkpt><trkpt lat="44.643418290363115" lon="8.95761992887379"><ele>313.0</ele><time>2026-04-25T13:00:35Z</time></trkpt><trkpt lat="44.64350642105378" lon="8.957673651642143"><ele>313.0</ele><time>2026-04-25T13:00:36Z</time></trkpt><trkpt lat="44.643587616774674" lon="8.957762626253784"><ele>313.0</ele><time>2026-04-25T13:00:37Z</time></trkpt><trkpt lat="44.6436762221361" lon="8.957876475332164"><ele>313.0</ele><time>2026-04-25T13:00:38Z</time></trkpt><trkpt lat="44.64376826772283" lon="8.958000244183692"><ele>310.5</ele><time>2026-04-25T13:00:39Z</time></trkpt><trkpt lat="44.64386887411897" lon="8.958116491623418"><ele>308.0</ele><time>2026-04-25T13:00:40Z</time></trkpt><trkpt lat="44.64393674513296" lon="8.958268251840888"><ele>305.5</ele><time>2026-04-25T13:00:41Z</time></trkpt><trkpt lat="44.64401918576668" lon="8.958382904153067"><ele>303.0</ele><time>2026-04-25T13:00:42Z</time></trkpt><trkpt lat="44.64410837377852" lon="8.95846120031633"><ele>301.6666666666667</ele><time>2026-04-25T13:00:43Z</time></trkpt><trkpt lat="44.64417287304652" lon="8.95855613748649"><ele>300.3333333333333</ele><time>2026-04-25T13:00:44Z</time></trkpt><trkpt lat="44.64424350425294" lon="8.958615955060461"><ele>299.0</ele><time>2026-04-25T13:00:45Z</time></trkpt><trkpt lat="44.64430665078079" lon="8.958645434050728"><ele>297.66666666666663</ele><time>2026-04-25T13:00:46Z</time></trkpt><trkpt lat="44.644379824786306" lon="8.958651831917246"><ele>296.3333333333333</ele><time>2026-04-25T13:00:47Z</time></trkpt><trkpt lat="44.64444433604094" lon="8.958655649642802"><ele>295.0</ele><time>2026-04-25T13:00:48Z</time></trkpt><trkpt lat="44.64452209743218" lon="8.95868098503884"><ele>295.0</ele><time>2026-04-25T13:00:50Z</time></trkpt><trkpt lat="44.64451303048812" lon="8.958796316093089"><ele>295.0</ele><time>2026-04-25T13:00:52Z</time></trkpt><trkpt lat="44.644401552721156" lon="8.958764450779794"><ele>295.0</ele><time>2026-04-25T13:00:54Z</time></trkpt><trkpt lat="44.64434400019129" lon="8.958721999019751"><ele>295.0</ele><time>2026-04-25T13:00:55Z</time></trkpt><trkpt lat="44.64426328842197" lon="8.95868811735291"><ele>295.0</ele><time>2026-04-25T13:00:56Z</time></trkpt><trkpt lat="44.644182304255345" lon="8.958670903488263"><ele>295.0</ele><time>2026-04-25T13:00:57Z</time></trkpt><trkpt lat="44.64409952114481" lon="8.958696106724245"><ele>295.0</ele><time>2026-04-25T13:00:58Z</time></trkpt><trkpt lat="44.644020266125644" lon="8.95875114562955"><ele>295.0</ele><time>2026-04-25T13:00:59Z</time></trkpt><trkpt lat="44.64395887342157" lon="8.95882945850262"><ele>295.0</ele><time>2026-04-25T13:01:00Z</time></trkpt><trkpt lat="44.64385966696746" lon="8.958953199246576"><ele>295.0</ele><time>2026-04-25T13:01:01Z</time></trkpt><trkpt lat="44.64380903005933" lon="8.959073982104279"><ele>295.0</ele><time>2026-04-25T13:01:02Z</time></trkpt><trkpt lat="44.64377679646094" lon="8.959196772438823"><ele>294.6</ele><time>2026-04-25T13:01:03Z</time></trkpt><trkpt lat="44.64377093618535" lon="8.959332946170457"><ele>294.2</ele><time>2026-04-25T13:01:04Z</time></trkpt><trkpt lat="44.64374733111133" lon="8.959448133468488"><ele>293.8</ele><time>2026-04-25T13:01:05Z</time></trkpt><trkpt lat="44.64368557225657" lon="8.95959281929757"><ele>293.4</ele><time>2026-04-25T13:01:07Z</time></trkpt><trkpt lat="44.64360911377626" lon="8.959647637678685"><ele>293.0</ele><time>2026-04-25T13:01:08Z</time></trkpt><trkpt lat="44.643501755948215" lon="8.959711470469385"><ele>297.6666666666667</ele><time>2026-04-25T13:01:09Z</time></trkpt><trkpt lat="44.64337400426116" lon="8.959781345390663"><ele>302.3333333333333</ele><time>2026-04-25T13:01:10Z</time></trkpt><trkpt lat="44.64322743955201" lon="8.959867500328508"><ele>307.0</ele><time>2026-04-25T13:01:11Z</time></trkpt><trkpt lat="44.643086562369035" lon="8.959959177814971"><ele>303.66666666666663</ele><time>2026-04-25T13:01:12Z</time></trkpt><trkpt lat="44.64294904466976" lon="8.960064608851859"><ele>300.3333333333333</ele><time>2026-04-25T13:01:13Z</time></trkpt><trkpt lat="44.64280846803781" lon="8.960190762810484"><ele>297.0</ele><time>2026-04-25T13:01:14Z</time></trkpt><trkpt lat="44.64267646911097" lon="8.960332746944333"><ele>304.3333333333333</ele><time>2026-04-25T13:01:15Z</time></trkpt><trkpt lat="44.642569698913" lon="8.960478978543161"><ele>311.66666666666663</ele><time>2026-04-25T13:01:16Z</time></trkpt><trkpt lat="44.6424714150741" lon="8.960636828351143"><ele>319.0</ele><time>2026-04-25T13:01:17Z</time></trkpt><trkpt lat="44.642383635997234" lon="8.960810592911832"><ele>315.66666666666663</ele><time>2026-04-25T13:01:18Z</time></trkpt><trkpt lat="44.64229884140733" lon="8.961007407874936"><ele>312.3333333333333</ele><time>2026-04-25T13:01:19Z</time></trkpt><trkpt lat="44.64221741552574" lon="8.961233825272982"><ele>309.0</ele><time>2026-04-25T13:01:20Z</time></trkpt><trkpt lat="44.64214980433451" lon="8.96147241594123"><ele>308.3333333333333</ele><time>2026-04-25T13:01:21Z</time></trkpt><trkpt lat="44.64207581919633" lon="8.96172119816"><ele>307.66666666666663</ele><time>2026-04-25T13:01:22Z</time></trkpt><trkpt lat="44.64200723072687" lon="8.961967017599598"><ele>307.0</ele><time>2026-04-25T13:01:23Z</time></trkpt><trkpt lat="44.64194469708262" lon="8.962215526109075"><ele>313.3333333333333</ele><time>2026-04-25T13:01:24Z</time></trkpt><trkpt lat="44.64189221235724" lon="8.962459202914799"><ele>319.6666666666667</ele><time>2026-04-25T13:01:25Z</time></trkpt><trkpt lat="44.641837347755285" lon="8.96269650120791"><ele>326.0</ele><time>2026-04-25T13:01:26Z</time></trkpt><trkpt lat="44.64177347998912" lon="8.962930432456268"><ele>326.0</ele><time>2026-04-25T13:01:27Z</time></trkpt><trkpt lat="44.64170886996149" lon="8.963149649813504"><ele>326.0</ele><time>2026-04-25T13:01:28Z</time></trkpt><trkpt lat="44.641654646881484" lon="8.963368953917714"><ele>326.0</ele><time>2026-04-25T13:01:29Z</time></trkpt><trkpt lat="44.64162273318871" lon="8.96359379039275"><ele>322.6666666666667</ele><time>2026-04-25T13:01:30Z</time></trkpt><trkpt lat="44.64159799134177" lon="8.963826483493362"><ele>319.3333333333333</ele><time>2026-04-25T13:01:31Z</time></trkpt><trkpt lat="44.64156935606441" lon="8.96406284964898"><ele>316.0</ele><time>2026-04-25T13:01:32Z</time></trkpt><trkpt lat="44.641521703162425" lon="8.964277138046082"><ele>315.0</ele><time>2026-04-25T13:01:33Z</time></trkpt><trkpt lat="44.641521174279724" lon="8.964482153188113"><ele>314.0</ele><time>2026-04-25T13:01:34Z</time></trkpt><trkpt lat="44.64150579619187" lon="8.964680093428399"><ele>313.0</ele><time>2026-04-25T13:01:35Z</time></trkpt><trkpt lat="44.64145205801204" lon="8.964855776347843"><ele>312.0</ele><time>2026-04-25T13:01:36Z</time></trkpt><trkpt lat="44.641406548689055" lon="8.965024976053812"><ele>311.75</ele><time>2026-04-25T13:01:37Z</time></trkpt><trkpt lat="44.641388277725106" lon="8.965197336668627"><ele>311.5</ele><time>2026-04-25T13:01:38Z</time></trkpt><trkpt lat="44.641381156238644" lon="8.965374746979183"><ele>311.25</ele><time>2026-04-25T13:01:39Z</time></trkpt><trkpt lat="44.64137389840748" lon="8.965573683774533"><ele>311.0</ele><time>2026-04-25T13:01:40Z</time></trkpt><trkpt lat="44.64139199411816" lon="8.965770366294372"><ele>310.25</ele><time>2026-04-25T13:01:41Z</time></trkpt><trkpt lat="44.64139316866265" lon="8.96596229177696"><ele>309.5</ele><time>2026-04-25T13:01:42Z</time></trkpt><trkpt lat="44.64137125216859" lon="8.966152095964308"><ele>308.75</ele><time>2026-04-25T13:01:43Z</time></trkpt><trkpt lat="44.64131511341533" lon="8.966333870913887"><ele>308.0</ele><time>2026-04-25T13:01:44Z</time></trkpt><trkpt lat="44.64127349337864" lon="8.966518299969188"><ele>308.0</ele><time>2026-04-25T13:01:45Z</time></trkpt><trkpt lat="44.64123370804583" lon="8.966681115046649"><ele>308.0</ele><time>2026-04-25T13:01:46Z</time></trkpt><trkpt lat="44.64122751376185" lon="8.966869250115954"><ele>308.0</ele><time>2026-04-25T13:01:47Z</time></trkpt><trkpt lat="44.64125993787955" lon="8.967087396136764"><ele>308.0</ele><time>2026-04-25T13:01:48Z</time></trkpt><trkpt lat="44.64132130157762" lon="8.967314212069173"><ele>311.33333333333337</ele><time>2026-04-25T13:01:49Z</time></trkpt><trkpt lat="44.64137020870229" lon="8.967553706995535"><ele>314.6666666666667</ele><time>2026-04-25T13:01:50Z</time></trkpt><trkpt lat="44.6414343737423" lon="8.967768043033177"><ele>318.0</ele><time>2026-04-25T13:01:51Z</time></trkpt><trkpt lat="44.64148730398113" lon="8.967958007884333"><ele>318.0</ele><time>2026-04-25T13:01:52Z</time></trkpt><trkpt lat="44.64154433185486" lon="8.96812545222888"><ele>318.0</ele><time>2026-04-25T13:01:53Z</time></trkpt><trkpt lat="44.641526752515496" lon="8.96829439430089"><ele>318.0</ele><time>2026-04-25T13:01:54Z</time></trkpt><trkpt lat="44.64150561450022" lon="8.968471787869241"><ele>318.0</ele><time>2026-04-25T13:01:55Z</time></trkpt><trkpt lat="44.64148180050931" lon="8.968660571753425"><ele>315.5</ele><time>2026-04-25T13:01:56Z</time></trkpt><trkpt lat="44.641467034395994" lon="8.968854056086128"><ele>313.0</ele><time>2026-04-25T13:01:57Z</time></trkpt><trkpt lat="44.64142386365233" lon="8.969019858918077"><ele>310.5</ele><time>2026-04-25T13:01:58Z</time></trkpt><trkpt lat="44.6413596920685" lon="8.969134297489035"><ele>308.0</ele><time>2026-04-25T13:01:59Z</time></trkpt><trkpt lat="44.64127288028871" lon="8.96921770709124"><ele>309.0</ele><time>2026-04-25T13:02:00Z</time></trkpt><trkpt lat="44.64116248229851" lon="8.96927762707867"><ele>310.0</ele><time>2026-04-25T13:02:01Z</time></trkpt><trkpt lat="44.641031124777214" lon="8.9693288456431"><ele>311.0</ele><time>2026-04-25T13:02:02Z</time></trkpt><trkpt lat="44.64088399989209" lon="8.969385375404132"><ele>312.0</ele><time>2026-04-25T13:02:03Z</time></trkpt><trkpt lat="44.64073422481765" lon="8.969447775503497"><ele>312.0</ele><time>2026-04-25T13:02:04Z</time></trkpt><trkpt lat="44.640581408296555" lon="8.969525737977829"><ele>312.0</ele><time>2026-04-25T13:02:05Z</time></trkpt><trkpt lat="44.6404362234618" lon="8.969591524753994"><ele>312.0</ele><time>2026-04-25T13:02:06Z</time></trkpt><trkpt lat="44.64030723805008" lon="8.969662945549748"><ele>317.4</ele><time>2026-04-25T13:02:07Z</time></trkpt><trkpt lat="44.64020868540084" lon="8.969729244247137"><ele>322.79999999999995</ele><time>2026-04-25T13:02:08Z</time></trkpt><trkpt lat="44.64013277855592" lon="8.969808924973394"><ele>328.2</ele><time>2026-04-25T13:02:09Z</time></trkpt><trkpt lat="44.64009085723667" lon="8.969907372129468"><ele>333.59999999999997</ele><time>2026-04-25T13:02:10Z</time></trkpt><trkpt lat="44.64006266059612" lon="8.970042226556362"><ele>339.0</ele><time>2026-04-25T13:02:11Z</time></trkpt><trkpt lat="44.64007387560911" lon="8.97020621120607"><ele>341.0</ele><time>2026-04-25T13:02:12Z</time></trkpt><trkpt lat="44.64010707509923" lon="8.970361302268586"><ele>343.0</ele><time>2026-04-25T13:02:13Z</time></trkpt><trkpt lat="44.64011792247212" lon="8.970539086838865"><ele>345.0</ele><time>2026-04-25T13:02:14Z</time></trkpt><trkpt lat="44.640163143909966" lon="8.97072743335137"><ele>347.0</ele><time>2026-04-25T13:02:15Z</time></trkpt><trkpt lat="44.64024786425211" lon="8.970904605156246"><ele>338.25</ele><time>2026-04-25T13:02:16Z</time></trkpt><trkpt lat="44.64031236257271" lon="8.971091908036861"><ele>329.5</ele><time>2026-04-25T13:02:17Z</time></trkpt><trkpt lat="44.640370903622944" lon="8.971258987323225"><ele>320.75</ele><time>2026-04-25T13:02:18Z</time></trkpt><trkpt lat="44.64041752723892" lon="8.971405583603143"><ele>312.0</ele><time>2026-04-25T13:02:19Z</time></trkpt><trkpt lat="44.64043785488845" lon="8.971550911315115"><ele>313.0</ele><time>2026-04-25T13:02:20Z</time></trkpt><trkpt lat="44.640419189757566" lon="8.971696568254707"><ele>314.0</ele><time>2026-04-25T13:02:21Z</time></trkpt><trkpt lat="44.640369447128045" lon="8.971837136465204"><ele>315.0</ele><time>2026-04-25T13:02:22Z</time></trkpt><trkpt lat="44.64029871491483" lon="8.971952776136629"><ele>316.0</ele><time>2026-04-25T13:02:23Z</time></trkpt><trkpt lat="44.640193361842975" lon="8.972063843306497"><ele>315.66666666666663</ele><time>2026-04-25T13:02:24Z</time></trkpt><trkpt lat="44.64008622009325" lon="8.972203355141309"><ele>315.3333333333333</ele><time>2026-04-25T13:02:25Z</time></trkpt><trkpt lat="44.639984811218916" lon="8.972382051523086"><ele>315.0</ele><time>2026-04-25T13:02:26Z</time></trkpt><trkpt lat="44.63989272835959" lon="8.97259602377039"><ele>315.0</ele><time>2026-04-25T13:02:27Z</time></trkpt><trkpt lat="44.63978212763329" lon="8.972819851432916"><ele>315.0</ele><time>2026-04-25T13:02:28Z</time></trkpt><trkpt lat="44.63964656021014" lon="8.97303604127253"><ele>315.0</ele><time>2026-04-25T13:02:29Z</time></trkpt><trkpt lat="44.63951551412839" lon="8.973236146566407"><ele>317.6666666666667</ele><time>2026-04-25T13:02:30Z</time></trkpt><trkpt lat="44.639389245295256" lon="8.97343546492343"><ele>320.33333333333337</ele><time>2026-04-25T13:02:31Z</time></trkpt><trkpt lat="44.63926986127882" lon="8.973615401244862"><ele>323.0</ele><time>2026-04-25T13:02:32Z</time></trkpt><trkpt lat="44.63914801393287" lon="8.973789092795888"><ele>323.0</ele><time>2026-04-25T13:02:33Z</time></trkpt><trkpt lat="44.63903033760834" lon="8.973961175749904"><ele>323.0</ele><time>2026-04-25T13:02:34Z</time></trkpt><trkpt lat="44.63891541564285" lon="8.97413539922337"><ele>323.0</ele><time>2026-04-25T13:02:35Z</time></trkpt><trkpt lat="44.638799506740966" lon="8.974297497547472"><ele>323.0</ele><time>2026-04-25T13:02:36Z</time></trkpt><trkpt lat="44.638694670276195" lon="8.974449430663634"><ele>323.0</ele><time>2026-04-25T13:02:37Z</time></trkpt><trkpt lat="44.63859925014694" lon="8.974601688244572"><ele>323.0</ele><time>2026-04-25T13:02:38Z</time></trkpt><trkpt lat="44.63851245430861" lon="8.974752441503986"><ele>323.0</ele><time>2026-04-25T13:02:39Z</time></trkpt><trkpt lat="44.63842963327946" lon="8.974906191028943"><ele>322.5</ele><time>2026-04-25T13:02:40Z</time></trkpt><trkpt lat="44.638336062585914" lon="8.975064400704687"><ele>322.0</ele><time>2026-04-25T13:02:41Z</time></trkpt><trkpt lat="44.638277249169974" lon="8.97524953010878"><ele>321.5</ele><time>2026-04-25T13:02:42Z</time></trkpt><trkpt lat="44.63823238524251" lon="8.975457986638123"><ele>321.0</ele><time>2026-04-25T13:02:43Z</time></trkpt><trkpt lat="44.638188036132426" lon="8.975677216095871"><ele>322.3333333333333</ele><time>2026-04-25T13:02:44Z</time></trkpt><trkpt lat="44.63814683242527" lon="8.975900370803744"><ele>323.66666666666663</ele><time>2026-04-25T13:02:45Z</time></trkpt><trkpt lat="44.63810352889222" lon="8.976126270586436"><ele>325.0</ele><time>2026-04-25T13:02:46Z</time></trkpt><trkpt lat="44.63805705998744" lon="8.976354165054213"><ele>325.0</ele><time>2026-04-25T13:02:47Z</time></trkpt><trkpt lat="44.638016366104026" lon="8.976575804582584"><ele>325.0</ele><time>2026-04-25T13:02:48Z</time></trkpt><trkpt lat="44.63795638532162" lon="8.976776971276648"><ele>325.0</ele><time>2026-04-25T13:02:49Z</time></trkpt><trkpt lat="44.637908877729494" lon="8.97699980214929"><ele>325.3333333333333</ele><time>2026-04-25T13:02:50Z</time></trkpt><trkpt lat="44.63786272644017" lon="8.977216147578634"><ele>325.6666666666667</ele><time>2026-04-25T13:02:51Z</time></trkpt><trkpt lat="44.63783152119362" lon="8.977449903766583"><ele>326.0</ele><time>2026-04-25T13:02:52Z</time></trkpt><trkpt lat="44.63777801192568" lon="8.977684601512246"><ele>326.0</ele><time>2026-04-25T13:02:53Z</time></trkpt><trkpt lat="44.63772513991457" lon="8.977924297579879"><ele>326.0</ele><time>2026-04-25T13:02:54Z</time></trkpt><trkpt lat="44.63767290637688" lon="8.9781656572983"><ele>326.0</ele><time>2026-04-25T13:02:55Z</time></trkpt><trkpt lat="44.63762072164876" lon="8.978410581055314"><ele>326.0</ele><time>2026-04-25T13:02:56Z</time></trkpt><trkpt lat="44.63756917000096" lon="8.978654742594768"><ele>326.0</ele><time>2026-04-25T13:02:57Z</time></trkpt><trkpt lat="44.6375160081597" lon="8.978884387961214"><ele>326.0</ele><time>2026-04-25T13:02:58Z</time></trkpt><trkpt lat="44.63746995222979" lon="8.979102652557383"><ele>325.25</ele><time>2026-04-25T13:02:59Z</time></trkpt><trkpt lat="44.63742060014178" lon="8.979300060820808"><ele>324.5</ele><time>2026-04-25T13:03:00Z</time></trkpt><trkpt lat="44.637372078646386" lon="8.9794925267263"><ele>323.75</ele><time>2026-04-25T13:03:01Z</time></trkpt><trkpt lat="44.6373160062733" lon="8.979659618888869"><ele>323.0</ele><time>2026-04-25T13:03:02Z</time></trkpt><trkpt lat="44.63724154629895" lon="8.97982580496066"><ele>323.0</ele><time>2026-04-25T13:03:03Z</time></trkpt><trkpt lat="44.63714892892708" lon="8.979976274484793"><ele>323.0</ele><time>2026-04-25T13:03:04Z</time></trkpt><trkpt lat="44.63706331867717" lon="8.980134590359329"><ele>323.0</ele><time>2026-04-25T13:03:05Z</time></trkpt><trkpt lat="44.63697546087423" lon="8.98029404825731"><ele>323.0</ele><time>2026-04-25T13:03:06Z</time></trkpt><trkpt lat="44.636883347606044" lon="8.980416736263281"><ele>323.0</ele><time>2026-04-25T13:03:07Z</time></trkpt><trkpt lat="44.63677344407383" lon="8.980482522159999"><ele>323.0</ele><time>2026-04-25T13:03:08Z</time></trkpt><trkpt lat="44.636629812274776" lon="8.980583542646661"><ele>323.0</ele><time>2026-04-25T13:03:09Z</time></trkpt><trkpt lat="44.636494184136254" lon="8.980683996088047"><ele>323.0</ele><time>2026-04-25T13:03:10Z</time></trkpt><trkpt lat="44.636351137570266" lon="8.980780744709236"><ele>323.0</ele><time>2026-04-25T13:03:11Z</time></trkpt><trkpt lat="44.63620360272128" lon="8.980877919578925"><ele>323.0</ele><time>2026-04-25T13:03:12Z</time></trkpt><trkpt lat="44.636048530206956" lon="8.980979195669121"><ele>323.0</ele><time>2026-04-25T13:03:13Z</time></trkpt><trkpt lat="44.63589085523899" lon="8.981070104722054"><ele>323.0</ele><time>2026-04-25T13:03:14Z</time></trkpt><trkpt lat="44.63572570963174" lon="8.981185669200551"><ele>323.0</ele><time>2026-04-25T13:03:15Z</time></trkpt><trkpt lat="44.6355486563744" lon="8.981316215124988"><ele>323.0</ele><time>2026-04-25T13:03:16Z</time></trkpt><trkpt lat="44.63536528509045" lon="8.98147179405537"><ele>324.0</ele><time>2026-04-25T13:03:17Z</time></trkpt><trkpt lat="44.635189947586596" lon="8.981626721193937"><ele>325.0</ele><time>2026-04-25T13:03:18Z</time></trkpt><trkpt lat="44.6350206993301" lon="8.981770301004044"><ele>326.0</ele><time>2026-04-25T13:03:19Z</time></trkpt><trkpt lat="44.63486458071718" lon="8.98190326427864"><ele>326.0</ele><time>2026-04-25T13:03:20Z</time></trkpt><trkpt lat="44.63472122429634" lon="8.982024664811398"><ele>326.0</ele><time>2026-04-25T13:03:21Z</time></trkpt><trkpt lat="44.63458539727941" lon="8.982140802561387"><ele>326.0</ele><time>2026-04-25T13:03:22Z</time></trkpt><trkpt lat="44.63446686556511" lon="8.982273272958878"><ele>327.75</ele><time>2026-04-25T13:03:23Z</time></trkpt><trkpt lat="44.634365061270415" lon="8.982420723653089"><ele>329.5</ele><time>2026-04-25T13:03:24Z</time></trkpt><trkpt lat="44.634295582956504" lon="8.982579583465126"><ele>331.25</ele><time>2026-04-25T13:03:25Z</time></trkpt><trkpt lat="44.63426477685725" lon="8.982757690708741"><ele>333.0</ele><time>2026-04-25T13:03:26Z</time></trkpt><trkpt lat="44.634243688887786" lon="8.982942740248028"><ele>333.0</ele><time>2026-04-25T13:03:27Z</time></trkpt><trkpt lat="44.63422560766838" lon="8.983159531929621"><ele>333.0</ele><time>2026-04-25T13:03:28Z</time></trkpt><trkpt lat="44.63421594871194" lon="8.983404921602585"><ele>333.0</ele><time>2026-04-25T13:03:29Z</time></trkpt><trkpt lat="44.634198318908915" lon="8.983666843839261"><ele>332.3333333333333</ele><time>2026-04-25T13:03:30Z</time></trkpt><trkpt lat="44.63420079644429" lon="8.983943369041766"><ele>331.66666666666663</ele><time>2026-04-25T13:03:31Z</time></trkpt><trkpt lat="44.6341786364475" lon="8.984166402062817"><ele>331.0</ele><time>2026-04-25T13:03:32Z</time></trkpt><trkpt lat="44.63414704005174" lon="8.984378055028738"><ele>331.0</ele><time>2026-04-25T13:03:33Z</time></trkpt><trkpt lat="44.634098237059085" lon="8.984606253027488"><ele>331.0</ele><time>2026-04-25T13:03:34Z</time></trkpt><trkpt lat="44.63402816335338" lon="8.984851056211852"><ele>331.0</ele><time>2026-04-25T13:03:35Z</time></trkpt><trkpt lat="44.633961795098685" lon="8.985108807362908"><ele>331.3333333333333</ele><time>2026-04-25T13:03:36Z</time></trkpt><trkpt lat="44.633900619567555" lon="8.98535090034149"><ele>331.6666666666667</ele><time>2026-04-25T13:03:37Z</time></trkpt><trkpt lat="44.633847080969595" lon="8.985564863704155"><ele>332.0</ele><time>2026-04-25T13:03:38Z</time></trkpt><trkpt lat="44.63379767137803" lon="8.985758716141213"><ele>333.25</ele><time>2026-04-25T13:03:39Z</time></trkpt><trkpt lat="44.63374004706837" lon="8.985928620828375"><ele>334.5</ele><time>2026-04-25T13:03:40Z</time></trkpt><trkpt lat="44.63365878715152" lon="8.98608547908049"><ele>335.75</ele><time>2026-04-25T13:03:41Z</time></trkpt><trkpt lat="44.633548564191635" lon="8.98623517432192"><ele>337.0</ele><time>2026-04-25T13:03:42Z</time></trkpt><trkpt lat="44.633428673938326" lon="8.986379686836319"><ele>337.0</ele><time>2026-04-25T13:03:43Z</time></trkpt><trkpt lat="44.63331656380934" lon="8.986504213305997"><ele>337.0</ele><time>2026-04-25T13:03:44Z</time></trkpt><trkpt lat="44.63319238948145" lon="8.986602702852634"><ele>337.0</ele><time>2026-04-25T13:03:45Z</time></trkpt><trkpt lat="44.63304139744626" lon="8.986691682510282"><ele>337.0</ele><time>2026-04-25T13:03:46Z</time></trkpt><trkpt lat="44.63289494332993" lon="8.986787392383752"><ele>336.25</ele><time>2026-04-25T13:03:47Z</time></trkpt><trkpt lat="44.63276002794445" lon="8.986876360447141"><ele>335.5</ele><time>2026-04-25T13:03:48Z</time></trkpt><trkpt lat="44.63262934716045" lon="8.986941303437272"><ele>334.75</ele><time>2026-04-25T13:03:49Z</time></trkpt><trkpt lat="44.6324895638919" lon="8.986990480199893"><ele>334.0</ele><time>2026-04-25T13:03:50Z</time></trkpt><trkpt lat="44.63235007112292" lon="8.987026091603095"><ele>334.0</ele><time>2026-04-25T13:03:51Z</time></trkpt><trkpt lat="44.63221668264086" lon="8.9870873100045"><ele>334.0</ele><time>2026-04-25T13:03:52Z</time></trkpt><trkpt lat="44.6320796391156" lon="8.987201336109269"><ele>334.0</ele><time>2026-04-25T13:03:53Z</time></trkpt><trkpt lat="44.6319409843965" lon="8.98734192674392"><ele>334.0</ele><time>2026-04-25T13:03:54Z</time></trkpt><trkpt lat="44.6318034456937" lon="8.987488756511398"><ele>334.0</ele><time>2026-04-25T13:03:55Z</time></trkpt><trkpt lat="44.631656234227925" lon="8.987618731462721"><ele>334.0</ele><time>2026-04-25T13:03:56Z</time></trkpt><trkpt lat="44.63150393875368" lon="8.987738305909737"><ele>334.0</ele><time>2026-04-25T13:03:57Z</time></trkpt><trkpt lat="44.63136604040875" lon="8.987850065245569"><ele>334.0</ele><time>2026-04-25T13:03:58Z</time></trkpt><trkpt lat="44.631239244204465" lon="8.987953489364697"><ele>334.0</ele><time>2026-04-25T13:03:59Z</time></trkpt><trkpt lat="44.63111565345732" lon="8.988046208008955"><ele>334.0</ele><time>2026-04-25T13:04:00Z</time></trkpt><trkpt lat="44.630987138173" lon="8.988115240802468"><ele>334.3333333333333</ele><time>2026-04-25T13:04:01Z</time></trkpt><trkpt lat="44.63084363903672" lon="8.988163571135455"><ele>334.6666666666667</ele><time>2026-04-25T13:04:02Z</time></trkpt><trkpt lat="44.63068955028371" lon="8.98819837085569"><ele>335.0</ele><time>2026-04-25T13:04:03Z</time></trkpt><trkpt lat="44.63053553204951" lon="8.988221255683316"><ele>335.0</ele><time>2026-04-25T13:04:04Z</time></trkpt><trkpt lat="44.63039387840163" lon="8.98823784870264"><ele>335.0</ele><time>2026-04-25T13:04:05Z</time></trkpt><trkpt lat="44.63026849382262" lon="8.98827942333433"><ele>335.0</ele><time>2026-04-25T13:04:06Z</time></trkpt><trkpt lat="44.63014585245717" lon="8.988373479299547"><ele>335.0</ele><time>2026-04-25T13:04:07Z</time></trkpt><trkpt lat="44.63002586102339" lon="8.988518185396945"><ele>335.6666666666667</ele><time>2026-04-25T13:04:08Z</time></trkpt><trkpt lat="44.62990438241658" lon="8.988685921237751"><ele>336.3333333333333</ele><time>2026-04-25T13:04:09Z</time></trkpt><trkpt lat="44.62978988461865" lon="8.988865577850893"><ele>337.0</ele><time>2026-04-25T13:04:10Z</time></trkpt><trkpt lat="44.62967463726475" lon="8.989036857185633"><ele>337.66666666666663</ele><time>2026-04-25T13:04:11Z</time></trkpt><trkpt lat="44.62956919696714" lon="8.98918415300147"><ele>338.3333333333333</ele><time>2026-04-25T13:04:12Z</time></trkpt><trkpt lat="44.62944953161829" lon="8.98933154100146"><ele>339.0</ele><time>2026-04-25T13:04:13Z</time></trkpt><trkpt lat="44.62930984777594" lon="8.98947747478249"><ele>339.3333333333333</ele><time>2026-04-25T13:04:14Z</time></trkpt><trkpt lat="44.62916031749228" lon="8.98964094731956"><ele>339.66666666666663</ele><time>2026-04-25T13:04:15Z</time></trkpt><trkpt lat="44.629015162124865" lon="8.989815561889039"><ele>340.0</ele><time>2026-04-25T13:04:16Z</time></trkpt><trkpt lat="44.62887954784296" lon="8.989987704965866"><ele>339.3333333333333</ele><time>2026-04-25T13:04:17Z</time></trkpt><trkpt lat="44.62875759942004" lon="8.990137577480791"><ele>338.6666666666667</ele><time>2026-04-25T13:04:18Z</time></trkpt><trkpt lat="44.62862959141951" lon="8.990273862643628"><ele>338.0</ele><time>2026-04-25T13:04:19Z</time></trkpt><trkpt lat="44.6284944680619" lon="8.990399951818507"><ele>339.25</ele><time>2026-04-25T13:04:20Z</time></trkpt><trkpt lat="44.6283629359287" lon="8.990517129109785"><ele>340.5</ele><time>2026-04-25T13:04:21Z</time></trkpt><trkpt lat="44.6282407575783" lon="8.990628176023977"><ele>341.75</ele><time>2026-04-25T13:04:22Z</time></trkpt><trkpt lat="44.62812664786824" lon="8.990730052594618"><ele>343.0</ele><time>2026-04-25T13:04:23Z</time></trkpt><trkpt lat="44.62801403234316" lon="8.990821503534253"><ele>342.75</ele><time>2026-04-25T13:04:24Z</time></trkpt><trkpt lat="44.62788800769722" lon="8.990899729496249"><ele>342.5</ele><time>2026-04-25T13:04:25Z</time></trkpt><trkpt lat="44.62774793127811" lon="8.990964662905837"><ele>342.25</ele><time>2026-04-25T13:04:26Z</time></trkpt><trkpt lat="44.627591108643905" lon="8.991013784083236"><ele>342.0</ele><time>2026-04-25T13:04:27Z</time></trkpt><trkpt lat="44.62743514563985" lon="8.991060526480013"><ele>342.0</ele><time>2026-04-25T13:04:28Z</time></trkpt><trkpt lat="44.627293158883155" lon="8.991106236747639"><ele>342.0</ele><time>2026-04-25T13:04:29Z</time></trkpt><trkpt lat="44.62717791324715" lon="8.991169740417336"><ele>342.0</ele><time>2026-04-25T13:04:30Z</time></trkpt><trkpt lat="44.627089292205795" lon="8.991256976877136"><ele>342.0</ele><time>2026-04-25T13:04:31Z</time></trkpt><trkpt lat="44.62701001736531" lon="8.991390462407836"><ele>341.75</ele><time>2026-04-25T13:04:32Z</time></trkpt><trkpt lat="44.626939486137786" lon="8.991561582168782"><ele>341.5</ele><time>2026-04-25T13:04:33Z</time></trkpt><trkpt lat="44.62686463771173" lon="8.991709093739548"><ele>341.25</ele><time>2026-04-25T13:04:34Z</time></trkpt><trkpt lat="44.626789963139665" lon="8.99180082149795"><ele>341.0</ele><time>2026-04-25T13:04:35Z</time></trkpt><trkpt lat="44.62670089502533" lon="8.991828038356426"><ele>342.75</ele><time>2026-04-25T13:04:36Z</time></trkpt><trkpt lat="44.62657831360282" lon="8.9918066229213"><ele>344.5</ele><time>2026-04-25T13:04:37Z</time></trkpt><trkpt lat="44.62643614845286" lon="8.991747359739726"><ele>346.25</ele><time>2026-04-25T13:04:38Z</time></trkpt><trkpt lat="44.62627582014876" lon="8.991691713757437"><ele>348.0</ele><time>2026-04-25T13:04:39Z</time></trkpt><trkpt lat="44.626095636450856" lon="8.991634013913947"><ele>348.0</ele><time>2026-04-25T13:04:40Z</time></trkpt><trkpt lat="44.62591754852021" lon="8.99157090939631"><ele>348.0</ele><time>2026-04-25T13:04:41Z</time></trkpt><trkpt lat="44.62574904714328" lon="8.99151434641057"><ele>348.0</ele><time>2026-04-25T13:04:42Z</time></trkpt><trkpt lat="44.625584596993356" lon="8.991462213529529"><ele>348.0</ele><time>2026-04-25T13:04:43Z</time></trkpt><trkpt lat="44.6254310455695" lon="8.991418187625296"><ele>348.0</ele><time>2026-04-25T13:04:44Z</time></trkpt><trkpt lat="44.62530213703388" lon="8.991387867687534"><ele>348.0</ele><time>2026-04-25T13:04:45Z</time></trkpt><trkpt lat="44.625195017385764" lon="8.99139802170615"><ele>348.0</ele><time>2026-04-25T13:04:46Z</time></trkpt><trkpt lat="44.62509252794431" lon="8.991468007774746"><ele>350.0</ele><time>2026-04-25T13:04:47Z</time></trkpt><trkpt lat="44.6249777149918" lon="8.991579106784329"><ele>352.0</ele><time>2026-04-25T13:04:48Z</time></trkpt><trkpt lat="44.624854645809314" lon="8.991717972970925"><ele>354.0</ele><time>2026-04-25T13:04:49Z</time></trkpt><trkpt lat="44.62473044408259" lon="8.991865199905195"><ele>356.5</ele><time>2026-04-25T13:04:50Z</time></trkpt><trkpt lat="44.624616973593" lon="8.991962475969752"><ele>359.0</ele><time>2026-04-25T13:04:51Z</time></trkpt><trkpt lat="44.62450627495536" lon="8.991995630133728"><ele>361.5</ele><time>2026-04-25T13:04:52Z</time></trkpt><trkpt lat="44.62439205731008" lon="8.991979461963158"><ele>364.0</ele><time>2026-04-25T13:04:53Z</time></trkpt><trkpt lat="44.62426521682278" lon="8.991926276857528"><ele>360.66666666666663</ele><time>2026-04-25T13:04:54Z</time></trkpt><trkpt lat="44.62413827831636" lon="8.991833863299176"><ele>357.3333333333333</ele><time>2026-04-25T13:04:55Z</time></trkpt><trkpt lat="44.624005046074366" lon="8.991725826475722"><ele>354.0</ele><time>2026-04-25T13:04:56Z</time></trkpt><trkpt lat="44.62386711200745" lon="8.991622514634944"><ele>354.0</ele><time>2026-04-25T13:04:57Z</time></trkpt><trkpt lat="44.62374761040953" lon="8.991529961780152"><ele>354.0</ele><time>2026-04-25T13:04:58Z</time></trkpt><trkpt lat="44.62362184418196" lon="8.991468338120843"><ele>354.0</ele><time>2026-04-25T13:04:59Z</time></trkpt><trkpt lat="44.623502905025106" lon="8.991397664004154"><ele>354.0</ele><time>2026-04-25T13:05:00Z</time></trkpt><trkpt lat="44.62339842655453" lon="8.991329477553919"><ele>356.5</ele><time>2026-04-25T13:05:01Z</time></trkpt><trkpt lat="44.62329596042402" lon="8.9912948152194"><ele>359.0</ele><time>2026-04-25T13:05:02Z</time></trkpt><trkpt lat="44.62318857859185" lon="8.991351224863855"><ele>361.5</ele><time>2026-04-25T13:05:03Z</time></trkpt><trkpt lat="44.62307641109716" lon="8.991411529019974"><ele>364.0</ele><time>2026-04-25T13:05:04Z</time></trkpt><trkpt lat="44.62296691617021" lon="8.991539453081192"><ele>362.3333333333333</ele><time>2026-04-25T13:05:05Z</time></trkpt><trkpt lat="44.62285179797451" lon="8.99169027840893"><ele>360.6666666666667</ele><time>2026-04-25T13:05:06Z</time></trkpt><trkpt lat="44.62273469843289" lon="8.991855028588613"><ele>359.0</ele><time>2026-04-25T13:05:07Z</time></trkpt><trkpt lat="44.62261937741254" lon="8.992009306444297"><ele>359.0</ele><time>2026-04-25T13:05:08Z</time></trkpt><trkpt lat="44.6225297434258" lon="8.992141426915325"><ele>359.0</ele><time>2026-04-25T13:05:09Z</time></trkpt><trkpt lat="44.622461468631194" lon="8.99226573435131"><ele>359.0</ele><time>2026-04-25T13:05:10Z</time></trkpt><trkpt lat="44.62241574994789" lon="8.992404697665831"><ele>359.0</ele><time>2026-04-25T13:05:11Z</time></trkpt><trkpt lat="44.62239956772938" lon="8.992559996393233"><ele>361.25</ele><time>2026-04-25T13:05:12Z</time></trkpt><trkpt lat="44.62241691662623" lon="8.9927377918845"><ele>363.5</ele><time>2026-04-25T13:05:13Z</time></trkpt><trkpt lat="44.622422593205116" lon="8.992906289274837"><ele>365.75</ele><time>2026-04-25T13:05:14Z</time></trkpt><trkpt lat="44.62241397783128" lon="8.993051487420766"><ele>368.0</ele><time>2026-04-25T13:05:15Z</time></trkpt><trkpt lat="44.62234871928885" lon="8.993176684933019"><ele>368.0</ele><time>2026-04-25T13:05:16Z</time></trkpt><trkpt lat="44.62227495169323" lon="8.993321772623572"><ele>368.0</ele><time>2026-04-25T13:05:17Z</time></trkpt><trkpt lat="44.622154996392275" lon="8.993436778186071"><ele>368.0</ele><time>2026-04-25T13:05:18Z</time></trkpt><trkpt lat="44.62202096889021" lon="8.99353921955617"><ele>368.0</ele><time>2026-04-25T13:05:19Z</time></trkpt><trkpt lat="44.62190013863738" lon="8.993640965222935"><ele>367.75</ele><time>2026-04-25T13:05:20Z</time></trkpt><trkpt lat="44.62178619250921" lon="8.993780892788998"><ele>367.5</ele><time>2026-04-25T13:05:21Z</time></trkpt><trkpt lat="44.62168493511928" lon="8.993940397729025"><ele>367.25</ele><time>2026-04-25T13:05:22Z</time></trkpt><trkpt lat="44.621609269331806" lon="8.994082889255273"><ele>367.0</ele><time>2026-04-25T13:05:23Z</time></trkpt><trkpt lat="44.62155223692996" lon="8.99420750252928"><ele>368.0</ele><time>2026-04-25T13:05:24Z</time></trkpt><trkpt lat="44.621521899021936" lon="8.994354504739354"><ele>369.0</ele><time>2026-04-25T13:05:25Z</time></trkpt><trkpt lat="44.62151885827116" lon="8.994505217553977"><ele>370.0</ele><time>2026-04-25T13:05:26Z</time></trkpt><trkpt lat="44.62155722254102" lon="8.994672881987327"><ele>371.0</ele><time>2026-04-25T13:05:27Z</time></trkpt><trkpt lat="44.62162228234572" lon="8.994852338541511"><ele>372.33333333333337</ele><time>2026-04-25T13:05:28Z</time></trkpt><trkpt lat="44.62169799977164" lon="8.99504849885608"><ele>373.6666666666667</ele><time>2026-04-25T13:05:29Z</time></trkpt><trkpt lat="44.621760199465676" lon="8.995258225630282"><ele>375.0</ele><time>2026-04-25T13:05:30Z</time></trkpt><trkpt lat="44.62182492305251" lon="8.995452972574316"><ele>375.0</ele><time>2026-04-25T13:05:31Z</time></trkpt><trkpt lat="44.621866720629455" lon="8.995632456206764"><ele>375.0</ele><time>2026-04-25T13:05:32Z</time></trkpt><trkpt lat="44.62189564939647" lon="8.995757585752244"><ele>375.0</ele><time>2026-04-25T13:05:33Z</time></trkpt><trkpt lat="44.621860910147454" lon="8.99591699142759"><ele>375.0</ele><time>2026-04-25T13:05:35Z</time></trkpt><trkpt lat="44.621781363453636" lon="8.995966270003912"><ele>375.0</ele><time>2026-04-25T13:05:36Z</time></trkpt><trkpt lat="44.62167910379028" lon="8.995975691344187"><ele>375.0</ele><time>2026-04-25T13:05:37Z</time></trkpt><trkpt lat="44.6215736947515" lon="8.995933717744231"><ele>375.0</ele><time>2026-04-25T13:05:38Z</time></trkpt><trkpt lat="44.62146009835107" lon="8.995861065772717"><ele>375.0</ele><time>2026-04-25T13:05:39Z</time></trkpt><trkpt lat="44.62134440180969" lon="8.99579590842768"><ele>375.0</ele><time>2026-04-25T13:05:40Z</time></trkpt><trkpt lat="44.62123885353005" lon="8.99577347725856"><ele>374.0</ele><time>2026-04-25T13:05:41Z</time></trkpt><trkpt lat="44.621138313957466" lon="8.995816122344173"><ele>373.0</ele><time>2026-04-25T13:05:42Z</time></trkpt><trkpt lat="44.62101219314603" lon="8.995872165307238"><ele>372.0</ele><time>2026-04-25T13:05:43Z</time></trkpt><trkpt lat="44.62086971866479" lon="8.995939426927517"><ele>371.0</ele><time>2026-04-25T13:05:44Z</time></trkpt><trkpt lat="44.62074062419566" lon="8.995992182611138"><ele>374.75</ele><time>2026-04-25T13:05:45Z</time></trkpt><trkpt lat="44.62062000531101" lon="8.996048442227416"><ele>378.5</ele><time>2026-04-25T13:05:46Z</time></trkpt><trkpt lat="44.620514935530196" lon="8.996137267770132"><ele>382.25</ele><time>2026-04-25T13:05:47Z</time></trkpt><trkpt lat="44.62042922421287" lon="8.996249888247082"><ele>386.0</ele><time>2026-04-25T13:05:48Z</time></trkpt><trkpt lat="44.620349213149815" lon="8.99638664690186"><ele>383.5</ele><time>2026-04-25T13:05:49Z</time></trkpt><trkpt lat="44.6202743877628" lon="8.996552063260287"><ele>381.0</ele><time>2026-04-25T13:05:50Z</time></trkpt><trkpt lat="44.620201220237924" lon="8.996740639595702"><ele>378.5</ele><time>2026-04-25T13:05:51Z</time></trkpt><trkpt lat="44.620130158796464" lon="8.996924095279484"><ele>376.0</ele><time>2026-04-25T13:05:52.001Z</time></trkpt><trkpt lat="44.620073884017074" lon="8.997090031579221"><ele>376.0</ele><time>2026-04-25T13:05:53.001Z</time></trkpt><trkpt lat="44.620031735893924" lon="8.997251559839315"><ele>376.0</ele><time>2026-04-25T13:05:54.001Z</time></trkpt><trkpt lat="44.620022956277545" lon="8.997409448390636"><ele>376.0</ele><time>2026-04-25T13:05:55.001Z</time></trkpt><trkpt lat="44.62002612519175" lon="8.997572896201499"><ele>376.0</ele><time>2026-04-25T13:05:56.001Z</time></trkpt><trkpt lat="44.62006615498982" lon="8.997715855200594"><ele>374.25</ele><time>2026-04-25T13:05:57.001Z</time></trkpt><trkpt lat="44.62013176021378" lon="8.997823315191317"><ele>372.5</ele><time>2026-04-25T13:05:58.001Z</time></trkpt><trkpt lat="44.620228230107685" lon="8.997910946001051"><ele>370.75</ele><time>2026-04-25T13:05:59.001Z</time></trkpt><trkpt lat="44.620345779338" lon="8.998001209542712"><ele>369.0</ele><time>2026-04-25T13:06:00.001Z</time></trkpt><trkpt lat="44.62046438564756" lon="8.998097579432267"><ele>374.79999999999995</ele><time>2026-04-25T13:06:01.001Z</time></trkpt><trkpt lat="44.62056049190596" lon="8.99819204542418"><ele>380.59999999999997</ele><time>2026-04-25T13:06:02.001Z</time></trkpt><trkpt lat="44.6206313479645" lon="8.998319269356035"><ele>386.4</ele><time>2026-04-25T13:06:03.001Z</time></trkpt><trkpt lat="44.62064692774844" lon="8.998431847219644"><ele>392.2</ele><time>2026-04-25T13:06:04.001Z</time></trkpt><trkpt lat="44.62065167280736" lon="8.998563386025262"><ele>398.0</ele><time>2026-04-25T13:06:05.001Z</time></trkpt><trkpt lat="44.62062782968481" lon="8.998684888946086"><ele>398.25</ele><time>2026-04-25T13:06:06.001Z</time></trkpt><trkpt lat="44.62056432603233" lon="8.998804665149041"><ele>398.5</ele><time>2026-04-25T13:06:07.001Z</time></trkpt><trkpt lat="44.62050300399616" lon="8.99896300619821"><ele>398.75</ele><time>2026-04-25T13:06:08.001Z</time></trkpt><trkpt lat="44.62047968518178" lon="8.999164019026114"><ele>399.0</ele><time>2026-04-25T13:06:09.001Z</time></trkpt><trkpt lat="44.62047095875974" lon="8.999390614877653"><ele>403.33333333333337</ele><time>2026-04-25T13:06:10.001Z</time></trkpt><trkpt lat="44.62041287901377" lon="8.999611979203252"><ele>407.6666666666667</ele><time>2026-04-25T13:06:11.001Z</time></trkpt><trkpt lat="44.62035688202738" lon="8.999850075513836"><ele>412.0</ele><time>2026-04-25T13:06:12.001Z</time></trkpt><trkpt lat="44.62030477839767" lon="9.000103020144646"><ele>399.6666666666667</ele><time>2026-04-25T13:06:13.001Z</time></trkpt><trkpt lat="44.62023830125128" lon="9.00032624983425"><ele>387.33333333333337</ele><time>2026-04-25T13:06:14.001Z</time></trkpt><trkpt lat="44.62018306005859" lon="9.000537875605497"><ele>375.0</ele><time>2026-04-25T13:06:15.001Z</time></trkpt><trkpt lat="44.62013823579453" lon="9.000733782218132"><ele>378.2</ele><time>2026-04-25T13:06:16.001Z</time></trkpt><trkpt lat="44.62012380936346" lon="9.000905792267785"><ele>381.4</ele><time>2026-04-25T13:06:17Z</time></trkpt><trkpt lat="44.62008519981459" lon="9.001023401340724"><ele>384.6</ele><time>2026-04-25T13:06:18Z</time></trkpt><trkpt lat="44.62002726409837" lon="9.001080840631452"><ele>387.8</ele><time>2026-04-25T13:06:19Z</time></trkpt><trkpt lat="44.61995965405595" lon="9.001061785880697"><ele>391.0</ele><time>2026-04-25T13:06:20Z</time></trkpt><trkpt lat="44.61986291863455" lon="9.0010273326564"><ele>391.0</ele><time>2026-04-25T13:06:21Z</time></trkpt><trkpt lat="44.61977375155958" lon="9.001035899295413"><ele>391.0</ele><time>2026-04-25T13:06:22Z</time></trkpt><trkpt lat="44.61966719029421" lon="9.001066394471081"><ele>391.0</ele><time>2026-04-25T13:06:23Z</time></trkpt><trkpt lat="44.619566688212146" lon="9.001194822080919"><ele>391.0</ele><time>2026-04-25T13:06:24Z</time></trkpt><trkpt lat="44.6194803765598" lon="9.001367084718131"><ele>390.5</ele><time>2026-04-25T13:06:25Z</time></trkpt><trkpt lat="44.61938540001372" lon="9.001489326033882"><ele>390.0</ele><time>2026-04-25T13:06:26Z</time></trkpt><trkpt lat="44.61928951029622" lon="9.00159091575636"><ele>389.5</ele><time>2026-04-25T13:06:27Z</time></trkpt><trkpt lat="44.61920611796713" lon="9.001723919832749"><ele>389.0</ele><time>2026-04-25T13:06:28Z</time></trkpt><trkpt lat="44.61918172671024" lon="9.001872092171427"><ele>389.0</ele><time>2026-04-25T13:06:29Z</time></trkpt><trkpt lat="44.61913321825137" lon="9.002061294449234"><ele>389.0</ele><time>2026-04-25T13:06:30Z</time></trkpt><trkpt lat="44.61905228039171" lon="9.002219453921445"><ele>389.0</ele><time>2026-04-25T13:06:31Z</time></trkpt><trkpt lat="44.61895441579031" lon="9.002350863084429"><ele>389.0</ele><time>2026-04-25T13:06:32Z</time></trkpt><trkpt lat="44.61884051526745" lon="9.002502606450346"><ele>387.75</ele><time>2026-04-25T13:06:33Z</time></trkpt><trkpt lat="44.61874213573956" lon="9.002627418538413"><ele>386.5</ele><time>2026-04-25T13:06:34Z</time></trkpt><trkpt lat="44.618665704373875" lon="9.002740018018596"><ele>385.25</ele><time>2026-04-25T13:06:35Z</time></trkpt><trkpt lat="44.61855784075227" lon="9.002841320956009"><ele>384.0</ele><time>2026-04-25T13:06:36Z</time></trkpt><trkpt lat="44.61844048042266" lon="9.002911731118294"><ele>384.0</ele><time>2026-04-25T13:06:37Z</time></trkpt><trkpt lat="44.61833668256742" lon="9.003016123798506"><ele>384.0</ele><time>2026-04-25T13:06:38Z</time></trkpt><trkpt lat="44.61823676862256" lon="9.003138412559844"><ele>384.0</ele><time>2026-04-25T13:06:39Z</time></trkpt><trkpt lat="44.61812944183474" lon="9.003219207893975"><ele>384.0</ele><time>2026-04-25T13:06:40Z</time></trkpt><trkpt lat="44.61801108239692" lon="9.003268365170253"><ele>384.0</ele><time>2026-04-25T13:06:41Z</time></trkpt><trkpt lat="44.617915102466476" lon="9.003331629728905"><ele>384.0</ele><time>2026-04-25T13:06:42Z</time></trkpt><trkpt lat="44.617840493596354" lon="9.003423103894827"><ele>384.0</ele><time>2026-04-25T13:06:43Z</time></trkpt><trkpt lat="44.61780246514369" lon="9.003522990411168"><ele>384.0</ele><time>2026-04-25T13:06:44Z</time></trkpt><trkpt lat="44.61781638183407" lon="9.003649879578251"><ele>384.0</ele><time>2026-04-25T13:06:45Z</time></trkpt><trkpt lat="44.61785862082496" lon="9.00378790583399"><ele>387.5</ele><time>2026-04-25T13:06:46Z</time></trkpt><trkpt lat="44.61789622194711" lon="9.003962914352304"><ele>391.0</ele><time>2026-04-25T13:06:47Z</time></trkpt><trkpt lat="44.61784547877938" lon="9.00410447626705"><ele>394.5</ele><time>2026-04-25T13:06:48Z</time></trkpt><trkpt lat="44.617754367799854" lon="9.004211993481638"><ele>398.0</ele><time>2026-04-25T13:06:49Z</time></trkpt><trkpt lat="44.61764546418766" lon="9.004282616659786"><ele>398.0</ele><time>2026-04-25T13:06:50Z</time></trkpt><trkpt lat="44.617512548725614" lon="9.004337281777412"><ele>398.0</ele><time>2026-04-25T13:06:51Z</time></trkpt><trkpt lat="44.61738031739616" lon="9.004426543523111"><ele>398.0</ele><time>2026-04-25T13:06:52Z</time></trkpt><trkpt lat="44.61726889817456" lon="9.00453595253397"><ele>398.0</ele><time>2026-04-25T13:06:53Z</time></trkpt><trkpt lat="44.617176692920516" lon="9.004622988830782"><ele>398.0</ele><time>2026-04-25T13:06:54Z</time></trkpt><trkpt lat="44.61712060461985" lon="9.004711840461608"><ele>398.0</ele><time>2026-04-25T13:06:55Z</time></trkpt><trkpt lat="44.61710732340001" lon="9.004827992659811"><ele>398.0</ele><time>2026-04-25T13:06:56Z</time></trkpt><trkpt lat="44.61710316159486" lon="9.004965416433844"><ele>398.0</ele><time>2026-04-25T13:06:57Z</time></trkpt><trkpt lat="44.617147423695734" lon="9.005104948457978"><ele>398.0</ele><time>2026-04-25T13:06:58Z</time></trkpt><trkpt lat="44.61724156647991" lon="9.005227819305935"><ele>400.75</ele><time>2026-04-25T13:06:59Z</time></trkpt><trkpt lat="44.61733650678683" lon="9.005379347129475"><ele>403.5</ele><time>2026-04-25T13:07:00Z</time></trkpt><trkpt lat="44.61743581468683" lon="9.005538908901162"><ele>406.25</ele><time>2026-04-25T13:07:01Z</time></trkpt><trkpt lat="44.617521336254654" lon="9.005710063619029"><ele>409.0</ele><time>2026-04-25T13:07:02Z</time></trkpt><trkpt lat="44.6175731886298" lon="9.00588395704871"><ele>409.0</ele><time>2026-04-25T13:07:03Z</time></trkpt><trkpt lat="44.617618930498594" lon="9.006047265533091"><ele>409.0</ele><time>2026-04-25T13:07:04Z</time></trkpt><trkpt lat="44.61764374660518" lon="9.006213596069792"><ele>409.0</ele><time>2026-04-25T13:07:05Z</time></trkpt><trkpt lat="44.617607070007296" lon="9.006379788017334"><ele>409.0</ele><time>2026-04-25T13:07:06Z</time></trkpt><trkpt lat="44.617563615362435" lon="9.006574473735004"><ele>408.6666666666667</ele><time>2026-04-25T13:07:07Z</time></trkpt><trkpt lat="44.617521259588536" lon="9.006784047242949"><ele>408.33333333333337</ele><time>2026-04-25T13:07:08Z</time></trkpt><trkpt lat="44.617484612882606" lon="9.007002452401917"><ele>408.0</ele><time>2026-04-25T13:07:09Z</time></trkpt><trkpt lat="44.617463814932606" lon="9.007211618547075"><ele>408.0</ele><time>2026-04-25T13:07:10Z</time></trkpt><trkpt lat="44.61745375110043" lon="9.007408544046486"><ele>408.0</ele><time>2026-04-25T13:07:11Z</time></trkpt><trkpt lat="44.617443379087625" lon="9.007577326094967"><ele>408.0</ele><time>2026-04-25T13:07:12Z</time></trkpt><trkpt lat="44.61746273934011" lon="9.007723338399188"><ele>408.0</ele><time>2026-04-25T13:07:13Z</time></trkpt><trkpt lat="44.6175302157494" lon="9.007873683014749"><ele>409.25</ele><time>2026-04-25T13:07:14Z</time></trkpt><trkpt lat="44.61761522946791" lon="9.008020042805622"><ele>410.5</ele><time>2026-04-25T13:07:15Z</time></trkpt><trkpt lat="44.617660580061155" lon="9.008182063080637"><ele>411.75</ele><time>2026-04-25T13:07:16Z</time></trkpt><trkpt lat="44.61769243667409" lon="9.008366598377428"><ele>413.0</ele><time>2026-04-25T13:07:17Z</time></trkpt><trkpt lat="44.617692603228626" lon="9.008536489584534"><ele>413.5</ele><time>2026-04-25T13:07:18Z</time></trkpt><trkpt lat="44.61770399079091" lon="9.008697376123589"><ele>414.0</ele><time>2026-04-25T13:07:19Z</time></trkpt><trkpt lat="44.61776183856674" lon="9.008850101786884"><ele>414.5</ele><time>2026-04-25T13:07:20Z</time></trkpt><trkpt lat="44.6178352699125" lon="9.009004573979825"><ele>415.0</ele><time>2026-04-25T13:07:21Z</time></trkpt><trkpt lat="44.61792685379273" lon="9.009177777915918"><ele>418.0</ele><time>2026-04-25T13:07:22Z</time></trkpt><trkpt lat="44.6180207786002" lon="9.009350250990611"><ele>421.0</ele><time>2026-04-25T13:07:23Z</time></trkpt><trkpt lat="44.61810596803033" lon="9.009506683367272"><ele>424.0</ele><time>2026-04-25T13:07:24Z</time></trkpt><trkpt lat="44.61817156168476" lon="9.009634001371516"><ele>427.0</ele><time>2026-04-25T13:07:25Z</time></trkpt><trkpt lat="44.61821008095309" lon="9.009724949920997"><ele>427.0</ele><time>2026-04-25T13:07:26Z</time></trkpt><trkpt lat="44.618202610028845" lon="9.009834109829303"><ele>427.00000000000006</ele><time>2026-04-25T13:07:27Z</time></trkpt><trkpt lat="44.618191660781" lon="9.009962659218996"><ele>427.00000000000006</ele><time>2026-04-25T13:07:28Z</time></trkpt><trkpt lat="44.61820048889715" lon="9.010097653410341"><ele>427.0</ele><time>2026-04-25T13:07:29Z</time></trkpt><trkpt lat="44.6181793636645" lon="9.010222113574487"><ele>427.0</ele><time>2026-04-25T13:07:30Z</time></trkpt><trkpt lat="44.61813057943657" lon="9.010344182695478"><ele>425.25</ele><time>2026-04-25T13:07:31Z</time></trkpt><trkpt lat="44.61805266489408" lon="9.01045155106219"><ele>423.5</ele><time>2026-04-25T13:07:32Z</time></trkpt><trkpt lat="44.61795600736028" lon="9.01052957110535"><ele>421.75</ele><time>2026-04-25T13:07:33Z</time></trkpt><trkpt lat="44.61784205239627" lon="9.01058687370892"><ele>420.0</ele><time>2026-04-25T13:07:34Z</time></trkpt><trkpt lat="44.61771121199765" lon="9.010624644795033"><ele>420.0</ele><time>2026-04-25T13:07:35Z</time></trkpt><trkpt lat="44.617595572730636" lon="9.010658983899814"><ele>420.0</ele><time>2026-04-25T13:07:36Z</time></trkpt><trkpt lat="44.617502708672355" lon="9.010673259693597"><ele>420.0</ele><time>2026-04-25T13:07:37Z</time></trkpt><trkpt lat="44.617434291926585" lon="9.010718173541038"><ele>420.0</ele><time>2026-04-25T13:07:38Z</time></trkpt><trkpt lat="44.617399150079564" lon="9.01083040666166"><ele>420.0</ele><time>2026-04-25T13:07:39Z</time></trkpt><trkpt lat="44.61733812867883" lon="9.010971352973499"><ele>420.0</ele><time>2026-04-25T13:07:40Z</time></trkpt><trkpt lat="44.61729314536376" lon="9.011147682803594"><ele>420.0</ele><time>2026-04-25T13:07:41Z</time></trkpt><trkpt lat="44.61725164763741" lon="9.011325040797104"><ele>420.0</ele><time>2026-04-25T13:07:42Z</time></trkpt><trkpt lat="44.61723126956459" lon="9.01151063249005"><ele>420.0</ele><time>2026-04-25T13:07:43Z</time></trkpt><trkpt lat="44.61718880352961" lon="9.011660259009325"><ele>420.0</ele><time>2026-04-25T13:07:44Z</time></trkpt><trkpt lat="44.6171473198299" lon="9.011801748610901"><ele>420.0</ele><time>2026-04-25T13:07:45Z</time></trkpt><trkpt lat="44.61712171855019" lon="9.011922616287988"><ele>420.0</ele><time>2026-04-25T13:07:46Z</time></trkpt><trkpt lat="44.61708621111246" lon="9.012052494731297"><ele>420.0</ele><time>2026-04-25T13:07:47Z</time></trkpt><trkpt lat="44.617049769763796" lon="9.012160266021732"><ele>420.0</ele><time>2026-04-25T13:07:48Z</time></trkpt><trkpt lat="44.61701460071243" lon="9.012270702362207"><ele>420.7142857142857</ele><time>2026-04-25T13:07:49Z</time></trkpt><trkpt lat="44.61698240645281" lon="9.012365283298752"><ele>421.42857142857144</ele><time>2026-04-25T13:07:50Z</time></trkpt><trkpt lat="44.61695584700245" lon="9.012454165199218"><ele>422.1428571428571</ele><time>2026-04-25T13:07:51Z</time></trkpt><trkpt lat="44.61692973724968" lon="9.012539540379198"><ele>422.8571428571429</ele><time>2026-04-25T13:07:52Z</time></trkpt><trkpt lat="44.61689474011215" lon="9.012628535458559"><ele>423.57142857142856</ele><time>2026-04-25T13:07:53Z</time></trkpt><trkpt lat="44.61686245375092" lon="9.012726341668907"><ele>424.2857142857143</ele><time>2026-04-25T13:07:54Z</time></trkpt><trkpt lat="44.6168396560375" lon="9.01282660594175"><ele>425.0</ele><time>2026-04-25T13:07:55Z</time></trkpt><trkpt lat="44.61682298221042" lon="9.012920482782093"><ele>423.66666666666663</ele><time>2026-04-25T13:07:56Z</time></trkpt><trkpt lat="44.61679194177385" lon="9.013078799486276"><ele>422.3333333333333</ele><time>2026-04-25T13:07:58.001Z</time></trkpt><trkpt lat="44.61671746998749" lon="9.01322766514991"><ele>421.0</ele><time>2026-04-25T13:08:00.001Z</time></trkpt><trkpt lat="44.61666454435465" lon="9.013291833362068"><ele>419.66666666666663</ele><time>2026-04-25T13:08:01.001Z</time></trkpt><trkpt lat="44.616609188022515" lon="9.013344752779508"><ele>418.3333333333333</ele><time>2026-04-25T13:08:02.001Z</time></trkpt><trkpt lat="44.61655427006936" lon="9.013395384523323"><ele>417.0</ele><time>2026-04-25T13:08:03.001Z</time></trkpt><trkpt lat="44.61649685252157" lon="9.013449017559667"><ele>417.0</ele><time>2026-04-25T13:08:04.001Z</time></trkpt><trkpt lat="44.61643694212263" lon="9.013500798241973"><ele>417.0</ele><time>2026-04-25T13:08:05.001Z</time></trkpt><trkpt lat="44.61637523225133" lon="9.013553245628566"><ele>417.0</ele><time>2026-04-25T13:08:06.001Z</time></trkpt><trkpt lat="44.61631195161936" lon="9.013606914307644"><ele>417.0</ele><time>2026-04-25T13:08:07.001Z</time></trkpt><trkpt lat="44.61624145704055" lon="9.013649538119406"><ele>417.0</ele><time>2026-04-25T13:08:08.001Z</time></trkpt><trkpt lat="44.616157369770214" lon="9.01368312080126"><ele>417.0</ele><time>2026-04-25T13:08:09.001Z</time></trkpt><trkpt lat="44.61606721293742" lon="9.013700867621093"><ele>414.8</ele><time>2026-04-25T13:08:10.001Z</time></trkpt><trkpt lat="44.61597733158966" lon="9.013710803711664"><ele>412.6</ele><time>2026-04-25T13:08:11.001Z</time></trkpt><trkpt lat="44.61589644750779" lon="9.013726335959781"><ele>410.40000000000003</ele><time>2026-04-25T13:08:12.001Z</time></trkpt><trkpt lat="44.61582744685419" lon="9.013739803129459"><ele>408.20000000000005</ele><time>2026-04-25T13:08:13.001Z</time></trkpt><trkpt lat="44.61570917790072" lon="9.013760415495048"><ele>406.0</ele><time>2026-04-25T13:08:15.001Z</time></trkpt><trkpt lat="44.615584684103965" lon="9.013786690739254"><ele>406.00000000000006</ele><time>2026-04-25T13:08:17.001Z</time></trkpt><trkpt lat="44.61551835405591" lon="9.013801846444863"><ele>406.0</ele><time>2026-04-25T13:08:18.001Z</time></trkpt><trkpt lat="44.61545489782881" lon="9.013804658264407"><ele>406.0</ele><time>2026-04-25T13:08:19.001Z</time></trkpt><trkpt lat="44.615389474008445" lon="9.013787624911318"><ele>406.0</ele><time>2026-04-25T13:08:20.001Z</time></trkpt><trkpt lat="44.61529903067448" lon="9.013739495726803"><ele>406.00000000000006</ele><time>2026-04-25T13:08:22Z</time></trkpt><trkpt lat="44.61523219709174" lon="9.013680047587172"><ele>406.0</ele><time>2026-04-25T13:08:24Z</time></trkpt><trkpt lat="44.61515452100845" lon="9.013593593695406"><ele>406.33333333333337</ele><time>2026-04-25T13:08:26Z</time></trkpt><trkpt lat="44.615100774028505" lon="9.013543596551145"><ele>406.6666666666667</ele><time>2026-04-25T13:08:27Z</time></trkpt><trkpt lat="44.61504475056638" lon="9.013491086982132"><ele>407.0</ele><time>2026-04-25T13:08:28Z</time></trkpt><trkpt lat="44.61495440752147" lon="9.013412638618961"><ele>407.33333333333337</ele><time>2026-04-25T13:08:30Z</time></trkpt><trkpt lat="44.614836586176644" lon="9.013396649565006"><ele>407.6666666666667</ele><time>2026-04-25T13:08:32Z</time></trkpt><trkpt lat="44.61475354244266" lon="9.013437542769317"><ele>408.0</ele><time>2026-04-25T13:08:33Z</time></trkpt><trkpt lat="44.6146319089251" lon="9.013490280239921"><ele>408.0</ele><time>2026-04-25T13:08:34Z</time></trkpt><trkpt lat="44.61450299948253" lon="9.013523242823274"><ele>408.0</ele><time>2026-04-25T13:08:35Z</time></trkpt><trkpt lat="44.61437636391264" lon="9.013524386196085"><ele>408.0</ele><time>2026-04-25T13:08:36Z</time></trkpt><trkpt lat="44.61426234827848" lon="9.013529567488684"><ele>408.0</ele><time>2026-04-25T13:08:37Z</time></trkpt><trkpt lat="44.61415332082046" lon="9.013552740712917"><ele>410.0</ele><time>2026-04-25T13:08:38Z</time></trkpt><trkpt lat="44.614050450632426" lon="9.013591459777443"><ele>412.0</ele><time>2026-04-25T13:08:39Z</time></trkpt><trkpt lat="44.61396420191832" lon="9.01368450951488"><ele>414.0</ele><time>2026-04-25T13:08:40Z</time></trkpt><trkpt lat="44.61388251459176" lon="9.013779284709534"><ele>416.0</ele><time>2026-04-25T13:08:41Z</time></trkpt><trkpt lat="44.61379500206525" lon="9.013799633128507"><ele>418.0</ele><time>2026-04-25T13:08:42Z</time></trkpt><trkpt lat="44.61369466122315" lon="9.013756089208702"><ele>420.5</ele><time>2026-04-25T13:08:43Z</time></trkpt><trkpt lat="44.613589420463725" lon="9.013677748682074"><ele>423.0</ele><time>2026-04-25T13:08:44Z</time></trkpt><trkpt lat="44.613469638889526" lon="9.01364344521595"><ele>425.5</ele><time>2026-04-25T13:08:45Z</time></trkpt><trkpt lat="44.61335185343131" lon="9.013652624243509"><ele>428.0</ele><time>2026-04-25T13:08:46Z</time></trkpt><trkpt lat="44.61322921083546" lon="9.013672785045767"><ele>428.0</ele><time>2026-04-25T13:08:47Z</time></trkpt><trkpt lat="44.61312017677396" lon="9.013662332527629"><ele>428.0</ele><time>2026-04-25T13:08:48Z</time></trkpt><trkpt lat="44.61300701879595" lon="9.013579486397969"><ele>428.0</ele><time>2026-04-25T13:08:49Z</time></trkpt><trkpt lat="44.61290681633548" lon="9.013475565091829"><ele>428.0</ele><time>2026-04-25T13:08:50Z</time></trkpt><trkpt lat="44.61281045802087" lon="9.013414937971083"><ele>430.79999999999995</ele><time>2026-04-25T13:08:51Z</time></trkpt><trkpt lat="44.61270648556282" lon="9.013462167922938"><ele>433.59999999999997</ele><time>2026-04-25T13:08:52Z</time></trkpt><trkpt lat="44.61261366135273" lon="9.013473689259454"><ele>436.40000000000003</ele><time>2026-04-25T13:08:53Z</time></trkpt><trkpt lat="44.61253805181323" lon="9.013544621390151"><ele>439.20000000000005</ele><time>2026-04-25T13:08:54Z</time></trkpt><trkpt lat="44.6124711929261" lon="9.013650883486816"><ele>442.0</ele><time>2026-04-25T13:08:55Z</time></trkpt><trkpt lat="44.61241037358224" lon="9.013772639923548"><ele>442.0</ele><time>2026-04-25T13:08:56Z</time></trkpt><trkpt lat="44.612370801336475" lon="9.013918388107747"><ele>442.0</ele><time>2026-04-25T13:08:57Z</time></trkpt><trkpt lat="44.61231074072539" lon="9.01405154730694"><ele>442.0</ele><time>2026-04-25T13:08:58Z</time></trkpt><trkpt lat="44.61221388960675" lon="9.014162751403594"><ele>442.0</ele><time>2026-04-25T13:08:59Z</time></trkpt><trkpt lat="44.612114705792905" lon="9.014256354574522"><ele>442.8</ele><time>2026-04-25T13:09:00Z</time></trkpt><trkpt lat="44.612019534363206" lon="9.01432586679538"><ele>443.6</ele><time>2026-04-25T13:09:01Z</time></trkpt><trkpt lat="44.611922287647296" lon="9.01438240559985"><ele>444.40000000000003</ele><time>2026-04-25T13:09:02Z</time></trkpt><trkpt lat="44.6118135904722" lon="9.014347281994247"><ele>445.20000000000005</ele><time>2026-04-25T13:09:03Z</time></trkpt><trkpt lat="44.61171297173106" lon="9.014322611233409"><ele>446.0</ele><time>2026-04-25T13:09:04Z</time></trkpt><trkpt lat="44.611611035273086" lon="9.014297698184874"><ele>443.0</ele><time>2026-04-25T13:09:05Z</time></trkpt><trkpt lat="44.61150476915152" lon="9.014313547990623"><ele>440.0</ele><time>2026-04-25T13:09:06Z</time></trkpt><trkpt lat="44.61137639575933" lon="9.014355897709612"><ele>437.0</ele><time>2026-04-25T13:09:07Z</time></trkpt><trkpt lat="44.61124210435283" lon="9.014377512606753"><ele>434.0</ele><time>2026-04-25T13:09:08Z</time></trkpt><trkpt lat="44.61109741401297" lon="9.014397884031146"><ele>432.0</ele><time>2026-04-25T13:09:09Z</time></trkpt><trkpt lat="44.61096526522533" lon="9.014463020355386"><ele>430.0</ele><time>2026-04-25T13:09:10Z</time></trkpt><trkpt lat="44.61084837329423" lon="9.014515891298823"><ele>428.0</ele><time>2026-04-25T13:09:11Z</time></trkpt><trkpt lat="44.61073143874945" lon="9.014532949263437"><ele>426.0</ele><time>2026-04-25T13:09:12Z</time></trkpt><trkpt lat="44.61062255783771" lon="9.014523287320463"><ele>426.0</ele><time>2026-04-25T13:09:13Z</time></trkpt><trkpt lat="44.61054544621876" lon="9.014603279981475"><ele>426.0</ele><time>2026-04-25T13:09:14Z</time></trkpt><trkpt lat="44.6104836338317" lon="9.014687315205306"><ele>426.0</ele><time>2026-04-25T13:09:15Z</time></trkpt><trkpt lat="44.610420628940886" lon="9.014795409547839"><ele>426.0</ele><time>2026-04-25T13:09:16Z</time></trkpt><trkpt lat="44.610354659933336" lon="9.01493599169"><ele>426.0</ele><time>2026-04-25T13:09:17Z</time></trkpt><trkpt lat="44.610318880870246" lon="9.015077158090158"><ele>427.4</ele><time>2026-04-25T13:09:18Z</time></trkpt><trkpt lat="44.61026785388153" lon="9.015180998348926"><ele>428.8</ele><time>2026-04-25T13:09:19Z</time></trkpt><trkpt lat="44.61019577373846" lon="9.015257042446397"><ele>430.19999999999993</ele><time>2026-04-25T13:09:20Z</time></trkpt><trkpt lat="44.61009956708675" lon="9.015311839408076"><ele>431.59999999999997</ele><time>2026-04-25T13:09:21Z</time></trkpt><trkpt lat="44.60999462640107" lon="9.01536814745167"><ele>433.0</ele><time>2026-04-25T13:09:22Z</time></trkpt><trkpt lat="44.60988963921299" lon="9.015440611366234"><ele>433.0</ele><time>2026-04-25T13:09:23Z</time></trkpt><trkpt lat="44.6097739254691" lon="9.015479061047024"><ele>433.0</ele><time>2026-04-25T13:09:24Z</time></trkpt><trkpt lat="44.609636008434414" lon="9.015500271833059"><ele>433.0</ele><time>2026-04-25T13:09:25Z</time></trkpt><trkpt lat="44.60950052398206" lon="9.015433640126615"><ele>433.0</ele><time>2026-04-25T13:09:26Z</time></trkpt><trkpt lat="44.60937292832712" lon="9.015425278266063"><ele>434.0</ele><time>2026-04-25T13:09:27Z</time></trkpt><trkpt lat="44.60926809500244" lon="9.01540409025605"><ele>434.99999999999994</ele><time>2026-04-25T13:09:28Z</time></trkpt><trkpt lat="44.6091596394541" lon="9.015419891595583"><ele>435.99999999999994</ele><time>2026-04-25T13:09:29Z</time></trkpt><trkpt lat="44.609065315543596" lon="9.015447509474628"><ele>437.0</ele><time>2026-04-25T13:09:30Z</time></trkpt><trkpt lat="44.60901493284495" lon="9.015535355440608"><ele>438.0</ele><time>2026-04-25T13:09:31Z</time></trkpt><trkpt lat="44.60896356935927" lon="9.01564157756326"><ele>438.0</ele><time>2026-04-25T13:09:32Z</time></trkpt><trkpt lat="44.60888675025721" lon="9.015772362845697"><ele>437.99999999999994</ele><time>2026-04-25T13:09:33Z</time></trkpt><trkpt lat="44.608809054408674" lon="9.015902337515035"><ele>437.99999999999994</ele><time>2026-04-25T13:09:34Z</time></trkpt><trkpt lat="44.608739459212764" lon="9.016001767345482"><ele>438.0</ele><time>2026-04-25T13:09:35Z</time></trkpt><trkpt lat="44.608676678200155" lon="9.016086079200905"><ele>438.0</ele><time>2026-04-25T13:09:36Z</time></trkpt><trkpt lat="44.608596301188776" lon="9.016097404687628"><ele>439.0</ele><time>2026-04-25T13:09:37Z</time></trkpt><trkpt lat="44.60850278189832" lon="9.016137919361885"><ele>439.99999999999994</ele><time>2026-04-25T13:09:38Z</time></trkpt><trkpt lat="44.60840743138205" lon="9.016198835101102"><ele>440.99999999999994</ele><time>2026-04-25T13:09:39Z</time></trkpt><trkpt lat="44.60833927677887" lon="9.016288494538406"><ele>442.0</ele><time>2026-04-25T13:09:40Z</time></trkpt><trkpt lat="44.60826985723898" lon="9.016385374801647"><ele>443.0</ele><time>2026-04-25T13:09:41Z</time></trkpt><trkpt lat="44.608196930796986" lon="9.016497288429981"><ele>443.0</ele><time>2026-04-25T13:09:42Z</time></trkpt><trkpt lat="44.608145109131094" lon="9.016637564757138"><ele>443.0</ele><time>2026-04-25T13:09:43Z</time></trkpt><trkpt lat="44.60808350488289" lon="9.01677296966568"><ele>443.0</ele><time>2026-04-25T13:09:44Z</time></trkpt><trkpt lat="44.60801711487284" lon="9.016909169005126"><ele>443.0</ele><time>2026-04-25T13:09:45Z</time></trkpt><trkpt lat="44.60794992261602" lon="9.017063590446753"><ele>443.5</ele><time>2026-04-25T13:09:46Z</time></trkpt><trkpt lat="44.60787435756385" lon="9.017217097036758"><ele>444.0</ele><time>2026-04-25T13:09:47Z</time></trkpt><trkpt lat="44.60779800775263" lon="9.017388509871981"><ele>444.5</ele><time>2026-04-25T13:09:48Z</time></trkpt><trkpt lat="44.60773049682261" lon="9.017566550640227"><ele>445.0</ele><time>2026-04-25T13:09:49Z</time></trkpt><trkpt lat="44.60765631788531" lon="9.017722863650079"><ele>445.0</ele><time>2026-04-25T13:09:50Z</time></trkpt><trkpt lat="44.60755985082383" lon="9.017881299604612"><ele>445.0</ele><time>2026-04-25T13:09:51Z</time></trkpt><trkpt lat="44.60745791900815" lon="9.018036787213466"><ele>445.0</ele><time>2026-04-25T13:09:52Z</time></trkpt><trkpt lat="44.60737999523555" lon="9.018187003185208"><ele>445.0</ele><time>2026-04-25T13:09:53Z</time></trkpt><trkpt lat="44.60731847962214" lon="9.018327590038744"><ele>446.0</ele><time>2026-04-25T13:09:54Z</time></trkpt><trkpt lat="44.607281518955894" lon="9.018485708148624"><ele>447.0</ele><time>2026-04-25T13:09:55Z</time></trkpt><trkpt lat="44.607249508696476" lon="9.01866103423726"><ele>448.0</ele><time>2026-04-25T13:09:56Z</time></trkpt><trkpt lat="44.60718809854472" lon="9.018817166626198"><ele>449.0</ele><time>2026-04-25T13:09:57Z</time></trkpt><trkpt lat="44.607072944878745" lon="9.01894352868044"><ele>446.66666666666663</ele><time>2026-04-25T13:09:58Z</time></trkpt><trkpt lat="44.60698047310304" lon="9.01909777844093"><ele>444.33333333333337</ele><time>2026-04-25T13:09:59Z</time></trkpt><trkpt lat="44.606873968765505" lon="9.019257898410025"><ele>442.0</ele><time>2026-04-25T13:10:00Z</time></trkpt><trkpt lat="44.60681316716158" lon="9.019474603556652"><ele>439.6666666666667</ele><time>2026-04-25T13:10:01Z</time></trkpt><trkpt lat="44.60671363283346" lon="9.019673131023506"><ele>437.33333333333337</ele><time>2026-04-25T13:10:02Z</time></trkpt><trkpt lat="44.606618119402526" lon="9.019864130383457"><ele>435.0</ele><time>2026-04-25T13:10:03Z</time></trkpt><trkpt lat="44.606534134140645" lon="9.020073222345257"><ele>441.0</ele><time>2026-04-25T13:10:04Z</time></trkpt><trkpt lat="44.60645843013476" lon="9.020304052305688"><ele>447.0</ele><time>2026-04-25T13:10:05Z</time></trkpt><trkpt lat="44.60638180961311" lon="9.020519539507617"><ele>453.0</ele><time>2026-04-25T13:10:06Z</time></trkpt><trkpt lat="44.60632939874319" lon="9.020707598824076"><ele>449.0</ele><time>2026-04-25T13:10:07Z</time></trkpt><trkpt lat="44.606278964746565" lon="9.020884457925671"><ele>445.0</ele><time>2026-04-25T13:10:08Z</time></trkpt><trkpt lat="44.60619867384903" lon="9.02104637182602"><ele>441.0</ele><time>2026-04-25T13:10:09Z</time></trkpt><trkpt lat="44.606119957886904" lon="9.021208565171621"><ele>437.0</ele><time>2026-04-25T13:10:10Z</time></trkpt><trkpt lat="44.60603833578367" lon="9.021357025170577"><ele>437.0</ele><time>2026-04-25T13:10:11Z</time></trkpt><trkpt lat="44.6059515781577" lon="9.021469041526858"><ele>437.00000000000006</ele><time>2026-04-25T13:10:12Z</time></trkpt><trkpt lat="44.60585977214591" lon="9.021557306156549"><ele>437.00000000000006</ele><time>2026-04-25T13:10:13Z</time></trkpt><trkpt lat="44.6057559700487" lon="9.021604388756188"><ele>437.0</ele><time>2026-04-25T13:10:14Z</time></trkpt><trkpt lat="44.60567350501689" lon="9.02164337469688"><ele>437.0</ele><time>2026-04-25T13:10:15Z</time></trkpt><trkpt lat="44.60560674174137" lon="9.021733076692502"><ele>441.40000000000003</ele><time>2026-04-25T13:10:16Z</time></trkpt><trkpt lat="44.60556603801541" lon="9.021876485667546"><ele>445.80000000000007</ele><time>2026-04-25T13:10:17Z</time></trkpt><trkpt lat="44.60554956312137" lon="9.022046209742792"><ele>450.2</ele><time>2026-04-25T13:10:18Z</time></trkpt><trkpt lat="44.60553073157813" lon="9.022198965103591"><ele>454.6</ele><time>2026-04-25T13:10:19Z</time></trkpt><trkpt lat="44.60549913382717" lon="9.022311944713746"><ele>459.0</ele><time>2026-04-25T13:10:20Z</time></trkpt><trkpt lat="44.605415291937064" lon="9.022362394037446"><ele>455.2</ele><time>2026-04-25T13:10:21Z</time></trkpt><trkpt lat="44.60532131909382" lon="9.022357743794142"><ele>451.4</ele><time>2026-04-25T13:10:22Z</time></trkpt><trkpt lat="44.60523674869835" lon="9.02229992435024"><ele>447.6</ele><time>2026-04-25T13:10:23Z</time></trkpt><trkpt lat="44.60517383803487" lon="9.022189619152046"><ele>443.8</ele><time>2026-04-25T13:10:24Z</time></trkpt><trkpt lat="44.60511551600862" lon="9.022077636915444"><ele>440.0</ele><time>2026-04-25T13:10:25Z</time></trkpt><trkpt lat="44.605033787654236" lon="9.02203901780258"><ele>440.0</ele><time>2026-04-25T13:10:26Z</time></trkpt><trkpt lat="44.604937786588145" lon="9.02206071875481"><ele>440.0</ele><time>2026-04-25T13:10:27Z</time></trkpt><trkpt lat="44.604839505651455" lon="9.022148029297139"><ele>440.0</ele><time>2026-04-25T13:10:28Z</time></trkpt><trkpt lat="44.60474988915174" lon="9.022260480384581"><ele>440.0</ele><time>2026-04-25T13:10:29Z</time></trkpt><trkpt lat="44.604680951441" lon="9.022373876841032"><ele>440.0</ele><time>2026-04-25T13:10:30Z</time></trkpt><trkpt lat="44.6046398929548" lon="9.022488583004137"><ele>444.0</ele><time>2026-04-25T13:10:31Z</time></trkpt><trkpt lat="44.604640674711284" lon="9.02263409948008"><ele>448.0</ele><time>2026-04-25T13:10:32Z</time></trkpt><trkpt lat="44.60467659106906" lon="9.022804819699104"><ele>452.0</ele><time>2026-04-25T13:10:33Z</time></trkpt><trkpt lat="44.60472553483828" lon="9.02299813235886"><ele>456.0</ele><time>2026-04-25T13:10:34Z</time></trkpt><trkpt lat="44.604765164194994" lon="9.023214414872625"><ele>459.0</ele><time>2026-04-25T13:10:35Z</time></trkpt><trkpt lat="44.60476186785249" lon="9.023433047450759"><ele>462.0</ele><time>2026-04-25T13:10:36Z</time></trkpt><trkpt lat="44.604783379828795" lon="9.023621715937676"><ele>465.0</ele><time>2026-04-25T13:10:37Z</time></trkpt><trkpt lat="44.60482109037884" lon="9.023781626383611"><ele>468.0</ele><time>2026-04-25T13:10:38Z</time></trkpt><trkpt lat="44.60481621631739" lon="9.023925283670485"><ele>468.0</ele><time>2026-04-25T13:10:39Z</time></trkpt><trkpt lat="44.60474866407091" lon="9.024036237288824"><ele>468.0</ele><time>2026-04-25T13:10:40Z</time></trkpt><trkpt lat="44.60467010789134" lon="9.024150363768792"><ele>468.0</ele><time>2026-04-25T13:10:41Z</time></trkpt><trkpt lat="44.60457800563598" lon="9.024269938283606"><ele>468.0</ele><time>2026-04-25T13:10:42Z</time></trkpt><trkpt lat="44.604495407447544" lon="9.024401720873856"><ele>464.75</ele><time>2026-04-25T13:10:43Z</time></trkpt><trkpt lat="44.604412837330955" lon="9.024508606966418"><ele>461.5</ele><time>2026-04-25T13:10:44Z</time></trkpt><trkpt lat="44.60431225026965" lon="9.024556246034825"><ele>458.25</ele><time>2026-04-25T13:10:45Z</time></trkpt><trkpt lat="44.604191898698915" lon="9.024534061157935"><ele>455.0</ele><time>2026-04-25T13:10:46Z</time></trkpt><trkpt lat="44.604072249211214" lon="9.024494256713966"><ele>455.0</ele><time>2026-04-25T13:10:47Z</time></trkpt><trkpt lat="44.603937577830564" lon="9.024451553999427"><ele>455.0</ele><time>2026-04-25T13:10:48Z</time></trkpt><trkpt lat="44.60381221965304" lon="9.024397951362946"><ele>455.0</ele><time>2026-04-25T13:10:49Z</time></trkpt><trkpt lat="44.60369254459166" lon="9.024314730832641"><ele>455.0</ele><time>2026-04-25T13:10:50Z</time></trkpt><trkpt lat="44.6035960812357" lon="9.024195305223346"><ele>452.6</ele><time>2026-04-25T13:10:51Z</time></trkpt><trkpt lat="44.603520743084545" lon="9.024070947449776"><ele>450.2</ele><time>2026-04-25T13:10:52Z</time></trkpt><trkpt lat="44.60344751400062" lon="9.023981722582498"><ele>447.79999999999995</ele><time>2026-04-25T13:10:53Z</time></trkpt><trkpt lat="44.60336033611277" lon="9.023947942698546"><ele>445.4</ele><time>2026-04-25T13:10:54Z</time></trkpt><trkpt lat="44.603266242743956" lon="9.023963045805344"><ele>443.0</ele><time>2026-04-25T13:10:55Z</time></trkpt><trkpt lat="44.60316252695471" lon="9.024032213212912"><ele>448.66666666666663</ele><time>2026-04-25T13:10:56Z</time></trkpt><trkpt lat="44.603055114027256" lon="9.024149062987258"><ele>454.33333333333337</ele><time>2026-04-25T13:10:57Z</time></trkpt><trkpt lat="44.60295876560216" lon="9.024311488380809"><ele>460.0</ele><time>2026-04-25T13:10:58Z</time></trkpt><trkpt lat="44.60286201361306" lon="9.024507281364057"><ele>457.33333333333337</ele><time>2026-04-25T13:10:59Z</time></trkpt><trkpt lat="44.60276231662818" lon="9.024728097246562"><ele>454.66666666666663</ele><time>2026-04-25T13:11:00Z</time></trkpt><trkpt lat="44.60266651025741" lon="9.024988426080172"><ele>452.0</ele><time>2026-04-25T13:11:01Z</time></trkpt><trkpt lat="44.60258529889561" lon="9.025277035274485"><ele>452.0</ele><time>2026-04-25T13:11:02Z</time></trkpt><trkpt lat="44.602512450955075" lon="9.02552747485276"><ele>452.0</ele><time>2026-04-25T13:11:03Z</time></trkpt><trkpt lat="44.60243603168897" lon="9.02575704927849"><ele>452.0</ele><time>2026-04-25T13:11:04Z</time></trkpt><trkpt lat="44.60234915170275" lon="9.025965611652168"><ele>449.0</ele><time>2026-04-25T13:11:05Z</time></trkpt><trkpt lat="44.60226475304659" lon="9.026138386533644"><ele>446.0</ele><time>2026-04-25T13:11:06Z</time></trkpt><trkpt lat="44.60217168394818" lon="9.026280525468017"><ele>443.0</ele><time>2026-04-25T13:11:07Z</time></trkpt><trkpt lat="44.6020522873214" lon="9.02641251372822"><ele>440.0</ele><time>2026-04-25T13:11:08Z</time></trkpt><trkpt lat="44.60191649800921" lon="9.026525236944165"><ele>440.0</ele><time>2026-04-25T13:11:09Z</time></trkpt><trkpt lat="44.601787615915214" lon="9.026630071328297"><ele>440.0</ele><time>2026-04-25T13:11:10Z</time></trkpt><trkpt lat="44.601679477709226" lon="9.026738385136916"><ele>440.0</ele><time>2026-04-25T13:11:11Z</time></trkpt><trkpt lat="44.60158403519742" lon="9.026865692521252"><ele>440.0</ele><time>2026-04-25T13:11:12Z</time></trkpt><trkpt lat="44.60149237311402" lon="9.027000277751176"><ele>444.25</ele><time>2026-04-25T13:11:13Z</time></trkpt><trkpt lat="44.60141179280832" lon="9.027121711099895"><ele>448.5</ele><time>2026-04-25T13:11:14Z</time></trkpt><trkpt lat="44.6013433355336" lon="9.027254475729322"><ele>452.75</ele><time>2026-04-25T13:11:15Z</time></trkpt><trkpt lat="44.60129901315511" lon="9.027410163685007"><ele>457.0</ele><time>2026-04-25T13:11:16Z</time></trkpt><trkpt lat="44.60127665894769" lon="9.027587239327296"><ele>454.0</ele><time>2026-04-25T13:11:17Z</time></trkpt><trkpt lat="44.60125923306687" lon="9.027771278048961"><ele>451.0</ele><time>2026-04-25T13:11:18Z</time></trkpt><trkpt lat="44.60122935593611" lon="9.027954806629802"><ele>448.0</ele><time>2026-04-25T13:11:19Z</time></trkpt><trkpt lat="44.60119078116651" lon="9.028120040394006"><ele>445.0</ele><time>2026-04-25T13:11:20Z</time></trkpt><trkpt lat="44.601153298205496" lon="9.028261690072124"><ele>446.4</ele><time>2026-04-25T13:11:21Z</time></trkpt><trkpt lat="44.60113551164008" lon="9.028378170053443"><ele>447.8</ele><time>2026-04-25T13:11:22Z</time></trkpt><trkpt lat="44.60114980414108" lon="9.028492450686489"><ele>449.20000000000005</ele><time>2026-04-25T13:11:23Z</time></trkpt><trkpt lat="44.601184747511645" lon="9.028602852883658"><ele>450.6</ele><time>2026-04-25T13:11:24Z</time></trkpt><trkpt lat="44.60124172973031" lon="9.02870207469291"><ele>452.0</ele><time>2026-04-25T13:11:25Z</time></trkpt><trkpt lat="44.60131150546493" lon="9.028814682193136"><ele>458.75</ele><time>2026-04-25T13:11:26Z</time></trkpt><trkpt lat="44.60139026557746" lon="9.028954833485418"><ele>465.5</ele><time>2026-04-25T13:11:27Z</time></trkpt><trkpt lat="44.60146237538883" lon="9.029116922812436"><ele>472.25</ele><time>2026-04-25T13:11:28Z</time></trkpt><trkpt lat="44.60153662338038" lon="9.029234363231422"><ele>479.0</ele><time>2026-04-25T13:11:29Z</time></trkpt><trkpt lat="44.60158700382952" lon="9.02936794484512"><ele>479.0</ele><time>2026-04-25T13:11:30Z</time></trkpt><trkpt lat="44.60162132325155" lon="9.02951715240798"><ele>479.0</ele><time>2026-04-25T13:11:31Z</time></trkpt><trkpt lat="44.601653725076154" lon="9.02967216783783"><ele>479.0</ele><time>2026-04-25T13:11:32Z</time></trkpt><trkpt lat="44.60168882843968" lon="9.029828057354715"><ele>479.0</ele><time>2026-04-25T13:11:33Z</time></trkpt><trkpt lat="44.601727195508566" lon="9.029989434343253"><ele>474.25</ele><time>2026-04-25T13:11:34Z</time></trkpt><trkpt lat="44.60176731248778" lon="9.030142640567604"><ele>469.5</ele><time>2026-04-25T13:11:35Z</time></trkpt><trkpt lat="44.60181823075931" lon="9.030295988348675"><ele>464.75</ele><time>2026-04-25T13:11:36Z</time></trkpt><trkpt lat="44.60187117587649" lon="9.030449179809777"><ele>460.0</ele><time>2026-04-25T13:11:37Z</time></trkpt><trkpt lat="44.6019364541594" lon="9.030597327312472"><ele>468.5</ele><time>2026-04-25T13:11:38Z</time></trkpt><trkpt lat="44.60200557017539" lon="9.030740742357803"><ele>477.0</ele><time>2026-04-25T13:11:39Z</time></trkpt><trkpt lat="44.6020626159509" lon="9.03089064937966"><ele>485.5</ele><time>2026-04-25T13:11:40Z</time></trkpt><trkpt lat="44.60212557069445" lon="9.031043705482924"><ele>494.0</ele><time>2026-04-25T13:11:41Z</time></trkpt><trkpt lat="44.602183754802944" lon="9.03120806444299"><ele>494.0</ele><time>2026-04-25T13:11:42Z</time></trkpt><trkpt lat="44.60222780338442" lon="9.031377810792673"><ele>494.0</ele><time>2026-04-25T13:11:43Z</time></trkpt><trkpt lat="44.602271185998994" lon="9.031546530178451"><ele>494.0</ele><time>2026-04-25T13:11:44Z</time></trkpt><trkpt lat="44.60231309851602" lon="9.031700508184901"><ele>494.0</ele><time>2026-04-25T13:11:45Z</time></trkpt><trkpt lat="44.602347974242356" lon="9.031848286672062"><ele>489.79999999999995</ele><time>2026-04-25T13:11:46Z</time></trkpt><trkpt lat="44.60237368051263" lon="9.03198550352329"><ele>485.59999999999997</ele><time>2026-04-25T13:11:47Z</time></trkpt><trkpt lat="44.60240654842876" lon="9.032115915559347"><ele>481.4</ele><time>2026-04-25T13:11:48Z</time></trkpt><trkpt lat="44.602439606867456" lon="9.03223879494052"><ele>477.2</ele><time>2026-04-25T13:11:49Z</time></trkpt><trkpt lat="44.60252346589301" lon="9.032310575790222"><ele>473.0</ele><time>2026-04-25T13:11:50Z</time></trkpt><trkpt lat="44.60257894775284" lon="9.032407756477827"><ele>469.2</ele><time>2026-04-25T13:11:51Z</time></trkpt><trkpt lat="44.60262295669017" lon="9.032512000485854"><ele>465.4</ele><time>2026-04-25T13:11:52Z</time></trkpt><trkpt lat="44.60266500514961" lon="9.03263526591355"><ele>461.59999999999997</ele><time>2026-04-25T13:11:53Z</time></trkpt><trkpt lat="44.60270305222327" lon="9.032769071855071"><ele>457.79999999999995</ele><time>2026-04-25T13:11:54Z</time></trkpt><trkpt lat="44.60273192139712" lon="9.032914420261884"><ele>454.0</ele><time>2026-04-25T13:11:55Z</time></trkpt><trkpt lat="44.60274665488983" lon="9.033065147305512"><ele>454.0</ele><time>2026-04-25T13:11:56Z</time></trkpt><trkpt lat="44.60275007147421" lon="9.033239563592778"><ele>454.0</ele><time>2026-04-25T13:11:57Z</time></trkpt><trkpt lat="44.60274945935523" lon="9.033366760635735"><ele>454.0</ele><time>2026-04-25T13:11:58Z</time></trkpt><trkpt lat="44.60274235355556" lon="9.0334964710963"><ele>454.0</ele><time>2026-04-25T13:11:59Z</time></trkpt><trkpt lat="44.60270834375563" lon="9.033658219294859"><ele>454.0</ele><time>2026-04-25T13:12:00Z</time></trkpt><trkpt lat="44.60267172681599" lon="9.033831425438565"><ele>454.25</ele><time>2026-04-25T13:12:01Z</time></trkpt><trkpt lat="44.60263128150512" lon="9.034022740565517"><ele>454.5</ele><time>2026-04-25T13:12:02Z</time></trkpt><trkpt lat="44.60259039859706" lon="9.034216125673696"><ele>454.75</ele><time>2026-04-25T13:12:03Z</time></trkpt><trkpt lat="44.60254913923236" lon="9.034408678984287"><ele>455.0</ele><time>2026-04-25T13:12:04Z</time></trkpt><trkpt lat="44.60250782882696" lon="9.034588923561707"><ele>456.25</ele><time>2026-04-25T13:12:05Z</time></trkpt><trkpt lat="44.60248087785489" lon="9.03476332374782"><ele>457.5</ele><time>2026-04-25T13:12:06Z</time></trkpt><trkpt lat="44.60244883531508" lon="9.034936929090847"><ele>458.75</ele><time>2026-04-25T13:12:07Z</time></trkpt><trkpt lat="44.60244412499518" lon="9.0351284597344"><ele>460.0</ele><time>2026-04-25T13:12:08Z</time></trkpt><trkpt lat="44.602450383821875" lon="9.035316242499345"><ele>461.5</ele><time>2026-04-25T13:12:09Z</time></trkpt><trkpt lat="44.602432110231945" lon="9.035493160561181"><ele>463.0</ele><time>2026-04-25T13:12:10Z</time></trkpt><trkpt lat="44.602377389659004" lon="9.03563766439526"><ele>464.5</ele><time>2026-04-25T13:12:11Z</time></trkpt><trkpt lat="44.60228277589968" lon="9.035736553596179"><ele>466.0</ele><time>2026-04-25T13:12:12Z</time></trkpt><trkpt lat="44.60221348268865" lon="9.035879073074321"><ele>466.0</ele><time>2026-04-25T13:12:13Z</time></trkpt><trkpt lat="44.60214942478346" lon="9.03605626810586"><ele>466.0</ele><time>2026-04-25T13:12:14Z</time></trkpt><trkpt lat="44.602089696859665" lon="9.036272550173818"><ele>466.0</ele><time>2026-04-25T13:12:15Z</time></trkpt><trkpt lat="44.60202291019983" lon="9.036490674779037"><ele>462.33333333333337</ele><time>2026-04-25T13:12:16Z</time></trkpt><trkpt lat="44.601963991988455" lon="9.036704122584698"><ele>458.66666666666663</ele><time>2026-04-25T13:12:17Z</time></trkpt><trkpt lat="44.60190592054017" lon="9.036908048024014"><ele>455.0</ele><time>2026-04-25T13:12:18Z</time></trkpt><trkpt lat="44.60185144603433" lon="9.037088843841948"><ele>455.0</ele><time>2026-04-25T13:12:19Z</time></trkpt><trkpt lat="44.60180250716287" lon="9.037257899808518"><ele>455.0</ele><time>2026-04-25T13:12:20Z</time></trkpt><trkpt lat="44.60176174846655" lon="9.037412950544786"><ele>455.0</ele><time>2026-04-25T13:12:21Z</time></trkpt><trkpt lat="44.60172869512871" lon="9.03756425177105"><ele>455.0</ele><time>2026-04-25T13:12:22Z</time></trkpt><trkpt lat="44.60168894256177" lon="9.037698068334436"><ele>455.99999999999994</ele><time>2026-04-25T13:12:23Z</time></trkpt><trkpt lat="44.60165220177268" lon="9.037821350494864"><ele>457.0</ele><time>2026-04-25T13:12:24Z</time></trkpt><trkpt lat="44.601619403432906" lon="9.037938386722185"><ele>458.0</ele><time>2026-04-25T13:12:25Z</time></trkpt><trkpt lat="44.601594485181764" lon="9.038036857686372"><ele>459.0</ele><time>2026-04-25T13:12:26Z</time></trkpt><trkpt lat="44.60157075767012" lon="9.03819611973423"><ele>459.99999999999994</ele><time>2026-04-25T13:12:28Z</time></trkpt><trkpt lat="44.60159707094005" lon="9.038286200143464"><ele>461.0</ele><time>2026-04-25T13:12:29Z</time></trkpt><trkpt lat="44.60164529965461" lon="9.038395946590855"><ele>461.25</ele><time>2026-04-25T13:12:30Z</time></trkpt><trkpt lat="44.60170251875595" lon="9.038531759119836"><ele>461.5</ele><time>2026-04-25T13:12:31Z</time></trkpt><trkpt lat="44.60177079344249" lon="9.038691582778629"><ele>461.75</ele><time>2026-04-25T13:12:32Z</time></trkpt><trkpt lat="44.601819306575834" lon="9.038876804082108"><ele>462.0</ele><time>2026-04-25T13:12:33Z</time></trkpt><trkpt lat="44.601872254856076" lon="9.039064640357543"><ele>461.75</ele><time>2026-04-25T13:12:34Z</time></trkpt><trkpt lat="44.60191657522228" lon="9.03923239274044"><ele>461.5</ele><time>2026-04-25T13:12:35Z</time></trkpt><trkpt lat="44.601959270029845" lon="9.03942129362646"><ele>461.25</ele><time>2026-04-25T13:12:36Z</time></trkpt><trkpt lat="44.60199842897522" lon="9.039612028940239"><ele>461.0</ele><time>2026-04-25T13:12:37Z</time></trkpt><trkpt lat="44.60204102566134" lon="9.039803879561301"><ele>465.5</ele><time>2026-04-25T13:12:38Z</time></trkpt><trkpt lat="44.60208932956809" lon="9.039998255325065"><ele>470.0</ele><time>2026-04-25T13:12:39Z</time></trkpt><trkpt lat="44.60213593664779" lon="9.040187478254579"><ele>474.5</ele><time>2026-04-25T13:12:40Z</time></trkpt><trkpt lat="44.60220480698154" lon="9.040366076769592"><ele>479.0</ele><time>2026-04-25T13:12:41Z</time></trkpt><trkpt lat="44.60226074811844" lon="9.040552658123456"><ele>479.0</ele><time>2026-04-25T13:12:42Z</time></trkpt><trkpt lat="44.602334107640544" lon="9.04073432117231"><ele>479.0</ele><time>2026-04-25T13:12:43Z</time></trkpt><trkpt lat="44.602411864404075" lon="9.04091947700254"><ele>479.0</ele><time>2026-04-25T13:12:44Z</time></trkpt><trkpt lat="44.60249070280534" lon="9.041106739626278"><ele>478.0</ele><time>2026-04-25T13:12:45Z</time></trkpt><trkpt lat="44.60257171575054" lon="9.04129916750591"><ele>477.0</ele><time>2026-04-25T13:12:46Z</time></trkpt><trkpt lat="44.60265712679491" lon="9.04149952947983"><ele>476.0</ele><time>2026-04-25T13:12:47Z</time></trkpt><trkpt lat="44.602747059982576" lon="9.04170792951991"><ele>483.3333333333333</ele><time>2026-04-25T13:12:48Z</time></trkpt><trkpt lat="44.60284359171615" lon="9.041928007572304"><ele>490.66666666666663</ele><time>2026-04-25T13:12:49Z</time></trkpt><trkpt lat="44.602943989897284" lon="9.042149401000202"><ele>498.0</ele><time>2026-04-25T13:12:50Z</time></trkpt><trkpt lat="44.603046213760386" lon="9.042373250469682"><ele>495.33333333333337</ele><time>2026-04-25T13:12:51Z</time></trkpt><trkpt lat="44.603144843552116" lon="9.042589084167941"><ele>492.6666666666667</ele><time>2026-04-25T13:12:52Z</time></trkpt><trkpt lat="44.60324280715114" lon="9.042802180637906"><ele>490.0</ele><time>2026-04-25T13:12:53Z</time></trkpt><trkpt lat="44.60333989730314" lon="9.043006658386215"><ele>490.0</ele><time>2026-04-25T13:12:54Z</time></trkpt><trkpt lat="44.603423054004416" lon="9.043200230130926"><ele>490.0</ele><time>2026-04-25T13:12:55Z</time></trkpt><trkpt lat="44.60348337069268" lon="9.043404648166652"><ele>490.0</ele><time>2026-04-25T13:12:56Z</time></trkpt><trkpt lat="44.60353009692959" lon="9.043629222526665"><ele>486.33333333333337</ele><time>2026-04-25T13:12:57Z</time></trkpt><trkpt lat="44.60358012097914" lon="9.043882243095844"><ele>482.66666666666663</ele><time>2026-04-25T13:12:58Z</time></trkpt><trkpt lat="44.60362419595542" lon="9.044117515720806"><ele>479.0</ele><time>2026-04-25T13:12:59Z</time></trkpt><trkpt lat="44.60367254495409" lon="9.044365331310786"><ele>486.66666666666663</ele><time>2026-04-25T13:13:00Z</time></trkpt><trkpt lat="44.60372009494568" lon="9.04460144321906"><ele>494.33333333333337</ele><time>2026-04-25T13:13:01Z</time></trkpt><trkpt lat="44.60376485199052" lon="9.044815722564328"><ele>502.0</ele><time>2026-04-25T13:13:02Z</time></trkpt><trkpt lat="44.603808643297114" lon="9.045019077925087"><ele>502.0</ele><time>2026-04-25T13:13:03Z</time></trkpt><trkpt lat="44.60385180846995" lon="9.045217993704565"><ele>502.0</ele><time>2026-04-25T13:13:04Z</time></trkpt><trkpt lat="44.60390584190287" lon="9.045422253767013"><ele>502.0</ele><time>2026-04-25T13:13:05Z</time></trkpt><trkpt lat="44.60397452352765" lon="9.045614672864465"><ele>498.33333333333337</ele><time>2026-04-25T13:13:06Z</time></trkpt><trkpt lat="44.604043921580406" lon="9.045798962651446"><ele>494.66666666666663</ele><time>2026-04-25T13:13:07Z</time></trkpt><trkpt lat="44.60411335391439" lon="9.045995654473586"><ele>491.0</ele><time>2026-04-25T13:13:08Z</time></trkpt><trkpt lat="44.60418148823101" lon="9.046188669200804"><ele>491.0</ele><time>2026-04-25T13:13:09Z</time></trkpt><trkpt lat="44.604251466537185" lon="9.046387336426587"><ele>491.0</ele><time>2026-04-25T13:13:10Z</time></trkpt><trkpt lat="44.604320734424064" lon="9.04658421661548"><ele>491.0</ele><time>2026-04-25T13:13:11Z</time></trkpt><trkpt lat="44.60439143423422" lon="9.04678516680137"><ele>486.66666666666663</ele><time>2026-04-25T13:13:12Z</time></trkpt><trkpt lat="44.60446364546983" lon="9.046989253912406"><ele>482.33333333333337</ele><time>2026-04-25T13:13:13Z</time></trkpt><trkpt lat="44.60453769900468" lon="9.047194352478984"><ele>478.0</ele><time>2026-04-25T13:13:14Z</time></trkpt><trkpt lat="44.60460873445333" lon="9.047391092207262"><ele>483.75</ele><time>2026-04-25T13:13:15Z</time></trkpt><trkpt lat="44.60467437522708" lon="9.047574797866112"><ele>489.5</ele><time>2026-04-25T13:13:16Z</time></trkpt><trkpt lat="44.60473768435267" lon="9.047752166413789"><ele>495.25</ele><time>2026-04-25T13:13:17Z</time></trkpt><trkpt lat="44.60479817665655" lon="9.047921643134343"><ele>501.0</ele><time>2026-04-25T13:13:18Z</time></trkpt><trkpt lat="44.604869353176355" lon="9.048068499096381"><ele>501.0</ele><time>2026-04-25T13:13:19Z</time></trkpt><trkpt lat="44.60492288634418" lon="9.048211952735153"><ele>501.0</ele><time>2026-04-25T13:13:20Z</time></trkpt><trkpt lat="44.604980090818636" lon="9.04834837465261"><ele>501.0</ele><time>2026-04-25T13:13:21Z</time></trkpt><trkpt lat="44.605049046800296" lon="9.048464391403725"><ele>501.0</ele><time>2026-04-25T13:13:22Z</time></trkpt><trkpt lat="44.60514127970583" lon="9.04854515722188"><ele>501.0</ele><time>2026-04-25T13:13:23Z</time></trkpt><trkpt lat="44.60523837417782" lon="9.048610627625617"><ele>502.20000000000005</ele><time>2026-04-25T13:13:24Z</time></trkpt><trkpt lat="44.60532860086154" lon="9.048650176274998"><ele>503.40000000000003</ele><time>2026-04-25T13:13:25Z</time></trkpt><trkpt lat="44.60540981609496" lon="9.048677923667444"><ele>504.6</ele><time>2026-04-25T13:13:26Z</time></trkpt><trkpt lat="44.6054856354223" lon="9.048738165210697"><ele>505.8</ele><time>2026-04-25T13:13:28Z</time></trkpt><trkpt lat="44.605459613183825" lon="9.048854349932332"><ele>507.0</ele><time>2026-04-25T13:13:30Z</time></trkpt><trkpt lat="44.605462835231705" lon="9.04902265050083"><ele>503.5</ele><time>2026-04-25T13:13:32Z</time></trkpt><trkpt lat="44.60546510000911" lon="9.049129622954274"><ele>500.0</ele><time>2026-04-25T13:13:33Z</time></trkpt><trkpt lat="44.60547806735248" lon="9.049256618682433"><ele>496.5</ele><time>2026-04-25T13:13:34Z</time></trkpt><trkpt lat="44.60548139839921" lon="9.04937969607255"><ele>493.0</ele><time>2026-04-25T13:13:35Z</time></trkpt><trkpt lat="44.605477734931135" lon="9.049475211299685"><ele>489.5</ele><time>2026-04-25T13:13:36Z</time></trkpt><trkpt lat="44.60538720767163" lon="9.049558257204003"><ele>486.0</ele><time>2026-04-25T13:13:38Z</time></trkpt><trkpt lat="44.60532230091286" lon="9.049565899980147"><ele>486.3333333333333</ele><time>2026-04-25T13:13:39Z</time></trkpt><trkpt lat="44.605259739807344" lon="9.049578454736066"><ele>486.66666666666663</ele><time>2026-04-25T13:13:40Z</time></trkpt><trkpt lat="44.605197106895346" lon="9.049609601656204"><ele>487.0</ele><time>2026-04-25T13:13:41Z</time></trkpt><trkpt lat="44.60510501032563" lon="9.049718291580453"><ele>487.3333333333333</ele><time>2026-04-25T13:13:42.999Z</time></trkpt><trkpt lat="44.60506969250039" lon="9.04988614242184"><ele>487.66666666666663</ele><time>2026-04-25T13:13:44.999Z</time></trkpt><trkpt lat="44.60508034375866" lon="9.049981498295818"><ele>488.0</ele><time>2026-04-25T13:13:45.999Z</time></trkpt><trkpt lat="44.60510431519195" lon="9.050082450955745"><ele>488.0</ele><time>2026-04-25T13:13:46.999Z</time></trkpt><trkpt lat="44.605115089755884" lon="9.050195222493457"><ele>487.99999999999994</ele><time>2026-04-25T13:13:47.999Z</time></trkpt><trkpt lat="44.605131896276724" lon="9.05031340121829"><ele>487.99999999999994</ele><time>2026-04-25T13:13:48.999Z</time></trkpt><trkpt lat="44.60514025629884" lon="9.050442133779342"><ele>488.0</ele><time>2026-04-25T13:13:49.999Z</time></trkpt><trkpt lat="44.605141456603874" lon="9.050580915235527"><ele>488.0</ele><time>2026-04-25T13:13:50.999Z</time></trkpt><trkpt lat="44.60513384209652" lon="9.050732568976573"><ele>489.59999999999997</ele><time>2026-04-25T13:13:51.999Z</time></trkpt><trkpt lat="44.605114080107846" lon="9.050881601463699"><ele>491.19999999999993</ele><time>2026-04-25T13:13:52.999Z</time></trkpt><trkpt lat="44.60509036196362" lon="9.051011633447748"><ele>492.8</ele><time>2026-04-25T13:13:53.999Z</time></trkpt><trkpt lat="44.60506987403951" lon="9.051149020974854"><ele>494.4</ele><time>2026-04-25T13:13:54.999Z</time></trkpt><trkpt lat="44.605049033198334" lon="9.051288669676845"><ele>496.0</ele><time>2026-04-25T13:13:55.999Z</time></trkpt><trkpt lat="44.60502672190739" lon="9.051433020390458"><ele>496.0</ele><time>2026-04-25T13:13:56.999Z</time></trkpt><trkpt lat="44.60501195633198" lon="9.051584273614495"><ele>496.0</ele><time>2026-04-25T13:13:57.999Z</time></trkpt><trkpt lat="44.60500362067195" lon="9.051744620812999"><ele>496.0</ele><time>2026-04-25T13:13:58.999Z</time></trkpt><trkpt lat="44.60499634357936" lon="9.051911410643148"><ele>496.0</ele><time>2026-04-25T13:13:59.999Z</time></trkpt><trkpt lat="44.604988852819574" lon="9.052084531325066"><ele>497.0</ele><time>2026-04-25T13:14:00.999Z</time></trkpt><trkpt lat="44.60498717319451" lon="9.052264191504344"><ele>498.0</ele><time>2026-04-25T13:14:01.999Z</time></trkpt><trkpt lat="44.60499375185932" lon="9.052451327831367"><ele>499.0</ele><time>2026-04-25T13:14:02.999Z</time></trkpt><trkpt lat="44.605013088192344" lon="9.052627659152538"><ele>500.0</ele><time>2026-04-25T13:14:03.999Z</time></trkpt><trkpt lat="44.605026683050156" lon="9.05280726508653"><ele>500.75</ele><time>2026-04-25T13:14:04.999Z</time></trkpt><trkpt lat="44.60505428969115" lon="9.052985318200717"><ele>501.5</ele><time>2026-04-25T13:14:05.999Z</time></trkpt><trkpt lat="44.605096169802806" lon="9.05314582260305"><ele>502.25</ele><time>2026-04-25T13:14:06.999Z</time></trkpt><trkpt lat="44.60510693366958" lon="9.053315201653339"><ele>503.0</ele><time>2026-04-25T13:14:07.999Z</time></trkpt><trkpt lat="44.60506795053832" lon="9.053490034743584"><ele>503.5</ele><time>2026-04-25T13:14:08.999Z</time></trkpt><trkpt lat="44.60508460853305" lon="9.053679638160018"><ele>504.0</ele><time>2026-04-25T13:14:09.999Z</time></trkpt><trkpt lat="44.60510107760301" lon="9.053883951096532"><ele>504.5</ele><time>2026-04-25T13:14:10.999Z</time></trkpt><trkpt lat="44.60511431551723" lon="9.054100615164081"><ele>505.0</ele><time>2026-04-25T13:14:11.999Z</time></trkpt><trkpt lat="44.60513632806617" lon="9.054320195185191"><ele>505.6666666666667</ele><time>2026-04-25T13:14:12.999Z</time></trkpt><trkpt lat="44.6051654403271" lon="9.05453506084644"><ele>506.33333333333337</ele><time>2026-04-25T13:14:13.999Z</time></trkpt><trkpt lat="44.60516026710316" lon="9.054753778302441"><ele>507.0</ele><time>2026-04-25T13:14:14.999Z</time></trkpt><trkpt lat="44.60513747206566" lon="9.054984345329004"><ele>507.0</ele><time>2026-04-25T13:14:15.999Z</time></trkpt><trkpt lat="44.60510225343372" lon="9.055219414815069"><ele>507.0</ele><time>2026-04-25T13:14:16.999Z</time></trkpt><trkpt lat="44.605067050587536" lon="9.055454691656404"><ele>507.0</ele><time>2026-04-25T13:14:17.999Z</time></trkpt><trkpt lat="44.60503391983954" lon="9.055699149462386"><ele>509.66666666666663</ele><time>2026-04-25T13:14:18.999Z</time></trkpt><trkpt lat="44.60499662000204" lon="9.05593094082288"><ele>512.3333333333333</ele><time>2026-04-25T13:14:19.999Z</time></trkpt><trkpt lat="44.604962095617935" lon="9.056166388897854"><ele>515.0</ele><time>2026-04-25T13:14:20.999Z</time></trkpt><trkpt lat="44.60492958617899" lon="9.056373810115346"><ele>515.0</ele><time>2026-04-25T13:14:21.999Z</time></trkpt><trkpt lat="44.60489125357058" lon="9.05655460673425"><ele>515.0</ele><time>2026-04-25T13:14:22.999Z</time></trkpt><trkpt lat="44.604851381373" lon="9.056711901949509"><ele>515.0</ele><time>2026-04-25T13:14:23.999Z</time></trkpt><trkpt lat="44.60483410356239" lon="9.05686813343794"><ele>515.0</ele><time>2026-04-25T13:14:24.999Z</time></trkpt><trkpt lat="44.60484001331938" lon="9.057044908494579"><ele>516.25</ele><time>2026-04-25T13:14:25.999Z</time></trkpt><trkpt lat="44.604838255636" lon="9.057230143268685"><ele>517.5</ele><time>2026-04-25T13:14:26.999Z</time></trkpt><trkpt lat="44.60478379071467" lon="9.057399164938696"><ele>518.75</ele><time>2026-04-25T13:14:27.999Z</time></trkpt><trkpt lat="44.60475385192303" lon="9.057581125348825"><ele>520.0</ele><time>2026-04-25T13:14:28.999Z</time></trkpt><trkpt lat="44.60478829121567" lon="9.057782066629771"><ele>521.25</ele><time>2026-04-25T13:14:30Z</time></trkpt><trkpt lat="44.60476180160999" lon="9.057975806330063"><ele>522.5</ele><time>2026-04-25T13:14:31Z</time></trkpt><trkpt lat="44.60472495964957" lon="9.05816980691268"><ele>523.75</ele><time>2026-04-25T13:14:32Z</time></trkpt><trkpt lat="44.604704923334076" lon="9.058361981396411"><ele>525.0</ele><time>2026-04-25T13:14:33Z</time></trkpt><trkpt lat="44.604675411785124" lon="9.058528496269025"><ele>528.0</ele><time>2026-04-25T13:14:34Z</time></trkpt><trkpt lat="44.60465058310217" lon="9.05867425690153"><ele>531.0</ele><time>2026-04-25T13:14:35Z</time></trkpt><trkpt lat="44.6046418918511" lon="9.058817651200874"><ele>534.0</ele><time>2026-04-25T13:14:36Z</time></trkpt><trkpt lat="44.604652285455444" lon="9.058976743840041"><ele>537.0</ele><time>2026-04-25T13:14:37Z</time></trkpt><trkpt lat="44.604647736683376" lon="9.059152837758806"><ele>540.0</ele><time>2026-04-25T13:14:38Z</time></trkpt><trkpt lat="44.604659861138934" lon="9.059312916187299"><ele>540.8</ele><time>2026-04-25T13:14:39Z</time></trkpt><trkpt lat="44.60468480838053" lon="9.059452102859732"><ele>541.6</ele><time>2026-04-25T13:14:40Z</time></trkpt><trkpt lat="44.604744444218234" lon="9.059567818861034"><ele>542.4</ele><time>2026-04-25T13:14:41Z</time></trkpt><trkpt lat="44.604812610765265" lon="9.059669358270181"><ele>543.2</ele><time>2026-04-25T13:14:42Z</time></trkpt><trkpt lat="44.604835970249795" lon="9.059757654353735"><ele>544.0</ele><time>2026-04-25T13:14:43Z</time></trkpt><trkpt lat="44.60478692188433" lon="9.059927840532069"><ele>542.4</ele><time>2026-04-25T13:14:45Z</time></trkpt><trkpt lat="44.60477982386147" lon="9.060040969784097"><ele>540.8</ele><time>2026-04-25T13:14:46Z</time></trkpt><trkpt lat="44.60478043471063" lon="9.060178286105106"><ele>539.2</ele><time>2026-04-25T13:14:47Z</time></trkpt><trkpt lat="44.604819027758886" lon="9.060335470149843"><ele>537.6</ele><time>2026-04-25T13:14:48Z</time></trkpt><trkpt lat="44.60486482985578" lon="9.060505535695718"><ele>536.0</ele><time>2026-04-25T13:14:49Z</time></trkpt><trkpt lat="44.60490620883917" lon="9.060678660049536"><ele>536.25</ele><time>2026-04-25T13:14:50Z</time></trkpt><trkpt lat="44.604921403718556" lon="9.060842968208046"><ele>536.5</ele><time>2026-04-25T13:14:51Z</time></trkpt><trkpt lat="44.60493264746655" lon="9.061015164022654"><ele>536.75</ele><time>2026-04-25T13:14:52Z</time></trkpt><trkpt lat="44.60494027582307" lon="9.061196762276897"><ele>537.0</ele><time>2026-04-25T13:14:53Z</time></trkpt><trkpt lat="44.60494255330701" lon="9.061378273164847"><ele>537.0</ele><time>2026-04-25T13:14:54Z</time></trkpt><trkpt lat="44.604940754321476" lon="9.061558844767886"><ele>537.0</ele><time>2026-04-25T13:14:55Z</time></trkpt><trkpt lat="44.60493274540745" lon="9.061725436654624"><ele>537.0</ele><time>2026-04-25T13:14:56Z</time></trkpt><trkpt lat="44.60492649563925" lon="9.061869358368682"><ele>537.0</ele><time>2026-04-25T13:14:57Z</time></trkpt><trkpt lat="44.60492435331205" lon="9.061986084711856"><ele>537.0</ele><time>2026-04-25T13:14:58Z</time></trkpt><trkpt lat="44.60494866077782" lon="9.06209691813118"><ele>537.1666666666666</ele><time>2026-04-25T13:14:59Z</time></trkpt><trkpt lat="44.60499650908449" lon="9.06219765343479"><ele>537.3333333333334</ele><time>2026-04-25T13:15:00Z</time></trkpt><trkpt lat="44.60503419435082" lon="9.062291622531884"><ele>537.5</ele><time>2026-04-25T13:15:01Z</time></trkpt><trkpt lat="44.605032569958745" lon="9.062449638713797"><ele>537.6666666666667</ele><time>2026-04-25T13:15:03Z</time></trkpt><trkpt lat="44.60498808136906" lon="9.062516858279166"><ele>537.8333333333334</ele><time>2026-04-25T13:15:04Z</time></trkpt><trkpt lat="44.60491788294626" lon="9.062560135826873"><ele>538.0</ele><time>2026-04-25T13:15:05Z</time></trkpt><trkpt lat="44.60486956368644" lon="9.062677685593586"><ele>537.6</ele><time>2026-04-25T13:15:06Z</time></trkpt><trkpt lat="44.604853964219224" lon="9.06279819917411"><ele>537.1999999999999</ele><time>2026-04-25T13:15:07Z</time></trkpt><trkpt lat="44.604845284756344" lon="9.062940950658179"><ele>536.8</ele><time>2026-04-25T13:15:08Z</time></trkpt><trkpt lat="44.60483121053783" lon="9.063100630532539"><ele>536.4</ele><time>2026-04-25T13:15:09Z</time></trkpt><trkpt lat="44.604812956329994" lon="9.06328319108449"><ele>536.0</ele><time>2026-04-25T13:15:10Z</time></trkpt><trkpt lat="44.60480730384068" lon="9.063489866402222"><ele>539.25</ele><time>2026-04-25T13:15:11Z</time></trkpt><trkpt lat="44.60478166002953" lon="9.063699552808302"><ele>542.5</ele><time>2026-04-25T13:15:12Z</time></trkpt><trkpt lat="44.60475962625549" lon="9.063886595485082"><ele>545.75</ele><time>2026-04-25T13:15:13Z</time></trkpt><trkpt lat="44.60474841841307" lon="9.064060439692138"><ele>549.0</ele><time>2026-04-25T13:15:14Z</time></trkpt><trkpt lat="44.60473975061074" lon="9.064203894862725"><ele>550.0</ele><time>2026-04-25T13:15:15Z</time></trkpt><trkpt lat="44.604727150316144" lon="9.06433195668822"><ele>551.0</ele><time>2026-04-25T13:15:16Z</time></trkpt><trkpt lat="44.604699251825956" lon="9.06445136356826"><ele>552.0</ele><time>2026-04-25T13:15:17Z</time></trkpt><trkpt lat="44.60464089830519" lon="9.064562256720764"><ele>553.0</ele><time>2026-04-25T13:15:18Z</time></trkpt><trkpt lat="44.604564051956686" lon="9.064671001339647"><ele>554.0</ele><time>2026-04-25T13:15:19Z</time></trkpt><trkpt lat="44.604503522150104" lon="9.06482516497119"><ele>548.0</ele><time>2026-04-25T13:15:20Z</time></trkpt><trkpt lat="44.604441939892155" lon="9.065004187388238"><ele>542.0</ele><time>2026-04-25T13:15:21Z</time></trkpt><trkpt lat="44.60439911227345" lon="9.065206058218264"><ele>536.0</ele><time>2026-04-25T13:15:22Z</time></trkpt><trkpt lat="44.60433857025315" lon="9.065388429680274"><ele>530.0</ele><time>2026-04-25T13:15:23Z</time></trkpt><trkpt lat="44.60424825407263" lon="9.065553743927108"><ele>530.0</ele><time>2026-04-25T13:15:24Z</time></trkpt><trkpt lat="44.60415616889564" lon="9.065734074535673"><ele>530.0</ele><time>2026-04-25T13:15:25Z</time></trkpt><trkpt lat="44.60407685375832" lon="9.065887162077557"><ele>530.0</ele><time>2026-04-25T13:15:26Z</time></trkpt><trkpt lat="44.60402017853047" lon="9.066004341922392"><ele>530.0</ele><time>2026-04-25T13:15:27Z</time></trkpt><trkpt lat="44.60399117104118" lon="9.066144825235275"><ele>533.2</ele><time>2026-04-25T13:15:28Z</time></trkpt><trkpt lat="44.60396794438669" lon="9.066300378298562"><ele>536.4</ele><time>2026-04-25T13:15:29Z</time></trkpt><trkpt lat="44.603947782910794" lon="9.066439387986431"><ele>539.6</ele><time>2026-04-25T13:15:30Z</time></trkpt><trkpt lat="44.603945647017014" lon="9.066549272270917"><ele>542.8</ele><time>2026-04-25T13:15:31Z</time></trkpt><trkpt lat="44.603977208943995" lon="9.066660869581643"><ele>546.0</ele><time>2026-04-25T13:15:32Z</time></trkpt><trkpt lat="44.60404142236488" lon="9.06675487558815"><ele>547.25</ele><time>2026-04-25T13:15:33Z</time></trkpt><trkpt lat="44.60413682765275" lon="9.066849333512836"><ele>548.5</ele><time>2026-04-25T13:15:34Z</time></trkpt><trkpt lat="44.60425496958843" lon="9.066957367121852"><ele>549.75</ele><time>2026-04-25T13:15:35Z</time></trkpt><trkpt lat="44.60437410014867" lon="9.067082894293643"><ele>551.0</ele><time>2026-04-25T13:15:36Z</time></trkpt><trkpt lat="44.60448107019334" lon="9.067193455073037"><ele>553.0</ele><time>2026-04-25T13:15:37Z</time></trkpt><trkpt lat="44.60456832889393" lon="9.067282130234116"><ele>555.0</ele><time>2026-04-25T13:15:38Z</time></trkpt><trkpt lat="44.60461489402458" lon="9.067384264668204"><ele>557.0</ele><time>2026-04-25T13:15:39Z</time></trkpt><trkpt lat="44.60459858418915" lon="9.067479201204101"><ele>559.0</ele><time>2026-04-25T13:15:40Z</time></trkpt><trkpt lat="44.60451936442314" lon="9.067588268727334"><ele>561.0</ele><time>2026-04-25T13:15:42Z</time></trkpt><trkpt lat="44.60443711736954" lon="9.0676098211253"><ele>561.0</ele><time>2026-04-25T13:15:43Z</time></trkpt><trkpt lat="44.60433066960252" lon="9.06760071569594"><ele>561.0</ele><time>2026-04-25T13:15:44Z</time></trkpt><trkpt lat="44.60421920060491" lon="9.06762888162376"><ele>561.0</ele><time>2026-04-25T13:15:45Z</time></trkpt><trkpt lat="44.60413097640644" lon="9.06770854272002"><ele>561.0</ele><time>2026-04-25T13:15:46Z</time></trkpt><trkpt lat="44.60404650861857" lon="9.067769361356689"><ele>561.0</ele><time>2026-04-25T13:15:47Z</time></trkpt><trkpt lat="44.60396201558858" lon="9.067620468779051"><ele>561.0</ele><time>2026-04-25T13:15:49Z</time></trkpt><trkpt lat="44.603908390285454" lon="9.067542681849975"><ele>561.0</ele><time>2026-04-25T13:15:50Z</time></trkpt><trkpt lat="44.60381179326913" lon="9.067522110300208"><ele>561.0</ele><time>2026-04-25T13:15:51Z</time></trkpt><trkpt lat="44.60370819335491" lon="9.067520591956999"><ele>561.0</ele><time>2026-04-25T13:15:52Z</time></trkpt><trkpt lat="44.60358861485582" lon="9.067588751658246"><ele>561.0</ele><time>2026-04-25T13:15:53Z</time></trkpt><trkpt lat="44.60349897561368" lon="9.067679352751108"><ele>559.0</ele><time>2026-04-25T13:15:54Z</time></trkpt><trkpt lat="44.603409049918476" lon="9.067830627132933"><ele>557.0</ele><time>2026-04-25T13:15:55Z</time></trkpt><trkpt lat="44.603312193115144" lon="9.067975507489116"><ele>555.0</ele><time>2026-04-25T13:15:56Z</time></trkpt><trkpt lat="44.60323578020286" lon="9.068073577271981"><ele>553.0</ele><time>2026-04-25T13:15:57Z</time></trkpt><trkpt lat="44.603130638005176" lon="9.068134987107399"><ele>553.0</ele><time>2026-04-25T13:15:57.999Z</time></trkpt><trkpt lat="44.60304164278395" lon="9.068156831342787"><ele>553.0</ele><time>2026-04-25T13:15:58.999Z</time></trkpt><trkpt lat="44.602983632562" lon="9.06822352099948"><ele>553.0</ele><time>2026-04-25T13:15:59.999Z</time></trkpt><trkpt lat="44.602972668531486" lon="9.068345129670005"><ele>553.0</ele><time>2026-04-25T13:16:00.999Z</time></trkpt><trkpt lat="44.60294733866882" lon="9.068483960620783"><ele>553.0</ele><time>2026-04-25T13:16:01.999Z</time></trkpt><trkpt lat="44.60291264040753" lon="9.068637316448974"><ele>558.6</ele><time>2026-04-25T13:16:02.999Z</time></trkpt><trkpt lat="44.60289579122765" lon="9.068794324031224"><ele>564.1999999999999</ele><time>2026-04-25T13:16:03.999Z</time></trkpt><trkpt lat="44.60290408221682" lon="9.068963742828311"><ele>569.8</ele><time>2026-04-25T13:16:04.999Z</time></trkpt><trkpt lat="44.60292028577822" lon="9.069124989399526"><ele>575.4</ele><time>2026-04-25T13:16:05.999Z</time></trkpt><trkpt lat="44.60292996026645" lon="9.069261930721222"><ele>581.0</ele><time>2026-04-25T13:16:06.999Z</time></trkpt><trkpt lat="44.60290074830821" lon="9.069379083108487"><ele>578.8333333333333</ele><time>2026-04-25T13:16:07.999Z</time></trkpt><trkpt lat="44.60280602329092" lon="9.069441286377627"><ele>576.6666666666666</ele><time>2026-04-25T13:16:08.999Z</time></trkpt><trkpt lat="44.602748260719245" lon="9.069534311990997"><ele>574.5</ele><time>2026-04-25T13:16:09.999Z</time></trkpt><trkpt lat="44.60269610209201" lon="9.069609329266234"><ele>572.3333333333334</ele><time>2026-04-25T13:16:10.999Z</time></trkpt><trkpt lat="44.6026976477137" lon="9.06970582305313"><ele>570.1666666666667</ele><time>2026-04-25T13:16:11.999Z</time></trkpt><trkpt lat="44.60271834959077" lon="9.069826538780623"><ele>568.0</ele><time>2026-04-25T13:16:12.999Z</time></trkpt><trkpt lat="44.60272978994233" lon="9.069981516180235"><ele>568.0</ele><time>2026-04-25T13:16:13.999Z</time></trkpt><trkpt lat="44.602753409759714" lon="9.07010887272468"><ele>568.0</ele><time>2026-04-25T13:16:14.999Z</time></trkpt><trkpt lat="44.60271942929016" lon="9.070221579155744"><ele>568.0</ele><time>2026-04-25T13:16:15.999Z</time></trkpt><trkpt lat="44.60265403535218" lon="9.07033628669205"><ele>568.0</ele><time>2026-04-25T13:16:16.999Z</time></trkpt><trkpt lat="44.60257289989606" lon="9.070452830847092"><ele>568.0</ele><time>2026-04-25T13:16:17.999Z</time></trkpt><trkpt lat="44.60251728673688" lon="9.070570059481142"><ele>568.0</ele><time>2026-04-25T13:16:18.999Z</time></trkpt><trkpt lat="44.60250140633329" lon="9.070676400404166"><ele>568.0</ele><time>2026-04-25T13:16:19.999Z</time></trkpt><trkpt lat="44.60252337065929" lon="9.070780791801393"><ele>568.0</ele><time>2026-04-25T13:16:20.999Z</time></trkpt><trkpt lat="44.60256210298868" lon="9.070906481118817"><ele>568.0</ele><time>2026-04-25T13:16:22Z</time></trkpt><trkpt lat="44.60258057696224" lon="9.07104807059115"><ele>568.0</ele><time>2026-04-25T13:16:23Z</time></trkpt><trkpt lat="44.60259033522573" lon="9.07115382432454"><ele>568.0</ele><time>2026-04-25T13:16:24Z</time></trkpt><trkpt lat="44.60256225592748" lon="9.071235049061448"><ele>572.75</ele><time>2026-04-25T13:16:25Z</time></trkpt><trkpt lat="44.602481673527414" lon="9.071313881328042"><ele>577.5</ele><time>2026-04-25T13:16:26Z</time></trkpt><trkpt lat="44.60238337059119" lon="9.07140136924093"><ele>582.25</ele><time>2026-04-25T13:16:27Z</time></trkpt><trkpt lat="44.60227897922555" lon="9.071524031231094"><ele>587.0</ele><time>2026-04-25T13:16:28Z</time></trkpt><trkpt lat="44.60217909622827" lon="9.071655178748134"><ele>582.6</ele><time>2026-04-25T13:16:29Z</time></trkpt><trkpt lat="44.60209793131499" lon="9.071769184512908"><ele>578.2</ele><time>2026-04-25T13:16:30Z</time></trkpt><trkpt lat="44.6020356219137" lon="9.071873856309393"><ele>573.8</ele><time>2026-04-25T13:16:31Z</time></trkpt><trkpt lat="44.60199886634715" lon="9.0719914418252"><ele>569.4</ele><time>2026-04-25T13:16:32Z</time></trkpt><trkpt lat="44.60198324861166" lon="9.072150338907571"><ele>565.0</ele><time>2026-04-25T13:16:33Z</time></trkpt><trkpt lat="44.60197528363853" lon="9.072338679420968"><ele>570.75</ele><time>2026-04-25T13:16:34Z</time></trkpt><trkpt lat="44.60196107471938" lon="9.07253913326544"><ele>576.5</ele><time>2026-04-25T13:16:35Z</time></trkpt><trkpt lat="44.60193591246246" lon="9.07274208945309"><ele>582.25</ele><time>2026-04-25T13:16:36Z</time></trkpt><trkpt lat="44.601898390671934" lon="9.0729194805441"><ele>588.0</ele><time>2026-04-25T13:16:37Z</time></trkpt><trkpt lat="44.6018408954038" lon="9.07308573802054"><ele>588.0</ele><time>2026-04-25T13:16:38Z</time></trkpt><trkpt lat="44.6017641414538" lon="9.0732457631934"><ele>588.0</ele><time>2026-04-25T13:16:39Z</time></trkpt><trkpt lat="44.60166856856416" lon="9.07339373017837"><ele>588.0</ele><time>2026-04-25T13:16:40Z</time></trkpt><trkpt lat="44.60156102651027" lon="9.073536445375042"><ele>588.0</ele><time>2026-04-25T13:16:41Z</time></trkpt><trkpt lat="44.60144610466262" lon="9.073652109506357"><ele>585.25</ele><time>2026-04-25T13:16:42Z</time></trkpt><trkpt lat="44.60132410376601" lon="9.073744188538127"><ele>582.5</ele><time>2026-04-25T13:16:43Z</time></trkpt><trkpt lat="44.601210066461135" lon="9.073816017126644"><ele>579.75</ele><time>2026-04-25T13:16:44Z</time></trkpt><trkpt lat="44.60111791689701" lon="9.073878018250035"><ele>577.0</ele><time>2026-04-25T13:16:45Z</time></trkpt><trkpt lat="44.60105378848005" lon="9.073956901768723"><ele>577.0</ele><time>2026-04-25T13:16:46Z</time></trkpt><trkpt lat="44.60101331610171" lon="9.07409342794038"><ele>577.0</ele><time>2026-04-25T13:16:47Z</time></trkpt><trkpt lat="44.60097914141719" lon="9.074243024704774"><ele>577.0</ele><time>2026-04-25T13:16:48Z</time></trkpt><trkpt lat="44.60096020029944" lon="9.074374080086875"><ele>577.0</ele><time>2026-04-25T13:16:49Z</time></trkpt><trkpt lat="44.600973506675054" lon="9.074505889353576"><ele>577.0</ele><time>2026-04-25T13:16:50Z</time></trkpt><trkpt lat="44.60101771281508" lon="9.074664605069648"><ele>583.75</ele><time>2026-04-25T13:16:51Z</time></trkpt><trkpt lat="44.60107480313308" lon="9.074836013847023"><ele>590.5</ele><time>2026-04-25T13:16:52Z</time></trkpt><trkpt lat="44.60113223402763" lon="9.075026328977822"><ele>597.25</ele><time>2026-04-25T13:16:53Z</time></trkpt><trkpt lat="44.601187133332566" lon="9.07521614715522"><ele>604.0</ele><time>2026-04-25T13:16:54Z</time></trkpt><trkpt lat="44.601250238618015" lon="9.075390925204557"><ele>615.3333333333334</ele><time>2026-04-25T13:16:55Z</time></trkpt><trkpt lat="44.601339778630425" lon="9.075571341089217"><ele>626.6666666666666</ele><time>2026-04-25T13:16:56Z</time></trkpt><trkpt lat="44.60141664272423" lon="9.075778465028943"><ele>638.0</ele><time>2026-04-25T13:16:57Z</time></trkpt><trkpt lat="44.60150709533259" lon="9.075973978821722"><ele>638.0</ele><time>2026-04-25T13:16:58Z</time></trkpt><trkpt lat="44.60158522380019" lon="9.076142853945985"><ele>638.0</ele><time>2026-04-25T13:16:59Z</time></trkpt><trkpt lat="44.60165337632351" lon="9.07628503630701"><ele>638.0</ele><time>2026-04-25T13:17:00Z</time></trkpt><trkpt lat="44.60171255933211" lon="9.07638893916112"><ele>638.0</ele><time>2026-04-25T13:17:01Z</time></trkpt><trkpt lat="44.60178389886425" lon="9.076442753794538"><ele>638.0</ele><time>2026-04-25T13:17:02Z</time></trkpt><trkpt lat="44.601863863208365" lon="9.076449259318961"><ele>638.0</ele><time>2026-04-25T13:17:03Z</time></trkpt><trkpt lat="44.60192934750903" lon="9.076380055359591"><ele>638.0</ele><time>2026-04-25T13:17:04Z</time></trkpt><trkpt lat="44.60198465204795" lon="9.076307300334383"><ele>638.0</ele><time>2026-04-25T13:17:05Z</time></trkpt><trkpt lat="44.60196985766105" lon="9.076159928988545"><ele>638.0</ele><time>2026-04-25T13:17:06Z</time></trkpt><trkpt lat="44.60193281238187" lon="9.076040541847433"><ele>638.0</ele><time>2026-04-25T13:17:07Z</time></trkpt><trkpt lat="44.60186632733002" lon="9.075924129532236"><ele>638.0</ele><time>2026-04-25T13:17:08Z</time></trkpt><trkpt lat="44.60178433868" lon="9.075800074875488"><ele>638.0</ele><time>2026-04-25T13:17:09Z</time></trkpt><trkpt lat="44.601725611044" lon="9.075673655514374"><ele>638.0</ele><time>2026-04-25T13:17:10Z</time></trkpt><trkpt lat="44.60169121661934" lon="9.075554965050477"><ele>638.0</ele><time>2026-04-25T13:17:11Z</time></trkpt><trkpt lat="44.6016922888" lon="9.075418725665156"><ele>638.0</ele><time>2026-04-25T13:17:12Z</time></trkpt><trkpt lat="44.601671473827786" lon="9.07526024895628"><ele>639.0</ele><time>2026-04-25T13:17:13Z</time></trkpt><trkpt lat="44.60167172760872" lon="9.075079054880213"><ele>640.0</ele><time>2026-04-25T13:17:14Z</time></trkpt><trkpt lat="44.60166824298519" lon="9.074896630670596"><ele>641.0</ele><time>2026-04-25T13:17:15Z</time></trkpt><trkpt lat="44.60166787897345" lon="9.07474426171219"><ele>642.0</ele><time>2026-04-25T13:17:16Z</time></trkpt><trkpt lat="44.60169229871908" lon="9.074632969138236"><ele>642.0</ele><time>2026-04-25T13:17:17Z</time></trkpt><trkpt lat="44.60178077697041" lon="9.074557014626231"><ele>642.0</ele><time>2026-04-25T13:17:19Z</time></trkpt><trkpt lat="44.60186088847094" lon="9.074667217272895"><ele>642.0</ele><time>2026-04-25T13:17:21Z</time></trkpt><trkpt lat="44.60188460188078" lon="9.074756446771039"><ele>642.0</ele><time>2026-04-25T13:17:22Z</time></trkpt><trkpt lat="44.60185091208778" lon="9.074890848035427"><ele>642.0</ele><time>2026-04-25T13:17:23Z</time></trkpt><trkpt lat="44.60185438372219" lon="9.075056386465272"><ele>642.4000000000001</ele><time>2026-04-25T13:17:24Z</time></trkpt><trkpt lat="44.60184139731805" lon="9.075231514494726"><ele>642.8000000000001</ele><time>2026-04-25T13:17:25Z</time></trkpt><trkpt lat="44.60184580180345" lon="9.075368969326153"><ele>643.2</ele><time>2026-04-25T13:17:26Z</time></trkpt><trkpt lat="44.60187334967404" lon="9.07546868017401"><ele>643.6</ele><time>2026-04-25T13:17:27Z</time></trkpt><trkpt lat="44.601936648464466" lon="9.075547593114202"><ele>644.0</ele><time>2026-04-25T13:17:28Z</time></trkpt><trkpt lat="44.60202897923653" lon="9.075636645947185"><ele>648.5</ele><time>2026-04-25T13:17:29Z</time></trkpt><trkpt lat="44.602148189993734" lon="9.075698103349731"><ele>653.0</ele><time>2026-04-25T13:17:30Z</time></trkpt><trkpt lat="44.60227945401187" lon="9.075761106510443"><ele>657.5</ele><time>2026-04-25T13:17:31Z</time></trkpt><trkpt lat="44.60242087667355" lon="9.075828402632087"><ele>662.0</ele><time>2026-04-25T13:17:32Z</time></trkpt><trkpt lat="44.60257256782403" lon="9.075896680728974"><ele>662.0</ele><time>2026-04-25T13:17:33Z</time></trkpt><trkpt lat="44.60273239210623" lon="9.075975157872646"><ele>662.0</ele><time>2026-04-25T13:17:34Z</time></trkpt><trkpt lat="44.60288016015152" lon="9.076057340834113"><ele>662.0</ele><time>2026-04-25T13:17:35Z</time></trkpt><trkpt lat="44.60301783652232" lon="9.076133661013419"><ele>666.25</ele><time>2026-04-25T13:17:36Z</time></trkpt><trkpt lat="44.60315611249372" lon="9.076207863948316"><ele>670.5</ele><time>2026-04-25T13:17:37Z</time></trkpt><trkpt lat="44.60328392010523" lon="9.076279710154134"><ele>674.75</ele><time>2026-04-25T13:17:38Z</time></trkpt><trkpt lat="44.60339397512454" lon="9.07634056043205"><ele>679.0</ele><time>2026-04-25T13:17:39Z</time></trkpt><trkpt lat="44.60349187423602" lon="9.076359590576203"><ele>679.0</ele><time>2026-04-25T13:17:40Z</time></trkpt><trkpt lat="44.60355807564608" lon="9.076380629187751"><ele>679.0</ele><time>2026-04-25T13:17:41Z</time></trkpt><trkpt lat="44.603665873611156" lon="9.076320826345091"><ele>679.0</ele><time>2026-04-25T13:17:43Z</time></trkpt><trkpt lat="44.60366544849849" lon="9.076191672131873"><ele>679.0</ele><time>2026-04-25T13:17:44Z</time></trkpt><trkpt lat="44.60369462707335" lon="9.076099810752499"><ele>679.0</ele><time>2026-04-25T13:17:45Z</time></trkpt><trkpt lat="44.60377204027044" lon="9.076020171831548"><ele>679.0</ele><time>2026-04-25T13:17:47Z</time></trkpt><trkpt lat="44.60381996977552" lon="9.076129050034458"><ele>679.0</ele><time>2026-04-25T13:17:49Z</time></trkpt><trkpt lat="44.603788498325336" lon="9.0762946592976"><ele>679.0</ele><time>2026-04-25T13:17:51Z</time></trkpt><trkpt lat="44.60372208722618" lon="9.076379130527393"><ele>679.0</ele><time>2026-04-25T13:17:52Z</time></trkpt><trkpt lat="44.60366198285312" lon="9.076492854108452"><ele>679.0</ele><time>2026-04-25T13:17:53Z</time></trkpt><trkpt lat="44.6036327629641" lon="9.07662318203863"><ele>679.0</ele><time>2026-04-25T13:17:54Z</time></trkpt><trkpt lat="44.60364038403098" lon="9.076742960841369"><ele>681.8000000000001</ele><time>2026-04-25T13:17:55Z</time></trkpt><trkpt lat="44.60368202281074" lon="9.076860387221691"><ele>684.6</ele><time>2026-04-25T13:17:56Z</time></trkpt><trkpt lat="44.603758523817945" lon="9.07697734337765"><ele>687.4</ele><time>2026-04-25T13:17:57Z</time></trkpt><trkpt lat="44.60382692282784" lon="9.07711926984804"><ele>690.2</ele><time>2026-04-25T13:17:58Z</time></trkpt><trkpt lat="44.603877336442245" lon="9.07723409873155"><ele>693.0</ele><time>2026-04-25T13:17:59Z</time></trkpt><trkpt lat="44.60388807753825" lon="9.07733192827309"><ele>693.0</ele><time>2026-04-25T13:18:00Z</time></trkpt><trkpt lat="44.60388087924981" lon="9.077427801202903"><ele>693.0</ele><time>2026-04-25T13:18:01Z</time></trkpt><trkpt lat="44.603827825598664" lon="9.077504341175441"><ele>693.0</ele><time>2026-04-25T13:18:02Z</time></trkpt><trkpt lat="44.603754117156285" lon="9.07755225675374"><ele>693.0</ele><time>2026-04-25T13:18:03Z</time></trkpt><trkpt lat="44.60366246350386" lon="9.077573096786919"><ele>693.0</ele><time>2026-04-25T13:18:04Z</time></trkpt><trkpt lat="44.60355926749748" lon="9.077599775656982"><ele>693.0</ele><time>2026-04-25T13:18:05Z</time></trkpt><trkpt lat="44.603459107554194" lon="9.07765801831881"><ele>688.5</ele><time>2026-04-25T13:18:06Z</time></trkpt><trkpt lat="44.60337737978101" lon="9.077753827414517"><ele>684.0</ele><time>2026-04-25T13:18:07Z</time></trkpt><trkpt lat="44.6033154934179" lon="9.077878050520429"><ele>679.5</ele><time>2026-04-25T13:18:08Z</time></trkpt><trkpt lat="44.603268680757665" lon="9.078044426093827"><ele>675.0</ele><time>2026-04-25T13:18:09Z</time></trkpt><trkpt lat="44.603219333321555" lon="9.078229513257284"><ele>678.25</ele><time>2026-04-25T13:18:10Z</time></trkpt><trkpt lat="44.60316046012181" lon="9.07842853808961"><ele>681.5</ele><time>2026-04-25T13:18:11Z</time></trkpt><trkpt lat="44.60309398002614" lon="9.07862932692587"><ele>684.75</ele><time>2026-04-25T13:18:12Z</time></trkpt><trkpt lat="44.603027324324614" lon="9.078799352585941"><ele>688.0</ele><time>2026-04-25T13:18:13Z</time></trkpt><trkpt lat="44.60297020976291" lon="9.078940438053746"><ele>688.0</ele><time>2026-04-25T13:18:14Z</time></trkpt><trkpt lat="44.60293103121312" lon="9.079078854935702"><ele>688.0</ele><time>2026-04-25T13:18:15Z</time></trkpt><trkpt lat="44.60290874196812" lon="9.079204962172224"><ele>688.0</ele><time>2026-04-25T13:18:16Z</time></trkpt><trkpt lat="44.60290035959426" lon="9.079326317969965"><ele>688.0</ele><time>2026-04-25T13:18:17Z</time></trkpt><trkpt lat="44.60289774287499" lon="9.0794401129949"><ele>688.0</ele><time>2026-04-25T13:18:18Z</time></trkpt><trkpt lat="44.602896106921314" lon="9.079549763840653"><ele>688.0</ele><time>2026-04-25T13:18:19Z</time></trkpt><trkpt lat="44.60291335712622" lon="9.079658622976478"><ele>691.5999999999999</ele><time>2026-04-25T13:18:20Z</time></trkpt><trkpt lat="44.60295298606938" lon="9.079763928606823"><ele>695.1999999999999</ele><time>2026-04-25T13:18:21Z</time></trkpt><trkpt lat="44.603006979691266" lon="9.079868161487212"><ele>698.8</ele><time>2026-04-25T13:18:22Z</time></trkpt><trkpt lat="44.60304357371606" lon="9.07998641274304"><ele>702.4</ele><time>2026-04-25T13:18:23Z</time></trkpt><trkpt lat="44.60307707008279" lon="9.080109226184446"><ele>706.0</ele><time>2026-04-25T13:18:23.999Z</time></trkpt><trkpt lat="44.60311484848544" lon="9.080264562683961"><ele>705.5</ele><time>2026-04-25T13:18:24.999Z</time></trkpt><trkpt lat="44.603130832929025" lon="9.08044286280258"><ele>705.0</ele><time>2026-04-25T13:18:25.999Z</time></trkpt><trkpt lat="44.60315362434502" lon="9.080614840716565"><ele>704.5</ele><time>2026-04-25T13:18:26.999Z</time></trkpt><trkpt lat="44.60317987500973" lon="9.080783962854515"><ele>704.0</ele><time>2026-04-25T13:18:28Z</time></trkpt><trkpt lat="44.603208262497795" lon="9.080940334225742"><ele>704.0</ele><time>2026-04-25T13:18:29Z</time></trkpt><trkpt lat="44.603251239551355" lon="9.081098404328154"><ele>704.0</ele><time>2026-04-25T13:18:30Z</time></trkpt><trkpt lat="44.603305904840944" lon="9.081264427442672"><ele>704.0</ele><time>2026-04-25T13:18:31Z</time></trkpt><trkpt lat="44.60335851135732" lon="9.081450596767766"><ele>704.0</ele><time>2026-04-25T13:18:32Z</time></trkpt><trkpt lat="44.603431834729136" lon="9.0816208169558"><ele>698.75</ele><time>2026-04-25T13:18:33Z</time></trkpt><trkpt lat="44.60351585460616" lon="9.081766467803199"><ele>693.5</ele><time>2026-04-25T13:18:34Z</time></trkpt><trkpt lat="44.6035802089217" lon="9.081919188693028"><ele>688.25</ele><time>2026-04-25T13:18:35Z</time></trkpt><trkpt lat="44.60362088768214" lon="9.082071465997851"><ele>683.0</ele><time>2026-04-25T13:18:36Z</time></trkpt><trkpt lat="44.60367895167468" lon="9.082200260740986"><ele>688.4</ele><time>2026-04-25T13:18:37Z</time></trkpt><trkpt lat="44.603766251019536" lon="9.082290807687722"><ele>693.8</ele><time>2026-04-25T13:18:38Z</time></trkpt><trkpt lat="44.6038528021196" lon="9.082371496554549"><ele>699.2</ele><time>2026-04-25T13:18:39Z</time></trkpt><trkpt lat="44.60392857611861" lon="9.082470634068263"><ele>704.6</ele><time>2026-04-25T13:18:40Z</time></trkpt><trkpt lat="44.603975068820866" lon="9.082606817901045"><ele>710.0</ele><time>2026-04-25T13:18:41Z</time></trkpt><trkpt lat="44.60401160608408" lon="9.082775941160952"><ele>710.0</ele><time>2026-04-25T13:18:42Z</time></trkpt><trkpt lat="44.60406234025549" lon="9.082934645258637"><ele>710.0</ele><time>2026-04-25T13:18:43Z</time></trkpt><trkpt lat="44.604099200917965" lon="9.083051009341254"><ele>710.0</ele><time>2026-04-25T13:18:44Z</time></trkpt><trkpt lat="44.6041531333672" lon="9.083132729039857"><ele>710.0</ele><time>2026-04-25T13:18:45Z</time></trkpt><trkpt lat="44.60422934484241" lon="9.083214066093173"><ele>710.0</ele><time>2026-04-25T13:18:46Z</time></trkpt><trkpt lat="44.60432838239325" lon="9.083268839457205"><ele>705.25</ele><time>2026-04-25T13:18:47Z</time></trkpt><trkpt lat="44.604426226711944" lon="9.083330724918433"><ele>700.5</ele><time>2026-04-25T13:18:48Z</time></trkpt><trkpt lat="44.604512789584845" lon="9.08341662021442"><ele>695.75</ele><time>2026-04-25T13:18:49Z</time></trkpt><trkpt lat="44.604578798477725" lon="9.08352364031319"><ele>691.0</ele><time>2026-04-25T13:18:50Z</time></trkpt><trkpt lat="44.60463601328528" lon="9.083712296917268"><ele>694.25</ele><time>2026-04-25T13:18:51Z</time></trkpt><trkpt lat="44.604672856117716" lon="9.08386843074436"><ele>697.5</ele><time>2026-04-25T13:18:52Z</time></trkpt><trkpt lat="44.604715658631136" lon="9.084031240610752"><ele>700.75</ele><time>2026-04-25T13:18:53Z</time></trkpt><trkpt lat="44.60476405736737" lon="9.084176909335811"><ele>704.0</ele><time>2026-04-25T13:18:54Z</time></trkpt><trkpt lat="44.60482598188116" lon="9.084299545876956"><ele>704.0</ele><time>2026-04-25T13:18:55Z</time></trkpt><trkpt lat="44.60491074428113" lon="9.084412103834016"><ele>704.0</ele><time>2026-04-25T13:18:56Z</time></trkpt><trkpt lat="44.605006061425144" lon="9.084514958119916"><ele>704.0</ele><time>2026-04-25T13:18:57Z</time></trkpt><trkpt lat="44.60508445988626" lon="9.084621237425353"><ele>704.0</ele><time>2026-04-25T13:18:58Z</time></trkpt><trkpt lat="44.6051293015092" lon="9.084758028817735"><ele>704.0</ele><time>2026-04-25T13:18:59Z</time></trkpt><trkpt lat="44.60512522208042" lon="9.084864090807304"><ele>704.0</ele><time>2026-04-25T13:19:00Z</time></trkpt><trkpt lat="44.60509998413453" lon="9.084987889480498"><ele>704.0</ele><time>2026-04-25T13:19:01Z</time></trkpt><trkpt lat="44.60509263177539" lon="9.085107632597857"><ele>704.0</ele><time>2026-04-25T13:19:02Z</time></trkpt><trkpt lat="44.605113510365925" lon="9.085240173163635"><ele>704.0</ele><time>2026-04-25T13:19:03Z</time></trkpt><trkpt lat="44.60516420612917" lon="9.085318839201987"><ele>704.0</ele><time>2026-04-25T13:19:04Z</time></trkpt><trkpt lat="44.605245807361136" lon="9.085404003632457"><ele>705.8000000000001</ele><time>2026-04-25T13:19:05Z</time></trkpt><trkpt lat="44.60532095891179" lon="9.08547924500258"><ele>707.6</ele><time>2026-04-25T13:19:06Z</time></trkpt><trkpt lat="44.605410844654614" lon="9.085594741615111"><ele>709.4</ele><time>2026-04-25T13:19:07Z</time></trkpt><trkpt lat="44.60546414014643" lon="9.08570886481501"><ele>711.2</ele><time>2026-04-25T13:19:08Z</time></trkpt><trkpt lat="44.60550393116421" lon="9.085811084591175"><ele>713.0</ele><time>2026-04-25T13:19:09Z</time></trkpt><trkpt lat="44.605538038667255" lon="9.085954743948328"><ele>713.0</ele><time>2026-04-25T13:19:10Z</time></trkpt><trkpt lat="44.60556233939242" lon="9.086132191597006"><ele>713.0</ele><time>2026-04-25T13:19:11Z</time></trkpt><trkpt lat="44.60559310806083" lon="9.086323790437271"><ele>713.0</ele><time>2026-04-25T13:19:12Z</time></trkpt><trkpt lat="44.60564528261685" lon="9.086465801167819"><ele>713.0</ele><time>2026-04-25T13:19:13Z</time></trkpt><trkpt lat="44.605695037803095" lon="9.086595989100706"><ele>710.75</ele><time>2026-04-25T13:19:14Z</time></trkpt><trkpt lat="44.6057456306158" lon="9.086741940426846"><ele>708.5</ele><time>2026-04-25T13:19:15Z</time></trkpt><trkpt lat="44.60583813558397" lon="9.086863179104109"><ele>706.25</ele><time>2026-04-25T13:19:16Z</time></trkpt><trkpt lat="44.605930643159134" lon="9.0869781886232"><ele>704.0</ele><time>2026-04-25T13:19:17Z</time></trkpt><trkpt lat="44.60601204409146" lon="9.087079390078006"><ele>704.0</ele><time>2026-04-25T13:19:18Z</time></trkpt><trkpt lat="44.60607760599758" lon="9.087176495192228"><ele>704.0</ele><time>2026-04-25T13:19:19Z</time></trkpt><trkpt lat="44.606085687120974" lon="9.087277875317367"><ele>704.0</ele><time>2026-04-25T13:19:20Z</time></trkpt><trkpt lat="44.60608456943808" lon="9.087379046979306"><ele>704.0</ele><time>2026-04-25T13:19:21Z</time></trkpt><trkpt lat="44.606018423332756" lon="9.087501166183007"><ele>704.0</ele><time>2026-04-25T13:19:23Z</time></trkpt><trkpt lat="44.6059505102769" lon="9.08750342914612"><ele>704.0</ele><time>2026-04-25T13:19:24Z</time></trkpt><trkpt lat="44.60587517990904" lon="9.087485803973907"><ele>704.0</ele><time>2026-04-25T13:19:25Z</time></trkpt><trkpt lat="44.60578198047518" lon="9.08744771595674"><ele>704.0</ele><time>2026-04-25T13:19:26Z</time></trkpt><trkpt lat="44.60567596620917" lon="9.087403281160947"><ele>704.0</ele><time>2026-04-25T13:19:27Z</time></trkpt><trkpt lat="44.60555016351856" lon="9.08733682548876"><ele>704.0</ele><time>2026-04-25T13:19:28Z</time></trkpt><trkpt lat="44.60542862743901" lon="9.087261035132146"><ele>704.0</ele><time>2026-04-25T13:19:29Z</time></trkpt><trkpt lat="44.605330190880295" lon="9.087179765850552"><ele>704.0</ele><time>2026-04-25T13:19:30Z</time></trkpt><trkpt lat="44.605254830675484" lon="9.087081363486282"><ele>704.0</ele><time>2026-04-25T13:19:31Z</time></trkpt><trkpt lat="44.605200931040976" lon="9.086947335378733"><ele>704.0</ele><time>2026-04-25T13:19:32Z</time></trkpt><trkpt lat="44.60515619060191" lon="9.086782213508254"><ele>704.6</ele><time>2026-04-25T13:19:33Z</time></trkpt><trkpt lat="44.6051051185333" lon="9.086636555452618"><ele>705.2</ele><time>2026-04-25T13:19:34Z</time></trkpt><trkpt lat="44.60503527296911" lon="9.086526722655725"><ele>705.8000000000001</ele><time>2026-04-25T13:19:35Z</time></trkpt><trkpt lat="44.60495624176983" lon="9.08644845696486"><ele>706.4000000000001</ele><time>2026-04-25T13:19:36Z</time></trkpt><trkpt lat="44.604878005811344" lon="9.086398471615158"><ele>707.0</ele><time>2026-04-25T13:19:37Z</time></trkpt><trkpt lat="44.60479410774329" lon="9.08637077655211"><ele>706.8</ele><time>2026-04-25T13:19:38Z</time></trkpt><trkpt lat="44.604698736314795" lon="9.086366164480886"><ele>706.6</ele><time>2026-04-25T13:19:39Z</time></trkpt><trkpt lat="44.60459139157349" lon="9.086383670415389"><ele>706.4</ele><time>2026-04-25T13:19:40Z</time></trkpt><trkpt lat="44.604477145975935" lon="9.086404685284482"><ele>706.1999999999999</ele><time>2026-04-25T13:19:41Z</time></trkpt><trkpt lat="44.60435633422285" lon="9.086414731156864"><ele>706.0</ele><time>2026-04-25T13:19:42Z</time></trkpt><trkpt lat="44.60422616436771" lon="9.086410415370532"><ele>706.0</ele><time>2026-04-25T13:19:43Z</time></trkpt><trkpt lat="44.60410631925719" lon="9.086393697188864"><ele>706.0</ele><time>2026-04-25T13:19:44Z</time></trkpt><trkpt lat="44.604004854121314" lon="9.086393963024525"><ele>706.0</ele><time>2026-04-25T13:19:45Z</time></trkpt><trkpt lat="44.603916976415654" lon="9.08639951532095"><ele>706.0</ele><time>2026-04-25T13:19:46Z</time></trkpt><trkpt lat="44.603842786488066" lon="9.0863904998128"><ele>706.0</ele><time>2026-04-25T13:19:47Z</time></trkpt><trkpt lat="44.60373585017641" lon="9.086401346050035"><ele>709.5999999999999</ele><time>2026-04-25T13:19:49Z</time></trkpt><trkpt lat="44.60367330288939" lon="9.086596229190109"><ele>713.2</ele><time>2026-04-25T13:19:52Z</time></trkpt><trkpt lat="44.60370619807942" lon="9.086723841135946"><ele>716.8</ele><time>2026-04-25T13:19:54Z</time></trkpt><trkpt lat="44.603783576914466" lon="9.086745902839505"><ele>720.4000000000001</ele><time>2026-04-25T13:19:55Z</time></trkpt><trkpt lat="44.6038554333214" lon="9.086750329271657"><ele>724.0</ele><time>2026-04-25T13:19:56Z</time></trkpt><trkpt lat="44.60392796431782" lon="9.086771592580853"><ele>724.0</ele><time>2026-04-25T13:19:57Z</time></trkpt><trkpt lat="44.604017651091496" lon="9.086801954411273"><ele>724.0</ele><time>2026-04-25T13:19:58Z</time></trkpt><trkpt lat="44.604126535682994" lon="9.086841172425963"><ele>724.0</ele><time>2026-04-25T13:19:59Z</time></trkpt><trkpt lat="44.604238775677175" lon="9.086878013056037"><ele>724.0</ele><time>2026-04-25T13:20:00Z</time></trkpt><trkpt lat="44.60432694707168" lon="9.086910907847475"><ele>724.0</ele><time>2026-04-25T13:20:01Z</time></trkpt><trkpt lat="44.60439650153815" lon="9.086969465532476"><ele>724.0</ele><time>2026-04-25T13:20:02Z</time></trkpt><trkpt lat="44.60445922490497" lon="9.087068534825923"><ele>724.0</ele><time>2026-04-25T13:20:03Z</time></trkpt><trkpt lat="44.60454552057583" lon="9.087179460397286"><ele>724.0</ele><time>2026-04-25T13:20:04Z</time></trkpt><trkpt lat="44.60464395177285" lon="9.087281347493786"><ele>724.0</ele><time>2026-04-25T13:20:05Z</time></trkpt><trkpt lat="44.60474508426256" lon="9.087366093335609"><ele>725.2</ele><time>2026-04-25T13:20:06Z</time></trkpt><trkpt lat="44.60482331425512" lon="9.087437631086644"><ele>726.4000000000001</ele><time>2026-04-25T13:20:07Z</time></trkpt><trkpt lat="44.60487202943937" lon="9.087504020498239"><ele>727.6</ele><time>2026-04-25T13:20:08Z</time></trkpt><trkpt lat="44.60491212909019" lon="9.087622920133759"><ele>728.8</ele><time>2026-04-25T13:20:09Z</time></trkpt><trkpt lat="44.60499227107366" lon="9.087759236809609"><ele>730.0</ele><time>2026-04-25T13:20:10Z</time></trkpt><trkpt lat="44.60509171883302" lon="9.087909066086741"><ele>730.0</ele><time>2026-04-25T13:20:11Z</time></trkpt><trkpt lat="44.605202954048224" lon="9.088077758152972"><ele>730.0</ele><time>2026-04-25T13:20:12Z</time></trkpt><trkpt lat="44.605298065213695" lon="9.08823273338987"><ele>730.0</ele><time>2026-04-25T13:20:13Z</time></trkpt><trkpt lat="44.605379154062476" lon="9.088390240650392"><ele>730.0</ele><time>2026-04-25T13:20:14Z</time></trkpt><trkpt lat="44.60544906421849" lon="9.088518568787771"><ele>731.0</ele><time>2026-04-25T13:20:15Z</time></trkpt><trkpt lat="44.60551237354693" lon="9.088615020519413"><ele>732.0</ele><time>2026-04-25T13:20:16Z</time></trkpt><trkpt lat="44.60559158911293" lon="9.088679972277523"><ele>733.0</ele><time>2026-04-25T13:20:17Z</time></trkpt><trkpt lat="44.60570287676416" lon="9.088683980169794"><ele>734.0</ele><time>2026-04-25T13:20:18Z</time></trkpt><trkpt lat="44.60581186819611" lon="9.088695969850624"><ele>735.0</ele><time>2026-04-25T13:20:19Z</time></trkpt><trkpt lat="44.60590800820403" lon="9.088704507139857"><ele>735.0</ele><time>2026-04-25T13:20:20Z</time></trkpt><trkpt lat="44.60597113823714" lon="9.088714355523331"><ele>735.0</ele><time>2026-04-25T13:20:21Z</time></trkpt><trkpt lat="44.606027663773475" lon="9.088757408647703"><ele>735.0</ele><time>2026-04-25T13:20:24Z</time></trkpt><trkpt lat="44.605958291855956" lon="9.088846418324069"><ele>735.0</ele><time>2026-04-25T13:20:26Z</time></trkpt><trkpt lat="44.605893908878315" lon="9.088851618728643"><ele>735.0</ele><time>2026-04-25T13:20:27Z</time></trkpt><trkpt lat="44.6058146315869" lon="9.088847390077147"><ele>735.0</ele><time>2026-04-25T13:20:28Z</time></trkpt><trkpt lat="44.605712582644095" lon="9.088847550222855"><ele>735.0</ele><time>2026-04-25T13:20:29Z</time></trkpt><trkpt lat="44.60561347612814" lon="9.088856815629036"><ele>735.0</ele><time>2026-04-25T13:20:30Z</time></trkpt><trkpt lat="44.60553665827546" lon="9.08885568179749"><ele>735.0</ele><time>2026-04-25T13:20:31Z</time></trkpt><trkpt lat="44.60546096589938" lon="9.088842090680114"><ele>735.0</ele><time>2026-04-25T13:20:32Z</time></trkpt><trkpt lat="44.605373345602935" lon="9.088804034994629"><ele>735.0</ele><time>2026-04-25T13:20:33Z</time></trkpt><trkpt lat="44.60528429042756" lon="9.088745866751857"><ele>735.0</ele><time>2026-04-25T13:20:34Z</time></trkpt><trkpt lat="44.60519451051369" lon="9.088670218771611"><ele>738.3333333333334</ele><time>2026-04-25T13:20:35Z</time></trkpt><trkpt lat="44.605098223595846" lon="9.088580041918714"><ele>741.6666666666666</ele><time>2026-04-25T13:20:36Z</time></trkpt><trkpt lat="44.60502556400306" lon="9.08851053266547"><ele>745.0</ele><time>2026-04-25T13:20:37Z</time></trkpt><trkpt lat="44.60497031573684" lon="9.0884609989014"><ele>748.3333333333333</ele><time>2026-04-25T13:20:38Z</time></trkpt><trkpt lat="44.60487090553392" lon="9.088435400887663"><ele>751.6666666666666</ele><time>2026-04-25T13:20:40Z</time></trkpt><trkpt lat="44.60480238708286" lon="9.088454683042977"><ele>755.0</ele><time>2026-04-25T13:20:41Z</time></trkpt><trkpt lat="44.60472319937142" lon="9.088496240035203"><ele>755.0</ele><time>2026-04-25T13:20:42Z</time></trkpt><trkpt lat="44.604635163255374" lon="9.088565055919211"><ele>755.0</ele><time>2026-04-25T13:20:43Z</time></trkpt><trkpt lat="44.60453698606818" lon="9.088640422902824"><ele>755.0</ele><time>2026-04-25T13:20:44Z</time></trkpt><trkpt lat="44.604426019363" lon="9.088701997701643"><ele>755.0</ele><time>2026-04-25T13:20:45Z</time></trkpt><trkpt lat="44.60431730491727" lon="9.088737990694666"><ele>755.0</ele><time>2026-04-25T13:20:46Z</time></trkpt><trkpt lat="44.60421741409936" lon="9.08876834163834"><ele>756.0</ele><time>2026-04-25T13:20:47Z</time></trkpt><trkpt lat="44.604121430038994" lon="9.088812432071403"><ele>757.0</ele><time>2026-04-25T13:20:48Z</time></trkpt><trkpt lat="44.60403295547266" lon="9.088871823422975"><ele>758.0</ele><time>2026-04-25T13:20:49Z</time></trkpt><trkpt lat="44.60395039064317" lon="9.088919860230993"><ele>759.0</ele><time>2026-04-25T13:20:50Z</time></trkpt><trkpt lat="44.603872584215665" lon="9.088923987023056"><ele>760.0</ele><time>2026-04-25T13:20:51Z</time></trkpt><trkpt lat="44.603798888635346" lon="9.088903275264634"><ele>761.0</ele><time>2026-04-25T13:20:52Z</time></trkpt><trkpt lat="44.60373204281934" lon="9.088848404113664"><ele>761.0</ele><time>2026-04-25T13:20:53Z</time></trkpt><trkpt lat="44.60366915578179" lon="9.088795565014232"><ele>761.0</ele><time>2026-04-25T13:20:54Z</time></trkpt><trkpt lat="44.60355940757014" lon="9.088848421130942"><ele>761.0</ele><time>2026-04-25T13:20:56Z</time></trkpt><trkpt lat="44.60348915285314" lon="9.088923188357033"><ele>761.0</ele><time>2026-04-25T13:20:57Z</time></trkpt><trkpt lat="44.60340547644051" lon="9.089011397008191"><ele>761.0</ele><time>2026-04-25T13:20:58Z</time></trkpt><trkpt lat="44.60331977467528" lon="9.089107245402822"><ele>765.1999999999999</ele><time>2026-04-25T13:20:59Z</time></trkpt><trkpt lat="44.60324196366063" lon="9.089234380128824"><ele>769.4</ele><time>2026-04-25T13:21:00Z</time></trkpt><trkpt lat="44.60317558724395" lon="9.08936174526465"><ele>773.6</ele><time>2026-04-25T13:21:01Z</time></trkpt><trkpt lat="44.603109950089284" lon="9.089446937782395"><ele>777.8</ele><time>2026-04-25T13:21:02Z</time></trkpt><trkpt lat="44.6030304022966" lon="9.089470314294699"><ele>782.0</ele><time>2026-04-25T13:21:03Z</time></trkpt><trkpt lat="44.60294379835802" lon="9.089464996587472"><ele>782.0000000000001</ele><time>2026-04-25T13:21:04Z</time></trkpt><trkpt lat="44.60287749694494" lon="9.089521005570356"><ele>782.0</ele><time>2026-04-25T13:21:06Z</time></trkpt><trkpt lat="44.60291516113711" lon="9.089614143839665"><ele>782.0</ele><time>2026-04-25T13:21:08Z</time></trkpt><trkpt lat="44.60303285704268" lon="9.089631427747227"><ele>782.0</ele><time>2026-04-25T13:21:10Z</time></trkpt><trkpt lat="44.60310387747746" lon="9.089626989758223"><ele>782.0000000000001</ele><time>2026-04-25T13:21:11Z</time></trkpt><trkpt lat="44.60319113135997" lon="9.089603207445764"><ele>782.0</ele><time>2026-04-25T13:21:12Z</time></trkpt><trkpt lat="44.603290434668345" lon="9.089544414557507"><ele>782.0000000000001</ele><time>2026-04-25T13:21:13Z</time></trkpt><trkpt lat="44.603385286225155" lon="9.089467971760067"><ele>782.0</ele><time>2026-04-25T13:21:14Z</time></trkpt><trkpt lat="44.60345966280362" lon="9.089407042398863"><ele>782.0</ele><time>2026-04-25T13:21:15Z</time></trkpt><trkpt lat="44.6035241462307" lon="9.08935421654646"><ele>782.0</ele><time>2026-04-25T13:21:16Z</time></trkpt><trkpt lat="44.60358653752976" lon="9.089313369941603"><ele>782.0000000000001</ele><time>2026-04-25T13:21:17Z</time></trkpt><trkpt lat="44.603656389655214" lon="9.08927508455605"><ele>782.0</ele><time>2026-04-25T13:21:18Z</time></trkpt><trkpt lat="44.60376413795069" lon="9.089287730737098"><ele>783.4000000000001</ele><time>2026-04-25T13:21:20Z</time></trkpt><trkpt lat="44.60384368919643" lon="9.089322778979575"><ele>784.8000000000001</ele><time>2026-04-25T13:21:21Z</time></trkpt><trkpt lat="44.60393286400527" lon="9.089366992168712"><ele>786.2</ele><time>2026-04-25T13:21:22Z</time></trkpt><trkpt lat="44.60405112235679" lon="9.089390144578115"><ele>787.6</ele><time>2026-04-25T13:21:23Z</time></trkpt><trkpt lat="44.60414774043676" lon="9.089406961192022"><ele>789.0</ele><time>2026-04-25T13:21:24Z</time></trkpt><trkpt lat="44.60424162669822" lon="9.089456717126671"><ele>789.0</ele><time>2026-04-25T13:21:25Z</time></trkpt><trkpt lat="44.60434289759934" lon="9.089526739101398"><ele>789.0</ele><time>2026-04-25T13:21:26Z</time></trkpt><trkpt lat="44.6044546330106" lon="9.089605122925816"><ele>789.0</ele><time>2026-04-25T13:21:27Z</time></trkpt><trkpt lat="44.60455883719139" lon="9.089665010687419"><ele>789.0</ele><time>2026-04-25T13:21:28Z</time></trkpt><trkpt lat="44.604658162681176" lon="9.089713518365324"><ele>787.6</ele><time>2026-04-25T13:21:29Z</time></trkpt><trkpt lat="44.60475244294283" lon="9.089767835711564"><ele>786.2</ele><time>2026-04-25T13:21:30Z</time></trkpt><trkpt lat="44.60483954621952" lon="9.08984370291771"><ele>784.8000000000001</ele><time>2026-04-25T13:21:31Z</time></trkpt><trkpt lat="44.604923489262475" lon="9.089950297184425"><ele>783.4000000000001</ele><time>2026-04-25T13:21:32Z</time></trkpt><trkpt lat="44.605034310863935" lon="9.090050341379479"><ele>782.0</ele><time>2026-04-25T13:21:33Z</time></trkpt><trkpt lat="44.60512803558715" lon="9.09012789183467"><ele>783.6</ele><time>2026-04-25T13:21:34Z</time></trkpt><trkpt lat="44.60521633205961" lon="9.0901965588256"><ele>785.2</ele><time>2026-04-25T13:21:35Z</time></trkpt><trkpt lat="44.60529423450924" lon="9.090252226567047"><ele>786.8</ele><time>2026-04-25T13:21:36Z</time></trkpt><trkpt lat="44.60535171815351" lon="9.090305854773836"><ele>788.4</ele><time>2026-04-25T13:21:37Z</time></trkpt><trkpt lat="44.60539688461419" lon="9.090465524207223"><ele>790.0</ele><time>2026-04-25T13:21:39Z</time></trkpt><trkpt lat="44.605425612174784" lon="9.090581588986518"><ele>789.9999999999999</ele><time>2026-04-25T13:21:40Z</time></trkpt><trkpt lat="44.60546118378673" lon="9.09068191369865"><ele>790.0</ele><time>2026-04-25T13:21:41Z</time></trkpt><trkpt lat="44.605526667591" lon="9.090780916759073"><ele>790.0</ele><time>2026-04-25T13:21:42Z</time></trkpt><trkpt lat="44.60559233356225" lon="9.090882219853341"><ele>790.0</ele><time>2026-04-25T13:21:43Z</time></trkpt><trkpt lat="44.60565806032398" lon="9.090967666562326"><ele>789.9999999999999</ele><time>2026-04-25T13:21:44Z</time></trkpt><trkpt lat="44.605735640433736" lon="9.091018465261334"><ele>790.0</ele><time>2026-04-25T13:21:45Z</time></trkpt><trkpt lat="44.60583884387981" lon="9.0910178771431"><ele>794.0</ele><time>2026-04-25T13:21:46Z</time></trkpt><trkpt lat="44.605934727332716" lon="9.091016103641644"><ele>798.0</ele><time>2026-04-25T13:21:47Z</time></trkpt><trkpt lat="44.60602943512532" lon="9.091021892102841"><ele>802.0</ele><time>2026-04-25T13:21:48Z</time></trkpt><trkpt lat="44.606105458761114" lon="9.091055638636242"><ele>806.0</ele><time>2026-04-25T13:21:49Z</time></trkpt><trkpt lat="44.60620022177141" lon="9.091093485615406"><ele>810.0</ele><time>2026-04-25T13:21:50Z</time></trkpt><trkpt lat="44.60631176840609" lon="9.091132544058686"><ele>810.0</ele><time>2026-04-25T13:21:51Z</time></trkpt><trkpt lat="44.606408022445" lon="9.091155281977057"><ele>810.0</ele><time>2026-04-25T13:21:52Z</time></trkpt><trkpt lat="44.60650247489826" lon="9.091139512764174"><ele>810.0</ele><time>2026-04-25T13:21:53Z</time></trkpt><trkpt lat="44.606584033056684" lon="9.091139289785856"><ele>810.0</ele><time>2026-04-25T13:21:54Z</time></trkpt><trkpt lat="44.606682322605955" lon="9.091176168367287"><ele>810.0</ele><time>2026-04-25T13:21:56Z</time></trkpt><trkpt lat="44.606754950223994" lon="9.091314876877309"><ele>810.0</ele><time>2026-04-25T13:21:58Z</time></trkpt><trkpt lat="44.60680442749328" lon="9.091395801103777"><ele>810.0</ele><time>2026-04-25T13:21:59Z</time></trkpt><trkpt lat="44.606870040499196" lon="9.091493161274004"><ele>810.0</ele><time>2026-04-25T13:22:00Z</time></trkpt><trkpt lat="44.606951635726034" lon="9.091577275758702"><ele>810.0</ele><time>2026-04-25T13:22:01Z</time></trkpt><trkpt lat="44.607027291087476" lon="9.091654289803387"><ele>810.0</ele><time>2026-04-25T13:22:02Z</time></trkpt><trkpt lat="44.60709340827199" lon="9.091727786508365"><ele>809.3333333333334</ele><time>2026-04-25T13:22:03Z</time></trkpt><trkpt lat="44.60714439812401" lon="9.091812279194212"><ele>808.6666666666667</ele><time>2026-04-25T13:22:04Z</time></trkpt><trkpt lat="44.60718527128279" lon="9.091907380443876"><ele>808.0</ele><time>2026-04-25T13:22:05Z</time></trkpt><trkpt lat="44.60721991898042" lon="9.092015099985144"><ele>807.3333333333334</ele><time>2026-04-25T13:22:06Z</time></trkpt><trkpt lat="44.60723687268706" lon="9.092139040167233"><ele>806.6666666666667</ele><time>2026-04-25T13:22:07Z</time></trkpt><trkpt lat="44.60723737509964" lon="9.092269199505209"><ele>806.0</ele><time>2026-04-25T13:22:08Z</time></trkpt><trkpt lat="44.60722905930004" lon="9.092419853430508"><ele>809.4</ele><time>2026-04-25T13:22:09Z</time></trkpt><trkpt lat="44.60722400696011" lon="9.092565808229036"><ele>812.8</ele><time>2026-04-25T13:22:10Z</time></trkpt><trkpt lat="44.60719797446434" lon="9.092700327632974"><ele>816.1999999999999</ele><time>2026-04-25T13:22:11Z</time></trkpt><trkpt lat="44.607153041534666" lon="9.092821879210144"><ele>819.5999999999999</ele><time>2026-04-25T13:22:12Z</time></trkpt><trkpt lat="44.60710574173933" lon="9.092913172908204"><ele>823.0</ele><time>2026-04-25T13:22:13Z</time></trkpt><trkpt lat="44.6069950547414" lon="9.09298655460414"><ele>832.25</ele><time>2026-04-25T13:22:15Z</time></trkpt><trkpt lat="44.60689358725202" lon="9.092930182664945"><ele>841.5</ele><time>2026-04-25T13:22:16Z</time></trkpt><trkpt lat="44.60678264847798" lon="9.092935491864795"><ele>850.75</ele><time>2026-04-25T13:22:17Z</time></trkpt><trkpt lat="44.60666986672901" lon="9.092988239421786"><ele>860.0</ele><time>2026-04-25T13:22:18Z</time></trkpt><trkpt lat="44.606572600745544" lon="9.093079238901257"><ele>860.0</ele><time>2026-04-25T13:22:19Z</time></trkpt><trkpt lat="44.606496667585596" lon="9.093180795998423"><ele>860.0</ele><time>2026-04-25T13:22:20Z</time></trkpt><trkpt lat="44.60645101172871" lon="9.093289132629934"><ele>860.0</ele><time>2026-04-25T13:22:21Z</time></trkpt><trkpt lat="44.60642838461312" lon="9.093414017750627"><ele>860.0</ele><time>2026-04-25T13:22:22Z</time></trkpt><trkpt lat="44.60642683873127" lon="9.09357223461947"><ele>860.0</ele><time>2026-04-25T13:22:23Z</time></trkpt><trkpt lat="44.60642651711222" lon="9.093751235343971"><ele>859.25</ele><time>2026-04-25T13:22:24Z</time></trkpt><trkpt lat="44.60642991948459" lon="9.093950168367467"><ele>858.5</ele><time>2026-04-25T13:22:25Z</time></trkpt><trkpt lat="44.60643837601763" lon="9.094154374108777"><ele>857.75</ele><time>2026-04-25T13:22:26Z</time></trkpt><trkpt lat="44.60646646357235" lon="9.094356704382779"><ele>857.0</ele><time>2026-04-25T13:22:27Z</time></trkpt><trkpt lat="44.6065123153586" lon="9.094528812944718"><ele>857.0000000000001</ele><time>2026-04-25T13:22:28Z</time></trkpt><trkpt lat="44.606534616622056" lon="9.09467070008391"><ele>857.0</ele><time>2026-04-25T13:22:29Z</time></trkpt><trkpt lat="44.60655343945781" lon="9.09477217327979"><ele>857.0</ele><time>2026-04-25T13:22:30Z</time></trkpt><trkpt lat="44.6065447336559" lon="9.094884329826767"><ele>857.0</ele><time>2026-04-25T13:22:32Z</time></trkpt><trkpt lat="44.60644075973032" lon="9.094845281538424"><ele>857.0000000000001</ele><time>2026-04-25T13:22:34Z</time></trkpt><trkpt lat="44.60640748534875" lon="9.094753136923915"><ele>857.0</ele><time>2026-04-25T13:22:35Z</time></trkpt><trkpt lat="44.60633628848147" lon="9.094663271688617"><ele>857.0</ele><time>2026-04-25T13:22:36Z</time></trkpt><trkpt lat="44.606261905282814" lon="9.094540332522596"><ele>857.0</ele><time>2026-04-25T13:22:37Z</time></trkpt><trkpt lat="44.606197495642945" lon="9.094385083817082"><ele>857.0</ele><time>2026-04-25T13:22:38Z</time></trkpt><trkpt lat="44.60616265098649" lon="9.094176075011415"><ele>857.0</ele><time>2026-04-25T13:22:39Z</time></trkpt><trkpt lat="44.606101058045" lon="9.093978220039029"><ele>866.6666666666667</ele><time>2026-04-25T13:22:40Z</time></trkpt><trkpt lat="44.60604684283507" lon="9.093772559743583"><ele>876.3333333333333</ele><time>2026-04-25T13:22:41Z</time></trkpt><trkpt lat="44.60597747896603" lon="9.093554215251768"><ele>886.0</ele><time>2026-04-25T13:22:42Z</time></trkpt><trkpt lat="44.605913015445886" lon="9.093341384929875"><ele>884.0</ele><time>2026-04-25T13:22:43Z</time></trkpt><trkpt lat="44.605864102953355" lon="9.093166932667126"><ele>882.0</ele><time>2026-04-25T13:22:44Z</time></trkpt><trkpt lat="44.60581958227512" lon="9.093009838999592"><ele>880.0</ele><time>2026-04-25T13:22:45Z</time></trkpt><trkpt lat="44.60578357777925" lon="9.09286699485326"><ele>878.0</ele><time>2026-04-25T13:22:46Z</time></trkpt><trkpt lat="44.60577363680139" lon="9.092731490484846"><ele>878.0</ele><time>2026-04-25T13:22:47Z</time></trkpt><trkpt lat="44.60575805821287" lon="9.092607791069998"><ele>878.0</ele><time>2026-04-25T13:22:48Z</time></trkpt><trkpt lat="44.60573658901802" lon="9.09250193980178"><ele>878.0</ele><time>2026-04-25T13:22:49Z</time></trkpt><trkpt lat="44.60569301737499" lon="9.0923786548833"><ele>878.0</ele><time>2026-04-25T13:22:51Z</time></trkpt><trkpt lat="44.60560195960144" lon="9.092402058430078"><ele>878.0</ele><time>2026-04-25T13:22:53Z</time></trkpt><trkpt lat="44.605488032674835" lon="9.092461343778302"><ele>878.0</ele><time>2026-04-25T13:22:55Z</time></trkpt><trkpt lat="44.60540273926943" lon="9.09249099820529"><ele>878.0</ele><time>2026-04-25T13:22:56Z</time></trkpt><trkpt lat="44.60529941115227" lon="9.092522177413265"><ele>878.0</ele><time>2026-04-25T13:22:57Z</time></trkpt><trkpt lat="44.60518938758585" lon="9.092555296946468"><ele>878.0</ele><time>2026-04-25T13:22:58Z</time></trkpt><trkpt lat="44.60507630820697" lon="9.092581584137893"><ele>878.0</ele><time>2026-04-25T13:22:59Z</time></trkpt><trkpt lat="44.60497591868299" lon="9.092587782492739"><ele>880.75</ele><time>2026-04-25T13:23:00Z</time></trkpt><trkpt lat="44.604866796398305" lon="9.092571368419962"><ele>883.5</ele><time>2026-04-25T13:23:01Z</time></trkpt><trkpt lat="44.604749282711694" lon="9.092541508922217"><ele>886.25</ele><time>2026-04-25T13:23:02Z</time></trkpt><trkpt lat="44.604627636902634" lon="9.092497427387961"><ele>889.0</ele><time>2026-04-25T13:23:03Z</time></trkpt><trkpt lat="44.604518514858285" lon="9.092458200743984"><ele>888.0</ele><time>2026-04-25T13:23:04Z</time></trkpt><trkpt lat="44.604430290811855" lon="9.092422576893691"><ele>887.0000000000001</ele><time>2026-04-25T13:23:05Z</time></trkpt><trkpt lat="44.604343256748166" lon="9.092400357162795"><ele>886.0000000000001</ele><time>2026-04-25T13:23:07Z</time></trkpt><trkpt lat="44.604321073444105" lon="9.092498018516835"><ele>885.0</ele><time>2026-04-25T13:23:09Z</time></trkpt><trkpt lat="44.60441959973512" lon="9.092582989371826"><ele>884.0</ele><time>2026-04-25T13:23:11Z</time></trkpt><trkpt lat="44.60448120011955" lon="9.092660204511008"><ele>885.0</ele><time>2026-04-25T13:23:12Z</time></trkpt><trkpt lat="44.60456363012953" lon="9.092736651921479"><ele>886.0000000000001</ele><time>2026-04-25T13:23:13Z</time></trkpt><trkpt lat="44.60465424148916" lon="9.092818070836268"><ele>887.0000000000001</ele><time>2026-04-25T13:23:14Z</time></trkpt><trkpt lat="44.60473540432568" lon="9.092890388071671"><ele>888.0</ele><time>2026-04-25T13:23:15Z</time></trkpt><trkpt lat="44.60481700569422" lon="9.092968393374946"><ele>889.0</ele><time>2026-04-25T13:23:16Z</time></trkpt><trkpt lat="44.60489816395825" lon="9.093039678053824"><ele>888.9999999999999</ele><time>2026-04-25T13:23:17Z</time></trkpt><trkpt lat="44.604983224928034" lon="9.093066220680493"><ele>889.0</ele><time>2026-04-25T13:23:18Z</time></trkpt><trkpt lat="44.60507497555806" lon="9.093036495866498"><ele>889.0</ele><time>2026-04-25T13:23:19Z</time></trkpt><trkpt lat="44.60516008459501" lon="9.093009284888979"><ele>889.0</ele><time>2026-04-25T13:23:20Z</time></trkpt><trkpt lat="44.605230789798725" lon="9.092999226484597"><ele>888.9999999999999</ele><time>2026-04-25T13:23:21Z</time></trkpt><trkpt lat="44.60529217004961" lon="9.093052269023877"><ele>889.0</ele><time>2026-04-25T13:23:23Z</time></trkpt><trkpt lat="44.6053189830842" lon="9.09323749206418"><ele>888.4000000000001</ele><time>2026-04-25T13:23:25Z</time></trkpt><trkpt lat="44.60531856402204" lon="9.093372565628226"><ele>887.8000000000001</ele><time>2026-04-25T13:23:26Z</time></trkpt><trkpt lat="44.60532126066161" lon="9.093528124738885"><ele>887.1999999999999</ele><time>2026-04-25T13:23:27Z</time></trkpt><trkpt lat="44.605323019833676" lon="9.093678162881966"><ele>886.5999999999999</ele><time>2026-04-25T13:23:28Z</time></trkpt><trkpt lat="44.60531744635187" lon="9.093817858739008"><ele>886.0</ele><time>2026-04-25T13:23:29Z</time></trkpt><trkpt lat="44.605344692056065" lon="9.093952525370046"><ele>886.8</ele><time>2026-04-25T13:23:30Z</time></trkpt><trkpt lat="44.605358228055216" lon="9.094094348970925"><ele>887.5999999999999</ele><time>2026-04-25T13:23:31Z</time></trkpt><trkpt lat="44.605367102461834" lon="9.094224576881718"><ele>888.4</ele><time>2026-04-25T13:23:32Z</time></trkpt><trkpt lat="44.60536178520177" lon="9.094352214935958"><ele>889.2</ele><time>2026-04-25T13:23:33Z</time></trkpt><trkpt lat="44.60535583365376" lon="9.094485074073031"><ele>890.0</ele><time>2026-04-25T13:23:34Z</time></trkpt><trkpt lat="44.60535303398356" lon="9.094622267612419"><ele>890.0000000000001</ele><time>2026-04-25T13:23:35Z</time></trkpt><trkpt lat="44.60534946453823" lon="9.09476487398928"><ele>890.0</ele><time>2026-04-25T13:23:36Z</time></trkpt><trkpt lat="44.605373765356056" lon="9.09489484649315"><ele>890.0</ele><time>2026-04-25T13:23:37Z</time></trkpt><trkpt lat="44.60539104496646" lon="9.095009605994573"><ele>890.0</ele><time>2026-04-25T13:23:38Z</time></trkpt><trkpt lat="44.60540249744988" lon="9.095111761824404"><ele>890.0000000000001</ele><time>2026-04-25T13:23:39Z</time></trkpt><trkpt lat="44.60541411744824" lon="9.09519892751746"><ele>890.0</ele><time>2026-04-25T13:23:40Z</time></trkpt><trkpt lat="44.605377574351536" lon="9.095277134886318"><ele>898.0000000000001</ele><time>2026-04-25T13:23:41Z</time></trkpt><trkpt lat="44.60532584601516" lon="9.095359754398405"><ele>906.0</ele><time>2026-04-25T13:23:42Z</time></trkpt><trkpt lat="44.605257520566056" lon="9.095442810476051"><ele>914.0</ele><time>2026-04-25T13:23:43Z</time></trkpt><trkpt lat="44.60519259840199" lon="9.09553557700684"><ele>922.0</ele><time>2026-04-25T13:23:44Z</time></trkpt><trkpt lat="44.60515156182519" lon="9.095640666292965"><ele>930.0000000000001</ele><time>2026-04-25T13:23:45Z</time></trkpt><trkpt lat="44.60515348911139" lon="9.095753722173388"><ele>938.0</ele><time>2026-04-25T13:23:46Z</time></trkpt><trkpt lat="44.6051877843042" lon="9.09588127122927"><ele>938.0</ele><time>2026-04-25T13:23:47Z</time></trkpt><trkpt lat="44.60520163537772" lon="9.096037196277884"><ele>938.0</ele><time>2026-04-25T13:23:48Z</time></trkpt><trkpt lat="44.60522527277926" lon="9.096212706848787"><ele>938.0</ele><time>2026-04-25T13:23:49Z</time></trkpt><trkpt lat="44.60527060899479" lon="9.096379963315147"><ele>938.0</ele><time>2026-04-25T13:23:50Z</time></trkpt><trkpt lat="44.60528383171618" lon="9.096541420739937"><ele>939.5</ele><time>2026-04-25T13:23:51Z</time></trkpt><trkpt lat="44.60530329418183" lon="9.096706722688793"><ele>941.0</ele><time>2026-04-25T13:23:52Z</time></trkpt><trkpt lat="44.60534372035867" lon="9.096876632224074"><ele>942.5</ele><time>2026-04-25T13:23:53Z</time></trkpt><trkpt lat="44.60538136273032" lon="9.097054752013662"><ele>944.0</ele><time>2026-04-25T13:23:54Z</time></trkpt><trkpt lat="44.6054257011696" lon="9.097201908162031"><ele>943.0</ele><time>2026-04-25T13:23:55Z</time></trkpt><trkpt lat="44.60543654901231" lon="9.097318619937099"><ele>942.0000000000001</ele><time>2026-04-25T13:23:56Z</time></trkpt><trkpt lat="44.60544486850824" lon="9.097407157250705"><ele>941.0000000000001</ele><time>2026-04-25T13:23:57Z</time></trkpt><trkpt lat="44.605390360229876" lon="9.097596243076035"><ele>940.0</ele><time>2026-04-25T13:23:59Z</time></trkpt><trkpt lat="44.605352949575376" lon="9.097708721466098"><ele>939.0</ele><time>2026-04-25T13:24:00Z</time></trkpt><trkpt lat="44.60533467570815" lon="9.097854739830439"><ele>939.0</ele><time>2026-04-25T13:24:01Z</time></trkpt><trkpt lat="44.6053144651549" lon="9.097987488487814"><ele>939.0</ele><time>2026-04-25T13:24:02Z</time></trkpt><trkpt lat="44.60528946573331" lon="9.098081247066164"><ele>939.0</ele><time>2026-04-25T13:24:03Z</time></trkpt><trkpt lat="44.60533561294217" lon="9.098217616763472"><ele>939.0</ele><time>2026-04-25T13:24:05Z</time></trkpt><trkpt lat="44.60540119921765" lon="9.09824553465243"><ele>939.0</ele><time>2026-04-25T13:24:06Z</time></trkpt><trkpt lat="44.60547649715746" lon="9.098237017227994"><ele>939.0</ele><time>2026-04-25T13:24:07Z</time></trkpt><trkpt lat="44.60557254735006" lon="9.098189538759803"><ele>939.0</ele><time>2026-04-25T13:24:08Z</time></trkpt><trkpt lat="44.60567245025111" lon="9.09814911667427"><ele>939.0000000000001</ele><time>2026-04-25T13:24:09Z</time></trkpt><trkpt lat="44.60576259685866" lon="9.098117704018879"><ele>939.0000000000001</ele><time>2026-04-25T13:24:10Z</time></trkpt><trkpt lat="44.6058392272704" lon="9.098092617745172"><ele>939.0</ele><time>2026-04-25T13:24:11Z</time></trkpt><trkpt lat="44.60592770488425" lon="9.098064810103756"><ele>939.0</ele><time>2026-04-25T13:24:12Z</time></trkpt><trkpt lat="44.60603097364806" lon="9.0980012868064"><ele>939.0</ele><time>2026-04-25T13:24:13Z</time></trkpt><trkpt lat="44.606132984383656" lon="9.097914371483105"><ele>939.0</ele><time>2026-04-25T13:24:14Z</time></trkpt><trkpt lat="44.60624185528166" lon="9.097818240786445"><ele>939.0</ele><time>2026-04-25T13:24:15Z</time></trkpt><trkpt lat="44.60635228224303" lon="9.097727683375803"><ele>939.0</ele><time>2026-04-25T13:24:16Z</time></trkpt><trkpt lat="44.606462879344875" lon="9.09762568461646"><ele>943.0</ele><time>2026-04-25T13:24:17Z</time></trkpt><trkpt lat="44.606576443182064" lon="9.097519079252452"><ele>947.0</ele><time>2026-04-25T13:24:18Z</time></trkpt><trkpt lat="44.60669301385629" lon="9.09741759632383"><ele>951.0</ele><time>2026-04-25T13:24:19Z</time></trkpt><trkpt lat="44.60680112339515" lon="9.097324655956841"><ele>955.0</ele><time>2026-04-25T13:24:20Z</time></trkpt><trkpt lat="44.606892976779235" lon="9.097247178827075"><ele>956.0</ele><time>2026-04-25T13:24:21Z</time></trkpt><trkpt lat="44.60697068516863" lon="9.09719092438383"><ele>957.0</ele><time>2026-04-25T13:24:22Z</time></trkpt><trkpt lat="44.60707093367673" lon="9.097180882177513"><ele>958.0</ele><time>2026-04-25T13:24:24Z</time></trkpt><trkpt lat="44.60715385820786" lon="9.09729306928365"><ele>959.0</ele><time>2026-04-25T13:24:26Z</time></trkpt><trkpt lat="44.60721225007539" lon="9.097399316618235"><ele>960.0</ele><time>2026-04-25T13:24:27Z</time></trkpt><trkpt lat="44.60727583244373" lon="9.097523924876437"><ele>960.0</ele><time>2026-04-25T13:24:28Z</time></trkpt><trkpt lat="44.607344767991016" lon="9.097623480364817"><ele>960.0</ele><time>2026-04-25T13:24:29Z</time></trkpt><trkpt lat="44.607407789314216" lon="9.097713148182557"><ele>960.0</ele><time>2026-04-25T13:24:30Z</time></trkpt><trkpt lat="44.60746392295932" lon="9.097794113698432"><ele>960.0</ele><time>2026-04-25T13:24:31Z</time></trkpt><trkpt lat="44.607520130614624" lon="9.097879799373517"><ele>960.0</ele><time>2026-04-25T13:24:32Z</time></trkpt><trkpt lat="44.60759765460988" lon="9.0979917103845"><ele>960.0</ele><time>2026-04-25T13:24:34Z</time></trkpt><trkpt lat="44.607547325882294" lon="9.098083104087086"><ele>960.0</ele><time>2026-04-25T13:24:36Z</time></trkpt><trkpt lat="44.60743990228641" lon="9.098051090225677"><ele>960.0</ele><time>2026-04-25T13:24:38Z</time></trkpt><trkpt lat="44.60737812469574" lon="9.098010278328012"><ele>960.0</ele><time>2026-04-25T13:24:39Z</time></trkpt><trkpt lat="44.60730388819243" lon="9.09798409928131"><ele>960.0</ele><time>2026-04-25T13:24:40Z</time></trkpt><trkpt lat="44.60722210559494" lon="9.097952669637046"><ele>960.0</ele><time>2026-04-25T13:24:41Z</time></trkpt><trkpt lat="44.60713430550278" lon="9.09792074868427"><ele>960.0</ele><time>2026-04-25T13:24:42Z</time></trkpt><trkpt lat="44.60705431027836" lon="9.09789035967685"><ele>960.0</ele><time>2026-04-25T13:24:43Z</time></trkpt><trkpt lat="44.60697699958639" lon="9.097861471137882"><ele>960.0</ele><time>2026-04-25T13:24:44Z</time></trkpt><trkpt lat="44.606894187503734" lon="9.097850852014654"><ele>960.0</ele><time>2026-04-25T13:24:45Z</time></trkpt><trkpt lat="44.606813210805605" lon="9.097871364819946"><ele>960.0</ele><time>2026-04-25T13:24:46Z</time></trkpt><trkpt lat="44.60673682263933" lon="9.09791205867677"><ele>960.0</ele><time>2026-04-25T13:24:47Z</time></trkpt><trkpt lat="44.606663922652366" lon="9.097995960275707"><ele>959.0</ele><time>2026-04-25T13:24:48Z</time></trkpt><trkpt lat="44.60658652294557" lon="9.098080589791941"><ele>958.0</ele><time>2026-04-25T13:24:49Z</time></trkpt><trkpt lat="44.60650775788671" lon="9.098172571369009"><ele>957.0</ele><time>2026-04-25T13:24:50Z</time></trkpt><trkpt lat="44.60641082053114" lon="9.0982665315537"><ele>956.0</ele><time>2026-04-25T13:24:51Z</time></trkpt><trkpt lat="44.60633828701066" lon="9.098393030340537"><ele>955.0</ele><time>2026-04-25T13:24:52Z</time></trkpt><trkpt lat="44.60626872468517" lon="9.098534646144552"><ele>957.0</ele><time>2026-04-25T13:24:53Z</time></trkpt><trkpt lat="44.60621363311962" lon="9.098680778788573"><ele>959.0</ele><time>2026-04-25T13:24:54Z</time></trkpt><trkpt lat="44.6061776947173" lon="9.098777586569742"><ele>961.0</ele><time>2026-04-25T13:24:55Z</time></trkpt><trkpt lat="44.6061079843721" lon="9.098849758329937"><ele>963.0</ele><time>2026-04-25T13:24:56Z</time></trkpt><trkpt lat="44.60601145829532" lon="9.098920593458027"><ele>965.0</ele><time>2026-04-25T13:24:57Z</time></trkpt><trkpt lat="44.605916007476054" lon="9.099015996828001"><ele>972.0</ele><time>2026-04-25T13:24:58Z</time></trkpt><trkpt lat="44.60581666000917" lon="9.099118501257976"><ele>979.0</ele><time>2026-04-25T13:24:59Z</time></trkpt><trkpt lat="44.605709896194085" lon="9.099212080205234"><ele>986.0</ele><time>2026-04-25T13:25:00Z</time></trkpt><trkpt lat="44.60559824330416" lon="9.099287892654287"><ele>993.0</ele><time>2026-04-25T13:25:01Z</time></trkpt><trkpt lat="44.605497922292244" lon="9.09934855967423"><ele>993.0</ele><time>2026-04-25T13:25:02Z</time></trkpt><trkpt lat="44.605416378102674" lon="9.099392438596468"><ele>993.0</ele><time>2026-04-25T13:25:03Z</time></trkpt><trkpt lat="44.60535046737282" lon="9.099446513273216"><ele>993.0</ele><time>2026-04-25T13:25:04Z</time></trkpt><trkpt lat="44.605294889784" lon="9.09950200362222"><ele>993.0</ele><time>2026-04-25T13:25:05Z</time></trkpt><trkpt lat="44.60518127459997" lon="9.099552046908132"><ele>993.0</ele><time>2026-04-25T13:25:07Z</time></trkpt><trkpt lat="44.605064856435924" lon="9.099470707811228"><ele>993.1666666666666</ele><time>2026-04-25T13:25:09Z</time></trkpt><trkpt lat="44.60500192381688" lon="9.099401375320342"><ele>993.3333333333333</ele><time>2026-04-25T13:25:10Z</time></trkpt><trkpt lat="44.60492442909706" lon="9.099355581223708"><ele>993.5</ele><time>2026-04-25T13:25:11Z</time></trkpt><trkpt lat="44.60485655964188" lon="9.099335029112199"><ele>993.6666666666666</ele><time>2026-04-25T13:25:12Z</time></trkpt><trkpt lat="44.60475017174801" lon="9.099367761906294"><ele>993.8333333333333</ele><time>2026-04-25T13:25:14Z</time></trkpt><trkpt lat="44.60470116833131" lon="9.099431339808705"><ele>994.0</ele><time>2026-04-25T13:25:15Z</time></trkpt><trkpt lat="44.60465051930844" lon="9.099509928773202"><ele>993.9999999999999</ele><time>2026-04-25T13:25:16Z</time></trkpt><trkpt lat="44.60459094436312" lon="9.099571811685669"><ele>994.0</ele><time>2026-04-25T13:25:17Z</time></trkpt><trkpt lat="44.60452846523475" lon="9.09958309904018"><ele>994.0</ele><time>2026-04-25T13:25:18Z</time></trkpt><trkpt lat="44.60447237549474" lon="9.099533468978668"><ele>994.0</ele><time>2026-04-25T13:25:19Z</time></trkpt><trkpt lat="44.604438477956265" lon="9.099441317380439"><ele>993.9999999999999</ele><time>2026-04-25T13:25:20Z</time></trkpt><trkpt lat="44.604408430259866" lon="9.099329994457705"><ele>994.0</ele><time>2026-04-25T13:25:21Z</time></trkpt><trkpt lat="44.604389296538656" lon="9.099207380459633"><ele>996.4000000000001</ele><time>2026-04-25T13:25:22Z</time></trkpt><trkpt lat="44.60436544751078" lon="9.099092822438207"><ele>998.8000000000001</ele><time>2026-04-25T13:25:23Z</time></trkpt><trkpt lat="44.604305985829996" lon="9.098998119067558"><ele>1001.1999999999999</ele><time>2026-04-25T13:25:24Z</time></trkpt><trkpt lat="44.60422460839235" lon="9.098921473721616"><ele>1003.5999999999999</ele><time>2026-04-25T13:25:25Z</time></trkpt><trkpt lat="44.60413630924201" lon="9.098833503495918"><ele>1006.0</ele><time>2026-04-25T13:25:26Z</time></trkpt><trkpt lat="44.60404498526893" lon="9.098738359648515"><ele>1005.9999999999999</ele><time>2026-04-25T13:25:27Z</time></trkpt><trkpt lat="44.60395735033004" lon="9.098665356012159"><ele>1006.0</ele><time>2026-04-25T13:25:28Z</time></trkpt><trkpt lat="44.603880984674696" lon="9.09859411458994"><ele>1006.0</ele><time>2026-04-25T13:25:29Z</time></trkpt><trkpt lat="44.60382376795091" lon="9.098505173809231"><ele>1006.0</ele><time>2026-04-25T13:25:30Z</time></trkpt><trkpt lat="44.603800529891124" lon="9.09840162203249"><ele>1005.9999999999999</ele><time>2026-04-25T13:25:31Z</time></trkpt><trkpt lat="44.60382943408222" lon="9.098278351636854"><ele>1006.0</ele><time>2026-04-25T13:25:32Z</time></trkpt><trkpt lat="44.603816485096345" lon="9.098150311915385"><ele>1003.6666666666666</ele><time>2026-04-25T13:25:33Z</time></trkpt><trkpt lat="44.603819312798244" lon="9.09801710380797"><ele>1001.3333333333333</ele><time>2026-04-25T13:25:34Z</time></trkpt><trkpt lat="44.603830936541094" lon="9.097899841991147"><ele>999.0</ele><time>2026-04-25T13:25:35Z</time></trkpt><trkpt lat="44.60383484262766" lon="9.097801810936229"><ele>996.6666666666667</ele><time>2026-04-25T13:25:36Z</time></trkpt><trkpt lat="44.60381256734658" lon="9.097704420240536"><ele>994.3333333333334</ele><time>2026-04-25T13:25:37Z</time></trkpt><trkpt lat="44.60376915522444" lon="9.097599448419254"><ele>992.0</ele><time>2026-04-25T13:25:38Z</time></trkpt><trkpt lat="44.60371558269582" lon="9.09748402845374"><ele>998.5</ele><time>2026-04-25T13:25:39Z</time></trkpt><trkpt lat="44.60365814286075" lon="9.097358292487597"><ele>1005.0</ele><time>2026-04-25T13:25:40Z</time></trkpt><trkpt lat="44.6035925017504" lon="9.09722285385653"><ele>1011.5</ele><time>2026-04-25T13:25:41Z</time></trkpt><trkpt lat="44.60353049959496" lon="9.097085571971125"><ele>1018.0</ele><time>2026-04-25T13:25:42Z</time></trkpt><trkpt lat="44.60345570497516" lon="9.096968288249801"><ele>1017.9999999999999</ele><time>2026-04-25T13:25:43Z</time></trkpt><trkpt lat="44.60340410128263" lon="9.096881648200812"><ele>1018.0</ele><time>2026-04-25T13:25:44Z</time></trkpt><trkpt lat="44.60331507782293" lon="9.096797408853131"><ele>1018.0</ele><time>2026-04-25T13:25:46Z</time></trkpt><trkpt lat="44.60325019921929" lon="9.096793416361274"><ele>1018.0</ele><time>2026-04-25T13:25:47Z</time></trkpt><trkpt lat="44.60318376200937" lon="9.096817471685902"><ele>1017.9999999999999</ele><time>2026-04-25T13:25:48Z</time></trkpt><trkpt lat="44.60313163086899" lon="9.096886648722032"><ele>1018.0</ele><time>2026-04-25T13:25:49Z</time></trkpt><trkpt lat="44.603101533352444" lon="9.096990666661378"><ele>1017.9999999999999</ele><time>2026-04-25T13:25:50Z</time></trkpt><trkpt lat="44.60307153043716" lon="9.097084587172207"><ele>1018.0</ele><time>2026-04-25T13:25:51Z</time></trkpt><trkpt lat="44.603017087001206" lon="9.097135768950213"><ele>1017.9999999999999</ele><time>2026-04-25T13:25:52Z</time></trkpt><trkpt lat="44.602943916841824" lon="9.097135696238762"><ele>1017.9999999999999</ele><time>2026-04-25T13:25:53Z</time></trkpt><trkpt lat="44.602868640204846" lon="9.097099566829144"><ele>1018.0</ele><time>2026-04-25T13:25:54Z</time></trkpt><trkpt lat="44.60279209223329" lon="9.097079725177693"><ele>1017.9999999999999</ele><time>2026-04-25T13:25:55Z</time></trkpt><trkpt lat="44.60271515017503" lon="9.097108451248067"><ele>1017.9999999999999</ele><time>2026-04-25T13:25:56Z</time></trkpt><trkpt lat="44.60265140011989" lon="9.0971842575009"><ele>1017.5999999999999</ele><time>2026-04-25T13:25:57Z</time></trkpt><trkpt lat="44.60261130254973" lon="9.097291520676933"><ele>1017.1999999999999</ele><time>2026-04-25T13:25:58Z</time></trkpt><trkpt lat="44.60258977834173" lon="9.097418661439612"><ele>1016.8</ele><time>2026-04-25T13:25:59Z</time></trkpt><trkpt lat="44.60258096907528" lon="9.097557527770965"><ele>1016.4</ele><time>2026-04-25T13:26:00Z</time></trkpt><trkpt lat="44.60256050486235" lon="9.097698078343736"><ele>1016.0</ele><time>2026-04-25T13:26:01Z</time></trkpt><trkpt lat="44.60251972798562" lon="9.097838313626532"><ele>1018.8</ele><time>2026-04-25T13:26:02Z</time></trkpt><trkpt lat="44.60246478041553" lon="9.097977698851036"><ele>1021.5999999999999</ele><time>2026-04-25T13:26:03Z</time></trkpt><trkpt lat="44.60239945795609" lon="9.098081466409042"><ele>1024.4</ele><time>2026-04-25T13:26:04Z</time></trkpt><trkpt lat="44.60231639772423" lon="9.098158495011216"><ele>1027.2</ele><time>2026-04-25T13:26:05Z</time></trkpt><trkpt lat="44.60221590492282" lon="9.098216981663608"><ele>1030.0</ele><time>2026-04-25T13:26:06Z</time></trkpt><trkpt lat="44.602099109204275" lon="9.09825453486828"><ele>1031.8</ele><time>2026-04-25T13:26:07Z</time></trkpt><trkpt lat="44.60198284607262" lon="9.09825604261967"><ele>1033.6</ele><time>2026-04-25T13:26:08Z</time></trkpt><trkpt lat="44.60189634622334" lon="9.098259010970915"><ele>1035.4</ele><time>2026-04-25T13:26:09Z</time></trkpt><trkpt lat="44.60185384062337" lon="9.09833593799345"><ele>1037.2</ele><time>2026-04-25T13:26:11Z</time></trkpt><trkpt lat="44.601895750795016" lon="9.098413646098289"><ele>1039.0</ele><time>2026-04-25T13:26:13Z</time></trkpt><trkpt lat="44.602036934689046" lon="9.098447882333982"><ele>1041.2</ele><time>2026-04-25T13:26:15Z</time></trkpt><trkpt lat="44.60212717059921" lon="9.098459522571464"><ele>1043.4</ele><time>2026-04-25T13:26:16Z</time></trkpt><trkpt lat="44.60223642094677" lon="9.098476928646628"><ele>1045.6</ele><time>2026-04-25T13:26:17Z</time></trkpt><trkpt lat="44.602347607705404" lon="9.098481500150655"><ele>1047.8</ele><time>2026-04-25T13:26:18Z</time></trkpt><trkpt lat="44.60243244967888" lon="9.098474591421054"><ele>1050.0</ele><time>2026-04-25T13:26:19Z</time></trkpt><trkpt lat="44.60249955959217" lon="9.098463695448366"><ele>1050.0</ele><time>2026-04-25T13:26:20Z</time></trkpt><trkpt lat="44.60258305001591" lon="9.098479553030149"><ele>1050.0</ele><time>2026-04-25T13:26:22Z</time></trkpt><trkpt lat="44.602611184249405" lon="9.098580193058615"><ele>1050.0</ele><time>2026-04-25T13:26:24Z</time></trkpt><trkpt lat="44.60258411662166" lon="9.098671261269768"><ele>1050.0</ele><time>2026-04-25T13:26:25Z</time></trkpt><trkpt lat="44.60255939700739" lon="9.098775400821374"><ele>1050.0</ele><time>2026-04-25T13:26:26Z</time></trkpt><trkpt lat="44.60256678348995" lon="9.098898584606749"><ele>1050.0</ele><time>2026-04-25T13:26:27Z</time></trkpt><trkpt lat="44.602617679450816" lon="9.099023159931171"><ele>1047.5</ele><time>2026-04-25T13:26:28Z</time></trkpt><trkpt lat="44.602681215616165" lon="9.09915439970288"><ele>1045.0</ele><time>2026-04-25T13:26:29Z</time></trkpt><trkpt lat="44.602740442588036" lon="9.099320629230924"><ele>1042.5</ele><time>2026-04-25T13:26:30Z</time></trkpt><trkpt lat="44.60280520632042" lon="9.099502186564091"><ele>1040.0</ele><time>2026-04-25T13:26:31Z</time></trkpt><trkpt lat="44.602858185500416" lon="9.099653965179085"><ele>1040.0</ele><time>2026-04-25T13:26:32Z</time></trkpt><trkpt lat="44.60290619879288" lon="9.099785911085766"><ele>1040.0</ele><time>2026-04-25T13:26:33Z</time></trkpt><trkpt lat="44.60294660415959" lon="9.099915124897556"><ele>1040.0</ele><time>2026-04-25T13:26:34Z</time></trkpt><trkpt lat="44.602967437537906" lon="9.100042528254473"><ele>1040.0</ele><time>2026-04-25T13:26:35Z</time></trkpt><trkpt lat="44.60297204701321" lon="9.100175482048176"><ele>1040.0</ele><time>2026-04-25T13:26:36Z</time></trkpt><trkpt lat="44.602989984079294" lon="9.100315860119888"><ele>1042.5</ele><time>2026-04-25T13:26:37Z</time></trkpt><trkpt lat="44.60299517977329" lon="9.100438777622145"><ele>1045.0</ele><time>2026-04-25T13:26:38Z</time></trkpt><trkpt lat="44.60300935837592" lon="9.100556312421334"><ele>1047.5</ele><time>2026-04-25T13:26:39Z</time></trkpt><trkpt lat="44.60301679642297" lon="9.100672967416964"><ele>1050.0</ele><time>2026-04-25T13:26:40Z</time></trkpt><trkpt lat="44.60304196333343" lon="9.100781973712124"><ele>1052.5</ele><time>2026-04-25T13:26:41Z</time></trkpt><trkpt lat="44.6030658990314" lon="9.10088339832413"><ele>1055.0</ele><time>2026-04-25T13:26:42Z</time></trkpt><trkpt lat="44.60309281557365" lon="9.100988168517587"><ele>1057.5</ele><time>2026-04-25T13:26:43Z</time></trkpt><trkpt lat="44.60312373560184" lon="9.101091870359673"><ele>1060.0</ele><time>2026-04-25T13:26:44Z</time></trkpt><trkpt lat="44.60316462620669" lon="9.101194663767926"><ele>1062.5</ele><time>2026-04-25T13:26:45Z</time></trkpt><trkpt lat="44.60321343558047" lon="9.101292058698697"><ele>1065.0</ele><time>2026-04-25T13:26:46Z</time></trkpt><trkpt lat="44.60326569038723" lon="9.101383478453084"><ele>1067.5</ele><time>2026-04-25T13:26:47Z</time></trkpt><trkpt lat="44.603317580687076" lon="9.101472456327114"><ele>1070.0</ele><time>2026-04-25T13:26:48Z</time></trkpt><trkpt lat="44.60336639531843" lon="9.101557369212964"><ele>1072.5</ele><time>2026-04-25T13:26:49Z</time></trkpt><trkpt lat="44.60340996060348" lon="9.10164475071428"><ele>1075.0</ele><time>2026-04-25T13:26:50Z</time></trkpt><trkpt lat="44.60344368513117" lon="9.101742746190016"><ele>1077.5</ele><time>2026-04-25T13:26:51Z</time></trkpt><trkpt lat="44.60347200894389" lon="9.101849841738023"><ele>1080.0</ele><time>2026-04-25T13:26:52Z</time></trkpt><trkpt lat="44.603501119782464" lon="9.101968775327808"><ele>1082.5</ele><time>2026-04-25T13:26:53Z</time></trkpt><trkpt lat="44.60353910179307" lon="9.102077675739341"><ele>1085.0</ele><time>2026-04-25T13:26:54Z</time></trkpt><trkpt lat="44.60359297498584" lon="9.102177710285613"><ele>1082.6</ele><time>2026-04-25T13:26:55Z</time></trkpt><trkpt lat="44.603666184040634" lon="9.102253659568374"><ele>1080.2</ele><time>2026-04-25T13:26:56Z</time></trkpt><trkpt lat="44.60375823045387" lon="9.102296851718043"><ele>1077.8</ele><time>2026-04-25T13:26:57Z</time></trkpt><trkpt lat="44.60385104905698" lon="9.102322178479923"><ele>1075.4</ele><time>2026-04-25T13:26:58Z</time></trkpt><trkpt lat="44.603940752126825" lon="9.102351514490724"><ele>1073.0</ele><time>2026-04-25T13:26:59Z</time></trkpt><trkpt lat="44.604028044952024" lon="9.102376712070058"><ele>1073.0</ele><time>2026-04-25T13:27:00Z</time></trkpt><trkpt lat="44.60410486617683" lon="9.102394824212604"><ele>1073.0</ele><time>2026-04-25T13:27:01Z</time></trkpt><trkpt lat="44.604182339542795" lon="9.102322183921517"><ele>1073.0</ele><time>2026-04-25T13:27:02Z</time></trkpt><trkpt lat="44.60429527764006" lon="9.102307401245683"><ele>1073.0</ele><time>2026-04-25T13:27:04Z</time></trkpt><trkpt lat="44.60437808417908" lon="9.102374996328848"><ele>1073.0</ele><time>2026-04-25T13:27:06Z</time></trkpt><trkpt lat="44.60449060515077" lon="9.102458908260356"><ele>1076.2</ele><time>2026-04-25T13:27:08Z</time></trkpt><trkpt lat="44.60456172451377" lon="9.102518062234783"><ele>1079.4</ele><time>2026-04-25T13:27:09Z</time></trkpt><trkpt lat="44.604638106281996" lon="9.102587289192204"><ele>1082.6000000000001</ele><time>2026-04-25T13:27:10Z</time></trkpt><trkpt lat="44.604721133812504" lon="9.102663182577412"><ele>1085.8</ele><time>2026-04-25T13:27:11Z</time></trkpt><trkpt lat="44.604820497513614" lon="9.102733276132161"><ele>1089.0</ele><time>2026-04-25T13:27:12Z</time></trkpt><trkpt lat="44.60492828573981" lon="9.102757890399214"><ele>1089.0</ele><time>2026-04-25T13:27:13Z</time></trkpt><trkpt lat="44.605010737874245" lon="9.102777259687727"><ele>1089.0</ele><time>2026-04-25T13:27:14Z</time></trkpt><trkpt lat="44.6050995596546" lon="9.10285974268769"><ele>1089.0</ele><time>2026-04-25T13:27:16Z</time></trkpt><trkpt lat="44.60517035368411" lon="9.103029903557879"><ele>1089.0</ele><time>2026-04-25T13:27:18Z</time></trkpt><trkpt lat="44.60522606214716" lon="9.103125888187627"><ele>1089.0</ele><time>2026-04-25T13:27:19Z</time></trkpt><trkpt lat="44.605305325463945" lon="9.103209837595287"><ele>1091.5</ele><time>2026-04-25T13:27:20Z</time></trkpt><trkpt lat="44.6054136628643" lon="9.103257076749678"><ele>1094.0</ele><time>2026-04-25T13:27:21Z</time></trkpt><trkpt lat="44.60551657981043" lon="9.10331806121388"><ele>1096.5</ele><time>2026-04-25T13:27:22Z</time></trkpt><trkpt lat="44.60562284297958" lon="9.103408999720559"><ele>1099.0</ele><time>2026-04-25T13:27:23Z</time></trkpt><trkpt lat="44.60572793029353" lon="9.103497756472057"><ele>1099.0</ele><time>2026-04-25T13:27:24Z</time></trkpt><trkpt lat="44.60583299557992" lon="9.10355907259181"><ele>1099.0</ele><time>2026-04-25T13:27:25Z</time></trkpt><trkpt lat="44.60592427334379" lon="9.103632520552292"><ele>1099.0</ele><time>2026-04-25T13:27:26Z</time></trkpt><trkpt lat="44.60602475833622" lon="9.103715830231804"><ele>1099.0</ele><time>2026-04-25T13:27:27Z</time></trkpt><trkpt lat="44.60613734887449" lon="9.103810935881475"><ele>1097.25</ele><time>2026-04-25T13:27:28Z</time></trkpt><trkpt lat="44.606229510459286" lon="9.103929824597037"><ele>1095.5</ele><time>2026-04-25T13:27:29Z</time></trkpt><trkpt lat="44.60632468975485" lon="9.104017638647047"><ele>1093.75</ele><time>2026-04-25T13:27:30Z</time></trkpt><trkpt lat="44.606414799061454" lon="9.104096153551156"><ele>1092.0</ele><time>2026-04-25T13:27:31Z</time></trkpt><trkpt lat="44.60650432303793" lon="9.104174451386003"><ele>1098.0</ele><time>2026-04-25T13:27:32Z</time></trkpt><trkpt lat="44.60660803177943" lon="9.104243293976765"><ele>1104.0</ele><time>2026-04-25T13:27:33Z</time></trkpt><trkpt lat="44.606714253860524" lon="9.10427901860125"><ele>1110.0</ele><time>2026-04-25T13:27:34Z</time></trkpt><trkpt lat="44.60684538928591" lon="9.104252707084223"><ele>1116.0</ele><time>2026-04-25T13:27:35Z</time></trkpt><trkpt lat="44.606980390309836" lon="9.104263070410173"><ele>1117.8</ele><time>2026-04-25T13:27:36Z</time></trkpt><trkpt lat="44.60710769479459" lon="9.104278188039737"><ele>1119.6</ele><time>2026-04-25T13:27:37Z</time></trkpt><trkpt lat="44.607214489082544" lon="9.10429220467616"><ele>1121.4</ele><time>2026-04-25T13:27:38Z</time></trkpt><trkpt lat="44.60731445167217" lon="9.104292742203473"><ele>1123.2</ele><time>2026-04-25T13:27:39Z</time></trkpt><trkpt lat="44.60740873022523" lon="9.104267674037981"><ele>1125.0</ele><time>2026-04-25T13:27:40Z</time></trkpt><trkpt lat="44.60748309847853" lon="9.104166136434992"><ele>1125.6</ele><time>2026-04-25T13:27:41Z</time></trkpt><trkpt lat="44.607556531789236" lon="9.104073290212147"><ele>1126.2</ele><time>2026-04-25T13:27:42Z</time></trkpt><trkpt lat="44.60765557321105" lon="9.104025594855287"><ele>1126.8</ele><time>2026-04-25T13:27:43Z</time></trkpt><trkpt lat="44.607744574637294" lon="9.1039073195422"><ele>1127.4</ele><time>2026-04-25T13:27:44Z</time></trkpt><trkpt lat="44.6078296639463" lon="9.10381122421658"><ele>1128.0</ele><time>2026-04-25T13:27:45Z</time></trkpt><trkpt lat="44.60789425689681" lon="9.103753503962391"><ele>1128.0</ele><time>2026-04-25T13:27:46Z</time></trkpt><trkpt lat="44.608033718889" lon="9.103738061899223"><ele>1128.0</ele><time>2026-04-25T13:27:48Z</time></trkpt><trkpt lat="44.60813018654781" lon="9.103698569595489"><ele>1128.0</ele><time>2026-04-25T13:27:49Z</time></trkpt><trkpt lat="44.608222388715326" lon="9.103624757871174"><ele>1128.0</ele><time>2026-04-25T13:27:50Z</time></trkpt><trkpt lat="44.60829516582587" lon="9.103542881907225"><ele>1128.0</ele><time>2026-04-25T13:27:51Z</time></trkpt><trkpt lat="44.60838247393178" lon="9.10346637557698"><ele>1128.0</ele><time>2026-04-25T13:27:52Z</time></trkpt><trkpt lat="44.60847482535017" lon="9.10339744428164"><ele>1128.0</ele><time>2026-04-25T13:27:53Z</time></trkpt><trkpt lat="44.608552626397845" lon="9.103357278651833"><ele>1128.0</ele><time>2026-04-25T13:27:54Z</time></trkpt><trkpt lat="44.608621856759655" lon="9.103339810629958"><ele>1128.0</ele><time>2026-04-25T13:27:55Z</time></trkpt><trkpt lat="44.60868598410403" lon="9.103344828489828"><ele>1128.0</ele><time>2026-04-25T13:27:56Z</time></trkpt><trkpt lat="44.608766375773605" lon="9.103370482345078"><ele>1128.0</ele><time>2026-04-25T13:27:57Z</time></trkpt><trkpt lat="44.60885735711644" lon="9.103396291683117"><ele>1127.2</ele><time>2026-04-25T13:27:58Z</time></trkpt><trkpt lat="44.60894580899161" lon="9.103419119015534"><ele>1126.4</ele><time>2026-04-25T13:27:59Z</time></trkpt><trkpt lat="44.60903742537768" lon="9.10341263072103"><ele>1125.6000000000001</ele><time>2026-04-25T13:28:00Z</time></trkpt><trkpt lat="44.60913183179805" lon="9.103358348280596"><ele>1124.8</ele><time>2026-04-25T13:28:01Z</time></trkpt><trkpt lat="44.60921748637012" lon="9.10328710051797"><ele>1124.0</ele><time>2026-04-25T13:28:02Z</time></trkpt><trkpt lat="44.60929866178444" lon="9.103190132286999"><ele>1124.0</ele><time>2026-04-25T13:28:03Z</time></trkpt><trkpt lat="44.60937197822063" lon="9.103077468156167"><ele>1124.0</ele><time>2026-04-25T13:28:04Z</time></trkpt><trkpt lat="44.60942878102023" lon="9.102979268314984"><ele>1124.0</ele><time>2026-04-25T13:28:05Z</time></trkpt><trkpt lat="44.609485548169225" lon="9.102913705855546"><ele>1124.0</ele><time>2026-04-25T13:28:06Z</time></trkpt><trkpt lat="44.60954072974751" lon="9.102860448643725"><ele>1124.0</ele><time>2026-04-25T13:28:07Z</time></trkpt><trkpt lat="44.60959889568266" lon="9.10280571766413"><ele>1124.0</ele><time>2026-04-25T13:28:08Z</time></trkpt><trkpt lat="44.609664153099466" lon="9.102746574325034"><ele>1127.2</ele><time>2026-04-25T13:28:09Z</time></trkpt><trkpt lat="44.60972766134562" lon="9.102689239230143"><ele>1130.4</ele><time>2026-04-25T13:28:10Z</time></trkpt><trkpt lat="44.60982335254284" lon="9.102636937859018"><ele>1133.6</ele><time>2026-04-25T13:28:12Z</time></trkpt><trkpt lat="44.60991918034509" lon="9.102670418550813"><ele>1136.8</ele><time>2026-04-25T13:28:14Z</time></trkpt><trkpt lat="44.61001886516798" lon="9.102792577967245"><ele>1140.0</ele><time>2026-04-25T13:28:16Z</time></trkpt><trkpt lat="44.61007459862396" lon="9.102872454285007"><ele>1140.0</ele><time>2026-04-25T13:28:17Z</time></trkpt><trkpt lat="44.6101291810012" lon="9.10296822163376"><ele>1140.0</ele><time>2026-04-25T13:28:18Z</time></trkpt><trkpt lat="44.61020397140949" lon="9.103068263664943"><ele>1140.0</ele><time>2026-04-25T13:28:19Z</time></trkpt><trkpt lat="44.61025166612809" lon="9.103193593726072"><ele>1140.0</ele><time>2026-04-25T13:28:20Z</time></trkpt><trkpt lat="44.610333867317664" lon="9.103287488830524"><ele>1140.0</ele><time>2026-04-25T13:28:21Z</time></trkpt><trkpt lat="44.61043365868131" lon="9.103347821957753"><ele>1140.3333333333333</ele><time>2026-04-25T13:28:22Z</time></trkpt><trkpt lat="44.61051165831541" lon="9.103405934029055"><ele>1140.6666666666667</ele><time>2026-04-25T13:28:23Z</time></trkpt><trkpt lat="44.61058822526183" lon="9.10351191399709"><ele>1141.0</ele><time>2026-04-25T13:28:25Z</time></trkpt><trkpt lat="44.610586650827955" lon="9.103612446423659"><ele>1141.3333333333335</ele><time>2026-04-25T13:28:27Z</time></trkpt><trkpt lat="44.61056862345049" lon="9.103712132404297"><ele>1141.6666666666667</ele><time>2026-04-25T13:28:30Z</time></trkpt><trkpt lat="44.610533219185804" lon="9.103789580701289"><ele>1142.0</ele><time>2026-04-25T13:28:32Z</time></trkpt><trkpt lat="44.61047022370686" lon="9.103842609753453"><ele>1142.0</ele><time>2026-04-25T13:28:34Z</time></trkpt><trkpt lat="44.61042151052316" lon="9.103916970236455"><ele>1142.0</ele><time>2026-04-25T13:28:36Z</time></trkpt><trkpt lat="44.61036248663832" lon="9.103981523426738"><ele>1142.0</ele><time>2026-04-25T13:28:38Z</time></trkpt><trkpt lat="44.610283197906604" lon="9.104079469494472"><ele>1142.0</ele><time>2026-04-25T13:28:40Z</time></trkpt><trkpt lat="44.61023452735785" lon="9.104144750994427"><ele>1142.0</ele><time>2026-04-25T13:28:41Z</time></trkpt><trkpt lat="44.61018663072216" lon="9.104209043318626"><ele>1142.0</ele><time>2026-04-25T13:28:42Z</time></trkpt><trkpt lat="44.61011098251864" lon="9.104297914244123"><ele>1146.2</ele><time>2026-04-25T13:28:44Z</time></trkpt><trkpt lat="44.61004744651272" lon="9.104376149281155"><ele>1150.4</ele><time>2026-04-25T13:28:46Z</time></trkpt><trkpt lat="44.609996606521726" lon="9.104457022102086"><ele>1154.6</ele><time>2026-04-25T13:28:48Z</time></trkpt><trkpt lat="44.609975839354334" lon="9.104571945274996"><ele>1158.8</ele><time>2026-04-25T13:28:50Z</time></trkpt><trkpt lat="44.609993814656214" lon="9.104707702701294"><ele>1163.0</ele><time>2026-04-25T13:28:52Z</time></trkpt><trkpt lat="44.61002628778067" lon="9.104881784174477"><ele>1159.6666666666667</ele><time>2026-04-25T13:28:54Z</time></trkpt><trkpt lat="44.61005510990702" lon="9.104969788890694"><ele>1156.3333333333335</ele><time>2026-04-25T13:28:55Z</time></trkpt><trkpt lat="44.61010151242614" lon="9.10512225607177"><ele>1153.0</ele><time>2026-04-25T13:28:57Z</time></trkpt><trkpt lat="44.61015459164541" lon="9.105282921401505"><ele>1149.6666666666667</ele><time>2026-04-25T13:28:58.999Z</time></trkpt><trkpt lat="44.610174201065554" lon="9.10537013417051"><ele>1146.3333333333333</ele><time>2026-04-25T13:28:59.999Z</time></trkpt><trkpt lat="44.61019491031588" lon="9.10546087435077"><ele>1143.0</ele><time>2026-04-25T13:29:00.999Z</time></trkpt><trkpt lat="44.61019955628804" lon="9.105552209743818"><ele>1143.0</ele><time>2026-04-25T13:29:01.999Z</time></trkpt><trkpt lat="44.61021880747582" lon="9.10564175312477"><ele>1143.0</ele><time>2026-04-25T13:29:02.999Z</time></trkpt><trkpt lat="44.61024096212171" lon="9.105731694517793"><ele>1143.0</ele><time>2026-04-25T13:29:03.999Z</time></trkpt><trkpt lat="44.61026516683689" lon="9.105822480709625"><ele>1143.0</ele><time>2026-04-25T13:29:04.999Z</time></trkpt><trkpt lat="44.6102927303403" lon="9.105919265710256"><ele>1143.0</ele><time>2026-04-25T13:29:06Z</time></trkpt><trkpt lat="44.610332105806705" lon="9.106016691252158"><ele>1143.0</ele><time>2026-04-25T13:29:07Z</time></trkpt><trkpt lat="44.61036069286311" lon="9.10612646702092"><ele>1143.0</ele><time>2026-04-25T13:29:08Z</time></trkpt><trkpt lat="44.61038743478037" lon="9.106233126809293"><ele>1140.6666666666667</ele><time>2026-04-25T13:29:09Z</time></trkpt><trkpt lat="44.610409524133274" lon="9.106353589942803"><ele>1138.3333333333333</ele><time>2026-04-25T13:29:10Z</time></trkpt><trkpt lat="44.610428619130154" lon="9.106463275262703"><ele>1136.0</ele><time>2026-04-25T13:29:11Z</time></trkpt><trkpt lat="44.61045454138311" lon="9.106580449656816"><ele>1133.6666666666665</ele><time>2026-04-25T13:29:12Z</time></trkpt><trkpt lat="44.610460750165494" lon="9.106704919209829"><ele>1131.3333333333333</ele><time>2026-04-25T13:29:13Z</time></trkpt><trkpt lat="44.61049487784922" lon="9.10681586363601"><ele>1129.0</ele><time>2026-04-25T13:29:14Z</time></trkpt><trkpt lat="44.61050584925017" lon="9.106925114964104"><ele>1129.0</ele><time>2026-04-25T13:29:15Z</time></trkpt><trkpt lat="44.61052361878557" lon="9.107028660311064"><ele>1129.0</ele><time>2026-04-25T13:29:16Z</time></trkpt><trkpt lat="44.610537297769376" lon="9.107131124092623"><ele>1129.0</ele><time>2026-04-25T13:29:17Z</time></trkpt><trkpt lat="44.61055151250781" lon="9.107227167845178"><ele>1129.0</ele><time>2026-04-25T13:29:18Z</time></trkpt><trkpt lat="44.610568987299715" lon="9.10739954761918"><ele>1129.0</ele><time>2026-04-25T13:29:20Z</time></trkpt><trkpt lat="44.610571607313375" lon="9.107491065671136"><ele>1129.0</ele><time>2026-04-25T13:29:21Z</time></trkpt><trkpt lat="44.61056617225128" lon="9.107587255881779"><ele>1128.5714285714284</ele><time>2026-04-25T13:29:22Z</time></trkpt><trkpt lat="44.61057169851812" lon="9.107687581106353"><ele>1128.142857142857</ele><time>2026-04-25T13:29:23Z</time></trkpt><trkpt lat="44.610588089173675" lon="9.107786942558207"><ele>1127.7142857142858</ele><time>2026-04-25T13:29:24Z</time></trkpt><trkpt lat="44.61060503592697" lon="9.107887159340791"><ele>1127.2857142857142</ele><time>2026-04-25T13:29:25Z</time></trkpt><trkpt lat="44.61062537780779" lon="9.107983663299871"><ele>1126.857142857143</ele><time>2026-04-25T13:29:26Z</time></trkpt><trkpt lat="44.61063637185223" lon="9.108078454359497"><ele>1126.4285714285713</ele><time>2026-04-25T13:29:27Z</time></trkpt><trkpt lat="44.61067585172098" lon="9.108163433692276"><ele>1126.0</ele><time>2026-04-25T13:29:28Z</time></trkpt><trkpt lat="44.61073457453902" lon="9.108230132339878"><ele>1125.8333333333333</ele><time>2026-04-25T13:29:29Z</time></trkpt><trkpt lat="44.61079069179146" lon="9.108306250204302"><ele>1125.6666666666665</ele><time>2026-04-25T13:29:30Z</time></trkpt><trkpt lat="44.610849056833594" lon="9.108392511770992"><ele>1125.5</ele><time>2026-04-25T13:29:31Z</time></trkpt><trkpt lat="44.61089966153983" lon="9.108480567000107"><ele>1125.3333333333333</ele><time>2026-04-25T13:29:32Z</time></trkpt><trkpt lat="44.61096434510764" lon="9.108565008951054"><ele>1125.1666666666667</ele><time>2026-04-25T13:29:33Z</time></trkpt><trkpt lat="44.611036778725655" lon="9.108630631533057"><ele>1125.0</ele><time>2026-04-25T13:29:34Z</time></trkpt><trkpt lat="44.61110984796963" lon="9.108691397177772"><ele>1123.1666666666667</ele><time>2026-04-25T13:29:35Z</time></trkpt><trkpt lat="44.61118112272383" lon="9.108752185115586"><ele>1121.3333333333333</ele><time>2026-04-25T13:29:36Z</time></trkpt><trkpt lat="44.61124928623535" lon="9.108812500468314"><ele>1119.5</ele><time>2026-04-25T13:29:37Z</time></trkpt><trkpt lat="44.61130472138058" lon="9.108868822066771"><ele>1117.6666666666665</ele><time>2026-04-25T13:29:38Z</time></trkpt><trkpt lat="44.61135848143879" lon="9.108982637036812"><ele>1115.8333333333333</ele><time>2026-04-25T13:29:40Z</time></trkpt><trkpt lat="44.611343378202974" lon="9.109075779005227"><ele>1114.0</ele><time>2026-04-25T13:29:41Z</time></trkpt><trkpt lat="44.61131911705789" lon="9.109164998881033"><ele>1114.0</ele><time>2026-04-25T13:29:42Z</time></trkpt><trkpt lat="44.61130995142028" lon="9.10926167233719"><ele>1114.0</ele><time>2026-04-25T13:29:43Z</time></trkpt><trkpt lat="44.61131311516131" lon="9.109360435294647"><ele>1114.0</ele><time>2026-04-25T13:29:44Z</time></trkpt><trkpt lat="44.61131435808826" lon="9.109455275584667"><ele>1114.0</ele><time>2026-04-25T13:29:45Z</time></trkpt><trkpt lat="44.611293451622856" lon="9.10954675148917"><ele>1114.0</ele><time>2026-04-25T13:29:46Z</time></trkpt><trkpt lat="44.6112553373309" lon="9.109631756981099"><ele>1114.0</ele><time>2026-04-25T13:29:47Z</time></trkpt><trkpt lat="44.61123135654859" lon="9.109720920405941"><ele>1114.0</ele><time>2026-04-25T13:29:48Z</time></trkpt><trkpt lat="44.6112355751018" lon="9.10981174421541"><ele>1114.0</ele><time>2026-04-25T13:29:49Z</time></trkpt><trkpt lat="44.61125024664276" lon="9.109901068943987"><ele>1114.0</ele><time>2026-04-25T13:29:50Z</time></trkpt><trkpt lat="44.61130004200189" lon="9.110069512722037"><ele>1114.0</ele><time>2026-04-25T13:29:52Z</time></trkpt><trkpt lat="44.61135228793053" lon="9.11012530399119"><ele>1114.0</ele><time>2026-04-25T13:29:53Z</time></trkpt><trkpt lat="44.61144229051313" lon="9.110247486238459"><ele>1114.0</ele><time>2026-04-25T13:29:55Z</time></trkpt><trkpt lat="44.61149507491042" lon="9.110314748052053"><ele>1114.142857142857</ele><time>2026-04-25T13:29:56Z</time></trkpt><trkpt lat="44.61155155570068" lon="9.11038162368757"><ele>1114.2857142857142</ele><time>2026-04-25T13:29:57Z</time></trkpt><trkpt lat="44.611612955610134" lon="9.110440284683095"><ele>1114.4285714285713</ele><time>2026-04-25T13:29:58Z</time></trkpt><trkpt lat="44.61167754274049" lon="9.110483649174887"><ele>1114.5714285714284</ele><time>2026-04-25T13:29:59Z</time></trkpt><trkpt lat="44.611738752331526" lon="9.110532411347997"><ele>1114.7142857142856</ele><time>2026-04-25T13:30:00Z</time></trkpt><trkpt lat="44.61180077120881" lon="9.110580013389134"><ele>1114.857142857143</ele><time>2026-04-25T13:30:01Z</time></trkpt><trkpt lat="44.61184541335678" lon="9.110664716356524"><ele>1115.0</ele><time>2026-04-25T13:30:02Z</time></trkpt><trkpt lat="44.61191043205845" lon="9.110705094096106"><ele>1115.0</ele><time>2026-04-25T13:30:03Z</time></trkpt><trkpt lat="44.611972507200996" lon="9.110737656368126"><ele>1115.0</ele><time>2026-04-25T13:30:04Z</time></trkpt><trkpt lat="44.612043191121785" lon="9.110760962051815"><ele>1115.0</ele><time>2026-04-25T13:30:05Z</time></trkpt><trkpt lat="44.61210889698068" lon="9.11077835839799"><ele>1115.0</ele><time>2026-04-25T13:30:06Z</time></trkpt><trkpt lat="44.61217366111926" lon="9.110796499198441"><ele>1115.0</ele><time>2026-04-25T13:30:07Z</time></trkpt><trkpt lat="44.61223693111525" lon="9.11082385173346"><ele>1115.0</ele><time>2026-04-25T13:30:08Z</time></trkpt><trkpt lat="44.612358306544934" lon="9.110906575899204"><ele>1113.8333333333335</ele><time>2026-04-25T13:30:10Z</time></trkpt><trkpt lat="44.61242573697396" lon="9.110964838110192"><ele>1112.6666666666667</ele><time>2026-04-25T13:30:11Z</time></trkpt><trkpt lat="44.61249021078759" lon="9.111031000784967"><ele>1111.5</ele><time>2026-04-25T13:30:12Z</time></trkpt><trkpt lat="44.61256696082023" lon="9.111095841476335"><ele>1110.3333333333333</ele><time>2026-04-25T13:30:13Z</time></trkpt><trkpt lat="44.612658399301026" lon="9.111150173714597"><ele>1109.1666666666665</ele><time>2026-04-25T13:30:14Z</time></trkpt><trkpt lat="44.612752166897806" lon="9.111189905053063"><ele>1108.0</ele><time>2026-04-25T13:30:15Z</time></trkpt><trkpt lat="44.61284059571988" lon="9.111226133153307"><ele>1104.1666666666665</ele><time>2026-04-25T13:30:16Z</time></trkpt><trkpt lat="44.61292751672928" lon="9.111261743448296"><ele>1100.3333333333333</ele><time>2026-04-25T13:30:17Z</time></trkpt><trkpt lat="44.61301141329975" lon="9.111298931797117"><ele>1096.5</ele><time>2026-04-25T13:30:18Z</time></trkpt><trkpt lat="44.613093767263805" lon="9.111341481922947"><ele>1092.6666666666667</ele><time>2026-04-25T13:30:19Z</time></trkpt><trkpt lat="44.61317091045683" lon="9.11139292478761"><ele>1088.8333333333335</ele><time>2026-04-25T13:30:20Z</time></trkpt><trkpt lat="44.613243637754586" lon="9.11145081823645"><ele>1085.0</ele><time>2026-04-25T13:30:21Z</time></trkpt><trkpt lat="44.61331102796321" lon="9.11151224735623"><ele>1085.0</ele><time>2026-04-25T13:30:22Z</time></trkpt><trkpt lat="44.613373884121174" lon="9.111570184080977"><ele>1085.0</ele><time>2026-04-25T13:30:23Z</time></trkpt><trkpt lat="44.61343852464397" lon="9.111628709750835"><ele>1085.0</ele><time>2026-04-25T13:30:24Z</time></trkpt><trkpt lat="44.61350150994729" lon="9.111680624833632"><ele>1085.0</ele><time>2026-04-25T13:30:25Z</time></trkpt><trkpt lat="44.613565081050616" lon="9.111733334032742"><ele>1085.0</ele><time>2026-04-25T13:30:26Z</time></trkpt><trkpt lat="44.613627164427996" lon="9.111787003820417"><ele>1085.0</ele><time>2026-04-25T13:30:27Z</time></trkpt><trkpt lat="44.613688181611494" lon="9.111844568990971"><ele>1085.0</ele><time>2026-04-25T13:30:28Z</time></trkpt><trkpt lat="44.61375064572683" lon="9.111903498929452"><ele>1083.3333333333335</ele><time>2026-04-25T13:30:29Z</time></trkpt><trkpt lat="44.6138206759866" lon="9.111959676398769"><ele>1081.6666666666667</ele><time>2026-04-25T13:30:30Z</time></trkpt><trkpt lat="44.61389109978458" lon="9.11201178670295"><ele>1080.0</ele><time>2026-04-25T13:30:31Z</time></trkpt><trkpt lat="44.61396179717832" lon="9.112065919396406"><ele>1078.3333333333333</ele><time>2026-04-25T13:30:32Z</time></trkpt><trkpt lat="44.61403797245572" lon="9.11212640992701"><ele>1076.6666666666665</ele><time>2026-04-25T13:30:33Z</time></trkpt><trkpt lat="44.61412664939983" lon="9.112181074856172"><ele>1075.0</ele><time>2026-04-25T13:30:34Z</time></trkpt><trkpt lat="44.614221813624305" lon="9.112226610847623"><ele>1075.0</ele><time>2026-04-25T13:30:35Z</time></trkpt><trkpt lat="44.61431251490365" lon="9.112261252730054"><ele>1075.0</ele><time>2026-04-25T13:30:36Z</time></trkpt><trkpt lat="44.61439904290856" lon="9.11229519156025"><ele>1075.0</ele><time>2026-04-25T13:30:37Z</time></trkpt><trkpt lat="44.614483198920475" lon="9.112333408997726"><ele>1075.0</ele><time>2026-04-25T13:30:38Z</time></trkpt><trkpt lat="44.614562350128104" lon="9.112379470061605"><ele>1075.0</ele><time>2026-04-25T13:30:39Z</time></trkpt><trkpt lat="44.61463533819543" lon="9.112434666232833"><ele>1075.0</ele><time>2026-04-25T13:30:40Z</time></trkpt><trkpt lat="44.614705864397976" lon="9.112495228213028"><ele>1074.5</ele><time>2026-04-25T13:30:41Z</time></trkpt><trkpt lat="44.61476679692304" lon="9.112568307263777"><ele>1074.0</ele><time>2026-04-25T13:30:42Z</time></trkpt><trkpt lat="44.614823791900704" lon="9.112645781998223"><ele>1073.5</ele><time>2026-04-25T13:30:43Z</time></trkpt><trkpt lat="44.61488055230173" lon="9.112730922522594"><ele>1073.0</ele><time>2026-04-25T13:30:44Z</time></trkpt><trkpt lat="44.61495561779751" lon="9.112820149689691"><ele>1072.5</ele><time>2026-04-25T13:30:45Z</time></trkpt><trkpt lat="44.61502387864442" lon="9.112888297718483"><ele>1072.0</ele><time>2026-04-25T13:30:46Z</time></trkpt><trkpt lat="44.61508124002183" lon="9.112952336597617"><ele>1072.0</ele><time>2026-04-25T13:30:47Z</time></trkpt><trkpt lat="44.615130831306374" lon="9.113029313957208"><ele>1072.0</ele><time>2026-04-25T13:30:48Z</time></trkpt><trkpt lat="44.615167497605036" lon="9.11311596635781"><ele>1072.0</ele><time>2026-04-25T13:30:49Z</time></trkpt><trkpt lat="44.61520773407648" lon="9.113279279572922"><ele>1072.0</ele><time>2026-04-25T13:30:51Z</time></trkpt><trkpt lat="44.61525633556733" lon="9.113353145207544"><ele>1072.0</ele><time>2026-04-25T13:30:52Z</time></trkpt><trkpt lat="44.615304451051" lon="9.113423109829451"><ele>1072.0</ele><time>2026-04-25T13:30:53Z</time></trkpt><trkpt lat="44.615351712102886" lon="9.113495793743713"><ele>1071.5714285714287</ele><time>2026-04-25T13:30:54Z</time></trkpt><trkpt lat="44.615424927685666" lon="9.113521375876882"><ele>1071.142857142857</ele><time>2026-04-25T13:30:55Z</time></trkpt><trkpt lat="44.61549579716476" lon="9.11354497612112"><ele>1070.7142857142858</ele><time>2026-04-25T13:30:56Z</time></trkpt><trkpt lat="44.615561458571456" lon="9.113564255505432"><ele>1070.2857142857142</ele><time>2026-04-25T13:30:57Z</time></trkpt><trkpt lat="44.61563088303643" lon="9.113581382489215"><ele>1069.857142857143</ele><time>2026-04-25T13:30:58Z</time></trkpt><trkpt lat="44.61570134006739" lon="9.113596464169586"><ele>1069.4285714285716</ele><time>2026-04-25T13:30:59Z</time></trkpt><trkpt lat="44.61578111081908" lon="9.113600898721394"><ele>1069.0</ele><time>2026-04-25T13:31:00Z</time></trkpt><trkpt lat="44.61587490507469" lon="9.113564473947312"><ele>1069.0</ele><time>2026-04-25T13:31:01Z</time></trkpt><trkpt lat="44.615969110991834" lon="9.113524805545456"><ele>1069.0</ele><time>2026-04-25T13:31:02Z</time></trkpt><trkpt lat="44.616055205078275" lon="9.113494329088049"><ele>1069.0</ele><time>2026-04-25T13:31:03Z</time></trkpt><trkpt lat="44.61613203138115" lon="9.113482418542533"><ele>1069.0</ele><time>2026-04-25T13:31:03.999Z</time></trkpt><trkpt lat="44.61620182644872" lon="9.113488924184079"><ele>1069.0</ele><time>2026-04-25T13:31:04.999Z</time></trkpt><trkpt lat="44.61627992921983" lon="9.113506794963092"><ele>1069.0</ele><time>2026-04-25T13:31:05.999Z</time></trkpt><trkpt lat="44.616369754068636" lon="9.113533029340154"><ele>1067.0</ele><time>2026-04-25T13:31:06.999Z</time></trkpt><trkpt lat="44.61646840889716" lon="9.113542920928559"><ele>1065.0</ele><time>2026-04-25T13:31:07.999Z</time></trkpt><trkpt lat="44.61656357380467" lon="9.1135401853779"><ele>1063.0</ele><time>2026-04-25T13:31:08.999Z</time></trkpt><trkpt lat="44.61665191906191" lon="9.113533110214503"><ele>1061.0</ele><time>2026-04-25T13:31:09.999Z</time></trkpt><trkpt lat="44.616727612091005" lon="9.113541085311756"><ele>1059.0</ele><time>2026-04-25T13:31:10.999Z</time></trkpt><trkpt lat="44.616801894882755" lon="9.113570483762135"><ele>1057.0</ele><time>2026-04-25T13:31:11.999Z</time></trkpt><trkpt lat="44.61688193552442" lon="9.113605899584265"><ele>1057.0</ele><time>2026-04-25T13:31:12.999Z</time></trkpt><trkpt lat="44.61695497269366" lon="9.113651363927206"><ele>1057.0</ele><time>2026-04-25T13:31:13.999Z</time></trkpt><trkpt lat="44.61700901173402" lon="9.113715662923578"><ele>1057.0</ele><time>2026-04-25T13:31:14.999Z</time></trkpt><trkpt lat="44.617081815400844" lon="9.113796248379023"><ele>1057.0</ele><time>2026-04-25T13:31:15.999Z</time></trkpt><trkpt lat="44.617158065628544" lon="9.113873138822905"><ele>1057.0</ele><time>2026-04-25T13:31:16.999Z</time></trkpt><trkpt lat="44.61724167935897" lon="9.113934730749822"><ele>1057.0</ele><time>2026-04-25T13:31:17.999Z</time></trkpt><trkpt lat="44.61732535218462" lon="9.113975241279846"><ele>1054.2</ele><time>2026-04-25T13:31:18.999Z</time></trkpt><trkpt lat="44.61742084704054" lon="9.113983904073653"><ele>1051.4</ele><time>2026-04-25T13:31:19.999Z</time></trkpt><trkpt lat="44.617516153937665" lon="9.113957174965483"><ele>1048.6</ele><time>2026-04-25T13:31:20.999Z</time></trkpt><trkpt lat="44.61760599966116" lon="9.1139377437956"><ele>1045.8</ele><time>2026-04-25T13:31:21.999Z</time></trkpt><trkpt lat="44.61769852175731" lon="9.113923800393735"><ele>1043.0</ele><time>2026-04-25T13:31:22.999Z</time></trkpt><trkpt lat="44.6177852272388" lon="9.113914088291333"><ele>1043.3333333333335</ele><time>2026-04-25T13:31:23.999Z</time></trkpt><trkpt lat="44.617858836591346" lon="9.11391572101441"><ele>1043.6666666666667</ele><time>2026-04-25T13:31:24.999Z</time></trkpt><trkpt lat="44.61798461269227" lon="9.113951793876682"><ele>1044.0</ele><time>2026-04-25T13:31:26.999Z</time></trkpt><trkpt lat="44.6180462620156" lon="9.113992023679575"><ele>1044.3333333333333</ele><time>2026-04-25T13:31:27.999Z</time></trkpt><trkpt lat="44.61810832942792" lon="9.114038248963388"><ele>1044.6666666666665</ele><time>2026-04-25T13:31:28.999Z</time></trkpt><trkpt lat="44.61816814853106" lon="9.114089519746315"><ele>1045.0</ele><time>2026-04-25T13:31:29.999Z</time></trkpt><trkpt lat="44.61821844874675" lon="9.114148675724024"><ele>1045.0</ele><time>2026-04-25T13:31:30.999Z</time></trkpt><trkpt lat="44.618268312969704" lon="9.114216426951337"><ele>1045.0</ele><time>2026-04-25T13:31:32Z</time></trkpt><trkpt lat="44.61832248697946" lon="9.114288868923552"><ele>1045.0</ele><time>2026-04-25T13:31:33Z</time></trkpt><trkpt lat="44.61838909463759" lon="9.114343424680444"><ele>1045.0</ele><time>2026-04-25T13:31:34Z</time></trkpt><trkpt lat="44.61844959149634" lon="9.11439365377446"><ele>1045.0</ele><time>2026-04-25T13:31:35Z</time></trkpt><trkpt lat="44.618556463905705" lon="9.114491520670231"><ele>1045.0</ele><time>2026-04-25T13:31:37Z</time></trkpt><trkpt lat="44.61858282253016" lon="9.114581098171408"><ele>1045.0</ele><time>2026-04-25T13:31:38Z</time></trkpt><trkpt lat="44.61859250052875" lon="9.114681080350492"><ele>1045.0</ele><time>2026-04-25T13:31:39Z</time></trkpt><trkpt lat="44.61859827263069" lon="9.114779397395974"><ele>1045.0</ele><time>2026-04-25T13:31:40Z</time></trkpt><trkpt lat="44.61860649905436" lon="9.114873584823481"><ele>1045.0</ele><time>2026-04-25T13:31:41Z</time></trkpt><trkpt lat="44.61864948411075" lon="9.11502780424554"><ele>1045.0</ele><time>2026-04-25T13:31:43Z</time></trkpt><trkpt lat="44.61872808208308" lon="9.11514842783813"><ele>1045.0</ele><time>2026-04-25T13:31:45Z</time></trkpt><trkpt lat="44.61879145649113" lon="9.115183922978398"><ele>1042.8333333333333</ele><time>2026-04-25T13:31:46Z</time></trkpt><trkpt lat="44.618860266539215" lon="9.115229242648661"><ele>1040.6666666666665</ele><time>2026-04-25T13:31:47Z</time></trkpt><trkpt lat="44.61892194032218" lon="9.115289221828473"><ele>1038.5</ele><time>2026-04-25T13:31:48Z</time></trkpt><trkpt lat="44.61899020508336" lon="9.115363126089244"><ele>1036.3333333333333</ele><time>2026-04-25T13:31:49Z</time></trkpt><trkpt lat="44.619057503348415" lon="9.115424553509387"><ele>1034.1666666666667</ele><time>2026-04-25T13:31:50Z</time></trkpt><trkpt lat="44.619134900486316" lon="9.115483006424206"><ele>1032.0</ele><time>2026-04-25T13:31:51Z</time></trkpt><trkpt lat="44.61920792926256" lon="9.115533770420615"><ele>1032.0</ele><time>2026-04-25T13:31:52Z</time></trkpt><trkpt lat="44.619273013712586" lon="9.11558756941337"><ele>1032.0</ele><time>2026-04-25T13:31:53Z</time></trkpt><trkpt lat="44.61933787671237" lon="9.115636525531086"><ele>1032.0</ele><time>2026-04-25T13:31:54Z</time></trkpt><trkpt lat="44.61947223705499" lon="9.115667204164659"><ele>1032.0</ele><time>2026-04-25T13:31:56Z</time></trkpt><trkpt lat="44.619551327784656" lon="9.115641518794169"><ele>1032.0</ele><time>2026-04-25T13:31:57Z</time></trkpt><trkpt lat="44.619630981530996" lon="9.115624420842593"><ele>1032.0</ele><time>2026-04-25T13:31:58Z</time></trkpt><trkpt lat="44.61970067278182" lon="9.115615753153412"><ele>1031.0</ele><time>2026-04-25T13:31:59Z</time></trkpt><trkpt lat="44.619807109769766" lon="9.115632307167324"><ele>1030.0</ele><time>2026-04-25T13:32:01Z</time></trkpt><trkpt lat="44.61988987637943" lon="9.115723376775968"><ele>1029.0</ele><time>2026-04-25T13:32:03Z</time></trkpt><trkpt lat="44.61992762414757" lon="9.115798844512259"><ele>1028.0</ele><time>2026-04-25T13:32:04Z</time></trkpt><trkpt lat="44.619970036398996" lon="9.115882082918572"><ele>1027.0</ele><time>2026-04-25T13:32:05Z</time></trkpt><trkpt lat="44.620011360596436" lon="9.115967651677124"><ele>1026.0</ele><time>2026-04-25T13:32:06Z</time></trkpt><trkpt lat="44.620063276011514" lon="9.116033807756862"><ele>1026.0</ele><time>2026-04-25T13:32:07Z</time></trkpt><trkpt lat="44.620091628042296" lon="9.116140748403959"><ele>1026.0</ele><time>2026-04-25T13:32:08Z</time></trkpt><trkpt lat="44.62013662305118" lon="9.116214625872686"><ele>1026.0</ele><time>2026-04-25T13:32:09Z</time></trkpt><trkpt lat="44.62021194095796" lon="9.116278303189553"><ele>1026.0</ele><time>2026-04-25T13:32:10Z</time></trkpt><trkpt lat="44.62030385927731" lon="9.116337463848778"><ele>1026.0</ele><time>2026-04-25T13:32:11Z</time></trkpt><trkpt lat="44.62038996822189" lon="9.116391349166715"><ele>1026.0</ele><time>2026-04-25T13:32:12Z</time></trkpt><trkpt lat="44.620473812114724" lon="9.11645001689437"><ele>1025.5</ele><time>2026-04-25T13:32:13Z</time></trkpt><trkpt lat="44.62055069882061" lon="9.116512196006042"><ele>1025.0</ele><time>2026-04-25T13:32:14Z</time></trkpt><trkpt lat="44.620621251269284" lon="9.116574743305096"><ele>1024.5</ele><time>2026-04-25T13:32:15Z</time></trkpt><trkpt lat="44.6206971509171" lon="9.11664210986925"><ele>1024.0</ele><time>2026-04-25T13:32:16Z</time></trkpt><trkpt lat="44.62076293016418" lon="9.116695359951633"><ele>1023.5</ele><time>2026-04-25T13:32:17Z</time></trkpt><trkpt lat="44.62086127796314" lon="9.116755090610344"><ele>1023.0</ele><time>2026-04-25T13:32:19Z</time></trkpt><trkpt lat="44.62096038755508" lon="9.116796466551097"><ele>1023.0</ele><time>2026-04-25T13:32:21Z</time></trkpt><trkpt lat="44.62107841741067" lon="9.116809906183656"><ele>1023.0</ele><time>2026-04-25T13:32:23Z</time></trkpt><trkpt lat="44.6211667599652" lon="9.116804019321664"><ele>1023.0</ele><time>2026-04-25T13:32:25Z</time></trkpt><trkpt lat="44.621269089072456" lon="9.116786193087444"><ele>1023.0</ele><time>2026-04-25T13:32:27Z</time></trkpt><trkpt lat="44.621366474576924" lon="9.116765993700259"><ele>1023.0</ele><time>2026-04-25T13:32:29Z</time></trkpt><trkpt lat="44.621455013814426" lon="9.116803734916044"><ele>1020.4</ele><time>2026-04-25T13:32:31Z</time></trkpt><trkpt lat="44.62155145374902" lon="9.116889565932397"><ele>1017.8</ele><time>2026-04-25T13:32:33Z</time></trkpt><trkpt lat="44.621655730768744" lon="9.116963266502596"><ele>1015.2</ele><time>2026-04-25T13:32:35Z</time></trkpt><trkpt lat="44.621752663811066" lon="9.116865535015062"><ele>1012.6</ele><time>2026-04-25T13:32:37Z</time></trkpt><trkpt lat="44.62172561461756" lon="9.116749287501209"><ele>1010.0</ele><time>2026-04-25T13:32:39Z</time></trkpt><trkpt lat="44.62166604538006" lon="9.116704369034112"><ele>1010.0</ele><time>2026-04-25T13:32:47Z</time></trkpt><trkpt lat="44.62161632112133" lon="9.116629593372222"><ele>1010.0</ele><time>2026-04-25T13:32:49Z</time></trkpt><trkpt lat="44.621545120219444" lon="9.116497926891023"><ele>1010.0</ele><time>2026-04-25T13:32:51Z</time></trkpt><trkpt lat="44.6214604399955" lon="9.116405280669804"><ele>1010.0</ele><time>2026-04-25T13:32:53Z</time></trkpt><trkpt lat="44.62136485521088" lon="9.116372913857196"><ele>1010.0</ele><time>2026-04-25T13:32:55Z</time></trkpt><trkpt lat="44.62130126473347" lon="9.116329031793214"><ele>1009.6666666666667</ele><time>2026-04-25T13:32:56Z</time></trkpt><trkpt lat="44.62124734843777" lon="9.116263385309118"><ele>1009.3333333333334</ele><time>2026-04-25T13:32:57Z</time></trkpt><trkpt lat="44.62120151369967" lon="9.116177881467555"><ele>1009.0</ele><time>2026-04-25T13:32:58Z</time></trkpt><trkpt lat="44.621150402445885" lon="9.116024049403988"><ele>1008.6666666666667</ele><time>2026-04-25T13:33:00Z</time></trkpt><trkpt lat="44.621073230223594" lon="9.115908254794194"><ele>1008.3333333333334</ele><time>2026-04-25T13:33:02Z</time></trkpt><trkpt lat="44.62102463864572" lon="9.115848417481894"><ele>1008.0</ele><time>2026-04-25T13:33:03Z</time></trkpt><trkpt lat="44.62092103120633" lon="9.115736196137114"><ele>1005.3333333333334</ele><time>2026-04-25T13:33:05Z</time></trkpt><trkpt lat="44.62086303881708" lon="9.115674319274751"><ele>1002.6666666666667</ele><time>2026-04-25T13:33:06Z</time></trkpt><trkpt lat="44.62080667908641" lon="9.11560604670381"><ele>1000.0</ele><time>2026-04-25T13:33:07Z</time></trkpt><trkpt lat="44.62075329933485" lon="9.115534620769324"><ele>997.3333333333334</ele><time>2026-04-25T13:33:08Z</time></trkpt><trkpt lat="44.62070189826298" lon="9.11546795492091"><ele>994.6666666666667</ele><time>2026-04-25T13:33:09Z</time></trkpt><trkpt lat="44.620607144269144" lon="9.115348554359695"><ele>992.0</ele><time>2026-04-25T13:33:10.999Z</time></trkpt><trkpt lat="44.6205400612224" lon="9.115224656570724"><ele>992.0000000000001</ele><time>2026-04-25T13:33:12.999Z</time></trkpt><trkpt lat="44.620590464793786" lon="9.115123767093117"><ele>992.0</ele><time>2026-04-25T13:33:14.999Z</time></trkpt><trkpt lat="44.62064484111527" lon="9.115169762719189"><ele>992.0</ele><time>2026-04-25T13:33:15.999Z</time></trkpt><trkpt lat="44.62070821540531" lon="9.11526875542236"><ele>992.0</ele><time>2026-04-25T13:33:17.999Z</time></trkpt><trkpt lat="44.62076244778219" lon="9.115334037871538"><ele>992.0000000000001</ele><time>2026-04-25T13:33:18.999Z</time></trkpt><trkpt lat="44.620820787544574" lon="9.115392441336372"><ele>992.0</ele><time>2026-04-25T13:33:19.999Z</time></trkpt><trkpt lat="44.62090061878648" lon="9.115438434309743"><ele>992.0000000000001</ele><time>2026-04-25T13:33:20.999Z</time></trkpt><trkpt lat="44.62099086756479" lon="9.115458908436066"><ele>992.0</ele><time>2026-04-25T13:33:21.999Z</time></trkpt><trkpt lat="44.621077997054925" lon="9.115462292318634"><ele>992.0</ele><time>2026-04-25T13:33:22.999Z</time></trkpt><trkpt lat="44.6211565908907" lon="9.115455839899944"><ele>992.0</ele><time>2026-04-25T13:33:23.999Z</time></trkpt><trkpt lat="44.62123404635355" lon="9.115435379922186"><ele>992.0000000000001</ele><time>2026-04-25T13:33:24.999Z</time></trkpt><trkpt lat="44.62130867525791" lon="9.115441891611"><ele>992.0</ele><time>2026-04-25T13:33:25.999Z</time></trkpt><trkpt lat="44.62138648914742" lon="9.115470515977057"><ele>990.3333333333334</ele><time>2026-04-25T13:33:26.999Z</time></trkpt><trkpt lat="44.62146651949407" lon="9.115498432526442"><ele>988.6666666666667</ele><time>2026-04-25T13:33:27.999Z</time></trkpt><trkpt lat="44.621546080226416" lon="9.115503612389084"><ele>987.0</ele><time>2026-04-25T13:33:28.999Z</time></trkpt><trkpt lat="44.62162145669911" lon="9.1154807868039"><ele>985.3333333333333</ele><time>2026-04-25T13:33:29.999Z</time></trkpt><trkpt lat="44.6216888296107" lon="9.115443931680726"><ele>983.6666666666666</ele><time>2026-04-25T13:33:30.999Z</time></trkpt><trkpt lat="44.62176591422254" lon="9.115416233482815"><ele>982.0</ele><time>2026-04-25T13:33:31.999Z</time></trkpt><trkpt lat="44.6218488892408" lon="9.115387453260766"><ele>982.0</ele><time>2026-04-25T13:33:32.999Z</time></trkpt><trkpt lat="44.62193996465368" lon="9.115368097656974"><ele>982.0</ele><time>2026-04-25T13:33:33.999Z</time></trkpt><trkpt lat="44.62202517242846" lon="9.11535796631357"><ele>982.0</ele><time>2026-04-25T13:33:34.999Z</time></trkpt><trkpt lat="44.622102291281486" lon="9.1153552973414"><ele>982.0</ele><time>2026-04-25T13:33:35.999Z</time></trkpt><trkpt lat="44.62217020022591" lon="9.11535931562623"><ele>982.0</ele><time>2026-04-25T13:33:36.999Z</time></trkpt><trkpt lat="44.62229887372574" lon="9.115415564346115"><ele>980.8333333333333</ele><time>2026-04-25T13:33:39Z</time></trkpt><trkpt lat="44.62236624381722" lon="9.115476074935376"><ele>979.6666666666666</ele><time>2026-04-25T13:33:40Z</time></trkpt><trkpt lat="44.62245392614024" lon="9.115521021685579"><ele>978.5</ele><time>2026-04-25T13:33:41Z</time></trkpt><trkpt lat="44.622546532410816" lon="9.115539439336251"><ele>977.3333333333333</ele><time>2026-04-25T13:33:42Z</time></trkpt><trkpt lat="44.622631961977234" lon="9.115553022116957"><ele>976.1666666666666</ele><time>2026-04-25T13:33:43Z</time></trkpt><trkpt lat="44.622723603152345" lon="9.115547159512458"><ele>975.0</ele><time>2026-04-25T13:33:44Z</time></trkpt><trkpt lat="44.622800651880034" lon="9.11552676495842"><ele>975.8333333333334</ele><time>2026-04-25T13:33:45Z</time></trkpt><trkpt lat="44.62287571281699" lon="9.115469784616375"><ele>976.6666666666667</ele><time>2026-04-25T13:33:46Z</time></trkpt><trkpt lat="44.62294581749279" lon="9.115437860983194"><ele>977.5</ele><time>2026-04-25T13:33:47Z</time></trkpt><trkpt lat="44.623010296687234" lon="9.115489958010789"><ele>978.3333333333334</ele><time>2026-04-25T13:33:49Z</time></trkpt><trkpt lat="44.623067250603015" lon="9.115582803368566"><ele>979.1666666666667</ele><time>2026-04-25T13:33:51Z</time></trkpt><trkpt lat="44.623102865761275" lon="9.115665175935534"><ele>980.0</ele><time>2026-04-25T13:33:52Z</time></trkpt><trkpt lat="44.623139667552856" lon="9.115776969771952"><ele>980.0</ele><time>2026-04-25T13:33:53Z</time></trkpt><trkpt lat="44.62317462535733" lon="9.115877880409617"><ele>980.0</ele><time>2026-04-25T13:33:54Z</time></trkpt><trkpt lat="44.623214423614094" lon="9.115962507576125"><ele>980.0</ele><time>2026-04-25T13:33:55Z</time></trkpt><trkpt lat="44.62331323548975" lon="9.11604176943238"><ele>980.0</ele><time>2026-04-25T13:33:57Z</time></trkpt><trkpt lat="44.62341336233583" lon="9.116000332720974"><ele>980.0</ele><time>2026-04-25T13:33:59Z</time></trkpt><trkpt lat="44.6234968887157" lon="9.115867318990116"><ele>980.0</ele><time>2026-04-25T13:34:01Z</time></trkpt><trkpt lat="44.62352125184381" lon="9.11576539822112"><ele>980.0</ele><time>2026-04-25T13:34:02Z</time></trkpt><trkpt lat="44.6235496164065" lon="9.115668343844801"><ele>980.0</ele><time>2026-04-25T13:34:03Z</time></trkpt><trkpt lat="44.62359724202928" lon="9.115527423363034"><ele>980.0</ele><time>2026-04-25T13:34:05Z</time></trkpt><trkpt lat="44.62367160531281" lon="9.115472553188294"><ele>980.0</ele><time>2026-04-25T13:34:07Z</time></trkpt><trkpt lat="44.62380000226599" lon="9.11541094392456"><ele>978.6666666666667</ele><time>2026-04-25T13:34:09Z</time></trkpt><trkpt lat="44.62385994889284" lon="9.115345799679181"><ele>977.3333333333334</ele><time>2026-04-25T13:34:10Z</time></trkpt><trkpt lat="44.62388753895818" lon="9.11523658725846"><ele>976.0</ele><time>2026-04-25T13:34:11Z</time></trkpt><trkpt lat="44.62384737666712" lon="9.115120945108163"><ele>974.6666666666667</ele><time>2026-04-25T13:34:12Z</time></trkpt><trkpt lat="44.623825415978146" lon="9.115037412977442"><ele>973.3333333333334</ele><time>2026-04-25T13:34:13Z</time></trkpt><trkpt lat="44.62383296019827" lon="9.114934772983757"><ele>972.0</ele><time>2026-04-25T13:34:14Z</time></trkpt><trkpt lat="44.623854199741004" lon="9.114844841217536"><ele>969.3333333333334</ele><time>2026-04-25T13:34:15Z</time></trkpt><trkpt lat="44.623899645669404" lon="9.11471311466128"><ele>966.6666666666667</ele><time>2026-04-25T13:34:17Z</time></trkpt><trkpt lat="44.62397929169157" lon="9.114625685266528"><ele>964.0</ele><time>2026-04-25T13:34:19Z</time></trkpt><trkpt lat="44.62403402610632" lon="9.114572513981278"><ele>961.3333333333334</ele><time>2026-04-25T13:34:20Z</time></trkpt><trkpt lat="44.624095086447866" lon="9.114512608048235"><ele>958.6666666666667</ele><time>2026-04-25T13:34:21Z</time></trkpt><trkpt lat="44.6241913626791" lon="9.114460629796733"><ele>956.0</ele><time>2026-04-25T13:34:23Z</time></trkpt><trkpt lat="44.62428234445801" lon="9.114488070795996"><ele>956.0</ele><time>2026-04-25T13:34:25Z</time></trkpt><trkpt lat="44.62441124149526" lon="9.114538395365386"><ele>955.9999999999999</ele><time>2026-04-25T13:34:27Z</time></trkpt><trkpt lat="44.62447929129822" lon="9.114568786496612"><ele>955.9999999999999</ele><time>2026-04-25T13:34:28Z</time></trkpt><trkpt lat="44.62453997410336" lon="9.114595887470463"><ele>956.0</ele><time>2026-04-25T13:34:29Z</time></trkpt><trkpt lat="44.62463672071844" lon="9.114643472499122"><ele>956.0</ele><time>2026-04-25T13:34:31Z</time></trkpt><trkpt lat="44.62474087620463" lon="9.114702129474708"><ele>955.0000000000001</ele><time>2026-04-25T13:34:33Z</time></trkpt><trkpt lat="44.62485365873347" lon="9.114765716262445"><ele>954.0</ele><time>2026-04-25T13:34:35Z</time></trkpt><trkpt lat="44.62491283182916" lon="9.114801373637835"><ele>953.0</ele><time>2026-04-25T13:34:36Z</time></trkpt><trkpt lat="44.62499149361435" lon="9.114820538693454"><ele>952.0</ele><time>2026-04-25T13:34:37Z</time></trkpt><trkpt lat="44.62506993202431" lon="9.114814549858053"><ele>951.0000000000001</ele><time>2026-04-25T13:34:38Z</time></trkpt><trkpt lat="44.62515039669982" lon="9.114785110567194"><ele>950.0</ele><time>2026-04-25T13:34:39Z</time></trkpt><trkpt lat="44.6252314236373" lon="9.114775658904486"><ele>949.1666666666667</ele><time>2026-04-25T13:34:40Z</time></trkpt><trkpt lat="44.62531799850507" lon="9.114772018572303"><ele>948.3333333333334</ele><time>2026-04-25T13:34:41Z</time></trkpt><trkpt lat="44.625394259983665" lon="9.1147727658902"><ele>947.5</ele><time>2026-04-25T13:34:42Z</time></trkpt><trkpt lat="44.62547055197297" lon="9.114777458153242"><ele>946.6666666666667</ele><time>2026-04-25T13:34:43Z</time></trkpt><trkpt lat="44.62554308624526" lon="9.114786088811515"><ele>945.8333333333334</ele><time>2026-04-25T13:34:44Z</time></trkpt><trkpt lat="44.62561533865275" lon="9.114800090559676"><ele>945.0</ele><time>2026-04-25T13:34:45Z</time></trkpt><trkpt lat="44.62568113131693" lon="9.1148147977568"><ele>945.0</ele><time>2026-04-25T13:34:46Z</time></trkpt><trkpt lat="44.625745421996974" lon="9.114836615761554"><ele>945.0</ele><time>2026-04-25T13:34:47Z</time></trkpt><trkpt lat="44.62580851672521" lon="9.114861552384776"><ele>945.0</ele><time>2026-04-25T13:34:48Z</time></trkpt><trkpt lat="44.62587544794068" lon="9.114891625425768"><ele>945.0</ele><time>2026-04-25T13:34:49Z</time></trkpt><trkpt lat="44.62593712006933" lon="9.11492293780571"><ele>945.0</ele><time>2026-04-25T13:34:50Z</time></trkpt><trkpt lat="44.62604660516501" lon="9.11498384164065"><ele>945.0</ele><time>2026-04-25T13:34:52Z</time></trkpt><trkpt lat="44.62612833436583" lon="9.11503296545641"><ele>944.8333333333334</ele><time>2026-04-25T13:34:54Z</time></trkpt><trkpt lat="44.62620886780505" lon="9.115094039373798"><ele>944.6666666666667</ele><time>2026-04-25T13:34:56Z</time></trkpt><trkpt lat="44.6262769736389" lon="9.115139535274649"><ele>944.5</ele><time>2026-04-25T13:34:58Z</time></trkpt><trkpt lat="44.62634254805784" lon="9.11516647514998"><ele>944.3333333333334</ele><time>2026-04-25T13:35:18.999Z</time></trkpt><trkpt lat="44.626346292256045" lon="9.115002032150358"><ele>944.1666666666667</ele><time>2026-04-25T13:35:20.999Z</time></trkpt><trkpt lat="44.62629282995585" lon="9.114903370073648"><ele>944.0</ele><time>2026-04-25T13:35:36.999Z</time></trkpt><trkpt lat="44.62632498864898" lon="9.114800107212929"><ele>943.0</ele><time>2026-04-25T13:35:37.999Z</time></trkpt><trkpt lat="44.62636055345155" lon="9.114687631745973"><ele>942.0000000000001</ele><time>2026-04-25T13:35:38.999Z</time></trkpt><trkpt lat="44.62640580308593" lon="9.114596021351504"><ele>941.0000000000001</ele><time>2026-04-25T13:35:39.999Z</time></trkpt><trkpt lat="44.62646388345212" lon="9.114523638409809"><ele>940.0</ele><time>2026-04-25T13:35:40.999Z</time></trkpt><trkpt lat="44.62653493880445" lon="9.114420383154362"><ele>939.0</ele><time>2026-04-25T13:35:41.999Z</time></trkpt><trkpt lat="44.62659194932641" lon="9.114283326414576"><ele>939.0</ele><time>2026-04-25T13:35:42.999Z</time></trkpt><trkpt lat="44.626679687796404" lon="9.114163577521737"><ele>939.0</ele><time>2026-04-25T13:35:43.999Z</time></trkpt><trkpt lat="44.62674908812854" lon="9.114039020479742"><ele>939.0</ele><time>2026-04-25T13:35:44.999Z</time></trkpt><trkpt lat="44.62681809797947" lon="9.113917243798697"><ele>939.0</ele><time>2026-04-25T13:35:45.999Z</time></trkpt><trkpt lat="44.6268843442682" lon="9.113800921010165"><ele>937.6</ele><time>2026-04-25T13:35:46.999Z</time></trkpt><trkpt lat="44.626948104719474" lon="9.11367435389875"><ele>936.2</ele><time>2026-04-25T13:35:47.999Z</time></trkpt><trkpt lat="44.62700395350342" lon="9.11353497238246"><ele>934.8000000000001</ele><time>2026-04-25T13:35:48.999Z</time></trkpt><trkpt lat="44.62704975947566" lon="9.113394405021054"><ele>933.4000000000001</ele><time>2026-04-25T13:35:49.999Z</time></trkpt><trkpt lat="44.627084740880534" lon="9.113271374130761"><ele>932.0</ele><time>2026-04-25T13:35:50.999Z</time></trkpt><trkpt lat="44.62710415144007" lon="9.11316706836405"><ele>929.6</ele><time>2026-04-25T13:35:51.999Z</time></trkpt><trkpt lat="44.62708991572206" lon="9.112993260568295"><ele>927.2</ele><time>2026-04-25T13:35:54Z</time></trkpt><trkpt lat="44.62701571186891" lon="9.112921276116849"><ele>924.8</ele><time>2026-04-25T13:35:55Z</time></trkpt><trkpt lat="44.62693731261681" lon="9.112857198808594"><ele>922.4</ele><time>2026-04-25T13:35:56Z</time></trkpt><trkpt lat="44.626850238346314" lon="9.11279597032881"><ele>920.0</ele><time>2026-04-25T13:35:57Z</time></trkpt><trkpt lat="44.626751658529066" lon="9.112730402494158"><ele>920.0</ele><time>2026-04-25T13:35:58Z</time></trkpt><trkpt lat="44.626662684129144" lon="9.11267636050233"><ele>920.0</ele><time>2026-04-25T13:35:59Z</time></trkpt><trkpt lat="44.62658779913065" lon="9.112603285239539"><ele>920.0</ele><time>2026-04-25T13:36:00Z</time></trkpt><trkpt lat="44.62655076919414" lon="9.112479214940826"><ele>920.0</ele><time>2026-04-25T13:36:01Z</time></trkpt><trkpt lat="44.626501772866916" lon="9.112348865428947"><ele>920.0</ele><time>2026-04-25T13:36:02Z</time></trkpt><trkpt lat="44.62646082578322" lon="9.112207564156732"><ele>917.6666666666667</ele><time>2026-04-25T13:36:03Z</time></trkpt><trkpt lat="44.62640440689846" lon="9.11208752266007"><ele>915.3333333333334</ele><time>2026-04-25T13:36:04Z</time></trkpt><trkpt lat="44.62636411079858" lon="9.111985688147282"><ele>913.0</ele><time>2026-04-25T13:36:05Z</time></trkpt><trkpt lat="44.62634551092121" lon="9.111871942225832"><ele>910.6666666666667</ele><time>2026-04-25T13:36:06Z</time></trkpt><trkpt lat="44.62634456355896" lon="9.111747872315533"><ele>908.3333333333334</ele><time>2026-04-25T13:36:07Z</time></trkpt><trkpt lat="44.626339084223844" lon="9.111635031384782"><ele>906.0</ele><time>2026-04-25T13:36:08Z</time></trkpt><trkpt lat="44.62630903682745" lon="9.111536526541439"><ele>905.8</ele><time>2026-04-25T13:36:09Z</time></trkpt><trkpt lat="44.62624567883925" lon="9.11145441529954"><ele>905.5999999999999</ele><time>2026-04-25T13:36:10Z</time></trkpt><trkpt lat="44.62617419647642" lon="9.111365843019591"><ele>905.4</ele><time>2026-04-25T13:36:11Z</time></trkpt><trkpt lat="44.62610938113496" lon="9.111267453729742"><ele>905.2</ele><time>2026-04-25T13:36:12Z</time></trkpt><trkpt lat="44.62606496792698" lon="9.1111560152782"><ele>905.0</ele><time>2026-04-25T13:36:13Z</time></trkpt><trkpt lat="44.62604512442972" lon="9.11103528248586"><ele>905.0</ele><time>2026-04-25T13:36:14Z</time></trkpt><trkpt lat="44.626037334362366" lon="9.110929321453241"><ele>905.0</ele><time>2026-04-25T13:36:15Z</time></trkpt><trkpt lat="44.626002793373864" lon="9.110847342431152"><ele>905.0</ele><time>2026-04-25T13:36:16Z</time></trkpt><trkpt lat="44.62590842267202" lon="9.110779348068869"><ele>905.0</ele><time>2026-04-25T13:36:18Z</time></trkpt><trkpt lat="44.625841062774626" lon="9.110791510588406"><ele>905.0</ele><time>2026-04-25T13:36:19Z</time></trkpt><trkpt lat="44.62571252857916" lon="9.110857754373917"><ele>905.0000000000001</ele><time>2026-04-25T13:36:21Z</time></trkpt><trkpt lat="44.625646200454476" lon="9.110930461557112"><ele>905.0</ele><time>2026-04-25T13:36:22Z</time></trkpt><trkpt lat="44.6255797014201" lon="9.111015576903975"><ele>905.0</ele><time>2026-04-25T13:36:23Z</time></trkpt><trkpt lat="44.62552057902707" lon="9.11110270241518"><ele>905.0</ele><time>2026-04-25T13:36:24Z</time></trkpt><trkpt lat="44.62548588695669" lon="9.111189981539217"><ele>905.0000000000001</ele><time>2026-04-25T13:36:25Z</time></trkpt><trkpt lat="44.62542264008263" lon="9.111322112526638"><ele>905.0</ele><time>2026-04-25T13:36:27Z</time></trkpt><trkpt lat="44.62532801202741" lon="9.111311886154082"><ele>905.0000000000001</ele><time>2026-04-25T13:36:29Z</time></trkpt><trkpt lat="44.62527760841062" lon="9.11117105487199"><ele>905.0</ele><time>2026-04-25T13:36:31Z</time></trkpt><trkpt lat="44.625356267280196" lon="9.111062574325913"><ele>905.0</ele><time>2026-04-25T13:36:33Z</time></trkpt><trkpt lat="44.62540832299616" lon="9.11101063642256"><ele>905.0</ele><time>2026-04-25T13:36:34Z</time></trkpt><trkpt lat="44.625462427354826" lon="9.110944287212304"><ele>905.0000000000001</ele><time>2026-04-25T13:36:35Z</time></trkpt><trkpt lat="44.625512871529736" lon="9.11087711836638"><ele>905.0</ele><time>2026-04-25T13:36:36Z</time></trkpt><trkpt lat="44.62556689770444" lon="9.110794448450042"><ele>902.0000000000001</ele><time>2026-04-25T13:36:37Z</time></trkpt><trkpt lat="44.62561619574708" lon="9.110689653081288"><ele>899.0</ele><time>2026-04-25T13:36:38Z</time></trkpt><trkpt lat="44.625650094541285" lon="9.110578775255428"><ele>896.0</ele><time>2026-04-25T13:36:39Z</time></trkpt><trkpt lat="44.62569126256598" lon="9.110492382259954"><ele>893.0</ele><time>2026-04-25T13:36:40Z</time></trkpt><trkpt lat="44.62575063624831" lon="9.110431126153221"><ele>890.0000000000001</ele><time>2026-04-25T13:36:41Z</time></trkpt><trkpt lat="44.62582604780828" lon="9.110363950336051"><ele>887.0</ele><time>2026-04-25T13:36:42Z</time></trkpt><trkpt lat="44.62591928078706" lon="9.110240977437796"><ele>887.0</ele><time>2026-04-25T13:36:43Z</time></trkpt><trkpt lat="44.62599467497385" lon="9.110108721120362"><ele>887.0</ele><time>2026-04-25T13:36:44Z</time></trkpt><trkpt lat="44.62606242904884" lon="9.109990254637886"><ele>887.0</ele><time>2026-04-25T13:36:45Z</time></trkpt><trkpt lat="44.62612401144943" lon="9.109884717308065"><ele>887.0</ele><time>2026-04-25T13:36:46Z</time></trkpt><trkpt lat="44.62618566650272" lon="9.10977722170418"><ele>887.0</ele><time>2026-04-25T13:36:47Z</time></trkpt><trkpt lat="44.626235167090165" lon="9.109676494465816"><ele>885.2</ele><time>2026-04-25T13:36:48Z</time></trkpt><trkpt lat="44.62628774339103" lon="9.109601166127636"><ele>883.4000000000001</ele><time>2026-04-25T13:36:49Z</time></trkpt><trkpt lat="44.62635909370381" lon="9.109518534338527"><ele>881.5999999999999</ele><time>2026-04-25T13:36:50Z</time></trkpt><trkpt lat="44.6264338374177" lon="9.109426958906134"><ele>879.8</ele><time>2026-04-25T13:36:51Z</time></trkpt><trkpt lat="44.62650830133906" lon="9.109319084175253"><ele>878.0</ele><time>2026-04-25T13:36:52Z</time></trkpt><trkpt lat="44.6265550468334" lon="9.109177967542639"><ele>876.8333333333334</ele><time>2026-04-25T13:36:53Z</time></trkpt><trkpt lat="44.62657719813889" lon="9.109060191092421"><ele>875.6666666666667</ele><time>2026-04-25T13:36:54Z</time></trkpt><trkpt lat="44.6265802733857" lon="9.10894924173962"><ele>874.5</ele><time>2026-04-25T13:36:55Z</time></trkpt><trkpt lat="44.62655121363813" lon="9.108846149034374"><ele>873.3333333333333</ele><time>2026-04-25T13:36:56Z</time></trkpt><trkpt lat="44.62652545426242" lon="9.108745127769465"><ele>872.1666666666666</ele><time>2026-04-25T13:36:57Z</time></trkpt><trkpt lat="44.626591545707285" lon="9.10865205741162"><ele>871.0</ele><time>2026-04-25T13:36:58Z</time></trkpt><trkpt lat="44.626604278446266" lon="9.10852641363703"><ele>870.9999999999999</ele><time>2026-04-25T13:37:00Z</time></trkpt><trkpt lat="44.62653574612436" lon="9.10846766837974"><ele>871.0</ele><time>2026-04-25T13:37:02Z</time></trkpt><trkpt lat="44.62647570248995" lon="9.108544943327134"><ele>871.0</ele><time>2026-04-25T13:37:04Z</time></trkpt><trkpt lat="44.62645490802282" lon="9.108663348900372"><ele>871.0</ele><time>2026-04-25T13:37:06Z</time></trkpt><trkpt lat="44.62641484490085" lon="9.108782370130134"><ele>870.9999999999999</ele><time>2026-04-25T13:37:08Z</time></trkpt><trkpt lat="44.62636448959482" lon="9.108908139968245"><ele>871.0</ele><time>2026-04-25T13:37:10Z</time></trkpt><trkpt lat="44.62628139813142" lon="9.109026955128892"><ele>870.4999999999999</ele><time>2026-04-25T13:37:12Z</time></trkpt><trkpt lat="44.626174125800205" lon="9.109090506611011"><ele>870.0</ele><time>2026-04-25T13:37:14Z</time></trkpt><trkpt lat="44.62611145146642" lon="9.109103936560846"><ele>869.5</ele><time>2026-04-25T13:37:15Z</time></trkpt><trkpt lat="44.62604746650186" lon="9.109127715541609"><ele>869.0</ele><time>2026-04-25T13:37:16Z</time></trkpt><trkpt lat="44.625984969146074" lon="9.109144284160212"><ele>868.4999999999999</ele><time>2026-04-25T13:37:17Z</time></trkpt><trkpt lat="44.62592638546781" lon="9.109182501877651"><ele>868.0</ele><time>2026-04-25T13:37:18Z</time></trkpt><trkpt lat="44.62583496660872" lon="9.109279514516412"><ele>868.0</ele><time>2026-04-25T13:37:20Z</time></trkpt><trkpt lat="44.62572225522908" lon="9.109358598072374"><ele>868.0</ele><time>2026-04-25T13:37:21.999Z</time></trkpt><trkpt lat="44.6256428259885" lon="9.109368489424226"><ele>868.0</ele><time>2026-04-25T13:37:22.999Z</time></trkpt><trkpt lat="44.625550839044195" lon="9.109350677694499"><ele>868.0</ele><time>2026-04-25T13:37:23.999Z</time></trkpt><trkpt lat="44.62546081342115" lon="9.109319536941598"><ele>868.0</ele><time>2026-04-25T13:37:24.999Z</time></trkpt><trkpt lat="44.625391529796374" lon="9.109309667136237"><ele>867.9999999999999</ele><time>2026-04-25T13:37:25.999Z</time></trkpt><trkpt lat="44.625323181671504" lon="9.109392822371031"><ele>868.0</ele><time>2026-04-25T13:37:27.999Z</time></trkpt><trkpt lat="44.625253706181745" lon="9.109473552492812"><ele>868.0</ele><time>2026-04-25T13:37:29.999Z</time></trkpt><trkpt lat="44.62515270883555" lon="9.109537026723444"><ele>868.0</ele><time>2026-04-25T13:37:31.999Z</time></trkpt><trkpt lat="44.62507804663625" lon="9.109546368502743"><ele>867.9999999999999</ele><time>2026-04-25T13:37:32.999Z</time></trkpt><trkpt lat="44.62500864607941" lon="9.10954960085857"><ele>868.0</ele><time>2026-04-25T13:37:33.999Z</time></trkpt><trkpt lat="44.62494030706617" lon="9.109548330082005"><ele>864.8571428571429</ele><time>2026-04-25T13:37:34.999Z</time></trkpt><trkpt lat="44.62487226199059" lon="9.109563961491336"><ele>861.7142857142858</ele><time>2026-04-25T13:37:35.999Z</time></trkpt><trkpt lat="44.624812862322" lon="9.109604386271775"><ele>858.5714285714286</ele><time>2026-04-25T13:37:36.999Z</time></trkpt><trkpt lat="44.6247603683579" lon="9.109660980174006"><ele>855.4285714285714</ele><time>2026-04-25T13:37:37.999Z</time></trkpt><trkpt lat="44.62470055508767" lon="9.109710535886638"><ele>852.2857142857143</ele><time>2026-04-25T13:37:38.999Z</time></trkpt><trkpt lat="44.624629247381705" lon="9.109767490691949"><ele>849.1428571428571</ele><time>2026-04-25T13:37:39.999Z</time></trkpt><trkpt lat="44.62454683384947" lon="9.1098010039106"><ele>846.0</ele><time>2026-04-25T13:37:40.999Z</time></trkpt><trkpt lat="44.624457791766915" lon="9.109813061818306"><ele>844.6666666666666</ele><time>2026-04-25T13:37:41.999Z</time></trkpt><trkpt lat="44.624368746155795" lon="9.109815796814496"><ele>843.3333333333333</ele><time>2026-04-25T13:37:42.999Z</time></trkpt><trkpt lat="44.62428272554343" lon="9.10980632395514"><ele>842.0</ele><time>2026-04-25T13:37:43.999Z</time></trkpt><trkpt lat="44.62419688838303" lon="9.109782487292168"><ele>840.6666666666666</ele><time>2026-04-25T13:37:44.999Z</time></trkpt><trkpt lat="44.62411425610835" lon="9.109749566731484"><ele>839.3333333333333</ele><time>2026-04-25T13:37:45.999Z</time></trkpt><trkpt lat="44.62403385215224" lon="9.109705054623612"><ele>838.0</ele><time>2026-04-25T13:37:46.999Z</time></trkpt><trkpt lat="44.623960410160144" lon="9.109652992957693"><ele>837.9999999999999</ele><time>2026-04-25T13:37:47.999Z</time></trkpt><trkpt lat="44.62390616152215" lon="9.109581722341225"><ele>838.0</ele><time>2026-04-25T13:37:48.999Z</time></trkpt><trkpt lat="44.623875599327704" lon="9.109480381908583"><ele>838.0</ele><time>2026-04-25T13:37:49.999Z</time></trkpt><trkpt lat="44.6238899270205" lon="9.109360302718716"><ele>838.0</ele><time>2026-04-25T13:37:50.999Z</time></trkpt><trkpt lat="44.62386313706894" lon="9.109262704947676"><ele>837.9999999999999</ele><time>2026-04-25T13:37:51.999Z</time></trkpt><trkpt lat="44.623825352983886" lon="9.109159858323652"><ele>838.0</ele><time>2026-04-25T13:37:52.999Z</time></trkpt><trkpt lat="44.62377119763456" lon="9.109066895651544"><ele>837.8333333333333</ele><time>2026-04-25T13:37:53.999Z</time></trkpt><trkpt lat="44.62371336843966" lon="9.108991351018368"><ele>837.6666666666666</ele><time>2026-04-25T13:37:54.999Z</time></trkpt><trkpt lat="44.62367470143012" lon="9.108902819095038"><ele>837.5</ele><time>2026-04-25T13:37:55.999Z</time></trkpt><trkpt lat="44.62364975992495" lon="9.108776621669573"><ele>837.3333333333333</ele><time>2026-04-25T13:37:56.999Z</time></trkpt><trkpt lat="44.623632507400735" lon="9.108653206150333"><ele>837.1666666666666</ele><time>2026-04-25T13:37:57.999Z</time></trkpt><trkpt lat="44.62361020626018" lon="9.108544397662937"><ele>837.0</ele><time>2026-04-25T13:37:58.999Z</time></trkpt><trkpt lat="44.62358412918521" lon="9.108443672173655"><ele>837.0</ele><time>2026-04-25T13:37:59.999Z</time></trkpt><trkpt lat="44.623550242269516" lon="9.108355324064782"><ele>837.0</ele><time>2026-04-25T13:38:00.999Z</time></trkpt><trkpt lat="44.62350699687858" lon="9.108273165586626"><ele>837.0</ele><time>2026-04-25T13:38:01.999Z</time></trkpt><trkpt lat="44.623453676386134" lon="9.108196584148816"><ele>837.0</ele><time>2026-04-25T13:38:02.999Z</time></trkpt><trkpt lat="44.62339661356005" lon="9.108120030925091"><ele>837.0</ele><time>2026-04-25T13:38:03.999Z</time></trkpt><trkpt lat="44.62333886272129" lon="9.108046322814479"><ele>837.0</ele><time>2026-04-25T13:38:04.999Z</time></trkpt><trkpt lat="44.62328388067865" lon="9.107972291474795"><ele>836.3333333333334</ele><time>2026-04-25T13:38:05.999Z</time></trkpt><trkpt lat="44.62323675416336" lon="9.107885733404181"><ele>835.6666666666667</ele><time>2026-04-25T13:38:06.999Z</time></trkpt><trkpt lat="44.623204411335735" lon="9.107807927142165"><ele>835.0</ele><time>2026-04-25T13:38:07.999Z</time></trkpt><trkpt lat="44.62319294281061" lon="9.107689924715206"><ele>834.3333333333334</ele><time>2026-04-25T13:38:09.999Z</time></trkpt><trkpt lat="44.62327061410321" lon="9.107657471365126"><ele>833.6666666666667</ele><time>2026-04-25T13:38:12.999Z</time></trkpt><trkpt lat="44.62334102795835" lon="9.107714442640567"><ele>833.0</ele><time>2026-04-25T13:38:15.999Z</time></trkpt><trkpt lat="44.6234024339468" lon="9.10777691731542"><ele>833.0000000000001</ele><time>2026-04-25T13:38:17.999Z</time></trkpt><trkpt lat="44.623481624742816" lon="9.107841116351283"><ele>833.0</ele><time>2026-04-25T13:38:19.999Z</time></trkpt><trkpt lat="44.62355109598566" lon="9.107830153086567"><ele>833.0</ele><time>2026-04-25T13:38:20.999Z</time></trkpt><trkpt lat="44.62360422491735" lon="9.10775031275271"><ele>833.0</ele><time>2026-04-25T13:38:21.999Z</time></trkpt><trkpt lat="44.62358800033446" lon="9.107626005805692"><ele>833.0000000000001</ele><time>2026-04-25T13:38:22.999Z</time></trkpt><trkpt lat="44.62362096985114" lon="9.107550307988621"><ele>833.0</ele><time>2026-04-25T13:38:23.999Z</time></trkpt><trkpt lat="44.62365410547953" lon="9.10747333836446"><ele>828.6666666666667</ele><time>2026-04-25T13:38:24.999Z</time></trkpt><trkpt lat="44.623768263090696" lon="9.10741889123635"><ele>824.3333333333334</ele><time>2026-04-25T13:38:26.999Z</time></trkpt><trkpt lat="44.62382706322728" lon="9.10736958894805"><ele>820.0</ele><time>2026-04-25T13:38:27.999Z</time></trkpt><trkpt lat="44.62388508431437" lon="9.107306346181453"><ele>815.6666666666667</ele><time>2026-04-25T13:38:28.999Z</time></trkpt><trkpt lat="44.62393310343957" lon="9.107241181210021"><ele>811.3333333333334</ele><time>2026-04-25T13:38:29.999Z</time></trkpt><trkpt lat="44.62397552880963" lon="9.107153623578832"><ele>807.0</ele><time>2026-04-25T13:38:30.999Z</time></trkpt><trkpt lat="44.6240056226147" lon="9.10706569538397"><ele>807.0</ele><time>2026-04-25T13:38:31.999Z</time></trkpt><trkpt lat="44.62402551880801" lon="9.106973954276414"><ele>807.0</ele><time>2026-04-25T13:38:32.999Z</time></trkpt><trkpt lat="44.6240287508982" lon="9.106870908747517"><ele>807.0</ele><time>2026-04-25T13:38:33.999Z</time></trkpt><trkpt lat="44.62403541357491" lon="9.106768326494876"><ele>807.0</ele><time>2026-04-25T13:38:34.999Z</time></trkpt><trkpt lat="44.624039773487574" lon="9.106655562056815"><ele>807.0</ele><time>2026-04-25T13:38:35.999Z</time></trkpt><trkpt lat="44.624041955032304" lon="9.106537419498714"><ele>807.0</ele><time>2026-04-25T13:38:36.999Z</time></trkpt><trkpt lat="44.62404229713083" lon="9.106417610132093"><ele>806.3333333333334</ele><time>2026-04-25T13:38:37.999Z</time></trkpt><trkpt lat="44.624042635895805" lon="9.10629896814964"><ele>805.6666666666667</ele><time>2026-04-25T13:38:38.999Z</time></trkpt><trkpt lat="44.624044160575345" lon="9.106179510630088"><ele>805.0</ele><time>2026-04-25T13:38:39.999Z</time></trkpt><trkpt lat="44.624046719459926" lon="9.106066336094724"><ele>804.3333333333334</ele><time>2026-04-25T13:38:40.999Z</time></trkpt><trkpt lat="44.62405402865837" lon="9.105953360323864"><ele>803.6666666666667</ele><time>2026-04-25T13:38:41.999Z</time></trkpt><trkpt lat="44.62407729466627" lon="9.105845539824886"><ele>803.0</ele><time>2026-04-25T13:38:42.999Z</time></trkpt><trkpt lat="44.624133574636666" lon="9.105774706021482"><ele>801.5000000000001</ele><time>2026-04-25T13:38:43.999Z</time></trkpt><trkpt lat="44.62420586177716" lon="9.105710828221019"><ele>800.0</ele><time>2026-04-25T13:38:44.999Z</time></trkpt><trkpt lat="44.62425689091196" lon="9.105627421506156"><ele>798.5</ele><time>2026-04-25T13:38:45.999Z</time></trkpt><trkpt lat="44.62429480820713" lon="9.105529617913747"><ele>797.0</ele><time>2026-04-25T13:38:46.999Z</time></trkpt><trkpt lat="44.62431338541116" lon="9.105439999891338"><ele>795.5000000000001</ele><time>2026-04-25T13:38:47.999Z</time></trkpt><trkpt lat="44.62426110104363" lon="9.105329870118533"><ele>794.0</ele><time>2026-04-25T13:38:48.999Z</time></trkpt><trkpt lat="44.62419384055355" lon="9.105257602667749"><ele>794.0</ele><time>2026-04-25T13:38:49.999Z</time></trkpt><trkpt lat="44.62411937998278" lon="9.105181779275672"><ele>794.0</ele><time>2026-04-25T13:38:50.999Z</time></trkpt><trkpt lat="44.62403690871555" lon="9.105112125749937"><ele>794.0</ele><time>2026-04-25T13:38:51.999Z</time></trkpt><trkpt lat="44.62394477515807" lon="9.105050732287648"><ele>794.0</ele><time>2026-04-25T13:38:52.999Z</time></trkpt><trkpt lat="44.62384938309646" lon="9.104985378442793"><ele>794.0</ele><time>2026-04-25T13:38:53.999Z</time></trkpt><trkpt lat="44.62376050814227" lon="9.104933057587218"><ele>790.8000000000001</ele><time>2026-04-25T13:38:54.999Z</time></trkpt><trkpt lat="44.6236733697783" lon="9.104888086008991"><ele>787.6</ele><time>2026-04-25T13:38:55.999Z</time></trkpt><trkpt lat="44.62357655369987" lon="9.104847826640299"><ele>784.4</ele><time>2026-04-25T13:38:56.999Z</time></trkpt><trkpt lat="44.62347410219995" lon="9.104821377583896"><ele>781.2</ele><time>2026-04-25T13:38:57.999Z</time></trkpt><trkpt lat="44.623375370987745" lon="9.104799373012558"><ele>778.0</ele><time>2026-04-25T13:38:58.999Z</time></trkpt><trkpt lat="44.62328297963706" lon="9.10477735973324"><ele>777.9999999999999</ele><time>2026-04-25T13:38:59.999Z</time></trkpt><trkpt lat="44.62319188112227" lon="9.10474002145351"><ele>778.0</ele><time>2026-04-25T13:39:00.999Z</time></trkpt><trkpt lat="44.623103743324165" lon="9.104683952033383"><ele>778.0</ele><time>2026-04-25T13:39:01.999Z</time></trkpt><trkpt lat="44.62302243371023" lon="9.10461547529167"><ele>778.0</ele><time>2026-04-25T13:39:02.999Z</time></trkpt><trkpt lat="44.622948059212305" lon="9.104552779914595"><ele>777.9999999999999</ele><time>2026-04-25T13:39:03.999Z</time></trkpt><trkpt lat="44.62288107824689" lon="9.104505996322667"><ele>778.0</ele><time>2026-04-25T13:39:04.999Z</time></trkpt><trkpt lat="44.62276951912297" lon="9.104504564224534"><ele>777.9999999999999</ele><time>2026-04-25T13:39:06.999Z</time></trkpt><trkpt lat="44.62267857300085" lon="9.104557175768537"><ele>778.0</ele><time>2026-04-25T13:39:08.999Z</time></trkpt><trkpt lat="44.622615381154944" lon="9.10456629071571"><ele>778.0</ele><time>2026-04-25T13:39:10.999Z</time></trkpt><trkpt lat="44.62260088721179" lon="9.104455798736712"><ele>778.0</ele><time>2026-04-25T13:39:12.999Z</time></trkpt><trkpt lat="44.622684431576495" lon="9.104416240475834"><ele>777.9999999999999</ele><time>2026-04-25T13:39:14.999Z</time></trkpt><trkpt lat="44.622748038357194" lon="9.104393751264745"><ele>778.0</ele><time>2026-04-25T13:39:16.999Z</time></trkpt><trkpt lat="44.62283942454082" lon="9.104372255220301"><ele>778.0</ele><time>2026-04-25T13:39:18.999Z</time></trkpt><trkpt lat="44.62296791413494" lon="9.104371845619896"><ele>778.0</ele><time>2026-04-25T13:39:20.999Z</time></trkpt><trkpt lat="44.62304541050422" lon="9.104372456121274"><ele>778.0</ele><time>2026-04-25T13:39:21.999Z</time></trkpt><trkpt lat="44.62312190189917" lon="9.104366241189464"><ele>778.0</ele><time>2026-04-25T13:39:22.999Z</time></trkpt><trkpt lat="44.623204715941924" lon="9.104327847189257"><ele>778.0</ele><time>2026-04-25T13:39:23.999Z</time></trkpt><trkpt lat="44.62328111910131" lon="9.10424295271238"><ele>777.9999999999999</ele><time>2026-04-25T13:39:24.999Z</time></trkpt><trkpt lat="44.62334099400761" lon="9.104157090798468"><ele>778.0</ele><time>2026-04-25T13:39:25.999Z</time></trkpt><trkpt lat="44.623388803485895" lon="9.104085194951562"><ele>778.0</ele><time>2026-04-25T13:39:26.999Z</time></trkpt><trkpt lat="44.62344014185636" lon="9.104016309199068"><ele>778.0</ele><time>2026-04-25T13:39:27.998Z</time></trkpt><trkpt lat="44.62349007640668" lon="9.103951792089592"><ele>777.9999999999999</ele><time>2026-04-25T13:39:28.998Z</time></trkpt><trkpt lat="44.62360960310793" lon="9.103865666847128"><ele>778.0</ele><time>2026-04-25T13:39:30.998Z</time></trkpt><trkpt lat="44.62368185691812" lon="9.103829757690535"><ele>774.6666666666666</ele><time>2026-04-25T13:39:31.999Z</time></trkpt><trkpt lat="44.62375800868489" lon="9.103802149378641"><ele>771.3333333333333</ele><time>2026-04-25T13:39:32.999Z</time></trkpt><trkpt lat="44.62382820871145" lon="9.103792507294742"><ele>768.0</ele><time>2026-04-25T13:39:33.999Z</time></trkpt><trkpt lat="44.623903864758866" lon="9.103802519046631"><ele>764.6666666666666</ele><time>2026-04-25T13:39:34.999Z</time></trkpt><trkpt lat="44.623999930364455" lon="9.103817057010705"><ele>761.3333333333333</ele><time>2026-04-25T13:39:35.999Z</time></trkpt><trkpt lat="44.6241093079811" lon="9.103833609463775"><ele>758.0</ele><time>2026-04-25T13:39:36.999Z</time></trkpt><trkpt lat="44.62421719276305" lon="9.103848475796584"><ele>758.0</ele><time>2026-04-25T13:39:37.999Z</time></trkpt><trkpt lat="44.62432490160578" lon="9.103864245774558"><ele>758.0</ele><time>2026-04-25T13:39:38.999Z</time></trkpt><trkpt lat="44.62443729844316" lon="9.103880421437616"><ele>758.0</ele><time>2026-04-25T13:39:39.999Z</time></trkpt><trkpt lat="44.624547067935026" lon="9.103888208994238"><ele>758.0</ele><time>2026-04-25T13:39:40.999Z</time></trkpt><trkpt lat="44.62465496493644" lon="9.103874942166948"><ele>758.0</ele><time>2026-04-25T13:39:41.999Z</time></trkpt><trkpt lat="44.62475185630591" lon="9.10385592029513"><ele>756.8333333333333</ele><time>2026-04-25T13:39:42.999Z</time></trkpt><trkpt lat="44.624835038924935" lon="9.103863961091644"><ele>755.6666666666666</ele><time>2026-04-25T13:39:43.999Z</time></trkpt><trkpt lat="44.62492663730066" lon="9.103876109006578"><ele>754.5</ele><time>2026-04-25T13:39:44.999Z</time></trkpt><trkpt lat="44.62501531030013" lon="9.103862652835144"><ele>753.3333333333334</ele><time>2026-04-25T13:39:45.999Z</time></trkpt><trkpt lat="44.62510238407278" lon="9.103811652575304"><ele>752.1666666666667</ele><time>2026-04-25T13:39:46.999Z</time></trkpt><trkpt lat="44.625164291588824" lon="9.10376581201573"><ele>751.0</ele><time>2026-04-25T13:39:47.999Z</time></trkpt><trkpt lat="44.625222436235155" lon="9.103706974956634"><ele>751.0</ele><time>2026-04-25T13:39:48.999Z</time></trkpt><trkpt lat="44.62527023361179" lon="9.103612002221897"><ele>751.0</ele><time>2026-04-25T13:39:49.999Z</time></trkpt><trkpt lat="44.625291612656675" lon="9.103506650538542"><ele>751.0</ele><time>2026-04-25T13:39:50.999Z</time></trkpt><trkpt lat="44.625318870770855" lon="9.103407980763118"><ele>751.0</ele><time>2026-04-25T13:39:51.999Z</time></trkpt><trkpt lat="44.62533805065499" lon="9.10331184449032"><ele>751.0</ele><time>2026-04-25T13:39:52.999Z</time></trkpt><trkpt lat="44.62533718180466" lon="9.103216668642478"><ele>751.0</ele><time>2026-04-25T13:39:53.999Z</time></trkpt><trkpt lat="44.62526209266969" lon="9.103103157514886"><ele>747.8</ele><time>2026-04-25T13:39:55.999Z</time></trkpt><trkpt lat="44.625138099491984" lon="9.103081628668864"><ele>744.5999999999999</ele><time>2026-04-25T13:39:57.999Z</time></trkpt><trkpt lat="44.625061114464145" lon="9.103069532411448"><ele>741.4</ele><time>2026-04-25T13:39:58.999Z</time></trkpt><trkpt lat="44.624977440918" lon="9.10304805528798"><ele>738.2</ele><time>2026-04-25T13:39:59.999Z</time></trkpt><trkpt lat="44.624890630057436" lon="9.10302622657498"><ele>735.0</ele><time>2026-04-25T13:40:00.999Z</time></trkpt><trkpt lat="44.62480519231461" lon="9.103002021720064"><ele>735.0</ele><time>2026-04-25T13:40:01.999Z</time></trkpt><trkpt lat="44.62472054946765" lon="9.102980688382653"><ele>735.0</ele><time>2026-04-25T13:40:03Z</time></trkpt><trkpt lat="44.624635013464406" lon="9.102968878656185"><ele>735.0</ele><time>2026-04-25T13:40:04Z</time></trkpt><trkpt lat="44.62454925289309" lon="9.1029657051613"><ele>735.0</ele><time>2026-04-25T13:40:05Z</time></trkpt><trkpt lat="44.62446470317963" lon="9.102963000715901"><ele>735.0</ele><time>2026-04-25T13:40:06Z</time></trkpt><trkpt lat="44.6243868375555" lon="9.102956213976144"><ele>735.0</ele><time>2026-04-25T13:40:07Z</time></trkpt><trkpt lat="44.62429682616827" lon="9.102974229747435"><ele>737.1666666666666</ele><time>2026-04-25T13:40:08Z</time></trkpt><trkpt lat="44.62421439819674" lon="9.102979769598049"><ele>739.3333333333334</ele><time>2026-04-25T13:40:09Z</time></trkpt><trkpt lat="44.624140944910586" lon="9.102966760995109"><ele>741.5</ele><time>2026-04-25T13:40:10Z</time></trkpt><trkpt lat="44.624078705636514" lon="9.102917355799933"><ele>743.6666666666667</ele><time>2026-04-25T13:40:11Z</time></trkpt><trkpt lat="44.62404571425751" lon="9.102836858900021"><ele>745.8333333333334</ele><time>2026-04-25T13:40:12Z</time></trkpt><trkpt lat="44.62409793920634" lon="9.102697510166736"><ele>748.0</ele><time>2026-04-25T13:40:14Z</time></trkpt><trkpt lat="44.624178475410226" lon="9.102586417782755"><ele>748.0</ele><time>2026-04-25T13:40:16Z</time></trkpt><trkpt lat="44.62424684737545" lon="9.102544009186289"><ele>748.0</ele><time>2026-04-25T13:40:17Z</time></trkpt><trkpt lat="44.62432229025872" lon="9.10248306398627"><ele>748.0</ele><time>2026-04-25T13:40:18Z</time></trkpt><trkpt lat="44.624373274169706" lon="9.102393999751518"><ele>748.0</ele><time>2026-04-25T13:40:19Z</time></trkpt><trkpt lat="44.624411585711535" lon="9.102317794485872"><ele>748.0</ele><time>2026-04-25T13:40:20Z</time></trkpt><trkpt lat="44.62442799575402" lon="9.102179964134315"><ele>748.0</ele><time>2026-04-25T13:40:21Z</time></trkpt><trkpt lat="44.624469806186546" lon="9.102053286397359"><ele>746.6666666666667</ele><time>2026-04-25T13:40:22Z</time></trkpt><trkpt lat="44.62451564143961" lon="9.101956158251548"><ele>745.3333333333334</ele><time>2026-04-25T13:40:23Z</time></trkpt><trkpt lat="44.62456643657427" lon="9.101866548294543"><ele>744.0</ele><time>2026-04-25T13:40:24Z</time></trkpt><trkpt lat="44.62462446695812" lon="9.101811622738069"><ele>742.6666666666666</ele><time>2026-04-25T13:40:25Z</time></trkpt><trkpt lat="44.62468467722573" lon="9.101782873512466"><ele>741.3333333333333</ele><time>2026-04-25T13:40:26Z</time></trkpt><trkpt lat="44.62478313094311" lon="9.101835673628457"><ele>740.0</ele><time>2026-04-25T13:40:28Z</time></trkpt><trkpt lat="44.624840930236275" lon="9.101948859123038"><ele>740.0</ele><time>2026-04-25T13:40:30Z</time></trkpt><trkpt lat="44.62489158733329" lon="9.102032429966998"><ele>740.0</ele><time>2026-04-25T13:40:31Z</time></trkpt><trkpt lat="44.62493644635079" lon="9.102100016920458"><ele>740.0</ele><time>2026-04-25T13:40:32Z</time></trkpt><trkpt lat="44.62500005182916" lon="9.102141681290727"><ele>740.0</ele><time>2026-04-25T13:40:33Z</time></trkpt><trkpt lat="44.62506761233528" lon="9.102128005037166"><ele>740.0</ele><time>2026-04-25T13:40:34Z</time></trkpt><trkpt lat="44.62513545655819" lon="9.102047329693361"><ele>740.0</ele><time>2026-04-25T13:40:35Z</time></trkpt><trkpt lat="44.62519972884002" lon="9.101972045780599"><ele>739.9999999999999</ele><time>2026-04-25T13:40:36Z</time></trkpt><trkpt lat="44.62525961774072" lon="9.101885447941143"><ele>740.0</ele><time>2026-04-25T13:40:37Z</time></trkpt><trkpt lat="44.62531728626944" lon="9.101831298196107"><ele>740.0</ele><time>2026-04-25T13:40:38Z</time></trkpt><trkpt lat="44.625375308348715" lon="9.101787765125493"><ele>740.0</ele><time>2026-04-25T13:40:39Z</time></trkpt><trkpt lat="44.62544197342706" lon="9.101791146648328"><ele>740.0</ele><time>2026-04-25T13:40:40Z</time></trkpt><trkpt lat="44.625513341624114" lon="9.101782481619791"><ele>739.9999999999999</ele><time>2026-04-25T13:40:41Z</time></trkpt><trkpt lat="44.625579479905454" lon="9.101773832453453"><ele>740.0</ele><time>2026-04-25T13:40:42Z</time></trkpt><trkpt lat="44.625706612738135" lon="9.101761718969271"><ele>737.6666666666666</ele><time>2026-04-25T13:40:44Z</time></trkpt><trkpt lat="44.6258161121708" lon="9.101699289358898"><ele>735.3333333333333</ele><time>2026-04-25T13:40:46Z</time></trkpt><trkpt lat="44.625843075011" lon="9.101606854294046"><ele>733.0</ele><time>2026-04-25T13:40:47Z</time></trkpt><trkpt lat="44.62584122252239" lon="9.101499138347954"><ele>730.6666666666666</ele><time>2026-04-25T13:40:48Z</time></trkpt><trkpt lat="44.62584124611875" lon="9.101396651950315"><ele>728.3333333333334</ele><time>2026-04-25T13:40:49Z</time></trkpt><trkpt lat="44.62581270171415" lon="9.101286723773846"><ele>726.0</ele><time>2026-04-25T13:40:50Z</time></trkpt><trkpt lat="44.62579903374492" lon="9.101159581920347"><ele>726.0</ele><time>2026-04-25T13:40:51Z</time></trkpt><trkpt lat="44.62580443008371" lon="9.101028567758565"><ele>726.0</ele><time>2026-04-25T13:40:52Z</time></trkpt><trkpt lat="44.625810240763506" lon="9.100902981876084"><ele>726.0</ele><time>2026-04-25T13:40:53Z</time></trkpt><trkpt lat="44.625830448936995" lon="9.100795653651637"><ele>726.0</ele><time>2026-04-25T13:40:54Z</time></trkpt><trkpt lat="44.62585614703883" lon="9.100689598458247"><ele>726.0</ele><time>2026-04-25T13:40:55Z</time></trkpt><trkpt lat="44.62589025233566" lon="9.100600055808082"><ele>726.0</ele><time>2026-04-25T13:40:56Z</time></trkpt><trkpt lat="44.625941928547135" lon="9.10052872092775"><ele>724.1666666666666</ele><time>2026-04-25T13:40:57Z</time></trkpt><trkpt lat="44.62600052638379" lon="9.100452161326452"><ele>722.3333333333334</ele><time>2026-04-25T13:40:58Z</time></trkpt><trkpt lat="44.62607003313094" lon="9.10037133366958"><ele>720.5</ele><time>2026-04-25T13:40:59Z</time></trkpt><trkpt lat="44.626142320948" lon="9.100290912555328"><ele>718.6666666666667</ele><time>2026-04-25T13:41:00Z</time></trkpt><trkpt lat="44.626211239089905" lon="9.100221850440606"><ele>716.8333333333334</ele><time>2026-04-25T13:41:01Z</time></trkpt><trkpt lat="44.62628068036335" lon="9.10017017485932"><ele>715.0</ele><time>2026-04-25T13:41:02Z</time></trkpt><trkpt lat="44.62635295577041" lon="9.100126651006622"><ele>715.0</ele><time>2026-04-25T13:41:03Z</time></trkpt><trkpt lat="44.62642813387562" lon="9.100084484397918"><ele>715.0</ele><time>2026-04-25T13:41:04Z</time></trkpt><trkpt lat="44.62650554313632" lon="9.100046958671863"><ele>715.0</ele><time>2026-04-25T13:41:05Z</time></trkpt><trkpt lat="44.626578401477815" lon="9.100034099315877"><ele>715.0</ele><time>2026-04-25T13:41:06Z</time></trkpt><trkpt lat="44.62665533462658" lon="9.10004038782759"><ele>715.0</ele><time>2026-04-25T13:41:07Z</time></trkpt><trkpt lat="44.626742147770585" lon="9.100067577832709"><ele>715.0</ele><time>2026-04-25T13:41:08Z</time></trkpt><trkpt lat="44.62682047126853" lon="9.100081481850951"><ele>715.0</ele><time>2026-04-25T13:41:09Z</time></trkpt><trkpt lat="44.62692257645023" lon="9.100016549568684"><ele>715.0</ele><time>2026-04-25T13:41:11Z</time></trkpt><trkpt lat="44.62695226184335" lon="9.09988877630766"><ele>715.0</ele><time>2026-04-25T13:41:12Z</time></trkpt><trkpt lat="44.62694414393126" lon="9.099783729270934"><ele>715.0</ele><time>2026-04-25T13:41:13Z</time></trkpt><trkpt lat="44.62689938759773" lon="9.099674345552021"><ele>715.0</ele><time>2026-04-25T13:41:14Z</time></trkpt><trkpt lat="44.62687832351865" lon="9.099552280553766"><ele>715.2</ele><time>2026-04-25T13:41:15Z</time></trkpt><trkpt lat="44.62686600367949" lon="9.099410550526326"><ele>715.4</ele><time>2026-04-25T13:41:16Z</time></trkpt><trkpt lat="44.62683594654967" lon="9.099260279747046"><ele>715.5999999999999</ele><time>2026-04-25T13:41:17Z</time></trkpt><trkpt lat="44.626782311069" lon="9.099128192470642"><ele>715.8</ele><time>2026-04-25T13:41:18Z</time></trkpt><trkpt lat="44.62674863352614" lon="9.098997460450914"><ele>716.0</ele><time>2026-04-25T13:41:19Z</time></trkpt><trkpt lat="44.62672148396786" lon="9.098872592257457"><ele>716.0</ele><time>2026-04-25T13:41:20Z</time></trkpt><trkpt lat="44.62672980952683" lon="9.098743278185937"><ele>716.0</ele><time>2026-04-25T13:41:21Z</time></trkpt><trkpt lat="44.626744053132846" lon="9.098617469818977"><ele>716.0</ele><time>2026-04-25T13:41:22Z</time></trkpt><trkpt lat="44.626761605927854" lon="9.098484804038133"><ele>716.0</ele><time>2026-04-25T13:41:23Z</time></trkpt><trkpt lat="44.62679128446089" lon="9.09836015380745"><ele>716.0</ele><time>2026-04-25T13:41:24Z</time></trkpt><trkpt lat="44.6268052452698" lon="9.098239025888212"><ele>715.0</ele><time>2026-04-25T13:41:25Z</time></trkpt><trkpt lat="44.62678827935227" lon="9.098129666433945"><ele>714.0</ele><time>2026-04-25T13:41:26Z</time></trkpt><trkpt lat="44.62677054146882" lon="9.098011635875725"><ele>713.0</ele><time>2026-04-25T13:41:27Z</time></trkpt><trkpt lat="44.62674658033393" lon="9.097877084677348"><ele>712.0</ele><time>2026-04-25T13:41:28Z</time></trkpt><trkpt lat="44.6267261029969" lon="9.097728627344"><ele>711.0</ele><time>2026-04-25T13:41:29Z</time></trkpt><trkpt lat="44.62670459064967" lon="9.097588933281086"><ele>711.0</ele><time>2026-04-25T13:41:30Z</time></trkpt><trkpt lat="44.62669191198945" lon="9.09745901548227"><ele>711.0</ele><time>2026-04-25T13:41:31Z</time></trkpt><trkpt lat="44.6266736000616" lon="9.09733108846358"><ele>711.0</ele><time>2026-04-25T13:41:32Z</time></trkpt><trkpt lat="44.62665271615999" lon="9.097203000374517"><ele>711.0</ele><time>2026-04-25T13:41:33Z</time></trkpt><trkpt lat="44.626638623368116" lon="9.097063297717872"><ele>711.0</ele><time>2026-04-25T13:41:34Z</time></trkpt><trkpt lat="44.62665318220789" lon="9.096911111790616"><ele>710.0</ele><time>2026-04-25T13:41:35Z</time></trkpt><trkpt lat="44.62663711575498" lon="9.096763188352092"><ele>709.0</ele><time>2026-04-25T13:41:36Z</time></trkpt><trkpt lat="44.62667121793044" lon="9.096629482556255"><ele>708.0</ele><time>2026-04-25T13:41:37Z</time></trkpt><trkpt lat="44.62670099831557" lon="9.096505211367088"><ele>707.0</ele><time>2026-04-25T13:41:38Z</time></trkpt><trkpt lat="44.626734699575366" lon="9.096375862679755"><ele>706.0</ele><time>2026-04-25T13:41:39Z</time></trkpt><trkpt lat="44.62677288482144" lon="9.096264004661284"><ele>706.0</ele><time>2026-04-25T13:41:40Z</time></trkpt><trkpt lat="44.62681316357624" lon="9.096177951431109"><ele>706.0</ele><time>2026-04-25T13:41:41Z</time></trkpt><trkpt lat="44.62688257007531" lon="9.09615213560804"><ele>706.0</ele><time>2026-04-25T13:41:43Z</time></trkpt><trkpt lat="44.62697677717139" lon="9.096223388704097"><ele>706.0</ele><time>2026-04-25T13:41:45Z</time></trkpt><trkpt lat="44.627057187505955" lon="9.09628219971131"><ele>706.0</ele><time>2026-04-25T13:41:46Z</time></trkpt><trkpt lat="44.627107945681345" lon="9.096353184657563"><ele>706.0</ele><time>2026-04-25T13:41:47Z</time></trkpt><trkpt lat="44.62713735526319" lon="9.096441402832575"><ele>707.8333333333334</ele><time>2026-04-25T13:41:48Z</time></trkpt><trkpt lat="44.62713804635474" lon="9.09653782587086"><ele>709.6666666666667</ele><time>2026-04-25T13:41:49Z</time></trkpt><trkpt lat="44.62715065313352" lon="9.09663687581373"><ele>711.5</ele><time>2026-04-25T13:41:50Z</time></trkpt><trkpt lat="44.62715202596994" lon="9.096734158015712"><ele>713.3333333333334</ele><time>2026-04-25T13:41:51Z</time></trkpt><trkpt lat="44.627186011341365" lon="9.096828382541778"><ele>715.1666666666666</ele><time>2026-04-25T13:41:52Z</time></trkpt><trkpt lat="44.62723038172567" lon="9.09696194989893"><ele>717.0</ele><time>2026-04-25T13:41:53Z</time></trkpt><trkpt lat="44.62730234182319" lon="9.097094972524406"><ele>717.0</ele><time>2026-04-25T13:41:54Z</time></trkpt><trkpt lat="44.62737747852954" lon="9.097226201198012"><ele>717.0</ele><time>2026-04-25T13:41:55Z</time></trkpt><trkpt lat="44.62743899931741" lon="9.09735211002314"><ele>717.0</ele><time>2026-04-25T13:41:56Z</time></trkpt><trkpt lat="44.62748153835806" lon="9.097474770534413"><ele>717.0</ele><time>2026-04-25T13:41:57Z</time></trkpt><trkpt lat="44.62750623540534" lon="9.097586182627248"><ele>717.0</ele><time>2026-04-25T13:41:58Z</time></trkpt><trkpt lat="44.62753069348293" lon="9.097680690765364"><ele>719.0</ele><time>2026-04-25T13:41:59Z</time></trkpt><trkpt lat="44.62757777394125" lon="9.09775888510068"><ele>721.0</ele><time>2026-04-25T13:42:00Z</time></trkpt><trkpt lat="44.62765608133938" lon="9.097809145243684"><ele>723.0</ele><time>2026-04-25T13:42:01Z</time></trkpt><trkpt lat="44.627742292657764" lon="9.097851932884694"><ele>725.0</ele><time>2026-04-25T13:42:02Z</time></trkpt><trkpt lat="44.62784079257225" lon="9.09788633340505"><ele>727.0</ele><time>2026-04-25T13:42:03Z</time></trkpt><trkpt lat="44.62795176628286" lon="9.097931122544521"><ele>727.0</ele><time>2026-04-25T13:42:04Z</time></trkpt><trkpt lat="44.62807173778211" lon="9.097987334712723"><ele>727.0</ele><time>2026-04-25T13:42:05Z</time></trkpt><trkpt lat="44.628183796181254" lon="9.098049379702495"><ele>727.0</ele><time>2026-04-25T13:42:06Z</time></trkpt><trkpt lat="44.628271707333155" lon="9.09811273374876"><ele>727.0</ele><time>2026-04-25T13:42:07Z</time></trkpt><trkpt lat="44.628334253000695" lon="9.098174365357664"><ele>727.0</ele><time>2026-04-25T13:42:08Z</time></trkpt><trkpt lat="44.6283924550426" lon="9.098239508931718"><ele>723.1666666666667</ele><time>2026-04-25T13:42:09Z</time></trkpt><trkpt lat="44.6284422285412" lon="9.09836089549048"><ele>719.3333333333334</ele><time>2026-04-25T13:42:11Z</time></trkpt><trkpt lat="44.62843552462391" lon="9.09850263132883"><ele>715.5</ele><time>2026-04-25T13:42:13Z</time></trkpt><trkpt lat="44.62842204704309" lon="9.09859266773943"><ele>711.6666666666666</ele><time>2026-04-25T13:42:14Z</time></trkpt><trkpt lat="44.628412317663255" lon="9.098694917145206"><ele>707.8333333333333</ele><time>2026-04-25T13:42:15Z</time></trkpt><trkpt lat="44.62840620146097" lon="9.098794461488222"><ele>704.0</ele><time>2026-04-25T13:42:16Z</time></trkpt><trkpt lat="44.628417231804754" lon="9.098929775831925"><ele>704.0</ele><time>2026-04-25T13:42:18Z</time></trkpt><trkpt lat="44.62848960187857" lon="9.099000128086619"><ele>704.0</ele><time>2026-04-25T13:42:21Z</time></trkpt><trkpt lat="44.6286143645785" lon="9.099027546133264"><ele>704.0</ele><time>2026-04-25T13:42:23Z</time></trkpt><trkpt lat="44.628709007354416" lon="9.099049004578681"><ele>704.0</ele><time>2026-04-25T13:42:24Z</time></trkpt><trkpt lat="44.628810447561484" lon="9.099064883807834"><ele>704.0</ele><time>2026-04-25T13:42:25Z</time></trkpt><trkpt lat="44.62888745981418" lon="9.099075130257921"><ele>704.5</ele><time>2026-04-25T13:42:26Z</time></trkpt><trkpt lat="44.62896720253998" lon="9.099083320431172"><ele>705.0</ele><time>2026-04-25T13:42:27Z</time></trkpt><trkpt lat="44.62906576597269" lon="9.0990932958754"><ele>705.5</ele><time>2026-04-25T13:42:28Z</time></trkpt><trkpt lat="44.6291715537812" lon="9.09910780714151"><ele>706.0</ele><time>2026-04-25T13:42:29Z</time></trkpt><trkpt lat="44.629261054616634" lon="9.099114203925062"><ele>706.5</ele><time>2026-04-25T13:42:30Z</time></trkpt><trkpt lat="44.62933130623565" lon="9.099101599275174"><ele>707.0</ele><time>2026-04-25T13:42:31Z</time></trkpt><trkpt lat="44.6293868908928" lon="9.099053321819687"><ele>709.6</ele><time>2026-04-25T13:42:32Z</time></trkpt><trkpt lat="44.629447420519426" lon="9.098937498385563"><ele>712.2</ele><time>2026-04-25T13:42:34Z</time></trkpt><trkpt lat="44.6293943164703" lon="9.099039656092769"><ele>714.8</ele><time>2026-04-25T13:42:48Z</time></trkpt><trkpt lat="44.62941572571471" lon="9.098895234331968"><ele>717.4</ele><time>2026-04-25T13:42:49Z</time></trkpt><trkpt lat="44.62935731024226" lon="9.09883760323511"><ele>720.0</ele><time>2026-04-25T13:42:51Z</time></trkpt><trkpt lat="44.62931238855059" lon="9.098733762871985"><ele>720.0</ele><time>2026-04-25T13:42:52Z</time></trkpt><trkpt lat="44.62926401075653" lon="9.098668042888832"><ele>720.0</ele><time>2026-04-25T13:42:53Z</time></trkpt><trkpt lat="44.62892213674887" lon="9.099016302969513"><ele>720.0</ele><time>2026-04-25T13:42:54Z</time></trkpt><trkpt lat="44.62883682511209" lon="9.099010068490863"><ele>720.0</ele><time>2026-04-25T13:42:55Z</time></trkpt><trkpt lat="44.62875276871673" lon="9.099002779579013"><ele>720.0</ele><time>2026-04-25T13:42:56Z</time></trkpt><trkpt lat="44.62867250463231" lon="9.098985446263155"><ele>720.0</ele><time>2026-04-25T13:42:57Z</time></trkpt><trkpt lat="44.628595775823136" lon="9.098970180228504"><ele>720.0</ele><time>2026-04-25T13:42:58Z</time></trkpt><trkpt lat="44.62852212001676" lon="9.098952832393227"><ele>720.0</ele><time>2026-04-25T13:42:59Z</time></trkpt><trkpt lat="44.62845892836678" lon="9.098922980647293"><ele>717.4</ele><time>2026-04-25T13:43:00Z</time></trkpt><trkpt lat="44.62838949673976" lon="9.09897674610981"><ele>714.8</ele><time>2026-04-25T13:43:02Z</time></trkpt><trkpt lat="44.62843366473471" lon="9.099111034059852"><ele>712.2</ele><time>2026-04-25T13:43:04Z</time></trkpt><trkpt lat="44.628486235629104" lon="9.099171185524588"><ele>709.6</ele><time>2026-04-25T13:43:05Z</time></trkpt><trkpt lat="44.62862848386699" lon="9.099300924413278"><ele>707.0</ele><time>2026-04-25T13:43:07Z</time></trkpt><trkpt lat="44.628699849423974" lon="9.0993754175913"><ele>707.0</ele><time>2026-04-25T13:43:08Z</time></trkpt><trkpt lat="44.62876616518114" lon="9.09945067911123"><ele>707.0</ele><time>2026-04-25T13:43:09Z</time></trkpt><trkpt lat="44.628830184907194" lon="9.099517161431228"><ele>707.0</ele><time>2026-04-25T13:43:10Z</time></trkpt><trkpt lat="44.62889625393814" lon="9.099581521203413"><ele>707.0</ele><time>2026-04-25T13:43:11Z</time></trkpt><trkpt lat="44.62895883468099" lon="9.099652024165762"><ele>707.0</ele><time>2026-04-25T13:43:12Z</time></trkpt><trkpt lat="44.62902309655887" lon="9.099717594404504"><ele>707.0</ele><time>2026-04-25T13:43:13Z</time></trkpt><trkpt lat="44.62909555415868" lon="9.099784970639853"><ele>707.0</ele><time>2026-04-25T13:43:14Z</time></trkpt><trkpt lat="44.62916433219061" lon="9.099848215938518"><ele>707.0</ele><time>2026-04-25T13:43:15Z</time></trkpt><trkpt lat="44.629231628728284" lon="9.099919515509754"><ele>707.0</ele><time>2026-04-25T13:43:16Z</time></trkpt><trkpt lat="44.62930321587307" lon="9.099996371301152"><ele>707.0</ele><time>2026-04-25T13:43:17Z</time></trkpt><trkpt lat="44.62937386928708" lon="9.100063154876194"><ele>707.0</ele><time>2026-04-25T13:43:18Z</time></trkpt><trkpt lat="44.629444014307836" lon="9.100129748633643"><ele>707.0</ele><time>2026-04-25T13:43:19Z</time></trkpt><trkpt lat="44.629523130863696" lon="9.10019377921257"><ele>705.4000000000001</ele><time>2026-04-25T13:43:20Z</time></trkpt><trkpt lat="44.62959703411074" lon="9.100250200675069"><ele>703.8000000000001</ele><time>2026-04-25T13:43:21Z</time></trkpt><trkpt lat="44.62967316672763" lon="9.100302688550181"><ele>702.2</ele><time>2026-04-25T13:43:22Z</time></trkpt><trkpt lat="44.62975791499079" lon="9.100370641971097"><ele>700.6</ele><time>2026-04-25T13:43:23Z</time></trkpt><trkpt lat="44.62984200517925" lon="9.100451234385663"><ele>699.0</ele><time>2026-04-25T13:43:24Z</time></trkpt><trkpt lat="44.62993239622977" lon="9.100541566072547"><ele>699.0</ele><time>2026-04-25T13:43:25Z</time></trkpt><trkpt lat="44.629984048156196" lon="9.100702232175117"><ele>699.0</ele><time>2026-04-25T13:43:26Z</time></trkpt><trkpt lat="44.630063632054664" lon="9.100801678267638"><ele>699.0</ele><time>2026-04-25T13:43:27Z</time></trkpt><trkpt lat="44.630158559719334" lon="9.100902020707979"><ele>699.0</ele><time>2026-04-25T13:43:28Z</time></trkpt><trkpt lat="44.63027550887247" lon="9.10100657772902"><ele>699.5</ele><time>2026-04-25T13:43:29Z</time></trkpt><trkpt lat="44.63037940710832" lon="9.10111794306744"><ele>700.0</ele><time>2026-04-25T13:43:30Z</time></trkpt><trkpt lat="44.63047257057205" lon="9.101228080899833"><ele>700.5</ele><time>2026-04-25T13:43:31Z</time></trkpt><trkpt lat="44.63056640949306" lon="9.101334315317226"><ele>701.0</ele><time>2026-04-25T13:43:32Z</time></trkpt><trkpt lat="44.6306717977732" lon="9.101419914255791"><ele>701.0</ele><time>2026-04-25T13:43:33Z</time></trkpt><trkpt lat="44.630779840975066" lon="9.101506276907163"><ele>701.0</ele><time>2026-04-25T13:43:34Z</time></trkpt><trkpt lat="44.63088522254186" lon="9.101605123327076"><ele>701.0</ele><time>2026-04-25T13:43:35Z</time></trkpt><trkpt lat="44.63100453642974" lon="9.101693410580895"><ele>701.0</ele><time>2026-04-25T13:43:36Z</time></trkpt><trkpt lat="44.631124960063474" lon="9.101784686838851"><ele>697.5</ele><time>2026-04-25T13:43:37Z</time></trkpt><trkpt lat="44.63124043586345" lon="9.101872212828686"><ele>694.0</ele><time>2026-04-25T13:43:38Z</time></trkpt><trkpt lat="44.63135042463046" lon="9.101952211707546"><ele>690.5</ele><time>2026-04-25T13:43:39Z</time></trkpt><trkpt lat="44.63145408954274" lon="9.102029576396676"><ele>687.0</ele><time>2026-04-25T13:43:40Z</time></trkpt><trkpt lat="44.63154814842598" lon="9.102113057373023"><ele>687.0</ele><time>2026-04-25T13:43:41Z</time></trkpt><trkpt lat="44.63162970773819" lon="9.102211469825416"><ele>687.0</ele><time>2026-04-25T13:43:42Z</time></trkpt><trkpt lat="44.63170419595269" lon="9.10235099225384"><ele>687.0</ele><time>2026-04-25T13:43:43Z</time></trkpt><trkpt lat="44.631785781117195" lon="9.102514665331551"><ele>687.0</ele><time>2026-04-25T13:43:44Z</time></trkpt><trkpt lat="44.63186274332872" lon="9.102668446500964"><ele>682.8</ele><time>2026-04-25T13:43:45Z</time></trkpt><trkpt lat="44.631941416702624" lon="9.102808245178329"><ele>678.6</ele><time>2026-04-25T13:43:46Z</time></trkpt><trkpt lat="44.6320091821536" lon="9.102915359626762"><ele>674.4</ele><time>2026-04-25T13:43:47Z</time></trkpt><trkpt lat="44.63208500127091" lon="9.103012173381481"><ele>670.1999999999999</ele><time>2026-04-25T13:43:48Z</time></trkpt><trkpt lat="44.63217404926705" lon="9.103083437397562"><ele>666.0</ele><time>2026-04-25T13:43:49Z</time></trkpt><trkpt lat="44.632263390557945" lon="9.103132622394568"><ele>666.0</ele><time>2026-04-25T13:43:50Z</time></trkpt><trkpt lat="44.63235756605146" lon="9.103186231943202"><ele>666.0</ele><time>2026-04-25T13:43:51Z</time></trkpt><trkpt lat="44.63244818287282" lon="9.103239390913409"><ele>666.0</ele><time>2026-04-25T13:43:52Z</time></trkpt><trkpt lat="44.63253459165506" lon="9.103281029995669"><ele>666.0</ele><time>2026-04-25T13:43:53Z</time></trkpt><trkpt lat="44.63262617552621" lon="9.103299710390127"><ele>666.0</ele><time>2026-04-25T13:43:54Z</time></trkpt><trkpt lat="44.63272057632664" lon="9.103300345154949"><ele>665.1666666666666</ele><time>2026-04-25T13:43:55Z</time></trkpt><trkpt lat="44.63281418064015" lon="9.103291597857536"><ele>664.3333333333334</ele><time>2026-04-25T13:43:56Z</time></trkpt><trkpt lat="44.63289721093869" lon="9.103263858638243"><ele>663.5</ele><time>2026-04-25T13:43:57Z</time></trkpt><trkpt lat="44.63296789234318" lon="9.103214700203372"><ele>662.6666666666667</ele><time>2026-04-25T13:43:58Z</time></trkpt><trkpt lat="44.633073719398496" lon="9.103184120975296"><ele>661.8333333333334</ele><time>2026-04-25T13:44:00Z</time></trkpt><trkpt lat="44.63313444063661" lon="9.103243496884264"><ele>661.0</ele><time>2026-04-25T13:44:02Z</time></trkpt><trkpt lat="44.633210295467954" lon="9.103397532365026"><ele>661.0</ele><time>2026-04-25T13:44:04Z</time></trkpt><trkpt lat="44.63323327647803" lon="9.10351493424092"><ele>661.0</ele><time>2026-04-25T13:44:05Z</time></trkpt><trkpt lat="44.63325235661333" lon="9.103638965318646"><ele>661.0</ele><time>2026-04-25T13:44:06Z</time></trkpt><trkpt lat="44.63329306063274" lon="9.103741272016034"><ele>661.0</ele><time>2026-04-25T13:44:07Z</time></trkpt><trkpt lat="44.63335481072473" lon="9.103824453555015"><ele>661.0</ele><time>2026-04-25T13:44:08Z</time></trkpt><trkpt lat="44.63342440445293" lon="9.103878014352974"><ele>661.0</ele><time>2026-04-25T13:44:09Z</time></trkpt><trkpt lat="44.633507768167426" lon="9.103898043936882"><ele>661.0</ele><time>2026-04-25T13:44:10Z</time></trkpt><trkpt lat="44.63360286496902" lon="9.103911887395551"><ele>661.0</ele><time>2026-04-25T13:44:11Z</time></trkpt><trkpt lat="44.633699774866336" lon="9.1039273047999"><ele>661.0</ele><time>2026-04-25T13:44:12Z</time></trkpt><trkpt lat="44.63380512436194" lon="9.103939975079475"><ele>661.0</ele><time>2026-04-25T13:44:13Z</time></trkpt><trkpt lat="44.63390947071851" lon="9.103933572976237"><ele>661.0</ele><time>2026-04-25T13:44:14Z</time></trkpt><trkpt lat="44.63400340465673" lon="9.103918450084045"><ele>661.0</ele><time>2026-04-25T13:44:15Z</time></trkpt><trkpt lat="44.63407712714047" lon="9.103905296072432"><ele>661.0</ele><time>2026-04-25T13:44:16Z</time></trkpt><trkpt lat="44.6341942558715" lon="9.10396083602479"><ele>661.0</ele><time>2026-04-25T13:44:18Z</time></trkpt><trkpt lat="44.6342585856779" lon="9.10401748191968"><ele>661.0</ele><time>2026-04-25T13:44:19Z</time></trkpt><trkpt lat="44.634327721165135" lon="9.104049630775497"><ele>661.0</ele><time>2026-04-25T13:44:20Z</time></trkpt><trkpt lat="44.63441111028608" lon="9.104024722664976"><ele>661.0</ele><time>2026-04-25T13:44:21Z</time></trkpt><trkpt lat="44.63447373182205" lon="9.103929435817966"><ele>661.0</ele><time>2026-04-25T13:44:22Z</time></trkpt><trkpt lat="44.634533271415854" lon="9.103871248553421"><ele>661.0</ele><time>2026-04-25T13:44:23Z</time></trkpt><trkpt lat="44.63464157743337" lon="9.103836538977577"><ele>661.0</ele><time>2026-04-25T13:44:25Z</time></trkpt><trkpt lat="44.6347203777212" lon="9.10395616511599"><ele>661.0</ele><time>2026-04-25T13:44:27Z</time></trkpt><trkpt lat="44.63478005952588" lon="9.104057246486281"><ele>661.0</ele><time>2026-04-25T13:44:28Z</time></trkpt><trkpt lat="44.63484717188012" lon="9.104161326100888"><ele>656.1999999999999</ele><time>2026-04-25T13:44:29Z</time></trkpt><trkpt lat="44.63493093470359" lon="9.10424213808894"><ele>651.4</ele><time>2026-04-25T13:44:30Z</time></trkpt><trkpt lat="44.635014991090266" lon="9.10428600128475"><ele>646.6</ele><time>2026-04-25T13:44:31Z</time></trkpt><trkpt lat="44.63508703798277" lon="9.104341226021566"><ele>641.8</ele><time>2026-04-25T13:44:32Z</time></trkpt><trkpt lat="44.635147285645075" lon="9.104425818850428"><ele>637.0</ele><time>2026-04-25T13:44:33Z</time></trkpt><trkpt lat="44.63521819796965" lon="9.10453343222609"><ele>637.0</ele><time>2026-04-25T13:44:34Z</time></trkpt><trkpt lat="44.63528803352916" lon="9.104648297228787"><ele>637.0</ele><time>2026-04-25T13:44:35Z</time></trkpt><trkpt lat="44.63534606821349" lon="9.104761711313232"><ele>637.0</ele><time>2026-04-25T13:44:36Z</time></trkpt><trkpt lat="44.63539687019159" lon="9.104874782614285"><ele>637.0</ele><time>2026-04-25T13:44:37Z</time></trkpt><trkpt lat="44.6354510368524" lon="9.104991347407122"><ele>637.0</ele><time>2026-04-25T13:44:38Z</time></trkpt><trkpt lat="44.63552996122435" lon="9.105112716674633"><ele>637.5</ele><time>2026-04-25T13:44:39Z</time></trkpt><trkpt lat="44.635626960534154" lon="9.105237388516423"><ele>638.0</ele><time>2026-04-25T13:44:40Z</time></trkpt><trkpt lat="44.63572556856824" lon="9.105364128180888"><ele>638.5</ele><time>2026-04-25T13:44:41Z</time></trkpt><trkpt lat="44.635822951789564" lon="9.105496822979356"><ele>639.0</ele><time>2026-04-25T13:44:42Z</time></trkpt><trkpt lat="44.6359148331053" lon="9.105623361920697"><ele>639.0</ele><time>2026-04-25T13:44:43Z</time></trkpt><trkpt lat="44.63600415548546" lon="9.105742900458495"><ele>639.0</ele><time>2026-04-25T13:44:44Z</time></trkpt><trkpt lat="44.63609263064768" lon="9.105848544680008"><ele>639.0</ele><time>2026-04-25T13:44:45Z</time></trkpt><trkpt lat="44.636174691431556" lon="9.105931304513918"><ele>639.0</ele><time>2026-04-25T13:44:46Z</time></trkpt><trkpt lat="44.63625303293494" lon="9.105996218660188"><ele>639.0</ele><time>2026-04-25T13:44:47Z</time></trkpt><trkpt lat="44.63634382387124" lon="9.106051273360963"><ele>637.8</ele><time>2026-04-25T13:44:48Z</time></trkpt><trkpt lat="44.636449669227055" lon="9.106093409700055"><ele>636.5999999999999</ele><time>2026-04-25T13:44:49Z</time></trkpt><trkpt lat="44.63655329128545" lon="9.106131760126008"><ele>635.4</ele><time>2026-04-25T13:44:50Z</time></trkpt><trkpt lat="44.63663860806172" lon="9.106171066655323"><ele>634.1999999999999</ele><time>2026-04-25T13:44:51Z</time></trkpt><trkpt lat="44.63670417392324" lon="9.106206018741002"><ele>633.0</ele><time>2026-04-25T13:44:52Z</time></trkpt><trkpt lat="44.636775667443295" lon="9.106332416533721"><ele>633.0</ele><time>2026-04-25T13:44:54Z</time></trkpt><trkpt lat="44.6368045138744" lon="9.106426851819585"><ele>633.0</ele><time>2026-04-25T13:44:55Z</time></trkpt><trkpt lat="44.63683411962567" lon="9.106538402864508"><ele>633.0</ele><time>2026-04-25T13:44:56Z</time></trkpt><trkpt lat="44.636879971706854" lon="9.106659112431633"><ele>633.0</ele><time>2026-04-25T13:44:57Z</time></trkpt><trkpt lat="44.636946356362046" lon="9.106773423623139"><ele>633.0</ele><time>2026-04-25T13:44:58Z</time></trkpt><trkpt lat="44.63701288691862" lon="9.106872023871244"><ele>631.0</ele><time>2026-04-25T13:44:59Z</time></trkpt><trkpt lat="44.63706471559431" lon="9.106937524569142"><ele>629.0</ele><time>2026-04-25T13:45:00Z</time></trkpt><trkpt lat="44.637137103928126" lon="9.106994734552046"><ele>627.0</ele><time>2026-04-25T13:45:01Z</time></trkpt><trkpt lat="44.6372171498177" lon="9.10704367944496"><ele>625.0</ele><time>2026-04-25T13:45:02Z</time></trkpt><trkpt lat="44.6373053376858" lon="9.107087095765737"><ele>623.0</ele><time>2026-04-25T13:45:03Z</time></trkpt><trkpt lat="44.637398385359674" lon="9.107122659813996"><ele>621.0</ele><time>2026-04-25T13:45:04Z</time></trkpt><trkpt lat="44.637495333679695" lon="9.107157577994743"><ele>621.0</ele><time>2026-04-25T13:45:05Z</time></trkpt><trkpt lat="44.63759419008685" lon="9.107188165966598"><ele>621.0</ele><time>2026-04-25T13:45:06Z</time></trkpt><trkpt lat="44.63769023628368" lon="9.107218186085625"><ele>621.0</ele><time>2026-04-25T13:45:07Z</time></trkpt><trkpt lat="44.63777611378155" lon="9.107258103050773"><ele>621.0</ele><time>2026-04-25T13:45:08Z</time></trkpt><trkpt lat="44.637855039934266" lon="9.107327649971129"><ele>621.0</ele><time>2026-04-25T13:45:09Z</time></trkpt><trkpt lat="44.637937621148716" lon="9.107420415239002"><ele>618.8</ele><time>2026-04-25T13:45:10Z</time></trkpt><trkpt lat="44.63801488758866" lon="9.107525678742842"><ele>616.6</ele><time>2026-04-25T13:45:11Z</time></trkpt><trkpt lat="44.63808752260418" lon="9.107632705261395"><ele>614.4</ele><time>2026-04-25T13:45:12Z</time></trkpt><trkpt lat="44.63813867570201" lon="9.10774559217018"><ele>612.2</ele><time>2026-04-25T13:45:13Z</time></trkpt><trkpt lat="44.63819348726355" lon="9.10786061643192"><ele>610.0</ele><time>2026-04-25T13:45:14Z</time></trkpt><trkpt lat="44.63826144818653" lon="9.107962967993807"><ele>610.0</ele><time>2026-04-25T13:45:15Z</time></trkpt><trkpt lat="44.63835456367361" lon="9.1080560307617"><ele>610.0</ele><time>2026-04-25T13:45:16Z</time></trkpt><trkpt lat="44.63845433064102" lon="9.108152577402862"><ele>610.0</ele><time>2026-04-25T13:45:17Z</time></trkpt><trkpt lat="44.63855642509805" lon="9.108249531427747"><ele>610.0</ele><time>2026-04-25T13:45:18Z</time></trkpt><trkpt lat="44.63865768269244" lon="9.108345691060684"><ele>609.25</ele><time>2026-04-25T13:45:19Z</time></trkpt><trkpt lat="44.63876276141681" lon="9.108442547737228"><ele>608.5</ele><time>2026-04-25T13:45:20Z</time></trkpt><trkpt lat="44.63886956315319" lon="9.108533252194112"><ele>607.75</ele><time>2026-04-25T13:45:21Z</time></trkpt><trkpt lat="44.63897273774717" lon="9.108607221841426"><ele>607.0</ele><time>2026-04-25T13:45:22Z</time></trkpt><trkpt lat="44.63906994203145" lon="9.108679427767447"><ele>607.0</ele><time>2026-04-25T13:45:23Z</time></trkpt><trkpt lat="44.63916771313676" lon="9.108735567220814"><ele>607.0</ele><time>2026-04-25T13:45:24Z</time></trkpt><trkpt lat="44.63927737841099" lon="9.108774823783072"><ele>607.0</ele><time>2026-04-25T13:45:25Z</time></trkpt><trkpt lat="44.639394991557076" lon="9.108802562548004"><ele>607.0</ele><time>2026-04-25T13:45:26Z</time></trkpt><trkpt lat="44.63951174511855" lon="9.108828305165668"><ele>609.4</ele><time>2026-04-25T13:45:27Z</time></trkpt><trkpt lat="44.63962831471984" lon="9.10885583106196"><ele>611.8000000000001</ele><time>2026-04-25T13:45:28Z</time></trkpt><trkpt lat="44.63973538118343" lon="9.108890636430418"><ele>614.2</ele><time>2026-04-25T13:45:29Z</time></trkpt><trkpt lat="44.639835646087164" lon="9.10891603734317"><ele>616.6</ele><time>2026-04-25T13:45:30Z</time></trkpt><trkpt lat="44.639939630146195" lon="9.108923184890076"><ele>619.0</ele><time>2026-04-25T13:45:31Z</time></trkpt><trkpt lat="44.640043267202834" lon="9.108923315219634"><ele>619.0</ele><time>2026-04-25T13:45:32Z</time></trkpt><trkpt lat="44.64015147070653" lon="9.108916720134065"><ele>619.0</ele><time>2026-04-25T13:45:33Z</time></trkpt><trkpt lat="44.640255170188546" lon="9.108915215220028"><ele>619.0</ele><time>2026-04-25T13:45:34Z</time></trkpt><trkpt lat="44.640355046693934" lon="9.108918153758486"><ele>619.0</ele><time>2026-04-25T13:45:35Z</time></trkpt><trkpt lat="44.640451916887756" lon="9.108931891003257"><ele>619.0</ele><time>2026-04-25T13:45:36Z</time></trkpt><trkpt lat="44.64054565895656" lon="9.108958040830093"><ele>621.0</ele><time>2026-04-25T13:45:37Z</time></trkpt><trkpt lat="44.64063894213233" lon="9.108989219998525"><ele>623.0</ele><time>2026-04-25T13:45:38.001Z</time></trkpt><trkpt lat="44.64072788865479" lon="9.109023348844813"><ele>625.0</ele><time>2026-04-25T13:45:39.001Z</time></trkpt><trkpt lat="44.64082216716371" lon="9.109061865939847"><ele>627.0</ele><time>2026-04-25T13:45:40.001Z</time></trkpt><trkpt lat="44.640914365908024" lon="9.109106141110967"><ele>629.0</ele><time>2026-04-25T13:45:41.001Z</time></trkpt><trkpt lat="44.640998871066664" lon="9.109156178683609"><ele>623.4</ele><time>2026-04-25T13:45:42.001Z</time></trkpt><trkpt lat="44.64108433075007" lon="9.109210155912077"><ele>617.8</ele><time>2026-04-25T13:45:43.001Z</time></trkpt><trkpt lat="44.641173702645375" lon="9.10926843126407"><ele>612.2</ele><time>2026-04-25T13:45:44.001Z</time></trkpt><trkpt lat="44.64126608661903" lon="9.109327115236384"><ele>606.6</ele><time>2026-04-25T13:45:45Z</time></trkpt><trkpt lat="44.64135467343557" lon="9.1093830590155"><ele>601.0</ele><time>2026-04-25T13:45:46Z</time></trkpt><trkpt lat="44.6414414717362" lon="9.109428507730998"><ele>601.0</ele><time>2026-04-25T13:45:47Z</time></trkpt><trkpt lat="44.64152029642591" lon="9.109478922848398"><ele>601.0</ele><time>2026-04-25T13:45:48Z</time></trkpt><trkpt lat="44.64159412811058" lon="9.109540892979002"><ele>601.0</ele><time>2026-04-25T13:45:49Z</time></trkpt><trkpt lat="44.6416693415231" lon="9.109597897703365"><ele>601.0</ele><time>2026-04-25T13:45:50Z</time></trkpt><trkpt lat="44.64175552467227" lon="9.109632928583702"><ele>601.0</ele><time>2026-04-25T13:45:51Z</time></trkpt><trkpt lat="44.64183057184393" lon="9.109679529412196"><ele>601.0</ele><time>2026-04-25T13:45:52Z</time></trkpt><trkpt lat="44.64189850083517" lon="9.109756831855465"><ele>600.1666666666667</ele><time>2026-04-25T13:45:53Z</time></trkpt><trkpt lat="44.64197717189" lon="9.109791088817456"><ele>599.3333333333334</ele><time>2026-04-25T13:45:54Z</time></trkpt><trkpt lat="44.64205423520455" lon="9.10984267105783"><ele>598.5</ele><time>2026-04-25T13:45:55Z</time></trkpt><trkpt lat="44.642125421182044" lon="9.109898066764316"><ele>597.6666666666666</ele><time>2026-04-25T13:45:56Z</time></trkpt><trkpt lat="44.64220417000252" lon="9.109943857661655"><ele>596.8333333333333</ele><time>2026-04-25T13:45:57Z</time></trkpt><trkpt lat="44.64227883239243" lon="9.109991140279204"><ele>596.0</ele><time>2026-04-25T13:45:58Z</time></trkpt><trkpt lat="44.6423653445011" lon="9.110048069253004"><ele>596.0</ele><time>2026-04-25T13:45:59Z</time></trkpt><trkpt lat="44.64243237628025" lon="9.110094449499298"><ele>596.0</ele><time>2026-04-25T13:46:00Z</time></trkpt><trkpt lat="44.64250162729632" lon="9.110169055662155"><ele>596.0</ele><time>2026-04-25T13:46:01Z</time></trkpt><trkpt lat="44.64256415376814" lon="9.110247576261798"><ele>596.0</ele><time>2026-04-25T13:46:02Z</time></trkpt><trkpt lat="44.64261952829118" lon="9.110342582486636"><ele>596.0</ele><time>2026-04-25T13:46:03Z</time></trkpt><trkpt lat="44.64267451040366" lon="9.11043765023679"><ele>596.0</ele><time>2026-04-25T13:46:04Z</time></trkpt><trkpt lat="44.642736633020654" lon="9.110523466691804"><ele>595.0</ele><time>2026-04-25T13:46:05Z</time></trkpt><trkpt lat="44.64280124983517" lon="9.110609343917364"><ele>594.0</ele><time>2026-04-25T13:46:06Z</time></trkpt><trkpt lat="44.64287083691328" lon="9.11068686318286"><ele>593.0</ele><time>2026-04-25T13:46:07Z</time></trkpt><trkpt lat="44.642941072798045" lon="9.110762022473935"><ele>592.0</ele><time>2026-04-25T13:46:08Z</time></trkpt><trkpt lat="44.643001664038685" lon="9.110850596024564"><ele>591.0</ele><time>2026-04-25T13:46:09Z</time></trkpt><trkpt lat="44.64305766440324" lon="9.1109314874997"><ele>590.0</ele><time>2026-04-25T13:46:10Z</time></trkpt><trkpt lat="44.643087080593375" lon="9.111041198932947"><ele>590.0</ele><time>2026-04-25T13:46:11Z</time></trkpt><trkpt lat="44.64312930942952" lon="9.111142337697498"><ele>590.0</ele><time>2026-04-25T13:46:12Z</time></trkpt><trkpt lat="44.64316871441901" lon="9.111240965795993"><ele>590.0</ele><time>2026-04-25T13:46:13Z</time></trkpt><trkpt lat="44.64322030795385" lon="9.11133546530611"><ele>590.0</ele><time>2026-04-25T13:46:14Z</time></trkpt><trkpt lat="44.64326170801869" lon="9.111435583370966"><ele>590.0</ele><time>2026-04-25T13:46:15Z</time></trkpt><trkpt lat="44.64329604008771" lon="9.111536924533079"><ele>590.0</ele><time>2026-04-25T13:46:16Z</time></trkpt><trkpt lat="44.64336249177317" lon="9.11160434819042"><ele>588.6666666666666</ele><time>2026-04-25T13:46:17Z</time></trkpt><trkpt lat="44.643406134254256" lon="9.11169620260642"><ele>587.3333333333333</ele><time>2026-04-25T13:46:18Z</time></trkpt><trkpt lat="44.64346529268936" lon="9.111774576707129"><ele>586.0</ele><time>2026-04-25T13:46:19Z</time></trkpt><trkpt lat="44.64352729734274" lon="9.111846633057018"><ele>584.6666666666666</ele><time>2026-04-25T13:46:20Z</time></trkpt><trkpt lat="44.643593350767745" lon="9.11190476510694"><ele>583.3333333333334</ele><time>2026-04-25T13:46:21Z</time></trkpt><trkpt lat="44.643662111893995" lon="9.11195040896901"><ele>582.0</ele><time>2026-04-25T13:46:22Z</time></trkpt><trkpt lat="44.64373151781862" lon="9.111980004254931"><ele>582.0</ele><time>2026-04-25T13:46:23Z</time></trkpt><trkpt lat="44.64381179570046" lon="9.111994188257972"><ele>582.0</ele><time>2026-04-25T13:46:24Z</time></trkpt><trkpt lat="44.643890319546784" lon="9.112001056982326"><ele>582.0</ele><time>2026-04-25T13:46:25Z</time></trkpt><trkpt lat="44.64397569259863" lon="9.112002531579263"><ele>582.0</ele><time>2026-04-25T13:46:26Z</time></trkpt><trkpt lat="44.644062443733475" lon="9.112006705639354"><ele>582.0</ele><time>2026-04-25T13:46:27Z</time></trkpt><trkpt lat="44.644154758557264" lon="9.112014970023875"><ele>582.0</ele><time>2026-04-25T13:46:28Z</time></trkpt><trkpt lat="44.64424875434668" lon="9.112033503739077"><ele>582.0</ele><time>2026-04-25T13:46:29Z</time></trkpt><trkpt lat="44.64434915045199" lon="9.112055486406932"><ele>582.0</ele><time>2026-04-25T13:46:30Z</time></trkpt><trkpt lat="44.64445497612641" lon="9.112073481058541"><ele>582.0</ele><time>2026-04-25T13:46:31Z</time></trkpt><trkpt lat="44.64456650856598" lon="9.112068763532628"><ele>582.0</ele><time>2026-04-25T13:46:32Z</time></trkpt><trkpt lat="44.6446733920167" lon="9.112043993151444"><ele>582.0</ele><time>2026-04-25T13:46:33Z</time></trkpt><trkpt lat="44.644776721790265" lon="9.112018292456112"><ele>581.6</ele><time>2026-04-25T13:46:34Z</time></trkpt><trkpt lat="44.64487866445787" lon="9.111998803856116"><ele>581.2</ele><time>2026-04-25T13:46:35Z</time></trkpt><trkpt lat="44.64498046601576" lon="9.111992117214474"><ele>580.8</ele><time>2026-04-25T13:46:36Z</time></trkpt><trkpt lat="44.64508709431119" lon="9.112023301936631"><ele>580.4</ele><time>2026-04-25T13:46:37Z</time></trkpt><trkpt lat="44.6452056796033" lon="9.112044157028079"><ele>580.0</ele><time>2026-04-25T13:46:38Z</time></trkpt><trkpt lat="44.64531015349689" lon="9.112056324159862"><ele>581.75</ele><time>2026-04-25T13:46:39Z</time></trkpt><trkpt lat="44.645424413468" lon="9.112069833583305"><ele>583.5</ele><time>2026-04-25T13:46:40Z</time></trkpt><trkpt lat="44.645538325550696" lon="9.112092984010248"><ele>585.25</ele><time>2026-04-25T13:46:41Z</time></trkpt><trkpt lat="44.64565295105736" lon="9.112096404766005"><ele>587.0</ele><time>2026-04-25T13:46:42Z</time></trkpt><trkpt lat="44.645760860271196" lon="9.112122101799294"><ele>587.0</ele><time>2026-04-25T13:46:43Z</time></trkpt><trkpt lat="44.645868036021994" lon="9.11215802939885"><ele>587.0</ele><time>2026-04-25T13:46:44Z</time></trkpt><trkpt lat="44.64597778739676" lon="9.112161684034396"><ele>587.0</ele><time>2026-04-25T13:46:45Z</time></trkpt><trkpt lat="44.64607940007338" lon="9.112141264271031"><ele>587.0</ele><time>2026-04-25T13:46:46Z</time></trkpt><trkpt lat="44.646187722605006" lon="9.1121442656589"><ele>587.0</ele><time>2026-04-25T13:46:47Z</time></trkpt><trkpt lat="44.64629064722886" lon="9.11214930980243"><ele>588.0</ele><time>2026-04-25T13:46:48Z</time></trkpt><trkpt lat="44.64639012422117" lon="9.112157224023537"><ele>589.0</ele><time>2026-04-25T13:46:49Z</time></trkpt><trkpt lat="44.646478713964036" lon="9.1121797206972"><ele>590.0</ele><time>2026-04-25T13:46:50Z</time></trkpt><trkpt lat="44.646559578440225" lon="9.112215457439063"><ele>591.0</ele><time>2026-04-25T13:46:51Z</time></trkpt><trkpt lat="44.64663935786475" lon="9.112269819283524"><ele>592.0</ele><time>2026-04-25T13:46:52Z</time></trkpt><trkpt lat="44.646709327146105" lon="9.112350112535413"><ele>588.8000000000001</ele><time>2026-04-25T13:46:53Z</time></trkpt><trkpt lat="44.646762653627775" lon="9.112460596781283"><ele>585.6</ele><time>2026-04-25T13:46:54Z</time></trkpt><trkpt lat="44.64682837448071" lon="9.112556965780563"><ele>582.4000000000001</ele><time>2026-04-25T13:46:55Z</time></trkpt><trkpt lat="44.646911593725804" lon="9.112636378152125"><ele>579.2</ele><time>2026-04-25T13:46:56Z</time></trkpt><trkpt lat="44.646991015276406" lon="9.112717512099907"><ele>576.0</ele><time>2026-04-25T13:46:57Z</time></trkpt><trkpt lat="44.64706718744715" lon="9.112806508575824"><ele>576.0</ele><time>2026-04-25T13:46:58Z</time></trkpt><trkpt lat="44.647156938398155" lon="9.11287348361325"><ele>576.0</ele><time>2026-04-25T13:46:59Z</time></trkpt><trkpt lat="44.647245338063655" lon="9.112926999512913"><ele>576.0</ele><time>2026-04-25T13:47:00Z</time></trkpt><trkpt lat="44.64733647622538" lon="9.112984810233767"><ele>576.0</ele><time>2026-04-25T13:47:01Z</time></trkpt><trkpt lat="44.647427216266415" lon="9.113044086686628"><ele>576.0</ele><time>2026-04-25T13:47:02Z</time></trkpt><trkpt lat="44.647517404563715" lon="9.11310027537919"><ele>576.0</ele><time>2026-04-25T13:47:03Z</time></trkpt><trkpt lat="44.64760810324276" lon="9.113154444215002"><ele>576.0</ele><time>2026-04-25T13:47:04Z</time></trkpt><trkpt lat="44.6477037200315" lon="9.113205766641384"><ele>576.0</ele><time>2026-04-25T13:47:05Z</time></trkpt><trkpt lat="44.64780661003903" lon="9.113246954083877"><ele>576.0</ele><time>2026-04-25T13:47:06Z</time></trkpt><trkpt lat="44.64790337674265" lon="9.113249892272792"><ele>576.0</ele><time>2026-04-25T13:47:07Z</time></trkpt><trkpt lat="44.64800332625615" lon="9.113269527469063"><ele>577.0</ele><time>2026-04-25T13:47:08Z</time></trkpt><trkpt lat="44.648104391111865" lon="9.11328791259036"><ele>578.0</ele><time>2026-04-25T13:47:09Z</time></trkpt><trkpt lat="44.64820004196746" lon="9.113309591872921"><ele>579.0</ele><time>2026-04-25T13:47:10Z</time></trkpt><trkpt lat="44.64829251271335" lon="9.113311858763788"><ele>580.0</ele><time>2026-04-25T13:47:11Z</time></trkpt><trkpt lat="44.64838338361069" lon="9.113278896137839"><ele>581.0</ele><time>2026-04-25T13:47:12Z</time></trkpt><trkpt lat="44.64847494203932" lon="9.113210581076485"><ele>581.0</ele><time>2026-04-25T13:47:13Z</time></trkpt><trkpt lat="44.64857560727393" lon="9.113156724334274"><ele>581.0</ele><time>2026-04-25T13:47:14Z</time></trkpt><trkpt lat="44.64867516023957" lon="9.113122121775096"><ele>581.0</ele><time>2026-04-25T13:47:15Z</time></trkpt><trkpt lat="44.64878145108789" lon="9.113128303585162"><ele>581.0</ele><time>2026-04-25T13:47:16Z</time></trkpt><trkpt lat="44.64890256147346" lon="9.113155123716734"><ele>581.0</ele><time>2026-04-25T13:47:17Z</time></trkpt><trkpt lat="44.649031727135835" lon="9.113175141871631"><ele>580.6</ele><time>2026-04-25T13:47:18Z</time></trkpt><trkpt lat="44.649148726833836" lon="9.113197377250566"><ele>580.2</ele><time>2026-04-25T13:47:19Z</time></trkpt><trkpt lat="44.64925398418351" lon="9.113226192957793"><ele>579.8</ele><time>2026-04-25T13:47:20Z</time></trkpt><trkpt lat="44.649345161577884" lon="9.113274671134159"><ele>579.4</ele><time>2026-04-25T13:47:21Z</time></trkpt><trkpt lat="44.64944724683311" lon="9.11333986585391"><ele>579.0</ele><time>2026-04-25T13:47:22Z</time></trkpt><trkpt lat="44.649554539538755" lon="9.113389548803728"><ele>575.0</ele><time>2026-04-25T13:47:23Z</time></trkpt><trkpt lat="44.649651828102826" lon="9.11342941986936"><ele>571.0</ele><time>2026-04-25T13:47:24Z</time></trkpt><trkpt lat="44.649756414864534" lon="9.113480710578308"><ele>567.0</ele><time>2026-04-25T13:47:25Z</time></trkpt><trkpt lat="44.649863178355496" lon="9.113521129882551"><ele>563.0</ele><time>2026-04-25T13:47:26Z</time></trkpt><trkpt lat="44.64996227958676" lon="9.11360937825221"><ele>559.0</ele><time>2026-04-25T13:47:27Z</time></trkpt><trkpt lat="44.65007081922835" lon="9.113665641111535"><ele>559.0</ele><time>2026-04-25T13:47:28Z</time></trkpt><trkpt lat="44.65017099174708" lon="9.113759434698514"><ele>559.0</ele><time>2026-04-25T13:47:29Z</time></trkpt><trkpt lat="44.650282982508436" lon="9.113809751439039"><ele>559.0</ele><time>2026-04-25T13:47:30Z</time></trkpt><trkpt lat="44.65038016281137" lon="9.11388381586227"><ele>559.0</ele><time>2026-04-25T13:47:31Z</time></trkpt><trkpt lat="44.65048635361698" lon="9.113959486116615"><ele>559.8</ele><time>2026-04-25T13:47:32Z</time></trkpt><trkpt lat="44.650597542018225" lon="9.114044307049063"><ele>560.5999999999999</ele><time>2026-04-25T13:47:33Z</time></trkpt><trkpt lat="44.650707691525945" lon="9.114089151599122"><ele>561.4</ele><time>2026-04-25T13:47:34Z</time></trkpt><trkpt lat="44.65081098474388" lon="9.11409330015731"><ele>562.1999999999999</ele><time>2026-04-25T13:47:35Z</time></trkpt><trkpt lat="44.65091007601652" lon="9.114094703632976"><ele>563.0</ele><time>2026-04-25T13:47:36Z</time></trkpt><trkpt lat="44.65100491778496" lon="9.114072371436666"><ele>563.0</ele><time>2026-04-25T13:47:37Z</time></trkpt><trkpt lat="44.65108906966129" lon="9.1140404985719"><ele>563.0</ele><time>2026-04-25T13:47:38.001Z</time></trkpt><trkpt lat="44.651167025612835" lon="9.114002392311248"><ele>563.0</ele><time>2026-04-25T13:47:39.001Z</time></trkpt><trkpt lat="44.65124424899503" lon="9.11398198380437"><ele>563.0</ele><time>2026-04-25T13:47:40.001Z</time></trkpt><trkpt lat="44.65132495019545" lon="9.11399327776871"><ele>563.0</ele><time>2026-04-25T13:47:41.001Z</time></trkpt><trkpt lat="44.651403272820694" lon="9.114027534745025"><ele>563.0</ele><time>2026-04-25T13:47:42.001Z</time></trkpt><trkpt lat="44.65147819261317" lon="9.11407295039307"><ele>561.8333333333333</ele><time>2026-04-25T13:47:43.001Z</time></trkpt><trkpt lat="44.65155349954308" lon="9.114119318186228"><ele>560.6666666666666</ele><time>2026-04-25T13:47:44.001Z</time></trkpt><trkpt lat="44.651636336953864" lon="9.114163973610767"><ele>559.5</ele><time>2026-04-25T13:47:45.001Z</time></trkpt><trkpt lat="44.65171503401964" lon="9.114193325625077"><ele>558.3333333333334</ele><time>2026-04-25T13:47:46.001Z</time></trkpt><trkpt lat="44.65179098984181" lon="9.11419430457018"><ele>557.1666666666667</ele><time>2026-04-25T13:47:47.001Z</time></trkpt><trkpt lat="44.65186350719757" lon="9.11410497044799"><ele>556.0</ele><time>2026-04-25T13:47:48.001Z</time></trkpt><trkpt lat="44.65194083750292" lon="9.11407162086158"><ele>555.2</ele><time>2026-04-25T13:47:49.001Z</time></trkpt><trkpt lat="44.65201949893581" lon="9.11402591448042"><ele>554.4000000000001</ele><time>2026-04-25T13:47:50.001Z</time></trkpt><trkpt lat="44.65210774682784" lon="9.11398989013278"><ele>553.6</ele><time>2026-04-25T13:47:51.001Z</time></trkpt><trkpt lat="44.65220027539348" lon="9.11395556221079"><ele>552.8000000000001</ele><time>2026-04-25T13:47:52.001Z</time></trkpt><trkpt lat="44.65229172717539" lon="9.113919384915613"><ele>552.0</ele><time>2026-04-25T13:47:53.001Z</time></trkpt><trkpt lat="44.65237091973106" lon="9.113886877725433"><ele>552.0</ele><time>2026-04-25T13:47:54.001Z</time></trkpt><trkpt lat="44.65244608210227" lon="9.113860972773697"><ele>552.0</ele><time>2026-04-25T13:47:55.001Z</time></trkpt><trkpt lat="44.65252806478108" lon="9.11384537715818"><ele>552.0</ele><time>2026-04-25T13:47:56.001Z</time></trkpt><trkpt lat="44.65261333982695" lon="9.113862659101484"><ele>552.0</ele><time>2026-04-25T13:47:57.001Z</time></trkpt><trkpt lat="44.65270374973635" lon="9.113895453739058"><ele>552.0</ele><time>2026-04-25T13:47:58.001Z</time></trkpt><trkpt lat="44.65280003650383" lon="9.113935095646639"><ele>552.0</ele><time>2026-04-25T13:47:59.001Z</time></trkpt><trkpt lat="44.65290235937007" lon="9.113980286023537"><ele>551.4</ele><time>2026-04-25T13:48:00.001Z</time></trkpt><trkpt lat="44.65299656498123" lon="9.114029402630283"><ele>550.8000000000001</ele><time>2026-04-25T13:48:01.001Z</time></trkpt><trkpt lat="44.65308900712569" lon="9.11409613095555"><ele>550.2</ele><time>2026-04-25T13:48:02.001Z</time></trkpt><trkpt lat="44.65318224833811" lon="9.11417321348957"><ele>549.6</ele><time>2026-04-25T13:48:03.001Z</time></trkpt><trkpt lat="44.65326568029826" lon="9.114243827596544"><ele>549.0</ele><time>2026-04-25T13:48:04.001Z</time></trkpt><trkpt lat="44.65334823232039" lon="9.114297821376764"><ele>547.8</ele><time>2026-04-25T13:48:05.001Z</time></trkpt><trkpt lat="44.653442362447386" lon="9.114318373634916"><ele>546.5999999999999</ele><time>2026-04-25T13:48:06.001Z</time></trkpt><trkpt lat="44.653546634121405" lon="9.114263350715152"><ele>545.4</ele><time>2026-04-25T13:48:07.001Z</time></trkpt><trkpt lat="44.653638507928754" lon="9.114232656530595"><ele>544.1999999999999</ele><time>2026-04-25T13:48:08.001Z</time></trkpt><trkpt lat="44.65372884405144" lon="9.11420220196777"><ele>543.0</ele><time>2026-04-25T13:48:09.001Z</time></trkpt><trkpt lat="44.65381825648784" lon="9.114173960002034"><ele>542.0</ele><time>2026-04-25T13:48:10.001Z</time></trkpt><trkpt lat="44.65390960204767" lon="9.114154881158578"><ele>541.0</ele><time>2026-04-25T13:48:11.001Z</time></trkpt><trkpt lat="44.65400532154145" lon="9.11414864300663"><ele>540.0</ele><time>2026-04-25T13:48:12.001Z</time></trkpt><trkpt lat="44.65410941759696" lon="9.114143820076375"><ele>539.0</ele><time>2026-04-25T13:48:13.001Z</time></trkpt><trkpt lat="44.65421854140722" lon="9.114134351841239"><ele>538.0</ele><time>2026-04-25T13:48:14.001Z</time></trkpt><trkpt lat="44.65432821335666" lon="9.114129468789782"><ele>538.0</ele><time>2026-04-25T13:48:15.001Z</time></trkpt><trkpt lat="44.65444868552098" lon="9.114141641665634"><ele>538.0</ele><time>2026-04-25T13:48:16Z</time></trkpt><trkpt lat="44.65457224323826" lon="9.11416429097492"><ele>538.0</ele><time>2026-04-25T13:48:17Z</time></trkpt><trkpt lat="44.65470279291634" lon="9.11419770707055"><ele>538.0</ele><time>2026-04-25T13:48:18Z</time></trkpt><trkpt lat="44.65483110721264" lon="9.11421725097938"><ele>538.0</ele><time>2026-04-25T13:48:19Z</time></trkpt><trkpt lat="44.65495157483712" lon="9.114234507786824"><ele>538.0</ele><time>2026-04-25T13:48:20Z</time></trkpt><trkpt lat="44.65506859355688" lon="9.114247106868289"><ele>538.0</ele><time>2026-04-25T13:48:21Z</time></trkpt><trkpt lat="44.65518829492425" lon="9.114250587515148"><ele>538.0</ele><time>2026-04-25T13:48:22Z</time></trkpt><trkpt lat="44.6553191408525" lon="9.114229286249532"><ele>538.0</ele><time>2026-04-25T13:48:23Z</time></trkpt><trkpt lat="44.655454729331204" lon="9.114201784283626"><ele>538.0</ele><time>2026-04-25T13:48:24Z</time></trkpt><trkpt lat="44.655592287493214" lon="9.114177104671793"><ele>538.0</ele><time>2026-04-25T13:48:25Z</time></trkpt><trkpt lat="44.65571805349944" lon="9.114158338681078"><ele>538.0</ele><time>2026-04-25T13:48:26Z</time></trkpt><trkpt lat="44.65583630943169" lon="9.114143498487367"><ele>538.0</ele><time>2026-04-25T13:48:27Z</time></trkpt><trkpt lat="44.65595101734527" lon="9.114138121157078"><ele>538.0</ele><time>2026-04-25T13:48:28Z</time></trkpt><trkpt lat="44.65605941175196" lon="9.114161933401396"><ele>538.0</ele><time>2026-04-25T13:48:29Z</time></trkpt><trkpt lat="44.65618140799247" lon="9.114205121673349"><ele>538.0</ele><time>2026-04-25T13:48:30Z</time></trkpt><trkpt lat="44.65631686662113" lon="9.114257859602267"><ele>534.0</ele><time>2026-04-25T13:48:31Z</time></trkpt><trkpt lat="44.65646412389007" lon="9.114318755113763"><ele>530.0</ele><time>2026-04-25T13:48:32Z</time></trkpt><trkpt lat="44.656613262388404" lon="9.114386494092049"><ele>526.0</ele><time>2026-04-25T13:48:33Z</time></trkpt><trkpt lat="44.65674625469019" lon="9.114454208889848"><ele>526.0</ele><time>2026-04-25T13:48:34Z</time></trkpt><trkpt lat="44.65686962447287" lon="9.114518032494113"><ele>526.0</ele><time>2026-04-25T13:48:35Z</time></trkpt><trkpt lat="44.65698187379566" lon="9.114571768966698"><ele>526.0</ele><time>2026-04-25T13:48:36Z</time></trkpt><trkpt lat="44.65708383625011" lon="9.114610093995099"><ele>526.0</ele><time>2026-04-25T13:48:37Z</time></trkpt><trkpt lat="44.65720799944401" lon="9.114638758364483"><ele>525.25</ele><time>2026-04-25T13:48:38Z</time></trkpt><trkpt lat="44.65734751425766" lon="9.114615039370317"><ele>524.5</ele><time>2026-04-25T13:48:39Z</time></trkpt><trkpt lat="44.65746671285854" lon="9.114551095788755"><ele>523.75</ele><time>2026-04-25T13:48:40Z</time></trkpt><trkpt lat="44.657592910838005" lon="9.114467375560006"><ele>523.0</ele><time>2026-04-25T13:48:41Z</time></trkpt><trkpt lat="44.657739585332145" lon="9.114375360390602"><ele>524.3333333333334</ele><time>2026-04-25T13:48:42Z</time></trkpt><trkpt lat="44.657899917378074" lon="9.1142832182521"><ele>525.6666666666666</ele><time>2026-04-25T13:48:43Z</time></trkpt><trkpt lat="44.658056198929316" lon="9.114191735844223"><ele>527.0</ele><time>2026-04-25T13:48:44Z</time></trkpt><trkpt lat="44.65820752284563" lon="9.114097285978797"><ele>524.3333333333333</ele><time>2026-04-25T13:48:45Z</time></trkpt><trkpt lat="44.65836140073886" lon="9.11399768374303"><ele>521.6666666666666</ele><time>2026-04-25T13:48:46Z</time></trkpt><trkpt lat="44.65851818736575" lon="9.113876792500498"><ele>519.0</ele><time>2026-04-25T13:48:47Z</time></trkpt><trkpt lat="44.65866267477462" lon="9.11375642342242"><ele>518.3333333333334</ele><time>2026-04-25T13:48:48Z</time></trkpt><trkpt lat="44.65879902697007" lon="9.113644872874819"><ele>517.6666666666667</ele><time>2026-04-25T13:48:49Z</time></trkpt><trkpt lat="44.65893295468756" lon="9.11354432721579"><ele>517.0</ele><time>2026-04-25T13:48:50Z</time></trkpt><trkpt lat="44.65906303070542" lon="9.11347003563303"><ele>517.0</ele><time>2026-04-25T13:48:51Z</time></trkpt><trkpt lat="44.659200360677396" lon="9.113417664285995"><ele>517.0</ele><time>2026-04-25T13:48:52Z</time></trkpt><trkpt lat="44.65933480810649" lon="9.113366175580632"><ele>517.0</ele><time>2026-04-25T13:48:53Z</time></trkpt><trkpt lat="44.659463144470294" lon="9.113317165736472"><ele>517.0</ele><time>2026-04-25T13:48:54Z</time></trkpt><trkpt lat="44.659589945252264" lon="9.113268742214197"><ele>517.25</ele><time>2026-04-25T13:48:55Z</time></trkpt><trkpt lat="44.65971391000623" lon="9.11322027220926"><ele>517.5</ele><time>2026-04-25T13:48:56Z</time></trkpt><trkpt lat="44.65983300945866" lon="9.11317125633127"><ele>517.75</ele><time>2026-04-25T13:48:57Z</time></trkpt><trkpt lat="44.6599475419608" lon="9.113129371522188"><ele>518.0</ele><time>2026-04-25T13:48:58Z</time></trkpt><trkpt lat="44.6600555953082" lon="9.113100540170748"><ele>518.0</ele><time>2026-04-25T13:48:59Z</time></trkpt><trkpt lat="44.66014803887845" lon="9.113087774217904"><ele>518.0</ele><time>2026-04-25T13:49:00Z</time></trkpt><trkpt lat="44.66024079140718" lon="9.113086693308517"><ele>518.0</ele><time>2026-04-25T13:49:01Z</time></trkpt><trkpt lat="44.66032054384237" lon="9.113073150627322"><ele>518.0</ele><time>2026-04-25T13:49:02Z</time></trkpt><trkpt lat="44.66039316285834" lon="9.113042931548785"><ele>518.0</ele><time>2026-04-25T13:49:03Z</time></trkpt><trkpt lat="44.66045589703153" lon="9.112995934539034"><ele>518.0</ele><time>2026-04-25T13:49:04Z</time></trkpt><trkpt lat="44.66047061709625" lon="9.112821237552888"><ele>516.4</ele><time>2026-04-25T13:49:05Z</time></trkpt><trkpt lat="44.66049832870835" lon="9.112702208533397"><ele>514.8</ele><time>2026-04-25T13:49:06Z</time></trkpt><trkpt lat="44.66051240049706" lon="9.112582592011796"><ele>513.2</ele><time>2026-04-25T13:49:07Z</time></trkpt><trkpt lat="44.66052875579563" lon="9.112439929941656"><ele>511.6</ele><time>2026-04-25T13:49:08Z</time></trkpt><trkpt lat="44.6605495721474" lon="9.112284831079139"><ele>510.0</ele><time>2026-04-25T13:49:09Z</time></trkpt><trkpt lat="44.660567730355176" lon="9.112141542883354"><ele>513.2</ele><time>2026-04-25T13:49:10Z</time></trkpt><trkpt lat="44.660605976107156" lon="9.112024848778079"><ele>516.4</ele><time>2026-04-25T13:49:11Z</time></trkpt><trkpt lat="44.66062338103197" lon="9.111912473410847"><ele>519.6</ele><time>2026-04-25T13:49:12Z</time></trkpt><trkpt lat="44.66069171265833" lon="9.111842503847493"><ele>522.8</ele><time>2026-04-25T13:49:13Z</time></trkpt><trkpt lat="44.660786324587924" lon="9.111799075025182"><ele>526.0</ele><time>2026-04-25T13:49:14Z</time></trkpt><trkpt lat="44.660886531160735" lon="9.111716009616861"><ele>526.0</ele><time>2026-04-25T13:49:15Z</time></trkpt><trkpt lat="44.660993238177234" lon="9.111630038344387"><ele>526.0</ele><time>2026-04-25T13:49:16Z</time></trkpt><trkpt lat="44.66110156852348" lon="9.11155384004938"><ele>526.0</ele><time>2026-04-25T13:49:17Z</time></trkpt><trkpt lat="44.66121910995154" lon="9.111512657560793"><ele>526.0</ele><time>2026-04-25T13:49:18Z</time></trkpt><trkpt lat="44.66134422722105" lon="9.11147615345313"><ele>524.4</ele><time>2026-04-25T13:49:19Z</time></trkpt><trkpt lat="44.66145806480874" lon="9.111440785697315"><ele>522.8</ele><time>2026-04-25T13:49:20Z</time></trkpt><trkpt lat="44.661536931508245" lon="9.111405660783388"><ele>521.1999999999999</ele><time>2026-04-25T13:49:21Z</time></trkpt><trkpt lat="44.66163315000825" lon="9.111320867375438"><ele>519.6</ele><time>2026-04-25T13:49:23Z</time></trkpt><trkpt lat="44.66166913261124" lon="9.111216748651481"><ele>518.0</ele><time>2026-04-25T13:49:24Z</time></trkpt><trkpt lat="44.661717495589166" lon="9.111116896947513"><ele>518.0</ele><time>2026-04-25T13:49:25Z</time></trkpt><trkpt lat="44.66177200140232" lon="9.110998873513674"><ele>518.0</ele><time>2026-04-25T13:49:26Z</time></trkpt><trkpt lat="44.6618293071973" lon="9.110867182658666"><ele>518.0</ele><time>2026-04-25T13:49:27Z</time></trkpt><trkpt lat="44.661887384475186" lon="9.110738503111227"><ele>518.0</ele><time>2026-04-25T13:49:28Z</time></trkpt><trkpt lat="44.66194335060539" lon="9.110621119961806"><ele>518.0</ele><time>2026-04-25T13:49:29Z</time></trkpt><trkpt lat="44.66200699614855" lon="9.110500898650793"><ele>517.8333333333333</ele><time>2026-04-25T13:49:30Z</time></trkpt><trkpt lat="44.66207878730996" lon="9.110381718070101"><ele>517.6666666666666</ele><time>2026-04-25T13:49:31Z</time></trkpt><trkpt lat="44.662125661831766" lon="9.110265210416562"><ele>517.5</ele><time>2026-04-25T13:49:32Z</time></trkpt><trkpt lat="44.66216315343661" lon="9.11018038744422"><ele>517.3333333333334</ele><time>2026-04-25T13:49:33Z</time></trkpt><trkpt lat="44.662170996502525" lon="9.110076538871983"><ele>517.1666666666667</ele><time>2026-04-25T13:49:34Z</time></trkpt><trkpt lat="44.662201389335664" lon="9.109971109267638"><ele>517.0</ele><time>2026-04-25T13:49:35Z</time></trkpt><trkpt lat="44.66224386841719" lon="9.109874369616973"><ele>517.0</ele><time>2026-04-25T13:49:36Z</time></trkpt><trkpt lat="44.66230122215907" lon="9.109772875623344"><ele>517.0</ele><time>2026-04-25T13:49:37Z</time></trkpt><trkpt lat="44.662394020008406" lon="9.109712799543244"><ele>517.0</ele><time>2026-04-25T13:49:38Z</time></trkpt><trkpt lat="44.66245943036429" lon="9.109607653459356"><ele>517.0</ele><time>2026-04-25T13:49:39Z</time></trkpt><trkpt lat="44.662508864418925" lon="9.109510910424765"><ele>517.0</ele><time>2026-04-25T13:49:40Z</time></trkpt><trkpt lat="44.66254485021066" lon="9.109368881228928"><ele>517.0</ele><time>2026-04-25T13:49:41Z</time></trkpt><trkpt lat="44.66258855507168" lon="9.10920703708277"><ele>517.0</ele><time>2026-04-25T13:49:42Z</time></trkpt><trkpt lat="44.662665321422246" lon="9.109039472071807"><ele>517.0</ele><time>2026-04-25T13:49:43Z</time></trkpt><trkpt lat="44.66272632282315" lon="9.10887431493614"><ele>517.0</ele><time>2026-04-25T13:49:44Z</time></trkpt><trkpt lat="44.662787898952985" lon="9.108738651900019"><ele>515.0</ele><time>2026-04-25T13:49:45Z</time></trkpt><trkpt lat="44.662824771050474" lon="9.108604977001008"><ele>513.0</ele><time>2026-04-25T13:49:46Z</time></trkpt><trkpt lat="44.662879787877095" lon="9.108500082161667"><ele>511.00000000000006</ele><time>2026-04-25T13:49:47Z</time></trkpt><trkpt lat="44.66296404082435" lon="9.108455647896239"><ele>509.0</ele><time>2026-04-25T13:49:48Z</time></trkpt><trkpt lat="44.66303883353512" lon="9.10836379613583"><ele>507.0</ele><time>2026-04-25T13:49:49Z</time></trkpt><trkpt lat="44.66311728140721" lon="9.108275556848254"><ele>509.6</ele><time>2026-04-25T13:49:50Z</time></trkpt><trkpt lat="44.66318586772401" lon="9.10815799743578"><ele>512.2</ele><time>2026-04-25T13:49:51Z</time></trkpt><trkpt lat="44.663245907137316" lon="9.108027436290165"><ele>514.8</ele><time>2026-04-25T13:49:52Z</time></trkpt><trkpt lat="44.66330475880032" lon="9.107921657404006"><ele>517.4</ele><time>2026-04-25T13:49:53Z</time></trkpt><trkpt lat="44.663363038654474" lon="9.107830614394699"><ele>520.0</ele><time>2026-04-25T13:49:54Z</time></trkpt><trkpt lat="44.66340037917309" lon="9.107730196692014"><ele>520.0</ele><time>2026-04-25T13:49:55Z</time></trkpt><trkpt lat="44.66341940900265" lon="9.107617843582789"><ele>520.0</ele><time>2026-04-25T13:49:56Z</time></trkpt><trkpt lat="44.663415765292996" lon="9.107485654964846"><ele>520.0</ele><time>2026-04-25T13:49:57.001Z</time></trkpt><trkpt lat="44.663413371002605" lon="9.107346748832034"><ele>520.0</ele><time>2026-04-25T13:49:58.001Z</time></trkpt><trkpt lat="44.663418472998046" lon="9.107218770267922"><ele>520.0</ele><time>2026-04-25T13:49:59.001Z</time></trkpt><trkpt lat="44.66344082569461" lon="9.107099136821507"><ele>521.1666666666667</ele><time>2026-04-25T13:50:00.001Z</time></trkpt><trkpt lat="44.66349203169306" lon="9.107006631383333"><ele>522.3333333333334</ele><time>2026-04-25T13:50:01.001Z</time></trkpt><trkpt lat="44.663568396598926" lon="9.106967988135327"><ele>523.5</ele><time>2026-04-25T13:50:02.001Z</time></trkpt><trkpt lat="44.663643403142544" lon="9.106947630205912"><ele>524.6666666666666</ele><time>2026-04-25T13:50:03.001Z</time></trkpt><trkpt lat="44.66372717432641" lon="9.106918475933464"><ele>525.8333333333333</ele><time>2026-04-25T13:50:04.001Z</time></trkpt><trkpt lat="44.66380464474257" lon="9.106842570860197"><ele>527.0</ele><time>2026-04-25T13:50:05.001Z</time></trkpt><trkpt lat="44.66385425096158" lon="9.1067268567488"><ele>525.0</ele><time>2026-04-25T13:50:06.001Z</time></trkpt><trkpt lat="44.66391013448692" lon="9.106626603087769"><ele>523.0</ele><time>2026-04-25T13:50:07Z</time></trkpt><trkpt lat="44.66396008029594" lon="9.106522842807394"><ele>521.0</ele><time>2026-04-25T13:50:08Z</time></trkpt><trkpt lat="44.66401586406498" lon="9.106424453788637"><ele>519.0</ele><time>2026-04-25T13:50:09Z</time></trkpt><trkpt lat="44.66407241604455" lon="9.106332603579496"><ele>517.0</ele><time>2026-04-25T13:50:10Z</time></trkpt><trkpt lat="44.66413314430808" lon="9.10624695421647"><ele>515.0</ele><time>2026-04-25T13:50:11Z</time></trkpt><trkpt lat="44.66419577500411" lon="9.106162510705769"><ele>515.0</ele><time>2026-04-25T13:50:12Z</time></trkpt><trkpt lat="44.664264794024255" lon="9.106085164409414"><ele>515.0</ele><time>2026-04-25T13:50:13Z</time></trkpt><trkpt lat="44.66434693509218" lon="9.10600196284864"><ele>515.0</ele><time>2026-04-25T13:50:14Z</time></trkpt><trkpt lat="44.66443402936095" lon="9.105909258007541"><ele>515.0</ele><time>2026-04-25T13:50:15Z</time></trkpt><trkpt lat="44.66454206329662" lon="9.10582091612594"><ele>515.0</ele><time>2026-04-25T13:50:16Z</time></trkpt><trkpt lat="44.66462799701906" lon="9.105693328633086"><ele>513.0</ele><time>2026-04-25T13:50:17Z</time></trkpt><trkpt lat="44.66473416283659" lon="9.105603359866537"><ele>511.0</ele><time>2026-04-25T13:50:18Z</time></trkpt><trkpt lat="44.664835645318185" lon="9.105504086566404"><ele>509.0</ele><time>2026-04-25T13:50:19Z</time></trkpt><trkpt lat="44.66493063784509" lon="9.105401345863386"><ele>507.0</ele><time>2026-04-25T13:50:20Z</time></trkpt><trkpt lat="44.66502814561154" lon="9.105320240814004"><ele>507.0</ele><time>2026-04-25T13:50:21Z</time></trkpt><trkpt lat="44.66511079083337" lon="9.105212348604763"><ele>507.0</ele><time>2026-04-25T13:50:22Z</time></trkpt><trkpt lat="44.665179145805894" lon="9.105069147211207"><ele>507.0</ele><time>2026-04-25T13:50:23Z</time></trkpt><trkpt lat="44.66523949827621" lon="9.104877817016266"><ele>507.0</ele><time>2026-04-25T13:50:24Z</time></trkpt><trkpt lat="44.66531767013553" lon="9.104688098887285"><ele>504.40000000000003</ele><time>2026-04-25T13:50:25Z</time></trkpt><trkpt lat="44.66536626879776" lon="9.104517097133522"><ele>501.80000000000007</ele><time>2026-04-25T13:50:26Z</time></trkpt><trkpt lat="44.6654406052652" lon="9.104395954553034"><ele>499.2</ele><time>2026-04-25T13:50:27Z</time></trkpt><trkpt lat="44.66551882337331" lon="9.104299043986279"><ele>496.6</ele><time>2026-04-25T13:50:28Z</time></trkpt><trkpt lat="44.66559583889802" lon="9.104218986412954"><ele>494.0</ele><time>2026-04-25T13:50:29Z</time></trkpt><trkpt lat="44.66566024307028" lon="9.104171734369793"><ele>493.99999999999994</ele><time>2026-04-25T13:50:30Z</time></trkpt><trkpt lat="44.66577476596222" lon="9.104168177086915"><ele>494.0</ele><time>2026-04-25T13:50:32Z</time></trkpt><trkpt lat="44.66587718979758" lon="9.104231756592473"><ele>494.0</ele><time>2026-04-25T13:50:34Z</time></trkpt><trkpt lat="44.66592224974202" lon="9.10431210150859"><ele>494.0</ele><time>2026-04-25T13:50:35Z</time></trkpt><trkpt lat="44.665985344386165" lon="9.104347691239543"><ele>493.99999999999994</ele><time>2026-04-25T13:50:36Z</time></trkpt><trkpt lat="44.666056073656236" lon="9.104387783557458"><ele>494.0</ele><time>2026-04-25T13:50:37Z</time></trkpt><trkpt lat="44.66613066865824" lon="9.104430067077704"><ele>493.4</ele><time>2026-04-25T13:50:38Z</time></trkpt><trkpt lat="44.666212766836125" lon="9.104476603741482"><ele>492.79999999999995</ele><time>2026-04-25T13:50:39Z</time></trkpt><trkpt lat="44.6663018238195" lon="9.104528041918993"><ele>492.20000000000005</ele><time>2026-04-25T13:50:40Z</time></trkpt><trkpt lat="44.666406925118196" lon="9.104588843934303"><ele>491.6</ele><time>2026-04-25T13:50:41Z</time></trkpt><trkpt lat="44.66653576282194" lon="9.104663552904114"><ele>491.0</ele><time>2026-04-25T13:50:42Z</time></trkpt><trkpt lat="44.666683990236606" lon="9.104749805734233"><ele>491.0</ele><time>2026-04-25T13:50:43Z</time></trkpt><trkpt lat="44.666824497510895" lon="9.104831564321033"><ele>491.0</ele><time>2026-04-25T13:50:44Z</time></trkpt><trkpt lat="44.66695093047534" lon="9.104886818558896"><ele>491.0</ele><time>2026-04-25T13:50:45Z</time></trkpt><trkpt lat="44.66704859201117" lon="9.104927262591197"><ele>491.0</ele><time>2026-04-25T13:50:46Z</time></trkpt><trkpt lat="44.667129296358915" lon="9.104928208587733"><ele>493.20000000000005</ele><time>2026-04-25T13:50:47Z</time></trkpt><trkpt lat="44.66720483269729" lon="9.104863354274734"><ele>495.40000000000003</ele><time>2026-04-25T13:50:48Z</time></trkpt><trkpt lat="44.66726751228274" lon="9.104748338521626"><ele>497.6</ele><time>2026-04-25T13:50:49Z</time></trkpt><trkpt lat="44.66734103107706" lon="9.104619386289947"><ele>499.8</ele><time>2026-04-25T13:50:50Z</time></trkpt><trkpt lat="44.667434596096314" lon="9.104502210454548"><ele>502.0</ele><time>2026-04-25T13:50:51Z</time></trkpt><trkpt lat="44.66755385613234" lon="9.104407194446306"><ele>502.0</ele><time>2026-04-25T13:50:52Z</time></trkpt><trkpt lat="44.66766269232292" lon="9.104295494306575"><ele>502.0</ele><time>2026-04-25T13:50:53Z</time></trkpt><trkpt lat="44.66775138926114" lon="9.104120776421798"><ele>502.0</ele><time>2026-04-25T13:50:54Z</time></trkpt><trkpt lat="44.66782554546296" lon="9.10392859825109"><ele>502.0</ele><time>2026-04-25T13:50:55Z</time></trkpt><trkpt lat="44.6678982636908" lon="9.103736458204418"><ele>501.25</ele><time>2026-04-25T13:50:56Z</time></trkpt><trkpt lat="44.66794619496517" lon="9.103555689403631"><ele>500.5</ele><time>2026-04-25T13:50:57Z</time></trkpt><trkpt lat="44.66800830112456" lon="9.1034160177106"><ele>499.75</ele><time>2026-04-25T13:50:58Z</time></trkpt><trkpt lat="44.668085986840325" lon="9.103284236594549"><ele>499.0</ele><time>2026-04-25T13:50:59Z</time></trkpt><trkpt lat="44.668194579184096" lon="9.103138912337096"><ele>499.0</ele><time>2026-04-25T13:51:00Z</time></trkpt><trkpt lat="44.66832184789898" lon="9.10299448562977"><ele>499.0</ele><time>2026-04-25T13:51:01Z</time></trkpt><trkpt lat="44.66843986584217" lon="9.102866566088522"><ele>499.0</ele><time>2026-04-25T13:51:02Z</time></trkpt><trkpt lat="44.66855241098681" lon="9.102767805141676"><ele>499.0</ele><time>2026-04-25T13:51:03Z</time></trkpt><trkpt lat="44.66865355338369" lon="9.102696055339578"><ele>503.0</ele><time>2026-04-25T13:51:04Z</time></trkpt><trkpt lat="44.668742494066514" lon="9.102634200433185"><ele>507.0</ele><time>2026-04-25T13:51:05Z</time></trkpt><trkpt lat="44.6688304920987" lon="9.102591900063304"><ele>511.0</ele><time>2026-04-25T13:51:06Z</time></trkpt><trkpt lat="44.66892233616065" lon="9.102570291206732"><ele>515.0</ele><time>2026-04-25T13:51:08Z</time></trkpt><trkpt lat="44.66901228357792" lon="9.1025389376063"><ele>519.0</ele><time>2026-04-25T13:51:11Z</time></trkpt><trkpt lat="44.6690864733614" lon="9.102508933762559"><ele>519.0</ele><time>2026-04-25T13:51:12Z</time></trkpt><trkpt lat="44.66918615109122" lon="9.102500397640847"><ele>519.0</ele><time>2026-04-25T13:51:13Z</time></trkpt><trkpt lat="44.66926634425507" lon="9.102441663773254"><ele>519.0</ele><time>2026-04-25T13:51:14Z</time></trkpt><trkpt lat="44.669328277914545" lon="9.102371237081458"><ele>519.0</ele><time>2026-04-25T13:51:15Z</time></trkpt><trkpt lat="44.669370589107324" lon="9.102270683936892"><ele>519.0</ele><time>2026-04-25T13:51:16Z</time></trkpt><trkpt lat="44.669388870266545" lon="9.102170340321718"><ele>519.0</ele><time>2026-04-25T13:51:17Z</time></trkpt><trkpt lat="44.66939945187794" lon="9.10202198900267"><ele>518.4</ele><time>2026-04-25T13:51:18Z</time></trkpt><trkpt lat="44.66945080240117" lon="9.101866849752632"><ele>517.8</ele><time>2026-04-25T13:51:19Z</time></trkpt><trkpt lat="44.66952282207506" lon="9.101758009673917"><ele>517.2</ele><time>2026-04-25T13:51:20Z</time></trkpt><trkpt lat="44.66960301244418" lon="9.10166178343649"><ele>516.6</ele><time>2026-04-25T13:51:21Z</time></trkpt><trkpt lat="44.66968777149478" lon="9.10157138394567"><ele>516.0</ele><time>2026-04-25T13:51:22Z</time></trkpt><trkpt lat="44.66975536455569" lon="9.101490529108359"><ele>513.6</ele><time>2026-04-25T13:51:23Z</time></trkpt><trkpt lat="44.669858018387885" lon="9.101491389729032"><ele>511.20000000000005</ele><time>2026-04-25T13:51:24Z</time></trkpt><trkpt lat="44.66995295992922" lon="9.101485888806055"><ele>508.79999999999995</ele><time>2026-04-25T13:51:25Z</time></trkpt><trkpt lat="44.67003322653675" lon="9.101425281549687"><ele>506.4</ele><time>2026-04-25T13:51:26Z</time></trkpt><trkpt lat="44.67009462939144" lon="9.101311386105548"><ele>504.0</ele><time>2026-04-25T13:51:27Z</time></trkpt><trkpt lat="44.670131475986274" lon="9.101166293045807"><ele>504.0</ele><time>2026-04-25T13:51:28Z</time></trkpt><trkpt lat="44.67014098023011" lon="9.100991679028986"><ele>504.0</ele><time>2026-04-25T13:51:29Z</time></trkpt><trkpt lat="44.67013690723705" lon="9.1007831405083"><ele>504.0</ele><time>2026-04-25T13:51:30Z</time></trkpt><trkpt lat="44.670128765816116" lon="9.100577390343844"><ele>504.0</ele><time>2026-04-25T13:51:31Z</time></trkpt><trkpt lat="44.67013618307458" lon="9.100402214836741"><ele>503.8333333333333</ele><time>2026-04-25T13:51:32Z</time></trkpt><trkpt lat="44.67013329311881" lon="9.10024850730849"><ele>503.66666666666663</ele><time>2026-04-25T13:51:33Z</time></trkpt><trkpt lat="44.67013537254569" lon="9.100115151373801"><ele>503.5</ele><time>2026-04-25T13:51:34Z</time></trkpt><trkpt lat="44.67018296092323" lon="9.100016022438151"><ele>503.3333333333333</ele><time>2026-04-25T13:51:35Z</time></trkpt><trkpt lat="44.670233626641256" lon="9.099934571234057"><ele>503.16666666666663</ele><time>2026-04-25T13:51:36Z</time></trkpt><trkpt lat="44.67030512375662" lon="9.099884579430533"><ele>503.0</ele><time>2026-04-25T13:51:37Z</time></trkpt><trkpt lat="44.67039033045844" lon="9.099906096217374"><ele>503.0</ele><time>2026-04-25T13:51:38Z</time></trkpt><trkpt lat="44.67050988648248" lon="9.099922709966885"><ele>502.99999999999994</ele><time>2026-04-25T13:51:39Z</time></trkpt><trkpt lat="44.67063502917978" lon="9.099936479587532"><ele>502.99999999999994</ele><time>2026-04-25T13:51:40Z</time></trkpt><trkpt lat="44.6707440724828" lon="9.099934309015971"><ele>503.0</ele><time>2026-04-25T13:51:41Z</time></trkpt><trkpt lat="44.67082630918199" lon="9.099899342736299"><ele>503.0</ele><time>2026-04-25T13:51:42Z</time></trkpt><trkpt lat="44.670885485315225" lon="9.099796625454587"><ele>503.0</ele><time>2026-04-25T13:51:43Z</time></trkpt><trkpt lat="44.67091875914599" lon="9.099701920087009"><ele>502.99999999999994</ele><time>2026-04-25T13:51:44Z</time></trkpt><trkpt lat="44.67091949460817" lon="9.099573297100694"><ele>502.99999999999994</ele><time>2026-04-25T13:51:45Z</time></trkpt><trkpt lat="44.670902709042565" lon="9.099412800968908"><ele>503.0</ele><time>2026-04-25T13:51:46Z</time></trkpt><trkpt lat="44.67087708569336" lon="9.099243466909009"><ele>503.0</ele><time>2026-04-25T13:51:47Z</time></trkpt><trkpt lat="44.67086634980263" lon="9.099093439704703"><ele>502.0</ele><time>2026-04-25T13:51:48Z</time></trkpt><trkpt lat="44.67087042054108" lon="9.098940844898822"><ele>501.0</ele><time>2026-04-25T13:51:49Z</time></trkpt><trkpt lat="44.670923844059836" lon="9.09881858069732"><ele>500.0</ele><time>2026-04-25T13:51:50Z</time></trkpt><trkpt lat="44.67103034175204" lon="9.098733018024092"><ele>499.0</ele><time>2026-04-25T13:51:51Z</time></trkpt><trkpt lat="44.67113805658767" lon="9.098614426749862"><ele>499.0</ele><time>2026-04-25T13:51:52Z</time></trkpt><trkpt lat="44.6712497924003" lon="9.098497625664669"><ele>499.0</ele><time>2026-04-25T13:51:53Z</time></trkpt><trkpt lat="44.67135884926832" lon="9.098395540233934"><ele>499.0</ele><time>2026-04-25T13:51:54Z</time></trkpt><trkpt lat="44.671457808186695" lon="9.098319405372543"><ele>499.0</ele><time>2026-04-25T13:51:55Z</time></trkpt><trkpt lat="44.67154880157953" lon="9.098260597750759"><ele>496.0</ele><time>2026-04-25T13:51:56Z</time></trkpt><trkpt lat="44.67164229881593" lon="9.09822876213697"><ele>493.0</ele><time>2026-04-25T13:51:57Z</time></trkpt><trkpt lat="44.67173387827324" lon="9.098179669578647"><ele>490.0</ele><time>2026-04-25T13:51:58Z</time></trkpt><trkpt lat="44.671811677032245" lon="9.09812037251557"><ele>487.0</ele><time>2026-04-25T13:51:59Z</time></trkpt><trkpt lat="44.67186401509631" lon="9.098018167293493"><ele>484.0</ele><time>2026-04-25T13:52:00Z</time></trkpt><trkpt lat="44.67190342752205" lon="9.097911486114807"><ele>484.00000000000006</ele><time>2026-04-25T13:52:01Z</time></trkpt><trkpt lat="44.6719105121794" lon="9.097788321600879"><ele>484.0</ele><time>2026-04-25T13:52:02Z</time></trkpt><trkpt lat="44.67192500977044" lon="9.097672742685617"><ele>484.0</ele><time>2026-04-25T13:52:03Z</time></trkpt><trkpt lat="44.67194334952959" lon="9.097558454508375"><ele>484.0</ele><time>2026-04-25T13:52:04Z</time></trkpt><trkpt lat="44.67197382757801" lon="9.097450168374989"><ele>484.00000000000006</ele><time>2026-04-25T13:52:05Z</time></trkpt><trkpt lat="44.67201106333735" lon="9.097345116739888"><ele>484.0</ele><time>2026-04-25T13:52:06Z</time></trkpt><trkpt lat="44.67205418175575" lon="9.097240548616423"><ele>483.83333333333337</ele><time>2026-04-25T13:52:07Z</time></trkpt><trkpt lat="44.67210193850472" lon="9.097139774406966"><ele>483.6666666666667</ele><time>2026-04-25T13:52:08Z</time></trkpt><trkpt lat="44.67216009577669" lon="9.097050380187136"><ele>483.5</ele><time>2026-04-25T13:52:09Z</time></trkpt><trkpt lat="44.672247596411424" lon="9.097007663002744"><ele>483.33333333333337</ele><time>2026-04-25T13:52:10Z</time></trkpt><trkpt lat="44.67231531689096" lon="9.09694279707227"><ele>483.1666666666667</ele><time>2026-04-25T13:52:11Z</time></trkpt><trkpt lat="44.67238690760854" lon="9.09687396621309"><ele>483.0</ele><time>2026-04-25T13:52:12Z</time></trkpt><trkpt lat="44.672456078663544" lon="9.096806629273827"><ele>483.0</ele><time>2026-04-25T13:52:13Z</time></trkpt><trkpt lat="44.672525497559235" lon="9.096738704740313"><ele>483.0</ele><time>2026-04-25T13:52:14Z</time></trkpt><trkpt lat="44.67259783692296" lon="9.096666544142506"><ele>483.0</ele><time>2026-04-25T13:52:15Z</time></trkpt><trkpt lat="44.672669394703576" lon="9.096594814960442"><ele>483.0</ele><time>2026-04-25T13:52:16Z</time></trkpt><trkpt lat="44.672742255709736" lon="9.096521779502162"><ele>483.0</ele><time>2026-04-25T13:52:17Z</time></trkpt><trkpt lat="44.67281441667431" lon="9.096448770330426"><ele>483.0</ele><time>2026-04-25T13:52:18Z</time></trkpt><trkpt lat="44.67288698197613" lon="9.096374799153883"><ele>482.3333333333333</ele><time>2026-04-25T13:52:19Z</time></trkpt><trkpt lat="44.67295787042423" lon="9.096302537284284"><ele>481.66666666666663</ele><time>2026-04-25T13:52:20Z</time></trkpt><trkpt lat="44.67301162232508" lon="9.096199458852205"><ele>481.0</ele><time>2026-04-25T13:52:21Z</time></trkpt><trkpt lat="44.67308344832293" lon="9.096121571758694"><ele>480.3333333333333</ele><time>2026-04-25T13:52:22Z</time></trkpt><trkpt lat="44.67315428689331" lon="9.09604533261529"><ele>479.66666666666663</ele><time>2026-04-25T13:52:23Z</time></trkpt><trkpt lat="44.673227857400384" lon="9.095971124496915"><ele>479.0</ele><time>2026-04-25T13:52:24Z</time></trkpt><trkpt lat="44.673314227745095" lon="9.095937769791815"><ele>478.99999999999994</ele><time>2026-04-25T13:52:25Z</time></trkpt><trkpt lat="44.6733785232108" lon="9.095856304289464"><ele>479.0</ele><time>2026-04-25T13:52:26Z</time></trkpt><trkpt lat="44.67340772220026" lon="9.095731231966996"><ele>479.0</ele><time>2026-04-25T13:52:27Z</time></trkpt><trkpt lat="44.67343129046556" lon="9.09561436294095"><ele>479.0</ele><time>2026-04-25T13:52:28Z</time></trkpt><trkpt lat="44.673424404387326" lon="9.095494906467477"><ele>478.99999999999994</ele><time>2026-04-25T13:52:29Z</time></trkpt><trkpt lat="44.67339409285392" lon="9.095385550230569"><ele>479.0</ele><time>2026-04-25T13:52:30Z</time></trkpt><trkpt lat="44.67337835520246" lon="9.09528358944708"><ele>478.71428571428567</ele><time>2026-04-25T13:52:31Z</time></trkpt><trkpt lat="44.67337328026849" lon="9.095188767233514"><ele>478.42857142857144</ele><time>2026-04-25T13:52:32Z</time></trkpt><trkpt lat="44.673377878440114" lon="9.095093591214983"><ele>478.1428571428571</ele><time>2026-04-25T13:52:33Z</time></trkpt><trkpt lat="44.673388248768376" lon="9.094996017497992"><ele>477.85714285714283</ele><time>2026-04-25T13:52:34Z</time></trkpt><trkpt lat="44.67343052275425" lon="9.094923041513526"><ele>477.57142857142856</ele><time>2026-04-25T13:52:35Z</time></trkpt><trkpt lat="44.67348458502981" lon="9.094874060664754"><ele>477.2857142857143</ele><time>2026-04-25T13:52:36Z</time></trkpt><trkpt lat="44.67354020751797" lon="9.094827086220828"><ele>477.0</ele><time>2026-04-25T13:52:37Z</time></trkpt><trkpt lat="44.6736474814694" lon="9.094745486351073"><ele>477.0</ele><time>2026-04-25T13:52:39Z</time></trkpt><trkpt lat="44.67370266522511" lon="9.09469753242788"><ele>476.99999999999994</ele><time>2026-04-25T13:52:40Z</time></trkpt><trkpt lat="44.673763844962885" lon="9.094647226245812"><ele>477.0</ele><time>2026-04-25T13:52:41Z</time></trkpt><trkpt lat="44.673830101376154" lon="9.094593245130152"><ele>477.0</ele><time>2026-04-25T13:52:42Z</time></trkpt><trkpt lat="44.67389201237522" lon="9.094533705216339"><ele>476.99999999999994</ele><time>2026-04-25T13:52:43Z</time></trkpt><trkpt lat="44.673953544795076" lon="9.094464465840673"><ele>477.0</ele><time>2026-04-25T13:52:44Z</time></trkpt><trkpt lat="44.674017520430475" lon="9.094390782057602"><ele>477.0</ele><time>2026-04-25T13:52:45Z</time></trkpt><trkpt lat="44.67406891194454" lon="9.09432145692147"><ele>477.0</ele><time>2026-04-25T13:52:46Z</time></trkpt><trkpt lat="44.674114126941845" lon="9.094252300798908"><ele>477.0</ele><time>2026-04-25T13:52:47Z</time></trkpt><trkpt lat="44.67414553677925" lon="9.094145256748863"><ele>477.0</ele><time>2026-04-25T13:52:49Z</time></trkpt><trkpt lat="44.67407709572442" lon="9.094119292762315"><ele>477.0</ele><time>2026-04-25T13:52:52Z</time></trkpt><trkpt lat="44.67414304463361" lon="9.09405383640298"><ele>472.0</ele><time>2026-04-25T13:52:53Z</time></trkpt><trkpt lat="44.674042871008844" lon="9.094181438595596"><ele>477.0</ele><time>2026-04-25T13:52:55Z</time></trkpt></trkseg><trkseg><trkpt lat="44.6740181215048" lon="9.09437484385974"><ele>477.0</ele><time>2026-04-25T14:04:48.999Z</time></trkpt><trkpt lat="44.67397546978926" lon="9.094452140599023"><ele>477.00000000000006</ele><time>2026-04-25T14:04:49.999Z</time></trkpt><trkpt lat="44.67388265156309" lon="9.094487998353575"><ele>477.00000000000006</ele><time>2026-04-25T14:04:50.999Z</time></trkpt><trkpt lat="44.67379546342475" lon="9.094565745849208"><ele>477.0</ele><time>2026-04-25T14:04:51.999Z</time></trkpt><trkpt lat="44.67370731850918" lon="9.094640425505265"><ele>477.0</ele><time>2026-04-25T14:04:52.999Z</time></trkpt><trkpt lat="44.673616910737614" lon="9.09471702488719"><ele>476.8333333333333</ele><time>2026-04-25T14:04:53.999Z</time></trkpt><trkpt lat="44.67353514347341" lon="9.094783915087312"><ele>476.66666666666663</ele><time>2026-04-25T14:04:54.999Z</time></trkpt><trkpt lat="44.67346170276715" lon="9.094858449188784"><ele>476.5</ele><time>2026-04-25T14:04:55.999Z</time></trkpt><trkpt lat="44.673399297490285" lon="9.094930652546932"><ele>476.3333333333333</ele><time>2026-04-25T14:04:56.999Z</time></trkpt><trkpt lat="44.673354309165184" lon="9.095025993362384"><ele>476.16666666666663</ele><time>2026-04-25T14:04:57.999Z</time></trkpt><trkpt lat="44.673345373726605" lon="9.095132317600937"><ele>476.0</ele><time>2026-04-25T14:04:58.999Z</time></trkpt><trkpt lat="44.673363118138575" lon="9.095228884752661"><ele>476.0</ele><time>2026-04-25T14:04:59.999Z</time></trkpt><trkpt lat="44.67336338791296" lon="9.095344090728926"><ele>476.0</ele><time>2026-04-25T14:05:00.999Z</time></trkpt><trkpt lat="44.673380931863775" lon="9.095479576907305"><ele>476.0</ele><time>2026-04-25T14:05:01.999Z</time></trkpt><trkpt lat="44.67339128986483" lon="9.095626820828782"><ele>476.0</ele><time>2026-04-25T14:05:02.999Z</time></trkpt><trkpt lat="44.673379133418315" lon="9.09574622029879"><ele>476.0</ele><time>2026-04-25T14:05:03.999Z</time></trkpt><trkpt lat="44.673334665024285" lon="9.095852440748807"><ele>476.75</ele><time>2026-04-25T14:05:04.999Z</time></trkpt><trkpt lat="44.67325744999861" lon="9.095945592113821"><ele>477.5</ele><time>2026-04-25T14:05:05.999Z</time></trkpt><trkpt lat="44.673154691412755" lon="9.096048092159828"><ele>478.25</ele><time>2026-04-25T14:05:06.999Z</time></trkpt><trkpt lat="44.673038875499444" lon="9.096168552329024"><ele>479.0</ele><time>2026-04-25T14:05:07.999Z</time></trkpt><trkpt lat="44.67291257832547" lon="9.096292908989353"><ele>478.66666666666663</ele><time>2026-04-25T14:05:08.999Z</time></trkpt><trkpt lat="44.672771630739874" lon="9.096439104122442"><ele>478.33333333333337</ele><time>2026-04-25T14:05:09.999Z</time></trkpt><trkpt lat="44.6726338711985" lon="9.096577987843789"><ele>478.0</ele><time>2026-04-25T14:05:10.999Z</time></trkpt><trkpt lat="44.672500983096946" lon="9.096716907354452"><ele>479.25</ele><time>2026-04-25T14:05:11.999Z</time></trkpt><trkpt lat="44.6723781981432" lon="9.096842393321285"><ele>480.5</ele><time>2026-04-25T14:05:12.999Z</time></trkpt><trkpt lat="44.67226600036493" lon="9.096952993607411"><ele>481.75</ele><time>2026-04-25T14:05:13.999Z</time></trkpt><trkpt lat="44.67215859499371" lon="9.097069567717389"><ele>483.0</ele><time>2026-04-25T14:05:14.999Z</time></trkpt><trkpt lat="44.67206985882579" lon="9.097213991627974"><ele>483.0</ele><time>2026-04-25T14:05:15.999Z</time></trkpt><trkpt lat="44.671985852900484" lon="9.097365731540435"><ele>483.0</ele><time>2026-04-25T14:05:16.999Z</time></trkpt><trkpt lat="44.67193363259006" lon="9.097539972792934"><ele>483.0</ele><time>2026-04-25T14:05:17.999Z</time></trkpt><trkpt lat="44.671893631131255" lon="9.097731993838186"><ele>483.0</ele><time>2026-04-25T14:05:18.999Z</time></trkpt><trkpt lat="44.67186810800568" lon="9.097917395779863"><ele>483.2</ele><time>2026-04-25T14:05:19.999Z</time></trkpt><trkpt lat="44.6718207388808" lon="9.098059476910949"><ele>483.4</ele><time>2026-04-25T14:05:20.999Z</time></trkpt><trkpt lat="44.67173852694899" lon="9.098153585780299"><ele>483.59999999999997</ele><time>2026-04-25T14:05:21.999Z</time></trkpt><trkpt lat="44.671641577869934" lon="9.098190071699767"><ele>483.79999999999995</ele><time>2026-04-25T14:05:22.999Z</time></trkpt><trkpt lat="44.67151872121194" lon="9.098228363231112"><ele>484.0</ele><time>2026-04-25T14:05:23.999Z</time></trkpt><trkpt lat="44.67140483738089" lon="9.098317094240992"><ele>485.0</ele><time>2026-04-25T14:05:24.999Z</time></trkpt><trkpt lat="44.67127761568473" lon="9.098408407210572"><ele>486.0</ele><time>2026-04-25T14:05:25.999Z</time></trkpt><trkpt lat="44.67114941934776" lon="9.09853115407793"><ele>487.0</ele><time>2026-04-25T14:05:26.999Z</time></trkpt><trkpt lat="44.67102895430898" lon="9.098655129450373"><ele>488.0</ele><time>2026-04-25T14:05:27.999Z</time></trkpt><trkpt lat="44.67092746084237" lon="9.098766377859302"><ele>488.0</ele><time>2026-04-25T14:05:28.999Z</time></trkpt><trkpt lat="44.670856010254546" lon="9.098875028339227"><ele>487.99999999999994</ele><time>2026-04-25T14:05:29.999Z</time></trkpt><trkpt lat="44.670810011774904" lon="9.098989445026737"><ele>487.99999999999994</ele><time>2026-04-25T14:05:30.999Z</time></trkpt><trkpt lat="44.67079602074352" lon="9.099124283427088"><ele>488.0</ele><time>2026-04-25T14:05:31.999Z</time></trkpt><trkpt lat="44.67081790006101" lon="9.09927077665269"><ele>488.0</ele><time>2026-04-25T14:05:32.999Z</time></trkpt><trkpt lat="44.67085689109882" lon="9.099436691140724"><ele>491.0</ele><time>2026-04-25T14:05:33.999Z</time></trkpt><trkpt lat="44.67088792700366" lon="9.099614610610965"><ele>493.99999999999994</ele><time>2026-04-25T14:05:34.999Z</time></trkpt><trkpt lat="44.67087988849601" lon="9.099761063013739"><ele>496.99999999999994</ele><time>2026-04-25T14:05:35.999Z</time></trkpt><trkpt lat="44.67082117784171" lon="9.099857430422897"><ele>500.0</ele><time>2026-04-25T14:05:36.999Z</time></trkpt><trkpt lat="44.67071177309705" lon="9.099934215047329"><ele>503.0</ele><time>2026-04-25T14:05:38.999Z</time></trkpt><trkpt lat="44.67063764098706" lon="9.09988991624063"><ele>503.0</ele><time>2026-04-25T14:05:39.999Z</time></trkpt><trkpt lat="44.670565345182006" lon="9.09989441907735"><ele>502.99999999999994</ele><time>2026-04-25T14:05:40.999Z</time></trkpt><trkpt lat="44.67046333596062" lon="9.099875662490971"><ele>502.99999999999994</ele><time>2026-04-25T14:05:41.999Z</time></trkpt><trkpt lat="44.670341687849316" lon="9.099862589136256"><ele>503.0</ele><time>2026-04-25T14:05:42.999Z</time></trkpt><trkpt lat="44.67025591851419" lon="9.099888315029844"><ele>503.0</ele><time>2026-04-25T14:05:43.999Z</time></trkpt><trkpt lat="44.67018373025544" lon="9.099939971205263"><ele>501.59999999999997</ele><time>2026-04-25T14:05:44.999Z</time></trkpt><trkpt lat="44.67013277652353" lon="9.100025092219832"><ele>500.19999999999993</ele><time>2026-04-25T14:05:45.999Z</time></trkpt><trkpt lat="44.67010617534248" lon="9.100137028794045"><ele>498.8</ele><time>2026-04-25T14:05:46.999Z</time></trkpt><trkpt lat="44.67009978614924" lon="9.100274806075463"><ele>497.4</ele><time>2026-04-25T14:05:47.999Z</time></trkpt><trkpt lat="44.670106469878846" lon="9.100450674806966"><ele>496.0</ele><time>2026-04-25T14:05:48.999Z</time></trkpt><trkpt lat="44.67011431255466" lon="9.100645996926382"><ele>498.0</ele><time>2026-04-25T14:05:49.999Z</time></trkpt><trkpt lat="44.67011855518155" lon="9.100856582850339"><ele>500.0</ele><time>2026-04-25T14:05:50.999Z</time></trkpt><trkpt lat="44.67011472350663" lon="9.101045915860064"><ele>502.0</ele><time>2026-04-25T14:05:51.999Z</time></trkpt><trkpt lat="44.670091177874205" lon="9.10121827852116"><ele>504.0</ele><time>2026-04-25T14:05:52.999Z</time></trkpt><trkpt lat="44.67004901829812" lon="9.1013500541035"><ele>504.0</ele><time>2026-04-25T14:05:53.999Z</time></trkpt><trkpt lat="44.66998929836112" lon="9.101448570002823"><ele>504.0</ele><time>2026-04-25T14:05:54.999Z</time></trkpt><trkpt lat="44.66989708313484" lon="9.101509389457062"><ele>504.0</ele><time>2026-04-25T14:05:55.999Z</time></trkpt><trkpt lat="44.66978350774107" lon="9.1015005733934"><ele>504.0</ele><time>2026-04-25T14:05:56.999Z</time></trkpt><trkpt lat="44.66967707978693" lon="9.101547878878058"><ele>504.0</ele><time>2026-04-25T14:05:57.999Z</time></trkpt><trkpt lat="44.66957960234636" lon="9.10162738375472"><ele>504.0</ele><time>2026-04-25T14:05:58.999Z</time></trkpt><trkpt lat="44.669511326234954" lon="9.101727219824975"><ele>504.0</ele><time>2026-04-25T14:05:59.999Z</time></trkpt><trkpt lat="44.66945509654632" lon="9.101819563974857"><ele>504.0</ele><time>2026-04-25T14:06:00.999Z</time></trkpt><trkpt lat="44.66939611007691" lon="9.101913471465286"><ele>504.0</ele><time>2026-04-25T14:06:01.999Z</time></trkpt><trkpt lat="44.66938117232633" lon="9.1020604247"><ele>504.0</ele><time>2026-04-25T14:06:02.999Z</time></trkpt><trkpt lat="44.66936194321457" lon="9.102214503010128"><ele>504.0</ele><time>2026-04-25T14:06:03.999Z</time></trkpt><trkpt lat="44.66931471152408" lon="9.102340559118767"><ele>504.0</ele><time>2026-04-25T14:06:04.999Z</time></trkpt><trkpt lat="44.6692551719557" lon="9.102420966551563"><ele>504.0</ele><time>2026-04-25T14:06:05.999Z</time></trkpt><trkpt lat="44.669181789052914" lon="9.102471644089125"><ele>504.0</ele><time>2026-04-25T14:06:06.999Z</time></trkpt><trkpt lat="44.66910181233757" lon="9.102478650302201"><ele>504.0</ele><time>2026-04-25T14:06:07.999Z</time></trkpt><trkpt lat="44.66902226083569" lon="9.102525147800815"><ele>504.0</ele><time>2026-04-25T14:06:08.999Z</time></trkpt><trkpt lat="44.668941842099066" lon="9.102558731199416"><ele>502.75</ele><time>2026-04-25T14:06:09.999Z</time></trkpt><trkpt lat="44.66884776862592" lon="9.102603612811311"><ele>501.5</ele><time>2026-04-25T14:06:10.999Z</time></trkpt><trkpt lat="44.66875107543449" lon="9.10272231532937"><ele>500.25</ele><time>2026-04-25T14:06:11.999Z</time></trkpt><trkpt lat="44.66864205012195" lon="9.102823116376488"><ele>499.0</ele><time>2026-04-25T14:06:12.999Z</time></trkpt><trkpt lat="44.668535305310286" lon="9.102947425774325"><ele>499.0</ele><time>2026-04-25T14:06:13.999Z</time></trkpt><trkpt lat="44.66843530861623" lon="9.103075654478433"><ele>499.0</ele><time>2026-04-25T14:06:14.999Z</time></trkpt><trkpt lat="44.66834500658896" lon="9.103191449907767"><ele>499.0</ele><time>2026-04-25T14:06:15.999Z</time></trkpt><trkpt lat="44.66827330475424" lon="9.103297902674248"><ele>499.0</ele><time>2026-04-25T14:06:16.999Z</time></trkpt><trkpt lat="44.66822878875296" lon="9.103418535551802"><ele>502.2</ele><time>2026-04-25T14:06:17.999Z</time></trkpt><trkpt lat="44.66820362727322" lon="9.103553155532493"><ele>505.4</ele><time>2026-04-25T14:06:18.999Z</time></trkpt><trkpt lat="44.668196926152206" lon="9.103696066723455"><ele>508.6</ele><time>2026-04-25T14:06:19.999Z</time></trkpt><trkpt lat="44.66821197147228" lon="9.103860392990667"><ele>511.8</ele><time>2026-04-25T14:06:20.999Z</time></trkpt><trkpt lat="44.66824103675931" lon="9.10403498632904"><ele>515.0</ele><time>2026-04-25T14:06:21.999Z</time></trkpt><trkpt lat="44.66826542654379" lon="9.104212757184415"><ele>517.6</ele><time>2026-04-25T14:06:22.999Z</time></trkpt><trkpt lat="44.6682480076737" lon="9.104384712918904"><ele>520.2</ele><time>2026-04-25T14:06:23.999Z</time></trkpt><trkpt lat="44.66821914549367" lon="9.10454148254308"><ele>522.8</ele><time>2026-04-25T14:06:24.999Z</time></trkpt><trkpt lat="44.66817627635249" lon="9.104678244503399"><ele>525.4</ele><time>2026-04-25T14:06:25.999Z</time></trkpt><trkpt lat="44.668117772232925" lon="9.104792306636202"><ele>528.0</ele><time>2026-04-25T14:06:26.999Z</time></trkpt><trkpt lat="44.6680219740667" lon="9.104869475477575"><ele>526.0</ele><time>2026-04-25T14:06:27.999Z</time></trkpt><trkpt lat="44.6679215417878" lon="9.104983249812326"><ele>524.0</ele><time>2026-04-25T14:06:28.999Z</time></trkpt><trkpt lat="44.66780173517497" lon="9.105084920701309"><ele>522.0</ele><time>2026-04-25T14:06:29.999Z</time></trkpt><trkpt lat="44.66769927385839" lon="9.105195225740125"><ele>520.0</ele><time>2026-04-25T14:06:30.999Z</time></trkpt><trkpt lat="44.667624639118685" lon="9.105299135682953"><ele>520.0</ele><time>2026-04-25T14:06:31.999Z</time></trkpt><trkpt lat="44.66756876528501" lon="9.105401922365017"><ele>520.0</ele><time>2026-04-25T14:06:32.999Z</time></trkpt><trkpt lat="44.66753243319526" lon="9.105537972690563"><ele>520.0</ele><time>2026-04-25T14:06:33.999Z</time></trkpt><trkpt lat="44.66751489536705" lon="9.105714947314722"><ele>520.0</ele><time>2026-04-25T14:06:34.999Z</time></trkpt><trkpt lat="44.66750376937323" lon="9.105927326702178"><ele>524.0</ele><time>2026-04-25T14:06:35.999Z</time></trkpt><trkpt lat="44.667485508458284" lon="9.106161183955008"><ele>528.0</ele><time>2026-04-25T14:06:36.999Z</time></trkpt><trkpt lat="44.66746342773901" lon="9.106399740174066"><ele>532.0</ele><time>2026-04-25T14:06:37.999Z</time></trkpt><trkpt lat="44.66743302410293" lon="9.106606773251391"><ele>533.75</ele><time>2026-04-25T14:06:38.999Z</time></trkpt><trkpt lat="44.66740529212305" lon="9.10679086158199"><ele>535.5</ele><time>2026-04-25T14:06:39.999Z</time></trkpt><trkpt lat="44.66734038142592" lon="9.106937646511877"><ele>537.25</ele><time>2026-04-25T14:06:40.999Z</time></trkpt><trkpt lat="44.667265985724306" lon="9.1070846841883"><ele>539.0</ele><time>2026-04-25T14:06:41.999Z</time></trkpt><trkpt lat="44.66719143206161" lon="9.107266339076098"><ele>536.5</ele><time>2026-04-25T14:06:42.999Z</time></trkpt><trkpt lat="44.66710256628587" lon="9.10744871285391"><ele>534.0</ele><time>2026-04-25T14:06:43.999Z</time></trkpt><trkpt lat="44.66703371527938" lon="9.107644295262707"><ele>531.5</ele><time>2026-04-25T14:06:44.999Z</time></trkpt><trkpt lat="44.66696486881625" lon="9.1078043353786"><ele>529.0</ele><time>2026-04-25T14:06:45.999Z</time></trkpt><trkpt lat="44.66689474549864" lon="9.107919582739928"><ele>529.0</ele><time>2026-04-25T14:06:46.999Z</time></trkpt><trkpt lat="44.66679890805243" lon="9.108008596285408"><ele>529.0</ele><time>2026-04-25T14:06:47.999Z</time></trkpt><trkpt lat="44.66667621740718" lon="9.108077488996736"><ele>529.0</ele><time>2026-04-25T14:06:48.999Z</time></trkpt><trkpt lat="44.66656060116985" lon="9.10817137985681"><ele>529.0</ele><time>2026-04-25T14:06:49.999Z</time></trkpt><trkpt lat="44.66646110358471" lon="9.108255174703785"><ele>534.5</ele><time>2026-04-25T14:06:50.999Z</time></trkpt><trkpt lat="44.66639143910607" lon="9.1083550952254"><ele>540.0</ele><time>2026-04-25T14:06:51.999Z</time></trkpt><trkpt lat="44.666337346665244" lon="9.108478066534591"><ele>545.5</ele><time>2026-04-25T14:06:52.999Z</time></trkpt><trkpt lat="44.66628553972941" lon="9.108632048666967"><ele>551.0</ele><time>2026-04-25T14:06:53.999Z</time></trkpt><trkpt lat="44.66623698105034" lon="9.108818225846434"><ele>551.0</ele><time>2026-04-25T14:06:54.999Z</time></trkpt><trkpt lat="44.66618979339853" lon="9.109019668161592"><ele>551.0</ele><time>2026-04-25T14:06:55.999Z</time></trkpt><trkpt lat="44.666133664690015" lon="9.10920101472907"><ele>551.0</ele><time>2026-04-25T14:06:56.999Z</time></trkpt><trkpt lat="44.666054961526825" lon="9.109352808058373"><ele>551.0</ele><time>2026-04-25T14:06:57.999Z</time></trkpt><trkpt lat="44.6659733444408" lon="9.109519511737064"><ele>551.6666666666666</ele><time>2026-04-25T14:06:58.999Z</time></trkpt><trkpt lat="44.665876953718765" lon="9.109697969035123"><ele>552.3333333333334</ele><time>2026-04-25T14:06:59.999Z</time></trkpt><trkpt lat="44.66578035993562" lon="9.109874559827407"><ele>553.0</ele><time>2026-04-25T14:07:00.999Z</time></trkpt><trkpt lat="44.66569323783565" lon="9.110036171212505"><ele>553.0</ele><time>2026-04-25T14:07:01.999Z</time></trkpt><trkpt lat="44.66561809812087" lon="9.11018492115229"><ele>553.0</ele><time>2026-04-25T14:07:02.999Z</time></trkpt><trkpt lat="44.665558318671785" lon="9.110321227496382"><ele>553.0</ele><time>2026-04-25T14:07:03.999Z</time></trkpt><trkpt lat="44.66552979680524" lon="9.11044925324508"><ele>553.0</ele><time>2026-04-25T14:07:04.999Z</time></trkpt><trkpt lat="44.66549788060207" lon="9.110563104211106"><ele>553.0</ele><time>2026-04-25T14:07:05.999Z</time></trkpt><trkpt lat="44.6654872459606" lon="9.110667595064983"><ele>551.3333333333334</ele><time>2026-04-25T14:07:06.999Z</time></trkpt><trkpt lat="44.66549548383809" lon="9.11078241176383"><ele>549.6666666666667</ele><time>2026-04-25T14:07:07.999Z</time></trkpt><trkpt lat="44.66548342012719" lon="9.110900860558203"><ele>548.0</ele><time>2026-04-25T14:07:08.999Z</time></trkpt><trkpt lat="44.66545433424378" lon="9.110991977080975"><ele>546.3333333333334</ele><time>2026-04-25T14:07:09.999Z</time></trkpt><trkpt lat="44.66540737509588" lon="9.111073371772406"><ele>544.6666666666666</ele><time>2026-04-25T14:07:10.999Z</time></trkpt><trkpt lat="44.66532973872215" lon="9.11111380842074"><ele>543.0</ele><time>2026-04-25T14:07:11.999Z</time></trkpt><trkpt lat="44.66524234758447" lon="9.111124569967696"><ele>543.0</ele><time>2026-04-25T14:07:12.999Z</time></trkpt><trkpt lat="44.66513413429948" lon="9.111143799872371"><ele>543.0</ele><time>2026-04-25T14:07:13.999Z</time></trkpt><trkpt lat="44.66503695897515" lon="9.111189143569128"><ele>543.0</ele><time>2026-04-25T14:07:14.999Z</time></trkpt><trkpt lat="44.66494350179717" lon="9.11123092547577"><ele>543.0</ele><time>2026-04-25T14:07:15.999Z</time></trkpt><trkpt lat="44.66486823697235" lon="9.111305030044798"><ele>543.0</ele><time>2026-04-25T14:07:16.999Z</time></trkpt><trkpt lat="44.664796030516584" lon="9.111404239988666"><ele>543.0</ele><time>2026-04-25T14:07:17.999Z</time></trkpt><trkpt lat="44.66471434741923" lon="9.111544606760823"><ele>543.0</ele><time>2026-04-25T14:07:18.999Z</time></trkpt><trkpt lat="44.664625562243394" lon="9.111690436231653"><ele>543.0</ele><time>2026-04-25T14:07:19.999Z</time></trkpt><trkpt lat="44.6645456146325" lon="9.111827359514885"><ele>543.0</ele><time>2026-04-25T14:07:20.999Z</time></trkpt><trkpt lat="44.66446498965939" lon="9.111949130326863"><ele>543.5</ele><time>2026-04-25T14:07:21.999Z</time></trkpt><trkpt lat="44.66438302876049" lon="9.112045003129362"><ele>544.0</ele><time>2026-04-25T14:07:22.999Z</time></trkpt><trkpt lat="44.66433999599206" lon="9.112155595260734"><ele>544.5</ele><time>2026-04-25T14:07:23.999Z</time></trkpt><trkpt lat="44.66429064038542" lon="9.11223365523368"><ele>545.0</ele><time>2026-04-25T14:07:24.999Z</time></trkpt><trkpt lat="44.6643154809831" lon="9.11234166606984"><ele>545.5</ele><time>2026-04-25T14:07:25.999Z</time></trkpt><trkpt lat="44.66435277487501" lon="9.11242895089527"><ele>546.0</ele><time>2026-04-25T14:07:26.999Z</time></trkpt><trkpt lat="44.664414137999856" lon="9.112514893629895"><ele>554.5</ele><time>2026-04-25T14:07:27.999Z</time></trkpt><trkpt lat="44.664510028188836" lon="9.112607757666984"><ele>563.0</ele><time>2026-04-25T14:07:28.999Z</time></trkpt><trkpt lat="44.66462225724432" lon="9.112722612798704"><ele>571.5</ele><time>2026-04-25T14:07:29.999Z</time></trkpt><trkpt lat="44.66470587278524" lon="9.112830221175711"><ele>580.0</ele><time>2026-04-25T14:07:30.999Z</time></trkpt><trkpt lat="44.66475953742794" lon="9.112937514374513"><ele>580.0</ele><time>2026-04-25T14:07:31.999Z</time></trkpt><trkpt lat="44.66478178507635" lon="9.113047937906654"><ele>580.0</ele><time>2026-04-25T14:07:32.999Z</time></trkpt><trkpt lat="44.664749803448615" lon="9.11316307784261"><ele>580.0</ele><time>2026-04-25T14:07:33.999Z</time></trkpt><trkpt lat="44.66473765316713" lon="9.113274518542015"><ele>580.0</ele><time>2026-04-25T14:07:34.999Z</time></trkpt><trkpt lat="44.664653087727174" lon="9.113329410184921"><ele>580.0</ele><time>2026-04-25T14:07:35.999Z</time></trkpt><trkpt lat="44.66457693687546" lon="9.113358974174341"><ele>580.0</ele><time>2026-04-25T14:07:36.999Z</time></trkpt><trkpt lat="44.66448206729492" lon="9.113349586604198"><ele>575.5</ele><time>2026-04-25T14:07:37.999Z</time></trkpt><trkpt lat="44.66436404792437" lon="9.113370075016451"><ele>571.0</ele><time>2026-04-25T14:07:38.999Z</time></trkpt><trkpt lat="44.66423698853072" lon="9.11337565718533"><ele>566.5</ele><time>2026-04-25T14:07:39.999Z</time></trkpt><trkpt lat="44.664109096204456" lon="9.113421507219146"><ele>562.0</ele><time>2026-04-25T14:07:40.999Z</time></trkpt><trkpt lat="44.66399938473426" lon="9.11348377112751"><ele>562.0</ele><time>2026-04-25T14:07:41.999Z</time></trkpt><trkpt lat="44.66390402101328" lon="9.113554589281296"><ele>562.0</ele><time>2026-04-25T14:07:42.999Z</time></trkpt><trkpt lat="44.66382670372738" lon="9.113639491971039"><ele>562.0</ele><time>2026-04-25T14:07:43.999Z</time></trkpt><trkpt lat="44.66375629474289" lon="9.113747713121352"><ele>562.0</ele><time>2026-04-25T14:07:44.999Z</time></trkpt><trkpt lat="44.663690615984905" lon="9.11387096852141"><ele>562.0</ele><time>2026-04-25T14:07:45.999Z</time></trkpt><trkpt lat="44.66361184254447" lon="9.113955383449747"><ele>559.4</ele><time>2026-04-25T14:07:46.999Z</time></trkpt><trkpt lat="44.66352429324001" lon="9.113998852560941"><ele>556.8000000000001</ele><time>2026-04-25T14:07:47.999Z</time></trkpt><trkpt lat="44.66342810124552" lon="9.113985934302626"><ele>554.2</ele><time>2026-04-25T14:07:48.999Z</time></trkpt><trkpt lat="44.66332573661677" lon="9.11390553692811"><ele>551.6</ele><time>2026-04-25T14:07:49.999Z</time></trkpt><trkpt lat="44.663210258668215" lon="9.113862510129618"><ele>549.0</ele><time>2026-04-25T14:07:50.999Z</time></trkpt><trkpt lat="44.66310188020138" lon="9.113817730384406"><ele>549.0</ele><time>2026-04-25T14:07:51.999Z</time></trkpt><trkpt lat="44.66300897469703" lon="9.113821322401284"><ele>549.0</ele><time>2026-04-25T14:07:52.999Z</time></trkpt><trkpt lat="44.662915642035806" lon="9.113846541689297"><ele>549.0</ele><time>2026-04-25T14:07:53.999Z</time></trkpt><trkpt lat="44.66282291604241" lon="9.113895785076247"><ele>549.0</ele><time>2026-04-25T14:07:54.999Z</time></trkpt><trkpt lat="44.662720463086046" lon="9.113972359619199"><ele>549.0</ele><time>2026-04-25T14:07:55.999Z</time></trkpt><trkpt lat="44.66260587785657" lon="9.114068488080955"><ele>551.0</ele><time>2026-04-25T14:07:56.999Z</time></trkpt><trkpt lat="44.662500511371576" lon="9.114153877768125"><ele>553.0</ele><time>2026-04-25T14:07:57.999Z</time></trkpt><trkpt lat="44.662413690758044" lon="9.11423096874262"><ele>555.0</ele><time>2026-04-25T14:07:58.999Z</time></trkpt><trkpt lat="44.66235156693255" lon="9.114321178929151"><ele>557.0</ele><time>2026-04-25T14:07:59.999Z</time></trkpt><trkpt lat="44.662314122085114" lon="9.114417944140522"><ele>559.0</ele><time>2026-04-25T14:08:00.999Z</time></trkpt><trkpt lat="44.66231169604276" lon="9.114520319279107"><ele>559.0</ele><time>2026-04-25T14:08:01.999Z</time></trkpt><trkpt lat="44.662359573693585" lon="9.114628604821412"><ele>559.0</ele><time>2026-04-25T14:08:02.999Z</time></trkpt><trkpt lat="44.662421630086776" lon="9.114712831230243"><ele>559.0</ele><time>2026-04-25T14:08:03.999Z</time></trkpt><trkpt lat="44.66251538525836" lon="9.114767676076037"><ele>559.0</ele><time>2026-04-25T14:08:04.999Z</time></trkpt><trkpt lat="44.66261595135057" lon="9.11479573000446"><ele>559.0</ele><time>2026-04-25T14:08:05.999Z</time></trkpt><trkpt lat="44.662707148822726" lon="9.114825987370152"><ele>559.0</ele><time>2026-04-25T14:08:06.999Z</time></trkpt><trkpt lat="44.66276488697166" lon="9.114902212003614"><ele>559.0</ele><time>2026-04-25T14:08:07.999Z</time></trkpt><trkpt lat="44.66278914653971" lon="9.115001932288726"><ele>559.0</ele><time>2026-04-25T14:08:08.999Z</time></trkpt><trkpt lat="44.662765955576816" lon="9.115112326164095"><ele>559.0</ele><time>2026-04-25T14:08:09.999Z</time></trkpt><trkpt lat="44.66274100720845" lon="9.115220236639"><ele>559.0</ele><time>2026-04-25T14:08:10.999Z</time></trkpt><trkpt lat="44.66264215600264" lon="9.11528165001969"><ele>559.0</ele><time>2026-04-25T14:08:11.999Z</time></trkpt><trkpt lat="44.662533639351665" lon="9.11539334932898"><ele>561.25</ele><time>2026-04-25T14:08:12.999Z</time></trkpt><trkpt lat="44.662406076502485" lon="9.115476558940689"><ele>563.5</ele><time>2026-04-25T14:08:13.999Z</time></trkpt><trkpt lat="44.66229135363648" lon="9.115547515049654"><ele>565.75</ele><time>2026-04-25T14:08:14.999Z</time></trkpt><trkpt lat="44.662183763949564" lon="9.115608173853166"><ele>568.0</ele><time>2026-04-25T14:08:15.999Z</time></trkpt><trkpt lat="44.662102802398145" lon="9.11566408515341"><ele>571.0</ele><time>2026-04-25T14:08:16.999Z</time></trkpt><trkpt lat="44.66204319193416" lon="9.115739406783856"><ele>574.0</ele><time>2026-04-25T14:08:17.999Z</time></trkpt><trkpt lat="44.66199876101821" lon="9.115847862684705"><ele>577.0</ele><time>2026-04-25T14:08:18.999Z</time></trkpt><trkpt lat="44.661952758662295" lon="9.115989334472282"><ele>580.0</ele><time>2026-04-25T14:08:19.999Z</time></trkpt><trkpt lat="44.66191370011987" lon="9.116133435038103"><ele>583.0</ele><time>2026-04-25T14:08:20.999Z</time></trkpt><trkpt lat="44.661889308373354" lon="9.116290237940087"><ele>573.25</ele><time>2026-04-25T14:08:21.999Z</time></trkpt><trkpt lat="44.66188894604701" lon="9.116456401009108"><ele>563.5</ele><time>2026-04-25T14:08:22.999Z</time></trkpt><trkpt lat="44.66190027765461" lon="9.116639884127306"><ele>553.75</ele><time>2026-04-25T14:08:23.999Z</time></trkpt><trkpt lat="44.66191140579724" lon="9.116854557487905"><ele>544.0</ele><time>2026-04-25T14:08:24.999Z</time></trkpt><trkpt lat="44.661908069198496" lon="9.117083186540418"><ele>544.0</ele><time>2026-04-25T14:08:25.999Z</time></trkpt><trkpt lat="44.6619054373325" lon="9.11730309348127"><ele>544.0</ele><time>2026-04-25T14:08:26.999Z</time></trkpt><trkpt lat="44.66190293899923" lon="9.117510756561279"><ele>544.0</ele><time>2026-04-25T14:08:27.999Z</time></trkpt><trkpt lat="44.661894950483266" lon="9.117684979795"><ele>544.0</ele><time>2026-04-25T14:08:28.999Z</time></trkpt><trkpt lat="44.66187128900624" lon="9.117846130964013"><ele>545.75</ele><time>2026-04-25T14:08:29.999Z</time></trkpt><trkpt lat="44.661817571535906" lon="9.118024815732474"><ele>547.5</ele><time>2026-04-25T14:08:30.999Z</time></trkpt><trkpt lat="44.66172390820659" lon="9.118192785692404"><ele>549.25</ele><time>2026-04-25T14:08:31.999Z</time></trkpt><trkpt lat="44.66166943109386" lon="9.118369145574924"><ele>551.0</ele><time>2026-04-25T14:08:32.999Z</time></trkpt><trkpt lat="44.661652404673056" lon="9.118566279336433"><ele>554.25</ele><time>2026-04-25T14:08:33.999Z</time></trkpt><trkpt lat="44.66159547787858" lon="9.118729903323018"><ele>557.5</ele><time>2026-04-25T14:08:34.999Z</time></trkpt><trkpt lat="44.66153214908978" lon="9.118877949801286"><ele>560.75</ele><time>2026-04-25T14:08:35.999Z</time></trkpt><trkpt lat="44.6614729187592" lon="9.11903181289637"><ele>564.0</ele><time>2026-04-25T14:08:36.999Z</time></trkpt><trkpt lat="44.66145133667256" lon="9.119195145315977"><ele>567.0</ele><time>2026-04-25T14:08:37.999Z</time></trkpt><trkpt lat="44.66140576941432" lon="9.119355561803586"><ele>570.0</ele><time>2026-04-25T14:08:38.999Z</time></trkpt><trkpt lat="44.661369849981355" lon="9.119515493110022"><ele>573.0</ele><time>2026-04-25T14:08:39.999Z</time></trkpt><trkpt lat="44.66135172087529" lon="9.119676852013123"><ele>576.0</ele><time>2026-04-25T14:08:40.999Z</time></trkpt><trkpt lat="44.66134506551429" lon="9.119847711937673"><ele>579.0</ele><time>2026-04-25T14:08:41.999Z</time></trkpt><trkpt lat="44.66135649275364" lon="9.12002845234676"><ele>582.0</ele><time>2026-04-25T14:08:42.999Z</time></trkpt><trkpt lat="44.66137810694659" lon="9.120234555945201"><ele>585.0</ele><time>2026-04-25T14:08:43.999Z</time></trkpt><trkpt lat="44.66139977987837" lon="9.120460086511109"><ele>588.0</ele><time>2026-04-25T14:08:44.999Z</time></trkpt><trkpt lat="44.66142111114063" lon="9.120703682836524"><ele>588.6666666666666</ele><time>2026-04-25T14:08:45.999Z</time></trkpt><trkpt lat="44.66144240168089" lon="9.120945172124042"><ele>589.3333333333333</ele><time>2026-04-25T14:08:46.999Z</time></trkpt><trkpt lat="44.661438597644505" lon="9.12116966825566"><ele>590.0</ele><time>2026-04-25T14:08:47.999Z</time></trkpt><trkpt lat="44.66145300825037" lon="9.121382414075255"><ele>589.5</ele><time>2026-04-25T14:08:48.999Z</time></trkpt><trkpt lat="44.661484872752666" lon="9.121566631963562"><ele>589.0</ele><time>2026-04-25T14:08:49.999Z</time></trkpt><trkpt lat="44.66146019838227" lon="9.121753437629806"><ele>588.5</ele><time>2026-04-25T14:08:50.999Z</time></trkpt><trkpt lat="44.6614390299352" lon="9.12195145783458"><ele>588.0</ele><time>2026-04-25T14:08:51.999Z</time></trkpt><trkpt lat="44.66141618315526" lon="9.122156667370271"><ele>588.0</ele><time>2026-04-25T14:08:52.999Z</time></trkpt><trkpt lat="44.66141538857492" lon="9.12232777134926"><ele>588.0</ele><time>2026-04-25T14:08:53.999Z</time></trkpt><trkpt lat="44.66140773164235" lon="9.122458744698292"><ele>588.0</ele><time>2026-04-25T14:08:54.999Z</time></trkpt><trkpt lat="44.66142105312491" lon="9.12256871965056"><ele>588.0</ele><time>2026-04-25T14:08:55.999Z</time></trkpt><trkpt lat="44.661467629532964" lon="9.12266615337934"><ele>588.0</ele><time>2026-04-25T14:08:56.999Z</time></trkpt><trkpt lat="44.66154543356988" lon="9.122747930550206"><ele>587.5</ele><time>2026-04-25T14:08:57.999Z</time></trkpt><trkpt lat="44.66163219053448" lon="9.122826052049627"><ele>587.0</ele><time>2026-04-25T14:08:58.999Z</time></trkpt><trkpt lat="44.66165124846958" lon="9.122933695488205"><ele>586.5</ele><time>2026-04-25T14:08:59.999Z</time></trkpt><trkpt lat="44.66162372687335" lon="9.123030711338846"><ele>586.0</ele><time>2026-04-25T14:09:00.999Z</time></trkpt><trkpt lat="44.6615637942001" lon="9.123103916826427"><ele>585.5</ele><time>2026-04-25T14:09:01.999Z</time></trkpt><trkpt lat="44.66148660645083" lon="9.123177231570262"><ele>585.0</ele><time>2026-04-25T14:09:02.999Z</time></trkpt><trkpt lat="44.66142944094419" lon="9.123284958834198"><ele>585.0</ele><time>2026-04-25T14:09:03.999Z</time></trkpt><trkpt lat="44.66138894133628" lon="9.123405181092728"><ele>585.0</ele><time>2026-04-25T14:09:04.999Z</time></trkpt><trkpt lat="44.66137746553873" lon="9.123540342303452"><ele>585.0</ele><time>2026-04-25T14:09:05.999Z</time></trkpt><trkpt lat="44.66138102760336" lon="9.123666135804356"><ele>585.0</ele><time>2026-04-25T14:09:06.999Z</time></trkpt><trkpt lat="44.66140283783869" lon="9.12377521978598"><ele>585.0</ele><time>2026-04-25T14:09:07.999Z</time></trkpt><trkpt lat="44.661446875454146" lon="9.12388519675807"><ele>585.0</ele><time>2026-04-25T14:09:08.999Z</time></trkpt><trkpt lat="44.66151559288493" lon="9.124012211565926"><ele>585.0</ele><time>2026-04-25T14:09:09.999Z</time></trkpt><trkpt lat="44.66158372545509" lon="9.124155559698247"><ele>585.0</ele><time>2026-04-25T14:09:10.999Z</time></trkpt><trkpt lat="44.66163964493598" lon="9.124284554377319"><ele>585.0</ele><time>2026-04-25T14:09:11.999Z</time></trkpt><trkpt lat="44.66170309111586" lon="9.124392996531666"><ele>585.0</ele><time>2026-04-25T14:09:12.999Z</time></trkpt><trkpt lat="44.66178549868055" lon="9.124487493192555"><ele>583.5</ele><time>2026-04-25T14:09:13.999Z</time></trkpt><trkpt lat="44.66186705865828" lon="9.124576926203158"><ele>582.0</ele><time>2026-04-25T14:09:14.999Z</time></trkpt><trkpt lat="44.66193336107391" lon="9.124656216036048"><ele>580.5</ele><time>2026-04-25T14:09:15.999Z</time></trkpt><trkpt lat="44.66195953444016" lon="9.124740995748569"><ele>579.0</ele><time>2026-04-25T14:09:16.999Z</time></trkpt><trkpt lat="44.66191768673247" lon="9.124835316884123"><ele>577.5</ele><time>2026-04-25T14:09:17.999Z</time></trkpt><trkpt lat="44.66187236160282" lon="9.124911791366436"><ele>576.0</ele><time>2026-04-25T14:09:18.999Z</time></trkpt><trkpt lat="44.66183168751125" lon="9.12498747851566"><ele>573.8</ele><time>2026-04-25T14:09:19.999Z</time></trkpt><trkpt lat="44.661779060933185" lon="9.125045228224337"><ele>571.6</ele><time>2026-04-25T14:09:20.999Z</time></trkpt><trkpt lat="44.66171777417607" lon="9.12512247642977"><ele>569.4</ele><time>2026-04-25T14:09:21.999Z</time></trkpt><trkpt lat="44.66166112441408" lon="9.125234725590841"><ele>567.2</ele><time>2026-04-25T14:09:22.999Z</time></trkpt><trkpt lat="44.661627961099214" lon="9.12537556593726"><ele>565.0</ele><time>2026-04-25T14:09:23.999Z</time></trkpt><trkpt lat="44.66162855432486" lon="9.125551056889787"><ele>567.0</ele><time>2026-04-25T14:09:24.999Z</time></trkpt><trkpt lat="44.66162654882541" lon="9.125741786580978"><ele>569.0</ele><time>2026-04-25T14:09:25.999Z</time></trkpt><trkpt lat="44.6616134528507" lon="9.125918642809507"><ele>571.0</ele><time>2026-04-25T14:09:26.999Z</time></trkpt><trkpt lat="44.66158949448642" lon="9.126110281173167"><ele>573.0</ele><time>2026-04-25T14:09:27.999Z</time></trkpt><trkpt lat="44.66158046716142" lon="9.126301588360906"><ele>573.0</ele><time>2026-04-25T14:09:28.999Z</time></trkpt><trkpt lat="44.661603276610094" lon="9.126476799418164"><ele>573.0</ele><time>2026-04-25T14:09:29.999Z</time></trkpt><trkpt lat="44.66159995361108" lon="9.126637564051897"><ele>573.0</ele><time>2026-04-25T14:09:30.999Z</time></trkpt><trkpt lat="44.661550138503586" lon="9.12676711295309"><ele>573.0</ele><time>2026-04-25T14:09:31.999Z</time></trkpt><trkpt lat="44.66153176232175" lon="9.126910270106322"><ele>573.0</ele><time>2026-04-25T14:09:32.999Z</time></trkpt><trkpt lat="44.66154390913104" lon="9.12707087409154"><ele>574.75</ele><time>2026-04-25T14:09:33.999Z</time></trkpt><trkpt lat="44.661560912349074" lon="9.127238951280864"><ele>576.5</ele><time>2026-04-25T14:09:34.999Z</time></trkpt><trkpt lat="44.66160716174124" lon="9.1274046411954"><ele>578.25</ele><time>2026-04-25T14:09:35.999Z</time></trkpt><trkpt lat="44.66162511364436" lon="9.127554745731487"><ele>580.0</ele><time>2026-04-25T14:09:36.999Z</time></trkpt><trkpt lat="44.66162286997705" lon="9.12769576747487"><ele>580.0</ele><time>2026-04-25T14:09:37.999Z</time></trkpt><trkpt lat="44.66159798033816" lon="9.127864775925039"><ele>580.0</ele><time>2026-04-25T14:09:38.999Z</time></trkpt><trkpt lat="44.66162641435941" lon="9.128048590929094"><ele>580.0</ele><time>2026-04-25T14:09:39.999Z</time></trkpt><trkpt lat="44.661606210248955" lon="9.128213106595707"><ele>580.0</ele><time>2026-04-25T14:09:40.999Z</time></trkpt><trkpt lat="44.661577466316096" lon="9.128338568288381"><ele>580.0</ele><time>2026-04-25T14:09:41.999Z</time></trkpt><trkpt lat="44.661535267496994" lon="9.128445081374911"><ele>580.0</ele><time>2026-04-25T14:09:42.999Z</time></trkpt><trkpt lat="44.6615138141081" lon="9.128559702924516"><ele>580.0</ele><time>2026-04-25T14:09:43.999Z</time></trkpt><trkpt lat="44.66153857426402" lon="9.128686003310715"><ele>580.0</ele><time>2026-04-25T14:09:44.999Z</time></trkpt><trkpt lat="44.66155992031877" lon="9.128831708287024"><ele>580.0</ele><time>2026-04-25T14:09:45.999Z</time></trkpt><trkpt lat="44.66160774216728" lon="9.128985275335987"><ele>580.0</ele><time>2026-04-25T14:09:46.999Z</time></trkpt><trkpt lat="44.66162603486867" lon="9.129125556230361"><ele>580.0</ele><time>2026-04-25T14:09:47.999Z</time></trkpt><trkpt lat="44.66159082732787" lon="9.129240343800175"><ele>580.0</ele><time>2026-04-25T14:09:48.999Z</time></trkpt><trkpt lat="44.66157412362665" lon="9.129358766272855"><ele>580.0</ele><time>2026-04-25T14:09:49.999Z</time></trkpt><trkpt lat="44.661573277213336" lon="9.129477205482122"><ele>580.0</ele><time>2026-04-25T14:09:50.999Z</time></trkpt><trkpt lat="44.661627348374985" lon="9.129587052930109"><ele>580.0</ele><time>2026-04-25T14:09:51.999Z</time></trkpt><trkpt lat="44.66170066781527" lon="9.1296771112638"><ele>580.0</ele><time>2026-04-25T14:09:52.999Z</time></trkpt><trkpt lat="44.661795131494976" lon="9.129746947891997"><ele>580.0</ele><time>2026-04-25T14:09:53.999Z</time></trkpt><trkpt lat="44.66189114485865" lon="9.129834027527027"><ele>580.0</ele><time>2026-04-25T14:09:54.999Z</time></trkpt><trkpt lat="44.66196862192171" lon="9.129903658005592"><ele>580.0</ele><time>2026-04-25T14:09:55.999Z</time></trkpt><trkpt lat="44.66202031646646" lon="9.129959397052556"><ele>587.6</ele><time>2026-04-25T14:09:56.999Z</time></trkpt><trkpt lat="44.6619998327564" lon="9.130077686712859"><ele>595.2</ele><time>2026-04-25T14:09:57.999Z</time></trkpt><trkpt lat="44.661993226040856" lon="9.130209924164268"><ele>602.8</ele><time>2026-04-25T14:09:58.999Z</time></trkpt><trkpt lat="44.66202454001074" lon="9.13036677205149"><ele>610.4</ele><time>2026-04-25T14:09:59.999Z</time></trkpt><trkpt lat="44.66208056291346" lon="9.130545934521166"><ele>618.0</ele><time>2026-04-25T14:10:00.999Z</time></trkpt><trkpt lat="44.66213226463314" lon="9.130727452179105"><ele>618.0</ele><time>2026-04-25T14:10:01.999Z</time></trkpt><trkpt lat="44.662135522237584" lon="9.130906186975176"><ele>618.0</ele><time>2026-04-25T14:10:02.999Z</time></trkpt><trkpt lat="44.66216841126581" lon="9.13109145555697"><ele>618.0</ele><time>2026-04-25T14:10:03.999Z</time></trkpt><trkpt lat="44.662204071526766" lon="9.131235874614829"><ele>618.0</ele><time>2026-04-25T14:10:04.999Z</time></trkpt><trkpt lat="44.66220130635413" lon="9.131357197766787"><ele>618.0</ele><time>2026-04-25T14:10:05.999Z</time></trkpt><trkpt lat="44.66218148367234" lon="9.131473372703173"><ele>618.0</ele><time>2026-04-25T14:10:06.999Z</time></trkpt><trkpt lat="44.66218102689649" lon="9.131579651613293"><ele>618.0</ele><time>2026-04-25T14:10:07.999Z</time></trkpt><trkpt lat="44.66218164284476" lon="9.131680864873154"><ele>618.0</ele><time>2026-04-25T14:10:08.999Z</time></trkpt><trkpt lat="44.66221444116585" lon="9.131786781722198"><ele>618.0</ele><time>2026-04-25T14:10:09.999Z</time></trkpt><trkpt lat="44.662310288525106" lon="9.131875405393528"><ele>618.0</ele><time>2026-04-25T14:10:10.999Z</time></trkpt><trkpt lat="44.66241088334377" lon="9.131971844604685"><ele>613.1999999999999</ele><time>2026-04-25T14:10:11.999Z</time></trkpt><trkpt lat="44.66250088548711" lon="9.132058254493254"><ele>608.4</ele><time>2026-04-25T14:10:12.999Z</time></trkpt><trkpt lat="44.66258211383701" lon="9.132107019010602"><ele>603.5999999999999</ele><time>2026-04-25T14:10:13.999Z</time></trkpt><trkpt lat="44.66267179145594" lon="9.132128419305515"><ele>598.8</ele><time>2026-04-25T14:10:14.999Z</time></trkpt><trkpt lat="44.66276841961719" lon="9.132136217546297"><ele>594.0</ele><time>2026-04-25T14:10:15.999Z</time></trkpt><trkpt lat="44.66285991579842" lon="9.132122284379259"><ele>599.6666666666666</ele><time>2026-04-25T14:10:16.999Z</time></trkpt><trkpt lat="44.66293957593373" lon="9.132109980904442"><ele>605.3333333333334</ele><time>2026-04-25T14:10:17.999Z</time></trkpt><trkpt lat="44.66300358930269" lon="9.13212303670169"><ele>611.0</ele><time>2026-04-25T14:10:18.999Z</time></trkpt><trkpt lat="44.66305618690964" lon="9.132172209791918"><ele>616.6666666666667</ele><time>2026-04-25T14:10:19.999Z</time></trkpt><trkpt lat="44.663072227866" lon="9.13226985201786"><ele>622.3333333333334</ele><time>2026-04-25T14:10:20.999Z</time></trkpt><trkpt lat="44.6630646890765" lon="9.132377829144042"><ele>628.0</ele><time>2026-04-25T14:10:21.999Z</time></trkpt><trkpt lat="44.6630429513899" lon="9.132507662664958"><ele>628.0</ele><time>2026-04-25T14:10:22.999Z</time></trkpt><trkpt lat="44.66300760988753" lon="9.132658045105323"><ele>628.0</ele><time>2026-04-25T14:10:23.999Z</time></trkpt><trkpt lat="44.66297068502704" lon="9.132813225397005"><ele>628.0</ele><time>2026-04-25T14:10:24.999Z</time></trkpt><trkpt lat="44.66295117314126" lon="9.132956961381389"><ele>628.0</ele><time>2026-04-25T14:10:25.999Z</time></trkpt><trkpt lat="44.66295603403722" lon="9.133080535710478"><ele>628.0</ele><time>2026-04-25T14:10:26.999Z</time></trkpt><trkpt lat="44.662993902939995" lon="9.13318864726045"><ele>624.4</ele><time>2026-04-25T14:10:27.999Z</time></trkpt><trkpt lat="44.66306472005064" lon="9.1332907758902"><ele>620.8</ele><time>2026-04-25T14:10:28.999Z</time></trkpt><trkpt lat="44.663147091368025" lon="9.133402404815687"><ele>617.2</ele><time>2026-04-25T14:10:29.999Z</time></trkpt><trkpt lat="44.66322785356726" lon="9.133518760498994"><ele>613.6</ele><time>2026-04-25T14:10:30.999Z</time></trkpt><trkpt lat="44.66331978845489" lon="9.133618536595916"><ele>610.0</ele><time>2026-04-25T14:10:31.999Z</time></trkpt><trkpt lat="44.66343057498653" lon="9.133682769614936"><ele>610.0</ele><time>2026-04-25T14:10:32.999Z</time></trkpt><trkpt lat="44.66354840166352" lon="9.133729054148938"><ele>610.0</ele><time>2026-04-25T14:10:33.999Z</time></trkpt><trkpt lat="44.66363253872814" lon="9.133800834142429"><ele>610.0</ele><time>2026-04-25T14:10:34.999Z</time></trkpt><trkpt lat="44.66367642191923" lon="9.133932448717704"><ele>610.0</ele><time>2026-04-25T14:10:35.999Z</time></trkpt><trkpt lat="44.663756973597" lon="9.134068874504383"><ele>617.25</ele><time>2026-04-25T14:10:36.999Z</time></trkpt><trkpt lat="44.66383492087354" lon="9.134224167688371"><ele>624.5</ele><time>2026-04-25T14:10:37.999Z</time></trkpt><trkpt lat="44.66391072302211" lon="9.134385369104361"><ele>631.75</ele><time>2026-04-25T14:10:38.999Z</time></trkpt><trkpt lat="44.66396697168852" lon="9.134579909046291"><ele>639.0</ele><time>2026-04-25T14:10:39.999Z</time></trkpt><trkpt lat="44.6640238153478" lon="9.134808464815933"><ele>633.25</ele><time>2026-04-25T14:10:40.999Z</time></trkpt><trkpt lat="44.6640752433197" lon="9.13501621487321"><ele>627.5</ele><time>2026-04-25T14:10:41.999Z</time></trkpt><trkpt lat="44.664122453037294" lon="9.135195656565948"><ele>621.75</ele><time>2026-04-25T14:10:42.999Z</time></trkpt><trkpt lat="44.66417976187702" lon="9.135361889897057"><ele>616.0</ele><time>2026-04-25T14:10:43.999Z</time></trkpt><trkpt lat="44.664262217095114" lon="9.135514851263423"><ele>616.0</ele><time>2026-04-25T14:10:44.999Z</time></trkpt><trkpt lat="44.66434352529808" lon="9.13564172692738"><ele>616.0</ele><time>2026-04-25T14:10:45.999Z</time></trkpt><trkpt lat="44.664409816473054" lon="9.135730784167206"><ele>616.0</ele><time>2026-04-25T14:10:46.999Z</time></trkpt><trkpt lat="44.66447179900915" lon="9.135763676512822"><ele>616.0</ele><time>2026-04-25T14:10:47.999Z</time></trkpt><trkpt lat="44.66455518525953" lon="9.135767312260946"><ele>616.0</ele><time>2026-04-25T14:10:48.999Z</time></trkpt><trkpt lat="44.664666317425045" lon="9.135741295227596"><ele>616.5</ele><time>2026-04-25T14:10:49.999Z</time></trkpt><trkpt lat="44.66479068211355" lon="9.135724353319585"><ele>617.0</ele><time>2026-04-25T14:10:50.999Z</time></trkpt><trkpt lat="44.66491723173733" lon="9.135708591469331"><ele>617.5</ele><time>2026-04-25T14:10:51.999Z</time></trkpt><trkpt lat="44.66504425785219" lon="9.135676522287975"><ele>618.0</ele><time>2026-04-25T14:10:52.999Z</time></trkpt><trkpt lat="44.6651614640976" lon="9.135620760337565"><ele>625.8</ele><time>2026-04-25T14:10:53.999Z</time></trkpt><trkpt lat="44.66525068976762" lon="9.135544222029361"><ele>633.5999999999999</ele><time>2026-04-25T14:10:54.999Z</time></trkpt><trkpt lat="44.66531700159889" lon="9.135444350729697"><ele>641.4000000000001</ele><time>2026-04-25T14:10:55.999Z</time></trkpt><trkpt lat="44.665379677813924" lon="9.135357172316029"><ele>649.2</ele><time>2026-04-25T14:10:57Z</time></trkpt><trkpt lat="44.66549020897956" lon="9.135360902091236"><ele>657.0</ele><time>2026-04-25T14:10:59Z</time></trkpt><trkpt lat="44.665539830163986" lon="9.135508547635926"><ele>655.4000000000001</ele><time>2026-04-25T14:11:01Z</time></trkpt><trkpt lat="44.665539418667" lon="9.135632162517295"><ele>653.8000000000001</ele><time>2026-04-25T14:11:02Z</time></trkpt><trkpt lat="44.665540017983275" lon="9.135800181507852"><ele>652.2</ele><time>2026-04-25T14:11:03Z</time></trkpt><trkpt lat="44.665535346479274" lon="9.135968911229037"><ele>650.6</ele><time>2026-04-25T14:11:04Z</time></trkpt><trkpt lat="44.665481277440485" lon="9.13610083690751"><ele>649.0</ele><time>2026-04-25T14:11:05Z</time></trkpt><trkpt lat="44.665415798664924" lon="9.13622249184328"><ele>649.0</ele><time>2026-04-25T14:11:06Z</time></trkpt><trkpt lat="44.66536897867828" lon="9.13635293753114"><ele>649.0</ele><time>2026-04-25T14:11:07Z</time></trkpt><trkpt lat="44.66535367108807" lon="9.136457804394018"><ele>649.0</ele><time>2026-04-25T14:11:08Z</time></trkpt><trkpt lat="44.66537363722849" lon="9.1365507279059"><ele>649.0</ele><time>2026-04-25T14:11:09Z</time></trkpt><trkpt lat="44.66543429073655" lon="9.136612267754963"><ele>649.0</ele><time>2026-04-25T14:11:10Z</time></trkpt><trkpt lat="44.665519178628735" lon="9.136645882159234"><ele>649.0</ele><time>2026-04-25T14:11:11Z</time></trkpt><trkpt lat="44.665630392370325" lon="9.13664677985594"><ele>644.75</ele><time>2026-04-25T14:11:12Z</time></trkpt><trkpt lat="44.66574657575877" lon="9.136635216245688"><ele>640.5</ele><time>2026-04-25T14:11:13Z</time></trkpt><trkpt lat="44.6658762953673" lon="9.136608474767627"><ele>636.25</ele><time>2026-04-25T14:11:14Z</time></trkpt><trkpt lat="44.666005729225816" lon="9.136570958318812"><ele>632.0</ele><time>2026-04-25T14:11:15Z</time></trkpt><trkpt lat="44.66612167692577" lon="9.13654800534551"><ele>640.6</ele><time>2026-04-25T14:11:16Z</time></trkpt><trkpt lat="44.66622707728278" lon="9.136567047695163"><ele>649.2</ele><time>2026-04-25T14:11:17Z</time></trkpt><trkpt lat="44.666307502528895" lon="9.136606688678764"><ele>657.8</ele><time>2026-04-25T14:11:18Z</time></trkpt><trkpt lat="44.666354953267" lon="9.1366672736605"><ele>666.4</ele><time>2026-04-25T14:11:19Z</time></trkpt><trkpt lat="44.66634986873461" lon="9.13684106922671"><ele>675.0</ele><time>2026-04-25T14:11:21Z</time></trkpt><trkpt lat="44.6662933435987" lon="9.136947236221795"><ele>675.0</ele><time>2026-04-25T14:11:22Z</time></trkpt><trkpt lat="44.66622746940233" lon="9.137070005860124"><ele>675.0</ele><time>2026-04-25T14:11:23Z</time></trkpt><trkpt lat="44.666167394453375" lon="9.137207257706107"><ele>675.0</ele><time>2026-04-25T14:11:24Z</time></trkpt><trkpt lat="44.66610198707398" lon="9.137347263064772"><ele>675.0</ele><time>2026-04-25T14:11:25Z</time></trkpt><trkpt lat="44.66605773702561" lon="9.137494053657315"><ele>675.8333333333334</ele><time>2026-04-25T14:11:26Z</time></trkpt><trkpt lat="44.666034376250835" lon="9.137640458318849"><ele>676.6666666666666</ele><time>2026-04-25T14:11:27Z</time></trkpt><trkpt lat="44.66602751063495" lon="9.13776074027205"><ele>677.5</ele><time>2026-04-25T14:11:28Z</time></trkpt><trkpt lat="44.66605190436216" lon="9.13785770540412"><ele>678.3333333333333</ele><time>2026-04-25T14:11:29Z</time></trkpt><trkpt lat="44.66610527290511" lon="9.137937198451258"><ele>679.1666666666666</ele><time>2026-04-25T14:11:30Z</time></trkpt><trkpt lat="44.666182509041626" lon="9.138017895628161"><ele>680.0</ele><time>2026-04-25T14:11:31Z</time></trkpt><trkpt lat="44.666274194329034" lon="9.138128993734915"><ele>677.75</ele><time>2026-04-25T14:11:32Z</time></trkpt><trkpt lat="44.66634393806236" lon="9.138287071497016"><ele>675.5</ele><time>2026-04-25T14:11:33Z</time></trkpt><trkpt lat="44.666418472245404" lon="9.13845779914778"><ele>673.25</ele><time>2026-04-25T14:11:34Z</time></trkpt><trkpt lat="44.666503634233464" lon="9.138596010635606"><ele>671.0</ele><time>2026-04-25T14:11:35Z</time></trkpt><trkpt lat="44.66656348371198" lon="9.138741947630939"><ele>671.0</ele><time>2026-04-25T14:11:36Z</time></trkpt><trkpt lat="44.66658743044652" lon="9.138912094052873"><ele>671.0</ele><time>2026-04-25T14:11:37Z</time></trkpt><trkpt lat="44.66662781531334" lon="9.139102109908741"><ele>671.0</ele><time>2026-04-25T14:11:38Z</time></trkpt><trkpt lat="44.666657373221256" lon="9.139315969268884"><ele>671.0</ele><time>2026-04-25T14:11:39Z</time></trkpt><trkpt lat="44.66669166967349" lon="9.139507767654717"><ele>668.1999999999999</ele><time>2026-04-25T14:11:40Z</time></trkpt><trkpt lat="44.666697380925875" lon="9.139682354323025"><ele>665.4</ele><time>2026-04-25T14:11:41Z</time></trkpt><trkpt lat="44.66672291739781" lon="9.13983630947061"><ele>662.6</ele><time>2026-04-25T14:11:42Z</time></trkpt><trkpt lat="44.666712213355545" lon="9.139977497197833"><ele>659.8</ele><time>2026-04-25T14:11:43Z</time></trkpt><trkpt lat="44.66673612171871" lon="9.140110122073233"><ele>657.0</ele><time>2026-04-25T14:11:44Z</time></trkpt><trkpt lat="44.66680148420152" lon="9.140232413020136"><ele>654.4000000000001</ele><time>2026-04-25T14:11:45Z</time></trkpt><trkpt lat="44.66687664317862" lon="9.140346502435234"><ele>651.8000000000001</ele><time>2026-04-25T14:11:46Z</time></trkpt><trkpt lat="44.66694936615801" lon="9.14043170512864"><ele>649.2</ele><time>2026-04-25T14:11:47Z</time></trkpt><trkpt lat="44.66702440952979" lon="9.140455848317446"><ele>646.6</ele><time>2026-04-25T14:11:48Z</time></trkpt><trkpt lat="44.667124279018495" lon="9.14045767268406"><ele>644.0</ele><time>2026-04-25T14:11:49Z</time></trkpt><trkpt lat="44.66724171514478" lon="9.140467615192696"><ele>649.0</ele><time>2026-04-25T14:11:50Z</time></trkpt><trkpt lat="44.66732458534009" lon="9.140511913569785"><ele>654.0</ele><time>2026-04-25T14:11:51Z</time></trkpt><trkpt lat="44.66739747578014" lon="9.140597047041098"><ele>659.0</ele><time>2026-04-25T14:11:52Z</time></trkpt><trkpt lat="44.667485957414634" lon="9.140708536562014"><ele>664.0</ele><time>2026-04-25T14:11:53Z</time></trkpt><trkpt lat="44.66756944103702" lon="9.140857593585364"><ele>669.0</ele><time>2026-04-25T14:11:54Z</time></trkpt><trkpt lat="44.667664429521516" lon="9.14100071135671"><ele>680.25</ele><time>2026-04-25T14:11:55Z</time></trkpt><trkpt lat="44.667786633753266" lon="9.14111474638708"><ele>691.5</ele><time>2026-04-25T14:11:56Z</time></trkpt><trkpt lat="44.66790819587556" lon="9.141194750168001"><ele>702.75</ele><time>2026-04-25T14:11:57Z</time></trkpt><trkpt lat="44.66799496355404" lon="9.141276655606964"><ele>714.0</ele><time>2026-04-25T14:11:58Z</time></trkpt><trkpt lat="44.66804610599051" lon="9.141359376797475"><ele>714.0</ele><time>2026-04-25T14:11:59Z</time></trkpt><trkpt lat="44.66805754304561" lon="9.14151483388166"><ele>714.0</ele><time>2026-04-25T14:12:01Z</time></trkpt><trkpt lat="44.66800994465746" lon="9.141583893842409"><ele>714.0</ele><time>2026-04-25T14:12:02Z</time></trkpt><trkpt lat="44.66793103123979" lon="9.14164380350463"><ele>714.0</ele><time>2026-04-25T14:12:03Z</time></trkpt><trkpt lat="44.66783765034917" lon="9.141694183535359"><ele>714.0</ele><time>2026-04-25T14:12:04Z</time></trkpt><trkpt lat="44.66777705024804" lon="9.141773383445141"><ele>702.2</ele><time>2026-04-25T14:12:05Z</time></trkpt><trkpt lat="44.66769045639452" lon="9.141890696238478"><ele>690.4000000000001</ele><time>2026-04-25T14:12:06Z</time></trkpt><trkpt lat="44.66762203751798" lon="9.141986861001826"><ele>678.6</ele><time>2026-04-25T14:12:07Z</time></trkpt><trkpt lat="44.66758036476137" lon="9.142097649590351"><ele>666.8</ele><time>2026-04-25T14:12:08Z</time></trkpt><trkpt lat="44.66754552800477" lon="9.142213843446477"><ele>655.0</ele><time>2026-04-25T14:12:09Z</time></trkpt><trkpt lat="44.66754163701935" lon="9.142326954853445"><ele>655.0</ele><time>2026-04-25T14:12:10Z</time></trkpt><trkpt lat="44.66756117231439" lon="9.142413430543796"><ele>655.0</ele><time>2026-04-25T14:12:11Z</time></trkpt><trkpt lat="44.667610587481406" lon="9.142497534029342"><ele>655.0</ele><time>2026-04-25T14:12:12Z</time></trkpt><trkpt lat="44.66769985763394" lon="9.142574659234525"><ele>655.0</ele><time>2026-04-25T14:12:13Z</time></trkpt><trkpt lat="44.66778744757754" lon="9.142671299930152"><ele>655.0</ele><time>2026-04-25T14:12:14Z</time></trkpt><trkpt lat="44.66784864410569" lon="9.142807289105018"><ele>666.75</ele><time>2026-04-25T14:12:15Z</time></trkpt><trkpt lat="44.667895439820384" lon="9.142954432242256"><ele>678.5</ele><time>2026-04-25T14:12:16Z</time></trkpt><trkpt lat="44.66794784822213" lon="9.143138442580343"><ele>690.25</ele><time>2026-04-25T14:12:17Z</time></trkpt><trkpt lat="44.66799402184314" lon="9.143355718518263"><ele>702.0</ele><time>2026-04-25T14:12:18Z</time></trkpt><trkpt lat="44.668061616980644" lon="9.14357544441904"><ele>702.0</ele><time>2026-04-25T14:12:19Z</time></trkpt><trkpt lat="44.66810697709568" lon="9.14378644413424"><ele>702.0</ele><time>2026-04-25T14:12:20Z</time></trkpt><trkpt lat="44.66812513938069" lon="9.143980832425072"><ele>702.0</ele><time>2026-04-25T14:12:21Z</time></trkpt><trkpt lat="44.66812975387549" lon="9.144149115353683"><ele>702.0</ele><time>2026-04-25T14:12:22Z</time></trkpt><trkpt lat="44.668111568501956" lon="9.144305737192905"><ele>700.0</ele><time>2026-04-25T14:12:23Z</time></trkpt><trkpt lat="44.66807267259937" lon="9.144452214748874"><ele>698.0</ele><time>2026-04-25T14:12:24Z</time></trkpt><trkpt lat="44.668034612560774" lon="9.14461709340966"><ele>696.0</ele><time>2026-04-25T14:12:25Z</time></trkpt><trkpt lat="44.66802655400167" lon="9.144750167029496"><ele>694.0</ele><time>2026-04-25T14:12:26Z</time></trkpt><trkpt lat="44.66802935108594" lon="9.144854886720298"><ele>692.0</ele><time>2026-04-25T14:12:27Z</time></trkpt><trkpt lat="44.66805691903734" lon="9.14494859592788"><ele>690.0</ele><time>2026-04-25T14:12:28Z</time></trkpt><trkpt lat="44.668124865358934" lon="9.14504027304733"><ele>688.0</ele><time>2026-04-25T14:12:29Z</time></trkpt><trkpt lat="44.66818830771211" lon="9.145151343178066"><ele>686.0</ele><time>2026-04-25T14:12:30Z</time></trkpt><trkpt lat="44.668216206845585" lon="9.14528408517861"><ele>684.0</ele><time>2026-04-25T14:12:31Z</time></trkpt><trkpt lat="44.668255115384135" lon="9.145414896894529"><ele>682.0</ele><time>2026-04-25T14:12:32Z</time></trkpt><trkpt lat="44.66829715427693" lon="9.145541007930822"><ele>682.0</ele><time>2026-04-25T14:12:33Z</time></trkpt><trkpt lat="44.6683638225073" lon="9.145624101896102"><ele>682.0</ele><time>2026-04-25T14:12:34Z</time></trkpt><trkpt lat="44.668447064904164" lon="9.145676434743155"><ele>682.0</ele><time>2026-04-25T14:12:35Z</time></trkpt><trkpt lat="44.66854506504947" lon="9.145677961344907"><ele>682.0</ele><time>2026-04-25T14:12:36Z</time></trkpt><trkpt lat="44.66865691288159" lon="9.145641397769644"><ele>682.0</ele><time>2026-04-25T14:12:37Z</time></trkpt><trkpt lat="44.66878748396189" lon="9.145591713107013"><ele>694.3333333333334</ele><time>2026-04-25T14:12:38Z</time></trkpt><trkpt lat="44.66892876365457" lon="9.145545763603469"><ele>706.6666666666666</ele><time>2026-04-25T14:12:39Z</time></trkpt><trkpt lat="44.66908510128641" lon="9.145506423962217"><ele>719.0</ele><time>2026-04-25T14:12:40Z</time></trkpt><trkpt lat="44.66925141579284" lon="9.145460238589493"><ele>719.0</ele><time>2026-04-25T14:12:41Z</time></trkpt><trkpt lat="44.66939986207195" lon="9.145421113640268"><ele>719.0</ele><time>2026-04-25T14:12:42Z</time></trkpt><trkpt lat="44.669543510140684" lon="9.145408435405159"><ele>719.0</ele><time>2026-04-25T14:12:43Z</time></trkpt><trkpt lat="44.669672841488925" lon="9.145372531245101"><ele>719.0</ele><time>2026-04-25T14:12:44Z</time></trkpt><trkpt lat="44.66979739558226" lon="9.145292139278625"><ele>717.5</ele><time>2026-04-25T14:12:45Z</time></trkpt><trkpt lat="44.669929109361625" lon="9.14519059785503"><ele>716.0</ele><time>2026-04-25T14:12:46Z</time></trkpt><trkpt lat="44.670046574685706" lon="9.145090832814695"><ele>714.5</ele><time>2026-04-25T14:12:47Z</time></trkpt><trkpt lat="44.67014002309909" lon="9.145023177795915"><ele>713.0</ele><time>2026-04-25T14:12:48Z</time></trkpt><trkpt lat="44.67022612375693" lon="9.145022341730387"><ele>712.5999999999999</ele><time>2026-04-25T14:12:49Z</time></trkpt><trkpt lat="44.67029477683696" lon="9.145080409533561"><ele>712.1999999999999</ele><time>2026-04-25T14:12:50Z</time></trkpt><trkpt lat="44.670398416181364" lon="9.145128457561501"><ele>711.8</ele><time>2026-04-25T14:12:51Z</time></trkpt><trkpt lat="44.6705150002133" lon="9.145171650583256"><ele>711.4</ele><time>2026-04-25T14:12:52Z</time></trkpt><trkpt lat="44.6706261890928" lon="9.145188329520796"><ele>711.0</ele><time>2026-04-25T14:12:53Z</time></trkpt><trkpt lat="44.67072501284651" lon="9.145182754121011"><ele>711.0</ele><time>2026-04-25T14:12:54Z</time></trkpt><trkpt lat="44.670798750753946" lon="9.145211468571047"><ele>711.0</ele><time>2026-04-25T14:12:55Z</time></trkpt><trkpt lat="44.670850039461236" lon="9.145271921114809"><ele>711.0</ele><time>2026-04-25T14:12:56Z</time></trkpt><trkpt lat="44.670903136195626" lon="9.14533469655863"><ele>711.0</ele><time>2026-04-25T14:12:57Z</time></trkpt><trkpt lat="44.67091655375624" lon="9.145449967754608"><ele>711.0</ele><time>2026-04-25T14:12:58Z</time></trkpt><trkpt lat="44.670881352461244" lon="9.145577802184452"><ele>711.0</ele><time>2026-04-25T14:12:59Z</time></trkpt><trkpt lat="44.67086984687345" lon="9.145716753557286"><ele>711.1666666666666</ele><time>2026-04-25T14:13:00Z</time></trkpt><trkpt lat="44.67081750819321" lon="9.145818706517794"><ele>711.3333333333334</ele><time>2026-04-25T14:13:01Z</time></trkpt><trkpt lat="44.6707339391255" lon="9.145835009220736"><ele>711.5</ele><time>2026-04-25T14:13:02Z</time></trkpt><trkpt lat="44.67066954469507" lon="9.145904308240137"><ele>711.6666666666667</ele><time>2026-04-25T14:13:03Z</time></trkpt><trkpt lat="44.67059816699737" lon="9.145966071313751"><ele>711.8333333333334</ele><time>2026-04-25T14:13:04Z</time></trkpt><trkpt lat="44.670538689481646" lon="9.146067868975766"><ele>712.0</ele><time>2026-04-25T14:13:05Z</time></trkpt><trkpt lat="44.67050287792498" lon="9.146211174113724"><ele>712.0</ele><time>2026-04-25T14:13:06Z</time></trkpt><trkpt lat="44.67047654042159" lon="9.146379921418614"><ele>712.0</ele><time>2026-04-25T14:13:07Z</time></trkpt><trkpt lat="44.6704336220863" lon="9.146517502444203"><ele>712.0</ele><time>2026-04-25T14:13:08Z</time></trkpt><trkpt lat="44.670340224330936" lon="9.146624926650434"><ele>712.0</ele><time>2026-04-25T14:13:09Z</time></trkpt><trkpt lat="44.67024207381944" lon="9.146754940638646"><ele>707.8</ele><time>2026-04-25T14:13:10Z</time></trkpt><trkpt lat="44.670142760254116" lon="9.146842621022229"><ele>703.6</ele><time>2026-04-25T14:13:11Z</time></trkpt><trkpt lat="44.67006127235613" lon="9.146912186109978"><ele>699.4</ele><time>2026-04-25T14:13:12Z</time></trkpt><trkpt lat="44.67001390463897" lon="9.147004101824786"><ele>695.1999999999999</ele><time>2026-04-25T14:13:13Z</time></trkpt><trkpt lat="44.66997276165119" lon="9.147139293096103"><ele>691.0</ele><time>2026-04-25T14:13:14Z</time></trkpt><trkpt lat="44.66993518767504" lon="9.147298410954386"><ele>698.0</ele><time>2026-04-25T14:13:15Z</time></trkpt><trkpt lat="44.669900129614" lon="9.147481180011894"><ele>705.0</ele><time>2026-04-25T14:13:16Z</time></trkpt><trkpt lat="44.66987478613462" lon="9.147645653342387"><ele>712.0</ele><time>2026-04-25T14:13:17Z</time></trkpt><trkpt lat="44.669809954436545" lon="9.147766600523106"><ele>719.0</ele><time>2026-04-25T14:13:18Z</time></trkpt><trkpt lat="44.669726993333214" lon="9.147841071147605"><ele>719.0</ele><time>2026-04-25T14:13:19Z</time></trkpt><trkpt lat="44.669644620744336" lon="9.14794365889466"><ele>719.0</ele><time>2026-04-25T14:13:20Z</time></trkpt><trkpt lat="44.66956844597186" lon="9.148038958002012"><ele>719.0</ele><time>2026-04-25T14:13:21Z</time></trkpt><trkpt lat="44.66952155549552" lon="9.148142040240398"><ele>719.0</ele><time>2026-04-25T14:13:22Z</time></trkpt><trkpt lat="44.669498192555885" lon="9.14825464949593"><ele>719.0</ele><time>2026-04-25T14:13:23Z</time></trkpt><trkpt lat="44.669499214578046" lon="9.14838457105048"><ele>725.5</ele><time>2026-04-25T14:13:24Z</time></trkpt><trkpt lat="44.66953077826139" lon="9.14854428746636"><ele>732.0</ele><time>2026-04-25T14:13:25Z</time></trkpt><trkpt lat="44.669573861815394" lon="9.148722232431753"><ele>738.5</ele><time>2026-04-25T14:13:26Z</time></trkpt><trkpt lat="44.669571688828015" lon="9.148912047326315"><ele>745.0</ele><time>2026-04-25T14:13:27Z</time></trkpt><trkpt lat="44.669552193849725" lon="9.14907917822389"><ele>745.4</ele><time>2026-04-25T14:13:28Z</time></trkpt><trkpt lat="44.66956448363291" lon="9.149218861994614"><ele>745.8</ele><time>2026-04-25T14:13:29Z</time></trkpt><trkpt lat="44.66959433937942" lon="9.14934506271868"><ele>746.2</ele><time>2026-04-25T14:13:30Z</time></trkpt><trkpt lat="44.66964878098259" lon="9.1494564451138"><ele>746.6</ele><time>2026-04-25T14:13:31Z</time></trkpt><trkpt lat="44.66971162240378" lon="9.149541789224406"><ele>747.0</ele><time>2026-04-25T14:13:32Z</time></trkpt><trkpt lat="44.66976858340615" lon="9.149628307003395"><ele>747.0</ele><time>2026-04-25T14:13:33Z</time></trkpt><trkpt lat="44.669875236895905" lon="9.149645397276592"><ele>747.0</ele><time>2026-04-25T14:13:34Z</time></trkpt><trkpt lat="44.66999034962117" lon="9.149655446239285"><ele>747.0</ele><time>2026-04-25T14:13:35Z</time></trkpt><trkpt lat="44.67010613923339" lon="9.149692211543027"><ele>747.0</ele><time>2026-04-25T14:13:36Z</time></trkpt><trkpt lat="44.67020029990641" lon="9.149742021217405"><ele>747.0</ele><time>2026-04-25T14:13:37Z</time></trkpt><trkpt lat="44.67025683416765" lon="9.14983583973906"><ele>743.2</ele><time>2026-04-25T14:13:38Z</time></trkpt><trkpt lat="44.670307957326344" lon="9.149944331976258"><ele>739.4000000000001</ele><time>2026-04-25T14:13:39Z</time></trkpt><trkpt lat="44.67032918464236" lon="9.15006304647565"><ele>735.5999999999999</ele><time>2026-04-25T14:13:40Z</time></trkpt><trkpt lat="44.67032285409813" lon="9.150174128613571"><ele>731.8</ele><time>2026-04-25T14:13:41Z</time></trkpt><trkpt lat="44.670283541981156" lon="9.150288383371178"><ele>728.0</ele><time>2026-04-25T14:13:42Z</time></trkpt><trkpt lat="44.67022803513077" lon="9.150442280464695"><ele>728.0</ele><time>2026-04-25T14:13:43Z</time></trkpt><trkpt lat="44.670171918826995" lon="9.150626842463495"><ele>728.0</ele><time>2026-04-25T14:13:44Z</time></trkpt><trkpt lat="44.67010542084398" lon="9.150819669453718"><ele>728.0</ele><time>2026-04-25T14:13:45Z</time></trkpt><trkpt lat="44.67004119949101" lon="9.150996278514798"><ele>728.0</ele><time>2026-04-25T14:13:46Z</time></trkpt><trkpt lat="44.66996949000126" lon="9.151138707922778"><ele>728.2</ele><time>2026-04-25T14:13:47Z</time></trkpt><trkpt lat="44.66989019114405" lon="9.151257631843759"><ele>728.4</ele><time>2026-04-25T14:13:48Z</time></trkpt><trkpt lat="44.669819097631745" lon="9.151376997175007"><ele>728.6</ele><time>2026-04-25T14:13:49Z</time></trkpt><trkpt lat="44.669746558222876" lon="9.15147368498616"><ele>728.8000000000001</ele><time>2026-04-25T14:13:50Z</time></trkpt><trkpt lat="44.6697074534405" lon="9.151579401257797"><ele>729.0</ele><time>2026-04-25T14:13:51Z</time></trkpt><trkpt lat="44.669700991313626" lon="9.151703220707928"><ele>731.2</ele><time>2026-04-25T14:13:52Z</time></trkpt><trkpt lat="44.66971945768332" lon="9.151841635572803"><ele>733.4000000000001</ele><time>2026-04-25T14:13:53Z</time></trkpt><trkpt lat="44.669749405429236" lon="9.151968374970586"><ele>735.6</ele><time>2026-04-25T14:13:54Z</time></trkpt><trkpt lat="44.66980183495108" lon="9.15208269187651"><ele>737.8</ele><time>2026-04-25T14:13:55Z</time></trkpt><trkpt lat="44.66988515637143" lon="9.152194656168723"><ele>740.0</ele><time>2026-04-25T14:13:56Z</time></trkpt><trkpt lat="44.669994153325426" lon="9.152313840889416"><ele>736.75</ele><time>2026-04-25T14:13:57Z</time></trkpt><trkpt lat="44.67005687645721" lon="9.15248325626016"><ele>733.5</ele><time>2026-04-25T14:13:58Z</time></trkpt><trkpt lat="44.6701240299965" lon="9.15265781878107"><ele>730.25</ele><time>2026-04-25T14:13:59Z</time></trkpt><trkpt lat="44.67020785163195" lon="9.152832087911154"><ele>727.0</ele><time>2026-04-25T14:14:00Z</time></trkpt><trkpt lat="44.670262550220976" lon="9.153020001258922"><ele>733.2</ele><time>2026-04-25T14:14:01Z</time></trkpt><trkpt lat="44.67031022310043" lon="9.153178462503341"><ele>739.4000000000001</ele><time>2026-04-25T14:14:02Z</time></trkpt><trkpt lat="44.67036322485846" lon="9.153298941892857"><ele>745.5999999999999</ele><time>2026-04-25T14:14:03Z</time></trkpt><trkpt lat="44.67041696874548" lon="9.153380070583284"><ele>751.8</ele><time>2026-04-25T14:14:04Z</time></trkpt><trkpt lat="44.67051231808519" lon="9.153444213800173"><ele>758.0</ele><time>2026-04-25T14:14:05Z</time></trkpt><trkpt lat="44.670626563197686" lon="9.153487337511311"><ele>758.0</ele><time>2026-04-25T14:14:06Z</time></trkpt><trkpt lat="44.67075326631731" lon="9.153537474471984"><ele>758.0</ele><time>2026-04-25T14:14:07Z</time></trkpt><trkpt lat="44.67087470230549" lon="9.15359953356021"><ele>758.0</ele><time>2026-04-25T14:14:08Z</time></trkpt><trkpt lat="44.670955392594564" lon="9.153716911245137"><ele>758.0</ele><time>2026-04-25T14:14:09Z</time></trkpt><trkpt lat="44.67104567467148" lon="9.153842174370192"><ele>763.2</ele><time>2026-04-25T14:14:10Z</time></trkpt><trkpt lat="44.671134561313075" lon="9.15397218198471"><ele>768.4</ele><time>2026-04-25T14:14:11Z</time></trkpt><trkpt lat="44.67120717787807" lon="9.154090876637627"><ele>773.6</ele><time>2026-04-25T14:14:12Z</time></trkpt><trkpt lat="44.67125190426886" lon="9.154196099401267"><ele>778.8000000000001</ele><time>2026-04-25T14:14:13Z</time></trkpt><trkpt lat="44.67128391697854" lon="9.154289513743366"><ele>784.0</ele><time>2026-04-25T14:14:14Z</time></trkpt><trkpt lat="44.67125766844154" lon="9.15439289264628"><ele>784.0</ele><time>2026-04-25T14:14:15Z</time></trkpt><trkpt lat="44.671176605866194" lon="9.154467158727554"><ele>784.0</ele><time>2026-04-25T14:14:16Z</time></trkpt><trkpt lat="44.67108708773562" lon="9.15457549975221"><ele>784.0</ele><time>2026-04-25T14:14:17Z</time></trkpt><trkpt lat="44.67098201777462" lon="9.154711823525588"><ele>784.0</ele><time>2026-04-25T14:14:18Z</time></trkpt><trkpt lat="44.670868523148854" lon="9.15491902819461"><ele>768.6666666666666</ele><time>2026-04-25T14:14:19Z</time></trkpt><trkpt lat="44.67076542165516" lon="9.155135952202837"><ele>753.3333333333333</ele><time>2026-04-25T14:14:20Z</time></trkpt><trkpt lat="44.67067378637052" lon="9.155320034346126"><ele>738.0</ele><time>2026-04-25T14:14:21Z</time></trkpt><trkpt lat="44.670600829630104" lon="9.15547570855723"><ele>738.0</ele><time>2026-04-25T14:14:22Z</time></trkpt><trkpt lat="44.67053839607615" lon="9.155630764802057"><ele>738.0</ele><time>2026-04-25T14:14:23Z</time></trkpt><trkpt lat="44.67049166174969" lon="9.155798220012061"><ele>738.0</ele><time>2026-04-25T14:14:24Z</time></trkpt><trkpt lat="44.6704657845275" lon="9.15597315104706"><ele>738.0</ele><time>2026-04-25T14:14:25Z</time></trkpt><trkpt lat="44.670414267835035" lon="9.156111429394716"><ele>734.4</ele><time>2026-04-25T14:14:26Z</time></trkpt><trkpt lat="44.67033647857" lon="9.156221983276078"><ele>730.8</ele><time>2026-04-25T14:14:27Z</time></trkpt><trkpt lat="44.67027416691408" lon="9.156354363464711"><ele>727.2</ele><time>2026-04-25T14:14:28Z</time></trkpt><trkpt lat="44.670213397467975" lon="9.156458090202614"><ele>723.6</ele><time>2026-04-25T14:14:29Z</time></trkpt><trkpt lat="44.67018922051695" lon="9.15655203793343"><ele>720.0</ele><time>2026-04-25T14:14:30Z</time></trkpt><trkpt lat="44.670233879982796" lon="9.15671905325881"><ele>735.5</ele><time>2026-04-25T14:14:32Z</time></trkpt><trkpt lat="44.67028935740785" lon="9.15681277733444"><ele>751.0</ele><time>2026-04-25T14:14:33Z</time></trkpt><trkpt lat="44.67035151545511" lon="9.156939741670902"><ele>766.5</ele><time>2026-04-25T14:14:34Z</time></trkpt><trkpt lat="44.67042376253213" lon="9.157097356880238"><ele>782.0</ele><time>2026-04-25T14:14:35Z</time></trkpt><trkpt lat="44.67049832877303" lon="9.157253606388492"><ele>776.8</ele><time>2026-04-25T14:14:36Z</time></trkpt><trkpt lat="44.67056203905592" lon="9.15739166163585"><ele>771.6</ele><time>2026-04-25T14:14:37Z</time></trkpt><trkpt lat="44.670623929913695" lon="9.157518690919405"><ele>766.4</ele><time>2026-04-25T14:14:38Z</time></trkpt><trkpt lat="44.67067842444323" lon="9.157609914595294"><ele>761.1999999999999</ele><time>2026-04-25T14:14:39Z</time></trkpt><trkpt lat="44.67078347212466" lon="9.157632288922214"><ele>756.0</ele><time>2026-04-25T14:14:41Z</time></trkpt><trkpt lat="44.670861777617134" lon="9.157593869679992"><ele>756.0</ele><time>2026-04-25T14:14:42Z</time></trkpt><trkpt lat="44.670945857231935" lon="9.157551695965624"><ele>756.0</ele><time>2026-04-25T14:14:43Z</time></trkpt><trkpt lat="44.67104896070051" lon="9.157507796344298"><ele>756.0</ele><time>2026-04-25T14:14:44Z</time></trkpt><trkpt lat="44.67117509730945" lon="9.157468962446853"><ele>756.0</ele><time>2026-04-25T14:14:45Z</time></trkpt><trkpt lat="44.671295402870754" lon="9.157442754752644"><ele>756.0</ele><time>2026-04-25T14:14:46Z</time></trkpt><trkpt lat="44.67141576443968" lon="9.157457514331696"><ele>759.5</ele><time>2026-04-25T14:14:47Z</time></trkpt><trkpt lat="44.671536938796955" lon="9.157506536665728"><ele>763.0</ele><time>2026-04-25T14:14:48Z</time></trkpt><trkpt lat="44.67164274298673" lon="9.157519884434441"><ele>766.5</ele><time>2026-04-25T14:14:49Z</time></trkpt><trkpt lat="44.67173616530302" lon="9.157464541963055"><ele>770.0</ele><time>2026-04-25T14:14:50Z</time></trkpt><trkpt lat="44.67185411815436" lon="9.157396327472574"><ele>770.4</ele><time>2026-04-25T14:14:51Z</time></trkpt><trkpt lat="44.67196470861671" lon="9.157323638594429"><ele>770.8</ele><time>2026-04-25T14:14:52Z</time></trkpt><trkpt lat="44.67206896861468" lon="9.157299438093979"><ele>771.2</ele><time>2026-04-25T14:14:53Z</time></trkpt><trkpt lat="44.672162302774346" lon="9.15736166586361"><ele>771.6</ele><time>2026-04-25T14:14:54Z</time></trkpt><trkpt lat="44.672256098066256" lon="9.1573802321387"><ele>772.0</ele><time>2026-04-25T14:14:55Z</time></trkpt><trkpt lat="44.6723599243113" lon="9.157370598594357"><ele>782.0</ele><time>2026-04-25T14:14:56Z</time></trkpt><trkpt lat="44.67247843417568" lon="9.157311754095776"><ele>792.0</ele><time>2026-04-25T14:14:57Z</time></trkpt><trkpt lat="44.672613767034605" lon="9.157217249178425"><ele>802.0</ele><time>2026-04-25T14:14:58Z</time></trkpt><trkpt lat="44.6727544864035" lon="9.157118056168356"><ele>812.0</ele><time>2026-04-25T14:14:59Z</time></trkpt><trkpt lat="44.6729055723921" lon="9.15702296230694"><ele>812.0</ele><time>2026-04-25T14:15:00Z</time></trkpt><trkpt lat="44.673031068817764" lon="9.156958763540072"><ele>812.0</ele><time>2026-04-25T14:15:01Z</time></trkpt><trkpt lat="44.67316168239037" lon="9.156936118027023"><ele>812.0</ele><time>2026-04-25T14:15:02Z</time></trkpt><trkpt lat="44.6733072977377" lon="9.156934702684795"><ele>812.0</ele><time>2026-04-25T14:15:03Z</time></trkpt><trkpt lat="44.673459147602586" lon="9.156947443464457"><ele>814.25</ele><time>2026-04-25T14:15:04Z</time></trkpt><trkpt lat="44.67361391035844" lon="9.156947039957839"><ele>816.5</ele><time>2026-04-25T14:15:05Z</time></trkpt><trkpt lat="44.673749520380966" lon="9.156950286917136"><ele>818.75</ele><time>2026-04-25T14:15:06Z</time></trkpt><trkpt lat="44.673869614059356" lon="9.156975918871398"><ele>821.0</ele><time>2026-04-25T14:15:07Z</time></trkpt><trkpt lat="44.67396296636783" lon="9.157040958926617"><ele>821.0000000000001</ele><time>2026-04-25T14:15:08Z</time></trkpt><trkpt lat="44.67403584009203" lon="9.157064722902692"><ele>821.0</ele><time>2026-04-25T14:15:09Z</time></trkpt><trkpt lat="44.67411405934729" lon="9.15713405355479"><ele>821.0</ele><time>2026-04-25T14:15:11Z</time></trkpt><trkpt lat="44.67415949856253" lon="9.157197122588947"><ele>821.0</ele><time>2026-04-25T14:15:15Z</time></trkpt><trkpt lat="44.67416762730434" lon="9.157243241996875"><ele>821.0000000000001</ele><time>2026-04-25T14:19:12Z</time></trkpt><trkpt lat="44.674223214740735" lon="9.157344396709979"><ele>821.0</ele><time>2026-04-25T14:19:14Z</time></trkpt><trkpt lat="44.67418306403135" lon="9.157467487073353"><ele>815.4</ele><time>2026-04-25T14:19:16Z</time></trkpt><trkpt lat="44.67413734007125" lon="9.157536356879866"><ele>809.8</ele><time>2026-04-25T14:19:18Z</time></trkpt><trkpt lat="44.67406616369407" lon="9.15760071800769"><ele>804.1999999999999</ele><time>2026-04-25T14:19:20.001Z</time></trkpt><trkpt lat="44.673945557137486" lon="9.157632968900781"><ele>798.5999999999999</ele><time>2026-04-25T14:19:22.001Z</time></trkpt><trkpt lat="44.67386096247353" lon="9.157642432754043"><ele>793.0</ele><time>2026-04-25T14:19:23.001Z</time></trkpt><trkpt lat="44.67376466252956" lon="9.15763848370128"><ele>793.0</ele><time>2026-04-25T14:19:24.001Z</time></trkpt><trkpt lat="44.67366261915465" lon="9.157681321807868"><ele>793.0</ele><time>2026-04-25T14:19:25.001Z</time></trkpt><trkpt lat="44.67356889676558" lon="9.157717343995929"><ele>793.0</ele><time>2026-04-25T14:19:26.001Z</time></trkpt><trkpt lat="44.67347330696369" lon="9.157803180110534"><ele>793.0</ele><time>2026-04-25T14:19:27.001Z</time></trkpt><trkpt lat="44.673388806686944" lon="9.157941178593157"><ele>793.0</ele><time>2026-04-25T14:19:28.001Z</time></trkpt><trkpt lat="44.67331481684941" lon="9.158084634138358"><ele>789.75</ele><time>2026-04-25T14:19:29.001Z</time></trkpt><trkpt lat="44.67323250653084" lon="9.158187650608687"><ele>786.5</ele><time>2026-04-25T14:19:30.001Z</time></trkpt><trkpt lat="44.6731201169811" lon="9.158280877299836"><ele>783.25</ele><time>2026-04-25T14:19:31.001Z</time></trkpt><trkpt lat="44.67301766737274" lon="9.158365819922011"><ele>780.0</ele><time>2026-04-25T14:19:32.001Z</time></trkpt><trkpt lat="44.67294761940299" lon="9.158463785369767"><ele>785.2</ele><time>2026-04-25T14:19:33.001Z</time></trkpt><trkpt lat="44.672904993590954" lon="9.158577837609755"><ele>790.4</ele><time>2026-04-25T14:19:34.001Z</time></trkpt><trkpt lat="44.672886434366255" lon="9.15873336647647"><ele>795.5999999999999</ele><time>2026-04-25T14:19:35Z</time></trkpt><trkpt lat="44.67289888489147" lon="9.15890973936654"><ele>800.8</ele><time>2026-04-25T14:19:36Z</time></trkpt><trkpt lat="44.67291151335237" lon="9.159052970950173"><ele>806.0</ele><time>2026-04-25T14:19:37Z</time></trkpt><trkpt lat="44.672882685968176" lon="9.15916331353269"><ele>803.4</ele><time>2026-04-25T14:19:38Z</time></trkpt><trkpt lat="44.67282186650562" lon="9.159251694899199"><ele>800.8</ele><time>2026-04-25T14:19:39Z</time></trkpt><trkpt lat="44.672717551633504" lon="9.15925351371081"><ele>798.1999999999999</ele><time>2026-04-25T14:19:40Z</time></trkpt><trkpt lat="44.67261161924828" lon="9.159302524299463"><ele>795.5999999999999</ele><time>2026-04-25T14:19:41Z</time></trkpt><trkpt lat="44.67251150028536" lon="9.159408550987546"><ele>793.0</ele><time>2026-04-25T14:19:42Z</time></trkpt><trkpt lat="44.67240676500084" lon="9.159502671352254"><ele>793.0</ele><time>2026-04-25T14:19:43Z</time></trkpt><trkpt lat="44.67230949251486" lon="9.159608648919152"><ele>793.0</ele><time>2026-04-25T14:19:44Z</time></trkpt><trkpt lat="44.672211593668024" lon="9.159710587497393"><ele>793.0</ele><time>2026-04-25T14:19:45Z</time></trkpt><trkpt lat="44.67211272330028" lon="9.159822356665158"><ele>793.0</ele><time>2026-04-25T14:19:46Z</time></trkpt><trkpt lat="44.67201919400509" lon="9.159959366811007"><ele>793.25</ele><time>2026-04-25T14:19:47Z</time></trkpt><trkpt lat="44.671909409408265" lon="9.16011209475822"><ele>793.5</ele><time>2026-04-25T14:19:48Z</time></trkpt><trkpt lat="44.67179708777752" lon="9.160210751965623"><ele>793.75</ele><time>2026-04-25T14:19:49Z</time></trkpt><trkpt lat="44.67168117752806" lon="9.160284552152042"><ele>794.0</ele><time>2026-04-25T14:19:50Z</time></trkpt><trkpt lat="44.67160032388251" lon="9.160365264574944"><ele>794.0</ele><time>2026-04-25T14:19:51Z</time></trkpt><trkpt lat="44.67154278839373" lon="9.160444220975739"><ele>794.0</ele><time>2026-04-25T14:19:52Z</time></trkpt><trkpt lat="44.67151906833992" lon="9.160556881997659"><ele>794.0</ele><time>2026-04-25T14:19:53Z</time></trkpt><trkpt lat="44.67150664834475" lon="9.160690956221172"><ele>794.0</ele><time>2026-04-25T14:19:54Z</time></trkpt><trkpt lat="44.671479955445314" lon="9.16084365361384"><ele>794.0</ele><time>2026-04-25T14:19:55Z</time></trkpt><trkpt lat="44.671407209159035" lon="9.160988594246753"><ele>794.6666666666667</ele><time>2026-04-25T14:19:56Z</time></trkpt><trkpt lat="44.67130473960358" lon="9.161132606735634"><ele>795.3333333333333</ele><time>2026-04-25T14:19:57Z</time></trkpt><trkpt lat="44.67119097278433" lon="9.161290369059081"><ele>796.0</ele><time>2026-04-25T14:19:58Z</time></trkpt><trkpt lat="44.67107234942833" lon="9.161456729542156"><ele>801.0</ele><time>2026-04-25T14:19:59Z</time></trkpt><trkpt lat="44.6709509538139" lon="9.161586029970456"><ele>806.0</ele><time>2026-04-25T14:20:00Z</time></trkpt><trkpt lat="44.67086209823396" lon="9.161726066994687"><ele>811.0</ele><time>2026-04-25T14:20:01Z</time></trkpt><trkpt lat="44.670781151079986" lon="9.161816055119884"><ele>816.0</ele><time>2026-04-25T14:20:02Z</time></trkpt><trkpt lat="44.67073692457613" lon="9.161965329786263"><ele>816.0</ele><time>2026-04-25T14:20:04Z</time></trkpt><trkpt lat="44.6707682358299" lon="9.162046422193441"><ele>816.0</ele><time>2026-04-25T14:20:05Z</time></trkpt><trkpt lat="44.67082747272814" lon="9.16212362448488"><ele>816.0</ele><time>2026-04-25T14:20:06Z</time></trkpt><trkpt lat="44.67092815933032" lon="9.162149402694775"><ele>816.0</ele><time>2026-04-25T14:20:07Z</time></trkpt><trkpt lat="44.671039113203406" lon="9.162190345444134"><ele>816.0</ele><time>2026-04-25T14:20:08Z</time></trkpt><trkpt lat="44.67114689343492" lon="9.162241764660749"><ele>822.8</ele><time>2026-04-25T14:20:09Z</time></trkpt><trkpt lat="44.67122950094789" lon="9.162325799139847"><ele>829.5999999999999</ele><time>2026-04-25T14:20:10Z</time></trkpt><trkpt lat="44.67128310903941" lon="9.16243240785409"><ele>836.4</ele><time>2026-04-25T14:20:11Z</time></trkpt><trkpt lat="44.67128788624146" lon="9.162565739325002"><ele>843.2</ele><time>2026-04-25T14:20:12Z</time></trkpt><trkpt lat="44.67129251085204" lon="9.162710423460299"><ele>850.0</ele><time>2026-04-25T14:20:13Z</time></trkpt><trkpt lat="44.67129089064274" lon="9.162863140908273"><ele>851.5</ele><time>2026-04-25T14:20:14Z</time></trkpt><trkpt lat="44.6713000564699" lon="9.163022335305538"><ele>853.0</ele><time>2026-04-25T14:20:15Z</time></trkpt><trkpt lat="44.67129864602434" lon="9.163186260446189"><ele>854.5</ele><time>2026-04-25T14:20:16Z</time></trkpt><trkpt lat="44.671298636780115" lon="9.163354342888065"><ele>856.0</ele><time>2026-04-25T14:20:17Z</time></trkpt><trkpt lat="44.67129264328543" lon="9.163517384467545"><ele>856.5999999999999</ele><time>2026-04-25T14:20:18Z</time></trkpt><trkpt lat="44.67129260645468" lon="9.163672667149934"><ele>857.1999999999999</ele><time>2026-04-25T14:20:19Z</time></trkpt><trkpt lat="44.67128915704231" lon="9.16380956667455"><ele>857.8000000000001</ele><time>2026-04-25T14:20:20Z</time></trkpt><trkpt lat="44.67128789655498" lon="9.163921399288066"><ele>858.4000000000001</ele><time>2026-04-25T14:20:21Z</time></trkpt><trkpt lat="44.67128105375568" lon="9.164021884647749"><ele>859.0</ele><time>2026-04-25T14:20:22Z</time></trkpt><trkpt lat="44.67124122593795" lon="9.164188446993863"><ele>860.2</ele><time>2026-04-25T14:20:24Z</time></trkpt><trkpt lat="44.671223819567025" lon="9.164310320603072"><ele>861.4000000000001</ele><time>2026-04-25T14:20:25Z</time></trkpt><trkpt lat="44.67118428594047" lon="9.164444254658612"><ele>862.6</ele><time>2026-04-25T14:20:26Z</time></trkpt><trkpt lat="44.671153344993236" lon="9.164600958738676"><ele>863.8</ele><time>2026-04-25T14:20:27Z</time></trkpt><trkpt lat="44.67112687526321" lon="9.16475295328758"><ele>865.0</ele><time>2026-04-25T14:20:28Z</time></trkpt><trkpt lat="44.67108128196462" lon="9.16487267549512"><ele>860.2</ele><time>2026-04-25T14:20:29Z</time></trkpt><trkpt lat="44.67098594826864" lon="9.164941988719344"><ele>855.4</ele><time>2026-04-25T14:20:30Z</time></trkpt><trkpt lat="44.67092867231632" lon="9.16505326988597"><ele>850.5999999999999</ele><time>2026-04-25T14:20:31Z</time></trkpt><trkpt lat="44.670876065281746" lon="9.165152048499637"><ele>845.8</ele><time>2026-04-25T14:20:32Z</time></trkpt><trkpt lat="44.67086129841517" lon="9.165290922882331"><ele>841.0</ele><time>2026-04-25T14:20:33Z</time></trkpt><trkpt lat="44.670868842278686" lon="9.165460680874459"><ele>841.0</ele><time>2026-04-25T14:20:34Z</time></trkpt><trkpt lat="44.67087563372875" lon="9.165650347002579"><ele>841.0</ele><time>2026-04-25T14:20:35Z</time></trkpt><trkpt lat="44.67083211795983" lon="9.16582656151485"><ele>841.0</ele><time>2026-04-25T14:20:36Z</time></trkpt><trkpt lat="44.67077312832254" lon="9.166013233866515"><ele>841.0</ele><time>2026-04-25T14:20:37Z</time></trkpt><trkpt lat="44.67071332873635" lon="9.166243228162832"><ele>845.3333333333333</ele><time>2026-04-25T14:20:38Z</time></trkpt><trkpt lat="44.67063527172864" lon="9.166471773408729"><ele>849.6666666666667</ele><time>2026-04-25T14:20:39Z</time></trkpt><trkpt lat="44.670553583767585" lon="9.166704514692922"><ele>854.0</ele><time>2026-04-25T14:20:40Z</time></trkpt><trkpt lat="44.67044787711187" lon="9.166914932039955"><ele>852.3333333333334</ele><time>2026-04-25T14:20:41Z</time></trkpt><trkpt lat="44.67037594856406" lon="9.16713559408201"><ele>850.6666666666667</ele><time>2026-04-25T14:20:42Z</time></trkpt><trkpt lat="44.67029373724278" lon="9.167326906364352"><ele>849.0</ele><time>2026-04-25T14:20:43Z</time></trkpt><trkpt lat="44.670220001472536" lon="9.167508665288556"><ele>849.0</ele><time>2026-04-25T14:20:44Z</time></trkpt><trkpt lat="44.670153715931725" lon="9.167677718896007"><ele>849.0</ele><time>2026-04-25T14:20:45Z</time></trkpt><trkpt lat="44.670098643291915" lon="9.167826049689548"><ele>849.0</ele><time>2026-04-25T14:20:46Z</time></trkpt><trkpt lat="44.67004947763565" lon="9.167955580571906"><ele>849.0</ele><time>2026-04-25T14:20:47Z</time></trkpt><trkpt lat="44.67001175083693" lon="9.168083054296984"><ele>851.8000000000001</ele><time>2026-04-25T14:20:48Z</time></trkpt><trkpt lat="44.669996949850386" lon="9.168213674425825"><ele>854.6</ele><time>2026-04-25T14:20:49Z</time></trkpt><trkpt lat="44.670011127495435" lon="9.168357942876588"><ele>857.4</ele><time>2026-04-25T14:20:50Z</time></trkpt><trkpt lat="44.67005253888816" lon="9.168505862160208"><ele>860.2</ele><time>2026-04-25T14:20:51Z</time></trkpt><trkpt lat="44.67011070766113" lon="9.168650891712831"><ele>863.0</ele><time>2026-04-25T14:20:52Z</time></trkpt><trkpt lat="44.670171249422175" lon="9.168783898494512"><ele>863.0</ele><time>2026-04-25T14:20:53Z</time></trkpt><trkpt lat="44.6702401911605" lon="9.168891651189858"><ele>863.0</ele><time>2026-04-25T14:20:54Z</time></trkpt><trkpt lat="44.67033828685442" lon="9.168970512003591"><ele>863.0</ele><time>2026-04-25T14:20:55Z</time></trkpt><trkpt lat="44.67046523141379" lon="9.16903133597031"><ele>863.0</ele><time>2026-04-25T14:20:56Z</time></trkpt><trkpt lat="44.67057279604702" lon="9.169114576324905"><ele>868.5</ele><time>2026-04-25T14:20:57Z</time></trkpt><trkpt lat="44.67066329226594" lon="9.169212956836185"><ele>874.0</ele><time>2026-04-25T14:20:58Z</time></trkpt><trkpt lat="44.67073716331296" lon="9.169347589837404"><ele>879.5</ele><time>2026-04-25T14:20:59Z</time></trkpt><trkpt lat="44.67080983027153" lon="9.16952265701746"><ele>885.0</ele><time>2026-04-25T14:21:00Z</time></trkpt><trkpt lat="44.67088578052005" lon="9.169722362081343"><ele>881.3333333333333</ele><time>2026-04-25T14:21:01Z</time></trkpt><trkpt lat="44.670982292392075" lon="9.169941129237893"><ele>877.6666666666666</ele><time>2026-04-25T14:21:02Z</time></trkpt><trkpt lat="44.67107492704337" lon="9.17017116854148"><ele>874.0</ele><time>2026-04-25T14:21:03Z</time></trkpt><trkpt lat="44.671171698212405" lon="9.170392506878368"><ele>883.0</ele><time>2026-04-25T14:21:04Z</time></trkpt><trkpt lat="44.671268089333495" lon="9.170603957528282"><ele>892.0</ele><time>2026-04-25T14:21:05Z</time></trkpt><trkpt lat="44.67135393534709" lon="9.170787668979306"><ele>901.0</ele><time>2026-04-25T14:21:06Z</time></trkpt><trkpt lat="44.67142540706371" lon="9.170946604743383"><ele>901.0</ele><time>2026-04-25T14:21:07Z</time></trkpt><trkpt lat="44.67148869222227" lon="9.17109394842635"><ele>900.9999999999999</ele><time>2026-04-25T14:21:08Z</time></trkpt><trkpt lat="44.671548126554825" lon="9.171222584249152"><ele>900.9999999999999</ele><time>2026-04-25T14:21:09Z</time></trkpt><trkpt lat="44.67161747693956" lon="9.171346822641208"><ele>901.0</ele><time>2026-04-25T14:21:10Z</time></trkpt><trkpt lat="44.671691661800885" lon="9.171448035805303"><ele>901.0</ele><time>2026-04-25T14:21:11Z</time></trkpt><trkpt lat="44.671723762001896" lon="9.171554756982133"><ele>900.4999999999999</ele><time>2026-04-25T14:21:12Z</time></trkpt><trkpt lat="44.67172598707022" lon="9.171706900328989"><ele>900.0</ele><time>2026-04-25T14:21:14Z</time></trkpt><trkpt lat="44.67166980649879" lon="9.171756330067694"><ele>899.5</ele><time>2026-04-25T14:21:15Z</time></trkpt><trkpt lat="44.671585722990244" lon="9.171752586091666"><ele>899.0</ele><time>2026-04-25T14:21:16Z</time></trkpt><trkpt lat="44.671493267231476" lon="9.171801558365422"><ele>898.4999999999999</ele><time>2026-04-25T14:21:17Z</time></trkpt><trkpt lat="44.671413379004704" lon="9.171856636149121"><ele>898.0</ele><time>2026-04-25T14:21:18Z</time></trkpt><trkpt lat="44.67137391873821" lon="9.171933169624397"><ele>898.0</ele><time>2026-04-25T14:21:19Z</time></trkpt><trkpt lat="44.671369301774945" lon="9.172134464403"><ele>898.0</ele><time>2026-04-25T14:21:20.999Z</time></trkpt><trkpt lat="44.671393019389164" lon="9.172285384897686"><ele>898.0</ele><time>2026-04-25T14:21:21.999Z</time></trkpt><trkpt lat="44.67138435449071" lon="9.17244958994164"><ele>898.0</ele><time>2026-04-25T14:21:23Z</time></trkpt><trkpt lat="44.6713515578191" lon="9.17259892662988"><ele>901.5</ele><time>2026-04-25T14:21:24Z</time></trkpt><trkpt lat="44.6712966965571" lon="9.172744640996319"><ele>905.0</ele><time>2026-04-25T14:21:25Z</time></trkpt><trkpt lat="44.67123841538459" lon="9.172922695227914"><ele>908.5</ele><time>2026-04-25T14:21:26.001Z</time></trkpt><trkpt lat="44.67119289303069" lon="9.173089952757119"><ele>912.0</ele><time>2026-04-25T14:21:27.001Z</time></trkpt><trkpt lat="44.6711519111668" lon="9.173237155437493"><ele>906.6</ele><time>2026-04-25T14:21:28.001Z</time></trkpt><trkpt lat="44.67110231735316" lon="9.173369013584812"><ele>901.2</ele><time>2026-04-25T14:21:29.001Z</time></trkpt><trkpt lat="44.67104196295471" lon="9.173492087793804"><ele>895.8</ele><time>2026-04-25T14:21:30.001Z</time></trkpt><trkpt lat="44.671003355315584" lon="9.173617828904462"><ele>890.4</ele><time>2026-04-25T14:21:31.001Z</time></trkpt><trkpt lat="44.670978202690826" lon="9.1737285050451"><ele>885.0</ele><time>2026-04-25T14:21:32.001Z</time></trkpt><trkpt lat="44.670979961467914" lon="9.173842651063778"><ele>885.0</ele><time>2026-04-25T14:21:33.001Z</time></trkpt><trkpt lat="44.67099780708228" lon="9.173963922087399"><ele>885.0</ele><time>2026-04-25T14:21:34.001Z</time></trkpt><trkpt lat="44.67103775591247" lon="9.174097451276177"><ele>885.0</ele><time>2026-04-25T14:21:35.001Z</time></trkpt><trkpt lat="44.671062108300255" lon="9.174259930646922"><ele>885.0</ele><time>2026-04-25T14:21:36.001Z</time></trkpt><trkpt lat="44.67110210025656" lon="9.174435977544414"><ele>885.0</ele><time>2026-04-25T14:21:37.001Z</time></trkpt><trkpt lat="44.67114086717012" lon="9.174619985505862"><ele>892.2</ele><time>2026-04-25T14:21:38.001Z</time></trkpt><trkpt lat="44.67118877596208" lon="9.174774467366275"><ele>899.4</ele><time>2026-04-25T14:21:39.001Z</time></trkpt><trkpt lat="44.67121640476387" lon="9.174899972674176"><ele>906.5999999999999</ele><time>2026-04-25T14:21:40.001Z</time></trkpt><trkpt lat="44.67125767323461" lon="9.174990724850227"><ele>913.8</ele><time>2026-04-25T14:21:41.001Z</time></trkpt><trkpt lat="44.67132497001231" lon="9.175063253742762"><ele>921.0</ele><time>2026-04-25T14:21:42.001Z</time></trkpt><trkpt lat="44.67137218111938" lon="9.175176275166036"><ele>921.0</ele><time>2026-04-25T14:21:43.001Z</time></trkpt><trkpt lat="44.671414876000966" lon="9.175280163494186"><ele>921.0</ele><time>2026-04-25T14:21:44.001Z</time></trkpt><trkpt lat="44.67144015845544" lon="9.175390130429836"><ele>921.0</ele><time>2026-04-25T14:21:45.001Z</time></trkpt><trkpt lat="44.6714314945056" lon="9.175512923685845"><ele>921.0</ele><time>2026-04-25T14:21:46.001Z</time></trkpt><trkpt lat="44.671399461442185" lon="9.175640993647589"><ele>921.0</ele><time>2026-04-25T14:21:47.001Z</time></trkpt><trkpt lat="44.67136106271448" lon="9.17575526422784"><ele>921.0</ele><time>2026-04-25T14:21:48.001Z</time></trkpt><trkpt lat="44.67131459185249" lon="9.17583184671352"><ele>921.4</ele><time>2026-04-25T14:21:49.001Z</time></trkpt><trkpt lat="44.671241378688805" lon="9.175863969529383"><ele>921.8</ele><time>2026-04-25T14:21:50.001Z</time></trkpt><trkpt lat="44.67115110383824" lon="9.175918722413025"><ele>922.1999999999999</ele><time>2026-04-25T14:21:51.001Z</time></trkpt><trkpt lat="44.67103684146517" lon="9.175951740710534"><ele>922.5999999999999</ele><time>2026-04-25T14:21:52.001Z</time></trkpt><trkpt lat="44.67090611503743" lon="9.17597587647357"><ele>923.0</ele><time>2026-04-25T14:21:53.001Z</time></trkpt><trkpt lat="44.670767286129866" lon="9.175988632022307"><ele>920.0</ele><time>2026-04-25T14:21:54.001Z</time></trkpt><trkpt lat="44.67063350749666" lon="9.175997459519024"><ele>917.0</ele><time>2026-04-25T14:21:55.001Z</time></trkpt><trkpt lat="44.67052014609704" lon="9.17600838810188"><ele>914.0</ele><time>2026-04-25T14:21:56.001Z</time></trkpt><trkpt lat="44.67041256606664" lon="9.17601623355002"><ele>911.0</ele><time>2026-04-25T14:21:57.001Z</time></trkpt><trkpt lat="44.67031661601846" lon="9.176002545664737"><ele>910.0</ele><time>2026-04-25T14:21:58.001Z</time></trkpt><trkpt lat="44.67022574204016" lon="9.17595548279467"><ele>908.9999999999999</ele><time>2026-04-25T14:21:59.001Z</time></trkpt><trkpt lat="44.67012524634388" lon="9.17588371429103"><ele>907.9999999999999</ele><time>2026-04-25T14:22:00.001Z</time></trkpt><trkpt lat="44.67003105048695" lon="9.17583405266117"><ele>907.0</ele><time>2026-04-25T14:22:01.001Z</time></trkpt><trkpt lat="44.66994699292255" lon="9.175798925843631"><ele>906.0</ele><time>2026-04-25T14:22:02.001Z</time></trkpt><trkpt lat="44.66985847666027" lon="9.175769188462809"><ele>906.0</ele><time>2026-04-25T14:22:03.001Z</time></trkpt><trkpt lat="44.66976655349226" lon="9.175767063434812"><ele>905.9999999999999</ele><time>2026-04-25T14:22:04Z</time></trkpt><trkpt lat="44.669656944032596" lon="9.175791989973659"><ele>905.9999999999999</ele><time>2026-04-25T14:22:05Z</time></trkpt><trkpt lat="44.66955672274052" lon="9.175854510894037"><ele>906.0</ele><time>2026-04-25T14:22:06Z</time></trkpt><trkpt lat="44.66947410602145" lon="9.175922850544966"><ele>906.0</ele><time>2026-04-25T14:22:07Z</time></trkpt><trkpt lat="44.669411294699245" lon="9.175993764091325"><ele>906.0</ele><time>2026-04-25T14:22:08Z</time></trkpt><trkpt lat="44.66937879982693" lon="9.176082828742498"><ele>905.9999999999999</ele><time>2026-04-25T14:22:09Z</time></trkpt><trkpt lat="44.669372683728454" lon="9.176190371866818"><ele>905.9999999999999</ele><time>2026-04-25T14:22:10Z</time></trkpt><trkpt lat="44.6693945151053" lon="9.176310649771299"><ele>906.0</ele><time>2026-04-25T14:22:11Z</time></trkpt><trkpt lat="44.66944227459817" lon="9.176442393574133"><ele>906.0</ele><time>2026-04-25T14:22:12Z</time></trkpt><trkpt lat="44.66951218241086" lon="9.176572694457178"><ele>911.75</ele><time>2026-04-25T14:22:13Z</time></trkpt><trkpt lat="44.669606031470174" lon="9.176712234797597"><ele>917.5</ele><time>2026-04-25T14:22:14Z</time></trkpt><trkpt lat="44.66970099068536" lon="9.176864805687115"><ele>923.25</ele><time>2026-04-25T14:22:15Z</time></trkpt><trkpt lat="44.669780382521736" lon="9.17700742713681"><ele>929.0</ele><time>2026-04-25T14:22:16Z</time></trkpt><trkpt lat="44.66983787103145" lon="9.17715651268805"><ele>929.0000000000001</ele><time>2026-04-25T14:22:17Z</time></trkpt><trkpt lat="44.66988678233767" lon="9.177277442972478"><ele>929.0</ele><time>2026-04-25T14:22:18Z</time></trkpt><trkpt lat="44.6698890064982" lon="9.177387505819915"><ele>929.0</ele><time>2026-04-25T14:22:19Z</time></trkpt><trkpt lat="44.6698725333726" lon="9.1774848224068"><ele>929.0</ele><time>2026-04-25T14:22:20Z</time></trkpt><trkpt lat="44.669814903616356" lon="9.177555531326181"><ele>929.0000000000001</ele><time>2026-04-25T14:22:21Z</time></trkpt><trkpt lat="44.66973905446409" lon="9.177637879687126"><ele>929.0</ele><time>2026-04-25T14:22:22Z</time></trkpt><trkpt lat="44.66966363282884" lon="9.177769368504425"><ele>928.8000000000001</ele><time>2026-04-25T14:22:23Z</time></trkpt><trkpt lat="44.66959714697526" lon="9.17791336332763"><ele>928.6000000000001</ele><time>2026-04-25T14:22:24Z</time></trkpt><trkpt lat="44.66956586073473" lon="9.178049403046396"><ele>928.4</ele><time>2026-04-25T14:22:25Z</time></trkpt><trkpt lat="44.66955596490594" lon="9.17817762973464"><ele>928.2</ele><time>2026-04-25T14:22:26Z</time></trkpt><trkpt lat="44.669537497100315" lon="9.178297007939557"><ele>928.0</ele><time>2026-04-25T14:22:27Z</time></trkpt><trkpt lat="44.669527844056844" lon="9.178402672755258"><ele>927.9999999999999</ele><time>2026-04-25T14:22:28Z</time></trkpt><trkpt lat="44.669561769143996" lon="9.17849245622089"><ele>928.0</ele><time>2026-04-25T14:22:30Z</time></trkpt><trkpt lat="44.669658698605346" lon="9.17847761357143"><ele>928.0</ele><time>2026-04-25T14:22:33Z</time></trkpt><trkpt lat="44.669677752524066" lon="9.178344240928412"><ele>928.0</ele><time>2026-04-25T14:22:35Z</time></trkpt><trkpt lat="44.66966014149759" lon="9.178254422560622"><ele>927.9999999999999</ele><time>2026-04-25T14:22:36Z</time></trkpt><trkpt lat="44.669664443872826" lon="9.178130105845566"><ele>928.0</ele><time>2026-04-25T14:22:37Z</time></trkpt><trkpt lat="44.66969015200873" lon="9.177997288923564"><ele>928.0</ele><time>2026-04-25T14:22:38Z</time></trkpt><trkpt lat="44.66975358554212" lon="9.177917422139108"><ele>928.0</ele><time>2026-04-25T14:22:39Z</time></trkpt><trkpt lat="44.66982667732444" lon="9.177828587580818"><ele>928.0</ele><time>2026-04-25T14:22:40Z</time></trkpt><trkpt lat="44.66991668227288" lon="9.177763482651471"><ele>928.0</ele><time>2026-04-25T14:22:41Z</time></trkpt><trkpt lat="44.67001896640454" lon="9.17769857278262"><ele>928.0</ele><time>2026-04-25T14:22:42Z</time></trkpt><trkpt lat="44.67012347735958" lon="9.177628169123384"><ele>928.0</ele><time>2026-04-25T14:22:43Z</time></trkpt><trkpt lat="44.67020078552684" lon="9.177546034995693"><ele>928.0</ele><time>2026-04-25T14:22:44Z</time></trkpt><trkpt lat="44.67025202882268" lon="9.177442288055486"><ele>928.0</ele><time>2026-04-25T14:22:45Z</time></trkpt><trkpt lat="44.670269183761384" lon="9.177313847827033"><ele>928.0</ele><time>2026-04-25T14:22:46Z</time></trkpt><trkpt lat="44.67025165932148" lon="9.177173831092588"><ele>928.0</ele><time>2026-04-25T14:22:47Z</time></trkpt><trkpt lat="44.67021616361921" lon="9.177033784624381"><ele>928.1666666666666</ele><time>2026-04-25T14:22:48Z</time></trkpt><trkpt lat="44.67018057072068" lon="9.17689794254747"><ele>928.3333333333333</ele><time>2026-04-25T14:22:49Z</time></trkpt><trkpt lat="44.67017196736476" lon="9.176776175834776"><ele>928.5</ele><time>2026-04-25T14:22:50Z</time></trkpt><trkpt lat="44.67020111188918" lon="9.17667515799184"><ele>928.6666666666667</ele><time>2026-04-25T14:22:51Z</time></trkpt><trkpt lat="44.67025937112111" lon="9.176598404342581"><ele>928.8333333333334</ele><time>2026-04-25T14:22:52Z</time></trkpt><trkpt lat="44.67033673148451" lon="9.176550952570762"><ele>929.0</ele><time>2026-04-25T14:22:53Z</time></trkpt><trkpt lat="44.670431724438195" lon="9.17657006537749"><ele>932.25</ele><time>2026-04-25T14:22:54Z</time></trkpt><trkpt lat="44.67053372053604" lon="9.1766026351504"><ele>935.5</ele><time>2026-04-25T14:22:55Z</time></trkpt><trkpt lat="44.6706610763887" lon="9.17660533892289"><ele>938.75</ele><time>2026-04-25T14:22:56Z</time></trkpt><trkpt lat="44.670800156254536" lon="9.17662069765253"><ele>942.0</ele><time>2026-04-25T14:22:57Z</time></trkpt><trkpt lat="44.67095508503859" lon="9.17660761919314"><ele>945.3333333333333</ele><time>2026-04-25T14:22:58Z</time></trkpt><trkpt lat="44.67112331478758" lon="9.176588293230228"><ele>948.6666666666666</ele><time>2026-04-25T14:22:59Z</time></trkpt><trkpt lat="44.6712909360478" lon="9.176567687228118"><ele>952.0</ele><time>2026-04-25T14:23:00Z</time></trkpt><trkpt lat="44.67146082870323" lon="9.176563455068449"><ele>952.0</ele><time>2026-04-25T14:23:01Z</time></trkpt><trkpt lat="44.67162492516919" lon="9.17656703055604"><ele>952.0</ele><time>2026-04-25T14:23:02Z</time></trkpt><trkpt lat="44.67176796323901" lon="9.176572790374276"><ele>952.0</ele><time>2026-04-25T14:23:03Z</time></trkpt><trkpt lat="44.67189234630526" lon="9.176588744725326"><ele>952.0</ele><time>2026-04-25T14:23:04Z</time></trkpt><trkpt lat="44.67199542423124" lon="9.17658964056161"><ele>949.8</ele><time>2026-04-25T14:23:05Z</time></trkpt><trkpt lat="44.67208546110942" lon="9.17654645067249"><ele>947.6</ele><time>2026-04-25T14:23:06Z</time></trkpt><trkpt lat="44.672159434062934" lon="9.176461608902471"><ele>945.3999999999999</ele><time>2026-04-25T14:23:07Z</time></trkpt><trkpt lat="44.67222692356812" lon="9.17634828264054"><ele>943.1999999999999</ele><time>2026-04-25T14:23:08Z</time></trkpt><trkpt lat="44.6723009737775" lon="9.176224776404869"><ele>941.0</ele><time>2026-04-25T14:23:09Z</time></trkpt><trkpt lat="44.672413646574945" lon="9.176151518212869"><ele>941.0</ele><time>2026-04-25T14:23:10Z</time></trkpt><trkpt lat="44.67252921473228" lon="9.17607609980596"><ele>941.0</ele><time>2026-04-25T14:23:11Z</time></trkpt><trkpt lat="44.672637731810525" lon="9.175997590260467"><ele>941.0</ele><time>2026-04-25T14:23:12Z</time></trkpt><trkpt lat="44.672756038836866" lon="9.175991659387009"><ele>941.0</ele><time>2026-04-25T14:23:13Z</time></trkpt><trkpt lat="44.67287513685905" lon="9.17600135044981"><ele>945.75</ele><time>2026-04-25T14:23:14Z</time></trkpt><trkpt lat="44.67300958529581" lon="9.176024890312087"><ele>950.5</ele><time>2026-04-25T14:23:15Z</time></trkpt><trkpt lat="44.67315238515288" lon="9.176003530525325"><ele>955.25</ele><time>2026-04-25T14:23:16Z</time></trkpt><trkpt lat="44.67327352933746" lon="9.175961790749309"><ele>960.0</ele><time>2026-04-25T14:23:17Z</time></trkpt><trkpt lat="44.67337122256229" lon="9.175891539703048"><ele>960.0</ele><time>2026-04-25T14:23:18Z</time></trkpt><trkpt lat="44.67343659621467" lon="9.175806408496147"><ele>960.0</ele><time>2026-04-25T14:23:19Z</time></trkpt><trkpt lat="44.67347188880014" lon="9.175712217758855"><ele>960.0</ele><time>2026-04-25T14:23:20Z</time></trkpt><trkpt lat="44.67346763603911" lon="9.175603101392863"><ele>960.0</ele><time>2026-04-25T14:23:21Z</time></trkpt><trkpt lat="44.673436217139354" lon="9.17551150782422"><ele>960.0</ele><time>2026-04-25T14:23:22Z</time></trkpt><trkpt lat="44.67336875431634" lon="9.175430743813846"><ele>960.0</ele><time>2026-04-25T14:23:23Z</time></trkpt><trkpt lat="44.67329391727332" lon="9.175326137949801"><ele>960.8</ele><time>2026-04-25T14:23:24Z</time></trkpt><trkpt lat="44.67322523611668" lon="9.175207423119236"><ele>961.6</ele><time>2026-04-25T14:23:25Z</time></trkpt><trkpt lat="44.67317309022229" lon="9.175107365442043"><ele>962.4000000000001</ele><time>2026-04-25T14:23:26Z</time></trkpt><trkpt lat="44.67312959515711" lon="9.175007021789417"><ele>963.2</ele><time>2026-04-25T14:23:27Z</time></trkpt><trkpt lat="44.67310125093533" lon="9.174877570677719"><ele>964.0</ele><time>2026-04-25T14:23:28Z</time></trkpt><trkpt lat="44.67308938460647" lon="9.174718565803792"><ele>966.75</ele><time>2026-04-25T14:23:29Z</time></trkpt><trkpt lat="44.673079691994054" lon="9.174546045629377"><ele>969.5</ele><time>2026-04-25T14:23:30Z</time></trkpt><trkpt lat="44.67304020262456" lon="9.174370790746435"><ele>972.25</ele><time>2026-04-25T14:23:31Z</time></trkpt><trkpt lat="44.672969021920075" lon="9.174198453550577"><ele>975.0</ele><time>2026-04-25T14:23:32Z</time></trkpt><trkpt lat="44.67288137669821" lon="9.174032192260904"><ele>975.6</ele><time>2026-04-25T14:23:33Z</time></trkpt><trkpt lat="44.6728023026379" lon="9.173894351076791"><ele>976.2</ele><time>2026-04-25T14:23:34Z</time></trkpt><trkpt lat="44.672742475690484" lon="9.173781014110798"><ele>976.8</ele><time>2026-04-25T14:23:35Z</time></trkpt><trkpt lat="44.67270240432906" lon="9.173668386322626"><ele>977.4</ele><time>2026-04-25T14:23:36Z</time></trkpt><trkpt lat="44.67269948033636" lon="9.173562949326584"><ele>978.0</ele><time>2026-04-25T14:23:37Z</time></trkpt><trkpt lat="44.672744163018855" lon="9.173465277938114"><ele>978.0</ele><time>2026-04-25T14:23:38Z</time></trkpt><trkpt lat="44.67281244477029" lon="9.173387343266752"><ele>978.0</ele><time>2026-04-25T14:23:39Z</time></trkpt><trkpt lat="44.6729233924064" lon="9.173350329001103"><ele>978.0</ele><time>2026-04-25T14:23:40Z</time></trkpt><trkpt lat="44.6730320314184" lon="9.173255430150654"><ele>978.0</ele><time>2026-04-25T14:23:41Z</time></trkpt><trkpt lat="44.67314215726352" lon="9.173144750201896"><ele>974.5</ele><time>2026-04-25T14:23:42Z</time></trkpt><trkpt lat="44.673232694093294" lon="9.1730149667409"><ele>971.0</ele><time>2026-04-25T14:23:43Z</time></trkpt><trkpt lat="44.67331684703409" lon="9.172884347089331"><ele>967.5</ele><time>2026-04-25T14:23:44Z</time></trkpt><trkpt lat="44.67340284854274" lon="9.172756088996511"><ele>964.0</ele><time>2026-04-25T14:23:45Z</time></trkpt><trkpt lat="44.67348654067056" lon="9.172639301999466"><ele>964.0</ele><time>2026-04-25T14:23:46Z</time></trkpt><trkpt lat="44.67359176973159" lon="9.172544022424885"><ele>964.0</ele><time>2026-04-25T14:23:47Z</time></trkpt><trkpt lat="44.67370880799676" lon="9.172454407218412"><ele>964.0</ele><time>2026-04-25T14:23:48Z</time></trkpt><trkpt lat="44.67381025470598" lon="9.17235704152328"><ele>964.0</ele><time>2026-04-25T14:23:49Z</time></trkpt><trkpt lat="44.67389422864392" lon="9.172284188870266"><ele>966.8333333333333</ele><time>2026-04-25T14:23:50Z</time></trkpt><trkpt lat="44.673952977409606" lon="9.172207802987574"><ele>969.6666666666666</ele><time>2026-04-25T14:23:51Z</time></trkpt><trkpt lat="44.67401885251925" lon="9.172204118823908"><ele>972.5</ele><time>2026-04-25T14:23:52Z</time></trkpt><trkpt lat="44.674083376299514" lon="9.17235167411831"><ele>975.3333333333333</ele><time>2026-04-25T14:23:54Z</time></trkpt><trkpt lat="44.67406916821954" lon="9.17245637833839"><ele>978.1666666666666</ele><time>2026-04-25T14:23:55Z</time></trkpt><trkpt lat="44.67399495783534" lon="9.172558438591844"><ele>981.0</ele><time>2026-04-25T14:23:56Z</time></trkpt><trkpt lat="44.67394666390902" lon="9.172698755496967"><ele>983.8</ele><time>2026-04-25T14:23:57Z</time></trkpt><trkpt lat="44.673883346462986" lon="9.172841004762791"><ele>986.5999999999999</ele><time>2026-04-25T14:23:58Z</time></trkpt><trkpt lat="44.673843675729344" lon="9.17296081678061"><ele>989.4</ele><time>2026-04-25T14:23:59Z</time></trkpt><trkpt lat="44.67383364281157" lon="9.173081003763153"><ele>992.2</ele><time>2026-04-25T14:24:00Z</time></trkpt><trkpt lat="44.67385153548264" lon="9.173205654109951"><ele>995.0</ele><time>2026-04-25T14:24:01Z</time></trkpt><trkpt lat="44.67389125001167" lon="9.173318714090781"><ele>996.2</ele><time>2026-04-25T14:24:02Z</time></trkpt><trkpt lat="44.67394062476913" lon="9.173427046268761"><ele>997.4</ele><time>2026-04-25T14:24:03Z</time></trkpt><trkpt lat="44.67400647571271" lon="9.173517956713056"><ele>998.5999999999999</ele><time>2026-04-25T14:24:04Z</time></trkpt><trkpt lat="44.67408921367379" lon="9.173597315009602"><ele>999.8</ele><time>2026-04-25T14:24:05Z</time></trkpt><trkpt lat="44.67418926939311" lon="9.173685885807393"><ele>1001.0</ele><time>2026-04-25T14:24:06Z</time></trkpt><trkpt lat="44.6743005276269" lon="9.173790730817393"><ele>1001.0</ele><time>2026-04-25T14:24:07Z</time></trkpt><trkpt lat="44.67442525399098" lon="9.173886538723043"><ele>1001.0</ele><time>2026-04-25T14:24:08Z</time></trkpt><trkpt lat="44.674554266631105" lon="9.173992131591302"><ele>1001.0</ele><time>2026-04-25T14:24:09Z</time></trkpt><trkpt lat="44.67467080621948" lon="9.174087963585796"><ele>1001.0</ele><time>2026-04-25T14:24:10Z</time></trkpt><trkpt lat="44.67477097085125" lon="9.174188150254343"><ele>1004.8</ele><time>2026-04-25T14:24:11Z</time></trkpt><trkpt lat="44.67484979251646" lon="9.17429302127945"><ele>1008.5999999999999</ele><time>2026-04-25T14:24:12Z</time></trkpt><trkpt lat="44.67490942859591" lon="9.174394916919328"><ele>1012.4</ele><time>2026-04-25T14:24:13Z</time></trkpt><trkpt lat="44.674948824155145" lon="9.174521298967871"><ele>1016.2</ele><time>2026-04-25T14:24:14Z</time></trkpt><trkpt lat="44.67494716185386" lon="9.174679927148231"><ele>1020.0</ele><time>2026-04-25T14:24:15Z</time></trkpt><trkpt lat="44.674982878300874" lon="9.17481733824296"><ele>1018.6666666666666</ele><time>2026-04-25T14:24:16Z</time></trkpt><trkpt lat="44.67501440042186" lon="9.174915586309764"><ele>1017.3333333333333</ele><time>2026-04-25T14:24:17Z</time></trkpt><trkpt lat="44.675051803730554" lon="9.175001829413043"><ele>1016.0</ele><time>2026-04-25T14:24:18Z</time></trkpt><trkpt lat="44.67513523892506" lon="9.175043078584912"><ele>1014.6666666666666</ele><time>2026-04-25T14:24:19Z</time></trkpt><trkpt lat="44.67523042162355" lon="9.175082408971488"><ele>1013.3333333333333</ele><time>2026-04-25T14:24:20Z</time></trkpt><trkpt lat="44.675335537191586" lon="9.17513475836587"><ele>1012.0</ele><time>2026-04-25T14:24:21Z</time></trkpt><trkpt lat="44.675443101430325" lon="9.175211945550796"><ele>1015.75</ele><time>2026-04-25T14:24:22Z</time></trkpt><trkpt lat="44.67553368296951" lon="9.175352112221512"><ele>1019.5</ele><time>2026-04-25T14:24:23Z</time></trkpt><trkpt lat="44.67564680572889" lon="9.175488599881422"><ele>1023.25</ele><time>2026-04-25T14:24:24Z</time></trkpt><trkpt lat="44.675717528033104" lon="9.175659648736456"><ele>1027.0</ele><time>2026-04-25T14:24:25Z</time></trkpt><trkpt lat="44.67578123338089" lon="9.175779197758269"><ele>1027.0</ele><time>2026-04-25T14:24:26Z</time></trkpt><trkpt lat="44.67583270050689" lon="9.175830216769103"><ele>1027.0</ele><time>2026-04-25T14:24:27Z</time></trkpt><trkpt lat="44.67590349120557" lon="9.175806716590836"><ele>1027.0</ele><time>2026-04-25T14:24:29Z</time></trkpt><trkpt lat="44.67592090005017" lon="9.175701409512186"><ele>1027.0</ele><time>2026-04-25T14:24:31Z</time></trkpt><trkpt lat="44.6758599508278" lon="9.1755426584754"><ele>1027.0</ele><time>2026-04-25T14:24:33Z</time></trkpt><trkpt lat="44.67579591998916" lon="9.175443329998297"><ele>1027.0</ele><time>2026-04-25T14:24:34Z</time></trkpt><trkpt lat="44.67571475559594" lon="9.175322348599442"><ele>1029.8</ele><time>2026-04-25T14:24:35Z</time></trkpt><trkpt lat="44.67565083229859" lon="9.175210009199088"><ele>1032.6</ele><time>2026-04-25T14:24:36Z</time></trkpt><trkpt lat="44.675595554309275" lon="9.175105685372465"><ele>1035.3999999999999</ele><time>2026-04-25T14:24:37Z</time></trkpt><trkpt lat="44.67552322948817" lon="9.174999104589116"><ele>1038.2</ele><time>2026-04-25T14:24:38Z</time></trkpt><trkpt lat="44.67544677199127" lon="9.174894168869663"><ele>1041.0</ele><time>2026-04-25T14:24:39Z</time></trkpt><trkpt lat="44.67538821956767" lon="9.17480060832611"><ele>1041.0</ele><time>2026-04-25T14:24:40Z</time></trkpt><trkpt lat="44.67537965992955" lon="9.174659320688276"><ele>1041.0</ele><time>2026-04-25T14:24:42Z</time></trkpt><trkpt lat="44.675475509363004" lon="9.17460525144706"><ele>1041.0</ele><time>2026-04-25T14:24:44Z</time></trkpt><trkpt lat="44.67555696590502" lon="9.174740979655049"><ele>1041.0</ele><time>2026-04-25T14:24:46Z</time></trkpt><trkpt lat="44.67561219658149" lon="9.174831200118444"><ele>1041.0</ele><time>2026-04-25T14:24:47Z</time></trkpt><trkpt lat="44.675687652130705" lon="9.174926592845736"><ele>1041.0</ele><time>2026-04-25T14:24:48Z</time></trkpt><trkpt lat="44.67576779969658" lon="9.175048721446121"><ele>1041.0</ele><time>2026-04-25T14:24:49Z</time></trkpt><trkpt lat="44.67586866791114" lon="9.17517562747226"><ele>1041.0</ele><time>2026-04-25T14:24:50Z</time></trkpt><trkpt lat="44.675953355671886" lon="9.175290892489869"><ele>1041.0</ele><time>2026-04-25T14:24:51Z</time></trkpt><trkpt lat="44.67606385226856" lon="9.17537354702159"><ele>1046.0</ele><time>2026-04-25T14:24:52Z</time></trkpt><trkpt lat="44.67614408437164" lon="9.175476389005324"><ele>1051.0</ele><time>2026-04-25T14:24:53Z</time></trkpt><trkpt lat="44.676195916126545" lon="9.17560227852878"><ele>1056.0</ele><time>2026-04-25T14:24:54Z</time></trkpt><trkpt lat="44.67622061609931" lon="9.175791422384174"><ele>1061.0</ele><time>2026-04-25T14:24:55Z</time></trkpt><trkpt lat="44.676264201243214" lon="9.17597459907293"><ele>1061.0</ele><time>2026-04-25T14:24:56Z</time></trkpt><trkpt lat="44.67631009761184" lon="9.176151612107567"><ele>1061.0</ele><time>2026-04-25T14:24:57Z</time></trkpt><trkpt lat="44.67635697676532" lon="9.176324498500907"><ele>1061.0</ele><time>2026-04-25T14:24:58Z</time></trkpt><trkpt lat="44.67640555546161" lon="9.17644926766197"><ele>1061.0</ele><time>2026-04-25T14:24:59Z</time></trkpt><trkpt lat="44.67646004990743" lon="9.176554673572776"><ele>1061.3999999999999</ele><time>2026-04-25T14:25:00Z</time></trkpt><trkpt lat="44.67654307206063" lon="9.176658831532372"><ele>1061.8</ele><time>2026-04-25T14:25:01Z</time></trkpt><trkpt lat="44.67663926953338" lon="9.1767505082136"><ele>1062.1999999999998</ele><time>2026-04-25T14:25:02Z</time></trkpt><trkpt lat="44.67668312528373" lon="9.176858686785485"><ele>1062.6</ele><time>2026-04-25T14:25:03Z</time></trkpt><trkpt lat="44.67670380416834" lon="9.176948763053343"><ele>1063.0</ele><time>2026-04-25T14:25:04Z</time></trkpt><trkpt lat="44.67664164765365" lon="9.177040662641708"><ele>1063.0</ele><time>2026-04-25T14:25:06Z</time></trkpt><trkpt lat="44.67657932898773" lon="9.177072450296018"><ele>1063.0</ele><time>2026-04-25T14:25:07Z</time></trkpt><trkpt lat="44.676480463786305" lon="9.17710073382009"><ele>1063.0</ele><time>2026-04-25T14:25:08Z</time></trkpt><trkpt lat="44.676348406366884" lon="9.177133417702581"><ele>1063.0</ele><time>2026-04-25T14:25:09Z</time></trkpt><trkpt lat="44.676203529920144" lon="9.17720875650374"><ele>1062.5</ele><time>2026-04-25T14:25:10Z</time></trkpt><trkpt lat="44.67607815168747" lon="9.177284329926454"><ele>1062.0</ele><time>2026-04-25T14:25:11Z</time></trkpt><trkpt lat="44.675956735238394" lon="9.17738337224773"><ele>1061.5</ele><time>2026-04-25T14:25:12Z</time></trkpt><trkpt lat="44.67583997880639" lon="9.177498917449665"><ele>1061.0</ele><time>2026-04-25T14:25:13Z</time></trkpt><trkpt lat="44.675745835476874" lon="9.177612003936018"><ele>1061.0</ele><time>2026-04-25T14:25:14Z</time></trkpt><trkpt lat="44.67566786998373" lon="9.17775905333396"><ele>1061.0</ele><time>2026-04-25T14:25:15Z</time></trkpt><trkpt lat="44.67560836028345" lon="9.177917243298728"><ele>1061.0</ele><time>2026-04-25T14:25:16Z</time></trkpt><trkpt lat="44.675518727576936" lon="9.178026683392872"><ele>1061.0</ele><time>2026-04-25T14:25:17Z</time></trkpt><trkpt lat="44.67541224167162" lon="9.178110851872086"><ele>1061.0</ele><time>2026-04-25T14:25:18Z</time></trkpt><trkpt lat="44.67528965485931" lon="9.178182187966966"><ele>1061.0</ele><time>2026-04-25T14:25:19Z</time></trkpt><trkpt lat="44.67518086750098" lon="9.178249326633514"><ele>1061.0</ele><time>2026-04-25T14:25:20Z</time></trkpt><trkpt lat="44.675117883242365" lon="9.178319104760885"><ele>1061.0</ele><time>2026-04-25T14:25:21Z</time></trkpt><trkpt lat="44.675076977888715" lon="9.178458268506276"><ele>1061.0</ele><time>2026-04-25T14:25:23Z</time></trkpt><trkpt lat="44.67516782693806" lon="9.178547784308924"><ele>1068.3333333333335</ele><time>2026-04-25T14:25:25Z</time></trkpt><trkpt lat="44.67532302465425" lon="9.178496215991798"><ele>1075.6666666666667</ele><time>2026-04-25T14:25:27Z</time></trkpt><trkpt lat="44.67546309879215" lon="9.178412333870103"><ele>1083.0</ele><time>2026-04-25T14:25:28Z</time></trkpt><trkpt lat="44.67559702007605" lon="9.17834205923753"><ele>1083.0</ele><time>2026-04-25T14:25:29Z</time></trkpt><trkpt lat="44.675740913013186" lon="9.178269227017005"><ele>1083.0</ele><time>2026-04-25T14:25:30Z</time></trkpt><trkpt lat="44.675877370072904" lon="9.178212841469337"><ele>1083.0</ele><time>2026-04-25T14:25:31Z</time></trkpt><trkpt lat="44.676014605625866" lon="9.178148848398665"><ele>1083.0</ele><time>2026-04-25T14:25:32Z</time></trkpt><trkpt lat="44.676145619434074" lon="9.17807692477724"><ele>1080.5</ele><time>2026-04-25T14:25:33Z</time></trkpt><trkpt lat="44.67628679261342" lon="9.178010191101379"><ele>1078.0</ele><time>2026-04-25T14:25:34Z</time></trkpt><trkpt lat="44.676433241933765" lon="9.177971628000888"><ele>1075.5</ele><time>2026-04-25T14:25:35Z</time></trkpt><trkpt lat="44.67657484747493" lon="9.177942969082066"><ele>1073.0</ele><time>2026-04-25T14:25:36Z</time></trkpt><trkpt lat="44.67669029500567" lon="9.177927274508656"><ele>1073.0</ele><time>2026-04-25T14:25:37Z</time></trkpt><trkpt lat="44.67677583804652" lon="9.177907633279316"><ele>1073.0</ele><time>2026-04-25T14:25:37.999Z</time></trkpt><trkpt lat="44.67685594083047" lon="9.177953416627675"><ele>1073.0</ele><time>2026-04-25T14:25:39.999Z</time></trkpt><trkpt lat="44.6768239003573" lon="9.17808289975073"><ele>1073.0</ele><time>2026-04-25T14:25:41.999Z</time></trkpt><trkpt lat="44.67669137707088" lon="9.178129694595476"><ele>1073.0</ele><time>2026-04-25T14:25:43.999Z</time></trkpt><trkpt lat="44.67659321398702" lon="9.178151259503885"><ele>1075.5</ele><time>2026-04-25T14:25:44.999Z</time></trkpt><trkpt lat="44.67647783160243" lon="9.178215340762794"><ele>1078.0</ele><time>2026-04-25T14:25:45.999Z</time></trkpt><trkpt lat="44.67634603803719" lon="9.178309505134072"><ele>1080.5</ele><time>2026-04-25T14:25:46.999Z</time></trkpt><trkpt lat="44.67620599298765" lon="9.17841162434907"><ele>1083.0</ele><time>2026-04-25T14:25:47.999Z</time></trkpt><trkpt lat="44.67606883687369" lon="9.178511359050244"><ele>1083.0</ele><time>2026-04-25T14:25:48.999Z</time></trkpt><trkpt lat="44.675927276226815" lon="9.178635069877537"><ele>1083.0</ele><time>2026-04-25T14:25:49.999Z</time></trkpt><trkpt lat="44.67578141906199" lon="9.17877282043453"><ele>1083.0</ele><time>2026-04-25T14:25:50.999Z</time></trkpt><trkpt lat="44.67565433932919" lon="9.178895222021817"><ele>1083.0</ele><time>2026-04-25T14:25:51.999Z</time></trkpt><trkpt lat="44.67554853489835" lon="9.179001848957673"><ele>1083.0</ele><time>2026-04-25T14:25:53Z</time></trkpt><trkpt lat="44.675460354577126" lon="9.179096870079462"><ele>1083.0</ele><time>2026-04-25T14:25:54Z</time></trkpt><trkpt lat="44.675398497146944" lon="9.17918873836805"><ele>1083.0</ele><time>2026-04-25T14:25:55Z</time></trkpt><trkpt lat="44.6753451149278" lon="9.179267445122235"><ele>1083.0</ele><time>2026-04-25T14:25:56Z</time></trkpt><trkpt lat="44.67534550980767" lon="9.179412727051442"><ele>1086.8333333333333</ele><time>2026-04-25T14:25:57Z</time></trkpt><trkpt lat="44.67537303108827" lon="9.179546819274885"><ele>1090.6666666666667</ele><time>2026-04-25T14:25:58Z</time></trkpt><trkpt lat="44.67537677858955" lon="9.179668881899104"><ele>1094.5</ele><time>2026-04-25T14:25:59Z</time></trkpt><trkpt lat="44.67533578353304" lon="9.17978014343096"><ele>1098.3333333333335</ele><time>2026-04-25T14:26:00Z</time></trkpt><trkpt lat="44.675272855107956" lon="9.179859156921571"><ele>1102.1666666666667</ele><time>2026-04-25T14:26:01Z</time></trkpt><trkpt lat="44.675201508183065" lon="9.179932939978888"><ele>1106.0</ele><time>2026-04-25T14:26:02Z</time></trkpt><trkpt lat="44.67515062647325" lon="9.180039577103642"><ele>1106.0</ele><time>2026-04-25T14:26:03Z</time></trkpt><trkpt lat="44.67512384173547" lon="9.180157186718416"><ele>1106.0</ele><time>2026-04-25T14:26:04Z</time></trkpt><trkpt lat="44.675125286207226" lon="9.18030020526702"><ele>1106.0</ele><time>2026-04-25T14:26:05Z</time></trkpt><trkpt lat="44.67510348748241" lon="9.180457605034515"><ele>1106.0</ele><time>2026-04-25T14:26:06Z</time></trkpt><trkpt lat="44.67508372365608" lon="9.180614690655629"><ele>1106.0</ele><time>2026-04-25T14:26:07Z</time></trkpt><trkpt lat="44.6750223645235" lon="9.180761242234377"><ele>1110.25</ele><time>2026-04-25T14:26:08Z</time></trkpt><trkpt lat="44.67493862135922" lon="9.18091435714665"><ele>1114.5</ele><time>2026-04-25T14:26:09Z</time></trkpt><trkpt lat="44.67486456620386" lon="9.181067080852117"><ele>1118.75</ele><time>2026-04-25T14:26:10Z</time></trkpt><trkpt lat="44.67479555845438" lon="9.181228712731413"><ele>1123.0</ele><time>2026-04-25T14:26:11Z</time></trkpt><trkpt lat="44.674752454127" lon="9.181402703410447"><ele>1126.2</ele><time>2026-04-25T14:26:12Z</time></trkpt><trkpt lat="44.67471310436994" lon="9.181542739335802"><ele>1129.4</ele><time>2026-04-25T14:26:13Z</time></trkpt><trkpt lat="44.67469273447203" lon="9.181663918631926"><ele>1132.6000000000001</ele><time>2026-04-25T14:26:14Z</time></trkpt><trkpt lat="44.67467669461849" lon="9.18178517133451"><ele>1135.8</ele><time>2026-04-25T14:26:15Z</time></trkpt><trkpt lat="44.67472952372989" lon="9.181921796055352"><ele>1139.0</ele><time>2026-04-25T14:26:16Z</time></trkpt><trkpt lat="44.674738863677376" lon="9.182074928632495"><ele>1139.0</ele><time>2026-04-25T14:26:17Z</time></trkpt><trkpt lat="44.674734894408274" lon="9.182209940792125"><ele>1139.0</ele><time>2026-04-25T14:26:18Z</time></trkpt><trkpt lat="44.6747028479214" lon="9.182330742535509"><ele>1139.0</ele><time>2026-04-25T14:26:19Z</time></trkpt><trkpt lat="44.67466061721721" lon="9.18243792236452"><ele>1139.0</ele><time>2026-04-25T14:26:20Z</time></trkpt><trkpt lat="44.674613219400975" lon="9.182520724004357"><ele>1139.0</ele><time>2026-04-25T14:26:21Z</time></trkpt><trkpt lat="44.67453412695206" lon="9.182559017374771"><ele>1139.0</ele><time>2026-04-25T14:26:22Z</time></trkpt><trkpt lat="44.674436209187576" lon="9.182557304723451"><ele>1138.8</ele><time>2026-04-25T14:26:23Z</time></trkpt><trkpt lat="44.67434787593252" lon="9.182615668554833"><ele>1138.6000000000001</ele><time>2026-04-25T14:26:24Z</time></trkpt><trkpt lat="44.67427086228975" lon="9.18269699203525"><ele>1138.4</ele><time>2026-04-25T14:26:25Z</time></trkpt><trkpt lat="44.67419860609275" lon="9.182832817503531"><ele>1138.2</ele><time>2026-04-25T14:26:26Z</time></trkpt><trkpt lat="44.674139579658636" lon="9.182990593530196"><ele>1138.0</ele><time>2026-04-25T14:26:27Z</time></trkpt><trkpt lat="44.674108960113095" lon="9.183146391551134"><ele>1140.75</ele><time>2026-04-25T14:26:28Z</time></trkpt><trkpt lat="44.6741118677114" lon="9.18330298322469"><ele>1143.5</ele><time>2026-04-25T14:26:29Z</time></trkpt><trkpt lat="44.674138235724094" lon="9.183484113990525"><ele>1146.25</ele><time>2026-04-25T14:26:30Z</time></trkpt><trkpt lat="44.67417384210357" lon="9.183689390830398"><ele>1149.0</ele><time>2026-04-25T14:26:31Z</time></trkpt><trkpt lat="44.674185479526216" lon="9.183899819814812"><ele>1150.2</ele><time>2026-04-25T14:26:32Z</time></trkpt><trkpt lat="44.67420125036682" lon="9.1840617260889"><ele>1151.4</ele><time>2026-04-25T14:26:33Z</time></trkpt><trkpt lat="44.674199103974544" lon="9.184195360145281"><ele>1152.6</ele><time>2026-04-25T14:26:34Z</time></trkpt><trkpt lat="44.67419306110383" lon="9.184331114126216"><ele>1153.8</ele><time>2026-04-25T14:26:35Z</time></trkpt><trkpt lat="44.674183463377695" lon="9.184463908725991"><ele>1155.0</ele><time>2026-04-25T14:26:36Z</time></trkpt><trkpt lat="44.67419054240274" lon="9.184577321704028"><ele>1155.0</ele><time>2026-04-25T14:26:37Z</time></trkpt><trkpt lat="44.67425318073208" lon="9.184699439831338"><ele>1155.0</ele><time>2026-04-25T14:26:39Z</time></trkpt><trkpt lat="44.674328550102175" lon="9.184649900037446"><ele>1155.0</ele><time>2026-04-25T14:26:40Z</time></trkpt><trkpt lat="44.674376729385735" lon="9.184562124579934"><ele>1155.0</ele><time>2026-04-25T14:26:41Z</time></trkpt><trkpt lat="44.67441627259951" lon="9.18443319598218"><ele>1155.0</ele><time>2026-04-25T14:26:42Z</time></trkpt><trkpt lat="44.67444911267901" lon="9.184267633664577"><ele>1159.5</ele><time>2026-04-25T14:26:43Z</time></trkpt><trkpt lat="44.67446992068205" lon="9.184058582494112"><ele>1164.0</ele><time>2026-04-25T14:26:44Z</time></trkpt><trkpt lat="44.6744762455713" lon="9.183855917596818"><ele>1168.5</ele><time>2026-04-25T14:26:45Z</time></trkpt><trkpt lat="44.67447380368501" lon="9.183661402386644"><ele>1173.0</ele><time>2026-04-25T14:26:46Z</time></trkpt><trkpt lat="44.67447635657358" lon="9.183484732201771"><ele>1173.0</ele><time>2026-04-25T14:26:47Z</time></trkpt><trkpt lat="44.6745014638344" lon="9.183343156549823"><ele>1173.0</ele><time>2026-04-25T14:26:48Z</time></trkpt><trkpt lat="44.674551837648785" lon="9.18323242598122"><ele>1173.0</ele><time>2026-04-25T14:26:49Z</time></trkpt><trkpt lat="44.67462744205658" lon="9.183175004032123"><ele>1173.0</ele><time>2026-04-25T14:26:50Z</time></trkpt><trkpt lat="44.67472578862752" lon="9.183192010399246"><ele>1173.0</ele><time>2026-04-25T14:26:51Z</time></trkpt><trkpt lat="44.67483383760739" lon="9.183185969029477"><ele>1173.0</ele><time>2026-04-25T14:26:52Z</time></trkpt><trkpt lat="44.67495942861288" lon="9.183197937415237"><ele>1173.0</ele><time>2026-04-25T14:26:53Z</time></trkpt><trkpt lat="44.67509529939754" lon="9.183189188020963"><ele>1173.0</ele><time>2026-04-25T14:26:54Z</time></trkpt><trkpt lat="44.675233702860396" lon="9.183184327882355"><ele>1173.0</ele><time>2026-04-25T14:26:55Z</time></trkpt><trkpt lat="44.67535741212074" lon="9.183239748557561"><ele>1174.3333333333333</ele><time>2026-04-25T14:26:56Z</time></trkpt><trkpt lat="44.67545682567149" lon="9.183248355563265"><ele>1175.6666666666667</ele><time>2026-04-25T14:26:57Z</time></trkpt><trkpt lat="44.67552400015691" lon="9.183222129905525"><ele>1177.0</ele><time>2026-04-25T14:26:58Z</time></trkpt><trkpt lat="44.67556207428086" lon="9.183135207856498"><ele>1178.3333333333335</ele><time>2026-04-25T14:26:59Z</time></trkpt><trkpt lat="44.67559197107077" lon="9.183008026408851"><ele>1179.6666666666667</ele><time>2026-04-25T14:27:00Z</time></trkpt><trkpt lat="44.67563628477585" lon="9.182882747039665"><ele>1181.0</ele><time>2026-04-25T14:27:01Z</time></trkpt><trkpt lat="44.675741285041894" lon="9.182821063532465"><ele>1181.0</ele><time>2026-04-25T14:27:02Z</time></trkpt><trkpt lat="44.675861939089714" lon="9.182741192774992"><ele>1181.0</ele><time>2026-04-25T14:27:03Z</time></trkpt><trkpt lat="44.676004855402034" lon="9.182679735560653"><ele>1181.0</ele><time>2026-04-25T14:27:04Z</time></trkpt><trkpt lat="44.676126217304855" lon="9.182605516845488"><ele>1181.0</ele><time>2026-04-25T14:27:05Z</time></trkpt><trkpt lat="44.67623326882315" lon="9.182513265373426"><ele>1184.25</ele><time>2026-04-25T14:27:06Z</time></trkpt><trkpt lat="44.67632335523895" lon="9.182385323101057"><ele>1187.5</ele><time>2026-04-25T14:27:07Z</time></trkpt><trkpt lat="44.67639975692618" lon="9.182214625395554"><ele>1190.75</ele><time>2026-04-25T14:27:08Z</time></trkpt><trkpt lat="44.67647076056288" lon="9.18202152367433"><ele>1194.0</ele><time>2026-04-25T14:27:09Z</time></trkpt><trkpt lat="44.67653403776024" lon="9.18181204758663"><ele>1194.0</ele><time>2026-04-25T14:27:10Z</time></trkpt><trkpt lat="44.67658708833083" lon="9.181630882655153"><ele>1194.0</ele><time>2026-04-25T14:27:11Z</time></trkpt><trkpt lat="44.67662779468992" lon="9.181477699469486"><ele>1194.0</ele><time>2026-04-25T14:27:12Z</time></trkpt><trkpt lat="44.67666694107008" lon="9.181371905682314"><ele>1194.0</ele><time>2026-04-25T14:27:13Z</time></trkpt><trkpt lat="44.676742013336" lon="9.181326994941855"><ele>1194.0</ele><time>2026-04-25T14:27:14Z</time></trkpt><trkpt lat="44.67683919740239" lon="9.181292178761012"><ele>1198.5</ele><time>2026-04-25T14:27:15Z</time></trkpt><trkpt lat="44.67696444946454" lon="9.181231166602366"><ele>1203.0</ele><time>2026-04-25T14:27:16Z</time></trkpt><trkpt lat="44.67709831037387" lon="9.18118136302722"><ele>1207.5</ele><time>2026-04-25T14:27:17Z</time></trkpt><trkpt lat="44.677198637882256" lon="9.18111621882448"><ele>1212.0</ele><time>2026-04-25T14:27:18Z</time></trkpt><trkpt lat="44.67725745201816" lon="9.181027980205453"><ele>1212.0</ele><time>2026-04-25T14:27:19Z</time></trkpt><trkpt lat="44.67729611271394" lon="9.180919265771557"><ele>1212.0</ele><time>2026-04-25T14:27:20Z</time></trkpt><trkpt lat="44.677298987294776" lon="9.180772415615543"><ele>1212.0</ele><time>2026-04-25T14:27:21Z</time></trkpt><trkpt lat="44.67728276935767" lon="9.180617329351099"><ele>1212.0</ele><time>2026-04-25T14:27:22Z</time></trkpt><trkpt lat="44.67728013755506" lon="9.180489637052206"><ele>1212.0</ele><time>2026-04-25T14:27:23Z</time></trkpt><trkpt lat="44.677333697522634" lon="9.180432275199855"><ele>1212.0</ele><time>2026-04-25T14:27:25Z</time></trkpt><trkpt lat="44.677385673504844" lon="9.180587698351301"><ele>1212.0</ele><time>2026-04-25T14:27:27Z</time></trkpt><trkpt lat="44.67742312990324" lon="9.180665614475648"><ele>1212.0</ele><time>2026-04-25T14:27:28Z</time></trkpt><trkpt lat="44.67744415292539" lon="9.180787181717413"><ele>1212.0</ele><time>2026-04-25T14:27:29Z</time></trkpt><trkpt lat="44.67748834862418" lon="9.18092816533946"><ele>1212.0</ele><time>2026-04-25T14:27:30Z</time></trkpt><trkpt lat="44.677528616614914" lon="9.181094993180217"><ele>1212.0</ele><time>2026-04-25T14:27:31Z</time></trkpt><trkpt lat="44.67753303383712" lon="9.181296023416229"><ele>1212.0</ele><time>2026-04-25T14:27:32Z</time></trkpt><trkpt lat="44.677532449426415" lon="9.181507983192262"><ele>1212.0</ele><time>2026-04-25T14:27:33Z</time></trkpt><trkpt lat="44.677510945144675" lon="9.181702707843927"><ele>1212.0</ele><time>2026-04-25T14:27:34Z</time></trkpt><trkpt lat="44.67745870324003" lon="9.1819017763321"><ele>1213.5</ele><time>2026-04-25T14:27:35Z</time></trkpt><trkpt lat="44.67740556624051" lon="9.182094757081897"><ele>1215.0</ele><time>2026-04-25T14:27:36Z</time></trkpt><trkpt lat="44.677331235569966" lon="9.182243119411137"><ele>1216.5</ele><time>2026-04-25T14:27:37Z</time></trkpt><trkpt lat="44.677248963781864" lon="9.18231905316393"><ele>1218.0</ele><time>2026-04-25T14:27:37.999Z</time></trkpt><trkpt lat="44.67713936696376" lon="9.182356632832652"><ele>1216.0</ele><time>2026-04-25T14:27:38.999Z</time></trkpt><trkpt lat="44.67703219382735" lon="9.182419434238403"><ele>1214.0</ele><time>2026-04-25T14:27:39.999Z</time></trkpt><trkpt lat="44.67693888475439" lon="9.182470619915131"><ele>1212.0</ele><time>2026-04-25T14:27:40.999Z</time></trkpt><trkpt lat="44.67686759863777" lon="9.18254297838604"><ele>1210.0</ele><time>2026-04-25T14:27:41.999Z</time></trkpt><trkpt lat="44.67681412192077" lon="9.182650191257746"><ele>1208.0</ele><time>2026-04-25T14:27:42.999Z</time></trkpt><trkpt lat="44.67677159487558" lon="9.182789454707647"><ele>1208.0</ele><time>2026-04-25T14:27:43.999Z</time></trkpt><trkpt lat="44.676710634534565" lon="9.182929797405556"><ele>1208.0</ele><time>2026-04-25T14:27:44.999Z</time></trkpt><trkpt lat="44.67667686558712" lon="9.183094370246305"><ele>1208.0</ele><time>2026-04-25T14:27:45.999Z</time></trkpt><trkpt lat="44.67664560547264" lon="9.183233757112763"><ele>1208.0</ele><time>2026-04-25T14:27:46.999Z</time></trkpt><trkpt lat="44.676610310223694" lon="9.183354805836636"><ele>1208.0</ele><time>2026-04-25T14:27:47.999Z</time></trkpt><trkpt lat="44.67664887801796" lon="9.183485157293996"><ele>1210.2</ele><time>2026-04-25T14:27:48.999Z</time></trkpt><trkpt lat="44.67668940696506" lon="9.183609044219907"><ele>1212.4</ele><time>2026-04-25T14:27:49.999Z</time></trkpt><trkpt lat="44.67672122551103" lon="9.183739246958355"><ele>1214.6000000000001</ele><time>2026-04-25T14:27:50.999Z</time></trkpt><trkpt lat="44.676728684712806" lon="9.183879729193002"><ele>1216.8</ele><time>2026-04-25T14:27:51.999Z</time></trkpt><trkpt lat="44.67669745387099" lon="9.184017935284835"><ele>1219.0</ele><time>2026-04-25T14:27:52.999Z</time></trkpt><trkpt lat="44.67667209027282" lon="9.184158870759651"><ele>1221.0</ele><time>2026-04-25T14:27:53.999Z</time></trkpt><trkpt lat="44.67665272771017" lon="9.184308969424514"><ele>1223.0</ele><time>2026-04-25T14:27:54.999Z</time></trkpt><trkpt lat="44.67660781765341" lon="9.184451854406651"><ele>1225.0</ele><time>2026-04-25T14:27:55.999Z</time></trkpt><trkpt lat="44.676548131763134" lon="9.18458708044741"><ele>1227.0</ele><time>2026-04-25T14:27:56.999Z</time></trkpt><trkpt lat="44.67646796668651" lon="9.184699121105442"><ele>1229.0</ele><time>2026-04-25T14:27:57.999Z</time></trkpt><trkpt lat="44.676355196816075" lon="9.184782475572165"><ele>1229.5</ele><time>2026-04-25T14:27:58.999Z</time></trkpt><trkpt lat="44.67623389028" lon="9.18486327836821"><ele>1230.0</ele><time>2026-04-25T14:27:59.999Z</time></trkpt><trkpt lat="44.67612655788033" lon="9.184960439080152"><ele>1230.5</ele><time>2026-04-25T14:28:00.999Z</time></trkpt><trkpt lat="44.67602980456172" lon="9.18506265966933"><ele>1231.0</ele><time>2026-04-25T14:28:01.999Z</time></trkpt><trkpt lat="44.67596092378898" lon="9.185212449655085"><ele>1231.0</ele><time>2026-04-25T14:28:02.999Z</time></trkpt><trkpt lat="44.67591194678046" lon="9.18539344260367"><ele>1231.0</ele><time>2026-04-25T14:28:03.999Z</time></trkpt><trkpt lat="44.67584924141313" lon="9.18556747707378"><ele>1231.0</ele><time>2026-04-25T14:28:04.999Z</time></trkpt><trkpt lat="44.67578133546634" lon="9.185728026610446"><ele>1231.0</ele><time>2026-04-25T14:28:05.999Z</time></trkpt><trkpt lat="44.6757351680133" lon="9.185869504519493"><ele>1234.25</ele><time>2026-04-25T14:28:06.999Z</time></trkpt><trkpt lat="44.675689572143966" lon="9.18600322819144"><ele>1237.5</ele><time>2026-04-25T14:28:07.999Z</time></trkpt><trkpt lat="44.67570937790772" lon="9.186159259276412"><ele>1240.75</ele><time>2026-04-25T14:28:08.999Z</time></trkpt><trkpt lat="44.675731112792825" lon="9.186321211661452"><ele>1244.0</ele><time>2026-04-25T14:28:09.999Z</time></trkpt><trkpt lat="44.67575834473344" lon="9.186503314312642"><ele>1247.0</ele><time>2026-04-25T14:28:10.999Z</time></trkpt><trkpt lat="44.67578738189513" lon="9.186700909062596"><ele>1250.0</ele><time>2026-04-25T14:28:11.999Z</time></trkpt><trkpt lat="44.675819420813376" lon="9.18690469254673"><ele>1253.0</ele><time>2026-04-25T14:28:12.999Z</time></trkpt><trkpt lat="44.67586510205005" lon="9.187118600072477"><ele>1253.0</ele><time>2026-04-25T14:28:13.999Z</time></trkpt><trkpt lat="44.67591806765382" lon="9.187315300139277"><ele>1253.0</ele><time>2026-04-25T14:28:14.999Z</time></trkpt><trkpt lat="44.67596892045284" lon="9.187512316709144"><ele>1253.0</ele><time>2026-04-25T14:28:15.999Z</time></trkpt><trkpt lat="44.676013356187056" lon="9.18769909021429"><ele>1253.0</ele><time>2026-04-25T14:28:16.999Z</time></trkpt><trkpt lat="44.67605892963601" lon="9.187876397226578"><ele>1260.4</ele><time>2026-04-25T14:28:17.999Z</time></trkpt><trkpt lat="44.67610510220029" lon="9.18803699021862"><ele>1267.8</ele><time>2026-04-25T14:28:18.999Z</time></trkpt><trkpt lat="44.67615930454722" lon="9.188180887017635"><ele>1275.2</ele><time>2026-04-25T14:28:19.999Z</time></trkpt><trkpt lat="44.67622143574727" lon="9.188291193460714"><ele>1282.6</ele><time>2026-04-25T14:28:20.999Z</time></trkpt><trkpt lat="44.676291789370026" lon="9.188401528512708"><ele>1290.0</ele><time>2026-04-25T14:28:21.999Z</time></trkpt><trkpt lat="44.67634926187741" lon="9.188516936725994"><ele>1290.0</ele><time>2026-04-25T14:28:22.999Z</time></trkpt><trkpt lat="44.67639456221929" lon="9.188606969495034"><ele>1290.0</ele><time>2026-04-25T14:28:23.999Z</time></trkpt><trkpt lat="44.67638434219054" lon="9.188733689932599"><ele>1290.0</ele><time>2026-04-25T14:28:25.999Z</time></trkpt><trkpt lat="44.67629401054702" lon="9.188830020353288"><ele>1290.0</ele><time>2026-04-25T14:28:27.999Z</time></trkpt><trkpt lat="44.67626582160682" lon="9.188913491745215"><ele>1290.0</ele><time>2026-04-25T14:28:28.999Z</time></trkpt><trkpt lat="44.67630084376627" lon="9.189080559588708"><ele>1290.0</ele><time>2026-04-25T14:28:30.999Z</time></trkpt><trkpt lat="44.67635963480514" lon="9.189189961101125"><ele>1290.0</ele><time>2026-04-25T14:28:31.999Z</time></trkpt><trkpt lat="44.67642714509612" lon="9.189301202005321"><ele>1290.0</ele><time>2026-04-25T14:28:32.999Z</time></trkpt><trkpt lat="44.676464348468954" lon="9.189421031468221"><ele>1290.0</ele><time>2026-04-25T14:28:33.999Z</time></trkpt><trkpt lat="44.6764985461207" lon="9.18952283516232"><ele>1290.0</ele><time>2026-04-25T14:28:34.999Z</time></trkpt><trkpt lat="44.67648037984493" lon="9.18964677772718"><ele>1290.0</ele><time>2026-04-25T14:28:36.999Z</time></trkpt><trkpt lat="44.676410127396075" lon="9.18969726286942"><ele>1290.0</ele><time>2026-04-25T14:28:38.999Z</time></trkpt><trkpt lat="44.67630808032744" lon="9.189677372035304"><ele>1290.0</ele><time>2026-04-25T14:28:40.999Z</time></trkpt><trkpt lat="44.67624117349911" lon="9.189675008812191"><ele>1290.0</ele><time>2026-04-25T14:28:41.999Z</time></trkpt><trkpt lat="44.67615464187888" lon="9.189673896491737"><ele>1290.0</ele><time>2026-04-25T14:28:42.999Z</time></trkpt><trkpt lat="44.676057297422005" lon="9.189675893686207"><ele>1290.0</ele><time>2026-04-25T14:28:43.999Z</time></trkpt><trkpt lat="44.675960079092874" lon="9.189662335906892"><ele>1283.6</ele><time>2026-04-25T14:28:44.999Z</time></trkpt><trkpt lat="44.67588350041067" lon="9.189639503138018"><ele>1277.2</ele><time>2026-04-25T14:28:45.999Z</time></trkpt><trkpt lat="44.675794636737" lon="9.189601874638887"><ele>1270.8</ele><time>2026-04-25T14:28:46.999Z</time></trkpt><trkpt lat="44.675696519892824" lon="9.189557005721026"><ele>1264.4</ele><time>2026-04-25T14:28:47.999Z</time></trkpt><trkpt lat="44.675595596153414" lon="9.189503850856736"><ele>1258.0</ele><time>2026-04-25T14:28:48.999Z</time></trkpt><trkpt lat="44.67549093932339" lon="9.189433201972045"><ele>1258.0</ele><time>2026-04-25T14:28:49.999Z</time></trkpt><trkpt lat="44.67537695734518" lon="9.189338782863436"><ele>1258.0</ele><time>2026-04-25T14:28:50.999Z</time></trkpt><trkpt lat="44.67525253365847" lon="9.189236885003558"><ele>1258.0</ele><time>2026-04-25T14:28:51.999Z</time></trkpt><trkpt lat="44.67511509924628" lon="9.18914077593996"><ele>1258.0</ele><time>2026-04-25T14:28:52.999Z</time></trkpt><trkpt lat="44.67497636651633" lon="9.189032475190839"><ele>1256.0</ele><time>2026-04-25T14:28:53.999Z</time></trkpt><trkpt lat="44.67485588428271" lon="9.188937500011848"><ele>1254.0</ele><time>2026-04-25T14:28:54.999Z</time></trkpt><trkpt lat="44.6747403213036" lon="9.188845474142305"><ele>1252.0</ele><time>2026-04-25T14:28:55.999Z</time></trkpt><trkpt lat="44.6746292877282" lon="9.188733282553638"><ele>1250.0</ele><time>2026-04-25T14:28:56.999Z</time></trkpt><trkpt lat="44.67449966571256" lon="9.188653061460492"><ele>1259.75</ele><time>2026-04-25T14:28:57.999Z</time></trkpt><trkpt lat="44.67439620842421" lon="9.188527391613444"><ele>1269.5</ele><time>2026-04-25T14:28:58.999Z</time></trkpt><trkpt lat="44.67429422273459" lon="9.1884166399421"><ele>1279.25</ele><time>2026-04-25T14:28:59.999Z</time></trkpt><trkpt lat="44.674187863694684" lon="9.188312723682808"><ele>1289.0</ele><time>2026-04-25T14:29:00.999Z</time></trkpt><trkpt lat="44.67408943177515" lon="9.188219021543311"><ele>1289.0</ele><time>2026-04-25T14:29:01.999Z</time></trkpt><trkpt lat="44.67401716565593" lon="9.18815022789037"><ele>1289.0</ele><time>2026-04-25T14:29:02.999Z</time></trkpt><trkpt lat="44.673963115184534" lon="9.188098774321597"><ele>1289.0</ele><time>2026-04-25T14:29:03.999Z</time></trkpt><trkpt lat="44.673892753066916" lon="9.18807818932822"><ele>1289.0</ele><time>2026-04-25T14:29:04.999Z</time></trkpt><trkpt lat="44.67382612188362" lon="9.188069395614972"><ele>1289.0</ele><time>2026-04-25T14:29:05.999Z</time></trkpt><trkpt lat="44.673762320941044" lon="9.188106309390626"><ele>1289.0</ele><time>2026-04-25T14:29:06.999Z</time></trkpt><trkpt lat="44.67369686120173" lon="9.188190420605014"><ele>1289.0</ele><time>2026-04-25T14:29:07.999Z</time></trkpt><trkpt lat="44.673632388878566" lon="9.188295857456792"><ele>1288.6</ele><time>2026-04-25T14:29:08.999Z</time></trkpt><trkpt lat="44.67356214714665" lon="9.188417006779916"><ele>1288.2</ele><time>2026-04-25T14:29:09.999Z</time></trkpt><trkpt lat="44.67348040239898" lon="9.188538276368934"><ele>1287.8</ele><time>2026-04-25T14:29:10.999Z</time></trkpt><trkpt lat="44.67340691862841" lon="9.188666438337986"><ele>1287.3999999999999</ele><time>2026-04-25T14:29:11.999Z</time></trkpt><trkpt lat="44.67335849710695" lon="9.188791712151453"><ele>1287.0</ele><time>2026-04-25T14:29:12.999Z</time></trkpt><trkpt lat="44.6733336878542" lon="9.188932206901955"><ele>1290.25</ele><time>2026-04-25T14:29:13.999Z</time></trkpt><trkpt lat="44.67332677997032" lon="9.189089508406132"><ele>1293.5</ele><time>2026-04-25T14:29:14.999Z</time></trkpt><trkpt lat="44.67333491725633" lon="9.189269566028438"><ele>1296.75</ele><time>2026-04-25T14:29:15.999Z</time></trkpt><trkpt lat="44.673347744123944" lon="9.189465631088689"><ele>1300.0</ele><time>2026-04-25T14:29:16.999Z</time></trkpt><trkpt lat="44.67335613257626" lon="9.1896584449715"><ele>1300.0</ele><time>2026-04-25T14:29:17.999Z</time></trkpt><trkpt lat="44.673361811532686" lon="9.18982788036605"><ele>1300.0</ele><time>2026-04-25T14:29:18.999Z</time></trkpt><trkpt lat="44.673372819611004" lon="9.189963310995248"><ele>1300.0</ele><time>2026-04-25T14:29:19.999Z</time></trkpt><trkpt lat="44.67340438394197" lon="9.190046991778456"><ele>1300.0</ele><time>2026-04-25T14:29:20.999Z</time></trkpt><trkpt lat="44.673509804459215" lon="9.190116603867342"><ele>1300.0</ele><time>2026-04-25T14:29:22.999Z</time></trkpt><trkpt lat="44.67356890074081" lon="9.190036607216696"><ele>1303.4</ele><time>2026-04-25T14:29:23.999Z</time></trkpt><trkpt lat="44.6736063017334" lon="9.189950501268099"><ele>1306.8</ele><time>2026-04-25T14:29:24.999Z</time></trkpt><trkpt lat="44.6736296159051" lon="9.189865693125924"><ele>1310.1999999999998</ele><time>2026-04-25T14:29:25.999Z</time></trkpt><trkpt lat="44.673654613271054" lon="9.189758215092413"><ele>1313.6</ele><time>2026-04-25T14:29:26.999Z</time></trkpt><trkpt lat="44.673711409625625" lon="9.189635272182915"><ele>1317.0</ele><time>2026-04-25T14:29:27.999Z</time></trkpt><trkpt lat="44.67376437374481" lon="9.189470408644473"><ele>1317.0</ele><time>2026-04-25T14:29:28.999Z</time></trkpt><trkpt lat="44.67382303182485" lon="9.189286441213689"><ele>1317.0</ele><time>2026-04-25T14:29:29.999Z</time></trkpt><trkpt lat="44.673874795246796" lon="9.189123070444923"><ele>1317.0</ele><time>2026-04-25T14:29:30.999Z</time></trkpt><trkpt lat="44.67392348400865" lon="9.188995547457754"><ele>1317.0</ele><time>2026-04-25T14:29:31.999Z</time></trkpt><trkpt lat="44.673970787223055" lon="9.188904286870672"><ele>1317.0</ele><time>2026-04-25T14:29:32.999Z</time></trkpt><trkpt lat="44.67405596632395" lon="9.188891215058668"><ele>1317.0</ele><time>2026-04-25T14:29:34.999Z</time></trkpt><trkpt lat="44.67408747194156" lon="9.18906477872134"><ele>1317.0</ele><time>2026-04-25T14:29:36.999Z</time></trkpt><trkpt lat="44.6740281768881" lon="9.189177354726771"><ele>1317.0</ele><time>2026-04-25T14:29:37.999Z</time></trkpt><trkpt lat="44.674010337245306" lon="9.189337525470474"><ele>1317.0</ele><time>2026-04-25T14:29:38.999Z</time></trkpt><trkpt lat="44.67398206812313" lon="9.189526772549605"><ele>1317.0</ele><time>2026-04-25T14:29:39.999Z</time></trkpt><trkpt lat="44.67395613450467" lon="9.189746215146126"><ele>1317.0</ele><time>2026-04-25T14:29:40.999Z</time></trkpt><trkpt lat="44.67393121250366" lon="9.189957962884629"><ele>1317.0</ele><time>2026-04-25T14:29:41.999Z</time></trkpt><trkpt lat="44.67390354397103" lon="9.190180248364063"><ele>1319.75</ele><time>2026-04-25T14:29:42.999Z</time></trkpt><trkpt lat="44.67388035674884" lon="9.190391505294471"><ele>1322.5</ele><time>2026-04-25T14:29:43.999Z</time></trkpt><trkpt lat="44.673848426471075" lon="9.190565625859396"><ele>1325.25</ele><time>2026-04-25T14:29:44.999Z</time></trkpt><trkpt lat="44.67377911419854" lon="9.190707312855777"><ele>1328.0</ele><time>2026-04-25T14:29:45.999Z</time></trkpt><trkpt lat="44.6736940285359" lon="9.190844005835874"><ele>1325.75</ele><time>2026-04-25T14:29:46.999Z</time></trkpt><trkpt lat="44.673601508137615" lon="9.191005816376125"><ele>1323.5</ele><time>2026-04-25T14:29:47.999Z</time></trkpt><trkpt lat="44.67350111539965" lon="9.191153551317088"><ele>1321.25</ele><time>2026-04-25T14:29:48.999Z</time></trkpt><trkpt lat="44.67341150674129" lon="9.19129974913814"><ele>1319.0</ele><time>2026-04-25T14:29:49.999Z</time></trkpt><trkpt lat="44.673328417924424" lon="9.191415740884649"><ele>1321.4</ele><time>2026-04-25T14:29:50.999Z</time></trkpt><trkpt lat="44.673256787782385" lon="9.191522249374634"><ele>1323.8000000000002</ele><time>2026-04-25T14:29:51.999Z</time></trkpt><trkpt lat="44.67320285899694" lon="9.191634399764919"><ele>1326.1999999999998</ele><time>2026-04-25T14:29:52.999Z</time></trkpt><trkpt lat="44.6731769811903" lon="9.191754855022932"><ele>1328.6</ele><time>2026-04-25T14:29:53.999Z</time></trkpt><trkpt lat="44.67318379033135" lon="9.1918882590402"><ele>1331.0</ele><time>2026-04-25T14:29:54.999Z</time></trkpt><trkpt lat="44.673223181713766" lon="9.192031485313226"><ele>1331.0</ele><time>2026-04-25T14:29:55.999Z</time></trkpt><trkpt lat="44.67327915569773" lon="9.192180871794104"><ele>1331.0</ele><time>2026-04-25T14:29:56.999Z</time></trkpt><trkpt lat="44.67330937262054" lon="9.192362438665617"><ele>1331.0</ele><time>2026-04-25T14:29:57.999Z</time></trkpt><trkpt lat="44.67336163095127" lon="9.192548206010303"><ele>1331.0</ele><time>2026-04-25T14:29:58.999Z</time></trkpt><trkpt lat="44.673382481632224" lon="9.192751510550506"><ele>1332.5</ele><time>2026-04-25T14:29:59.999Z</time></trkpt><trkpt lat="44.67335165429079" lon="9.192964554004492"><ele>1334.0</ele><time>2026-04-25T14:30:00.999Z</time></trkpt><trkpt lat="44.673367647842674" lon="9.193162656921537"><ele>1335.5</ele><time>2026-04-25T14:30:01.999Z</time></trkpt><trkpt lat="44.67336769077066" lon="9.193319427196416"><ele>1337.0</ele><time>2026-04-25T14:30:02.999Z</time></trkpt><trkpt lat="44.673348014774604" lon="9.193433329429888"><ele>1339.0</ele><time>2026-04-25T14:30:03.999Z</time></trkpt><trkpt lat="44.67330017107969" lon="9.19353860977011"><ele>1341.0</ele><time>2026-04-25T14:30:05.999Z</time></trkpt><trkpt lat="44.673228257201075" lon="9.193505767869041"><ele>1343.0</ele><time>2026-04-25T14:30:06.999Z</time></trkpt><trkpt lat="44.67317388357891" lon="9.193555234896719"><ele>1345.0</ele><time>2026-04-25T14:30:07.999Z</time></trkpt><trkpt lat="44.67310645732029" lon="9.193609536155675"><ele>1347.0</ele><time>2026-04-25T14:30:09Z</time></trkpt><trkpt lat="44.67305194721201" lon="9.19373441690209"><ele>1349.0</ele><time>2026-04-25T14:30:10Z</time></trkpt><trkpt lat="44.67301080275079" lon="9.193897447904066"><ele>1353.0</ele><time>2026-04-25T14:30:11Z</time></trkpt><trkpt lat="44.67294693604597" lon="9.19408234061155"><ele>1357.0</ele><time>2026-04-25T14:30:12Z</time></trkpt><trkpt lat="44.67289811418314" lon="9.194255791608581"><ele>1361.0</ele><time>2026-04-25T14:30:13Z</time></trkpt><trkpt lat="44.67284851977266" lon="9.194431987065219"><ele>1365.0</ele><time>2026-04-25T14:30:14Z</time></trkpt><trkpt lat="44.67280865765585" lon="9.19458377387642"><ele>1361.0</ele><time>2026-04-25T14:30:15Z</time></trkpt><trkpt lat="44.672770740462084" lon="9.194685791073345"><ele>1357.0</ele><time>2026-04-25T14:30:16Z</time></trkpt><trkpt lat="44.67267876418595" lon="9.194742772777685"><ele>1353.0</ele><time>2026-04-25T14:30:18Z</time></trkpt><trkpt lat="44.67260352298109" lon="9.194710769482581"><ele>1349.0</ele><time>2026-04-25T14:30:19Z</time></trkpt><trkpt lat="44.67251484762674" lon="9.194676250294778"><ele>1345.0</ele><time>2026-04-25T14:30:20Z</time></trkpt><trkpt lat="44.67240926608433" lon="9.194640912936917"><ele>1345.0</ele><time>2026-04-25T14:30:21Z</time></trkpt><trkpt lat="44.6723099576905" lon="9.194625851806695"><ele>1345.0</ele><time>2026-04-25T14:30:22Z</time></trkpt><trkpt lat="44.672222217014976" lon="9.194644072833631"><ele>1345.0</ele><time>2026-04-25T14:30:23Z</time></trkpt><trkpt lat="44.67213610620568" lon="9.194704298232438"><ele>1345.0</ele><time>2026-04-25T14:30:24Z</time></trkpt><trkpt lat="44.67204989004877" lon="9.194804127174661"><ele>1345.0</ele><time>2026-04-25T14:30:25Z</time></trkpt><trkpt lat="44.671961809577574" lon="9.194941207314809"><ele>1347.0</ele><time>2026-04-25T14:30:26Z</time></trkpt><trkpt lat="44.671871297903266" lon="9.19509626655859"><ele>1349.0</ele><time>2026-04-25T14:30:27Z</time></trkpt><trkpt lat="44.671779290623235" lon="9.195262414667013"><ele>1351.0</ele><time>2026-04-25T14:30:28Z</time></trkpt><trkpt lat="44.67168571091591" lon="9.195440319956974"><ele>1351.0</ele><time>2026-04-25T14:30:29Z</time></trkpt><trkpt lat="44.671618254119785" lon="9.19562022924558"><ele>1351.0</ele><time>2026-04-25T14:30:30Z</time></trkpt><trkpt lat="44.671563357879094" lon="9.195784575907595"><ele>1351.0</ele><time>2026-04-25T14:30:31Z</time></trkpt><trkpt lat="44.6714969016334" lon="9.195930574993401"><ele>1351.0</ele><time>2026-04-25T14:30:32Z</time></trkpt><trkpt lat="44.67139242084497" lon="9.196034312605299"><ele>1355.0</ele><time>2026-04-25T14:30:33Z</time></trkpt><trkpt lat="44.67129539884539" lon="9.196156851601751"><ele>1359.0</ele><time>2026-04-25T14:30:34Z</time></trkpt><trkpt lat="44.671205883867756" lon="9.196251672711295"><ele>1363.0</ele><time>2026-04-25T14:30:35Z</time></trkpt><trkpt lat="44.67114901449996" lon="9.196371647400321"><ele>1367.0</ele><time>2026-04-25T14:30:36Z</time></trkpt><trkpt lat="44.67111586698738" lon="9.196524751664372"><ele>1365.25</ele><time>2026-04-25T14:30:37Z</time></trkpt><trkpt lat="44.671097279079916" lon="9.196696228033735"><ele>1363.5</ele><time>2026-04-25T14:30:38Z</time></trkpt><trkpt lat="44.6710786810645" lon="9.196878159170922"><ele>1361.75</ele><time>2026-04-25T14:30:39Z</time></trkpt><trkpt lat="44.67105333399742" lon="9.197065110720652"><ele>1360.0</ele><time>2026-04-25T14:30:40Z</time></trkpt><trkpt lat="44.6710254647254" lon="9.197268789862296"><ele>1362.0</ele><time>2026-04-25T14:30:41Z</time></trkpt><trkpt lat="44.671002177048194" lon="9.197465407954155"><ele>1364.0</ele><time>2026-04-25T14:30:42Z</time></trkpt><trkpt lat="44.67099566454589" lon="9.197641760609972"><ele>1366.0</ele><time>2026-04-25T14:30:43Z</time></trkpt><trkpt lat="44.67102413057515" lon="9.197801267288622"><ele>1368.0</ele><time>2026-04-25T14:30:44Z</time></trkpt><trkpt lat="44.67108145137765" lon="9.197961692577277"><ele>1370.2</ele><time>2026-04-25T14:30:45Z</time></trkpt><trkpt lat="44.67111522528519" lon="9.198125543945864"><ele>1372.4</ele><time>2026-04-25T14:30:46Z</time></trkpt><trkpt lat="44.67113108798274" lon="9.19825199534506"><ele>1374.6000000000001</ele><time>2026-04-25T14:30:47Z</time></trkpt><trkpt lat="44.671115651961536" lon="9.198351399209017"><ele>1376.8000000000002</ele><time>2026-04-25T14:30:48Z</time></trkpt><trkpt lat="44.67109016238286" lon="9.198453494397876"><ele>1379.0</ele><time>2026-04-25T14:30:49Z</time></trkpt><trkpt lat="44.670988414639936" lon="9.198517405161127"><ele>1379.0</ele><time>2026-04-25T14:30:50Z</time></trkpt><trkpt lat="44.67090968799358" lon="9.19863180252185"><ele>1379.0</ele><time>2026-04-25T14:30:51Z</time></trkpt><trkpt lat="44.67083470451091" lon="9.198766593567617"><ele>1379.0</ele><time>2026-04-25T14:30:52Z</time></trkpt><trkpt lat="44.670746259769636" lon="9.19889429647275"><ele>1379.0</ele><time>2026-04-25T14:30:53Z</time></trkpt><trkpt lat="44.67066305365844" lon="9.199018563738855"><ele>1383.2</ele><time>2026-04-25T14:30:54Z</time></trkpt><trkpt lat="44.6705840585248" lon="9.199128383699586"><ele>1387.4</ele><time>2026-04-25T14:30:55Z</time></trkpt><trkpt lat="44.670518041693846" lon="9.199223278275952"><ele>1391.6</ele><time>2026-04-25T14:30:56Z</time></trkpt><trkpt lat="44.67048054110232" lon="9.199327587354086"><ele>1395.8</ele><time>2026-04-25T14:30:57Z</time></trkpt><trkpt lat="44.6704619111653" lon="9.199420168753297"><ele>1400.0</ele><time>2026-04-25T14:30:58Z</time></trkpt><trkpt lat="44.67051002348427" lon="9.199563081720632"><ele>1400.0</ele><time>2026-04-25T14:31:00Z</time></trkpt><trkpt lat="44.67064591958054" lon="9.199543943317451"><ele>1400.0</ele><time>2026-04-25T14:31:02Z</time></trkpt><trkpt lat="44.67071184430301" lon="9.199417254566288"><ele>1400.0</ele><time>2026-04-25T14:31:03Z</time></trkpt><trkpt lat="44.67078533398511" lon="9.199296691325175"><ele>1400.0</ele><time>2026-04-25T14:31:04Z</time></trkpt><trkpt lat="44.670882438401414" lon="9.199169348487985"><ele>1400.0</ele><time>2026-04-25T14:31:05Z</time></trkpt><trkpt lat="44.67100064463184" lon="9.199071013416672"><ele>1400.0</ele><time>2026-04-25T14:31:06Z</time></trkpt><trkpt lat="44.67109129252113" lon="9.1989670208143"><ele>1400.0</ele><time>2026-04-25T14:31:07Z</time></trkpt><trkpt lat="44.67120202565122" lon="9.198939009941729"><ele>1400.0</ele><time>2026-04-25T14:31:08Z</time></trkpt><trkpt lat="44.671329768725045" lon="9.19891300858494"><ele>1400.0</ele><time>2026-04-25T14:31:09Z</time></trkpt><trkpt lat="44.671467878364425" lon="9.198870250141443"><ele>1400.0</ele><time>2026-04-25T14:31:10Z</time></trkpt><trkpt lat="44.671611824069345" lon="9.198844145711105"><ele>1400.0</ele><time>2026-04-25T14:31:11Z</time></trkpt><trkpt lat="44.67173521426083" lon="9.198818115186967"><ele>1400.0</ele><time>2026-04-25T14:31:12Z</time></trkpt><trkpt lat="44.671844375195505" lon="9.198790114921202"><ele>1406.25</ele><time>2026-04-25T14:31:13Z</time></trkpt><trkpt lat="44.67194523360811" lon="9.198755477168417"><ele>1412.5</ele><time>2026-04-25T14:31:14Z</time></trkpt><trkpt lat="44.672053266259596" lon="9.198716983387234"><ele>1418.75</ele><time>2026-04-25T14:31:15Z</time></trkpt><trkpt lat="44.67216518867306" lon="9.198647027849017"><ele>1425.0</ele><time>2026-04-25T14:31:16Z</time></trkpt><trkpt lat="44.67226893886702" lon="9.198583845122068"><ele>1425.0</ele><time>2026-04-25T14:31:17Z</time></trkpt><trkpt lat="44.672339173171586" lon="9.198475687405365"><ele>1425.0</ele><time>2026-04-25T14:31:18Z</time></trkpt><trkpt lat="44.67236687752178" lon="9.198330048961235"><ele>1425.0</ele><time>2026-04-25T14:31:19Z</time></trkpt><trkpt lat="44.672383364073475" lon="9.198182139993824"><ele>1425.0</ele><time>2026-04-25T14:31:20Z</time></trkpt><trkpt lat="44.67237164869118" lon="9.198018637698897"><ele>1425.0</ele><time>2026-04-25T14:31:21Z</time></trkpt><trkpt lat="44.672351754392814" lon="9.197873463102386"><ele>1422.8</ele><time>2026-04-25T14:31:22Z</time></trkpt><trkpt lat="44.67235479084994" lon="9.197740944019857"><ele>1420.6</ele><time>2026-04-25T14:31:23Z</time></trkpt><trkpt lat="44.67235804416528" lon="9.197647727004616"><ele>1418.4</ele><time>2026-04-25T14:31:24Z</time></trkpt><trkpt lat="44.672400480634764" lon="9.197557636945982"><ele>1416.2</ele><time>2026-04-25T14:31:26Z</time></trkpt><trkpt lat="44.672523918002135" lon="9.197488550714203"><ele>1414.0</ele><time>2026-04-25T14:31:27Z</time></trkpt><trkpt lat="44.67262608500834" lon="9.197456633884578"><ele>1414.0</ele><time>2026-04-25T14:31:28Z</time></trkpt><trkpt lat="44.67274465675206" lon="9.197423006892809"><ele>1414.0</ele><time>2026-04-25T14:31:29Z</time></trkpt><trkpt lat="44.67288467099345" lon="9.197382690881486"><ele>1414.0</ele><time>2026-04-25T14:31:30Z</time></trkpt><trkpt lat="44.67299654727658" lon="9.197326552510349"><ele>1414.0</ele><time>2026-04-25T14:31:31Z</time></trkpt><trkpt lat="44.67310655463783" lon="9.197286169716614"><ele>1414.75</ele><time>2026-04-25T14:31:32Z</time></trkpt><trkpt lat="44.673204356384105" lon="9.197208342531912"><ele>1415.5</ele><time>2026-04-25T14:31:33Z</time></trkpt><trkpt lat="44.67329437621932" lon="9.197090243977152"><ele>1416.25</ele><time>2026-04-25T14:31:34Z</time></trkpt><trkpt lat="44.673384545774624" lon="9.196950660832277"><ele>1417.0</ele><time>2026-04-25T14:31:35Z</time></trkpt><trkpt lat="44.67348648412607" lon="9.196821862253758"><ele>1417.0</ele><time>2026-04-25T14:31:36Z</time></trkpt><trkpt lat="44.67359704115076" lon="9.196746777846982"><ele>1417.0</ele><time>2026-04-25T14:31:37Z</time></trkpt><trkpt lat="44.673693073555846" lon="9.196691889103041"><ele>1417.0</ele><time>2026-04-25T14:31:38Z</time></trkpt><trkpt lat="44.67379778568912" lon="9.196692186241627"><ele>1417.0</ele><time>2026-04-25T14:31:39Z</time></trkpt><trkpt lat="44.67392031014085" lon="9.19667576104642"><ele>1422.5</ele><time>2026-04-25T14:31:40Z</time></trkpt><trkpt lat="44.6740470013538" lon="9.196656349836866"><ele>1428.0</ele><time>2026-04-25T14:31:41Z</time></trkpt><trkpt lat="44.67417902063308" lon="9.196627007465503"><ele>1433.5</ele><time>2026-04-25T14:31:42Z</time></trkpt><trkpt lat="44.67431656115878" lon="9.196593457990646"><ele>1439.0</ele><time>2026-04-25T14:31:43Z</time></trkpt><trkpt lat="44.67445766069838" lon="9.196556950776113"><ele>1437.0</ele><time>2026-04-25T14:31:44Z</time></trkpt><trkpt lat="44.67457933076367" lon="9.196492755045718"><ele>1435.0</ele><time>2026-04-25T14:31:45Z</time></trkpt><trkpt lat="44.674682245986226" lon="9.196446667974342"><ele>1433.0</ele><time>2026-04-25T14:31:46Z</time></trkpt><trkpt lat="44.674770234360345" lon="9.196393713222093"><ele>1431.0</ele><time>2026-04-25T14:31:47Z</time></trkpt><trkpt lat="44.67484630291493" lon="9.196418072228703"><ele>1429.0</ele><time>2026-04-25T14:31:48Z</time></trkpt><trkpt lat="44.67491622021356" lon="9.196439910847577"><ele>1429.0</ele><time>2026-04-25T14:31:49Z</time></trkpt><trkpt lat="44.67500744387209" lon="9.196445609661327"><ele>1429.0</ele><time>2026-04-25T14:31:50Z</time></trkpt><trkpt lat="44.675104818630544" lon="9.196477464800257"><ele>1429.0</ele><time>2026-04-25T14:31:51Z</time></trkpt><trkpt lat="44.675206408191094" lon="9.196522762497272"><ele>1429.0</ele><time>2026-04-25T14:31:52Z</time></trkpt><trkpt lat="44.67531996428234" lon="9.196518761920759"><ele>1429.0</ele><time>2026-04-25T14:31:53Z</time></trkpt><trkpt lat="44.675437831765876" lon="9.196530470497251"><ele>1435.6</ele><time>2026-04-25T14:31:54Z</time></trkpt><trkpt lat="44.67555557118475" lon="9.196540056485729"><ele>1442.2</ele><time>2026-04-25T14:31:55Z</time></trkpt><trkpt lat="44.67566206787002" lon="9.196550173143267"><ele>1448.8</ele><time>2026-04-25T14:31:56Z</time></trkpt><trkpt lat="44.675742158112456" lon="9.196586181054926"><ele>1455.3999999999999</ele><time>2026-04-25T14:31:57Z</time></trkpt><trkpt lat="44.67582928906736" lon="9.196659311295681"><ele>1462.0</ele><time>2026-04-25T14:31:59Z</time></trkpt><trkpt lat="44.67580805591947" lon="9.196804335331096"><ele>1462.0</ele><time>2026-04-25T14:32:01Z</time></trkpt><trkpt lat="44.67573050363626" lon="9.196925911923953"><ele>1462.0</ele><time>2026-04-25T14:32:03Z</time></trkpt><trkpt lat="44.67565173773096" lon="9.196944146247178"><ele>1462.0</ele><time>2026-04-25T14:32:04Z</time></trkpt><trkpt lat="44.67555820765838" lon="9.196947387987219"><ele>1462.0</ele><time>2026-04-25T14:32:05Z</time></trkpt><trkpt lat="44.675444807809775" lon="9.196934813672332"><ele>1462.0</ele><time>2026-04-25T14:32:06Z</time></trkpt><trkpt lat="44.6753101523734" lon="9.19689777428941"><ele>1460.3999999999999</ele><time>2026-04-25T14:32:07Z</time></trkpt><trkpt lat="44.67517827604462" lon="9.19686051325208"><ele>1458.8</ele><time>2026-04-25T14:32:08Z</time></trkpt><trkpt lat="44.67506275501022" lon="9.196820361061299"><ele>1457.2</ele><time>2026-04-25T14:32:09Z</time></trkpt><trkpt lat="44.67496612389411" lon="9.196806932848494"><ele>1455.6</ele><time>2026-04-25T14:32:10Z</time></trkpt><trkpt lat="44.6748773481784" lon="9.196814755256481"><ele>1454.0</ele><time>2026-04-25T14:32:11Z</time></trkpt><trkpt lat="44.67480159179943" lon="9.196849196390609"><ele>1454.0</ele><time>2026-04-25T14:32:12Z</time></trkpt><trkpt lat="44.674719963417424" lon="9.196911868545959"><ele>1454.0</ele><time>2026-04-25T14:32:13Z</time></trkpt><trkpt lat="44.674633474776066" lon="9.19698719261833"><ele>1454.0</ele><time>2026-04-25T14:32:14Z</time></trkpt><trkpt lat="44.67453570026" lon="9.197080144053883"><ele>1454.0</ele><time>2026-04-25T14:32:15Z</time></trkpt><trkpt lat="44.67444183076256" lon="9.197192084884854"><ele>1454.0</ele><time>2026-04-25T14:32:16Z</time></trkpt><trkpt lat="44.674341394513796" lon="9.197316380398693"><ele>1457.5</ele><time>2026-04-25T14:32:17Z</time></trkpt><trkpt lat="44.674233627570565" lon="9.1974276676041"><ele>1461.0</ele><time>2026-04-25T14:32:18Z</time></trkpt><trkpt lat="44.67414156266937" lon="9.197540469419936"><ele>1464.5</ele><time>2026-04-25T14:32:19Z</time></trkpt><trkpt lat="44.67405970757418" lon="9.197673751876762"><ele>1468.0</ele><time>2026-04-25T14:32:20Z</time></trkpt><trkpt lat="44.67397470408512" lon="9.197821689764973"><ele>1468.0</ele><time>2026-04-25T14:32:21Z</time></trkpt><trkpt lat="44.67388289231872" lon="9.197979597928214"><ele>1468.0</ele><time>2026-04-25T14:32:22Z</time></trkpt><trkpt lat="44.67379663131194" lon="9.198120258039653"><ele>1468.0</ele><time>2026-04-25T14:32:23Z</time></trkpt><trkpt lat="44.673717495467834" lon="9.198251421670815"><ele>1468.0</ele><time>2026-04-25T14:32:24Z</time></trkpt><trkpt lat="44.6736467386504" lon="9.198388071789504"><ele>1469.25</ele><time>2026-04-25T14:32:25Z</time></trkpt><trkpt lat="44.67358389529788" lon="9.1985353277971"><ele>1470.5</ele><time>2026-04-25T14:32:26Z</time></trkpt><trkpt lat="44.673529634088595" lon="9.198695249347644"><ele>1471.75</ele><time>2026-04-25T14:32:27Z</time></trkpt><trkpt lat="44.67347991023061" lon="9.198857468735007"><ele>1473.0</ele><time>2026-04-25T14:32:28Z</time></trkpt><trkpt lat="44.673453059390255" lon="9.199030850983393"><ele>1473.0</ele><time>2026-04-25T14:32:29Z</time></trkpt><trkpt lat="44.673448746596186" lon="9.19921262421943"><ele>1473.0</ele><time>2026-04-25T14:32:30Z</time></trkpt><trkpt lat="44.67344817626579" lon="9.199405539119354"><ele>1473.0</ele><time>2026-04-25T14:32:31Z</time></trkpt><trkpt lat="44.67343298297029" lon="9.199601774228903"><ele>1473.0</ele><time>2026-04-25T14:32:32Z</time></trkpt><trkpt lat="44.67342692477032" lon="9.199779640500676"><ele>1476.4</ele><time>2026-04-25T14:32:33Z</time></trkpt><trkpt lat="44.673407241017635" lon="9.199937059525043"><ele>1479.8000000000002</ele><time>2026-04-25T14:32:34Z</time></trkpt><trkpt lat="44.67334213173336" lon="9.20005533269488"><ele>1483.2</ele><time>2026-04-25T14:32:35Z</time></trkpt><trkpt lat="44.67327569412171" lon="9.200169486585251"><ele>1486.6</ele><time>2026-04-25T14:32:36Z</time></trkpt><trkpt lat="44.67321830767042" lon="9.200309576974188"><ele>1490.0</ele><time>2026-04-25T14:32:37Z</time></trkpt><trkpt lat="44.67316253311571" lon="9.20042782374953"><ele>1490.0</ele><time>2026-04-25T14:32:38Z</time></trkpt><trkpt lat="44.67311900061444" lon="9.200545998122564"><ele>1490.0</ele><time>2026-04-25T14:32:39Z</time></trkpt><trkpt lat="44.6730900425112" lon="9.200654919354953"><ele>1490.0</ele><time>2026-04-25T14:32:40Z</time></trkpt><trkpt lat="44.673062692587315" lon="9.200768693610598"><ele>1490.0</ele><time>2026-04-25T14:32:41Z</time></trkpt><trkpt lat="44.67303527408851" lon="9.20088226120318"><ele>1490.0</ele><time>2026-04-25T14:32:42Z</time></trkpt><trkpt lat="44.673008161537375" lon="9.200998140476088"><ele>1490.0</ele><time>2026-04-25T14:32:43Z</time></trkpt><trkpt lat="44.67296368668663" lon="9.201096214289798"><ele>1489.8333333333335</ele><time>2026-04-25T14:32:44Z</time></trkpt><trkpt lat="44.67295113756352" lon="9.201199473481424"><ele>1489.6666666666667</ele><time>2026-04-25T14:32:45Z</time></trkpt><trkpt lat="44.672897704612545" lon="9.201336858411356"><ele>1489.5</ele><time>2026-04-25T14:32:47Z</time></trkpt><trkpt lat="44.67294063461809" lon="9.201416864650447"><ele>1489.3333333333333</ele><time>2026-04-25T14:32:48Z</time></trkpt><trkpt lat="44.67301677206781" lon="9.201520041901295"><ele>1489.1666666666665</ele><time>2026-04-25T14:32:50Z</time></trkpt><trkpt lat="44.67308109496443" lon="9.201569452883465"><ele>1489.0</ele><time>2026-04-25T14:32:51Z</time></trkpt><trkpt lat="44.67317299102979" lon="9.201607060085625"><ele>1489.0</ele><time>2026-04-25T14:32:52Z</time></trkpt><trkpt lat="44.67328742498364" lon="9.201624457421207"><ele>1489.0</ele><time>2026-04-25T14:32:53Z</time></trkpt><trkpt lat="44.67340341793188" lon="9.201622193685424"><ele>1489.0</ele><time>2026-04-25T14:32:54Z</time></trkpt><trkpt lat="44.67352108903669" lon="9.201628123531757"><ele>1489.0</ele><time>2026-04-25T14:32:55Z</time></trkpt><trkpt lat="44.67364275529887" lon="9.201687239489559"><ele>1493.5</ele><time>2026-04-25T14:32:56Z</time></trkpt><trkpt lat="44.67376981728812" lon="9.201762732805289"><ele>1498.0</ele><time>2026-04-25T14:32:57Z</time></trkpt><trkpt lat="44.673906020663736" lon="9.201823930574228"><ele>1502.5</ele><time>2026-04-25T14:32:58Z</time></trkpt><trkpt lat="44.67402547623768" lon="9.201901995246295"><ele>1507.0</ele><time>2026-04-25T14:32:59Z</time></trkpt><trkpt lat="44.67414048521979" lon="9.201976474280874"><ele>1507.0</ele><time>2026-04-25T14:33:00Z</time></trkpt><trkpt lat="44.67424019932555" lon="9.202037700772703"><ele>1507.0</ele><time>2026-04-25T14:33:01Z</time></trkpt><trkpt lat="44.67433420318956" lon="9.202097824514038"><ele>1507.0</ele><time>2026-04-25T14:33:02Z</time></trkpt><trkpt lat="44.67442848471595" lon="9.202181820046324"><ele>1507.0</ele><time>2026-04-25T14:33:03Z</time></trkpt><trkpt lat="44.67452720876917" lon="9.202246871898414"><ele>1507.0</ele><time>2026-04-25T14:33:04Z</time></trkpt><trkpt lat="44.67463781425021" lon="9.202317231555492"><ele>1500.0</ele><time>2026-04-25T14:33:05Z</time></trkpt><trkpt lat="44.6747678369083" lon="9.202399205874967"><ele>1493.0</ele><time>2026-04-25T14:33:06Z</time></trkpt><trkpt lat="44.674912289304366" lon="9.202489106999215"><ele>1486.0</ele><time>2026-04-25T14:33:07Z</time></trkpt><trkpt lat="44.675055546607425" lon="9.202581313890079"><ele>1486.0</ele><time>2026-04-25T14:33:08Z</time></trkpt><trkpt lat="44.67519653702333" lon="9.202681440445666"><ele>1486.0</ele><time>2026-04-25T14:33:09Z</time></trkpt><trkpt lat="44.67533003355817" lon="9.202785441779378"><ele>1486.0</ele><time>2026-04-25T14:33:10Z</time></trkpt><trkpt lat="44.67545671725062" lon="9.202894125160686"><ele>1487.75</ele><time>2026-04-25T14:33:11Z</time></trkpt><trkpt lat="44.67557195155475" lon="9.202991359379698"><ele>1489.5</ele><time>2026-04-25T14:33:12Z</time></trkpt><trkpt lat="44.67568842577916" lon="9.203068157813716"><ele>1491.25</ele><time>2026-04-25T14:33:13Z</time></trkpt><trkpt lat="44.675825728852175" lon="9.20312313107093"><ele>1493.0</ele><time>2026-04-25T14:33:14Z</time></trkpt><trkpt lat="44.67597263253656" lon="9.20316088078878"><ele>1487.3333333333335</ele><time>2026-04-25T14:33:15Z</time></trkpt><trkpt lat="44.67612119497092" lon="9.20319798947122"><ele>1481.6666666666667</ele><time>2026-04-25T14:33:16Z</time></trkpt><trkpt lat="44.67626276785222" lon="9.203265848901639"><ele>1476.0</ele><time>2026-04-25T14:33:17Z</time></trkpt><trkpt lat="44.676406208641396" lon="9.203342881673562"><ele>1476.0</ele><time>2026-04-25T14:33:18Z</time></trkpt><trkpt lat="44.67654024871573" lon="9.203422341940206"><ele>1476.0</ele><time>2026-04-25T14:33:19Z</time></trkpt><trkpt lat="44.67666518973247" lon="9.203495480894839"><ele>1476.0</ele><time>2026-04-25T14:33:20Z</time></trkpt><trkpt lat="44.67675573549312" lon="9.203587151626628"><ele>1476.0</ele><time>2026-04-25T14:33:21Z</time></trkpt><trkpt lat="44.6768371415645" lon="9.203683427870825"><ele>1476.0</ele><time>2026-04-25T14:33:22Z</time></trkpt><trkpt lat="44.67690061825257" lon="9.203802045056745"><ele>1476.0</ele><time>2026-04-25T14:33:23Z</time></trkpt><trkpt lat="44.67697745911671" lon="9.203928569967665"><ele>1476.0</ele><time>2026-04-25T14:33:24Z</time></trkpt><trkpt lat="44.677074038357134" lon="9.204038266842641"><ele>1476.0</ele><time>2026-04-25T14:33:25Z</time></trkpt><trkpt lat="44.67718099869501" lon="9.204143064123308"><ele>1473.25</ele><time>2026-04-25T14:33:26Z</time></trkpt><trkpt lat="44.67729365925929" lon="9.204227087235509"><ele>1470.5</ele><time>2026-04-25T14:33:27Z</time></trkpt><trkpt lat="44.67739525292185" lon="9.204310617735532"><ele>1467.75</ele><time>2026-04-25T14:33:28Z</time></trkpt><trkpt lat="44.67749828192207" lon="9.204359754781612"><ele>1465.0</ele><time>2026-04-25T14:33:29Z</time></trkpt><trkpt lat="44.67760603917613" lon="9.204362990688175"><ele>1465.0</ele><time>2026-04-25T14:33:30Z</time></trkpt><trkpt lat="44.6777212496794" lon="9.204325241728476"><ele>1465.0</ele><time>2026-04-25T14:33:31Z</time></trkpt><trkpt lat="44.677840906476526" lon="9.204263223066544"><ele>1465.0</ele><time>2026-04-25T14:33:32Z</time></trkpt><trkpt lat="44.67795752261385" lon="9.20420543623216"><ele>1465.0</ele><time>2026-04-25T14:33:33Z</time></trkpt><trkpt lat="44.678072688048566" lon="9.204219027265099"><ele>1465.25</ele><time>2026-04-25T14:33:34Z</time></trkpt><trkpt lat="44.67818456444813" lon="9.204247360227066"><ele>1465.5</ele><time>2026-04-25T14:33:35Z</time></trkpt><trkpt lat="44.678307365957174" lon="9.204295181520163"><ele>1465.75</ele><time>2026-04-25T14:33:36Z</time></trkpt><trkpt lat="44.67844354537205" lon="9.204341566345608"><ele>1466.0</ele><time>2026-04-25T14:33:37Z</time></trkpt><trkpt lat="44.67858103979466" lon="9.204397167878179"><ele>1466.5</ele><time>2026-04-25T14:33:38Z</time></trkpt><trkpt lat="44.67871413320447" lon="9.204445618266996"><ele>1467.0</ele><time>2026-04-25T14:33:39Z</time></trkpt><trkpt lat="44.67885265002614" lon="9.204471500429092"><ele>1467.5</ele><time>2026-04-25T14:33:40Z</time></trkpt><trkpt lat="44.67899462922878" lon="9.204477988896585"><ele>1468.0</ele><time>2026-04-25T14:33:41Z</time></trkpt><trkpt lat="44.679125723243345" lon="9.204489059152738"><ele>1468.0</ele><time>2026-04-25T14:33:42Z</time></trkpt><trkpt lat="44.6792413083065" lon="9.204498723402141"><ele>1468.0</ele><time>2026-04-25T14:33:43Z</time></trkpt><trkpt lat="44.67935138704201" lon="9.204474451804172"><ele>1468.0</ele><time>2026-04-25T14:33:44Z</time></trkpt><trkpt lat="44.679452253776624" lon="9.204419003129168"><ele>1468.0</ele><time>2026-04-25T14:33:45Z</time></trkpt><trkpt lat="44.67953290023208" lon="9.204347979333768"><ele>1468.0</ele><time>2026-04-25T14:33:46Z</time></trkpt><trkpt lat="44.67960644629173" lon="9.204344942201944"><ele>1468.8000000000002</ele><time>2026-04-25T14:33:47Z</time></trkpt><trkpt lat="44.67967021927618" lon="9.204411847019434"><ele>1469.6</ele><time>2026-04-25T14:33:48Z</time></trkpt><trkpt lat="44.679732660713356" lon="9.204530707379478"><ele>1470.4</ele><time>2026-04-25T14:33:49Z</time></trkpt><trkpt lat="44.67977133516007" lon="9.204698180441317"><ele>1471.1999999999998</ele><time>2026-04-25T14:33:50Z</time></trkpt><trkpt lat="44.6798526210849" lon="9.204827434875416"><ele>1472.0</ele><time>2026-04-25T14:33:51Z</time></trkpt><trkpt lat="44.67993021064262" lon="9.204960941013294"><ele>1467.5</ele><time>2026-04-25T14:33:52Z</time></trkpt><trkpt lat="44.68001540951475" lon="9.205098386253157"><ele>1463.0</ele><time>2026-04-25T14:33:53Z</time></trkpt><trkpt lat="44.680116333897544" lon="9.20522156932321"><ele>1458.5</ele><time>2026-04-25T14:33:54Z</time></trkpt><trkpt lat="44.680195831877505" lon="9.205355867886015"><ele>1454.0</ele><time>2026-04-25T14:33:55Z</time></trkpt><trkpt lat="44.68025715761599" lon="9.205519020330224"><ele>1455.75</ele><time>2026-04-25T14:33:56Z</time></trkpt><trkpt lat="44.68030465440397" lon="9.205705607270726"><ele>1457.5</ele><time>2026-04-25T14:33:57Z</time></trkpt><trkpt lat="44.68035770776597" lon="9.205888806006273"><ele>1459.25</ele><time>2026-04-25T14:33:58Z</time></trkpt><trkpt lat="44.68043299826008" lon="9.206063788542409"><ele>1461.0</ele><time>2026-04-25T14:33:59Z</time></trkpt><trkpt lat="44.6805221230863" lon="9.206233316141157"><ele>1461.0</ele><time>2026-04-25T14:34:00Z</time></trkpt><trkpt lat="44.68060355423552" lon="9.206413780411776"><ele>1461.0</ele><time>2026-04-25T14:34:01Z</time></trkpt><trkpt lat="44.680712554222964" lon="9.206572855413615"><ele>1461.0</ele><time>2026-04-25T14:34:02Z</time></trkpt><trkpt lat="44.68081404641586" lon="9.206746707419892"><ele>1459.0</ele><time>2026-04-25T14:34:03Z</time></trkpt><trkpt lat="44.68092007725712" lon="9.206916462945188"><ele>1457.0</ele><time>2026-04-25T14:34:04Z</time></trkpt><trkpt lat="44.681020864675126" lon="9.207077863317854"><ele>1455.0</ele><time>2026-04-25T14:34:05Z</time></trkpt><trkpt lat="44.68111273432373" lon="9.207209847793074"><ele>1453.0</ele><time>2026-04-25T14:34:06Z</time></trkpt><trkpt lat="44.68119888119355" lon="9.207295356241628"><ele>1446.5</ele><time>2026-04-25T14:34:07Z</time></trkpt><trkpt lat="44.68131092433004" lon="9.207347136793295"><ele>1440.0</ele><time>2026-04-25T14:34:08Z</time></trkpt><trkpt lat="44.68144466961438" lon="9.207368992915983"><ele>1433.5</ele><time>2026-04-25T14:34:09Z</time></trkpt><trkpt lat="44.681593452395454" lon="9.207376888673522"><ele>1427.0</ele><time>2026-04-25T14:34:10Z</time></trkpt><trkpt lat="44.6817447001138" lon="9.207381441967838"><ele>1427.0</ele><time>2026-04-25T14:34:11Z</time></trkpt><trkpt lat="44.68187896391738" lon="9.207397540555766"><ele>1427.0</ele><time>2026-04-25T14:34:12Z</time></trkpt><trkpt lat="44.68199631404643" lon="9.207421145212594"><ele>1427.0</ele><time>2026-04-25T14:34:13Z</time></trkpt><trkpt lat="44.68210383096794" lon="9.207431039247377"><ele>1427.0</ele><time>2026-04-25T14:34:14Z</time></trkpt><trkpt lat="44.68220485610397" lon="9.20749862025505"><ele>1428.75</ele><time>2026-04-25T14:34:15Z</time></trkpt><trkpt lat="44.68228802847481" lon="9.20760696248107"><ele>1430.5</ele><time>2026-04-25T14:34:16Z</time></trkpt><trkpt lat="44.682338296975864" lon="9.20774013220278"><ele>1432.25</ele><time>2026-04-25T14:34:17Z</time></trkpt><trkpt lat="44.68233448021346" lon="9.20790605829321"><ele>1434.0</ele><time>2026-04-25T14:34:18Z</time></trkpt><trkpt lat="44.682339823146386" lon="9.208083695377923"><ele>1432.8000000000002</ele><time>2026-04-25T14:34:19Z</time></trkpt><trkpt lat="44.68230441256291" lon="9.208243358329485"><ele>1431.6000000000001</ele><time>2026-04-25T14:34:20Z</time></trkpt><trkpt lat="44.682265822922766" lon="9.20838828919441"><ele>1430.4</ele><time>2026-04-25T14:34:21Z</time></trkpt><trkpt lat="44.68223309864789" lon="9.20852931197401"><ele>1429.2</ele><time>2026-04-25T14:34:22Z</time></trkpt><trkpt lat="44.68226292669063" lon="9.208679830629782"><ele>1428.0</ele><time>2026-04-25T14:34:23Z</time></trkpt><trkpt lat="44.68229152199645" lon="9.208836812380436"><ele>1425.5</ele><time>2026-04-25T14:34:24Z</time></trkpt><trkpt lat="44.682339810799824" lon="9.20900544401546"><ele>1423.0</ele><time>2026-04-25T14:34:25Z</time></trkpt><trkpt lat="44.68239766158089" lon="9.209174217897475"><ele>1420.5</ele><time>2026-04-25T14:34:26Z</time></trkpt><trkpt lat="44.6824702476048" lon="9.20932017141558"><ele>1418.0</ele><time>2026-04-25T14:34:27Z</time></trkpt><trkpt lat="44.682574627962495" lon="9.209595140673118"><ele>1418.0</ele><time>2026-04-25T14:34:28Z</time></trkpt><trkpt lat="44.682620711486116" lon="9.209797069642768"><ele>1418.0</ele><time>2026-04-25T14:34:29Z</time></trkpt><trkpt lat="44.682658765703756" lon="9.21000820503476"><ele>1418.0</ele><time>2026-04-25T14:34:30Z</time></trkpt><trkpt lat="44.68268855974326" lon="9.210234702143591"><ele>1418.0</ele><time>2026-04-25T14:34:31Z</time></trkpt><trkpt lat="44.68271814346729" lon="9.210452790010356"><ele>1418.0</ele><time>2026-04-25T14:34:32Z</time></trkpt><trkpt lat="44.68274722917095" lon="9.210662770398097"><ele>1418.0</ele><time>2026-04-25T14:34:33Z</time></trkpt><trkpt lat="44.682785266194266" lon="9.21083275254574"><ele>1418.0</ele><time>2026-04-25T14:34:34Z</time></trkpt><trkpt lat="44.68281059062636" lon="9.210969361468225"><ele>1418.0</ele><time>2026-04-25T14:34:35Z</time></trkpt><trkpt lat="44.68284477959557" lon="9.21109369679922"><ele>1418.0</ele><time>2026-04-25T14:34:36Z</time></trkpt><trkpt lat="44.68291210915391" lon="9.21121246896271"><ele>1418.0</ele><time>2026-04-25T14:34:37Z</time></trkpt><trkpt lat="44.682995298928226" lon="9.21132743571444"><ele>1418.0</ele><time>2026-04-25T14:34:38Z</time></trkpt><trkpt lat="44.683084703747326" lon="9.211417993200186"><ele>1418.0</ele><time>2026-04-25T14:34:39Z</time></trkpt><trkpt lat="44.68317537824486" lon="9.21149554169968"><ele>1418.0</ele><time>2026-04-25T14:34:40Z</time></trkpt><trkpt lat="44.68326989405281" lon="9.211532027672094"><ele>1418.0</ele><time>2026-04-25T14:34:41Z</time></trkpt><trkpt lat="44.683364752006845" lon="9.211517978111582"><ele>1418.0</ele><time>2026-04-25T14:34:42Z</time></trkpt><trkpt lat="44.683463859509224" lon="9.21145174963952"><ele>1418.0</ele><time>2026-04-25T14:34:43Z</time></trkpt><trkpt lat="44.68355646880235" lon="9.211380105228185"><ele>1418.0</ele><time>2026-04-25T14:34:44Z</time></trkpt><trkpt lat="44.683621790548216" lon="9.211341834801592"><ele>1418.6000000000001</ele><time>2026-04-25T14:34:45Z</time></trkpt><trkpt lat="44.68368804513831" lon="9.211327417587034"><ele>1419.2</ele><time>2026-04-25T14:34:47Z</time></trkpt><trkpt lat="44.683792854105086" lon="9.211483789269572"><ele>1419.8</ele><time>2026-04-25T14:35:00Z</time></trkpt><trkpt lat="44.683873144416026" lon="9.211531779031631"><ele>1420.4</ele><time>2026-04-25T14:35:01Z</time></trkpt><trkpt lat="44.683950120386335" lon="9.211605892700332"><ele>1421.0</ele><time>2026-04-25T14:35:02Z</time></trkpt><trkpt lat="44.68401803894317" lon="9.211677962161485"><ele>1418.1999999999998</ele><time>2026-04-25T14:35:03Z</time></trkpt><trkpt lat="44.68407621711901" lon="9.211758206780663"><ele>1415.3999999999999</ele><time>2026-04-25T14:35:04Z</time></trkpt><trkpt lat="44.68410318100187" lon="9.211881302990513"><ele>1412.6</ele><time>2026-04-25T14:35:05Z</time></trkpt><trkpt lat="44.684118076543804" lon="9.212016426987825"><ele>1409.8</ele><time>2026-04-25T14:35:06Z</time></trkpt><trkpt lat="44.68410319402984" lon="9.212180005219308"><ele>1407.0</ele><time>2026-04-25T14:35:07Z</time></trkpt><trkpt lat="44.68409328996915" lon="9.212369177604062"><ele>1404.5</ele><time>2026-04-25T14:35:08Z</time></trkpt><trkpt lat="44.68405808222901" lon="9.212551876203033"><ele>1402.0</ele><time>2026-04-25T14:35:09Z</time></trkpt><trkpt lat="44.68400873438006" lon="9.212733374931508"><ele>1399.5</ele><time>2026-04-25T14:35:10Z</time></trkpt><trkpt lat="44.68398431029744" lon="9.212921548007236"><ele>1397.0</ele><time>2026-04-25T14:35:11Z</time></trkpt><trkpt lat="44.68394722539638" lon="9.213099356092979"><ele>1395.0</ele><time>2026-04-25T14:35:12Z</time></trkpt><trkpt lat="44.68391262577397" lon="9.213279979340639"><ele>1393.0</ele><time>2026-04-25T14:35:13Z</time></trkpt><trkpt lat="44.68388294489529" lon="9.213456254442576"><ele>1391.0</ele><time>2026-04-25T14:35:14Z</time></trkpt><trkpt lat="44.68386490833655" lon="9.213620329092555"><ele>1389.0</ele><time>2026-04-25T14:35:15Z</time></trkpt><trkpt lat="44.683866281245706" lon="9.213789569498227"><ele>1389.0</ele><time>2026-04-25T14:35:16Z</time></trkpt><trkpt lat="44.68389364338901" lon="9.213962335337383"><ele>1389.0</ele><time>2026-04-25T14:35:17Z</time></trkpt><trkpt lat="44.68394876035454" lon="9.214139116959444"><ele>1389.0</ele><time>2026-04-25T14:35:18Z</time></trkpt><trkpt lat="44.68400763837234" lon="9.214314345455834"><ele>1389.0</ele><time>2026-04-25T14:35:19Z</time></trkpt><trkpt lat="44.68400530114481" lon="9.214498624352393"><ele>1386.5</ele><time>2026-04-25T14:35:20Z</time></trkpt><trkpt lat="44.68399986551383" lon="9.214682180335274"><ele>1384.0</ele><time>2026-04-25T14:35:21Z</time></trkpt><trkpt lat="44.683995332686116" lon="9.214863300666515"><ele>1381.5</ele><time>2026-04-25T14:35:22Z</time></trkpt><trkpt lat="44.683980774502714" lon="9.215036883183787"><ele>1379.0</ele><time>2026-04-25T14:35:23Z</time></trkpt><trkpt lat="44.68395025016651" lon="9.215209600322718"><ele>1377.25</ele><time>2026-04-25T14:35:24Z</time></trkpt><trkpt lat="44.68390307623958" lon="9.215380192247475"><ele>1375.5</ele><time>2026-04-25T14:35:25Z</time></trkpt><trkpt lat="44.68386362556816" lon="9.215559041019986"><ele>1373.75</ele><time>2026-04-25T14:35:26Z</time></trkpt><trkpt lat="44.6838151502083" lon="9.215701483636556"><ele>1372.0</ele><time>2026-04-25T14:35:27Z</time></trkpt><trkpt lat="44.683781746212276" lon="9.215813172293908"><ele>1372.0</ele><time>2026-04-25T14:35:28Z</time></trkpt><trkpt lat="44.683747670759296" lon="9.215896766052545"><ele>1372.0</ele><time>2026-04-25T14:35:29Z</time></trkpt><trkpt lat="44.68369587044171" lon="9.215996020915945"><ele>1372.0</ele><time>2026-04-25T14:35:31Z</time></trkpt><trkpt lat="44.68365515569382" lon="9.216143378139538"><ele>1372.0</ele><time>2026-04-25T14:35:33.001Z</time></trkpt><trkpt lat="44.68362668151671" lon="9.216257504922913"><ele>1372.0</ele><time>2026-04-25T14:35:34.001Z</time></trkpt><trkpt lat="44.683596930655504" lon="9.216389617001719"><ele>1368.0</ele><time>2026-04-25T14:35:35.001Z</time></trkpt><trkpt lat="44.683580879425485" lon="9.216519487379054"><ele>1364.0</ele><time>2026-04-25T14:35:36.001Z</time></trkpt><trkpt lat="44.68353013953509" lon="9.216651332284195"><ele>1360.0</ele><time>2026-04-25T14:35:37.001Z</time></trkpt><trkpt lat="44.68349324469816" lon="9.216792802921494"><ele>1356.0</ele><time>2026-04-25T14:35:38.001Z</time></trkpt><trkpt lat="44.68347767861929" lon="9.216936750263159"><ele>1352.0</ele><time>2026-04-25T14:35:39.001Z</time></trkpt><trkpt lat="44.6834791107547" lon="9.217087572403099"><ele>1352.0</ele><time>2026-04-25T14:35:40.001Z</time></trkpt><trkpt lat="44.68348103190967" lon="9.217229282931989"><ele>1352.0</ele><time>2026-04-25T14:35:41.001Z</time></trkpt><trkpt lat="44.68348069833161" lon="9.21737111886912"><ele>1352.0</ele><time>2026-04-25T14:35:42.001Z</time></trkpt><trkpt lat="44.68348704445599" lon="9.217515860406037"><ele>1352.0</ele><time>2026-04-25T14:35:43.001Z</time></trkpt><trkpt lat="44.683472237969426" lon="9.217662009857296"><ele>1352.0</ele><time>2026-04-25T14:35:44.001Z</time></trkpt><trkpt lat="44.68344499410637" lon="9.217802844996159"><ele>1351.75</ele><time>2026-04-25T14:35:45.001Z</time></trkpt><trkpt lat="44.68346034714155" lon="9.217963660600269"><ele>1351.5</ele><time>2026-04-25T14:35:46.001Z</time></trkpt><trkpt lat="44.68346897136257" lon="9.218140972218462"><ele>1351.25</ele><time>2026-04-25T14:35:47.001Z</time></trkpt><trkpt lat="44.683460496801395" lon="9.218314807759823"><ele>1351.0</ele><time>2026-04-25T14:35:48.001Z</time></trkpt><trkpt lat="44.68346650925044" lon="9.21848634469717"><ele>1350.75</ele><time>2026-04-25T14:35:49.001Z</time></trkpt><trkpt lat="44.683471288846285" lon="9.21865859072484"><ele>1350.5</ele><time>2026-04-25T14:35:50.001Z</time></trkpt><trkpt lat="44.68347205569499" lon="9.218833305443667"><ele>1350.25</ele><time>2026-04-25T14:35:51.001Z</time></trkpt><trkpt lat="44.68344962938866" lon="9.218996902696686"><ele>1350.0</ele><time>2026-04-25T14:35:52.001Z</time></trkpt><trkpt lat="44.68337370806293" lon="9.219128313127602"><ele>1350.0</ele><time>2026-04-25T14:35:53.001Z</time></trkpt><trkpt lat="44.68330404893937" lon="9.2192778545571"><ele>1350.0</ele><time>2026-04-25T14:35:54.001Z</time></trkpt><trkpt lat="44.68322369918124" lon="9.219405551669656"><ele>1350.0</ele><time>2026-04-25T14:35:55.001Z</time></trkpt><trkpt lat="44.68312645857985" lon="9.219495266468805"><ele>1350.0</ele><time>2026-04-25T14:35:56.001Z</time></trkpt><trkpt lat="44.68305649137299" lon="9.219596545119371"><ele>1350.0</ele><time>2026-04-25T14:35:57.001Z</time></trkpt><trkpt lat="44.68299803680818" lon="9.219671166802323"><ele>1350.0</ele><time>2026-04-25T14:35:58.001Z</time></trkpt><trkpt lat="44.682963125882075" lon="9.21979420377487"><ele>1350.0</ele><time>2026-04-25T14:35:59.001Z</time></trkpt><trkpt lat="44.68293228185252" lon="9.21995259733298"><ele>1350.0</ele><time>2026-04-25T14:36:00.001Z</time></trkpt><trkpt lat="44.6828719881455" lon="9.220106837868483"><ele>1350.0</ele><time>2026-04-25T14:36:01.001Z</time></trkpt><trkpt lat="44.68282700018288" lon="9.220260476693536"><ele>1351.2</ele><time>2026-04-25T14:36:02.001Z</time></trkpt><trkpt lat="44.68279986440962" lon="9.220414614000502"><ele>1352.4</ele><time>2026-04-25T14:36:03.001Z</time></trkpt><trkpt lat="44.68278028583207" lon="9.220565078629996"><ele>1353.6</ele><time>2026-04-25T14:36:04.001Z</time></trkpt><trkpt lat="44.68276784257178" lon="9.220706581310214"><ele>1354.8</ele><time>2026-04-25T14:36:05.001Z</time></trkpt><trkpt lat="44.682702775112624" lon="9.220806195557524"><ele>1356.0</ele><time>2026-04-25T14:36:06.001Z</time></trkpt><trkpt lat="44.68266864406478" lon="9.220920491250096"><ele>1349.1999999999998</ele><time>2026-04-25T14:36:07.001Z</time></trkpt><trkpt lat="44.682650041264345" lon="9.221050095423614"><ele>1342.3999999999999</ele><time>2026-04-25T14:36:08.001Z</time></trkpt><trkpt lat="44.682670803612396" lon="9.221204247771983"><ele>1335.6</ele><time>2026-04-25T14:36:09.001Z</time></trkpt><trkpt lat="44.68265265108025" lon="9.22136758658234"><ele>1328.8</ele><time>2026-04-25T14:36:10.001Z</time></trkpt><trkpt lat="44.682639919013134" lon="9.221539527189957"><ele>1322.0</ele><time>2026-04-25T14:36:11.001Z</time></trkpt><trkpt lat="44.682644002713154" lon="9.221709651292795"><ele>1322.0</ele><time>2026-04-25T14:36:12.001Z</time></trkpt><trkpt lat="44.682595584642186" lon="9.22184613982644"><ele>1322.0</ele><time>2026-04-25T14:36:13.001Z</time></trkpt><trkpt lat="44.68253488564559" lon="9.221953590187683"><ele>1322.0</ele><time>2026-04-25T14:36:14.001Z</time></trkpt><trkpt lat="44.68246042201661" lon="9.222037135283774"><ele>1322.0</ele><time>2026-04-25T14:36:15.001Z</time></trkpt><trkpt lat="44.682367018063914" lon="9.222070786606725"><ele>1322.0</ele><time>2026-04-25T14:36:16.001Z</time></trkpt><trkpt lat="44.68229686960381" lon="9.222142179858999"><ele>1322.0</ele><time>2026-04-25T14:36:17.001Z</time></trkpt><trkpt lat="44.68224946500649" lon="9.222278700963173"><ele>1322.0</ele><time>2026-04-25T14:36:18.001Z</time></trkpt><trkpt lat="44.68217902256091" lon="9.222410063860702"><ele>1322.0</ele><time>2026-04-25T14:36:19.001Z</time></trkpt><trkpt lat="44.68209388863167" lon="9.22252763732196"><ele>1322.0</ele><time>2026-04-25T14:36:20.001Z</time></trkpt><trkpt lat="44.68199991074114" lon="9.222639133158227"><ele>1315.0</ele><time>2026-04-25T14:36:21.001Z</time></trkpt><trkpt lat="44.681923156208576" lon="9.222761758383742"><ele>1308.0</ele><time>2026-04-25T14:36:22.001Z</time></trkpt><trkpt lat="44.68187539671878" lon="9.22291699225528"><ele>1301.0</ele><time>2026-04-25T14:36:23.001Z</time></trkpt><trkpt lat="44.68180475127328" lon="9.223049001886485"><ele>1294.0</ele><time>2026-04-25T14:36:24.001Z</time></trkpt><trkpt lat="44.681697659291295" lon="9.22313213070728"><ele>1299.25</ele><time>2026-04-25T14:36:25.001Z</time></trkpt><trkpt lat="44.681595152960625" lon="9.223220740544232"><ele>1304.5</ele><time>2026-04-25T14:36:26.001Z</time></trkpt><trkpt lat="44.68150934905786" lon="9.223328426814694"><ele>1309.75</ele><time>2026-04-25T14:36:27.001Z</time></trkpt><trkpt lat="44.681422395589024" lon="9.223424464038526"><ele>1315.0</ele><time>2026-04-25T14:36:28.001Z</time></trkpt><trkpt lat="44.681353231749" lon="9.223551899413355"><ele>1315.0</ele><time>2026-04-25T14:36:29.001Z</time></trkpt><trkpt lat="44.681270540988926" lon="9.22367322804505"><ele>1315.0</ele><time>2026-04-25T14:36:30.001Z</time></trkpt><trkpt lat="44.68120088006475" lon="9.223799747752903"><ele>1315.0</ele><time>2026-04-25T14:36:31.001Z</time></trkpt><trkpt lat="44.68111110728498" lon="9.223886856448203"><ele>1315.0</ele><time>2026-04-25T14:36:32.001Z</time></trkpt><trkpt lat="44.68100940621656" lon="9.223952736459204"><ele>1311.4</ele><time>2026-04-25T14:36:33.001Z</time></trkpt><trkpt lat="44.68092577180512" lon="9.224038391941273"><ele>1307.8</ele><time>2026-04-25T14:36:34.001Z</time></trkpt><trkpt lat="44.68085232857268" lon="9.224104865512226"><ele>1304.1999999999998</ele><time>2026-04-25T14:36:35.001Z</time></trkpt><trkpt lat="44.68078783187424" lon="9.224192145190752"><ele>1300.6</ele><time>2026-04-25T14:36:36.001Z</time></trkpt><trkpt lat="44.680729932770205" lon="9.224312651391736"><ele>1297.0</ele><time>2026-04-25T14:36:37.001Z</time></trkpt><trkpt lat="44.68067565321637" lon="9.224465038988521"><ele>1297.0</ele><time>2026-04-25T14:36:38.001Z</time></trkpt><trkpt lat="44.68062859548361" lon="9.22462271448496"><ele>1297.0</ele><time>2026-04-25T14:36:39.001Z</time></trkpt><trkpt lat="44.6805688160679" lon="9.224775670937994"><ele>1297.0</ele><time>2026-04-25T14:36:40.001Z</time></trkpt><trkpt lat="44.68050578073875" lon="9.224922431817351"><ele>1297.0</ele><time>2026-04-25T14:36:41.001Z</time></trkpt><trkpt lat="44.68041815678599" lon="9.22506328030577"><ele>1301.0</ele><time>2026-04-25T14:36:42.001Z</time></trkpt><trkpt lat="44.680314722766624" lon="9.225211222923482"><ele>1305.0</ele><time>2026-04-25T14:36:43.001Z</time></trkpt><trkpt lat="44.68021857129853" lon="9.225370517808694"><ele>1309.0</ele><time>2026-04-25T14:36:44.001Z</time></trkpt><trkpt lat="44.68010522727311" lon="9.22550014248123"><ele>1313.0</ele><time>2026-04-25T14:36:45.001Z</time></trkpt><trkpt lat="44.680015699685434" lon="9.22565647100874"><ele>1305.8000000000002</ele><time>2026-04-25T14:36:46.001Z</time></trkpt><trkpt lat="44.679917427336974" lon="9.225782487798847"><ele>1298.6000000000001</ele><time>2026-04-25T14:36:47.001Z</time></trkpt><trkpt lat="44.679837500826395" lon="9.225887518831541"><ele>1291.4</ele><time>2026-04-25T14:36:48.001Z</time></trkpt><trkpt lat="44.67977372669141" lon="9.225977052402456"><ele>1284.2</ele><time>2026-04-25T14:36:49.001Z</time></trkpt><trkpt lat="44.679732882119204" lon="9.226052098027465"><ele>1277.0</ele><time>2026-04-25T14:36:50.001Z</time></trkpt><trkpt lat="44.67972403611809" lon="9.226221422062821"><ele>1277.0</ele><time>2026-04-25T14:36:52.001Z</time></trkpt><trkpt lat="44.67978152392595" lon="9.226297741533028"><ele>1277.0</ele><time>2026-04-25T14:36:53.001Z</time></trkpt><trkpt lat="44.679875658607955" lon="9.226303120196853"><ele>1277.0</ele><time>2026-04-25T14:36:54.001Z</time></trkpt><trkpt lat="44.67997364417435" lon="9.226301247576144"><ele>1277.0</ele><time>2026-04-25T14:36:55.001Z</time></trkpt><trkpt lat="44.68009962004437" lon="9.226280794218694"><ele>1277.0</ele><time>2026-04-25T14:36:56.001Z</time></trkpt><trkpt lat="44.680233645015505" lon="9.22624719352903"><ele>1280.8333333333335</ele><time>2026-04-25T14:36:57.001Z</time></trkpt><trkpt lat="44.680351284284804" lon="9.226222908042809"><ele>1284.6666666666667</ele><time>2026-04-25T14:36:58.001Z</time></trkpt><trkpt lat="44.6804263191643" lon="9.226157573664986"><ele>1288.5</ele><time>2026-04-25T14:36:59.001Z</time></trkpt><trkpt lat="44.68049831222198" lon="9.226135519562867"><ele>1292.3333333333333</ele><time>2026-04-25T14:37:01.001Z</time></trkpt><trkpt lat="44.68050960601058" lon="9.226267152996343"><ele>1296.1666666666665</ele><time>2026-04-25T14:37:03.001Z</time></trkpt><trkpt lat="44.68044383537033" lon="9.226301808467747"><ele>1300.0</ele><time>2026-04-25T14:37:04.001Z</time></trkpt><trkpt lat="44.680381138218685" lon="9.22633773964508"><ele>1300.0</ele><time>2026-04-25T14:37:05.001Z</time></trkpt><trkpt lat="44.680302520642925" lon="9.226412234696355"><ele>1300.0</ele><time>2026-04-25T14:37:06.001Z</time></trkpt><trkpt lat="44.68019962018742" lon="9.226466787148988"><ele>1300.0</ele><time>2026-04-25T14:37:07.001Z</time></trkpt><trkpt lat="44.68009624443009" lon="9.226522271643752"><ele>1300.0</ele><time>2026-04-25T14:37:08.001Z</time></trkpt><trkpt lat="44.67999253053446" lon="9.226557320101133"><ele>1300.0</ele><time>2026-04-25T14:37:09.001Z</time></trkpt><trkpt lat="44.679886044276984" lon="9.226558958061648"><ele>1290.75</ele><time>2026-04-25T14:37:10.001Z</time></trkpt><trkpt lat="44.679774596756076" lon="9.226538416562917"><ele>1281.5</ele><time>2026-04-25T14:37:11.001Z</time></trkpt><trkpt lat="44.67965806578116" lon="9.226507830409515"><ele>1272.25</ele><time>2026-04-25T14:37:12.001Z</time></trkpt><trkpt lat="44.679540812007815" lon="9.226510902294674"><ele>1263.0</ele><time>2026-04-25T14:37:13.001Z</time></trkpt><trkpt lat="44.679428966047524" lon="9.226547566131812"><ele>1260.8</ele><time>2026-04-25T14:37:14.001Z</time></trkpt><trkpt lat="44.67933286946529" lon="9.226584034349727"><ele>1258.6</ele><time>2026-04-25T14:37:15.001Z</time></trkpt><trkpt lat="44.67925166269699" lon="9.226599388913804"><ele>1256.4</ele><time>2026-04-25T14:37:16.001Z</time></trkpt><trkpt lat="44.67918460716092" lon="9.226581537393855"><ele>1254.2</ele><time>2026-04-25T14:37:17.001Z</time></trkpt><trkpt lat="44.67912757746114" lon="9.226428416026575"><ele>1252.0</ele><time>2026-04-25T14:37:19.001Z</time></trkpt><trkpt lat="44.67916424225722" lon="9.226323402590369"><ele>1252.0</ele><time>2026-04-25T14:37:20.001Z</time></trkpt><trkpt lat="44.67917883211103" lon="9.226193536186335"><ele>1252.0</ele><time>2026-04-25T14:37:21.001Z</time></trkpt><trkpt lat="44.679200601324894" lon="9.226060211491383"><ele>1252.0</ele><time>2026-04-25T14:37:22.001Z</time></trkpt><trkpt lat="44.67921770614267" lon="9.22592212520704"><ele>1252.0</ele><time>2026-04-25T14:37:23.001Z</time></trkpt><trkpt lat="44.67923920801649" lon="9.225790980454121"><ele>1252.0</ele><time>2026-04-25T14:37:24.001Z</time></trkpt><trkpt lat="44.67923377160628" lon="9.225661582444907"><ele>1249.1666666666665</ele><time>2026-04-25T14:37:25.001Z</time></trkpt><trkpt lat="44.679258361275515" lon="9.225544987068496"><ele>1246.3333333333333</ele><time>2026-04-25T14:37:26.001Z</time></trkpt><trkpt lat="44.67930592687329" lon="9.225443288988226"><ele>1243.5</ele><time>2026-04-25T14:37:27.001Z</time></trkpt><trkpt lat="44.67936089508442" lon="9.225351899380287"><ele>1240.6666666666667</ele><time>2026-04-25T14:37:28.001Z</time></trkpt><trkpt lat="44.679406508470954" lon="9.225255661887939"><ele>1237.8333333333335</ele><time>2026-04-25T14:37:29.001Z</time></trkpt><trkpt lat="44.67944408729471" lon="9.225155281972722"><ele>1235.0</ele><time>2026-04-25T14:37:30.001Z</time></trkpt><trkpt lat="44.67947346475329" lon="9.225046306752159"><ele>1238.1666666666667</ele><time>2026-04-25T14:37:31.001Z</time></trkpt><trkpt lat="44.679513765964465" lon="9.224944139367603"><ele>1241.3333333333335</ele><time>2026-04-25T14:37:32.001Z</time></trkpt><trkpt lat="44.67954000938483" lon="9.224833405056755"><ele>1244.5</ele><time>2026-04-25T14:37:33.001Z</time></trkpt><trkpt lat="44.67956082816912" lon="9.224715435444836"><ele>1247.6666666666667</ele><time>2026-04-25T14:37:34.001Z</time></trkpt><trkpt lat="44.67961724001411" lon="9.224609501418518"><ele>1250.8333333333333</ele><time>2026-04-25T14:37:35.001Z</time></trkpt><trkpt lat="44.67968563470205" lon="9.224503980404961"><ele>1254.0</ele><time>2026-04-25T14:37:36.001Z</time></trkpt><trkpt lat="44.679755080281645" lon="9.224392242580654"><ele>1254.0</ele><time>2026-04-25T14:37:37.001Z</time></trkpt><trkpt lat="44.679816848137314" lon="9.224285525161966"><ele>1254.0</ele><time>2026-04-25T14:37:38.001Z</time></trkpt><trkpt lat="44.679873600210165" lon="9.224178000294641"><ele>1254.0</ele><time>2026-04-25T14:37:39.001Z</time></trkpt><trkpt lat="44.67993228717094" lon="9.22409232111909"><ele>1254.0</ele><time>2026-04-25T14:37:40.001Z</time></trkpt><trkpt lat="44.67994604087474" lon="9.223992490056133"><ele>1254.0</ele><time>2026-04-25T14:37:41.001Z</time></trkpt><trkpt lat="44.67992581132108" lon="9.223855179117932"><ele>1254.0</ele><time>2026-04-25T14:37:43.001Z</time></trkpt><trkpt lat="44.679862115051826" lon="9.223827050376206"><ele>1254.0</ele><time>2026-04-25T14:37:44.001Z</time></trkpt><trkpt lat="44.679806156970734" lon="9.223901250669194"><ele>1254.0</ele><time>2026-04-25T14:37:45.001Z</time></trkpt><trkpt lat="44.679743882921365" lon="9.2240423738439"><ele>1254.0</ele><time>2026-04-25T14:37:47.001Z</time></trkpt><trkpt lat="44.67968723978149" lon="9.224112214083478"><ele>1254.0</ele><time>2026-04-25T14:37:48.001Z</time></trkpt><trkpt lat="44.67963370617795" lon="9.22417488794367"><ele>1254.0</ele><time>2026-04-25T14:37:49.001Z</time></trkpt><trkpt lat="44.679554405670736" lon="9.224191379335092"><ele>1254.0</ele><time>2026-04-25T14:37:50.001Z</time></trkpt><trkpt lat="44.67947574143756" lon="9.22419440655574"><ele>1254.0</ele><time>2026-04-25T14:37:51.001Z</time></trkpt><trkpt lat="44.67940155252469" lon="9.224213685465275"><ele>1254.0</ele><time>2026-04-25T14:37:52.001Z</time></trkpt><trkpt lat="44.679341727761866" lon="9.224306714514972"><ele>1254.0</ele><time>2026-04-25T14:37:53.001Z</time></trkpt><trkpt lat="44.67931028094079" lon="9.224438776504956"><ele>1254.0</ele><time>2026-04-25T14:37:54.001Z</time></trkpt><trkpt lat="44.679270733683964" lon="9.224572899997186"><ele>1254.0</ele><time>2026-04-25T14:37:55.001Z</time></trkpt><trkpt lat="44.6792268401201" lon="9.22471069240431"><ele>1250.2</ele><time>2026-04-25T14:37:56.001Z</time></trkpt><trkpt lat="44.67916659868015" lon="9.22484234377661"><ele>1246.4</ele><time>2026-04-25T14:37:57.001Z</time></trkpt><trkpt lat="44.679091381543465" lon="9.22494371929976"><ele>1242.6</ele><time>2026-04-25T14:37:58.001Z</time></trkpt><trkpt lat="44.679013080088254" lon="9.225019251718287"><ele>1238.8</ele><time>2026-04-25T14:37:59.001Z</time></trkpt><trkpt lat="44.67895274314044" lon="9.225087647253845"><ele>1235.0</ele><time>2026-04-25T14:38:00.001Z</time></trkpt><trkpt lat="44.67889929040589" lon="9.225148718579193"><ele>1235.0</ele><time>2026-04-25T14:38:01.001Z</time></trkpt><trkpt lat="44.67887575594077" lon="9.225268547560916"><ele>1235.0</ele><time>2026-04-25T14:38:02.001Z</time></trkpt><trkpt lat="44.678887197926386" lon="9.225420788169906"><ele>1235.0</ele><time>2026-04-25T14:38:03.001Z</time></trkpt><trkpt lat="44.67885262864086" lon="9.225575494769323"><ele>1235.0</ele><time>2026-04-25T14:38:04.001Z</time></trkpt><trkpt lat="44.678836532221005" lon="9.225734053384357"><ele>1235.0</ele><time>2026-04-25T14:38:05.001Z</time></trkpt><trkpt lat="44.67876155574343" lon="9.22586114507421"><ele>1238.4</ele><time>2026-04-25T14:38:06.001Z</time></trkpt><trkpt lat="44.67868216094016" lon="9.225962414022609"><ele>1241.8</ele><time>2026-04-25T14:38:07.001Z</time></trkpt><trkpt lat="44.67859500707009" lon="9.22605889282475"><ele>1245.2</ele><time>2026-04-25T14:38:08.001Z</time></trkpt><trkpt lat="44.67851934046852" lon="9.22616715028264"><ele>1248.6</ele><time>2026-04-25T14:38:09.001Z</time></trkpt><trkpt lat="44.67846830727885" lon="9.22630244512577"><ele>1252.0</ele><time>2026-04-25T14:38:10.001Z</time></trkpt><trkpt lat="44.678414812363705" lon="9.226421719433636"><ele>1247.1666666666665</ele><time>2026-04-25T14:38:11.001Z</time></trkpt><trkpt lat="44.6783597735835" lon="9.226499581817919"><ele>1242.3333333333333</ele><time>2026-04-25T14:38:12.001Z</time></trkpt><trkpt lat="44.6782909876423" lon="9.226564852725682"><ele>1237.5</ele><time>2026-04-25T14:38:14Z</time></trkpt><trkpt lat="44.67823908266078" lon="9.226502646085171"><ele>1232.6666666666667</ele><time>2026-04-25T14:38:16Z</time></trkpt><trkpt lat="44.678312239800405" lon="9.226429469564463"><ele>1227.8333333333335</ele><time>2026-04-25T14:38:18Z</time></trkpt><trkpt lat="44.67838173041739" lon="9.226329874660369"><ele>1223.0</ele><time>2026-04-25T14:38:20Z</time></trkpt><trkpt lat="44.6784330137457" lon="9.226209559135373"><ele>1220.4</ele><time>2026-04-25T14:38:22Z</time></trkpt><trkpt lat="44.67843841326084" lon="9.22606147940661"><ele>1217.8</ele><time>2026-04-25T14:38:24Z</time></trkpt><trkpt lat="44.67844438327089" lon="9.225928833398383"><ele>1215.2</ele><time>2026-04-25T14:38:26Z</time></trkpt><trkpt lat="44.678475477188464" lon="9.225787065715936"><ele>1212.6</ele><time>2026-04-25T14:38:28Z</time></trkpt><trkpt lat="44.678522019559566" lon="9.225638532561234"><ele>1210.0</ele><time>2026-04-25T14:38:30Z</time></trkpt><trkpt lat="44.67856698001881" lon="9.225486548814688"><ele>1207.2</ele><time>2026-04-25T14:38:32Z</time></trkpt><trkpt lat="44.67859987308359" lon="9.225319926135167"><ele>1204.4</ele><time>2026-04-25T14:38:34Z</time></trkpt><trkpt lat="44.67861994821887" lon="9.22521046862606"><ele>1201.6</ele><time>2026-04-25T14:38:35Z</time></trkpt><trkpt lat="44.678633821757145" lon="9.225084656774024"><ele>1198.8</ele><time>2026-04-25T14:38:36Z</time></trkpt><trkpt lat="44.67864390001947" lon="9.224949268690834"><ele>1196.0</ele><time>2026-04-25T14:38:37Z</time></trkpt><trkpt lat="44.6786661750857" lon="9.224823060211767"><ele>1200.6</ele><time>2026-04-25T14:38:38Z</time></trkpt><trkpt lat="44.67870115413384" lon="9.224697079146992"><ele>1205.1999999999998</ele><time>2026-04-25T14:38:39Z</time></trkpt><trkpt lat="44.678753416382605" lon="9.224564694690256"><ele>1209.8000000000002</ele><time>2026-04-25T14:38:40Z</time></trkpt><trkpt lat="44.67881997355407" lon="9.224424606086018"><ele>1214.4</ele><time>2026-04-25T14:38:41Z</time></trkpt><trkpt lat="44.678888194225344" lon="9.224283405474669"><ele>1219.0</ele><time>2026-04-25T14:38:42Z</time></trkpt><trkpt lat="44.67895856182559" lon="9.224146087110874"><ele>1214.4</ele><time>2026-04-25T14:38:43Z</time></trkpt><trkpt lat="44.67898173064542" lon="9.22397528552601"><ele>1209.8000000000002</ele><time>2026-04-25T14:38:44Z</time></trkpt><trkpt lat="44.67901903079762" lon="9.223821106151416"><ele>1205.1999999999998</ele><time>2026-04-25T14:38:45Z</time></trkpt><trkpt lat="44.679066798660486" lon="9.223681850047672"><ele>1200.6</ele><time>2026-04-25T14:38:46Z</time></trkpt><trkpt lat="44.679115731498364" lon="9.22357404443214"><ele>1196.0</ele><time>2026-04-25T14:38:47Z</time></trkpt><trkpt lat="44.679172200567976" lon="9.223487687944484"><ele>1196.0</ele><time>2026-04-25T14:38:48Z</time></trkpt><trkpt lat="44.67924905064801" lon="9.223415096429662"><ele>1196.0</ele><time>2026-04-25T14:38:49Z</time></trkpt><trkpt lat="44.679339437186364" lon="9.223340604418704"><ele>1196.0</ele><time>2026-04-25T14:38:50Z</time></trkpt><trkpt lat="44.67942273919415" lon="9.2232275840937"><ele>1196.0</ele><time>2026-04-25T14:38:51Z</time></trkpt><trkpt lat="44.67951080886516" lon="9.22311856202253"><ele>1196.0</ele><time>2026-04-25T14:38:52Z</time></trkpt><trkpt lat="44.679582540931094" lon="9.222995387763177"><ele>1197.6666666666667</ele><time>2026-04-25T14:38:53Z</time></trkpt><trkpt lat="44.67967390425944" lon="9.222914650557774"><ele>1199.3333333333335</ele><time>2026-04-25T14:38:54Z</time></trkpt><trkpt lat="44.679740907220406" lon="9.222842668001137"><ele>1201.0</ele><time>2026-04-25T14:38:55Z</time></trkpt><trkpt lat="44.679791779241185" lon="9.222779430992635"><ele>1202.6666666666667</ele><time>2026-04-25T14:38:56Z</time></trkpt><trkpt lat="44.67981806626336" lon="9.222682972173342"><ele>1204.3333333333333</ele><time>2026-04-25T14:38:57Z</time></trkpt><trkpt lat="44.67983386899976" lon="9.222580262139894"><ele>1206.0</ele><time>2026-04-25T14:38:58Z</time></trkpt><trkpt lat="44.679830246353426" lon="9.222468691430455"><ele>1206.0</ele><time>2026-04-25T14:38:59Z</time></trkpt><trkpt lat="44.67981374553574" lon="9.222360014096816"><ele>1206.0</ele><time>2026-04-25T14:39:00Z</time></trkpt><trkpt lat="44.67980290526673" lon="9.22226248481387"><ele>1206.0</ele><time>2026-04-25T14:39:01Z</time></trkpt><trkpt lat="44.679801417021174" lon="9.22217265088312"><ele>1206.0</ele><time>2026-04-25T14:39:02Z</time></trkpt><trkpt lat="44.679794283058776" lon="9.22207940943765"><ele>1206.0</ele><time>2026-04-25T14:39:03Z</time></trkpt><trkpt lat="44.679837863920305" lon="9.221998837378493"><ele>1206.0</ele><time>2026-04-25T14:39:04Z</time></trkpt><trkpt lat="44.67986170597289" lon="9.221898793751148"><ele>1206.0</ele><time>2026-04-25T14:39:05Z</time></trkpt><trkpt lat="44.67990332243256" lon="9.221815098068486"><ele>1204.4285714285716</ele><time>2026-04-25T14:39:06Z</time></trkpt><trkpt lat="44.679955198690315" lon="9.221750084111626"><ele>1202.8571428571427</ele><time>2026-04-25T14:39:07Z</time></trkpt><trkpt lat="44.67999013008512" lon="9.221673213924548"><ele>1201.2857142857142</ele><time>2026-04-25T14:39:08Z</time></trkpt><trkpt lat="44.68000769424021" lon="9.221584875901444"><ele>1199.7142857142858</ele><time>2026-04-25T14:39:09Z</time></trkpt><trkpt lat="44.680044422617215" lon="9.221507616216051"><ele>1198.1428571428573</ele><time>2026-04-25T14:39:10Z</time></trkpt><trkpt lat="44.68005456364883" lon="9.221407018820408"><ele>1196.5714285714284</ele><time>2026-04-25T14:39:11Z</time></trkpt><trkpt lat="44.680036865365174" lon="9.221312768830835"><ele>1195.0</ele><time>2026-04-25T14:39:12Z</time></trkpt><trkpt lat="44.6800441553025" lon="9.22121958035482"><ele>1194.5</ele><time>2026-04-25T14:39:13Z</time></trkpt><trkpt lat="44.6800382799316" lon="9.221123947553854"><ele>1194.0</ele><time>2026-04-25T14:39:14Z</time></trkpt><trkpt lat="44.68000217629744" lon="9.221014546076765"><ele>1193.5</ele><time>2026-04-25T14:39:15Z</time></trkpt><trkpt lat="44.679991873813954" lon="9.220884886859059"><ele>1193.0</ele><time>2026-04-25T14:39:16Z</time></trkpt><trkpt lat="44.67998764058157" lon="9.220743307351086"><ele>1192.5</ele><time>2026-04-25T14:39:17Z</time></trkpt><trkpt lat="44.67999267123202" lon="9.220607712027238"><ele>1192.0</ele><time>2026-04-25T14:39:18Z</time></trkpt><trkpt lat="44.6800022142785" lon="9.22048096666653"><ele>1194.4</ele><time>2026-04-25T14:39:19Z</time></trkpt><trkpt lat="44.68001900015626" lon="9.220381751638854"><ele>1196.8000000000002</ele><time>2026-04-25T14:39:20Z</time></trkpt><trkpt lat="44.679901325562355" lon="9.220227219498666"><ele>1199.2</ele><time>2026-04-25T14:39:22Z</time></trkpt><trkpt lat="44.67979941144085" lon="9.220271105022462"><ele>1201.6000000000001</ele><time>2026-04-25T14:39:23Z</time></trkpt><trkpt lat="44.679697288215465" lon="9.22029337487556"><ele>1204.0</ele><time>2026-04-25T14:39:24Z</time></trkpt><trkpt lat="44.679588900505095" lon="9.220275072298888"><ele>1204.0</ele><time>2026-04-25T14:39:25Z</time></trkpt><trkpt lat="44.6794813713809" lon="9.220236582530609"><ele>1204.0</ele><time>2026-04-25T14:39:26Z</time></trkpt><trkpt lat="44.679387730842556" lon="9.220204811628001"><ele>1204.0</ele><time>2026-04-25T14:39:27Z</time></trkpt><trkpt lat="44.67931691385083" lon="9.220195397131759"><ele>1204.0</ele><time>2026-04-25T14:39:28Z</time></trkpt><trkpt lat="44.679253296306584" lon="9.220167159647577"><ele>1204.0</ele><time>2026-04-25T14:39:29Z</time></trkpt><trkpt lat="44.679197265521154" lon="9.220287354033154"><ele>1204.0</ele><time>2026-04-25T14:39:30Z</time></trkpt><trkpt lat="44.67915489478334" lon="9.220363706015213"><ele>1199.3333333333333</ele><time>2026-04-25T14:39:31Z</time></trkpt><trkpt lat="44.679103602772614" lon="9.220428159690767"><ele>1194.6666666666665</ele><time>2026-04-25T14:39:32Z</time></trkpt><trkpt lat="44.67906775689073" lon="9.220520846499863"><ele>1190.0</ele><time>2026-04-25T14:39:33Z</time></trkpt><trkpt lat="44.679039508989895" lon="9.220622610767338"><ele>1185.3333333333333</ele><time>2026-04-25T14:39:34Z</time></trkpt><trkpt lat="44.67902724348941" lon="9.220744688860416"><ele>1180.6666666666667</ele><time>2026-04-25T14:39:35.001Z</time></trkpt><trkpt lat="44.6789661341413" lon="9.220839017108334"><ele>1176.0</ele><time>2026-04-25T14:39:36.001Z</time></trkpt><trkpt lat="44.678900076349585" lon="9.220905327495394"><ele>1175.5</ele><time>2026-04-25T14:39:37.001Z</time></trkpt><trkpt lat="44.678826400373964" lon="9.220952724916945"><ele>1175.0</ele><time>2026-04-25T14:39:38.001Z</time></trkpt><trkpt lat="44.67873924316165" lon="9.22099119107706"><ele>1174.5</ele><time>2026-04-25T14:39:39.001Z</time></trkpt><trkpt lat="44.67866852226719" lon="9.22104317371482"><ele>1174.0</ele><time>2026-04-25T14:39:40.001Z</time></trkpt><trkpt lat="44.67860077418825" lon="9.221088389752655"><ele>1173.5</ele><time>2026-04-25T14:39:41.001Z</time></trkpt><trkpt lat="44.67853233944767" lon="9.221125879957087"><ele>1173.0</ele><time>2026-04-25T14:39:42.001Z</time></trkpt><trkpt lat="44.67848931569979" lon="9.22121807458515"><ele>1171.0</ele><time>2026-04-25T14:39:43.001Z</time></trkpt><trkpt lat="44.67843163988209" lon="9.221283004911912"><ele>1169.0</ele><time>2026-04-25T14:39:44.001Z</time></trkpt><trkpt lat="44.67839910513939" lon="9.221378301835111"><ele>1167.0</ele><time>2026-04-25T14:39:45.001Z</time></trkpt><trkpt lat="44.67837802238601" lon="9.2214851964824"><ele>1165.0</ele><time>2026-04-25T14:39:46.001Z</time></trkpt><trkpt lat="44.67835809830236" lon="9.221593197825985"><ele>1163.0</ele><time>2026-04-25T14:39:47.001Z</time></trkpt><trkpt lat="44.678355153751085" lon="9.221723345335636"><ele>1161.0</ele><time>2026-04-25T14:39:48.001Z</time></trkpt><trkpt lat="44.678324352784976" lon="9.221863803575495"><ele>1161.0</ele><time>2026-04-25T14:39:49.001Z</time></trkpt><trkpt lat="44.678284062204476" lon="9.2220382136189"><ele>1161.0</ele><time>2026-04-25T14:39:50.001Z</time></trkpt><trkpt lat="44.678246183962855" lon="9.222227118307387"><ele>1161.0</ele><time>2026-04-25T14:39:51.001Z</time></trkpt><trkpt lat="44.678209755457935" lon="9.222411554068753"><ele>1161.0</ele><time>2026-04-25T14:39:52.001Z</time></trkpt><trkpt lat="44.67817060304134" lon="9.222604998792821"><ele>1160.25</ele><time>2026-04-25T14:39:53.001Z</time></trkpt><trkpt lat="44.67812716093606" lon="9.222792793535033"><ele>1159.5</ele><time>2026-04-25T14:39:54.001Z</time></trkpt><trkpt lat="44.678081592759746" lon="9.222973036582081"><ele>1158.75</ele><time>2026-04-25T14:39:55.001Z</time></trkpt><trkpt lat="44.67803276908605" lon="9.223159564317228"><ele>1158.0</ele><time>2026-04-25T14:39:56.001Z</time></trkpt><trkpt lat="44.677981500497346" lon="9.223347100695246"><ele>1160.0</ele><time>2026-04-25T14:39:57.001Z</time></trkpt><trkpt lat="44.67791705174483" lon="9.223519253293027"><ele>1162.0</ele><time>2026-04-25T14:39:58.001Z</time></trkpt><trkpt lat="44.67784843122568" lon="9.223687494514486"><ele>1164.0</ele><time>2026-04-25T14:39:59.001Z</time></trkpt><trkpt lat="44.677793242311566" lon="9.223855975031588"><ele>1166.0</ele><time>2026-04-25T14:40:00.001Z</time></trkpt><trkpt lat="44.67772286219899" lon="9.224000277175794"><ele>1161.0</ele><time>2026-04-25T14:40:01.001Z</time></trkpt><trkpt lat="44.67765858608576" lon="9.224140360373385"><ele>1156.0</ele><time>2026-04-25T14:40:02.001Z</time></trkpt><trkpt lat="44.67758719422002" lon="9.224270971367273"><ele>1151.0</ele><time>2026-04-25T14:40:03.001Z</time></trkpt><trkpt lat="44.67753146237443" lon="9.224422418270285"><ele>1146.0</ele><time>2026-04-25T14:40:04.001Z</time></trkpt><trkpt lat="44.67748093036649" lon="9.224570859687736"><ele>1146.0</ele><time>2026-04-25T14:40:05.001Z</time></trkpt><trkpt lat="44.677428642763644" lon="9.224727845752872"><ele>1146.0</ele><time>2026-04-25T14:40:06.001Z</time></trkpt><trkpt lat="44.67737281290782" lon="9.224905168060126"><ele>1146.0</ele><time>2026-04-25T14:40:07.001Z</time></trkpt><trkpt lat="44.67731831907837" lon="9.22509164455847"><ele>1146.0</ele><time>2026-04-25T14:40:08.001Z</time></trkpt><trkpt lat="44.67728074136052" lon="9.225284571124135"><ele>1149.0</ele><time>2026-04-25T14:40:09.001Z</time></trkpt><trkpt lat="44.67722408855668" lon="9.225456579439351"><ele>1152.0</ele><time>2026-04-25T14:40:10.001Z</time></trkpt><trkpt lat="44.67716349160167" lon="9.225619086962357"><ele>1155.0</ele><time>2026-04-25T14:40:11.001Z</time></trkpt><trkpt lat="44.67710250716051" lon="9.225776684698475"><ele>1158.0</ele><time>2026-04-25T14:40:12.001Z</time></trkpt><trkpt lat="44.677047919739074" lon="9.225914891263878"><ele>1161.0</ele><time>2026-04-25T14:40:13.001Z</time></trkpt><trkpt lat="44.676995959437676" lon="9.226026272806024"><ele>1164.0</ele><time>2026-04-25T14:40:14.001Z</time></trkpt><trkpt lat="44.676991181753806" lon="9.226170070536902"><ele>1167.0</ele><time>2026-04-25T14:40:15.001Z</time></trkpt><trkpt lat="44.67697505665857" lon="9.226321007729956"><ele>1170.0</ele><time>2026-04-25T14:40:16.001Z</time></trkpt><trkpt lat="44.67695237156596" lon="9.226480062729303"><ele>1173.0</ele><time>2026-04-25T14:40:17.001Z</time></trkpt><trkpt lat="44.67690971243257" lon="9.226629906616076"><ele>1171.4</ele><time>2026-04-25T14:40:18.001Z</time></trkpt><trkpt lat="44.67689515066242" lon="9.22678186161385"><ele>1169.8</ele><time>2026-04-25T14:40:19Z</time></trkpt><trkpt lat="44.67691306496482" lon="9.22693838616742"><ele>1168.2</ele><time>2026-04-25T14:40:20Z</time></trkpt><trkpt lat="44.67692858163924" lon="9.227096877813382"><ele>1166.6</ele><time>2026-04-25T14:40:21Z</time></trkpt><trkpt lat="44.67694826185046" lon="9.227250851683886"><ele>1165.0</ele><time>2026-04-25T14:40:22Z</time></trkpt><trkpt lat="44.67693710712669" lon="9.22738598203748"><ele>1164.9999999999998</ele><time>2026-04-25T14:40:23Z</time></trkpt><trkpt lat="44.67695098174256" lon="9.227489946665719"><ele>1165.0</ele><time>2026-04-25T14:40:24Z</time></trkpt><trkpt lat="44.676972893736796" lon="9.227578965610403"><ele>1165.0</ele><time>2026-04-25T14:40:25Z</time></trkpt><trkpt lat="44.67703112743344" lon="9.227631110181214"><ele>1165.0</ele><time>2026-04-25T14:40:26Z</time></trkpt><trkpt lat="44.67707423830588" lon="9.227698565260601"><ele>1165.0</ele><time>2026-04-25T14:40:27Z</time></trkpt><trkpt lat="44.67714167148044" lon="9.227743815886527"><ele>1164.9999999999998</ele><time>2026-04-25T14:40:28Z</time></trkpt><trkpt lat="44.67722404222152" lon="9.227771101691772"><ele>1165.0</ele><time>2026-04-25T14:40:29Z</time></trkpt><trkpt lat="44.67731516800899" lon="9.227835657096639"><ele>1165.0</ele><time>2026-04-25T14:40:30Z</time></trkpt><trkpt lat="44.67740807458649" lon="9.227920672472656"><ele>1165.0</ele><time>2026-04-25T14:40:31Z</time></trkpt><trkpt lat="44.67748709038052" lon="9.228023841616793"><ele>1165.0</ele><time>2026-04-25T14:40:32Z</time></trkpt><trkpt lat="44.677594414992285" lon="9.228062121852728"><ele>1165.0</ele><time>2026-04-25T14:40:33Z</time></trkpt><trkpt lat="44.677689466807756" lon="9.228074985701456"><ele>1165.0</ele><time>2026-04-25T14:40:34Z</time></trkpt><trkpt lat="44.6777646125624" lon="9.228128971674106"><ele>1162.6</ele><time>2026-04-25T14:40:35Z</time></trkpt><trkpt lat="44.67780318054535" lon="9.228248621698107"><ele>1160.2</ele><time>2026-04-25T14:40:36Z</time></trkpt><trkpt lat="44.67783824823604" lon="9.228368162467998"><ele>1157.8</ele><time>2026-04-25T14:40:37Z</time></trkpt><trkpt lat="44.67787320875448" lon="9.228496145542914"><ele>1155.4</ele><time>2026-04-25T14:40:38Z</time></trkpt><trkpt lat="44.67792467927762" lon="9.228611404106129"><ele>1153.0</ele><time>2026-04-25T14:40:39Z</time></trkpt><trkpt lat="44.678008608668144" lon="9.2287260741164"><ele>1153.0</ele><time>2026-04-25T14:40:40Z</time></trkpt><trkpt lat="44.67808326181237" lon="9.22882580388919"><ele>1153.0</ele><time>2026-04-25T14:40:41Z</time></trkpt><trkpt lat="44.67814532436997" lon="9.228904855510434"><ele>1153.0</ele><time>2026-04-25T14:40:42Z</time></trkpt><trkpt lat="44.67820256875178" lon="9.228948415011539"><ele>1153.0</ele><time>2026-04-25T14:40:43Z</time></trkpt><trkpt lat="44.67827478024097" lon="9.228923332069032"><ele>1153.0</ele><time>2026-04-25T14:40:44Z</time></trkpt><trkpt lat="44.67834587665332" lon="9.228897472654559"><ele>1153.0</ele><time>2026-04-25T14:40:45Z</time></trkpt><trkpt lat="44.67842724345412" lon="9.228898508089577"><ele>1153.0</ele><time>2026-04-25T14:40:46Z</time></trkpt><trkpt lat="44.678516010398816" lon="9.228890304558753"><ele>1153.0</ele><time>2026-04-25T14:40:47Z</time></trkpt><trkpt lat="44.67860942450488" lon="9.22890651034063"><ele>1153.0</ele><time>2026-04-25T14:40:48Z</time></trkpt><trkpt lat="44.67869890954121" lon="9.228951911514374"><ele>1153.0</ele><time>2026-04-25T14:40:49Z</time></trkpt><trkpt lat="44.67877723909506" lon="9.22902196836562"><ele>1153.0</ele><time>2026-04-25T14:40:50Z</time></trkpt><trkpt lat="44.67884691324767" lon="9.229108118565264"><ele>1146.3333333333333</ele><time>2026-04-25T14:40:51Z</time></trkpt><trkpt lat="44.67890895434084" lon="9.229171602241914"><ele>1139.6666666666665</ele><time>2026-04-25T14:40:52Z</time></trkpt><trkpt lat="44.678977663330556" lon="9.22920541197468"><ele>1133.0</ele><time>2026-04-25T14:40:53Z</time></trkpt><trkpt lat="44.679065964690516" lon="9.22920822848966"><ele>1126.3333333333333</ele><time>2026-04-25T14:40:54Z</time></trkpt><trkpt lat="44.67916550391461" lon="9.229210829899646"><ele>1119.6666666666667</ele><time>2026-04-25T14:40:55Z</time></trkpt><trkpt lat="44.67926835709499" lon="9.229232481765889"><ele>1113.0</ele><time>2026-04-25T14:40:56Z</time></trkpt><trkpt lat="44.67938057835047" lon="9.229250549987698"><ele>1115.0</ele><time>2026-04-25T14:40:57Z</time></trkpt><trkpt lat="44.67948586615787" lon="9.229293694597809"><ele>1117.0</ele><time>2026-04-25T14:40:58Z</time></trkpt><trkpt lat="44.679588468062754" lon="9.229352541892014"><ele>1119.0</ele><time>2026-04-25T14:40:59Z</time></trkpt><trkpt lat="44.67968045342291" lon="9.229414901588394"><ele>1121.0</ele><time>2026-04-25T14:41:00Z</time></trkpt><trkpt lat="44.679761996303974" lon="9.229443447623616"><ele>1123.0</ele><time>2026-04-25T14:41:01Z</time></trkpt><trkpt lat="44.67985650315673" lon="9.229458668951883"><ele>1123.0</ele><time>2026-04-25T14:41:02Z</time></trkpt><trkpt lat="44.679962909556" lon="9.229431193624997"><ele>1123.0</ele><time>2026-04-25T14:41:03Z</time></trkpt><trkpt lat="44.680066162300484" lon="9.229382886064304"><ele>1123.0</ele><time>2026-04-25T14:41:04Z</time></trkpt><trkpt lat="44.68016664588396" lon="9.229372007218641"><ele>1123.0</ele><time>2026-04-25T14:41:05Z</time></trkpt><trkpt lat="44.68026394037708" lon="9.22938594437929"><ele>1123.0</ele><time>2026-04-25T14:41:06Z</time></trkpt><trkpt lat="44.68034515335292" lon="9.229470488096219"><ele>1122.8333333333333</ele><time>2026-04-25T14:41:07Z</time></trkpt><trkpt lat="44.68043589428326" lon="9.22948865159471"><ele>1122.6666666666665</ele><time>2026-04-25T14:41:08Z</time></trkpt><trkpt lat="44.680515853920475" lon="9.229527350166334"><ele>1122.5</ele><time>2026-04-25T14:41:09Z</time></trkpt><trkpt lat="44.680577280806226" lon="9.229578763676198"><ele>1122.3333333333333</ele><time>2026-04-25T14:41:10Z</time></trkpt><trkpt lat="44.68058879723373" lon="9.22974789903101"><ele>1122.1666666666667</ele><time>2026-04-25T14:41:12Z</time></trkpt><trkpt lat="44.68055217617563" lon="9.229842561701059"><ele>1122.0</ele><time>2026-04-25T14:41:13Z</time></trkpt><trkpt lat="44.68051415939586" lon="9.229962727055113"><ele>1122.0</ele><time>2026-04-25T14:41:14Z</time></trkpt><trkpt lat="44.68047005074744" lon="9.23011116464121"><ele>1122.0</ele><time>2026-04-25T14:41:15Z</time></trkpt><trkpt lat="44.68044490455479" lon="9.230288958277958"><ele>1122.0</ele><time>2026-04-25T14:41:16Z</time></trkpt><trkpt lat="44.6803925845034" lon="9.230443740402364"><ele>1122.0</ele><time>2026-04-25T14:41:17Z</time></trkpt><trkpt lat="44.680311744950785" lon="9.230542189367634"><ele>1123.5</ele><time>2026-04-25T14:41:18Z</time></trkpt><trkpt lat="44.68023222359901" lon="9.23061022116088"><ele>1125.0</ele><time>2026-04-25T14:41:19Z</time></trkpt><trkpt lat="44.680174104195814" lon="9.230689514597884"><ele>1126.5</ele><time>2026-04-25T14:41:20Z</time></trkpt><trkpt lat="44.68013756961658" lon="9.230784461748074"><ele>1128.0</ele><time>2026-04-25T14:41:21Z</time></trkpt><trkpt lat="44.68014477421217" lon="9.23088296286555"><ele>1129.5</ele><time>2026-04-25T14:41:22Z</time></trkpt><trkpt lat="44.68020610322152" lon="9.231022375075119"><ele>1131.0</ele><time>2026-04-25T14:41:24Z</time></trkpt><trkpt lat="44.68027516134002" lon="9.231089651408578"><ele>1131.0</ele><time>2026-04-25T14:41:25Z</time></trkpt><trkpt lat="44.68031222232248" lon="9.231188406664408"><ele>1131.0</ele><time>2026-04-25T14:41:26Z</time></trkpt><trkpt lat="44.68033252998696" lon="9.231273116625886"><ele>1131.0</ele><time>2026-04-25T14:41:27Z</time></trkpt><trkpt lat="44.680327366606285" lon="9.231363096132892"><ele>1131.0</ele><time>2026-04-25T14:41:28Z</time></trkpt><trkpt lat="44.68029868079658" lon="9.231469941883034"><ele>1131.0</ele><time>2026-04-25T14:41:29Z</time></trkpt><trkpt lat="44.68025555560258" lon="9.231589844434161"><ele>1131.0</ele><time>2026-04-25T14:41:30Z</time></trkpt><trkpt lat="44.68019294153623" lon="9.231714207315434"><ele>1122.0</ele><time>2026-04-25T14:41:31Z</time></trkpt><trkpt lat="44.68011751163929" lon="9.231836216429453"><ele>1113.0</ele><time>2026-04-25T14:41:32Z</time></trkpt><trkpt lat="44.6800493317135" lon="9.231960820174304"><ele>1104.0</ele><time>2026-04-25T14:41:33Z</time></trkpt><trkpt lat="44.67992933801335" lon="9.232028399842246"><ele>1095.0</ele><time>2026-04-25T14:41:34Z</time></trkpt><trkpt lat="44.679814541873384" lon="9.232124460653141"><ele>1095.0</ele><time>2026-04-25T14:41:35Z</time></trkpt><trkpt lat="44.67971389575804" lon="9.23219638462112"><ele>1095.0</ele><time>2026-04-25T14:41:36Z</time></trkpt><trkpt lat="44.67964473610368" lon="9.232265958567345"><ele>1095.0</ele><time>2026-04-25T14:41:37Z</time></trkpt><trkpt lat="44.67958801962005" lon="9.232358379723859"><ele>1095.0</ele><time>2026-04-25T14:41:38Z</time></trkpt><trkpt lat="44.67952930984565" lon="9.23246473124968"><ele>1095.0</ele><time>2026-04-25T14:41:39Z</time></trkpt><trkpt lat="44.679474415458415" lon="9.232567557476521"><ele>1094.0</ele><time>2026-04-25T14:41:40Z</time></trkpt><trkpt lat="44.679398459965924" lon="9.232643514039763"><ele>1093.0</ele><time>2026-04-25T14:41:41Z</time></trkpt><trkpt lat="44.679285610106184" lon="9.232668905346525"><ele>1092.0</ele><time>2026-04-25T14:41:42Z</time></trkpt><trkpt lat="44.67917252881972" lon="9.232694222567114"><ele>1091.0</ele><time>2026-04-25T14:41:43Z</time></trkpt><trkpt lat="44.67906556870359" lon="9.232717387722017"><ele>1090.0</ele><time>2026-04-25T14:41:44Z</time></trkpt><trkpt lat="44.678958740196904" lon="9.232802870223262"><ele>1090.0</ele><time>2026-04-25T14:41:45Z</time></trkpt><trkpt lat="44.678843929512524" lon="9.232897031328385"><ele>1090.0</ele><time>2026-04-25T14:41:46Z</time></trkpt><trkpt lat="44.6787333498999" lon="9.232989004754536"><ele>1090.0</ele><time>2026-04-25T14:41:47Z</time></trkpt><trkpt lat="44.67862631822278" lon="9.233050537800843"><ele>1090.0</ele><time>2026-04-25T14:41:48Z</time></trkpt><trkpt lat="44.67852875761303" lon="9.233084842567465"><ele>1090.8</ele><time>2026-04-25T14:41:49Z</time></trkpt><trkpt lat="44.678465626946945" lon="9.233118595589627"><ele>1091.6</ele><time>2026-04-25T14:41:50Z</time></trkpt><trkpt lat="44.678384604883284" lon="9.233261430745731"><ele>1092.4</ele><time>2026-04-25T14:41:52Z</time></trkpt><trkpt lat="44.678365300785394" lon="9.233367262806954"><ele>1093.2</ele><time>2026-04-25T14:41:53Z</time></trkpt><trkpt lat="44.678370020409055" lon="9.233487702646098"><ele>1094.0</ele><time>2026-04-25T14:41:54Z</time></trkpt><trkpt lat="44.67837030677188" lon="9.233619790566143"><ele>1094.0</ele><time>2026-04-25T14:41:55Z</time></trkpt><trkpt lat="44.678310883329836" lon="9.23375012584594"><ele>1094.0</ele><time>2026-04-25T14:41:56Z</time></trkpt><trkpt lat="44.678259039031566" lon="9.233920179542942"><ele>1094.0</ele><time>2026-04-25T14:41:57Z</time></trkpt><trkpt lat="44.67819811778409" lon="9.234067374804818"><ele>1094.0</ele><time>2026-04-25T14:41:58Z</time></trkpt><trkpt lat="44.67811646694578" lon="9.234192258333962"><ele>1096.2</ele><time>2026-04-25T14:42:00Z</time></trkpt><trkpt lat="44.67804019570955" lon="9.234266217813285"><ele>1098.4</ele><time>2026-04-25T14:42:01Z</time></trkpt><trkpt lat="44.67793235347241" lon="9.234324936629667"><ele>1100.6</ele><time>2026-04-25T14:42:02Z</time></trkpt><trkpt lat="44.677818829900694" lon="9.234364942849426"><ele>1102.8</ele><time>2026-04-25T14:42:03Z</time></trkpt><trkpt lat="44.67771379870866" lon="9.234392003887638"><ele>1105.0</ele><time>2026-04-25T14:42:04Z</time></trkpt><trkpt lat="44.677612633269646" lon="9.23439927147792"><ele>1105.0</ele><time>2026-04-25T14:42:05Z</time></trkpt><trkpt lat="44.67750956296579" lon="9.234371593297"><ele>1105.0</ele><time>2026-04-25T14:42:06Z</time></trkpt><trkpt lat="44.67742223848631" lon="9.234325077171302"><ele>1105.0</ele><time>2026-04-25T14:42:07Z</time></trkpt><trkpt lat="44.6773511648533" lon="9.234244534229024"><ele>1105.0</ele><time>2026-04-25T14:42:08Z</time></trkpt><trkpt lat="44.6773096477393" lon="9.23412590641125"><ele>1105.0</ele><time>2026-04-25T14:42:09Z</time></trkpt><trkpt lat="44.6772393630254" lon="9.234000261404104"><ele>1098.0</ele><time>2026-04-25T14:42:10Z</time></trkpt><trkpt lat="44.677146214122565" lon="9.233904144203535"><ele>1091.0</ele><time>2026-04-25T14:42:11Z</time></trkpt><trkpt lat="44.677084473589176" lon="9.233829384997708"><ele>1084.0</ele><time>2026-04-25T14:42:12Z</time></trkpt><trkpt lat="44.677024551792606" lon="9.233801672867394"><ele>1077.0</ele><time>2026-04-25T14:42:13Z</time></trkpt><trkpt lat="44.67691947820917" lon="9.23386223079282"><ele>1070.0</ele><time>2026-04-25T14:42:15Z</time></trkpt><trkpt lat="44.6768709938663" lon="9.233944702575727"><ele>1076.5</ele><time>2026-04-25T14:42:16Z</time></trkpt><trkpt lat="44.67681971495808" lon="9.234061839581534"><ele>1083.0</ele><time>2026-04-25T14:42:17Z</time></trkpt><trkpt lat="44.676758396647735" lon="9.234220042930074"><ele>1089.5</ele><time>2026-04-25T14:42:18Z</time></trkpt><trkpt lat="44.676683364125914" lon="9.234364573431261"><ele>1096.0</ele><time>2026-04-25T14:42:19Z</time></trkpt><trkpt lat="44.67658204258857" lon="9.234441859777684"><ele>1096.0</ele><time>2026-04-25T14:42:20Z</time></trkpt><trkpt lat="44.67645943798417" lon="9.23448666456032"><ele>1096.0</ele><time>2026-04-25T14:42:21Z</time></trkpt><trkpt lat="44.67635885243806" lon="9.234594394127749"><ele>1096.0</ele><time>2026-04-25T14:42:22Z</time></trkpt><trkpt lat="44.67625039325328" lon="9.234697954014692"><ele>1096.0</ele><time>2026-04-25T14:42:23Z</time></trkpt><trkpt lat="44.67614946609258" lon="9.234806201018296"><ele>1094.5</ele><time>2026-04-25T14:42:24Z</time></trkpt><trkpt lat="44.67605161201377" lon="9.234903595655185"><ele>1093.0</ele><time>2026-04-25T14:42:25Z</time></trkpt><trkpt lat="44.675958106101454" lon="9.234998538022925"><ele>1091.5</ele><time>2026-04-25T14:42:26Z</time></trkpt><trkpt lat="44.675864168808054" lon="9.235087750988255"><ele>1090.0</ele><time>2026-04-25T14:42:27Z</time></trkpt><trkpt lat="44.67576995732495" lon="9.235151854577277"><ele>1090.0</ele><time>2026-04-25T14:42:28Z</time></trkpt><trkpt lat="44.67570898250865" lon="9.23520279055073"><ele>1090.0</ele><time>2026-04-25T14:42:29Z</time></trkpt><trkpt lat="44.67567032622519" lon="9.235287198632822"><ele>1090.0</ele><time>2026-04-25T14:42:30Z</time></trkpt><trkpt lat="44.675632726553474" lon="9.235393792094353"><ele>1090.0</ele><time>2026-04-25T14:42:31Z</time></trkpt><trkpt lat="44.67558190844242" lon="9.235509833712895"><ele>1090.0</ele><time>2026-04-25T14:42:32Z</time></trkpt><trkpt lat="44.67550838457341" lon="9.235568376752004"><ele>1090.0</ele><time>2026-04-25T14:42:33Z</time></trkpt><trkpt lat="44.675410510816725" lon="9.235550265413094"><ele>1090.0</ele><time>2026-04-25T14:42:34Z</time></trkpt><trkpt lat="44.675341639311995" lon="9.235592043507546"><ele>1090.0</ele><time>2026-04-25T14:42:35Z</time></trkpt><trkpt lat="44.67529129467742" lon="9.235650707155262"><ele>1090.0</ele><time>2026-04-25T14:42:36Z</time></trkpt><trkpt lat="44.675253327224056" lon="9.235745768373233"><ele>1090.0</ele><time>2026-04-25T14:42:37Z</time></trkpt><trkpt lat="44.67521966048399" lon="9.235875651526234"><ele>1090.0</ele><time>2026-04-25T14:42:38Z</time></trkpt><trkpt lat="44.67517842828392" lon="9.236025483598107"><ele>1090.0</ele><time>2026-04-25T14:42:39Z</time></trkpt><trkpt lat="44.6751387658511" lon="9.236172554330896"><ele>1090.8</ele><time>2026-04-25T14:42:40Z</time></trkpt><trkpt lat="44.67508826488859" lon="9.236299287086311"><ele>1091.6</ele><time>2026-04-25T14:42:41Z</time></trkpt><trkpt lat="44.67499977593846" lon="9.236370741435719"><ele>1092.4</ele><time>2026-04-25T14:42:42Z</time></trkpt><trkpt lat="44.67494032460431" lon="9.236470849587054"><ele>1093.2</ele><time>2026-04-25T14:42:43Z</time></trkpt><trkpt lat="44.67489098691875" lon="9.23655240300247"><ele>1094.0</ele><time>2026-04-25T14:42:44Z</time></trkpt><trkpt lat="44.67486751299387" lon="9.236664159238833"><ele>1094.0</ele><time>2026-04-25T14:42:45Z</time></trkpt><trkpt lat="44.67485967192731" lon="9.236787593725376"><ele>1094.0</ele><time>2026-04-25T14:42:46Z</time></trkpt><trkpt lat="44.67480324727844" lon="9.236873822448436"><ele>1094.0</ele><time>2026-04-25T14:42:47Z</time></trkpt><trkpt lat="44.674749923306" lon="9.236950797238807"><ele>1094.0</ele><time>2026-04-25T14:42:48Z</time></trkpt><trkpt lat="44.67465919550681" lon="9.236981447899892"><ele>1094.0</ele><time>2026-04-25T14:42:49Z</time></trkpt><trkpt lat="44.674572226270904" lon="9.23697523503689"><ele>1094.0</ele><time>2026-04-25T14:42:50Z</time></trkpt><trkpt lat="44.6744945572727" lon="9.236928848512514"><ele>1087.8333333333335</ele><time>2026-04-25T14:42:51Z</time></trkpt><trkpt lat="44.67441545069731" lon="9.236894218793404"><ele>1081.6666666666667</ele><time>2026-04-25T14:42:52Z</time></trkpt><trkpt lat="44.67434146125459" lon="9.236905126826759"><ele>1075.5</ele><time>2026-04-25T14:42:53Z</time></trkpt><trkpt lat="44.674283543443664" lon="9.236939885297001"><ele>1069.3333333333333</ele><time>2026-04-25T14:42:54Z</time></trkpt><trkpt lat="44.67421147517637" lon="9.237062740264534"><ele>1063.1666666666665</ele><time>2026-04-25T14:42:56Z</time></trkpt><trkpt lat="44.674186784803666" lon="9.237163509571147"><ele>1057.0</ele><time>2026-04-25T14:42:57Z</time></trkpt><trkpt lat="44.67416318176411" lon="9.237282310980659"><ele>1062.2</ele><time>2026-04-25T14:42:58Z</time></trkpt><trkpt lat="44.6741249993094" lon="9.23740759965797"><ele>1067.4</ele><time>2026-04-25T14:42:59Z</time></trkpt><trkpt lat="44.67410001845267" lon="9.237535552069923"><ele>1072.6</ele><time>2026-04-25T14:43:00Z</time></trkpt><trkpt lat="44.67409268342822" lon="9.237658458605223"><ele>1077.8</ele><time>2026-04-25T14:43:01Z</time></trkpt><trkpt lat="44.67407398448484" lon="9.237746360873434"><ele>1083.0</ele><time>2026-04-25T14:43:02Z</time></trkpt><trkpt lat="44.67395091596412" lon="9.237771603783221"><ele>1083.0</ele><time>2026-04-25T14:43:04Z</time></trkpt><trkpt lat="44.673876291760884" lon="9.23780494341678"><ele>1083.0</ele><time>2026-04-25T14:43:05Z</time></trkpt><trkpt lat="44.67378223264038" lon="9.23786436042241"><ele>1083.0</ele><time>2026-04-25T14:43:06Z</time></trkpt><trkpt lat="44.67368726756232" lon="9.23796557306106"><ele>1083.0</ele><time>2026-04-25T14:43:07Z</time></trkpt><trkpt lat="44.67358974389892" lon="9.238076571732943"><ele>1083.0</ele><time>2026-04-25T14:43:08Z</time></trkpt><trkpt lat="44.67350277830029" lon="9.238181785105395"><ele>1082.2</ele><time>2026-04-25T14:43:09Z</time></trkpt><trkpt lat="44.673415565741855" lon="9.238280509969883"><ele>1081.4</ele><time>2026-04-25T14:43:10Z</time></trkpt><trkpt lat="44.673306296392205" lon="9.23834420639021"><ele>1080.6000000000001</ele><time>2026-04-25T14:43:11Z</time></trkpt><trkpt lat="44.673191988997864" lon="9.238375183376492"><ele>1079.8</ele><time>2026-04-25T14:43:12Z</time></trkpt><trkpt lat="44.67309179224939" lon="9.238393799906165"><ele>1079.0</ele><time>2026-04-25T14:43:13Z</time></trkpt><trkpt lat="44.67300625543627" lon="9.238454197935004"><ele>1079.0</ele><time>2026-04-25T14:43:15.001Z</time></trkpt><trkpt lat="44.672984502976696" lon="9.23860936769083"><ele>1079.0</ele><time>2026-04-25T14:43:17.001Z</time></trkpt><trkpt lat="44.67293702863612" lon="9.238729926211915"><ele>1079.0</ele><time>2026-04-25T14:43:18.001Z</time></trkpt><trkpt lat="44.672860311676814" lon="9.238832807037982"><ele>1079.0</ele><time>2026-04-25T14:43:19.001Z</time></trkpt><trkpt lat="44.672769272982734" lon="9.238930907079311"><ele>1079.0</ele><time>2026-04-25T14:43:20.001Z</time></trkpt><trkpt lat="44.67269563462092" lon="9.23901986277725"><ele>1075.6666666666667</ele><time>2026-04-25T14:43:21.001Z</time></trkpt><trkpt lat="44.672630689337765" lon="9.239153229810176"><ele>1072.3333333333335</ele><time>2026-04-25T14:43:23.001Z</time></trkpt><trkpt lat="44.67265516427311" lon="9.239253659736587"><ele>1069.0</ele><time>2026-04-25T14:43:24.001Z</time></trkpt><trkpt lat="44.672643020788904" lon="9.239360646717321"><ele>1065.6666666666667</ele><time>2026-04-25T14:43:25.001Z</time></trkpt><trkpt lat="44.672643874904715" lon="9.239460584871608"><ele>1062.3333333333333</ele><time>2026-04-25T14:43:26.001Z</time></trkpt><trkpt lat="44.672649424146115" lon="9.239560758949247"><ele>1059.0</ele><time>2026-04-25T14:43:27.001Z</time></trkpt><trkpt lat="44.67260241290473" lon="9.239637600466224"><ele>1059.0</ele><time>2026-04-25T14:43:28.001Z</time></trkpt><trkpt lat="44.67258754641489" lon="9.239766595477633"><ele>1059.0</ele><time>2026-04-25T14:43:30.001Z</time></trkpt><trkpt lat="44.67238755456446" lon="9.239800103611728"><ele>1059.0</ele><time>2026-04-25T14:43:31.001Z</time></trkpt><trkpt lat="44.67232561717498" lon="9.239895555442398"><ele>1059.0</ele><time>2026-04-25T14:43:32.001Z</time></trkpt><trkpt lat="44.67226989554718" lon="9.240009650080857"><ele>1060.4</ele><time>2026-04-25T14:43:33.001Z</time></trkpt><trkpt lat="44.672203191012166" lon="9.240100598896651"><ele>1061.8000000000002</ele><time>2026-04-25T14:43:34.001Z</time></trkpt><trkpt lat="44.67211636033313" lon="9.240186011930932"><ele>1063.1999999999998</ele><time>2026-04-25T14:43:35.001Z</time></trkpt><trkpt lat="44.6720194712812" lon="9.240237676408746"><ele>1064.6</ele><time>2026-04-25T14:43:36.001Z</time></trkpt><trkpt lat="44.67190789413646" lon="9.240258278122733"><ele>1066.0</ele><time>2026-04-25T14:43:37.001Z</time></trkpt><trkpt lat="44.67179728681755" lon="9.240264044183062"><ele>1066.0</ele><time>2026-04-25T14:43:38.001Z</time></trkpt><trkpt lat="44.6716944471319" lon="9.240246968701252"><ele>1066.0</ele><time>2026-04-25T14:43:39.001Z</time></trkpt><trkpt lat="44.671604844199734" lon="9.24021407430385"><ele>1066.0</ele><time>2026-04-25T14:43:40.001Z</time></trkpt><trkpt lat="44.67153041424809" lon="9.240171712497569"><ele>1066.0</ele><time>2026-04-25T14:43:41.001Z</time></trkpt><trkpt lat="44.67146482849315" lon="9.240168300904"><ele>1066.0</ele><time>2026-04-25T14:43:42.001Z</time></trkpt><trkpt lat="44.67140002293739" lon="9.24020534746744"><ele>1066.0</ele><time>2026-04-25T14:43:43.001Z</time></trkpt><trkpt lat="44.67133514120985" lon="9.240261815155069"><ele>1066.0</ele><time>2026-04-25T14:43:44.001Z</time></trkpt><trkpt lat="44.67125960363666" lon="9.240268352784751"><ele>1066.0</ele><time>2026-04-25T14:43:45.001Z</time></trkpt><trkpt lat="44.67118220093397" lon="9.24022044441503"><ele>1066.0</ele><time>2026-04-25T14:43:46.001Z</time></trkpt><trkpt lat="44.6711211781725" lon="9.240131364966913"><ele>1066.0</ele><time>2026-04-25T14:43:47.001Z</time></trkpt><trkpt lat="44.67107135274696" lon="9.240038664989667"><ele>1066.0</ele><time>2026-04-25T14:43:48.001Z</time></trkpt><trkpt lat="44.671011329226694" lon="9.23998746353692"><ele>1066.0</ele><time>2026-04-25T14:43:49.001Z</time></trkpt><trkpt lat="44.67092607714896" lon="9.239964337625953"><ele>1066.3333333333333</ele><time>2026-04-25T14:43:50.001Z</time></trkpt><trkpt lat="44.67083322169861" lon="9.239957038919432"><ele>1066.6666666666665</ele><time>2026-04-25T14:43:51.001Z</time></trkpt><trkpt lat="44.67075076975942" lon="9.239917174153225"><ele>1067.0</ele><time>2026-04-25T14:43:52.001Z</time></trkpt><trkpt lat="44.67068664018617" lon="9.23984075426356"><ele>1067.3333333333333</ele><time>2026-04-25T14:43:53.001Z</time></trkpt><trkpt lat="44.67063073198793" lon="9.239744606379263"><ele>1067.6666666666667</ele><time>2026-04-25T14:43:54.001Z</time></trkpt><trkpt lat="44.670587572188765" lon="9.239637129487205"><ele>1068.0</ele><time>2026-04-25T14:43:55.001Z</time></trkpt><trkpt lat="44.6705522006735" lon="9.239557501447687"><ele>1064.5</ele><time>2026-04-25T14:43:56.001Z</time></trkpt><trkpt lat="44.670459322528984" lon="9.23951099732671"><ele>1061.0</ele><time>2026-04-25T14:43:58.001Z</time></trkpt><trkpt lat="44.6703992953472" lon="9.239540689106983"><ele>1057.5</ele><time>2026-04-25T14:43:59.001Z</time></trkpt><trkpt lat="44.6703380179461" lon="9.23959474079531"><ele>1054.0</ele><time>2026-04-25T14:44:00.001Z</time></trkpt><trkpt lat="44.670277054321666" lon="9.239666992218252"><ele>1050.5</ele><time>2026-04-25T14:44:01.001Z</time></trkpt><trkpt lat="44.67021651026364" lon="9.239740678584246"><ele>1047.0</ele><time>2026-04-25T14:44:02.001Z</time></trkpt><trkpt lat="44.67015223344603" lon="9.239825239344134"><ele>1047.0</ele><time>2026-04-25T14:44:03.001Z</time></trkpt><trkpt lat="44.67009147684694" lon="9.23992493253601"><ele>1047.0</ele><time>2026-04-25T14:44:04.001Z</time></trkpt><trkpt lat="44.67002937301969" lon="9.240027288134474"><ele>1047.0</ele><time>2026-04-25T14:44:05.001Z</time></trkpt><trkpt lat="44.66996975300185" lon="9.240137673186744"><ele>1047.0</ele><time>2026-04-25T14:44:06.001Z</time></trkpt><trkpt lat="44.66990505037538" lon="9.240241073207875"><ele>1047.0</ele><time>2026-04-25T14:44:07.001Z</time></trkpt><trkpt lat="44.66984072097055" lon="9.240332067396091"><ele>1047.0</ele><time>2026-04-25T14:44:08.001Z</time></trkpt><trkpt lat="44.66977885256125" lon="9.240420033205528"><ele>1047.0</ele><time>2026-04-25T14:44:09.001Z</time></trkpt><trkpt lat="44.669727922460396" lon="9.24050785522765"><ele>1047.0</ele><time>2026-04-25T14:44:10.001Z</time></trkpt><trkpt lat="44.66967839985589" lon="9.240595158164085"><ele>1047.0</ele><time>2026-04-25T14:44:11.001Z</time></trkpt><trkpt lat="44.66962386139454" lon="9.240670588872748"><ele>1047.0</ele><time>2026-04-25T14:44:12.001Z</time></trkpt><trkpt lat="44.66955055438144" lon="9.24071849241689"><ele>1047.0</ele><time>2026-04-25T14:44:13.001Z</time></trkpt><trkpt lat="44.66946919932193" lon="9.240736399138944"><ele>1048.6</ele><time>2026-04-25T14:44:14.001Z</time></trkpt><trkpt lat="44.669385222735556" lon="9.240741853226808"><ele>1050.2</ele><time>2026-04-25T14:44:15.001Z</time></trkpt><trkpt lat="44.669315347294855" lon="9.240759123178162"><ele>1051.8</ele><time>2026-04-25T14:44:16.001Z</time></trkpt><trkpt lat="44.66921277144215" lon="9.240888793559936"><ele>1053.4</ele><time>2026-04-25T14:44:18.001Z</time></trkpt><trkpt lat="44.66914716928559" lon="9.240949327385405"><ele>1055.0</ele><time>2026-04-25T14:44:19.001Z</time></trkpt><trkpt lat="44.66906160197034" lon="9.240978855265531"><ele>1055.0</ele><time>2026-04-25T14:44:20.001Z</time></trkpt><trkpt lat="44.668968862054676" lon="9.240984710489334"><ele>1055.0</ele><time>2026-04-25T14:44:21.001Z</time></trkpt><trkpt lat="44.66887663091679" lon="9.240989821930343"><ele>1055.0</ele><time>2026-04-25T14:44:22.001Z</time></trkpt><trkpt lat="44.66878702418251" lon="9.241002591102069"><ele>1055.0</ele><time>2026-04-25T14:44:23.001Z</time></trkpt><trkpt lat="44.668697663903686" lon="9.241012004537469"><ele>1055.0</ele><time>2026-04-25T14:44:24.001Z</time></trkpt><trkpt lat="44.6686141467339" lon="9.241010799595523"><ele>1055.0</ele><time>2026-04-25T14:44:25.001Z</time></trkpt><trkpt lat="44.6685370585258" lon="9.241007156752666"><ele>1057.6666666666667</ele><time>2026-04-25T14:44:26.001Z</time></trkpt><trkpt lat="44.66844189294528" lon="9.241032668024314"><ele>1060.3333333333335</ele><time>2026-04-25T14:44:28.001Z</time></trkpt><trkpt lat="44.66838277781679" lon="9.241161746057578"><ele>1063.0</ele><time>2026-04-25T14:44:30.001Z</time></trkpt><trkpt lat="44.66834865188875" lon="9.24126187594465"><ele>1065.6666666666667</ele><time>2026-04-25T14:44:31.001Z</time></trkpt><trkpt lat="44.66830661556575" lon="9.241359279402715"><ele>1068.3333333333333</ele><time>2026-04-25T14:44:32.001Z</time></trkpt><trkpt lat="44.668250850147636" lon="9.241445721792525"><ele>1071.0</ele><time>2026-04-25T14:44:33.001Z</time></trkpt><trkpt lat="44.66816851931167" lon="9.241504937958954"><ele>1071.0</ele><time>2026-04-25T14:44:34.001Z</time></trkpt><trkpt lat="44.668071144935986" lon="9.24155200608033"><ele>1071.0</ele><time>2026-04-25T14:44:35.001Z</time></trkpt><trkpt lat="44.667960197461134" lon="9.241581543382106"><ele>1071.0</ele><time>2026-04-25T14:44:36.001Z</time></trkpt><trkpt lat="44.66784710669207" lon="9.241609699556625"><ele>1071.0</ele><time>2026-04-25T14:44:37.001Z</time></trkpt><trkpt lat="44.66774030587993" lon="9.241656847700861"><ele>1071.0</ele><time>2026-04-25T14:44:38.001Z</time></trkpt><trkpt lat="44.6676406029266" lon="9.241689101943436"><ele>1065.0</ele><time>2026-04-25T14:44:39.001Z</time></trkpt><trkpt lat="44.667556593580045" lon="9.241716696245325"><ele>1059.0</ele><time>2026-04-25T14:44:40.001Z</time></trkpt><trkpt lat="44.6674796974883" lon="9.24174519666436"><ele>1053.0</ele><time>2026-04-25T14:44:41.001Z</time></trkpt><trkpt lat="44.667404452685446" lon="9.241794003279711"><ele>1047.0</ele><time>2026-04-25T14:44:42.001Z</time></trkpt><trkpt lat="44.66733910263518" lon="9.241858793291318"><ele>1041.0</ele><time>2026-04-25T14:44:43.001Z</time></trkpt><trkpt lat="44.6672845661163" lon="9.2419224616966"><ele>1035.0</ele><time>2026-04-25T14:44:44.001Z</time></trkpt><trkpt lat="44.66723418133328" lon="9.24198998800961"><ele>1035.0</ele><time>2026-04-25T14:44:45.001Z</time></trkpt><trkpt lat="44.667196525753965" lon="9.242072564993618"><ele>1035.0</ele><time>2026-04-25T14:44:46.001Z</time></trkpt><trkpt lat="44.6671747562" lon="9.242160795515174"><ele>1035.0</ele><time>2026-04-25T14:44:47.001Z</time></trkpt><trkpt lat="44.66716425367154" lon="9.242253403931324"><ele>1035.0</ele><time>2026-04-25T14:44:48.001Z</time></trkpt><trkpt lat="44.667137738111336" lon="9.242353282910667"><ele>1035.0</ele><time>2026-04-25T14:44:49.001Z</time></trkpt><trkpt lat="44.66708887304886" lon="9.242436097154009"><ele>1035.0</ele><time>2026-04-25T14:44:50.001Z</time></trkpt><trkpt lat="44.66703055807258" lon="9.24249750743395"><ele>1035.0</ele><time>2026-04-25T14:44:51.001Z</time></trkpt><trkpt lat="44.6669609194514" lon="9.242551268982501"><ele>1033.2</ele><time>2026-04-25T14:44:52.001Z</time></trkpt><trkpt lat="44.66687862802558" lon="9.242613477001807"><ele>1031.4</ele><time>2026-04-25T14:44:53.001Z</time></trkpt><trkpt lat="44.666790582459576" lon="9.24267068080797"><ele>1029.6</ele><time>2026-04-25T14:44:54.001Z</time></trkpt><trkpt lat="44.66670726813115" lon="9.242723904786114"><ele>1027.8</ele><time>2026-04-25T14:44:55.001Z</time></trkpt><trkpt lat="44.66662454486526" lon="9.24277930126862"><ele>1026.0</ele><time>2026-04-25T14:44:56.001Z</time></trkpt><trkpt lat="44.66653108285876" lon="9.242838752144939"><ele>1026.0</ele><time>2026-04-25T14:44:57.001Z</time></trkpt><trkpt lat="44.66644931806567" lon="9.242918052115142"><ele>1026.0</ele><time>2026-04-25T14:44:58.001Z</time></trkpt><trkpt lat="44.66637549452665" lon="9.243012499023077"><ele>1026.0</ele><time>2026-04-25T14:44:59.001Z</time></trkpt><trkpt lat="44.66631136138595" lon="9.243119408831449"><ele>1026.0</ele><time>2026-04-25T14:45:00.001Z</time></trkpt><trkpt lat="44.666245158019514" lon="9.243234176813573"><ele>1026.0</ele><time>2026-04-25T14:45:01.001Z</time></trkpt><trkpt lat="44.666172145971984" lon="9.243330765441236"><ele>1026.0</ele><time>2026-04-25T14:45:02.001Z</time></trkpt><trkpt lat="44.66608328780828" lon="9.24340846822614"><ele>1026.0</ele><time>2026-04-25T14:45:03.001Z</time></trkpt><trkpt lat="44.66598091565691" lon="9.243472341722601"><ele>1026.0</ele><time>2026-04-25T14:45:04.001Z</time></trkpt><trkpt lat="44.66587744894158" lon="9.24354003694339"><ele>1026.0</ele><time>2026-04-25T14:45:05.001Z</time></trkpt><trkpt lat="44.665776098661716" lon="9.24359766963858"><ele>1026.0</ele><time>2026-04-25T14:45:06.001Z</time></trkpt><trkpt lat="44.665671328571406" lon="9.243643811966068"><ele>1026.0</ele><time>2026-04-25T14:45:07.001Z</time></trkpt><trkpt lat="44.66556522279447" lon="9.24365734428743"><ele>1026.0</ele><time>2026-04-25T14:45:08.001Z</time></trkpt><trkpt lat="44.66545690261622" lon="9.243648474609977"><ele>1026.0</ele><time>2026-04-25T14:45:09.001Z</time></trkpt><trkpt lat="44.66536929379452" lon="9.243640420599338"><ele>1026.0</ele><time>2026-04-25T14:45:10.001Z</time></trkpt><trkpt lat="44.66529509401558" lon="9.24365753719436"><ele>1026.0</ele><time>2026-04-25T14:45:11.001Z</time></trkpt><trkpt lat="44.66523546166758" lon="9.243705579791483"><ele>1026.0</ele><time>2026-04-25T14:45:12.001Z</time></trkpt><trkpt lat="44.6651834671527" lon="9.243775272271373"><ele>1023.4</ele><time>2026-04-25T14:45:13.001Z</time></trkpt><trkpt lat="44.66512532783433" lon="9.243874446569311"><ele>1020.8</ele><time>2026-04-25T14:45:14.001Z</time></trkpt><trkpt lat="44.66508130023823" lon="9.243945425692552"><ele>1018.1999999999999</ele><time>2026-04-25T14:45:15.001Z</time></trkpt><trkpt lat="44.66500640444801" lon="9.244097757132039"><ele>1015.5999999999999</ele><time>2026-04-25T14:45:16.001Z</time></trkpt><trkpt lat="44.66494756189728" lon="9.244224855821342"><ele>1013.0</ele><time>2026-04-25T14:45:17.001Z</time></trkpt><trkpt lat="44.6648980417302" lon="9.244332820025729"><ele>1013.0000000000001</ele><time>2026-04-25T14:45:18.001Z</time></trkpt><trkpt lat="44.664867988779804" lon="9.24442882575245"><ele>1013.0</ele><time>2026-04-25T14:45:19.001Z</time></trkpt><trkpt lat="44.664861900415474" lon="9.244540268949237"><ele>1013.0</ele><time>2026-04-25T14:45:20.001Z</time></trkpt><trkpt lat="44.66487885253729" lon="9.24466858202041"><ele>1013.0</ele><time>2026-04-25T14:45:21.001Z</time></trkpt><trkpt lat="44.66490322062707" lon="9.244777713273411"><ele>1013.0000000000001</ele><time>2026-04-25T14:45:22.001Z</time></trkpt><trkpt lat="44.664980606888854" lon="9.244852382832308"><ele>1013.0</ele><time>2026-04-25T14:45:24.001Z</time></trkpt><trkpt lat="44.66510631675879" lon="9.2448134833317"><ele>1013.0</ele><time>2026-04-25T14:45:26.001Z</time></trkpt><trkpt lat="44.66519922231701" lon="9.244766651731398"><ele>1013.0</ele><time>2026-04-25T14:45:27.001Z</time></trkpt><trkpt lat="44.66531567763819" lon="9.24471203760736"><ele>1013.0</ele><time>2026-04-25T14:45:28.001Z</time></trkpt><trkpt lat="44.6654429330085" lon="9.244662043583396"><ele>1013.0</ele><time>2026-04-25T14:45:29.001Z</time></trkpt><trkpt lat="44.665552773444084" lon="9.244626994854086"><ele>1018.2</ele><time>2026-04-25T14:45:30.001Z</time></trkpt><trkpt lat="44.66565240796039" lon="9.244608220313427"><ele>1023.4</ele><time>2026-04-25T14:45:31.001Z</time></trkpt><trkpt lat="44.66574587826212" lon="9.244610902321636"><ele>1028.6000000000001</ele><time>2026-04-25T14:45:32.001Z</time></trkpt><trkpt lat="44.665841258932325" lon="9.244630837595171"><ele>1033.8</ele><time>2026-04-25T14:45:33.001Z</time></trkpt><trkpt lat="44.66593817408822" lon="9.244652287324016"><ele>1039.0</ele><time>2026-04-25T14:45:34.001Z</time></trkpt><trkpt lat="44.66603867229099" lon="9.24468082821024"><ele>1041.0</ele><time>2026-04-25T14:45:35.001Z</time></trkpt><trkpt lat="44.66613276152884" lon="9.244715861727427"><ele>1043.0</ele><time>2026-04-25T14:45:36.001Z</time></trkpt><trkpt lat="44.66620670764853" lon="9.244755887463395"><ele>1045.0</ele><time>2026-04-25T14:45:37.001Z</time></trkpt><trkpt lat="44.66627840065881" lon="9.24476593585908"><ele>1047.0</ele><time>2026-04-25T14:45:38.001Z</time></trkpt><trkpt lat="44.66636257922724" lon="9.24474284663952"><ele>1049.0</ele><time>2026-04-25T14:45:39.001Z</time></trkpt><trkpt lat="44.666456905366196" lon="9.24470163906103"><ele>1051.0</ele><time>2026-04-25T14:45:40.001Z</time></trkpt><trkpt lat="44.66656178427152" lon="9.2446688023869"><ele>1051.0</ele><time>2026-04-25T14:45:41.001Z</time></trkpt><trkpt lat="44.666681254928015" lon="9.244646682489606"><ele>1051.0</ele><time>2026-04-25T14:45:42.001Z</time></trkpt><trkpt lat="44.66681420926463" lon="9.244638726712862"><ele>1051.0</ele><time>2026-04-25T14:45:43.001Z</time></trkpt><trkpt lat="44.66693968517956" lon="9.244660624764641"><ele>1051.0</ele><time>2026-04-25T14:45:44.001Z</time></trkpt><trkpt lat="44.66707143468159" lon="9.24466165039386"><ele>1051.75</ele><time>2026-04-25T14:45:45.001Z</time></trkpt><trkpt lat="44.66721546613707" lon="9.244634583260366"><ele>1052.5</ele><time>2026-04-25T14:45:46.001Z</time></trkpt><trkpt lat="44.667364371303066" lon="9.244595134673423"><ele>1053.25</ele><time>2026-04-25T14:45:47.001Z</time></trkpt><trkpt lat="44.66750492449479" lon="9.244566971943478"><ele>1054.0</ele><time>2026-04-25T14:45:48.001Z</time></trkpt><trkpt lat="44.66763624777084" lon="9.244549442236032"><ele>1054.0</ele><time>2026-04-25T14:45:49.001Z</time></trkpt><trkpt lat="44.667769048433016" lon="9.244535023947646"><ele>1054.0</ele><time>2026-04-25T14:45:50.001Z</time></trkpt><trkpt lat="44.66789712877051" lon="9.24452188777533"><ele>1054.0</ele><time>2026-04-25T14:45:51.001Z</time></trkpt><trkpt lat="44.668022591272766" lon="9.244521668070607"><ele>1054.0</ele><time>2026-04-25T14:45:52.001Z</time></trkpt><trkpt lat="44.668141074583204" lon="9.24454768887576"><ele>1053.25</ele><time>2026-04-25T14:45:53.001Z</time></trkpt><trkpt lat="44.66825726861979" lon="9.244586096946195"><ele>1052.5</ele><time>2026-04-25T14:45:54.001Z</time></trkpt><trkpt lat="44.66836784302472" lon="9.24463166257025"><ele>1051.75</ele><time>2026-04-25T14:45:55.001Z</time></trkpt><trkpt lat="44.66847196188594" lon="9.244691740178357"><ele>1051.0</ele><time>2026-04-25T14:45:56.001Z</time></trkpt><trkpt lat="44.66856832650305" lon="9.244766384128551"><ele>1043.25</ele><time>2026-04-25T14:45:57.001Z</time></trkpt><trkpt lat="44.668660636899666" lon="9.244852413099794"><ele>1035.5</ele><time>2026-04-25T14:45:58.001Z</time></trkpt><trkpt lat="44.668755858131476" lon="9.244942705582964"><ele>1027.75</ele><time>2026-04-25T14:45:59.001Z</time></trkpt><trkpt lat="44.66885291133263" lon="9.245038867075026"><ele>1020.0</ele><time>2026-04-25T14:46:00.001Z</time></trkpt><trkpt lat="44.66894982106079" lon="9.245135277411295"><ele>1020.0</ele><time>2026-04-25T14:46:01.001Z</time></trkpt><trkpt lat="44.66904578684583" lon="9.245223310212308"><ele>1020.0</ele><time>2026-04-25T14:46:02.001Z</time></trkpt><trkpt lat="44.669140943781954" lon="9.245305225502479"><ele>1020.0</ele><time>2026-04-25T14:46:03.001Z</time></trkpt><trkpt lat="44.66923558590439" lon="9.245374407219648"><ele>1020.0</ele><time>2026-04-25T14:46:04.001Z</time></trkpt><trkpt lat="44.669333992116044" lon="9.24543098588041"><ele>1020.0</ele><time>2026-04-25T14:46:05.001Z</time></trkpt><trkpt lat="44.669429716219504" lon="9.245471688469422"><ele>1022.8</ele><time>2026-04-25T14:46:06.001Z</time></trkpt><trkpt lat="44.66952689595562" lon="9.245480426329188"><ele>1025.6</ele><time>2026-04-25T14:46:07.001Z</time></trkpt><trkpt lat="44.6696330517739" lon="9.245459660766713"><ele>1028.4</ele><time>2026-04-25T14:46:08.001Z</time></trkpt><trkpt lat="44.66974032104963" lon="9.245425063194684"><ele>1031.2</ele><time>2026-04-25T14:46:09.001Z</time></trkpt><trkpt lat="44.66984685123668" lon="9.245416307159804"><ele>1034.0</ele><time>2026-04-25T14:46:10.001Z</time></trkpt><trkpt lat="44.669942544838776" lon="9.245445801678478"><ele>1034.0</ele><time>2026-04-25T14:46:11.001Z</time></trkpt><trkpt lat="44.670019277429866" lon="9.245490290121982"><ele>1034.0</ele><time>2026-04-25T14:46:12.001Z</time></trkpt><trkpt lat="44.670072349552555" lon="9.245561861016764"><ele>1034.0</ele><time>2026-04-25T14:46:13.001Z</time></trkpt><trkpt lat="44.670106083839094" lon="9.245667371538412"><ele>1034.0</ele><time>2026-04-25T14:46:14.001Z</time></trkpt><trkpt lat="44.67013960264685" lon="9.245778788918903"><ele>1034.0</ele><time>2026-04-25T14:46:15.001Z</time></trkpt><trkpt lat="44.67019306610624" lon="9.245883787182722"><ele>1034.0</ele><time>2026-04-25T14:46:16.001Z</time></trkpt><trkpt lat="44.670250978027624" lon="9.245976649885346"><ele>1028.8333333333335</ele><time>2026-04-25T14:46:17.001Z</time></trkpt><trkpt lat="44.67031346412488" lon="9.24606588101717"><ele>1023.6666666666667</ele><time>2026-04-25T14:46:18.001Z</time></trkpt><trkpt lat="44.67038179453683" lon="9.246149751230964"><ele>1018.5</ele><time>2026-04-25T14:46:19.001Z</time></trkpt><trkpt lat="44.670458388180826" lon="9.246221797161436"><ele>1013.3333333333333</ele><time>2026-04-25T14:46:20.001Z</time></trkpt><trkpt lat="44.6705392220412" lon="9.246260551321932"><ele>1008.1666666666666</ele><time>2026-04-25T14:46:21.001Z</time></trkpt><trkpt lat="44.67061466255175" lon="9.246270254271373"><ele>1003.0</ele><time>2026-04-25T14:46:22.001Z</time></trkpt><trkpt lat="44.67067518381698" lon="9.246237335038476"><ele>1003.0</ele><time>2026-04-25T14:46:23.001Z</time></trkpt><trkpt lat="44.670739180828946" lon="9.246167133363539"><ele>1003.0</ele><time>2026-04-25T14:46:24.001Z</time></trkpt><trkpt lat="44.67082063521674" lon="9.246059492643838"><ele>1003.0</ele><time>2026-04-25T14:46:25.001Z</time></trkpt><trkpt lat="44.67090979262786" lon="9.24598147496858"><ele>1003.0</ele><time>2026-04-25T14:46:26.001Z</time></trkpt><trkpt lat="44.67099384722193" lon="9.245951841110415"><ele>1003.0</ele><time>2026-04-25T14:46:27.001Z</time></trkpt><trkpt lat="44.67107120360977" lon="9.245953346795982"><ele>1000.9999999999999</ele><time>2026-04-25T14:46:28.001Z</time></trkpt><trkpt lat="44.671147968229484" lon="9.245950100609885"><ele>999.0</ele><time>2026-04-25T14:46:29.001Z</time></trkpt><trkpt lat="44.671216591253575" lon="9.245945335199487"><ele>997.0</ele><time>2026-04-25T14:46:30.001Z</time></trkpt><trkpt lat="44.671288836859766" lon="9.24593737356176"><ele>995.0</ele><time>2026-04-25T14:46:31.001Z</time></trkpt><trkpt lat="44.67137460584026" lon="9.245931369739344"><ele>992.9999999999999</ele><time>2026-04-25T14:46:32.001Z</time></trkpt><trkpt lat="44.67147100380018" lon="9.245926102689854"><ele>991.0</ele><time>2026-04-25T14:46:33.001Z</time></trkpt><trkpt lat="44.671577964119464" lon="9.245919758886734"><ele>991.0</ele><time>2026-04-25T14:46:34.001Z</time></trkpt><trkpt lat="44.67168666561683" lon="9.245927570338843"><ele>990.9999999999999</ele><time>2026-04-25T14:46:35.001Z</time></trkpt><trkpt lat="44.67179102916378" lon="9.245949699758476"><ele>990.9999999999999</ele><time>2026-04-25T14:46:36.001Z</time></trkpt><trkpt lat="44.671886447196655" lon="9.245995841414688"><ele>991.0</ele><time>2026-04-25T14:46:37Z</time></trkpt><trkpt lat="44.671965525729476" lon="9.246042898659415"><ele>991.0</ele><time>2026-04-25T14:46:38Z</time></trkpt><trkpt lat="44.67207784816973" lon="9.246062718885975"><ele>987.1999999999999</ele><time>2026-04-25T14:46:40Z</time></trkpt><trkpt lat="44.67212882583258" lon="9.246006621185826"><ele>983.3999999999999</ele><time>2026-04-25T14:46:41Z</time></trkpt><trkpt lat="44.67216814252021" lon="9.245909142830817"><ele>979.6</ele><time>2026-04-25T14:46:42Z</time></trkpt><trkpt lat="44.672210860529816" lon="9.245781227508205"><ele>975.8</ele><time>2026-04-25T14:46:43Z</time></trkpt><trkpt lat="44.67227970395305" lon="9.245672444259679"><ele>972.0</ele><time>2026-04-25T14:46:44Z</time></trkpt><trkpt lat="44.6723806789039" lon="9.245588701451608"><ele>979.0</ele><time>2026-04-25T14:46:45Z</time></trkpt><trkpt lat="44.67250022607986" lon="9.245513743543807"><ele>986.0</ele><time>2026-04-25T14:46:46Z</time></trkpt><trkpt lat="44.67261701306991" lon="9.24543385605526"><ele>993.0</ele><time>2026-04-25T14:46:47Z</time></trkpt><trkpt lat="44.672721085117296" lon="9.24534935678401"><ele>1000.0</ele><time>2026-04-25T14:46:48Z</time></trkpt><trkpt lat="44.672812962003384" lon="9.245280496260055"><ele>1000.0</ele><time>2026-04-25T14:46:49Z</time></trkpt><trkpt lat="44.67289781800146" lon="9.245242982418084"><ele>1000.0</ele><time>2026-04-25T14:46:50Z</time></trkpt><trkpt lat="44.672973853911515" lon="9.24524460540607"><ele>1000.0</ele><time>2026-04-25T14:46:51Z</time></trkpt><trkpt lat="44.673036060043884" lon="9.245286705158186"><ele>1000.0</ele><time>2026-04-25T14:46:52Z</time></trkpt><trkpt lat="44.67307755942239" lon="9.24535734590235"><ele>1000.0</ele><time>2026-04-25T14:46:53Z</time></trkpt><trkpt lat="44.67310319069473" lon="9.245440225349261"><ele>1000.0</ele><time>2026-04-25T14:46:54Z</time></trkpt><trkpt lat="44.67311015291516" lon="9.245538368365114"><ele>1000.0</ele><time>2026-04-25T14:46:55Z</time></trkpt><trkpt lat="44.67308862421874" lon="9.245647618919143"><ele>998.2</ele><time>2026-04-25T14:46:56Z</time></trkpt><trkpt lat="44.67304082794157" lon="9.245760897282711"><ele>996.4</ele><time>2026-04-25T14:46:57Z</time></trkpt><trkpt lat="44.6729767952926" lon="9.245884632406163"><ele>994.5999999999999</ele><time>2026-04-25T14:46:58Z</time></trkpt><trkpt lat="44.67290953149912" lon="9.246019684349685"><ele>992.8</ele><time>2026-04-25T14:46:59Z</time></trkpt><trkpt lat="44.67285718797007" lon="9.2461505987479"><ele>991.0</ele><time>2026-04-25T14:47:00Z</time></trkpt><trkpt lat="44.67282282038244" lon="9.24628288251677"><ele>991.0</ele><time>2026-04-25T14:47:01Z</time></trkpt><trkpt lat="44.672802823644275" lon="9.246426837888768"><ele>990.9999999999999</ele><time>2026-04-25T14:47:02Z</time></trkpt><trkpt lat="44.67279626146564" lon="9.246574962516295"><ele>990.9999999999999</ele><time>2026-04-25T14:47:03Z</time></trkpt><trkpt lat="44.67279820616807" lon="9.246732963309759"><ele>991.0</ele><time>2026-04-25T14:47:04Z</time></trkpt><trkpt lat="44.67280372036059" lon="9.246891604168557"><ele>991.0</ele><time>2026-04-25T14:47:05Z</time></trkpt><trkpt lat="44.67279782756807" lon="9.247046312139664"><ele>990.4</ele><time>2026-04-25T14:47:06Z</time></trkpt><trkpt lat="44.67277639644672" lon="9.247186362785616"><ele>989.8</ele><time>2026-04-25T14:47:07Z</time></trkpt><trkpt lat="44.67275144087766" lon="9.247306776504574"><ele>989.1999999999999</ele><time>2026-04-25T14:47:08Z</time></trkpt><trkpt lat="44.67270695446578" lon="9.247404833560882"><ele>988.5999999999999</ele><time>2026-04-25T14:47:09Z</time></trkpt><trkpt lat="44.67263489163576" lon="9.247490323542745"><ele>988.0</ele><time>2026-04-25T14:47:10Z</time></trkpt><trkpt lat="44.67255578313468" lon="9.247575308285864"><ele>988.0</ele><time>2026-04-25T14:47:11Z</time></trkpt><trkpt lat="44.67247845697357" lon="9.24766580542155"><ele>988.0</ele><time>2026-04-25T14:47:12Z</time></trkpt><trkpt lat="44.67238576315365" lon="9.247730064857407"><ele>988.0</ele><time>2026-04-25T14:47:13Z</time></trkpt><trkpt lat="44.67227592589681" lon="9.247786446436056"><ele>988.0</ele><time>2026-04-25T14:47:14Z</time></trkpt><trkpt lat="44.67218333542749" lon="9.24784112359922"><ele>988.0</ele><time>2026-04-25T14:47:15Z</time></trkpt><trkpt lat="44.67209752264329" lon="9.24786743223094"><ele>988.0</ele><time>2026-04-25T14:47:16Z</time></trkpt><trkpt lat="44.67201073067295" lon="9.247852616645284"><ele>988.0</ele><time>2026-04-25T14:47:17Z</time></trkpt><trkpt lat="44.671933119968436" lon="9.247823829073708"><ele>988.0</ele><time>2026-04-25T14:47:18Z</time></trkpt><trkpt lat="44.671859831064545" lon="9.247883864549866"><ele>988.0</ele><time>2026-04-25T14:47:20Z</time></trkpt><trkpt lat="44.67185473003808" lon="9.248070882801855"><ele>988.0</ele><time>2026-04-25T14:47:22Z</time></trkpt><trkpt lat="44.67186024924129" lon="9.2482069876301"><ele>987.1428571428571</ele><time>2026-04-25T14:47:23Z</time></trkpt><trkpt lat="44.67185459713212" lon="9.248326661565685"><ele>986.2857142857142</ele><time>2026-04-25T14:47:24Z</time></trkpt><trkpt lat="44.671819042744424" lon="9.248400878118986"><ele>985.4285714285713</ele><time>2026-04-25T14:47:25Z</time></trkpt><trkpt lat="44.6717592514903" lon="9.248428877227642"><ele>984.5714285714286</ele><time>2026-04-25T14:47:26Z</time></trkpt><trkpt lat="44.67168262171715" lon="9.248431563052412"><ele>983.7142857142856</ele><time>2026-04-25T14:47:27Z</time></trkpt><trkpt lat="44.671612244851474" lon="9.248467055466659"><ele>982.8571428571428</ele><time>2026-04-25T14:47:28Z</time></trkpt><trkpt lat="44.67157486981549" lon="9.248552021390086"><ele>982.0</ele><time>2026-04-25T14:47:29Z</time></trkpt><trkpt lat="44.67156699737872" lon="9.248661332261781"><ele>981.9999999999999</ele><time>2026-04-25T14:47:30Z</time></trkpt><trkpt lat="44.67156117177859" lon="9.24879328105474"><ele>982.0</ele><time>2026-04-25T14:47:31Z</time></trkpt><trkpt lat="44.67152823676266" lon="9.24890078694697"><ele>982.0</ele><time>2026-04-25T14:47:32Z</time></trkpt><trkpt lat="44.671467453139854" lon="9.24895950707939"><ele>982.0</ele><time>2026-04-25T14:47:33Z</time></trkpt><trkpt lat="44.67139844064869" lon="9.24896709573328"><ele>981.9999999999999</ele><time>2026-04-25T14:47:34Z</time></trkpt><trkpt lat="44.671335703662145" lon="9.248938989162903"><ele>982.0</ele><time>2026-04-25T14:47:35Z</time></trkpt><trkpt lat="44.6712790143151" lon="9.248869767304033"><ele>981.9999999999999</ele><time>2026-04-25T14:47:36Z</time></trkpt><trkpt lat="44.67121008480143" lon="9.248793660472913"><ele>982.0</ele><time>2026-04-25T14:47:37Z</time></trkpt><trkpt lat="44.67111641886732" lon="9.248745818739778"><ele>982.0</ele><time>2026-04-25T14:47:38Z</time></trkpt><trkpt lat="44.67103865207869" lon="9.248696281566652"><ele>982.0</ele><time>2026-04-25T14:47:39Z</time></trkpt><trkpt lat="44.67097496387236" lon="9.248642743514752"><ele>981.9999999999999</ele><time>2026-04-25T14:47:40Z</time></trkpt><trkpt lat="44.670913564005346" lon="9.248612334723425"><ele>982.0</ele><time>2026-04-25T14:47:41Z</time></trkpt><trkpt lat="44.67084464147282" lon="9.248616299307836"><ele>984.8333333333333</ele><time>2026-04-25T14:47:42Z</time></trkpt><trkpt lat="44.67076761849123" lon="9.24865427087201"><ele>987.6666666666666</ele><time>2026-04-25T14:47:43Z</time></trkpt><trkpt lat="44.67068966251423" lon="9.248723210772773"><ele>990.5</ele><time>2026-04-25T14:47:44Z</time></trkpt><trkpt lat="44.67061948159236" lon="9.24880276803555"><ele>993.3333333333333</ele><time>2026-04-25T14:47:45Z</time></trkpt><trkpt lat="44.67057061701687" lon="9.248881083282868"><ele>996.1666666666666</ele><time>2026-04-25T14:47:46Z</time></trkpt><trkpt lat="44.67053883302217" lon="9.248962624819187"><ele>999.0</ele><time>2026-04-25T14:47:47Z</time></trkpt><trkpt lat="44.670529156946465" lon="9.24905034801983"><ele>999.0</ele><time>2026-04-25T14:47:48Z</time></trkpt><trkpt lat="44.67054002512786" lon="9.249150363509477"><ele>999.0000000000001</ele><time>2026-04-25T14:47:49Z</time></trkpt><trkpt lat="44.670543016945025" lon="9.249252607119953"><ele>999.0</ele><time>2026-04-25T14:47:50Z</time></trkpt><trkpt lat="44.67052420308509" lon="9.249339333805356"><ele>999.0</ele><time>2026-04-25T14:47:51Z</time></trkpt><trkpt lat="44.67048008408705" lon="9.249404479882157"><ele>999.0000000000001</ele><time>2026-04-25T14:47:52Z</time></trkpt><trkpt lat="44.670416991524974" lon="9.249447631566845"><ele>999.0</ele><time>2026-04-25T14:47:53Z</time></trkpt><trkpt lat="44.67033663997666" lon="9.249481696697567"><ele>999.0</ele><time>2026-04-25T14:47:54Z</time></trkpt><trkpt lat="44.67026265621063" lon="9.249530189725824"><ele>993.5</ele><time>2026-04-25T14:47:55Z</time></trkpt><trkpt lat="44.67017936811047" lon="9.249595564256767"><ele>988.0</ele><time>2026-04-25T14:47:56Z</time></trkpt><trkpt lat="44.670087782488565" lon="9.24965056152707"><ele>982.5</ele><time>2026-04-25T14:47:57Z</time></trkpt><trkpt lat="44.670005235599305" lon="9.249698199821282"><ele>977.0</ele><time>2026-04-25T14:47:58.001Z</time></trkpt><trkpt lat="44.669936565829126" lon="9.24973667087448"><ele>971.5</ele><time>2026-04-25T14:47:59.001Z</time></trkpt><trkpt lat="44.66986442687712" lon="9.249734846398209"><ele>966.0</ele><time>2026-04-25T14:48:00.001Z</time></trkpt><trkpt lat="44.66978657732903" lon="9.249722293928453"><ele>966.0</ele><time>2026-04-25T14:48:01.001Z</time></trkpt><trkpt lat="44.66970863692488" lon="9.249747126259926"><ele>966.0</ele><time>2026-04-25T14:48:02.001Z</time></trkpt><trkpt lat="44.66963271787479" lon="9.249802726256792"><ele>966.0</ele><time>2026-04-25T14:48:03.001Z</time></trkpt><trkpt lat="44.66956646706192" lon="9.249869442681955"><ele>966.0</ele><time>2026-04-25T14:48:04.001Z</time></trkpt><trkpt lat="44.669521956116895" lon="9.249935675160721"><ele>966.0</ele><time>2026-04-25T14:48:05.001Z</time></trkpt><trkpt lat="44.66949773307757" lon="9.250028780354329"><ele>966.0</ele><time>2026-04-25T14:48:06.001Z</time></trkpt><trkpt lat="44.66947786997806" lon="9.25015238574032"><ele>967.4</ele><time>2026-04-25T14:48:07.001Z</time></trkpt><trkpt lat="44.66945395577013" lon="9.250290668075722"><ele>968.8</ele><time>2026-04-25T14:48:08.001Z</time></trkpt><trkpt lat="44.669430698627444" lon="9.250427658933978"><ele>970.1999999999999</ele><time>2026-04-25T14:48:09.001Z</time></trkpt><trkpt lat="44.66939826399834" lon="9.250540703427713"><ele>971.5999999999999</ele><time>2026-04-25T14:48:10.001Z</time></trkpt><trkpt lat="44.66935216952541" lon="9.250616339241459"><ele>973.0</ele><time>2026-04-25T14:48:11.001Z</time></trkpt><trkpt lat="44.66923538131551" lon="9.250639360960433"><ele>972.9999999999999</ele><time>2026-04-25T14:48:13.001Z</time></trkpt><trkpt lat="44.66913996678383" lon="9.250556581243757"><ele>973.0</ele><time>2026-04-25T14:48:15.001Z</time></trkpt><trkpt lat="44.669032985347876" lon="9.25047620540461"><ele>973.0</ele><time>2026-04-25T14:48:17.001Z</time></trkpt><trkpt lat="44.668967986536764" lon="9.250466327526437"><ele>973.0</ele><time>2026-04-25T14:48:18.001Z</time></trkpt><trkpt lat="44.66890250589556" lon="9.250487727759218"><ele>972.9999999999999</ele><time>2026-04-25T14:48:19.001Z</time></trkpt><trkpt lat="44.668833625210276" lon="9.250537229957262"><ele>973.0</ele><time>2026-04-25T14:48:20.001Z</time></trkpt><trkpt lat="44.66876587520082" lon="9.250621229728408"><ele>974.75</ele><time>2026-04-25T14:48:21.001Z</time></trkpt><trkpt lat="44.66869115533729" lon="9.25072841698532"><ele>976.5</ele><time>2026-04-25T14:48:22.001Z</time></trkpt><trkpt lat="44.66859688959581" lon="9.250852158118928"><ele>978.25</ele><time>2026-04-25T14:48:23.001Z</time></trkpt><trkpt lat="44.668486785820605" lon="9.250985257833593"><ele>980.0</ele><time>2026-04-25T14:48:24.001Z</time></trkpt><trkpt lat="44.66838186592109" lon="9.251099405763608"><ele>980.0</ele><time>2026-04-25T14:48:25.001Z</time></trkpt><trkpt lat="44.668263715546374" lon="9.251211243698076"><ele>980.0</ele><time>2026-04-25T14:48:26.001Z</time></trkpt><trkpt lat="44.668134907900175" lon="9.251319143286317"><ele>980.0</ele><time>2026-04-25T14:48:27.001Z</time></trkpt><trkpt lat="44.66800674108379" lon="9.251416796481495"><ele>980.0</ele><time>2026-04-25T14:48:28.001Z</time></trkpt><trkpt lat="44.66789396221481" lon="9.251509649563683"><ele>982.6</ele><time>2026-04-25T14:48:29.001Z</time></trkpt><trkpt lat="44.6677940476989" lon="9.251601131213741"><ele>985.2</ele><time>2026-04-25T14:48:30.001Z</time></trkpt><trkpt lat="44.66769998280778" lon="9.25166840916659"><ele>987.8</ele><time>2026-04-25T14:48:31.001Z</time></trkpt><trkpt lat="44.66760476727836" lon="9.25169768602668"><ele>990.4</ele><time>2026-04-25T14:48:32.001Z</time></trkpt><trkpt lat="44.66751253623615" lon="9.251707160013495"><ele>993.0</ele><time>2026-04-25T14:48:33.001Z</time></trkpt><trkpt lat="44.66741900329431" lon="9.251715378721016"><ele>993.0</ele><time>2026-04-25T14:48:34.001Z</time></trkpt><trkpt lat="44.66732592260396" lon="9.251725264393096"><ele>993.0</ele><time>2026-04-25T14:48:35.001Z</time></trkpt><trkpt lat="44.667240082210434" lon="9.251731061203737"><ele>993.0</ele><time>2026-04-25T14:48:36.001Z</time></trkpt><trkpt lat="44.667179435896216" lon="9.251755521120549"><ele>993.0</ele><time>2026-04-25T14:48:37.001Z</time></trkpt><trkpt lat="44.6670913211765" lon="9.251910623981546"><ele>993.0</ele><time>2026-04-25T14:48:39.001Z</time></trkpt><trkpt lat="44.66705091940277" lon="9.252045178283396"><ele>993.0</ele><time>2026-04-25T14:48:40.001Z</time></trkpt><trkpt lat="44.66698231375085" lon="9.252187698365343"><ele>993.0</ele><time>2026-04-25T14:48:41.001Z</time></trkpt><trkpt lat="44.66687972666393" lon="9.252333703597579"><ele>993.0</ele><time>2026-04-25T14:48:42.001Z</time></trkpt><trkpt lat="44.66678122845925" lon="9.25246471646262"><ele>993.0</ele><time>2026-04-25T14:48:43Z</time></trkpt><trkpt lat="44.66668858557676" lon="9.25258049752593"><ele>993.5999999999999</ele><time>2026-04-25T14:48:44Z</time></trkpt><trkpt lat="44.666607203533836" lon="9.252695107319195"><ele>994.1999999999999</ele><time>2026-04-25T14:48:45Z</time></trkpt><trkpt lat="44.66652906115489" lon="9.252784182767558"><ele>994.8</ele><time>2026-04-25T14:48:46Z</time></trkpt><trkpt lat="44.666449267529465" lon="9.252817598953623"><ele>995.4</ele><time>2026-04-25T14:48:47Z</time></trkpt><trkpt lat="44.66636971126596" lon="9.252811588602734"><ele>996.0</ele><time>2026-04-25T14:48:48Z</time></trkpt><trkpt lat="44.66629778088515" lon="9.252805100615703"><ele>996.0</ele><time>2026-04-25T14:48:49Z</time></trkpt><trkpt lat="44.66623029931002" lon="9.252825766249728"><ele>995.9999999999999</ele><time>2026-04-25T14:48:50Z</time></trkpt><trkpt lat="44.66616056125062" lon="9.252880896595682"><ele>995.9999999999999</ele><time>2026-04-25T14:48:51Z</time></trkpt><trkpt lat="44.66608102828447" lon="9.252968953633108"><ele>996.0</ele><time>2026-04-25T14:48:52Z</time></trkpt><trkpt lat="44.66599835176435" lon="9.253072440440068"><ele>996.0</ele><time>2026-04-25T14:48:53Z</time></trkpt><trkpt lat="44.66591503992635" lon="9.253194229098018"><ele>997.0</ele><time>2026-04-25T14:48:54Z</time></trkpt><trkpt lat="44.6658267649548" lon="9.253351452925392"><ele>998.0</ele><time>2026-04-25T14:48:55Z</time></trkpt><trkpt lat="44.66574486986137" lon="9.253505764942986"><ele>999.0</ele><time>2026-04-25T14:48:56Z</time></trkpt><trkpt lat="44.665661102800975" lon="9.253641741011418"><ele>1000.0</ele><time>2026-04-25T14:48:57Z</time></trkpt><trkpt lat="44.66557900349868" lon="9.25376599461812"><ele>1000.0</ele><time>2026-04-25T14:48:58Z</time></trkpt><trkpt lat="44.66549612505801" lon="9.253857649850417"><ele>1000.0</ele><time>2026-04-25T14:48:59Z</time></trkpt><trkpt lat="44.66540990570424" lon="9.253908919647497"><ele>1000.0</ele><time>2026-04-25T14:49:00Z</time></trkpt><trkpt lat="44.66533256486721" lon="9.253944194559754"><ele>1000.0</ele><time>2026-04-25T14:49:01Z</time></trkpt><trkpt lat="44.66524623891524" lon="9.254012288037627"><ele>1000.0</ele><time>2026-04-25T14:49:03Z</time></trkpt><trkpt lat="44.66520732931605" lon="9.254099732709664"><ele>998.8333333333333</ele><time>2026-04-25T14:49:05Z</time></trkpt><trkpt lat="44.66514571286242" lon="9.254175941005226"><ele>997.6666666666666</ele><time>2026-04-25T14:49:07Z</time></trkpt><trkpt lat="44.66504636440141" lon="9.254250450591135"><ele>996.5</ele><time>2026-04-25T14:49:09Z</time></trkpt><trkpt lat="44.66497832489704" lon="9.254272732622097"><ele>995.3333333333333</ele><time>2026-04-25T14:49:10Z</time></trkpt><trkpt lat="44.664906872857856" lon="9.25429845328929"><ele>994.1666666666666</ele><time>2026-04-25T14:49:11Z</time></trkpt><trkpt lat="44.66483475528816" lon="9.254332892868195"><ele>993.0</ele><time>2026-04-25T14:49:12Z</time></trkpt><trkpt lat="44.66476477620465" lon="9.254387533743357"><ele>993.0</ele><time>2026-04-25T14:49:13Z</time></trkpt><trkpt lat="44.66469231548083" lon="9.25445417429646"><ele>993.0</ele><time>2026-04-25T14:49:14Z</time></trkpt><trkpt lat="44.66461846783258" lon="9.254527362963115"><ele>993.0</ele><time>2026-04-25T14:49:15Z</time></trkpt><trkpt lat="44.66453984547606" lon="9.25460198887173"><ele>993.0</ele><time>2026-04-25T14:49:16Z</time></trkpt><trkpt lat="44.66445074783799" lon="9.254651204026484"><ele>993.0</ele><time>2026-04-25T14:49:17Z</time></trkpt><trkpt lat="44.664351123589434" lon="9.254649174173885"><ele>991.8333333333334</ele><time>2026-04-25T14:49:18Z</time></trkpt><trkpt lat="44.664259261012546" lon="9.254639832553709"><ele>990.6666666666667</ele><time>2026-04-25T14:49:19Z</time></trkpt><trkpt lat="44.66418532152575" lon="9.25465402952284"><ele>989.5</ele><time>2026-04-25T14:49:20Z</time></trkpt><trkpt lat="44.664125108599556" lon="9.25469541348639"><ele>988.3333333333334</ele><time>2026-04-25T14:49:21Z</time></trkpt><trkpt lat="44.66407812048836" lon="9.254769974445551"><ele>987.1666666666667</ele><time>2026-04-25T14:49:22Z</time></trkpt><trkpt lat="44.66405219549037" lon="9.25486332811992"><ele>986.0</ele><time>2026-04-25T14:49:23Z</time></trkpt><trkpt lat="44.66404015101597" lon="9.254971929326565"><ele>986.0</ele><time>2026-04-25T14:49:24Z</time></trkpt><trkpt lat="44.66403928142882" lon="9.255094960494512"><ele>985.9999999999999</ele><time>2026-04-25T14:49:25Z</time></trkpt><trkpt lat="44.66404592339765" lon="9.255227209964774"><ele>985.9999999999999</ele><time>2026-04-25T14:49:26Z</time></trkpt><trkpt lat="44.664041970308965" lon="9.255368985353643"><ele>986.0</ele><time>2026-04-25T14:49:27Z</time></trkpt><trkpt lat="44.66401785677041" lon="9.255520210864592"><ele>986.0</ele><time>2026-04-25T14:49:28Z</time></trkpt><trkpt lat="44.663972638384536" lon="9.255665764958463"><ele>988.5</ele><time>2026-04-25T14:49:29Z</time></trkpt><trkpt lat="44.663907697493464" lon="9.255797152946482"><ele>991.0</ele><time>2026-04-25T14:49:30Z</time></trkpt><trkpt lat="44.66382724688906" lon="9.2559089030626"><ele>993.5</ele><time>2026-04-25T14:49:31Z</time></trkpt><trkpt lat="44.6637319017508" lon="9.256025119182038"><ele>996.0</ele><time>2026-04-25T14:49:32Z</time></trkpt><trkpt lat="44.663627851562666" lon="9.256131857453656"><ele>993.5</ele><time>2026-04-25T14:49:33Z</time></trkpt><trkpt lat="44.66352014882369" lon="9.25624141460146"><ele>991.0</ele><time>2026-04-25T14:49:34Z</time></trkpt><trkpt lat="44.66341550865042" lon="9.25636278573287"><ele>988.5</ele><time>2026-04-25T14:49:35Z</time></trkpt><trkpt lat="44.66332193829065" lon="9.256473500654664"><ele>986.0</ele><time>2026-04-25T14:49:36Z</time></trkpt><trkpt lat="44.663247830994145" lon="9.256570895459555"><ele>986.0</ele><time>2026-04-25T14:49:37Z</time></trkpt><trkpt lat="44.663175317745335" lon="9.256648277858996"><ele>985.9999999999999</ele><time>2026-04-25T14:49:38Z</time></trkpt><trkpt lat="44.663093991146134" lon="9.256693939323858"><ele>985.9999999999999</ele><time>2026-04-25T14:49:39Z</time></trkpt><trkpt lat="44.66300485915122" lon="9.256728821512517"><ele>986.0</ele><time>2026-04-25T14:49:40Z</time></trkpt><trkpt lat="44.66290044172152" lon="9.256760215588105"><ele>986.0</ele><time>2026-04-25T14:49:41Z</time></trkpt><trkpt lat="44.66278199839551" lon="9.256777518447722"><ele>982.25</ele><time>2026-04-25T14:49:42Z</time></trkpt><trkpt lat="44.662652731698266" lon="9.256798648299196"><ele>978.5</ele><time>2026-04-25T14:49:43Z</time></trkpt><trkpt lat="44.66251160362235" lon="9.256804234807174"><ele>974.75</ele><time>2026-04-25T14:49:44Z</time></trkpt><trkpt lat="44.66237581346826" lon="9.256784631326664"><ele>971.0</ele><time>2026-04-25T14:49:45Z</time></trkpt><trkpt lat="44.662250386430884" lon="9.25677301123879"><ele>971.0</ele><time>2026-04-25T14:49:46Z</time></trkpt><trkpt lat="44.66213071263821" lon="9.25678317804838"><ele>971.0</ele><time>2026-04-25T14:49:47Z</time></trkpt><trkpt lat="44.662006636648464" lon="9.256811134460682"><ele>971.0</ele><time>2026-04-25T14:49:48Z</time></trkpt><trkpt lat="44.661888662042436" lon="9.256839685681122"><ele>971.0</ele><time>2026-04-25T14:49:49Z</time></trkpt><trkpt lat="44.66177944198146" lon="9.25687569738967"><ele>968.1999999999999</ele><time>2026-04-25T14:49:50Z</time></trkpt><trkpt lat="44.661679095341675" lon="9.256922609957629"><ele>965.3999999999999</ele><time>2026-04-25T14:49:51Z</time></trkpt><trkpt lat="44.66158830381661" lon="9.256982082081286"><ele>962.6</ele><time>2026-04-25T14:49:52Z</time></trkpt><trkpt lat="44.661510817892285" lon="9.257056134813956"><ele>959.8</ele><time>2026-04-25T14:49:53Z</time></trkpt><trkpt lat="44.66143828214542" lon="9.257153503721272"><ele>957.0</ele><time>2026-04-25T14:49:54Z</time></trkpt><trkpt lat="44.66136581147444" lon="9.257261717572316"><ele>955.6</ele><time>2026-04-25T14:49:55Z</time></trkpt><trkpt lat="44.66129408896315" lon="9.257369964473915"><ele>954.2</ele><time>2026-04-25T14:49:56Z</time></trkpt><trkpt lat="44.66123017026381" lon="9.257480841068908"><ele>952.8</ele><time>2026-04-25T14:49:57Z</time></trkpt><trkpt lat="44.661169637251895" lon="9.257591597487513"><ele>951.4</ele><time>2026-04-25T14:49:58Z</time></trkpt><trkpt lat="44.66110670815393" lon="9.257706416854477"><ele>950.0</ele><time>2026-04-25T14:49:59Z</time></trkpt><trkpt lat="44.66104981486599" lon="9.257836319991474"><ele>950.0</ele><time>2026-04-25T14:50:00Z</time></trkpt><trkpt lat="44.660995859552344" lon="9.257977495789152"><ele>950.0</ele><time>2026-04-25T14:50:01Z</time></trkpt><trkpt lat="44.66093163535463" lon="9.258106350810031"><ele>950.0</ele><time>2026-04-25T14:50:02Z</time></trkpt><trkpt lat="44.66085067856338" lon="9.258201579934267"><ele>950.0</ele><time>2026-04-25T14:50:03Z</time></trkpt><trkpt lat="44.66076130664237" lon="9.258262780518688"><ele>950.0</ele><time>2026-04-25T14:50:04Z</time></trkpt><trkpt lat="44.660665288720054" lon="9.258306129350743"><ele>946.2</ele><time>2026-04-25T14:50:05Z</time></trkpt><trkpt lat="44.66056074019292" lon="9.258319836556174"><ele>942.4</ele><time>2026-04-25T14:50:06Z</time></trkpt><trkpt lat="44.66045593074324" lon="9.258327026598248"><ele>938.5999999999999</ele><time>2026-04-25T14:50:07Z</time></trkpt><trkpt lat="44.66035697007537" lon="9.258353487391428"><ele>934.8</ele><time>2026-04-25T14:50:08Z</time></trkpt><trkpt lat="44.660262438598146" lon="9.258403948711274"><ele>931.0</ele><time>2026-04-25T14:50:09Z</time></trkpt><trkpt lat="44.66017843538416" lon="9.258479597789181"><ele>931.0</ele><time>2026-04-25T14:50:10Z</time></trkpt><trkpt lat="44.660097298204676" lon="9.258571818676579"><ele>930.9999999999999</ele><time>2026-04-25T14:50:11Z</time></trkpt><trkpt lat="44.66002419019624" lon="9.258670681115234"><ele>930.9999999999999</ele><time>2026-04-25T14:50:12Z</time></trkpt><trkpt lat="44.65996265827214" lon="9.258771456067901"><ele>931.0</ele><time>2026-04-25T14:50:13Z</time></trkpt><trkpt lat="44.659920725540736" lon="9.258880386045888"><ele>931.0</ele><time>2026-04-25T14:50:14Z</time></trkpt><trkpt lat="44.659901559079366" lon="9.259011071780836"><ele>936.25</ele><time>2026-04-25T14:50:15Z</time></trkpt><trkpt lat="44.65989161606138" lon="9.259172913159796"><ele>941.5</ele><time>2026-04-25T14:50:16.001Z</time></trkpt><trkpt lat="44.659868813799456" lon="9.259331136645374"><ele>946.75</ele><time>2026-04-25T14:50:17.001Z</time></trkpt><trkpt lat="44.659835894773444" lon="9.259487228064854"><ele>952.0</ele><time>2026-04-25T14:50:18.001Z</time></trkpt><trkpt lat="44.65981816635906" lon="9.259651245570051"><ele>953.75</ele><time>2026-04-25T14:50:19.001Z</time></trkpt><trkpt lat="44.659814062565296" lon="9.25982184458872"><ele>955.5</ele><time>2026-04-25T14:50:20.001Z</time></trkpt><trkpt lat="44.65981559484735" lon="9.259993762508294"><ele>957.25</ele><time>2026-04-25T14:50:21.001Z</time></trkpt><trkpt lat="44.65974053719598" lon="9.260146127033765"><ele>959.0</ele><time>2026-04-25T14:50:22.001Z</time></trkpt><trkpt lat="44.65968436558667" lon="9.260284180246327"><ele>959.0</ele><time>2026-04-25T14:50:23.001Z</time></trkpt><trkpt lat="44.65959195386113" lon="9.260403243546573"><ele>959.0000000000001</ele><time>2026-04-25T14:50:24.001Z</time></trkpt><trkpt lat="44.65949976858338" lon="9.26052251649395"><ele>959.0000000000001</ele><time>2026-04-25T14:50:25.001Z</time></trkpt><trkpt lat="44.659431566666356" lon="9.260629563601446"><ele>959.0</ele><time>2026-04-25T14:50:26.001Z</time></trkpt><trkpt lat="44.659389598146234" lon="9.260709652296331"><ele>959.0</ele><time>2026-04-25T14:50:27.001Z</time></trkpt><trkpt lat="44.65930213533808" lon="9.260736914342957"><ele>954.6666666666667</ele><time>2026-04-25T14:50:29.001Z</time></trkpt><trkpt lat="44.659259208685704" lon="9.2606718676999"><ele>950.3333333333334</ele><time>2026-04-25T14:50:30.001Z</time></trkpt><trkpt lat="44.65924453830878" lon="9.260567079413129"><ele>946.0</ele><time>2026-04-25T14:50:31.001Z</time></trkpt><trkpt lat="44.659268801534395" lon="9.260466308404325"><ele>941.6666666666667</ele><time>2026-04-25T14:50:32.001Z</time></trkpt><trkpt lat="44.65932201926988" lon="9.260377566466422"><ele>937.3333333333334</ele><time>2026-04-25T14:50:33.001Z</time></trkpt><trkpt lat="44.659382835550566" lon="9.260298886708343"><ele>933.0</ele><time>2026-04-25T14:50:34.001Z</time></trkpt><trkpt lat="44.6594425750097" lon="9.260216945504503"><ele>931.0</ele><time>2026-04-25T14:50:35.001Z</time></trkpt><trkpt lat="44.65949768974292" lon="9.260130741527075"><ele>929.0</ele><time>2026-04-25T14:50:36.001Z</time></trkpt><trkpt lat="44.65953989059568" lon="9.260063399444839"><ele>927.0</ele><time>2026-04-25T14:50:37.001Z</time></trkpt><trkpt lat="44.65951352638011" lon="9.259919068338002"><ele>925.0</ele><time>2026-04-25T14:50:39.001Z</time></trkpt><trkpt lat="44.65938753907017" lon="9.259941287292415"><ele>923.0</ele><time>2026-04-25T14:50:41.001Z</time></trkpt><trkpt lat="44.65931642832772" lon="9.260009377180504"><ele>923.0</ele><time>2026-04-25T14:50:42.001Z</time></trkpt><trkpt lat="44.65924945815825" lon="9.260096588967686"><ele>923.0</ele><time>2026-04-25T14:50:43.001Z</time></trkpt><trkpt lat="44.659175050899854" lon="9.260186310580032"><ele>923.0</ele><time>2026-04-25T14:50:44.001Z</time></trkpt><trkpt lat="44.6591107129731" lon="9.260264188708938"><ele>923.0</ele><time>2026-04-25T14:50:45.001Z</time></trkpt><trkpt lat="44.659046682515566" lon="9.26035018215104"><ele>923.0</ele><time>2026-04-25T14:50:46.001Z</time></trkpt><trkpt lat="44.658986566261916" lon="9.260441419146126"><ele>923.0000000000001</ele><time>2026-04-25T14:50:47.001Z</time></trkpt><trkpt lat="44.65893722413159" lon="9.26054272076304"><ele>923.0</ele><time>2026-04-25T14:50:48.001Z</time></trkpt><trkpt lat="44.65890013922142" lon="9.260655077514308"><ele>923.0</ele><time>2026-04-25T14:50:49Z</time></trkpt><trkpt lat="44.65886887820097" lon="9.26076535353561"><ele>923.0</ele><time>2026-04-25T14:50:50Z</time></trkpt><trkpt lat="44.658847694594634" lon="9.260884045307801"><ele>923.0000000000001</ele><time>2026-04-25T14:50:51Z</time></trkpt><trkpt lat="44.65882651398135" lon="9.261002032880471"><ele>923.0</ele><time>2026-04-25T14:50:52Z</time></trkpt><trkpt lat="44.65879437058039" lon="9.261111375970131"><ele>924.6666666666667</ele><time>2026-04-25T14:50:53Z</time></trkpt><trkpt lat="44.658750405365474" lon="9.26121355768779"><ele>926.3333333333334</ele><time>2026-04-25T14:50:54Z</time></trkpt><trkpt lat="44.65870182733695" lon="9.261308933049962"><ele>928.0</ele><time>2026-04-25T14:50:55Z</time></trkpt><trkpt lat="44.65863352901522" lon="9.261380833785983"><ele>929.6666666666667</ele><time>2026-04-25T14:50:56Z</time></trkpt><trkpt lat="44.658578629298766" lon="9.261474420027353"><ele>931.3333333333334</ele><time>2026-04-25T14:50:57Z</time></trkpt><trkpt lat="44.658510966382174" lon="9.261551971567805"><ele>933.0</ele><time>2026-04-25T14:50:58Z</time></trkpt><trkpt lat="44.65845621185242" lon="9.261639336486375"><ele>928.5</ele><time>2026-04-25T14:50:59Z</time></trkpt><trkpt lat="44.65841797378594" lon="9.261740738870474"><ele>924.0</ele><time>2026-04-25T14:51:00Z</time></trkpt><trkpt lat="44.65839759750522" lon="9.261849729337657"><ele>919.5</ele><time>2026-04-25T14:51:01Z</time></trkpt><trkpt lat="44.658381188769525" lon="9.261959149388932"><ele>915.0</ele><time>2026-04-25T14:51:02Z</time></trkpt><trkpt lat="44.65836995438375" lon="9.26206712302682"><ele>910.5</ele><time>2026-04-25T14:51:03Z</time></trkpt><trkpt lat="44.65836502566887" lon="9.262179005903942"><ele>906.0</ele><time>2026-04-25T14:51:04Z</time></trkpt><trkpt lat="44.65836241337893" lon="9.262293349116016"><ele>906.0</ele><time>2026-04-25T14:51:05Z</time></trkpt><trkpt lat="44.658363935899494" lon="9.262413674199303"><ele>906.0</ele><time>2026-04-25T14:51:06Z</time></trkpt><trkpt lat="44.658369559130286" lon="9.262533312959789"><ele>906.0</ele><time>2026-04-25T14:51:07Z</time></trkpt><trkpt lat="44.65837949110661" lon="9.262650125552504"><ele>906.0</ele><time>2026-04-25T14:51:08Z</time></trkpt><trkpt lat="44.658388451007205" lon="9.262763853134949"><ele>906.0</ele><time>2026-04-25T14:51:09Z</time></trkpt><trkpt lat="44.65843917026344" lon="9.262861099055801"><ele>906.0</ele><time>2026-04-25T14:51:10Z</time></trkpt><trkpt lat="44.658500409635124" lon="9.26293684549767"><ele>906.0</ele><time>2026-04-25T14:51:11Z</time></trkpt><trkpt lat="44.65856031277643" lon="9.26300813486879"><ele>906.0</ele><time>2026-04-25T14:51:12Z</time></trkpt><trkpt lat="44.65862075275785" lon="9.263079932376158"><ele>906.0</ele><time>2026-04-25T14:51:13Z</time></trkpt><trkpt lat="44.65868352971509" lon="9.263153697420107"><ele>906.0</ele><time>2026-04-25T14:51:14Z</time></trkpt><trkpt lat="44.65875927375657" lon="9.263212031501745"><ele>906.0</ele><time>2026-04-25T14:51:15Z</time></trkpt><trkpt lat="44.6588289910649" lon="9.263304796841323"><ele>906.0</ele><time>2026-04-25T14:51:16Z</time></trkpt><trkpt lat="44.65887768108793" lon="9.26344120367173"><ele>904.5999999999999</ele><time>2026-04-25T14:51:17Z</time></trkpt><trkpt lat="44.65893155111788" lon="9.263579300637504"><ele>903.1999999999999</ele><time>2026-04-25T14:51:18Z</time></trkpt><trkpt lat="44.6589841369677" lon="9.263714375965316"><ele>901.8000000000001</ele><time>2026-04-25T14:51:19Z</time></trkpt><trkpt lat="44.659006555851136" lon="9.263853734703716"><ele>900.4000000000001</ele><time>2026-04-25T14:51:20Z</time></trkpt><trkpt lat="44.65901728361752" lon="9.263986708782397"><ele>899.0</ele><time>2026-04-25T14:51:21Z</time></trkpt><trkpt lat="44.65904839276866" lon="9.264086629829098"><ele>899.0</ele><time>2026-04-25T14:51:22Z</time></trkpt><trkpt lat="44.65911176932939" lon="9.264157228022164"><ele>899.0000000000001</ele><time>2026-04-25T14:51:23Z</time></trkpt><trkpt lat="44.65921176759228" lon="9.264184040166079"><ele>899.0000000000001</ele><time>2026-04-25T14:51:24Z</time></trkpt><trkpt lat="44.65930421003083" lon="9.264267636542012"><ele>899.0</ele><time>2026-04-25T14:51:25Z</time></trkpt><trkpt lat="44.659394264540964" lon="9.264344706657967"><ele>899.0</ele><time>2026-04-25T14:51:26Z</time></trkpt><trkpt lat="44.65945923932695" lon="9.264453319233496"><ele>904.2</ele><time>2026-04-25T14:51:27Z</time></trkpt><trkpt lat="44.65952164970198" lon="9.264591628684506"><ele>909.4000000000001</ele><time>2026-04-25T14:51:28Z</time></trkpt><trkpt lat="44.65957069478327" lon="9.264742911120846"><ele>914.6</ele><time>2026-04-25T14:51:29Z</time></trkpt><trkpt lat="44.65959775297885" lon="9.264891760807199"><ele>919.8</ele><time>2026-04-25T14:51:30Z</time></trkpt><trkpt lat="44.65960461297943" lon="9.26503951300924"><ele>925.0</ele><time>2026-04-25T14:51:31Z</time></trkpt><trkpt lat="44.65961249149886" lon="9.265190145433769"><ele>925.0</ele><time>2026-04-25T14:51:32Z</time></trkpt><trkpt lat="44.65964245347457" lon="9.265295330440832"><ele>925.0</ele><time>2026-04-25T14:51:33Z</time></trkpt><trkpt lat="44.65972311781777" lon="9.26544415155827"><ele>925.0</ele><time>2026-04-25T14:51:35Z</time></trkpt><trkpt lat="44.659811915471074" lon="9.265509471746846"><ele>925.0</ele><time>2026-04-25T14:51:36Z</time></trkpt><trkpt lat="44.659896634708446" lon="9.2655837524398"><ele>925.0</ele><time>2026-04-25T14:51:37Z</time></trkpt><trkpt lat="44.65997647448101" lon="9.265694201027522"><ele>926.0</ele><time>2026-04-25T14:51:38Z</time></trkpt><trkpt lat="44.66004448395583" lon="9.265810628951206"><ele>927.0</ele><time>2026-04-25T14:51:39Z</time></trkpt><trkpt lat="44.66010621084584" lon="9.265926047836434"><ele>928.0</ele><time>2026-04-25T14:51:40Z</time></trkpt><trkpt lat="44.66016568830517" lon="9.266036388487729"><ele>929.0</ele><time>2026-04-25T14:51:41Z</time></trkpt><trkpt lat="44.660225539520084" lon="9.266132855086429"><ele>930.0</ele><time>2026-04-25T14:51:42Z</time></trkpt><trkpt lat="44.660308335826315" lon="9.26619558077732"><ele>930.0</ele><time>2026-04-25T14:51:43Z</time></trkpt><trkpt lat="44.66041631121517" lon="9.26622775817155"><ele>930.0</ele><time>2026-04-25T14:51:44Z</time></trkpt><trkpt lat="44.66052690822924" lon="9.266265605314686"><ele>930.0</ele><time>2026-04-25T14:51:45Z</time></trkpt><trkpt lat="44.660618175946716" lon="9.266309009267465"><ele>930.0</ele><time>2026-04-25T14:51:46Z</time></trkpt><trkpt lat="44.660686111147136" lon="9.266368868604921"><ele>930.0</ele><time>2026-04-25T14:51:47Z</time></trkpt><trkpt lat="44.66071660928831" lon="9.266483659049154"><ele>923.1666666666666</ele><time>2026-04-25T14:51:48Z</time></trkpt><trkpt lat="44.66077210402623" lon="9.2665900572223"><ele>916.3333333333333</ele><time>2026-04-25T14:51:49Z</time></trkpt><trkpt lat="44.66085189613259" lon="9.266661556200773"><ele>909.5</ele><time>2026-04-25T14:51:50Z</time></trkpt><trkpt lat="44.660936390140925" lon="9.2666800405182"><ele>902.6666666666666</ele><time>2026-04-25T14:51:51Z</time></trkpt><trkpt lat="44.66101819021902" lon="9.26667506427408"><ele>895.8333333333333</ele><time>2026-04-25T14:51:52Z</time></trkpt><trkpt lat="44.66108780368339" lon="9.26667475124404"><ele>889.0</ele><time>2026-04-25T14:51:53Z</time></trkpt><trkpt lat="44.661176780991816" lon="9.266653825260889"><ele>889.0</ele><time>2026-04-25T14:51:55Z</time></trkpt><trkpt lat="44.66126616568282" lon="9.266673949216964"><ele>889.0000000000001</ele><time>2026-04-25T15:00:19.001Z</time></trkpt><trkpt lat="44.66136462357068" lon="9.26667446756755"><ele>889.0000000000001</ele><time>2026-04-25T15:00:22.001Z</time></trkpt><trkpt lat="44.66143049452283" lon="9.266674856277714"><ele>889.0</ele><time>2026-04-25T15:00:23.001Z</time></trkpt><trkpt lat="44.66151765314755" lon="9.266675221969"><ele>889.0</ele><time>2026-04-25T15:00:24.001Z</time></trkpt><trkpt lat="44.66162914812307" lon="9.26665841932274"><ele>888.9999999999999</ele><time>2026-04-25T15:00:25.001Z</time></trkpt><trkpt lat="44.661727559915406" lon="9.266621509355703"><ele>889.0</ele><time>2026-04-25T15:00:26.001Z</time></trkpt><trkpt lat="44.66181472911127" lon="9.26658358512348"><ele>889.0</ele><time>2026-04-25T15:00:27.001Z</time></trkpt><trkpt lat="44.66188215191902" lon="9.26655740111245"><ele>889.0</ele><time>2026-04-25T15:00:28.001Z</time></trkpt><trkpt lat="44.66196158717946" lon="9.266534099364263"><ele>888.9999999999999</ele><time>2026-04-25T15:00:29.001Z</time></trkpt><trkpt lat="44.66203193257102" lon="9.266543821974258"><ele>889.0</ele><time>2026-04-25T15:00:30.001Z</time></trkpt><trkpt lat="44.662103549598896" lon="9.266605679139563"><ele>895.2</ele><time>2026-04-25T15:00:31.001Z</time></trkpt><trkpt lat="44.66219302517645" lon="9.266667103196646"><ele>901.4000000000001</ele><time>2026-04-25T15:00:32.001Z</time></trkpt><trkpt lat="44.66227054116426" lon="9.266738731391676"><ele>907.6</ele><time>2026-04-25T15:00:33.001Z</time></trkpt><trkpt lat="44.66233055065935" lon="9.266841652911802"><ele>913.8</ele><time>2026-04-25T15:00:34.001Z</time></trkpt><trkpt lat="44.66238373539318" lon="9.266963160875688"><ele>920.0</ele><time>2026-04-25T15:00:35.001Z</time></trkpt><trkpt lat="44.66240148152126" lon="9.26708560085348"><ele>920.0</ele><time>2026-04-25T15:00:36.001Z</time></trkpt><trkpt lat="44.662413508685106" lon="9.267238794128145"><ele>920.0</ele><time>2026-04-25T15:00:37.001Z</time></trkpt><trkpt lat="44.66242343009746" lon="9.267413286770703"><ele>920.0</ele><time>2026-04-25T15:00:38.001Z</time></trkpt><trkpt lat="44.66242941070145" lon="9.26756569675148"><ele>920.0</ele><time>2026-04-25T15:00:39.001Z</time></trkpt><trkpt lat="44.662432572607145" lon="9.267705153516232"><ele>920.0</ele><time>2026-04-25T15:00:40.001Z</time></trkpt><trkpt lat="44.66244284960709" lon="9.267851348432687"><ele>918.0</ele><time>2026-04-25T15:00:41.001Z</time></trkpt><trkpt lat="44.66247182902398" lon="9.267991936134205"><ele>916.0</ele><time>2026-04-25T15:00:42.001Z</time></trkpt><trkpt lat="44.66254186643145" lon="9.268123307070478"><ele>914.0</ele><time>2026-04-25T15:00:43.001Z</time></trkpt><trkpt lat="44.66260032242125" lon="9.268244774695269"><ele>912.0</ele><time>2026-04-25T15:00:44.001Z</time></trkpt><trkpt lat="44.66265583648905" lon="9.26835301471228"><ele>910.0</ele><time>2026-04-25T15:00:45.001Z</time></trkpt><trkpt lat="44.662785055283926" lon="9.268429718682151"><ele>910.0</ele><time>2026-04-25T15:00:47.001Z</time></trkpt><trkpt lat="44.662885293296235" lon="9.268389942087115"><ele>910.0</ele><time>2026-04-25T15:00:48.001Z</time></trkpt><trkpt lat="44.66298004269507" lon="9.268420802241033"><ele>910.0</ele><time>2026-04-25T15:00:49.001Z</time></trkpt><trkpt lat="44.663035518557265" lon="9.268492038843268"><ele>910.0</ele><time>2026-04-25T15:00:50.001Z</time></trkpt><trkpt lat="44.663080817348" lon="9.268586070539728"><ele>910.0</ele><time>2026-04-25T15:00:51.001Z</time></trkpt><trkpt lat="44.663135141424476" lon="9.268691597700418"><ele>910.0</ele><time>2026-04-25T15:00:52.001Z</time></trkpt><trkpt lat="44.66316954428931" lon="9.268795964457588"><ele>910.0</ele><time>2026-04-25T15:00:53.001Z</time></trkpt><trkpt lat="44.66319629592232" lon="9.268925825920977"><ele>910.0</ele><time>2026-04-25T15:00:54.001Z</time></trkpt><trkpt lat="44.66324923871199" lon="9.26904588821743"><ele>910.0</ele><time>2026-04-25T15:00:55.001Z</time></trkpt><trkpt lat="44.663340882713214" lon="9.269114574906826"><ele>910.0</ele><time>2026-04-25T15:00:56.001Z</time></trkpt><trkpt lat="44.66342178628705" lon="9.269184920833098"><ele>905.6</ele><time>2026-04-25T15:00:57.001Z</time></trkpt><trkpt lat="44.66351435341023" lon="9.26925780457995"><ele>901.2</ele><time>2026-04-25T15:00:58.001Z</time></trkpt><trkpt lat="44.66361999069459" lon="9.269319011005646"><ele>896.8</ele><time>2026-04-25T15:00:59.001Z</time></trkpt><trkpt lat="44.66372514124824" lon="9.269329083237638"><ele>892.4</ele><time>2026-04-25T15:01:00.001Z</time></trkpt><trkpt lat="44.66381709071728" lon="9.2693574231305"><ele>888.0</ele><time>2026-04-25T15:01:01.001Z</time></trkpt><trkpt lat="44.663863243195244" lon="9.269422751717249"><ele>888.0</ele><time>2026-04-25T15:01:02.001Z</time></trkpt><trkpt lat="44.66392434747918" lon="9.269518194270951"><ele>888.0</ele><time>2026-04-25T15:01:03.001Z</time></trkpt><trkpt lat="44.66398737932589" lon="9.269580840082401"><ele>888.0</ele><time>2026-04-25T15:01:04.001Z</time></trkpt><trkpt lat="44.66406040081006" lon="9.269609926143497"><ele>888.0</ele><time>2026-04-25T15:01:05.001Z</time></trkpt><trkpt lat="44.66415196190155" lon="9.269546495283343"><ele>888.0</ele><time>2026-04-25T15:01:06.001Z</time></trkpt><trkpt lat="44.66423227779647" lon="9.26947785895897"><ele>888.0</ele><time>2026-04-25T15:01:07.001Z</time></trkpt><trkpt lat="44.66431395246175" lon="9.269448485610159"><ele>888.0</ele><time>2026-04-25T15:01:08.001Z</time></trkpt><trkpt lat="44.66441485870566" lon="9.269531562486144"><ele>888.0</ele><time>2026-04-25T15:01:10.001Z</time></trkpt><trkpt lat="44.66442057347795" lon="9.269719264010783"><ele>888.0</ele><time>2026-04-25T15:01:12.001Z</time></trkpt><trkpt lat="44.664445240086984" lon="9.26986358937337"><ele>888.0</ele><time>2026-04-25T15:01:13.001Z</time></trkpt><trkpt lat="44.66447324984892" lon="9.270027476524973"><ele>890.4</ele><time>2026-04-25T15:01:14.001Z</time></trkpt><trkpt lat="44.664500113122735" lon="9.270179769662644"><ele>892.8</ele><time>2026-04-25T15:01:15.001Z</time></trkpt><trkpt lat="44.66452666643213" lon="9.270315321546924"><ele>895.2</ele><time>2026-04-25T15:01:16.001Z</time></trkpt><trkpt lat="44.66456683080831" lon="9.270431661239682"><ele>897.6</ele><time>2026-04-25T15:01:17.002Z</time></trkpt><trkpt lat="44.66464451630415" lon="9.270532395301332"><ele>900.0</ele><time>2026-04-25T15:01:18.002Z</time></trkpt><trkpt lat="44.66475218098241" lon="9.270623537022487"><ele>885.6666666666667</ele><time>2026-04-25T15:01:19.002Z</time></trkpt><trkpt lat="44.66486753278487" lon="9.270722629465443"><ele>871.3333333333334</ele><time>2026-04-25T15:01:20.002Z</time></trkpt><trkpt lat="44.66500032072024" lon="9.270834003015613"><ele>857.0</ele><time>2026-04-25T15:01:21.002Z</time></trkpt><trkpt lat="44.66514560605819" lon="9.270949860213083"><ele>867.5</ele><time>2026-04-25T15:01:22.002Z</time></trkpt><trkpt lat="44.665281174627786" lon="9.271057515055737"><ele>878.0</ele><time>2026-04-25T15:01:23.002Z</time></trkpt><trkpt lat="44.66541334355037" lon="9.271162296107088"><ele>888.5</ele><time>2026-04-25T15:01:24.002Z</time></trkpt><trkpt lat="44.66552777320744" lon="9.271253812602133"><ele>899.0</ele><time>2026-04-25T15:01:25.002Z</time></trkpt><trkpt lat="44.66563241042883" lon="9.271339114888603"><ele>899.0</ele><time>2026-04-25T15:01:26.002Z</time></trkpt><trkpt lat="44.66576057367509" lon="9.27140800893761"><ele>899.0</ele><time>2026-04-25T15:01:27.002Z</time></trkpt><trkpt lat="44.66591028675432" lon="9.271440875245368"><ele>899.0</ele><time>2026-04-25T15:01:28.002Z</time></trkpt><trkpt lat="44.66606889046946" lon="9.271492835072483"><ele>886.3333333333334</ele><time>2026-04-25T15:01:29.002Z</time></trkpt><trkpt lat="44.66622820771001" lon="9.271570011054568"><ele>873.6666666666667</ele><time>2026-04-25T15:01:30.002Z</time></trkpt><trkpt lat="44.666396760175694" lon="9.271653832623377"><ele>861.0</ele><time>2026-04-25T15:01:31.002Z</time></trkpt><trkpt lat="44.66655171464627" lon="9.271727415608419"><ele>861.0</ele><time>2026-04-25T15:01:32.002Z</time></trkpt><trkpt lat="44.66668837551444" lon="9.271792420237004"><ele>861.0</ele><time>2026-04-25T15:01:33.001Z</time></trkpt><trkpt lat="44.66680832111815" lon="9.271855783376248"><ele>861.0</ele><time>2026-04-25T15:01:34.001Z</time></trkpt><trkpt lat="44.66691306831155" lon="9.271933066480551"><ele>861.0</ele><time>2026-04-25T15:01:35.001Z</time></trkpt><trkpt lat="44.66699836834504" lon="9.272051298942513"><ele>857.75</ele><time>2026-04-25T15:01:36.001Z</time></trkpt><trkpt lat="44.66709728098973" lon="9.272171120906739"><ele>854.5</ele><time>2026-04-25T15:01:37.001Z</time></trkpt><trkpt lat="44.66720229043002" lon="9.272283595876413"><ele>851.25</ele><time>2026-04-25T15:01:38.001Z</time></trkpt><trkpt lat="44.667325412352085" lon="9.272394155287438"><ele>848.0</ele><time>2026-04-25T15:01:39.001Z</time></trkpt><trkpt lat="44.66747079427055" lon="9.272496404411287"><ele>848.0</ele><time>2026-04-25T15:01:40.001Z</time></trkpt><trkpt lat="44.66761573183564" lon="9.272576704883683"><ele>848.0</ele><time>2026-04-25T15:01:41.001Z</time></trkpt><trkpt lat="44.66773385643453" lon="9.272639154269731"><ele>848.0</ele><time>2026-04-25T15:01:42.001Z</time></trkpt><trkpt lat="44.667819539622975" lon="9.27268511359863"><ele>848.0</ele><time>2026-04-25T15:01:43.001Z</time></trkpt><trkpt lat="44.66787528035291" lon="9.272727628246438"><ele>848.0</ele><time>2026-04-25T15:01:44.001Z</time></trkpt><trkpt lat="44.66792566743547" lon="9.272853948517817"><ele>848.0</ele><time>2026-04-25T15:01:46.001Z</time></trkpt><trkpt lat="44.66789996498397" lon="9.272999151147793"><ele>848.0</ele><time>2026-04-25T15:01:48.001Z</time></trkpt><trkpt lat="44.66786728778006" lon="9.273088966190436"><ele>848.0</ele><time>2026-04-25T15:01:49.001Z</time></trkpt><trkpt lat="44.66776533219408" lon="9.273125628193208"><ele>848.0</ele><time>2026-04-25T15:01:50.001Z</time></trkpt><trkpt lat="44.66765199959956" lon="9.273179987695473"><ele>848.0</ele><time>2026-04-25T15:01:51.001Z</time></trkpt><trkpt lat="44.66752264716273" lon="9.273207779982943"><ele>848.0</ele><time>2026-04-25T15:01:52.001Z</time></trkpt><trkpt lat="44.6674134884075" lon="9.273252445275036"><ele>848.0</ele><time>2026-04-25T15:01:53.001Z</time></trkpt><trkpt lat="44.667318164807554" lon="9.273312079574174"><ele>848.0</ele><time>2026-04-25T15:01:54.001Z</time></trkpt><trkpt lat="44.66723436453044" lon="9.273379874651077"><ele>848.0</ele><time>2026-04-25T15:01:55.001Z</time></trkpt><trkpt lat="44.667162308243775" lon="9.273475006974207"><ele>848.0</ele><time>2026-04-25T15:01:56.001Z</time></trkpt><trkpt lat="44.667083869347664" lon="9.273592310471932"><ele>848.0</ele><time>2026-04-25T15:01:57.001Z</time></trkpt><trkpt lat="44.66701852229819" lon="9.27373829327115"><ele>848.0</ele><time>2026-04-25T15:01:58.001Z</time></trkpt><trkpt lat="44.666963118093406" lon="9.273889407114986"><ele>848.0</ele><time>2026-04-25T15:01:59.001Z</time></trkpt><trkpt lat="44.66692396542912" lon="9.274029775453354"><ele>848.0</ele><time>2026-04-25T15:02:00.001Z</time></trkpt><trkpt lat="44.66690815003398" lon="9.274178538768018"><ele>847.5999999999999</ele><time>2026-04-25T15:02:01.001Z</time></trkpt><trkpt lat="44.66691920646705" lon="9.274338374067238"><ele>847.1999999999999</ele><time>2026-04-25T15:02:02.001Z</time></trkpt><trkpt lat="44.666946479633474" lon="9.27450173663001"><ele>846.8</ele><time>2026-04-25T15:02:03.001Z</time></trkpt><trkpt lat="44.6669584772867" lon="9.274638559439573"><ele>846.4</ele><time>2026-04-25T15:02:04.001Z</time></trkpt><trkpt lat="44.666945685769136" lon="9.274752912525756"><ele>846.0</ele><time>2026-04-25T15:02:05.001Z</time></trkpt><trkpt lat="44.66686778726594" lon="9.274872586317738"><ele>846.0</ele><time>2026-04-25T15:02:07.001Z</time></trkpt><trkpt lat="44.66680102368053" lon="9.274901176437108"><ele>846.0</ele><time>2026-04-25T15:02:08.001Z</time></trkpt><trkpt lat="44.666717478119736" lon="9.274964044021166"><ele>846.0</ele><time>2026-04-25T15:02:09.001Z</time></trkpt><trkpt lat="44.666622044112486" lon="9.274992122815368"><ele>846.0</ele><time>2026-04-25T15:02:10.001Z</time></trkpt><trkpt lat="44.66654560463589" lon="9.275033827044423"><ele>846.0</ele><time>2026-04-25T15:02:11.001Z</time></trkpt><trkpt lat="44.66648705959224" lon="9.275092985040244"><ele>846.0</ele><time>2026-04-25T15:02:12.001Z</time></trkpt><trkpt lat="44.66642594240883" lon="9.275149272108386"><ele>846.0</ele><time>2026-04-25T15:02:13.001Z</time></trkpt><trkpt lat="44.666394112503156" lon="9.275272614772403"><ele>846.0</ele><time>2026-04-25T15:02:14.001Z</time></trkpt><trkpt lat="44.666384229132994" lon="9.275420046072258"><ele>846.0</ele><time>2026-04-25T15:02:15.001Z</time></trkpt><trkpt lat="44.666390888850714" lon="9.275589553345778"><ele>846.0</ele><time>2026-04-25T15:02:16.001Z</time></trkpt><trkpt lat="44.66640009347671" lon="9.275743341295067"><ele>846.0</ele><time>2026-04-25T15:02:17.001Z</time></trkpt><trkpt lat="44.66641422862408" lon="9.27587025845763"><ele>846.0</ele><time>2026-04-25T15:02:18.001Z</time></trkpt><trkpt lat="44.66646582918973" lon="9.275983425655152"><ele>846.0</ele><time>2026-04-25T15:02:19.001Z</time></trkpt><trkpt lat="44.6665780638516" lon="9.2760655252875"><ele>846.0</ele><time>2026-04-25T15:02:20.001Z</time></trkpt><trkpt lat="44.66668186379938" lon="9.276153299635194"><ele>846.0</ele><time>2026-04-25T15:02:21.001Z</time></trkpt><trkpt lat="44.66678561503667" lon="9.276240711664446"><ele>846.0</ele><time>2026-04-25T15:02:22.001Z</time></trkpt><trkpt lat="44.66688964028647" lon="9.276337709400519"><ele>846.0</ele><time>2026-04-25T15:02:23.001Z</time></trkpt><trkpt lat="44.66698265873452" lon="9.27644761974162"><ele>846.0</ele><time>2026-04-25T15:02:24.001Z</time></trkpt><trkpt lat="44.667058195276745" lon="9.276592316701533"><ele>846.0</ele><time>2026-04-25T15:02:25.001Z</time></trkpt><trkpt lat="44.66713660781816" lon="9.276756083611861"><ele>844.3333333333333</ele><time>2026-04-25T15:02:26.001Z</time></trkpt><trkpt lat="44.667224168606104" lon="9.276939764681925"><ele>842.6666666666666</ele><time>2026-04-25T15:02:27.001Z</time></trkpt><trkpt lat="44.667306477167344" lon="9.277112427775677"><ele>841.0</ele><time>2026-04-25T15:02:28.001Z</time></trkpt><trkpt lat="44.66738991242827" lon="9.27728828096345"><ele>841.0</ele><time>2026-04-25T15:02:29.001Z</time></trkpt><trkpt lat="44.66747091439548" lon="9.277459514305887"><ele>841.0</ele><time>2026-04-25T15:02:30.001Z</time></trkpt><trkpt lat="44.66755019040561" lon="9.277620565403504"><ele>841.0</ele><time>2026-04-25T15:02:31.001Z</time></trkpt><trkpt lat="44.66762177227622" lon="9.277761193904537"><ele>841.0</ele><time>2026-04-25T15:02:32.001Z</time></trkpt><trkpt lat="44.66767435305319" lon="9.277873624741057"><ele>840.9999999999999</ele><time>2026-04-25T15:02:33.001Z</time></trkpt><trkpt lat="44.66771620229328" lon="9.277974244008465"><ele>841.0</ele><time>2026-04-25T15:02:34.001Z</time></trkpt><trkpt lat="44.667740058053944" lon="9.278075120499336"><ele>841.0</ele><time>2026-04-25T15:02:35.001Z</time></trkpt><trkpt lat="44.66773765428724" lon="9.278184159764688"><ele>841.0</ele><time>2026-04-25T15:02:36Z</time></trkpt><trkpt lat="44.66771001799068" lon="9.278306447355503"><ele>840.9999999999999</ele><time>2026-04-25T15:02:37Z</time></trkpt><trkpt lat="44.667662741107044" lon="9.278440257252015"><ele>841.0</ele><time>2026-04-25T15:02:38Z</time></trkpt><trkpt lat="44.66760701524659" lon="9.278604972827074"><ele>841.1999999999999</ele><time>2026-04-25T15:02:39Z</time></trkpt><trkpt lat="44.66755570890664" lon="9.278764280748566"><ele>841.4</ele><time>2026-04-25T15:02:40Z</time></trkpt><trkpt lat="44.66750831050847" lon="9.278899289458389"><ele>841.6</ele><time>2026-04-25T15:02:41Z</time></trkpt><trkpt lat="44.66745586472653" lon="9.278993723019838"><ele>841.8</ele><time>2026-04-25T15:02:42Z</time></trkpt><trkpt lat="44.66738225582954" lon="9.27904936925129"><ele>842.0</ele><time>2026-04-25T15:02:43Z</time></trkpt><trkpt lat="44.6672915873474" lon="9.279088668855966"><ele>842.0</ele><time>2026-04-25T15:02:44Z</time></trkpt><trkpt lat="44.6671878448337" lon="9.279142951276755"><ele>842.0</ele><time>2026-04-25T15:02:45Z</time></trkpt><trkpt lat="44.66708582073966" lon="9.279198772499452"><ele>842.0</ele><time>2026-04-25T15:02:46Z</time></trkpt><trkpt lat="44.66700768178264" lon="9.279252893650678"><ele>842.0</ele><time>2026-04-25T15:02:47Z</time></trkpt><trkpt lat="44.66695287662685" lon="9.27931615195632"><ele>842.0</ele><time>2026-04-25T15:02:48Z</time></trkpt><trkpt lat="44.666907156627474" lon="9.279419257042644"><ele>841.0</ele><time>2026-04-25T15:02:49Z</time></trkpt><trkpt lat="44.66688205179584" lon="9.279570152976712"><ele>840.0</ele><time>2026-04-25T15:02:50Z</time></trkpt><trkpt lat="44.66685992066341" lon="9.279734474307997"><ele>839.0</ele><time>2026-04-25T15:02:51Z</time></trkpt><trkpt lat="44.66683323477476" lon="9.27989478749929"><ele>838.0</ele><time>2026-04-25T15:02:52Z</time></trkpt><trkpt lat="44.6668002645764" lon="9.280017346130034"><ele>837.0</ele><time>2026-04-25T15:02:53Z</time></trkpt><trkpt lat="44.666751794125176" lon="9.280108365245827"><ele>837.0</ele><time>2026-04-25T15:02:54Z</time></trkpt><trkpt lat="44.66668001918654" lon="9.280194032613817"><ele>837.0</ele><time>2026-04-25T15:02:55Z</time></trkpt><trkpt lat="44.666582819071365" lon="9.280244212210663"><ele>837.0</ele><time>2026-04-25T15:02:56Z</time></trkpt><trkpt lat="44.66646705655723" lon="9.280301368516078"><ele>837.0</ele><time>2026-04-25T15:02:57Z</time></trkpt><trkpt lat="44.66635718448665" lon="9.280360330600672"><ele>837.0</ele><time>2026-04-25T15:02:58Z</time></trkpt><trkpt lat="44.66627039217985" lon="9.280419954377763"><ele>837.0</ele><time>2026-04-25T15:02:59Z</time></trkpt><trkpt lat="44.66620443431103" lon="9.280486054105245"><ele>837.0</ele><time>2026-04-25T15:03:00Z</time></trkpt><trkpt lat="44.666156098150935" lon="9.28058873509921"><ele>837.0</ele><time>2026-04-25T15:03:01Z</time></trkpt><trkpt lat="44.666128650594274" lon="9.280702910204687"><ele>837.0</ele><time>2026-04-25T15:03:02Z</time></trkpt><trkpt lat="44.666127847596194" lon="9.280842887669298"><ele>837.0</ele><time>2026-04-25T15:03:03Z</time></trkpt><trkpt lat="44.66616702651862" lon="9.280995704572934"><ele>838.8</ele><time>2026-04-25T15:03:04Z</time></trkpt><trkpt lat="44.66620804477266" lon="9.281128722324187"><ele>840.6</ele><time>2026-04-25T15:03:05Z</time></trkpt><trkpt lat="44.666244345181646" lon="9.281260160491572"><ele>842.4</ele><time>2026-04-25T15:03:06Z</time></trkpt><trkpt lat="44.666260914101485" lon="9.281381619901655"><ele>844.1999999999999</ele><time>2026-04-25T15:03:07Z</time></trkpt><trkpt lat="44.66624593290423" lon="9.281493968593258"><ele>846.0</ele><time>2026-04-25T15:03:08Z</time></trkpt><trkpt lat="44.66620492003777" lon="9.281625524276492"><ele>847.5999999999999</ele><time>2026-04-25T15:03:09Z</time></trkpt><trkpt lat="44.66614958004311" lon="9.281759882096157"><ele>849.2</ele><time>2026-04-25T15:03:10Z</time></trkpt><trkpt lat="44.666104002193926" lon="9.281889471089109"><ele>850.8000000000001</ele><time>2026-04-25T15:03:11Z</time></trkpt><trkpt lat="44.66608546910962" lon="9.282047892145878"><ele>852.4000000000001</ele><time>2026-04-25T15:03:12Z</time></trkpt><trkpt lat="44.666091492244625" lon="9.28221143006614"><ele>854.0</ele><time>2026-04-25T15:03:13Z</time></trkpt><trkpt lat="44.66611424283428" lon="9.282386357843833"><ele>854.0</ele><time>2026-04-25T15:03:14Z</time></trkpt><trkpt lat="44.66613149912615" lon="9.28253254545758"><ele>854.0000000000001</ele><time>2026-04-25T15:03:15Z</time></trkpt><trkpt lat="44.66613639499243" lon="9.282671331883718"><ele>854.0000000000001</ele><time>2026-04-25T15:03:16Z</time></trkpt><trkpt lat="44.666118265466054" lon="9.282801168367946"><ele>854.0</ele><time>2026-04-25T15:03:17Z</time></trkpt><trkpt lat="44.66612186002488" lon="9.28296414571929"><ele>854.0</ele><time>2026-04-25T15:03:18Z</time></trkpt><trkpt lat="44.6660669176159" lon="9.283117164031514"><ele>845.8000000000001</ele><time>2026-04-25T15:03:19Z</time></trkpt><trkpt lat="44.66601386494165" lon="9.283264646930371"><ele>837.6000000000001</ele><time>2026-04-25T15:03:20Z</time></trkpt><trkpt lat="44.66596872510785" lon="9.283389258385807"><ele>829.4</ele><time>2026-04-25T15:03:21Z</time></trkpt><trkpt lat="44.66593521195392" lon="9.283500330126827"><ele>821.2</ele><time>2026-04-25T15:03:22Z</time></trkpt><trkpt lat="44.66593707392148" lon="9.283632022646419"><ele>813.0</ele><time>2026-04-25T15:03:23.001Z</time></trkpt><trkpt lat="44.66596560610877" lon="9.283774189548472"><ele>813.25</ele><time>2026-04-25T15:03:24.001Z</time></trkpt><trkpt lat="44.66596918801937" lon="9.283940294219674"><ele>813.5</ele><time>2026-04-25T15:03:25.001Z</time></trkpt><trkpt lat="44.665999002038205" lon="9.284108787411853"><ele>813.75</ele><time>2026-04-25T15:03:26.001Z</time></trkpt><trkpt lat="44.66603022813561" lon="9.284285367619526"><ele>814.0</ele><time>2026-04-25T15:03:27.001Z</time></trkpt><trkpt lat="44.66605881798367" lon="9.284450601912521"><ele>814.0</ele><time>2026-04-25T15:03:28.001Z</time></trkpt><trkpt lat="44.66608097931981" lon="9.28460346889685"><ele>814.0</ele><time>2026-04-25T15:03:29.001Z</time></trkpt><trkpt lat="44.66608165423226" lon="9.284731702332007"><ele>814.0</ele><time>2026-04-25T15:03:30.001Z</time></trkpt><trkpt lat="44.66604917187174" lon="9.28484145409756"><ele>814.0</ele><time>2026-04-25T15:03:31.001Z</time></trkpt><trkpt lat="44.666012153644125" lon="9.284972304361377"><ele>814.0</ele><time>2026-04-25T15:03:32.001Z</time></trkpt><trkpt lat="44.665977985255914" lon="9.28510754395747"><ele>813.4000000000001</ele><time>2026-04-25T15:03:33.001Z</time></trkpt><trkpt lat="44.66594597967306" lon="9.285230398119328"><ele>812.8</ele><time>2026-04-25T15:03:34.001Z</time></trkpt><trkpt lat="44.665911140852096" lon="9.285344366733238"><ele>812.2</ele><time>2026-04-25T15:03:35.001Z</time></trkpt><trkpt lat="44.665865157058946" lon="9.285444955892887"><ele>811.5999999999999</ele><time>2026-04-25T15:03:36.001Z</time></trkpt><trkpt lat="44.665795971371146" lon="9.28552490357708"><ele>811.0</ele><time>2026-04-25T15:03:37.001Z</time></trkpt><trkpt lat="44.66570100703243" lon="9.285578138822583"><ele>810.9999999999999</ele><time>2026-04-25T15:03:38.001Z</time></trkpt><trkpt lat="44.66562368959802" lon="9.285644312391947"><ele>811.0</ele><time>2026-04-25T15:03:39.001Z</time></trkpt><trkpt lat="44.665573181032414" lon="9.285726379240963"><ele>811.0</ele><time>2026-04-25T15:03:40Z</time></trkpt><trkpt lat="44.66553401003024" lon="9.285840067430945"><ele>811.0</ele><time>2026-04-25T15:03:41Z</time></trkpt><trkpt lat="44.66551428544024" lon="9.28596886383432"><ele>810.9999999999999</ele><time>2026-04-25T15:03:42Z</time></trkpt><trkpt lat="44.665515054205805" lon="9.286099987865773"><ele>811.0</ele><time>2026-04-25T15:03:43Z</time></trkpt><trkpt lat="44.66553183474545" lon="9.286222321482434"><ele>810.9999999999999</ele><time>2026-04-25T15:03:44Z</time></trkpt><trkpt lat="44.665548373447095" lon="9.286340281035507"><ele>811.0</ele><time>2026-04-25T15:03:45Z</time></trkpt><trkpt lat="44.66556645497925" lon="9.286457493903196"><ele>811.0</ele><time>2026-04-25T15:03:46Z</time></trkpt><trkpt lat="44.665585828600705" lon="9.28656918213951"><ele>811.0</ele><time>2026-04-25T15:03:47Z</time></trkpt><trkpt lat="44.665613868509226" lon="9.286685943996924"><ele>810.9999999999999</ele><time>2026-04-25T15:03:48Z</time></trkpt><trkpt lat="44.66564145424826" lon="9.28679675365687"><ele>811.0</ele><time>2026-04-25T15:03:49Z</time></trkpt><trkpt lat="44.66567001175528" lon="9.286910667427623"><ele>811.1666666666666</ele><time>2026-04-25T15:03:50Z</time></trkpt><trkpt lat="44.66569564856739" lon="9.287020396074501"><ele>811.3333333333333</ele><time>2026-04-25T15:03:51Z</time></trkpt><trkpt lat="44.66570594150172" lon="9.287132830692366"><ele>811.5</ele><time>2026-04-25T15:03:52Z</time></trkpt><trkpt lat="44.66569803786371" lon="9.287252358018332"><ele>811.6666666666667</ele><time>2026-04-25T15:03:53Z</time></trkpt><trkpt lat="44.665639533272184" lon="9.287342748310932"><ele>811.8333333333334</ele><time>2026-04-25T15:03:54Z</time></trkpt><trkpt lat="44.66557059581462" lon="9.287454170729593"><ele>812.0</ele><time>2026-04-25T15:03:55Z</time></trkpt><trkpt lat="44.66550298585386" lon="9.287560870869763"><ele>811.6</ele><time>2026-04-25T15:03:56Z</time></trkpt><trkpt lat="44.66544765889866" lon="9.28765831588041"><ele>811.2</ele><time>2026-04-25T15:03:57Z</time></trkpt><trkpt lat="44.66540782773912" lon="9.287762398467999"><ele>810.8</ele><time>2026-04-25T15:03:58Z</time></trkpt><trkpt lat="44.66541694970519" lon="9.287920789178463"><ele>810.4</ele><time>2026-04-25T15:03:59Z</time></trkpt><trkpt lat="44.66543787429623" lon="9.288086441820639"><ele>810.0</ele><time>2026-04-25T15:04:00Z</time></trkpt><trkpt lat="44.66545310361196" lon="9.288249815074055"><ele>810.2</ele><time>2026-04-25T15:04:01Z</time></trkpt><trkpt lat="44.66545982231994" lon="9.288413292611681"><ele>810.4</ele><time>2026-04-25T15:04:02Z</time></trkpt><trkpt lat="44.665449646185905" lon="9.288561438517883"><ele>810.5999999999999</ele><time>2026-04-25T15:04:03Z</time></trkpt><trkpt lat="44.665410239684704" lon="9.288693070579887"><ele>810.8</ele><time>2026-04-25T15:04:04Z</time></trkpt><trkpt lat="44.66535469936583" lon="9.288825332222014"><ele>811.0</ele><time>2026-04-25T15:04:05Z</time></trkpt><trkpt lat="44.66529158935264" lon="9.288953332550173"><ele>805.0</ele><time>2026-04-25T15:04:06Z</time></trkpt><trkpt lat="44.665217370717215" lon="9.289065667485454"><ele>799.0</ele><time>2026-04-25T15:04:07Z</time></trkpt><trkpt lat="44.66512796833656" lon="9.28914876165692"><ele>793.0</ele><time>2026-04-25T15:04:08Z</time></trkpt><trkpt lat="44.665039711857936" lon="9.289234130608754"><ele>787.0</ele><time>2026-04-25T15:04:09Z</time></trkpt><trkpt lat="44.6649607700772" lon="9.289318504501663"><ele>781.0</ele><time>2026-04-25T15:04:10Z</time></trkpt><trkpt lat="44.664915203146876" lon="9.289460833186764"><ele>781.0</ele><time>2026-04-25T15:04:11Z</time></trkpt><trkpt lat="44.66487356040158" lon="9.289612694305108"><ele>781.0</ele><time>2026-04-25T15:04:12Z</time></trkpt><trkpt lat="44.66483391729558" lon="9.289784762776689"><ele>781.0</ele><time>2026-04-25T15:04:13Z</time></trkpt><trkpt lat="44.66478763816868" lon="9.289960883721399"><ele>781.0</ele><time>2026-04-25T15:04:14Z</time></trkpt><trkpt lat="44.6647327896308" lon="9.290125263112277"><ele>783.0</ele><time>2026-04-25T15:04:15Z</time></trkpt><trkpt lat="44.664672647921" lon="9.290283593652108"><ele>785.0</ele><time>2026-04-25T15:04:16Z</time></trkpt><trkpt lat="44.664616413612265" lon="9.290427317336393"><ele>787.0</ele><time>2026-04-25T15:04:17Z</time></trkpt><trkpt lat="44.664560350464996" lon="9.290550450644634"><ele>789.0</ele><time>2026-04-25T15:04:18Z</time></trkpt><trkpt lat="44.664512059539305" lon="9.290684018301175"><ele>784.25</ele><time>2026-04-25T15:04:19Z</time></trkpt><trkpt lat="44.66442191066436" lon="9.290780890790558"><ele>779.5</ele><time>2026-04-25T15:04:20Z</time></trkpt><trkpt lat="44.66432270383854" lon="9.290874358127969"><ele>774.75</ele><time>2026-04-25T15:04:21Z</time></trkpt><trkpt lat="44.664217962163825" lon="9.290966076811209"><ele>770.0</ele><time>2026-04-25T15:04:22Z</time></trkpt><trkpt lat="44.66409628743734" lon="9.291043599091246"><ele>770.0</ele><time>2026-04-25T15:04:23Z</time></trkpt><trkpt lat="44.663986078486374" lon="9.291152051120685"><ele>770.0</ele><time>2026-04-25T15:04:24Z</time></trkpt><trkpt lat="44.66387907697313" lon="9.291257346738815"><ele>770.0</ele><time>2026-04-25T15:04:25Z</time></trkpt><trkpt lat="44.66377421590261" lon="9.291360536095736"><ele>770.0</ele><time>2026-04-25T15:04:26Z</time></trkpt><trkpt lat="44.66367040510882" lon="9.291466410673582"><ele>768.25</ele><time>2026-04-25T15:04:27Z</time></trkpt><trkpt lat="44.663572879731824" lon="9.291575507125518"><ele>766.5</ele><time>2026-04-25T15:04:28Z</time></trkpt><trkpt lat="44.663476555247044" lon="9.291684638032994"><ele>764.75</ele><time>2026-04-25T15:04:29Z</time></trkpt><trkpt lat="44.663381222493854" lon="9.291793091368206"><ele>763.0</ele><time>2026-04-25T15:04:30Z</time></trkpt><trkpt lat="44.66328688473787" lon="9.291899348853695"><ele>763.0</ele><time>2026-04-25T15:04:31Z</time></trkpt><trkpt lat="44.66318803508839" lon="9.291993138936197"><ele>763.0</ele><time>2026-04-25T15:04:32Z</time></trkpt><trkpt lat="44.663079042302186" lon="9.292057316211544"><ele>763.0</ele><time>2026-04-25T15:04:33Z</time></trkpt><trkpt lat="44.662960126613974" lon="9.292120086621194"><ele>763.0</ele><time>2026-04-25T15:04:34Z</time></trkpt><trkpt lat="44.662828327736" lon="9.292109646240123"><ele>763.0</ele><time>2026-04-25T15:04:35Z</time></trkpt><trkpt lat="44.6627035623667" lon="9.292144444834499"><ele>763.0</ele><time>2026-04-25T15:04:36Z</time></trkpt><trkpt lat="44.66258856569518" lon="9.29216366943425"><ele>763.0</ele><time>2026-04-25T15:04:37Z</time></trkpt><trkpt lat="44.66247878421671" lon="9.292216359147416"><ele>763.0</ele><time>2026-04-25T15:04:38Z</time></trkpt><trkpt lat="44.662373657337454" lon="9.29230278558659"><ele>763.0</ele><time>2026-04-25T15:04:39Z</time></trkpt><trkpt lat="44.66225934119994" lon="9.292365133086253"><ele>763.0</ele><time>2026-04-25T15:04:40Z</time></trkpt><trkpt lat="44.66214495244402" lon="9.292451094012952"><ele>763.0</ele><time>2026-04-25T15:04:41Z</time></trkpt><trkpt lat="44.66204062516693" lon="9.292523492279377"><ele>763.0</ele><time>2026-04-25T15:04:42Z</time></trkpt><trkpt lat="44.66197350629027" lon="9.292579308685617"><ele>763.0</ele><time>2026-04-25T15:04:43Z</time></trkpt><trkpt lat="44.66189773686198" lon="9.292652596777392"><ele>762.4</ele><time>2026-04-25T15:04:44Z</time></trkpt><trkpt lat="44.66184194999307" lon="9.29276018230927"><ele>761.8</ele><time>2026-04-25T15:04:45Z</time></trkpt><trkpt lat="44.661778008601225" lon="9.292868788429898"><ele>761.2</ele><time>2026-04-25T15:04:46Z</time></trkpt><trkpt lat="44.661719550958345" lon="9.292984722494193"><ele>760.6</ele><time>2026-04-25T15:04:47Z</time></trkpt><trkpt lat="44.66165915780816" lon="9.293094277290948"><ele>760.0</ele><time>2026-04-25T15:04:48Z</time></trkpt><trkpt lat="44.66159565134805" lon="9.293202154153928"><ele>760.0</ele><time>2026-04-25T15:04:49Z</time></trkpt><trkpt lat="44.661505206669595" lon="9.293271791602072"><ele>760.0</ele><time>2026-04-25T15:04:50Z</time></trkpt><trkpt lat="44.66140527124438" lon="9.293313903717575"><ele>760.0</ele><time>2026-04-25T15:04:51Z</time></trkpt><trkpt lat="44.66128866499406" lon="9.293316559396574"><ele>760.0</ele><time>2026-04-25T15:04:52Z</time></trkpt><trkpt lat="44.661164282939176" lon="9.293284445313358"><ele>761.75</ele><time>2026-04-25T15:04:53Z</time></trkpt><trkpt lat="44.661036012672135" lon="9.293224088391257"><ele>763.5</ele><time>2026-04-25T15:04:54Z</time></trkpt><trkpt lat="44.66091207339489" lon="9.293164272387997"><ele>765.25</ele><time>2026-04-25T15:04:55Z</time></trkpt><trkpt lat="44.66079753646767" lon="9.293084740542318"><ele>767.0</ele><time>2026-04-25T15:04:56Z</time></trkpt><trkpt lat="44.660689207482214" lon="9.29299699643188"><ele>761.0</ele><time>2026-04-25T15:04:57Z</time></trkpt><trkpt lat="44.66058144934739" lon="9.292896848616467"><ele>755.0</ele><time>2026-04-25T15:04:58Z</time></trkpt><trkpt lat="44.660468663494775" lon="9.292793038341948"><ele>749.0</ele><time>2026-04-25T15:04:59Z</time></trkpt><trkpt lat="44.66035284379611" lon="9.292686435606974"><ele>743.0</ele><time>2026-04-25T15:05:00Z</time></trkpt><trkpt lat="44.66024526177766" lon="9.292589286554453"><ele>743.0</ele><time>2026-04-25T15:05:01Z</time></trkpt><trkpt lat="44.66013925337635" lon="9.292523573179492"><ele>743.0</ele><time>2026-04-25T15:05:02Z</time></trkpt><trkpt lat="44.66005741380146" lon="9.292462567392885"><ele>743.0</ele><time>2026-04-25T15:05:03Z</time></trkpt><trkpt lat="44.65997852458048" lon="9.292435673487068"><ele>743.0</ele><time>2026-04-25T15:05:04Z</time></trkpt><trkpt lat="44.659883661066864" lon="9.292432460485504"><ele>743.0</ele><time>2026-04-25T15:05:05Z</time></trkpt><trkpt lat="44.65976739878308" lon="9.29246224912024"><ele>743.0</ele><time>2026-04-25T15:05:06Z</time></trkpt><trkpt lat="44.65963434407829" lon="9.292500745824412"><ele>743.0</ele><time>2026-04-25T15:05:07Z</time></trkpt><trkpt lat="44.65949234559159" lon="9.292531030147432"><ele>743.0</ele><time>2026-04-25T15:05:08Z</time></trkpt><trkpt lat="44.65934022248696" lon="9.292556546916844"><ele>743.0</ele><time>2026-04-25T15:05:09Z</time></trkpt><trkpt lat="44.659190257230186" lon="9.292635153475407"><ele>740.25</ele><time>2026-04-25T15:05:10Z</time></trkpt><trkpt lat="44.65904189475067" lon="9.292694829112325"><ele>737.5</ele><time>2026-04-25T15:05:11Z</time></trkpt><trkpt lat="44.658897849653535" lon="9.292744461608544"><ele>734.75</ele><time>2026-04-25T15:05:12Z</time></trkpt><trkpt lat="44.65875629016284" lon="9.29279015104561"><ele>732.0</ele><time>2026-04-25T15:05:13Z</time></trkpt><trkpt lat="44.65862031120195" lon="9.29284428629261"><ele>727.5</ele><time>2026-04-25T15:05:14Z</time></trkpt><trkpt lat="44.65848558323525" lon="9.292897258074964"><ele>723.0</ele><time>2026-04-25T15:05:15Z</time></trkpt><trkpt lat="44.65835222102136" lon="9.292951327760989"><ele>718.5</ele><time>2026-04-25T15:05:16Z</time></trkpt><trkpt lat="44.658221585246714" lon="9.293009655276592"><ele>714.0</ele><time>2026-04-25T15:05:17Z</time></trkpt><trkpt lat="44.65809111844288" lon="9.29307730270044"><ele>717.0</ele><time>2026-04-25T15:05:18Z</time></trkpt><trkpt lat="44.657962398760255" lon="9.293144001814358"><ele>720.0</ele><time>2026-04-25T15:05:19Z</time></trkpt><trkpt lat="44.65783325612323" lon="9.293201496448313"><ele>723.0</ele><time>2026-04-25T15:05:20Z</time></trkpt><trkpt lat="44.657709640294094" lon="9.293263501790287"><ele>726.0</ele><time>2026-04-25T15:05:21Z</time></trkpt><trkpt lat="44.65759473481248" lon="9.29334107370425"><ele>726.0</ele><time>2026-04-25T15:05:22Z</time></trkpt><trkpt lat="44.657483546423485" lon="9.293419470094092"><ele>726.0</ele><time>2026-04-25T15:05:23Z</time></trkpt><trkpt lat="44.65737146643894" lon="9.293496405929245"><ele>726.0</ele><time>2026-04-25T15:05:23.999Z</time></trkpt><trkpt lat="44.657252678926625" lon="9.293550547578961"><ele>726.0</ele><time>2026-04-25T15:05:24.999Z</time></trkpt><trkpt lat="44.65713794271175" lon="9.293549081702308"><ele>726.0</ele><time>2026-04-25T15:05:25.999Z</time></trkpt><trkpt lat="44.6570184670781" lon="9.293529848916812"><ele>726.0</ele><time>2026-04-25T15:05:26.999Z</time></trkpt><trkpt lat="44.65689272798794" lon="9.29352172102234"><ele>726.0</ele><time>2026-04-25T15:05:27.999Z</time></trkpt><trkpt lat="44.656775983456825" lon="9.293509396846096"><ele>726.0</ele><time>2026-04-25T15:05:29Z</time></trkpt><trkpt lat="44.656668292833196" lon="9.293522960531673"><ele>721.0</ele><time>2026-04-25T15:05:30Z</time></trkpt><trkpt lat="44.65656404048029" lon="9.293577448825"><ele>716.0</ele><time>2026-04-25T15:05:31Z</time></trkpt><trkpt lat="44.65646069684438" lon="9.293669061800912"><ele>711.0</ele><time>2026-04-25T15:05:32Z</time></trkpt><trkpt lat="44.65635340268937" lon="9.293736157807821"><ele>706.0</ele><time>2026-04-25T15:05:33Z</time></trkpt><trkpt lat="44.656219326849566" lon="9.293726254073468"><ele>707.0</ele><time>2026-04-25T15:05:34Z</time></trkpt><trkpt lat="44.65609180443961" lon="9.293703626161715"><ele>708.0</ele><time>2026-04-25T15:05:35Z</time></trkpt><trkpt lat="44.655961627128576" lon="9.29364588131583"><ele>709.0</ele><time>2026-04-25T15:05:36Z</time></trkpt><trkpt lat="44.65583553680889" lon="9.293566834476046"><ele>710.0</ele><time>2026-04-25T15:05:37Z</time></trkpt><trkpt lat="44.655705010146704" lon="9.293503301713356"><ele>710.0</ele><time>2026-04-25T15:05:38Z</time></trkpt><trkpt lat="44.655580546817" lon="9.29343649253499"><ele>710.0</ele><time>2026-04-25T15:05:39Z</time></trkpt><trkpt lat="44.655454459517166" lon="9.293371672583168"><ele>710.0</ele><time>2026-04-25T15:05:40Z</time></trkpt><trkpt lat="44.65532917372787" lon="9.293303731139162"><ele>710.0</ele><time>2026-04-25T15:05:41Z</time></trkpt><trkpt lat="44.65520346434074" lon="9.29325855298076"><ele>711.0</ele><time>2026-04-25T15:05:42Z</time></trkpt><trkpt lat="44.655083989587865" lon="9.293199144458459"><ele>712.0</ele><time>2026-04-25T15:05:43Z</time></trkpt><trkpt lat="44.65497004858974" lon="9.293133290538675"><ele>713.0</ele><time>2026-04-25T15:05:44Z</time></trkpt><trkpt lat="44.65485958907733" lon="9.293064495880547"><ele>714.0</ele><time>2026-04-25T15:05:45Z</time></trkpt><trkpt lat="44.65474445772579" lon="9.293008447469798"><ele>706.6</ele><time>2026-04-25T15:05:46Z</time></trkpt><trkpt lat="44.654624396779596" lon="9.292969390099719"><ele>699.2</ele><time>2026-04-25T15:05:47Z</time></trkpt><trkpt lat="44.65450823713753" lon="9.292953141569894"><ele>691.8000000000001</ele><time>2026-04-25T15:05:48Z</time></trkpt><trkpt lat="44.65441363301439" lon="9.292949550845059"><ele>684.4000000000001</ele><time>2026-04-25T15:05:49Z</time></trkpt><trkpt lat="44.6543415444514" lon="9.292951563517235"><ele>677.0</ele><time>2026-04-25T15:05:50Z</time></trkpt><trkpt lat="44.654238242778476" lon="9.29295759983172"><ele>677.0</ele><time>2026-04-25T15:05:52Z</time></trkpt><trkpt lat="44.65416395835702" lon="9.292992240122906"><ele>677.0</ele><time>2026-04-25T15:05:55Z</time></trkpt><trkpt lat="44.65410645253409" lon="9.293108857661686"><ele>677.0</ele><time>2026-04-25T15:06:06Z</time></trkpt><trkpt lat="44.65407408965995" lon="9.293197557113416"><ele>677.0</ele><time>2026-04-25T15:06:07Z</time></trkpt><trkpt lat="44.65405969672824" lon="9.29332203115765"><ele>677.0</ele><time>2026-04-25T15:06:08Z</time></trkpt><trkpt lat="44.654062029423386" lon="9.293464669553531"><ele>677.0</ele><time>2026-04-25T15:06:09Z</time></trkpt><trkpt lat="44.6540644385544" lon="9.293620574823132"><ele>683.0</ele><time>2026-04-25T15:06:10Z</time></trkpt><trkpt lat="44.65404725721462" lon="9.293807960519093"><ele>689.0</ele><time>2026-04-25T15:06:11Z</time></trkpt><trkpt lat="44.65400714665562" lon="9.294012956133901"><ele>695.0</ele><time>2026-04-25T15:06:12Z</time></trkpt><trkpt lat="44.653950802088644" lon="9.294193536000236"><ele>701.0</ele><time>2026-04-25T15:06:13Z</time></trkpt><trkpt lat="44.65392810529552" lon="9.294386785318203"><ele>701.75</ele><time>2026-04-25T15:06:14Z</time></trkpt><trkpt lat="44.653899191007014" lon="9.294586746260709"><ele>702.5</ele><time>2026-04-25T15:06:15Z</time></trkpt><trkpt lat="44.653871337933026" lon="9.294782712107324"><ele>703.25</ele><time>2026-04-25T15:06:16Z</time></trkpt><trkpt lat="44.65385717268668" lon="9.29496010911965"><ele>704.0</ele><time>2026-04-25T15:06:17Z</time></trkpt><trkpt lat="44.65382370419587" lon="9.295107640034152"><ele>704.5</ele><time>2026-04-25T15:06:18Z</time></trkpt><trkpt lat="44.65378307353144" lon="9.295246139478408"><ele>705.0</ele><time>2026-04-25T15:06:19Z</time></trkpt><trkpt lat="44.65369504577247" lon="9.295350869109972"><ele>705.5</ele><time>2026-04-25T15:06:20Z</time></trkpt><trkpt lat="44.653575176055966" lon="9.295401432070152"><ele>706.0</ele><time>2026-04-25T15:06:21Z</time></trkpt><trkpt lat="44.65346412434462" lon="9.295484316666313"><ele>701.8</ele><time>2026-04-25T15:06:22Z</time></trkpt><trkpt lat="44.653365295942244" lon="9.295563355214188"><ele>697.5999999999999</ele><time>2026-04-25T15:06:23Z</time></trkpt><trkpt lat="44.653282743168376" lon="9.295661778879902"><ele>693.4</ele><time>2026-04-25T15:06:24Z</time></trkpt><trkpt lat="44.653224657577695" lon="9.295773195382603"><ele>689.2</ele><time>2026-04-25T15:06:25Z</time></trkpt><trkpt lat="44.65319331702573" lon="9.295905304452067"><ele>685.0</ele><time>2026-04-25T15:06:26Z</time></trkpt><trkpt lat="44.65316876569043" lon="9.296070814221485"><ele>685.0</ele><time>2026-04-25T15:06:27Z</time></trkpt><trkpt lat="44.653165853874214" lon="9.296262711964616"><ele>685.0</ele><time>2026-04-25T15:06:28Z</time></trkpt><trkpt lat="44.65317481224263" lon="9.296472656975924"><ele>685.0</ele><time>2026-04-25T15:06:29Z</time></trkpt><trkpt lat="44.65317710900247" lon="9.296682188731388"><ele>685.0</ele><time>2026-04-25T15:06:30Z</time></trkpt><trkpt lat="44.65317555896067" lon="9.296884470148546"><ele>684.75</ele><time>2026-04-25T15:06:31Z</time></trkpt><trkpt lat="44.65318382435774" lon="9.29708376997351"><ele>684.5</ele><time>2026-04-25T15:06:32Z</time></trkpt><trkpt lat="44.65315517692131" lon="9.297277653885857"><ele>684.25</ele><time>2026-04-25T15:06:33Z</time></trkpt><trkpt lat="44.6530943334997" lon="9.297462442214268"><ele>684.0</ele><time>2026-04-25T15:06:33.999Z</time></trkpt><trkpt lat="44.65302361610598" lon="9.297636800877697"><ele>685.0</ele><time>2026-04-25T15:06:34.999Z</time></trkpt><trkpt lat="44.652961819011416" lon="9.29780033731623"><ele>686.0</ele><time>2026-04-25T15:06:35.999Z</time></trkpt><trkpt lat="44.65289807266899" lon="9.297942404416084"><ele>687.0</ele><time>2026-04-25T15:06:36.999Z</time></trkpt><trkpt lat="44.65286163982656" lon="9.298105778582915"><ele>688.0</ele><time>2026-04-25T15:06:37.999Z</time></trkpt><trkpt lat="44.65285426535701" lon="9.298297479632632"><ele>688.25</ele><time>2026-04-25T15:06:38.999Z</time></trkpt><trkpt lat="44.652870957605764" lon="9.298502656339572"><ele>688.5</ele><time>2026-04-25T15:06:39.999Z</time></trkpt><trkpt lat="44.652868471334074" lon="9.29871623815793"><ele>688.75</ele><time>2026-04-25T15:06:40.999Z</time></trkpt><trkpt lat="44.65285063612514" lon="9.29891667730089"><ele>689.0</ele><time>2026-04-25T15:06:41.999Z</time></trkpt><trkpt lat="44.65281381866718" lon="9.299117933985034"><ele>680.3333333333333</ele><time>2026-04-25T15:06:42.999Z</time></trkpt><trkpt lat="44.65276855795645" lon="9.2993231436469"><ele>671.6666666666666</ele><time>2026-04-25T15:06:43.999Z</time></trkpt><trkpt lat="44.652738160958286" lon="9.299533188296754"><ele>663.0</ele><time>2026-04-25T15:06:44.999Z</time></trkpt><trkpt lat="44.652701633117765" lon="9.299768540805685"><ele>662.3333333333334</ele><time>2026-04-25T15:06:45.999Z</time></trkpt><trkpt lat="44.65270442765399" lon="9.300029070508016"><ele>661.6666666666667</ele><time>2026-04-25T15:06:46.999Z</time></trkpt><trkpt lat="44.65268978051859" lon="9.300288755885113"><ele>661.0</ele><time>2026-04-25T15:06:47.999Z</time></trkpt><trkpt lat="44.65265626669389" lon="9.300531297123424"><ele>661.0</ele><time>2026-04-25T15:06:48.999Z</time></trkpt><trkpt lat="44.65263489955235" lon="9.30077214372674"><ele>661.0</ele><time>2026-04-25T15:06:49.999Z</time></trkpt><trkpt lat="44.65263157382882" lon="9.301009958669553"><ele>661.0</ele><time>2026-04-25T15:06:50.999Z</time></trkpt><trkpt lat="44.65261524865695" lon="9.3012274224346"><ele>660.0</ele><time>2026-04-25T15:06:51.999Z</time></trkpt><trkpt lat="44.652591995690976" lon="9.30142272585934"><ele>659.0</ele><time>2026-04-25T15:06:52.999Z</time></trkpt><trkpt lat="44.65258753926017" lon="9.301605549593617"><ele>658.0</ele><time>2026-04-25T15:06:53.999Z</time></trkpt><trkpt lat="44.65258696119986" lon="9.301776141359548"><ele>657.0</ele><time>2026-04-25T15:06:54.999Z</time></trkpt><trkpt lat="44.652588644919234" lon="9.301927175149675"><ele>657.0</ele><time>2026-04-25T15:06:55.999Z</time></trkpt><trkpt lat="44.652590175706266" lon="9.302057517903739"><ele>657.0</ele><time>2026-04-25T15:06:56.999Z</time></trkpt><trkpt lat="44.65258722136906" lon="9.302157956235192"><ele>657.0</ele><time>2026-04-25T15:06:57.999Z</time></trkpt><trkpt lat="44.652520261655894" lon="9.302272180308433"><ele>657.0</ele><time>2026-04-25T15:06:59.999Z</time></trkpt><trkpt lat="44.65245668857488" lon="9.302236987266797"><ele>657.0</ele><time>2026-04-25T15:07:00.999Z</time></trkpt><trkpt lat="44.65242274835044" lon="9.302145174885695"><ele>657.0</ele><time>2026-04-25T15:07:01.999Z</time></trkpt><trkpt lat="44.65241518464359" lon="9.302013072815505"><ele>657.0</ele><time>2026-04-25T15:07:02.999Z</time></trkpt><trkpt lat="44.65240404436161" lon="9.301861902519393"><ele>657.0</ele><time>2026-04-25T15:07:03.999Z</time></trkpt><trkpt lat="44.65238079361576" lon="9.30168157027749"><ele>657.0</ele><time>2026-04-25T15:07:04.999Z</time></trkpt><trkpt lat="44.652362200785234" lon="9.301507485668703"><ele>657.0</ele><time>2026-04-25T15:07:05.999Z</time></trkpt><trkpt lat="44.652349300519276" lon="9.30132479038868"><ele>658.0</ele><time>2026-04-25T15:07:06.999Z</time></trkpt><trkpt lat="44.65233667661188" lon="9.301147114810808"><ele>659.0</ele><time>2026-04-25T15:07:07.999Z</time></trkpt><trkpt lat="44.652326181733606" lon="9.300971701221313"><ele>660.0</ele><time>2026-04-25T15:07:08.999Z</time></trkpt><trkpt lat="44.65230623419109" lon="9.300806181654359"><ele>661.0</ele><time>2026-04-25T15:07:09.999Z</time></trkpt><trkpt lat="44.652264654939856" lon="9.300652451728753"><ele>661.0</ele><time>2026-04-25T15:07:10.999Z</time></trkpt><trkpt lat="44.65221368784824" lon="9.300489625377937"><ele>661.0</ele><time>2026-04-25T15:07:11.999Z</time></trkpt><trkpt lat="44.652135422426944" lon="9.300330552508354"><ele>661.0</ele><time>2026-04-25T15:07:12.999Z</time></trkpt><trkpt lat="44.6520501712395" lon="9.300194380683122"><ele>661.0</ele><time>2026-04-25T15:07:13.999Z</time></trkpt><trkpt lat="44.65200768149558" lon="9.300030320879033"><ele>655.25</ele><time>2026-04-25T15:07:14.999Z</time></trkpt><trkpt lat="44.65194932578335" lon="9.29986804259882"><ele>649.5</ele><time>2026-04-25T15:07:15.999Z</time></trkpt><trkpt lat="44.65192092044752" lon="9.299674359894034"><ele>643.75</ele><time>2026-04-25T15:07:16.999Z</time></trkpt><trkpt lat="44.651903209988724" lon="9.299458337702744"><ele>638.0</ele><time>2026-04-25T15:07:17.999Z</time></trkpt><trkpt lat="44.65188434154588" lon="9.299240220787865"><ele>638.0</ele><time>2026-04-25T15:07:18.999Z</time></trkpt><trkpt lat="44.651862660698036" lon="9.299028290867474"><ele>638.0</ele><time>2026-04-25T15:07:19.999Z</time></trkpt><trkpt lat="44.651839562703564" lon="9.298803380981106"><ele>638.0</ele><time>2026-04-25T15:07:20.999Z</time></trkpt><trkpt lat="44.651818193285855" lon="9.29857280865498"><ele>638.0</ele><time>2026-04-25T15:07:21.999Z</time></trkpt><trkpt lat="44.65179627097311" lon="9.298342260925626"><ele>638.0</ele><time>2026-04-25T15:07:22.999Z</time></trkpt><trkpt lat="44.65176991113194" lon="9.298113429429506"><ele>638.0</ele><time>2026-04-25T15:07:23.999Z</time></trkpt><trkpt lat="44.65175716861395" lon="9.29788711560798"><ele>638.0</ele><time>2026-04-25T15:07:24.999Z</time></trkpt><trkpt lat="44.65170948520847" lon="9.297671803396957"><ele>638.0</ele><time>2026-04-25T15:07:25.999Z</time></trkpt><trkpt lat="44.651682965226435" lon="9.297478755092724"><ele>638.0</ele><time>2026-04-25T15:07:26.999Z</time></trkpt><trkpt lat="44.65166729800261" lon="9.297303857274404"><ele>638.0</ele><time>2026-04-25T15:07:27.999Z</time></trkpt><trkpt lat="44.6516715656806" lon="9.297122942282213"><ele>637.4</ele><time>2026-04-25T15:07:28.999Z</time></trkpt><trkpt lat="44.6517032557736" lon="9.29695631038231"><ele>636.8</ele><time>2026-04-25T15:07:29.999Z</time></trkpt><trkpt lat="44.65174795538715" lon="9.296827416506181"><ele>636.2</ele><time>2026-04-25T15:07:30.999Z</time></trkpt><trkpt lat="44.65177021166637" lon="9.296725824636493"><ele>635.6</ele><time>2026-04-25T15:07:31.999Z</time></trkpt><trkpt lat="44.65172516343951" lon="9.296584498574"><ele>635.0</ele><time>2026-04-25T15:07:33.999Z</time></trkpt><trkpt lat="44.65164706120381" lon="9.296575418096811"><ele>635.0</ele><time>2026-04-25T15:07:34.999Z</time></trkpt><trkpt lat="44.65157145541357" lon="9.296671355715826"><ele>635.0</ele><time>2026-04-25T15:07:35.999Z</time></trkpt><trkpt lat="44.65155511504229" lon="9.296843598181903"><ele>635.0</ele><time>2026-04-25T15:07:36.999Z</time></trkpt><trkpt lat="44.651504853887204" lon="9.297018755238907"><ele>635.0</ele><time>2026-04-25T15:07:37.999Z</time></trkpt><trkpt lat="44.65146954165511" lon="9.297217256756502"><ele>636.0</ele><time>2026-04-25T15:07:38.999Z</time></trkpt><trkpt lat="44.651432009330755" lon="9.297425912569944"><ele>637.0</ele><time>2026-04-25T15:07:39.999Z</time></trkpt><trkpt lat="44.65139873117165" lon="9.297669346860138"><ele>638.0</ele><time>2026-04-25T15:07:40.999Z</time></trkpt><trkpt lat="44.651352799283885" lon="9.297903413253499"><ele>638.6666666666666</ele><time>2026-04-25T15:07:41.999Z</time></trkpt><trkpt lat="44.65130530226384" lon="9.298131410110324"><ele>639.3333333333334</ele><time>2026-04-25T15:07:42.999Z</time></trkpt><trkpt lat="44.65126224718277" lon="9.298353799982356"><ele>640.0</ele><time>2026-04-25T15:07:43.999Z</time></trkpt><trkpt lat="44.651221599961126" lon="9.29857150813876"><ele>640.0</ele><time>2026-04-25T15:07:44.999Z</time></trkpt><trkpt lat="44.65118094569671" lon="9.298783691771627"><ele>640.0</ele><time>2026-04-25T15:07:45.999Z</time></trkpt><trkpt lat="44.65112820127379" lon="9.298990870661664"><ele>640.0</ele><time>2026-04-25T15:07:46.999Z</time></trkpt><trkpt lat="44.651123563944296" lon="9.299206743388817"><ele>633.5</ele><time>2026-04-25T15:07:47.999Z</time></trkpt><trkpt lat="44.65109666978111" lon="9.299415265867598"><ele>627.0</ele><time>2026-04-25T15:07:48.999Z</time></trkpt><trkpt lat="44.65108605727117" lon="9.299622573138885"><ele>620.5</ele><time>2026-04-25T15:07:49.999Z</time></trkpt><trkpt lat="44.65107652818266" lon="9.299831015708277"><ele>614.0</ele><time>2026-04-25T15:07:50.999Z</time></trkpt><trkpt lat="44.65108318059455" lon="9.300041637136179"><ele>613.25</ele><time>2026-04-25T15:07:51.999Z</time></trkpt><trkpt lat="44.65106963606746" lon="9.300249877356551"><ele>612.5</ele><time>2026-04-25T15:07:52.999Z</time></trkpt><trkpt lat="44.651060651106214" lon="9.300453376990212"><ele>611.75</ele><time>2026-04-25T15:07:53.999Z</time></trkpt><trkpt lat="44.65105396700741" lon="9.300651931334437"><ele>611.0</ele><time>2026-04-25T15:07:54.999Z</time></trkpt><trkpt lat="44.651039863681426" lon="9.300847510171808"><ele>610.0</ele><time>2026-04-25T15:07:55.999Z</time></trkpt><trkpt lat="44.65106143941455" lon="9.301042871423297"><ele>609.0</ele><time>2026-04-25T15:07:56.999Z</time></trkpt><trkpt lat="44.65108446887277" lon="9.30122894229323"><ele>608.0</ele><time>2026-04-25T15:07:57.999Z</time></trkpt><trkpt lat="44.651099195974446" lon="9.301414072836343"><ele>607.0</ele><time>2026-04-25T15:07:58.999Z</time></trkpt><trkpt lat="44.65107171149786" lon="9.30160822709852"><ele>607.0</ele><time>2026-04-25T15:07:59.999Z</time></trkpt><trkpt lat="44.65103589126194" lon="9.301802454198404"><ele>607.0</ele><time>2026-04-25T15:08:00.999Z</time></trkpt><trkpt lat="44.65097796495172" lon="9.301983472800023"><ele>607.0</ele><time>2026-04-25T15:08:01.999Z</time></trkpt><trkpt lat="44.65093486848753" lon="9.302167854092023"><ele>607.0</ele><time>2026-04-25T15:08:02.999Z</time></trkpt><trkpt lat="44.65089845304434" lon="9.302352577245705"><ele>606.5</ele><time>2026-04-25T15:08:03.999Z</time></trkpt><trkpt lat="44.650870470852134" lon="9.302531190098684"><ele>606.0</ele><time>2026-04-25T15:08:04.999Z</time></trkpt><trkpt lat="44.65084776118155" lon="9.302704735118715"><ele>605.5</ele><time>2026-04-25T15:08:05.999Z</time></trkpt><trkpt lat="44.650827262245436" lon="9.30287226623615"><ele>605.0</ele><time>2026-04-25T15:08:06.999Z</time></trkpt><trkpt lat="44.650825372762334" lon="9.30303628179624"><ele>605.0</ele><time>2026-04-25T15:08:07.999Z</time></trkpt><trkpt lat="44.65084241892035" lon="9.303189132169791"><ele>605.0</ele><time>2026-04-25T15:08:08.999Z</time></trkpt><trkpt lat="44.65086359140912" lon="9.303288503790249"><ele>605.0</ele><time>2026-04-25T15:08:09.999Z</time></trkpt><trkpt lat="44.65084643686812" lon="9.303387173827597"><ele>605.0</ele><time>2026-04-25T15:08:11.999Z</time></trkpt><trkpt lat="44.650752685180485" lon="9.303340096532393"><ele>605.0</ele><time>2026-04-25T15:08:13.999Z</time></trkpt><trkpt lat="44.650733484563574" lon="9.303213144856912"><ele>605.0</ele><time>2026-04-25T15:08:14.999Z</time></trkpt><trkpt lat="44.650729120844375" lon="9.30304931894638"><ele>605.0</ele><time>2026-04-25T15:08:15.999Z</time></trkpt><trkpt lat="44.65070635770727" lon="9.302858855790326"><ele>605.0</ele><time>2026-04-25T15:08:16.999Z</time></trkpt><trkpt lat="44.650674495977" lon="9.302680193913641"><ele>605.0</ele><time>2026-04-25T15:08:17.999Z</time></trkpt><trkpt lat="44.65064526569856" lon="9.302492881780994"><ele>605.0</ele><time>2026-04-25T15:08:18.999Z</time></trkpt><trkpt lat="44.65062584955897" lon="9.302299620891606"><ele>605.5</ele><time>2026-04-25T15:08:19.999Z</time></trkpt><trkpt lat="44.650613165620186" lon="9.302104708113612"><ele>606.0</ele><time>2026-04-25T15:08:20.999Z</time></trkpt><trkpt lat="44.65059318672636" lon="9.301919431047278"><ele>606.5</ele><time>2026-04-25T15:08:21.999Z</time></trkpt><trkpt lat="44.65055632365322" lon="9.301761478355296"><ele>607.0</ele><time>2026-04-25T15:08:22.999Z</time></trkpt><trkpt lat="44.65050109955875" lon="9.301611050174083"><ele>607.0</ele><time>2026-04-25T15:08:23.999Z</time></trkpt><trkpt lat="44.65042700721549" lon="9.301470715641935"><ele>607.0</ele><time>2026-04-25T15:08:24.999Z</time></trkpt><trkpt lat="44.65035329831285" lon="9.301319558655422"><ele>607.0</ele><time>2026-04-25T15:08:25.999Z</time></trkpt><trkpt lat="44.65028426013389" lon="9.301161118179374"><ele>607.0</ele><time>2026-04-25T15:08:26.999Z</time></trkpt><trkpt lat="44.650225443962405" lon="9.301007604120846"><ele>601.5</ele><time>2026-04-25T15:08:27.999Z</time></trkpt><trkpt lat="44.650176276085666" lon="9.30084699360835"><ele>596.0</ele><time>2026-04-25T15:08:28.999Z</time></trkpt><trkpt lat="44.65015601249526" lon="9.300672972177473"><ele>590.5</ele><time>2026-04-25T15:08:29.999Z</time></trkpt><trkpt lat="44.650148763710554" lon="9.30048751317485"><ele>585.0</ele><time>2026-04-25T15:08:30.999Z</time></trkpt><trkpt lat="44.65013523231548" lon="9.300292610416946"><ele>585.0</ele><time>2026-04-25T15:08:31.999Z</time></trkpt><trkpt lat="44.65010151358798" lon="9.300091659329526"><ele>585.0</ele><time>2026-04-25T15:08:32.999Z</time></trkpt><trkpt lat="44.65006013126624" lon="9.29989003347961"><ele>585.0</ele><time>2026-04-25T15:08:33.999Z</time></trkpt><trkpt lat="44.65003621802448" lon="9.299685524421506"><ele>585.0</ele><time>2026-04-25T15:08:34.999Z</time></trkpt><trkpt lat="44.64998772712339" lon="9.29949368638114"><ele>586.0</ele><time>2026-04-25T15:08:35.999Z</time></trkpt><trkpt lat="44.649912891156774" lon="9.299324281358237"><ele>587.0</ele><time>2026-04-25T15:08:36.999Z</time></trkpt><trkpt lat="44.64984735798653" lon="9.299150647738182"><ele>588.0</ele><time>2026-04-25T15:08:37.999Z</time></trkpt><trkpt lat="44.649801883544704" lon="9.298968601612682"><ele>589.0</ele><time>2026-04-25T15:08:38.999Z</time></trkpt><trkpt lat="44.649749545299336" lon="9.29881324743668"><ele>589.0</ele><time>2026-04-25T15:08:39.999Z</time></trkpt><trkpt lat="44.64974278067025" lon="9.298637980410717"><ele>589.0</ele><time>2026-04-25T15:08:40.999Z</time></trkpt><trkpt lat="44.649730170951806" lon="9.298452927964973"><ele>589.0</ele><time>2026-04-25T15:08:41.999Z</time></trkpt><trkpt lat="44.649718414118134" lon="9.298258976236006"><ele>589.0</ele><time>2026-04-25T15:08:42.999Z</time></trkpt><trkpt lat="44.64970669005903" lon="9.298062701064477"><ele>588.25</ele><time>2026-04-25T15:08:43.999Z</time></trkpt><trkpt lat="44.64967840494831" lon="9.297883966306323"><ele>587.5</ele><time>2026-04-25T15:08:44.999Z</time></trkpt><trkpt lat="44.6496468745836" lon="9.297706082019598"><ele>586.75</ele><time>2026-04-25T15:08:45.999Z</time></trkpt><trkpt lat="44.649588306621126" lon="9.297529542016138"><ele>586.0</ele><time>2026-04-25T15:08:46.999Z</time></trkpt><trkpt lat="44.649519900239696" lon="9.29736595562005"><ele>581.25</ele><time>2026-04-25T15:08:47.999Z</time></trkpt><trkpt lat="44.649448033972945" lon="9.297209429923356"><ele>576.5</ele><time>2026-04-25T15:08:48.999Z</time></trkpt><trkpt lat="44.64939304293417" lon="9.29703504785182"><ele>571.75</ele><time>2026-04-25T15:08:49.999Z</time></trkpt><trkpt lat="44.649366944119286" lon="9.296830704486005"><ele>567.0</ele><time>2026-04-25T15:08:50.999Z</time></trkpt><trkpt lat="44.6493086345172" lon="9.296624822833289"><ele>567.75</ele><time>2026-04-25T15:08:51.999Z</time></trkpt><trkpt lat="44.64926861882707" lon="9.29640945923746"><ele>568.5</ele><time>2026-04-25T15:08:52.999Z</time></trkpt><trkpt lat="44.64923364018426" lon="9.296209683012076"><ele>569.25</ele><time>2026-04-25T15:08:53.999Z</time></trkpt><trkpt lat="44.649202021550714" lon="9.296020668138327"><ele>570.0</ele><time>2026-04-25T15:08:54.999Z</time></trkpt><trkpt lat="44.64918097391169" lon="9.29586123166507"><ele>570.0</ele><time>2026-04-25T15:08:55.999Z</time></trkpt><trkpt lat="44.6491648011304" lon="9.295742100951227"><ele>570.0</ele><time>2026-04-25T15:08:56.999Z</time></trkpt><trkpt lat="44.6490994264702" lon="9.295645222544934"><ele>570.0</ele><time>2026-04-25T15:08:58.999Z</time></trkpt><trkpt lat="44.64901409977712" lon="9.295753347855866"><ele>570.0</ele><time>2026-04-25T15:09:00.999Z</time></trkpt><trkpt lat="44.64899798078925" lon="9.295862538127452"><ele>570.0</ele><time>2026-04-25T15:09:01.999Z</time></trkpt><trkpt lat="44.649062999495264" lon="9.296014421396746"><ele>570.0</ele><time>2026-04-25T15:09:02.999Z</time></trkpt><trkpt lat="44.649089438280484" lon="9.296197004557197"><ele>570.0</ele><time>2026-04-25T15:09:03.999Z</time></trkpt><trkpt lat="44.649103250225366" lon="9.296358238059852"><ele>570.0</ele><time>2026-04-25T15:09:04.999Z</time></trkpt><trkpt lat="44.64908162021062" lon="9.296524115406472"><ele>570.0</ele><time>2026-04-25T15:09:05.999Z</time></trkpt><trkpt lat="44.64903174941982" lon="9.296702586328514"><ele>570.0</ele><time>2026-04-25T15:09:06.999Z</time></trkpt><trkpt lat="44.64894428154145" lon="9.296849950480542"><ele>570.0</ele><time>2026-04-25T15:09:07.999Z</time></trkpt><trkpt lat="44.64883834047327" lon="9.296985360647751"><ele>570.0</ele><time>2026-04-25T15:09:08.999Z</time></trkpt><trkpt lat="44.648734567394435" lon="9.297141563379233"><ele>570.0</ele><time>2026-04-25T15:09:09.999Z</time></trkpt><trkpt lat="44.648654879260235" lon="9.29729278898969"><ele>565.25</ele><time>2026-04-25T15:09:10.999Z</time></trkpt><trkpt lat="44.64858978339873" lon="9.297439579063552"><ele>560.5</ele><time>2026-04-25T15:09:11.999Z</time></trkpt><trkpt lat="44.648562995059514" lon="9.297618092133034"><ele>555.75</ele><time>2026-04-25T15:09:12.999Z</time></trkpt><trkpt lat="44.64856270319591" lon="9.297805903355963"><ele>551.0</ele><time>2026-04-25T15:09:13.999Z</time></trkpt><trkpt lat="44.64852798268657" lon="9.297980515099294"><ele>551.75</ele><time>2026-04-25T15:09:14.999Z</time></trkpt><trkpt lat="44.64848352181946" lon="9.298141988882287"><ele>552.5</ele><time>2026-04-25T15:09:15.999Z</time></trkpt><trkpt lat="44.64839699003632" lon="9.298255707412954"><ele>553.25</ele><time>2026-04-25T15:09:16.999Z</time></trkpt><trkpt lat="44.648289601853435" lon="9.298360435171835"><ele>554.0</ele><time>2026-04-25T15:09:17.999Z</time></trkpt><trkpt lat="44.648157493992855" lon="9.298471229905694"><ele>554.0</ele><time>2026-04-25T15:09:18.999Z</time></trkpt><trkpt lat="44.64801732061591" lon="9.298584182373418"><ele>554.0</ele><time>2026-04-25T15:09:19.999Z</time></trkpt><trkpt lat="44.647883389494545" lon="9.29869099317129"><ele>554.0</ele><time>2026-04-25T15:09:20.999Z</time></trkpt><trkpt lat="44.64776893137184" lon="9.298789142824981"><ele>551.0</ele><time>2026-04-25T15:09:21.999Z</time></trkpt><trkpt lat="44.6476739631996" lon="9.298872194576681"><ele>548.0</ele><time>2026-04-25T15:09:22.999Z</time></trkpt><trkpt lat="44.647606320381804" lon="9.298970625806215"><ele>545.0</ele><time>2026-04-25T15:09:23.999Z</time></trkpt><trkpt lat="44.64756882117905" lon="9.299105818530586"><ele>542.0</ele><time>2026-04-25T15:09:24.999Z</time></trkpt><trkpt lat="44.647573862757405" lon="9.299265258274431"><ele>539.0</ele><time>2026-04-25T15:09:25.999Z</time></trkpt><trkpt lat="44.647613057363955" lon="9.299435826284506"><ele>539.0</ele><time>2026-04-25T15:09:26.999Z</time></trkpt><trkpt lat="44.64767493339623" lon="9.299605015871748"><ele>539.0</ele><time>2026-04-25T15:09:27.999Z</time></trkpt><trkpt lat="44.6477061051599" lon="9.299777443445011"><ele>539.0</ele><time>2026-04-25T15:09:28.999Z</time></trkpt><trkpt lat="44.647723594325555" lon="9.299942458578002"><ele>539.0</ele><time>2026-04-25T15:09:29.999Z</time></trkpt><trkpt lat="44.64769320569821" lon="9.30009984242019"><ele>538.6</ele><time>2026-04-25T15:09:30.999Z</time></trkpt><trkpt lat="44.64764975647681" lon="9.300256077737126"><ele>538.2</ele><time>2026-04-25T15:09:31.999Z</time></trkpt><trkpt lat="44.64759683191893" lon="9.300383657073578"><ele>537.8000000000001</ele><time>2026-04-25T15:09:32.999Z</time></trkpt><trkpt lat="44.64749511145196" lon="9.3004117564348"><ele>537.4</ele><time>2026-04-25T15:09:33.999Z</time></trkpt><trkpt lat="44.64739957283474" lon="9.300435607676047"><ele>537.0</ele><time>2026-04-25T15:09:34.999Z</time></trkpt><trkpt lat="44.64729658927233" lon="9.300340452120095"><ele>537.0</ele><time>2026-04-25T15:09:35.999Z</time></trkpt><trkpt lat="44.64719165630972" lon="9.30024521365532"><ele>537.0</ele><time>2026-04-25T15:09:36.999Z</time></trkpt><trkpt lat="44.64707249412954" lon="9.300170165762044"><ele>537.0</ele><time>2026-04-25T15:09:37.999Z</time></trkpt><trkpt lat="44.64697282572201" lon="9.300097191564527"><ele>537.0</ele><time>2026-04-25T15:09:38.999Z</time></trkpt><trkpt lat="44.64687920595296" lon="9.300071411165517"><ele>535.0</ele><time>2026-04-25T15:09:39.999Z</time></trkpt><trkpt lat="44.64678772536978" lon="9.300114304466018"><ele>533.0</ele><time>2026-04-25T15:09:40.999Z</time></trkpt><trkpt lat="44.6467058612614" lon="9.300206443877263"><ele>531.0</ele><time>2026-04-25T15:09:41.999Z</time></trkpt><trkpt lat="44.646635321616046" lon="9.300357776858243"><ele>529.0</ele><time>2026-04-25T15:09:42.999Z</time></trkpt><trkpt lat="44.64656002884821" lon="9.30052692652648"><ele>530.0</ele><time>2026-04-25T15:09:43.999Z</time></trkpt><trkpt lat="44.64646773355311" lon="9.300684437945002"><ele>531.0</ele><time>2026-04-25T15:09:44.999Z</time></trkpt><trkpt lat="44.646407089426646" lon="9.300862563651117"><ele>532.0</ele><time>2026-04-25T15:09:45.999Z</time></trkpt><trkpt lat="44.64634977540963" lon="9.300970779953007"><ele>533.0</ele><time>2026-04-25T15:09:46.999Z</time></trkpt><trkpt lat="44.64632853293546" lon="9.301146666547796"><ele>533.0</ele><time>2026-04-25T15:09:47.999Z</time></trkpt><trkpt lat="44.64634972997331" lon="9.301301198901903"><ele>533.0</ele><time>2026-04-25T15:09:48.999Z</time></trkpt><trkpt lat="44.646374834203684" lon="9.301452819186736"><ele>533.0</ele><time>2026-04-25T15:09:49.999Z</time></trkpt><trkpt lat="44.64639270995408" lon="9.301584296170542"><ele>533.0</ele><time>2026-04-25T15:09:50.999Z</time></trkpt><trkpt lat="44.6463712117569" lon="9.301687593608396"><ele>533.0</ele><time>2026-04-25T15:09:51.999Z</time></trkpt><trkpt lat="44.64631522270793" lon="9.30176739813978"><ele>532.1999999999999</ele><time>2026-04-25T15:09:52.999Z</time></trkpt><trkpt lat="44.64621327548138" lon="9.301763122530437"><ele>531.4</ele><time>2026-04-25T15:09:53.999Z</time></trkpt><trkpt lat="44.64610991946404" lon="9.30178243281875"><ele>530.5999999999999</ele><time>2026-04-25T15:09:54.999Z</time></trkpt><trkpt lat="44.646005106795165" lon="9.301812018773719"><ele>529.8</ele><time>2026-04-25T15:09:55.999Z</time></trkpt><trkpt lat="44.64592450554795" lon="9.301897551639973"><ele>529.0</ele><time>2026-04-25T15:09:56.999Z</time></trkpt><trkpt lat="44.6458590339712" lon="9.302030403021229"><ele>525.4</ele><time>2026-04-25T15:09:57.999Z</time></trkpt><trkpt lat="44.645795879440215" lon="9.302165441477095"><ele>521.8</ele><time>2026-04-25T15:09:58.999Z</time></trkpt><trkpt lat="44.645742105760434" lon="9.302286496761884"><ele>518.2</ele><time>2026-04-25T15:09:59.999Z</time></trkpt><trkpt lat="44.64572206027545" lon="9.3024059711205"><ele>514.6</ele><time>2026-04-25T15:10:00.999Z</time></trkpt><trkpt lat="44.64574187402814" lon="9.302535576797418"><ele>511.0</ele><time>2026-04-25T15:10:01.999Z</time></trkpt><trkpt lat="44.64578535639632" lon="9.302678982354035"><ele>511.0</ele><time>2026-04-25T15:10:02.999Z</time></trkpt><trkpt lat="44.64580779169472" lon="9.302848672490576"><ele>511.0</ele><time>2026-04-25T15:10:03.999Z</time></trkpt><trkpt lat="44.645752690074964" lon="9.30303593018664"><ele>511.0</ele><time>2026-04-25T15:10:04.999Z</time></trkpt><trkpt lat="44.64572383410107" lon="9.303231996023815"><ele>511.0</ele><time>2026-04-25T15:10:05.999Z</time></trkpt><trkpt lat="44.64571481005147" lon="9.303412605630031"><ele>511.25</ele><time>2026-04-25T15:10:06.999Z</time></trkpt><trkpt lat="44.645702908953055" lon="9.303577327451398"><ele>511.5</ele><time>2026-04-25T15:10:07.999Z</time></trkpt><trkpt lat="44.64573002220827" lon="9.30372940029679"><ele>511.75</ele><time>2026-04-25T15:10:08.999Z</time></trkpt><trkpt lat="44.64578630128781" lon="9.303863431135712"><ele>512.0</ele><time>2026-04-25T15:10:09.999Z</time></trkpt><trkpt lat="44.64586847271307" lon="9.303975012887628"><ele>512.0</ele><time>2026-04-25T15:10:10.999Z</time></trkpt><trkpt lat="44.64597795736332" lon="9.304078956880582"><ele>512.0</ele><time>2026-04-25T15:10:11.999Z</time></trkpt><trkpt lat="44.6461053531248" lon="9.304178240401589"><ele>512.0</ele><time>2026-04-25T15:10:12.999Z</time></trkpt><trkpt lat="44.64623220670373" lon="9.304287854747145"><ele>512.0</ele><time>2026-04-25T15:10:13.999Z</time></trkpt><trkpt lat="44.64636661095471" lon="9.30439266026526"><ele>512.0</ele><time>2026-04-25T15:10:14.999Z</time></trkpt><trkpt lat="44.64650843461467" lon="9.304479549585485"><ele>512.0</ele><time>2026-04-25T15:10:15.999Z</time></trkpt><trkpt lat="44.64665737505293" lon="9.304551075040774"><ele>512.0</ele><time>2026-04-25T15:10:16.999Z</time></trkpt><trkpt lat="44.64680448542844" lon="9.304634321132223"><ele>512.0</ele><time>2026-04-25T15:10:17.999Z</time></trkpt><trkpt lat="44.64695158647411" lon="9.304717242823582"><ele>512.0</ele><time>2026-04-25T15:10:18.999Z</time></trkpt><trkpt lat="44.64708845617584" lon="9.304804769548637"><ele>512.0</ele><time>2026-04-25T15:10:19.999Z</time></trkpt><trkpt lat="44.64722812934926" lon="9.304889429353157"><ele>508.75</ele><time>2026-04-25T15:10:20.999Z</time></trkpt><trkpt lat="44.64736525193718" lon="9.304965945695114"><ele>505.5</ele><time>2026-04-25T15:10:21.999Z</time></trkpt><trkpt lat="44.64750084615152" lon="9.305042809191622"><ele>502.25</ele><time>2026-04-25T15:10:22.999Z</time></trkpt><trkpt lat="44.64763645337484" lon="9.305120452140148"><ele>499.0</ele><time>2026-04-25T15:10:23.999Z</time></trkpt><trkpt lat="44.647771554088656" lon="9.305195177201455"><ele>502.25</ele><time>2026-04-25T15:10:24.999Z</time></trkpt><trkpt lat="44.64790970712809" lon="9.305268231414182"><ele>505.5</ele><time>2026-04-25T15:10:25.999Z</time></trkpt><trkpt lat="44.648041258732974" lon="9.305340485192183"><ele>508.75</ele><time>2026-04-25T15:10:26.999Z</time></trkpt><trkpt lat="44.64816938053372" lon="9.305395307630041"><ele>512.0</ele><time>2026-04-25T15:10:27.999Z</time></trkpt><trkpt lat="44.648291973630506" lon="9.305428310611001"><ele>511.99999999999994</ele><time>2026-04-25T15:10:28.999Z</time></trkpt><trkpt lat="44.64839010567141" lon="9.305466370439126"><ele>512.0</ele><time>2026-04-25T15:10:29.999Z</time></trkpt><trkpt lat="44.6484662655991" lon="9.305482328867066"><ele>512.0</ele><time>2026-04-25T15:10:30.999Z</time></trkpt><trkpt lat="44.64853408820083" lon="9.305512475727319"><ele>512.0</ele><time>2026-04-25T15:10:32.999Z</time></trkpt><trkpt lat="44.64847687405394" lon="9.305597040545349"><ele>511.99999999999994</ele><time>2026-04-25T15:10:34.999Z</time></trkpt><trkpt lat="44.64841525794293" lon="9.305575015198574"><ele>512.0</ele><time>2026-04-25T15:10:35.999Z</time></trkpt><trkpt lat="44.6483379018893" lon="9.30552055008652"><ele>512.0</ele><time>2026-04-25T15:10:36.999Z</time></trkpt><trkpt lat="44.64823403526955" lon="9.305492349122966"><ele>512.0</ele><time>2026-04-25T15:10:37.999Z</time></trkpt><trkpt lat="44.64810428932314" lon="9.305497378478917"><ele>512.0</ele><time>2026-04-25T15:10:38.999Z</time></trkpt><trkpt lat="44.64797082762932" lon="9.305531720265215"><ele>512.0</ele><time>2026-04-25T15:10:39.999Z</time></trkpt><trkpt lat="44.64783997997276" lon="9.305578888059198"><ele>507.66666666666663</ele><time>2026-04-25T15:10:40.999Z</time></trkpt><trkpt lat="44.64769243304526" lon="9.305560419214235"><ele>503.33333333333337</ele><time>2026-04-25T15:10:41.999Z</time></trkpt><trkpt lat="44.647538344722115" lon="9.305533324427955"><ele>499.0</ele><time>2026-04-25T15:10:42.999Z</time></trkpt><trkpt lat="44.647387445916046" lon="9.305516360932906"><ele>499.0</ele><time>2026-04-25T15:10:43.999Z</time></trkpt><trkpt lat="44.64725108056891" lon="9.305541068343247"><ele>499.0</ele><time>2026-04-25T15:10:44.999Z</time></trkpt><trkpt lat="44.64713535457075" lon="9.305566806050399"><ele>499.0</ele><time>2026-04-25T15:10:45.999Z</time></trkpt><trkpt lat="44.647029855536616" lon="9.305538036167066"><ele>499.0</ele><time>2026-04-25T15:10:46.999Z</time></trkpt><trkpt lat="44.64692506290698" lon="9.305495667347781"><ele>494.75</ele><time>2026-04-25T15:10:47.999Z</time></trkpt><trkpt lat="44.646810413216066" lon="9.305472775841189"><ele>490.5</ele><time>2026-04-25T15:10:48.999Z</time></trkpt><trkpt lat="44.64670160410859" lon="9.305424317368788"><ele>486.25</ele><time>2026-04-25T15:10:49.999Z</time></trkpt><trkpt lat="44.646589643967516" lon="9.305389618625806"><ele>482.0</ele><time>2026-04-25T15:10:50.999Z</time></trkpt><trkpt lat="44.64646557853931" lon="9.305370554789322"><ele>482.0</ele><time>2026-04-25T15:10:51.999Z</time></trkpt><trkpt lat="44.64633554537997" lon="9.305309182971477"><ele>482.0</ele><time>2026-04-25T15:10:52.999Z</time></trkpt><trkpt lat="44.64618902260199" lon="9.30523058381483"><ele>482.0</ele><time>2026-04-25T15:10:53.999Z</time></trkpt><trkpt lat="44.64601499925619" lon="9.305159205818812"><ele>476.3333333333333</ele><time>2026-04-25T15:10:54.999Z</time></trkpt><trkpt lat="44.645844998030476" lon="9.30504985392096"><ele>470.66666666666663</ele><time>2026-04-25T15:10:55.999Z</time></trkpt><trkpt lat="44.64567229943329" lon="9.304959284127365"><ele>465.0</ele><time>2026-04-25T15:10:56.999Z</time></trkpt><trkpt lat="44.645503007497425" lon="9.304892977533633"><ele>465.0</ele><time>2026-04-25T15:10:57.999Z</time></trkpt><trkpt lat="44.64535636794537" lon="9.3048063438286"><ele>465.0</ele><time>2026-04-25T15:10:58.999Z</time></trkpt><trkpt lat="44.64523279977812" lon="9.304699480420021"><ele>465.0</ele><time>2026-04-25T15:10:59.999Z</time></trkpt><trkpt lat="44.6451156781968" lon="9.30464049673603"><ele>465.0</ele><time>2026-04-25T15:11:00.999Z</time></trkpt><trkpt lat="44.645021998310916" lon="9.30458764610151"><ele>464.6</ele><time>2026-04-25T15:11:01.999Z</time></trkpt><trkpt lat="44.644940202281056" lon="9.304575539227415"><ele>464.2</ele><time>2026-04-25T15:11:02.999Z</time></trkpt><trkpt lat="44.644860231716514" lon="9.304588088718791"><ele>463.79999999999995</ele><time>2026-04-25T15:11:03.999Z</time></trkpt><trkpt lat="44.64479732106371" lon="9.304704443530353"><ele>463.4</ele><time>2026-04-25T15:11:04.999Z</time></trkpt><trkpt lat="44.64474473758215" lon="9.304817221473602"><ele>463.0</ele><time>2026-04-25T15:11:05.999Z</time></trkpt><trkpt lat="44.64470481491238" lon="9.304966062114474"><ele>465.0</ele><time>2026-04-25T15:11:06.999Z</time></trkpt><trkpt lat="44.64466895805895" lon="9.30510591554667"><ele>466.99999999999994</ele><time>2026-04-25T15:11:07.999Z</time></trkpt><trkpt lat="44.64466011186156" lon="9.305241156457624"><ele>468.99999999999994</ele><time>2026-04-25T15:11:08.999Z</time></trkpt><trkpt lat="44.64468654756313" lon="9.305382069334105"><ele>471.0</ele><time>2026-04-25T15:11:09.999Z</time></trkpt><trkpt lat="44.644750031252855" lon="9.305532537957594"><ele>473.0</ele><time>2026-04-25T15:11:10.999Z</time></trkpt><trkpt lat="44.64484542302959" lon="9.30568842877723"><ele>473.0</ele><time>2026-04-25T15:11:11.999Z</time></trkpt><trkpt lat="44.64496292863106" lon="9.305834910738438"><ele>473.0</ele><time>2026-04-25T15:11:12.999Z</time></trkpt><trkpt lat="44.64509663472291" lon="9.305952412772728"><ele>473.0</ele><time>2026-04-25T15:11:13.999Z</time></trkpt><trkpt lat="44.64525608917573" lon="9.306025566338114"><ele>471.75</ele><time>2026-04-25T15:11:14.999Z</time></trkpt><trkpt lat="44.645405170158796" lon="9.306087531685518"><ele>470.5</ele><time>2026-04-25T15:11:15.999Z</time></trkpt><trkpt lat="44.64553115623004" lon="9.306165830557356"><ele>469.25</ele><time>2026-04-25T15:11:16.999Z</time></trkpt><trkpt lat="44.64562581923134" lon="9.306315850869188"><ele>468.0</ele><time>2026-04-25T15:11:17.999Z</time></trkpt><trkpt lat="44.64575776564603" lon="9.306444925113187"><ele>468.0</ele><time>2026-04-25T15:11:18.999Z</time></trkpt><trkpt lat="44.645896513173085" lon="9.306522504477439"><ele>468.0</ele><time>2026-04-25T15:11:19.999Z</time></trkpt><trkpt lat="44.64600628427026" lon="9.306602384799074"><ele>468.0</ele><time>2026-04-25T15:11:20.999Z</time></trkpt><trkpt lat="44.64608650738997" lon="9.306697675516919"><ele>468.0</ele><time>2026-04-25T15:11:21.999Z</time></trkpt><trkpt lat="44.64610425001096" lon="9.306849099517336"><ele>466.5</ele><time>2026-04-25T15:11:22.999Z</time></trkpt><trkpt lat="44.646158719773176" lon="9.307002337750577"><ele>465.0</ele><time>2026-04-25T15:11:23.999Z</time></trkpt><trkpt lat="44.646190354238286" lon="9.307189274184747"><ele>463.5</ele><time>2026-04-25T15:11:24.999Z</time></trkpt><trkpt lat="44.64623143523729" lon="9.307343897489183"><ele>462.0</ele><time>2026-04-25T15:11:25.999Z</time></trkpt><trkpt lat="44.6462277121497" lon="9.307492246329538"><ele>462.0</ele><time>2026-04-25T15:11:26.999Z</time></trkpt><trkpt lat="44.646208684507556" lon="9.307658773852829"><ele>462.0</ele><time>2026-04-25T15:11:27.999Z</time></trkpt><trkpt lat="44.646202264992596" lon="9.307858528663488"><ele>462.0</ele><time>2026-04-25T15:11:28.999Z</time></trkpt><trkpt lat="44.64618642748677" lon="9.308024123559383"><ele>462.0</ele><time>2026-04-25T15:11:29.999Z</time></trkpt><trkpt lat="44.64618444816427" lon="9.308154445703142"><ele>464.0</ele><time>2026-04-25T15:11:30.999Z</time></trkpt><trkpt lat="44.6462251354943" lon="9.308253104832552"><ele>466.00000000000006</ele><time>2026-04-25T15:11:31.999Z</time></trkpt><trkpt lat="44.64628708548722" lon="9.308339413328769"><ele>468.00000000000006</ele><time>2026-04-25T15:11:32.999Z</time></trkpt><trkpt lat="44.64636710466205" lon="9.308406289175247"><ele>470.0</ele><time>2026-04-25T15:11:33.999Z</time></trkpt><trkpt lat="44.64646489015122" lon="9.308490041980317"><ele>472.0</ele><time>2026-04-25T15:11:34.999Z</time></trkpt><trkpt lat="44.64655774644302" lon="9.30859628380914"><ele>472.0</ele><time>2026-04-25T15:11:35.999Z</time></trkpt><trkpt lat="44.646668529859696" lon="9.308715390639756"><ele>472.0</ele><time>2026-04-25T15:11:36.999Z</time></trkpt><trkpt lat="44.64679402571689" lon="9.308853771023104"><ele>472.0</ele><time>2026-04-25T15:11:37.999Z</time></trkpt><trkpt lat="44.64692799011009" lon="9.30901004259455"><ele>473.6666666666667</ele><time>2026-04-25T15:11:38.999Z</time></trkpt><trkpt lat="44.64705876911724" lon="9.30915630369458"><ele>475.33333333333337</ele><time>2026-04-25T15:11:39.999Z</time></trkpt><trkpt lat="44.64719435610564" lon="9.309311419663318"><ele>477.0</ele><time>2026-04-25T15:11:40.999Z</time></trkpt><trkpt lat="44.64732291910373" lon="9.309465111564277"><ele>477.0</ele><time>2026-04-25T15:11:41.999Z</time></trkpt><trkpt lat="44.64743167923898" lon="9.309605083359408"><ele>477.0</ele><time>2026-04-25T15:11:42.999Z</time></trkpt><trkpt lat="44.6475317979203" lon="9.309715585617854"><ele>477.0</ele><time>2026-04-25T15:11:43.999Z</time></trkpt><trkpt lat="44.647632051286706" lon="9.309792921415347"><ele>477.0</ele><time>2026-04-25T15:11:44.999Z</time></trkpt><trkpt lat="44.64774597977913" lon="9.309831850679625"><ele>478.75</ele><time>2026-04-25T15:11:45.999Z</time></trkpt><trkpt lat="44.64787565156907" lon="9.309827014355603"><ele>480.5</ele><time>2026-04-25T15:11:46.999Z</time></trkpt><trkpt lat="44.648010491978006" lon="9.309800186853558"><ele>482.25</ele><time>2026-04-25T15:11:47.999Z</time></trkpt><trkpt lat="44.64812542959474" lon="9.309821939660326"><ele>484.0</ele><time>2026-04-25T15:11:48.999Z</time></trkpt><trkpt lat="44.64821346859295" lon="9.309824498159655"><ele>484.0</ele><time>2026-04-25T15:11:49.999Z</time></trkpt><trkpt lat="44.648263671109" lon="9.309921399465129"><ele>484.0</ele><time>2026-04-25T15:11:50.999Z</time></trkpt><trkpt lat="44.64830092678322" lon="9.310029854552617"><ele>484.0</ele><time>2026-04-25T15:11:51.999Z</time></trkpt><trkpt lat="44.6483109614119" lon="9.31017785248621"><ele>484.0</ele><time>2026-04-25T15:11:52.999Z</time></trkpt><trkpt lat="44.64833036976967" lon="9.310353489974332"><ele>484.0</ele><time>2026-04-25T15:11:53.999Z</time></trkpt><trkpt lat="44.648322935426044" lon="9.310545175162853"><ele>486.4</ele><time>2026-04-25T15:11:54.999Z</time></trkpt><trkpt lat="44.6483261862816" lon="9.310726547037376"><ele>488.79999999999995</ele><time>2026-04-25T15:11:55.999Z</time></trkpt><trkpt lat="44.648338800314875" lon="9.310877305475481"><ele>491.20000000000005</ele><time>2026-04-25T15:11:56.999Z</time></trkpt><trkpt lat="44.64837815976868" lon="9.310988187053574"><ele>493.6</ele><time>2026-04-25T15:11:57.999Z</time></trkpt><trkpt lat="44.64843814746189" lon="9.311052936586496"><ele>496.0</ele><time>2026-04-25T15:11:58.999Z</time></trkpt><trkpt lat="44.648516148621425" lon="9.311064305221814"><ele>496.00000000000006</ele><time>2026-04-25T15:11:59.999Z</time></trkpt><trkpt lat="44.64859639376394" lon="9.311031823578503"><ele>496.0</ele><time>2026-04-25T15:12:00.999Z</time></trkpt><trkpt lat="44.6486832623942" lon="9.311010185870156"><ele>496.0</ele><time>2026-04-25T15:12:01.999Z</time></trkpt><trkpt lat="44.64874553228788" lon="9.311056303496565"><ele>496.0</ele><time>2026-04-25T15:12:02.999Z</time></trkpt><trkpt lat="44.648778564436185" lon="9.311146152109597"><ele>496.00000000000006</ele><time>2026-04-25T15:12:03.999Z</time></trkpt><trkpt lat="44.648743190097825" lon="9.311251511455113"><ele>496.0</ele><time>2026-04-25T15:12:04.999Z</time></trkpt><trkpt lat="44.64871662260541" lon="9.311366153511463"><ele>495.20000000000005</ele><time>2026-04-25T15:12:05.999Z</time></trkpt><trkpt lat="44.64867810999569" lon="9.31149281978303"><ele>494.40000000000003</ele><time>2026-04-25T15:12:06.999Z</time></trkpt><trkpt lat="44.64867305924643" lon="9.311628944762093"><ele>493.6</ele><time>2026-04-25T15:12:07.999Z</time></trkpt><trkpt lat="44.648692256621665" lon="9.311776333629378"><ele>492.8</ele><time>2026-04-25T15:12:08.999Z</time></trkpt><trkpt lat="44.64877970878583" lon="9.311906488596593"><ele>492.0</ele><time>2026-04-25T15:12:09.999Z</time></trkpt><trkpt lat="44.64887854372904" lon="9.312065682705228"><ele>492.0</ele><time>2026-04-25T15:12:10.999Z</time></trkpt><trkpt lat="44.64900569790968" lon="9.3121934621849"><ele>492.0</ele><time>2026-04-25T15:12:11.999Z</time></trkpt><trkpt lat="44.649113494957284" lon="9.312282722832643"><ele>492.0</ele><time>2026-04-25T15:12:12.999Z</time></trkpt><trkpt lat="44.64920574693561" lon="9.312352793873217"><ele>492.0</ele><time>2026-04-25T15:12:13.999Z</time></trkpt><trkpt lat="44.6492736405087" lon="9.312390974644327"><ele>494.0</ele><time>2026-04-25T15:12:14.999Z</time></trkpt><trkpt lat="44.649291697010696" lon="9.312480172240154"><ele>496.00000000000006</ele><time>2026-04-25T15:12:15.999Z</time></trkpt><trkpt lat="44.64927655791172" lon="9.312591574559212"><ele>498.00000000000006</ele><time>2026-04-25T15:12:16.999Z</time></trkpt><trkpt lat="44.64923285612708" lon="9.312721007023981"><ele>500.0</ele><time>2026-04-25T15:12:17.999Z</time></trkpt><trkpt lat="44.64917325889804" lon="9.312848298903724"><ele>502.0</ele><time>2026-04-25T15:12:18.999Z</time></trkpt><trkpt lat="44.649090492890984" lon="9.312960640422384"><ele>502.0</ele><time>2026-04-25T15:12:19.999Z</time></trkpt><trkpt lat="44.649011318513004" lon="9.313040895095074"><ele>502.00000000000006</ele><time>2026-04-25T15:12:20.999Z</time></trkpt><trkpt lat="44.64893625203812" lon="9.313112593085444"><ele>502.00000000000006</ele><time>2026-04-25T15:12:21.999Z</time></trkpt><trkpt lat="44.648917038485806" lon="9.313223471391607"><ele>502.0</ele><time>2026-04-25T15:12:22.999Z</time></trkpt><trkpt lat="44.648907686501886" lon="9.31331659609788"><ele>502.0</ele><time>2026-04-25T15:12:23.999Z</time></trkpt><trkpt lat="44.64890818968228" lon="9.313508365174377"><ele>500.40000000000003</ele><time>2026-04-25T15:12:25.999Z</time></trkpt><trkpt lat="44.64888173880938" lon="9.313613648157851"><ele>498.80000000000007</ele><time>2026-04-25T15:12:26.999Z</time></trkpt><trkpt lat="44.64881016378997" lon="9.313702141996231"><ele>497.2</ele><time>2026-04-25T15:12:27.999Z</time></trkpt><trkpt lat="44.64870774317314" lon="9.313773025019499"><ele>495.6</ele><time>2026-04-25T15:12:29Z</time></trkpt><trkpt lat="44.6485968439436" lon="9.313852082985889"><ele>494.0</ele><time>2026-04-25T15:12:30Z</time></trkpt><trkpt lat="44.64850122866414" lon="9.313964043562954"><ele>499.25</ele><time>2026-04-25T15:12:31Z</time></trkpt><trkpt lat="44.6484240476931" lon="9.314103457212271"><ele>504.5</ele><time>2026-04-25T15:12:32Z</time></trkpt><trkpt lat="44.648369851368386" lon="9.31426227654574"><ele>509.75</ele><time>2026-04-25T15:12:33Z</time></trkpt><trkpt lat="44.64832328879808" lon="9.314414341986772"><ele>515.0</ele><time>2026-04-25T15:12:34Z</time></trkpt><trkpt lat="44.64831603114241" lon="9.314568951342887"><ele>515.0</ele><time>2026-04-25T15:12:35Z</time></trkpt><trkpt lat="44.64834079536416" lon="9.314727154105183"><ele>515.0</ele><time>2026-04-25T15:12:36Z</time></trkpt><trkpt lat="44.64836265805982" lon="9.314894005706986"><ele>515.0</ele><time>2026-04-25T15:12:37Z</time></trkpt><trkpt lat="44.64836956094461" lon="9.315041635651397"><ele>515.0</ele><time>2026-04-25T15:12:38Z</time></trkpt><trkpt lat="44.648352950890576" lon="9.315185582489496"><ele>515.0</ele><time>2026-04-25T15:12:39Z</time></trkpt><trkpt lat="44.64834197184804" lon="9.315308145089174"><ele>514.4</ele><time>2026-04-25T15:12:40Z</time></trkpt><trkpt lat="44.64834292936979" lon="9.315425362010046"><ele>513.8</ele><time>2026-04-25T15:12:41Z</time></trkpt><trkpt lat="44.648392247009134" lon="9.315557429954739"><ele>513.2</ele><time>2026-04-25T15:12:42Z</time></trkpt><trkpt lat="44.64845522666705" lon="9.315705349193404"><ele>512.6</ele><time>2026-04-25T15:12:43Z</time></trkpt><trkpt lat="44.648505335765364" lon="9.3158623559055"><ele>512.0</ele><time>2026-04-25T15:12:44Z</time></trkpt><trkpt lat="44.648540519351336" lon="9.315995863712269"><ele>511.6</ele><time>2026-04-25T15:12:45Z</time></trkpt><trkpt lat="44.648568808770946" lon="9.316128250606779"><ele>511.20000000000005</ele><time>2026-04-25T15:12:46Z</time></trkpt><trkpt lat="44.64858771232223" lon="9.316258420360475"><ele>510.8</ele><time>2026-04-25T15:12:47Z</time></trkpt><trkpt lat="44.648568534680464" lon="9.316373668496418"><ele>510.4</ele><time>2026-04-25T15:12:48Z</time></trkpt><trkpt lat="44.64848093658234" lon="9.316427251467625"><ele>510.0</ele><time>2026-04-25T15:12:49Z</time></trkpt><trkpt lat="44.64839389135929" lon="9.316431435441157"><ele>506.0</ele><time>2026-04-25T15:12:50Z</time></trkpt><trkpt lat="44.64828343870513" lon="9.316459120349878"><ele>502.0</ele><time>2026-04-25T15:12:51Z</time></trkpt><trkpt lat="44.64814352933347" lon="9.31649663308586"><ele>498.0</ele><time>2026-04-25T15:12:52Z</time></trkpt><trkpt lat="44.64801360091311" lon="9.316544912069444"><ele>494.0</ele><time>2026-04-25T15:12:53Z</time></trkpt><trkpt lat="44.647889556625664" lon="9.316632140188146"><ele>500.5</ele><time>2026-04-25T15:12:54Z</time></trkpt><trkpt lat="44.647769410729325" lon="9.31673445091024"><ele>507.0</ele><time>2026-04-25T15:12:55Z</time></trkpt><trkpt lat="44.64765391185535" lon="9.316831137342108"><ele>513.5</ele><time>2026-04-25T15:12:56Z</time></trkpt><trkpt lat="44.647579791086244" lon="9.316930700616894"><ele>520.0</ele><time>2026-04-25T15:12:57Z</time></trkpt><trkpt lat="44.6475378672266" lon="9.317038922299906"><ele>520.0</ele><time>2026-04-25T15:12:58Z</time></trkpt><trkpt lat="44.647530658001386" lon="9.317175184853824"><ele>520.0</ele><time>2026-04-25T15:12:59Z</time></trkpt><trkpt lat="44.64756535640193" lon="9.317316194644807"><ele>520.0</ele><time>2026-04-25T15:13:00Z</time></trkpt><trkpt lat="44.64762140170002" lon="9.3174425849941"><ele>520.0</ele><time>2026-04-25T15:13:00.999Z</time></trkpt><trkpt lat="44.647642284706535" lon="9.317589367600052"><ele>520.0</ele><time>2026-04-25T15:13:01.999Z</time></trkpt><trkpt lat="44.647605526603904" lon="9.317734617523005"><ele>515.25</ele><time>2026-04-25T15:13:02.999Z</time></trkpt><trkpt lat="44.64756127018122" lon="9.31788323865265"><ele>510.5</ele><time>2026-04-25T15:13:03.999Z</time></trkpt><trkpt lat="44.6475177417292" lon="9.318070189901091"><ele>505.75</ele><time>2026-04-25T15:13:04.999Z</time></trkpt><trkpt lat="44.64744793423031" lon="9.318263215058588"><ele>501.0</ele><time>2026-04-25T15:13:05.999Z</time></trkpt><trkpt lat="44.647386062344424" lon="9.318464881371588"><ele>499.5</ele><time>2026-04-25T15:13:06.999Z</time></trkpt><trkpt lat="44.64732415905032" lon="9.318657499547752"><ele>498.0</ele><time>2026-04-25T15:13:07.999Z</time></trkpt><trkpt lat="44.64727443242263" lon="9.318828993377892"><ele>496.5</ele><time>2026-04-25T15:13:08.999Z</time></trkpt><trkpt lat="44.64724775854557" lon="9.319005624306563"><ele>495.0</ele><time>2026-04-25T15:13:09.999Z</time></trkpt><trkpt lat="44.647281111505684" lon="9.319215872195878"><ele>493.75</ele><time>2026-04-25T15:13:10.999Z</time></trkpt><trkpt lat="44.647270403730225" lon="9.319417026171145"><ele>492.5</ele><time>2026-04-25T15:13:11.999Z</time></trkpt><trkpt lat="44.64724684151987" lon="9.319599370555904"><ele>491.25</ele><time>2026-04-25T15:13:12.999Z</time></trkpt><trkpt lat="44.64723236157683" lon="9.319768888500077"><ele>490.0</ele><time>2026-04-25T15:13:13.999Z</time></trkpt><trkpt lat="44.64716787045976" lon="9.319917047403779"><ele>486.5</ele><time>2026-04-25T15:13:14.999Z</time></trkpt><trkpt lat="44.64708878978042" lon="9.320075553484259"><ele>483.0</ele><time>2026-04-25T15:13:15.999Z</time></trkpt><trkpt lat="44.647007196017164" lon="9.320256927331487"><ele>479.5</ele><time>2026-04-25T15:13:16.999Z</time></trkpt><trkpt lat="44.64692906728738" lon="9.320445860666712"><ele>476.0</ele><time>2026-04-25T15:13:17.999Z</time></trkpt><trkpt lat="44.646862338359355" lon="9.320640860572418"><ele>483.0</ele><time>2026-04-25T15:13:18.999Z</time></trkpt><trkpt lat="44.64679779455337" lon="9.320809568393837"><ele>490.0</ele><time>2026-04-25T15:13:19.999Z</time></trkpt><trkpt lat="44.646743626084806" lon="9.320964536045274"><ele>497.0</ele><time>2026-04-25T15:13:20.999Z</time></trkpt><trkpt lat="44.646668039434964" lon="9.321081760273573"><ele>504.0</ele><time>2026-04-25T15:13:21.999Z</time></trkpt><trkpt lat="44.64655588197562" lon="9.321120247293333"><ele>504.0</ele><time>2026-04-25T15:13:22.999Z</time></trkpt><trkpt lat="44.64647338654102" lon="9.321204976285172"><ele>504.0</ele><time>2026-04-25T15:13:23.999Z</time></trkpt><trkpt lat="44.646407156622494" lon="9.321289129458041"><ele>504.0</ele><time>2026-04-25T15:13:24.999Z</time></trkpt><trkpt lat="44.64638318632252" lon="9.32142147151331"><ele>504.0</ele><time>2026-04-25T15:13:25.999Z</time></trkpt><trkpt lat="44.6463855293982" lon="9.321576847889416"><ele>504.0</ele><time>2026-04-25T15:13:26.999Z</time></trkpt><trkpt lat="44.64640094858449" lon="9.321746694515811"><ele>500.25</ele><time>2026-04-25T15:13:27.999Z</time></trkpt><trkpt lat="44.646394242129496" lon="9.321915868959366"><ele>496.5</ele><time>2026-04-25T15:13:28.999Z</time></trkpt><trkpt lat="44.64634042749828" lon="9.322076286415184"><ele>492.75</ele><time>2026-04-25T15:13:29.999Z</time></trkpt><trkpt lat="44.646296009527006" lon="9.322268097325896"><ele>489.0</ele><time>2026-04-25T15:13:30.999Z</time></trkpt><trkpt lat="44.646231089903964" lon="9.322466328164403"><ele>488.0</ele><time>2026-04-25T15:13:31.999Z</time></trkpt><trkpt lat="44.64617016621868" lon="9.32266172887796"><ele>487.0</ele><time>2026-04-25T15:13:32.999Z</time></trkpt><trkpt lat="44.646114987810265" lon="9.322845559498695"><ele>486.0</ele><time>2026-04-25T15:13:33.999Z</time></trkpt><trkpt lat="44.6460636443696" lon="9.322997863763748"><ele>485.0</ele><time>2026-04-25T15:13:34.999Z</time></trkpt><trkpt lat="44.646031990617686" lon="9.323119792044425"><ele>484.0</ele><time>2026-04-25T15:13:35.999Z</time></trkpt><trkpt lat="44.64603278253498" lon="9.323235420071466"><ele>483.0</ele><time>2026-04-25T15:13:36.999Z</time></trkpt><trkpt lat="44.64606380242439" lon="9.32336343918155"><ele>482.0</ele><time>2026-04-25T15:13:37.999Z</time></trkpt><trkpt lat="44.646124311245394" lon="9.32346405992149"><ele>481.0</ele><time>2026-04-25T15:13:38.999Z</time></trkpt><trkpt lat="44.64620919628328" lon="9.323529750036345"><ele>480.0</ele><time>2026-04-25T15:13:39.999Z</time></trkpt><trkpt lat="44.64631563435529" lon="9.323557492354233"><ele>480.0</ele><time>2026-04-25T15:13:40.999Z</time></trkpt><trkpt lat="44.646417790634864" lon="9.32358389217093"><ele>480.0</ele><time>2026-04-25T15:13:41.999Z</time></trkpt><trkpt lat="44.64651912127506" lon="9.323601879857081"><ele>480.0</ele><time>2026-04-25T15:13:42.999Z</time></trkpt><trkpt lat="44.64661637604263" lon="9.323629591829498"><ele>480.0</ele><time>2026-04-25T15:13:43.999Z</time></trkpt><trkpt lat="44.64670135044048" lon="9.323681470617688"><ele>480.0</ele><time>2026-04-25T15:13:44.999Z</time></trkpt><trkpt lat="44.646743984702915" lon="9.323791308894721"><ele>480.0</ele><time>2026-04-25T15:13:45.999Z</time></trkpt><trkpt lat="44.646779410424045" lon="9.32389206926547"><ele>480.0</ele><time>2026-04-25T15:13:46.999Z</time></trkpt><trkpt lat="44.64676705331385" lon="9.324028955056484"><ele>480.0</ele><time>2026-04-25T15:13:47.999Z</time></trkpt><trkpt lat="44.64674145696313" lon="9.324167708197539"><ele>480.0</ele><time>2026-04-25T15:13:48.999Z</time></trkpt><trkpt lat="44.64669745673595" lon="9.324332561087774"><ele>480.0</ele><time>2026-04-25T15:13:49.999Z</time></trkpt><trkpt lat="44.64666377270482" lon="9.324494121168478"><ele>480.0</ele><time>2026-04-25T15:13:50.999Z</time></trkpt><trkpt lat="44.646630370799606" lon="9.324639655635917"><ele>480.0</ele><time>2026-04-25T15:13:51.999Z</time></trkpt><trkpt lat="44.646626168615974" lon="9.324797583320258"><ele>480.0</ele><time>2026-04-25T15:13:52.999Z</time></trkpt><trkpt lat="44.6466582245376" lon="9.324974932851301"><ele>480.0</ele><time>2026-04-25T15:13:53.999Z</time></trkpt><trkpt lat="44.64669722191249" lon="9.325151642956103"><ele>479.0</ele><time>2026-04-25T15:13:54.999Z</time></trkpt><trkpt lat="44.646733244993854" lon="9.325316435632246"><ele>478.0</ele><time>2026-04-25T15:13:55.999Z</time></trkpt><trkpt lat="44.64677929875509" lon="9.325471848244204"><ele>477.0</ele><time>2026-04-25T15:13:56.999Z</time></trkpt><trkpt lat="44.64684332070519" lon="9.325614505071046"><ele>476.0</ele><time>2026-04-25T15:13:57.999Z</time></trkpt><trkpt lat="44.64690277072157" lon="9.325758206458527"><ele>476.0</ele><time>2026-04-25T15:13:58.999Z</time></trkpt><trkpt lat="44.646940171604854" lon="9.325910722256726"><ele>476.0</ele><time>2026-04-25T15:13:59.999Z</time></trkpt><trkpt lat="44.646932089213436" lon="9.326064564798298"><ele>476.0</ele><time>2026-04-25T15:14:00.999Z</time></trkpt><trkpt lat="44.64692735328174" lon="9.326194082723633"><ele>476.0</ele><time>2026-04-25T15:14:01.999Z</time></trkpt><trkpt lat="44.6469514709411" lon="9.326285284307202"><ele>476.0</ele><time>2026-04-25T15:14:02.999Z</time></trkpt><trkpt lat="44.64703923820778" lon="9.326339565507913"><ele>470.6</ele><time>2026-04-25T15:14:04.999Z</time></trkpt><trkpt lat="44.647087735646195" lon="9.326276578993413"><ele>465.20000000000005</ele><time>2026-04-25T15:14:05.999Z</time></trkpt><trkpt lat="44.64710204974264" lon="9.326187369457445"><ele>459.79999999999995</ele><time>2026-04-25T15:14:06.999Z</time></trkpt><trkpt lat="44.64708666950964" lon="9.32606055947957"><ele>454.4</ele><time>2026-04-25T15:14:07.999Z</time></trkpt><trkpt lat="44.64706296828886" lon="9.32589794843199"><ele>449.0</ele><time>2026-04-25T15:14:08.999Z</time></trkpt><trkpt lat="44.64704491847687" lon="9.325720613933944"><ele>449.5</ele><time>2026-04-25T15:14:09.999Z</time></trkpt><trkpt lat="44.647021098859426" lon="9.325554858385956"><ele>450.0</ele><time>2026-04-25T15:14:10.999Z</time></trkpt><trkpt lat="44.64699526083164" lon="9.325387761154014"><ele>450.5</ele><time>2026-04-25T15:14:11.999Z</time></trkpt><trkpt lat="44.646973481533145" lon="9.325224278756957"><ele>451.0</ele><time>2026-04-25T15:14:12.999Z</time></trkpt><trkpt lat="44.64697377375515" lon="9.325054346272383"><ele>451.0</ele><time>2026-04-25T15:14:13.999Z</time></trkpt><trkpt lat="44.646995370983745" lon="9.324874916253439"><ele>451.0</ele><time>2026-04-25T15:14:14.999Z</time></trkpt><trkpt lat="44.647014862168724" lon="9.324680460305554"><ele>451.0</ele><time>2026-04-25T15:14:15.999Z</time></trkpt><trkpt lat="44.64703679343502" lon="9.324482018971727"><ele>451.0</ele><time>2026-04-25T15:14:16.999Z</time></trkpt><trkpt lat="44.64705914846646" lon="9.32428660273814"><ele>450.8</ele><time>2026-04-25T15:14:17.999Z</time></trkpt><trkpt lat="44.64707514584086" lon="9.324111419272212"><ele>450.6</ele><time>2026-04-25T15:14:18.999Z</time></trkpt><trkpt lat="44.64708967447431" lon="9.323958821623979"><ele>450.4</ele><time>2026-04-25T15:14:19.999Z</time></trkpt><trkpt lat="44.647123059903855" lon="9.323839247046273"><ele>450.2</ele><time>2026-04-25T15:14:20.999Z</time></trkpt><trkpt lat="44.64720739311672" lon="9.3237671854222"><ele>450.0</ele><time>2026-04-25T15:14:21.999Z</time></trkpt><trkpt lat="44.64729699108888" lon="9.323680459880523"><ele>450.0</ele><time>2026-04-25T15:14:22.999Z</time></trkpt><trkpt lat="44.647382337017255" lon="9.32353652345029"><ele>450.0</ele><time>2026-04-25T15:14:23.999Z</time></trkpt><trkpt lat="44.64749485242077" lon="9.323446468506903"><ele>450.0</ele><time>2026-04-25T15:14:24.999Z</time></trkpt><trkpt lat="44.647611436780345" lon="9.323381890241265"><ele>450.0</ele><time>2026-04-25T15:14:25.999Z</time></trkpt><trkpt lat="44.64773276494812" lon="9.32333375846575"><ele>448.75</ele><time>2026-04-25T15:14:26.999Z</time></trkpt><trkpt lat="44.64786809019906" lon="9.323303946671166"><ele>447.5</ele><time>2026-04-25T15:14:27.999Z</time></trkpt><trkpt lat="44.648003226222905" lon="9.323268383489333"><ele>446.25</ele><time>2026-04-25T15:14:28.999Z</time></trkpt><trkpt lat="44.64812317920543" lon="9.32323145544732"><ele>445.0</ele><time>2026-04-25T15:14:29.999Z</time></trkpt><trkpt lat="44.648218862029914" lon="9.323202565655778"><ele>445.00000000000006</ele><time>2026-04-25T15:14:30.999Z</time></trkpt><trkpt lat="44.64829452278169" lon="9.323183513761105"><ele>445.0</ele><time>2026-04-25T15:14:31.999Z</time></trkpt><trkpt lat="44.64837487581342" lon="9.323172782986514"><ele>445.0</ele><time>2026-04-25T15:14:33.999Z</time></trkpt><trkpt lat="44.648363046801215" lon="9.323278257588393"><ele>445.0</ele><time>2026-04-25T15:14:40.999Z</time></trkpt><trkpt lat="44.648333763791506" lon="9.323377986238722"><ele>445.00000000000006</ele><time>2026-04-25T15:14:41.999Z</time></trkpt><trkpt lat="44.64828627081269" lon="9.323539734387118"><ele>445.0</ele><time>2026-04-25T15:14:42.999Z</time></trkpt><trkpt lat="44.64824499894337" lon="9.323732791006403"><ele>448.0</ele><time>2026-04-25T15:14:43.999Z</time></trkpt><trkpt lat="44.64818337220933" lon="9.323928565535825"><ele>451.0</ele><time>2026-04-25T15:14:44.999Z</time></trkpt><trkpt lat="44.64811197318204" lon="9.32416878411824"><ele>454.0</ele><time>2026-04-25T15:14:45.999Z</time></trkpt><trkpt lat="44.648037011165194" lon="9.324420873397159"><ele>454.0</ele><time>2026-04-25T15:14:46.999Z</time></trkpt><trkpt lat="44.647965193599966" lon="9.324677672023803"><ele>454.0</ele><time>2026-04-25T15:14:47.999Z</time></trkpt><trkpt lat="44.64789072130238" lon="9.324933908697943"><ele>454.0</ele><time>2026-04-25T15:14:48.999Z</time></trkpt><trkpt lat="44.64781630315481" lon="9.325183380492124"><ele>453.0</ele><time>2026-04-25T15:14:49.999Z</time></trkpt><trkpt lat="44.64774544973206" lon="9.325428432030268"><ele>452.0</ele><time>2026-04-25T15:14:50.999Z</time></trkpt><trkpt lat="44.647673656655606" lon="9.325660619957057"><ele>451.0</ele><time>2026-04-25T15:14:51.999Z</time></trkpt><trkpt lat="44.64759572377447" lon="9.325882839732396"><ele>450.33333333333337</ele><time>2026-04-25T15:14:52.999Z</time></trkpt><trkpt lat="44.64751146692159" lon="9.32609065098558"><ele>449.66666666666663</ele><time>2026-04-25T15:14:53.999Z</time></trkpt><trkpt lat="44.64741967454663" lon="9.326285498091904"><ele>449.0</ele><time>2026-04-25T15:14:54.999Z</time></trkpt><trkpt lat="44.64732043317297" lon="9.326474554430137"><ele>449.0</ele><time>2026-04-25T15:14:55.999Z</time></trkpt><trkpt lat="44.647217557002726" lon="9.326657803968637"><ele>449.0</ele><time>2026-04-25T15:14:56.999Z</time></trkpt><trkpt lat="44.647101321895654" lon="9.32683336669562"><ele>449.0</ele><time>2026-04-25T15:14:57.999Z</time></trkpt><trkpt lat="44.64696771346396" lon="9.327003658077055"><ele>450.0</ele><time>2026-04-25T15:14:58.999Z</time></trkpt><trkpt lat="44.64682193062558" lon="9.327170053427643"><ele>451.0</ele><time>2026-04-25T15:14:59.999Z</time></trkpt><trkpt lat="44.64665626107287" lon="9.32732928873339"><ele>452.0</ele><time>2026-04-25T15:15:00.999Z</time></trkpt><trkpt lat="44.64647438706079" lon="9.32747553424882"><ele>452.0</ele><time>2026-04-25T15:15:01.999Z</time></trkpt><trkpt lat="44.64628327564486" lon="9.32761790473249"><ele>452.0</ele><time>2026-04-25T15:15:02.999Z</time></trkpt><trkpt lat="44.64609925828725" lon="9.32775277375447"><ele>452.0</ele><time>2026-04-25T15:15:03.999Z</time></trkpt><trkpt lat="44.645921930036884" lon="9.327883677357745"><ele>452.3333333333333</ele><time>2026-04-25T15:15:05Z</time></trkpt><trkpt lat="44.645745832760696" lon="9.32800474558963"><ele>452.66666666666663</ele><time>2026-04-25T15:15:06Z</time></trkpt><trkpt lat="44.64557110271421" lon="9.3281253458831"><ele>453.0</ele><time>2026-04-25T15:15:07Z</time></trkpt><trkpt lat="44.645405154768575" lon="9.328241604801962"><ele>457.66666666666663</ele><time>2026-04-25T15:15:08Z</time></trkpt><trkpt lat="44.645238255968025" lon="9.328345618801883"><ele>462.3333333333333</ele><time>2026-04-25T15:15:09Z</time></trkpt><trkpt lat="44.645071795115484" lon="9.32843019004986"><ele>467.0</ele><time>2026-04-25T15:15:10Z</time></trkpt><trkpt lat="44.64489749575484" lon="9.328499597172895"><ele>467.0</ele><time>2026-04-25T15:15:11Z</time></trkpt><trkpt lat="44.64471955341209" lon="9.328553329560455"><ele>467.0</ele><time>2026-04-25T15:15:12Z</time></trkpt><trkpt lat="44.64453907600466" lon="9.3286013714219"><ele>467.0</ele><time>2026-04-25T15:15:13Z</time></trkpt><trkpt lat="44.64435529858977" lon="9.328654969167252"><ele>467.66666666666663</ele><time>2026-04-25T15:15:14Z</time></trkpt><trkpt lat="44.64416703939206" lon="9.328707004864862"><ele>468.33333333333337</ele><time>2026-04-25T15:15:15Z</time></trkpt><trkpt lat="44.64396534335207" lon="9.328764697696789"><ele>469.0</ele><time>2026-04-25T15:15:16Z</time></trkpt><trkpt lat="44.64376414742518" lon="9.328822026357422"><ele>467.33333333333337</ele><time>2026-04-25T15:15:17Z</time></trkpt><trkpt lat="44.64355267843397" lon="9.328876147031602"><ele>465.66666666666663</ele><time>2026-04-25T15:15:18Z</time></trkpt><trkpt lat="44.643337923401155" lon="9.328928286024079"><ele>464.0</ele><time>2026-04-25T15:15:19Z</time></trkpt><trkpt lat="44.64311584471625" lon="9.328981404773966"><ele>462.5</ele><time>2026-04-25T15:15:20Z</time></trkpt><trkpt lat="44.64288450857328" lon="9.329042164467689"><ele>461.0</ele><time>2026-04-25T15:15:21Z</time></trkpt><trkpt lat="44.642664289071995" lon="9.329099114569777"><ele>461.0</ele><time>2026-04-25T15:15:22Z</time></trkpt><trkpt lat="44.64245236421836" lon="9.329153575960248"><ele>461.0</ele><time>2026-04-25T15:15:23Z</time></trkpt><trkpt lat="44.64223921189244" lon="9.329208931537519"><ele>461.0</ele><time>2026-04-25T15:15:24Z</time></trkpt><trkpt lat="44.64202917859586" lon="9.329263181321304"><ele>462.0</ele><time>2026-04-25T15:15:25Z</time></trkpt><trkpt lat="44.641822526977215" lon="9.329320839401403"><ele>463.0</ele><time>2026-04-25T15:15:26Z</time></trkpt><trkpt lat="44.641616937371026" lon="9.329379601369013"><ele>464.0</ele><time>2026-04-25T15:15:27Z</time></trkpt><trkpt lat="44.64140945172516" lon="9.329434706907698"><ele>464.0</ele><time>2026-04-25T15:15:28Z</time></trkpt><trkpt lat="44.64119587051212" lon="9.329495131386379"><ele>464.0</ele><time>2026-04-25T15:15:29Z</time></trkpt><trkpt lat="44.64097965959365" lon="9.329553687707607"><ele>464.0</ele><time>2026-04-25T15:15:30Z</time></trkpt><trkpt lat="44.64076379370751" lon="9.329607288387889"><ele>465.3333333333333</ele><time>2026-04-25T15:15:31Z</time></trkpt><trkpt lat="44.6405486454656" lon="9.329664534798685"><ele>466.66666666666663</ele><time>2026-04-25T15:15:32Z</time></trkpt><trkpt lat="44.640334403833194" lon="9.329726157678339"><ele>468.0</ele><time>2026-04-25T15:15:33Z</time></trkpt><trkpt lat="44.64012275593385" lon="9.329787462710854"><ele>465.0</ele><time>2026-04-25T15:15:34Z</time></trkpt><trkpt lat="44.63992456097294" lon="9.329839956233267"><ele>462.0</ele><time>2026-04-25T15:15:35Z</time></trkpt><trkpt lat="44.6397389161845" lon="9.329889602420083"><ele>459.0</ele><time>2026-04-25T15:15:36Z</time></trkpt><trkpt lat="44.639557838257424" lon="9.329936583148296"><ele>459.66666666666663</ele><time>2026-04-25T15:15:37Z</time></trkpt><trkpt lat="44.63938407687958" lon="9.329977985251922"><ele>460.3333333333333</ele><time>2026-04-25T15:15:38Z</time></trkpt><trkpt lat="44.639210045060054" lon="9.330007524673368"><ele>461.0</ele><time>2026-04-25T15:15:39Z</time></trkpt><trkpt lat="44.63902890029219" lon="9.330017596136274"><ele>461.0</ele><time>2026-04-25T15:15:40Z</time></trkpt><trkpt lat="44.638841313205994" lon="9.330003243438512"><ele>461.0</ele><time>2026-04-25T15:15:41Z</time></trkpt><trkpt lat="44.63865411108767" lon="9.329963266955357"><ele>461.0</ele><time>2026-04-25T15:15:42Z</time></trkpt><trkpt lat="44.63846501095173" lon="9.329890463420053"><ele>460.66666666666663</ele><time>2026-04-25T15:15:43Z</time></trkpt><trkpt lat="44.63827960946589" lon="9.329826504023268"><ele>460.33333333333337</ele><time>2026-04-25T15:15:44Z</time></trkpt><trkpt lat="44.638169000846645" lon="9.329529335236911"><ele>460.0</ele><time>2026-04-25T15:15:45Z</time></trkpt><trkpt lat="44.63801083973725" lon="9.329344218511604"><ele>464.0</ele><time>2026-04-25T15:15:46Z</time></trkpt><trkpt lat="44.637715934974885" lon="9.329356836301127"><ele>468.0</ele><time>2026-04-25T15:15:47Z</time></trkpt><trkpt lat="44.63752479210105" lon="9.329215839051493"><ele>468.0</ele><time>2026-04-25T15:15:48Z</time></trkpt><trkpt lat="44.63734543474975" lon="9.329083737891466"><ele>468.0</ele><time>2026-04-25T15:15:49Z</time></trkpt><trkpt lat="44.637174414652215" lon="9.328958200306655"><ele>468.0</ele><time>2026-04-25T15:15:50Z</time></trkpt><trkpt lat="44.63700827724742" lon="9.328837600956579"><ele>466.33333333333337</ele><time>2026-04-25T15:15:51Z</time></trkpt><trkpt lat="44.636842613435334" lon="9.32872302294391"><ele>464.6666666666667</ele><time>2026-04-25T15:15:52Z</time></trkpt><trkpt lat="44.63667064474658" lon="9.328631154634033"><ele>463.0</ele><time>2026-04-25T15:15:53Z</time></trkpt><trkpt lat="44.636498883571356" lon="9.328557829380157"><ele>463.0</ele><time>2026-04-25T15:15:54Z</time></trkpt><trkpt lat="44.63632009747184" lon="9.328509835993462"><ele>463.0</ele><time>2026-04-25T15:15:55Z</time></trkpt><trkpt lat="44.63613222364182" lon="9.328486503725863"><ele>463.0</ele><time>2026-04-25T15:15:56Z</time></trkpt><trkpt lat="44.63594149773408" lon="9.328488737367095"><ele>464.33333333333337</ele><time>2026-04-25T15:15:57Z</time></trkpt><trkpt lat="44.63575362622403" lon="9.328522582997604"><ele>465.66666666666663</ele><time>2026-04-25T15:15:58Z</time></trkpt><trkpt lat="44.63557123981309" lon="9.328584892388315"><ele>467.0</ele><time>2026-04-25T15:15:59Z</time></trkpt><trkpt lat="44.63538699825457" lon="9.328670898367875"><ele>466.3333333333333</ele><time>2026-04-25T15:16:00Z</time></trkpt><trkpt lat="44.63520155463511" lon="9.328783607092051"><ele>465.66666666666663</ele><time>2026-04-25T15:16:01Z</time></trkpt><trkpt lat="44.63501038079443" lon="9.328912176109986"><ele>465.0</ele><time>2026-04-25T15:16:02Z</time></trkpt><trkpt lat="44.63481451729098" lon="9.329039610755713"><ele>466.33333333333337</ele><time>2026-04-25T15:16:03Z</time></trkpt><trkpt lat="44.634618443488876" lon="9.329173587378785"><ele>467.6666666666667</ele><time>2026-04-25T15:16:04Z</time></trkpt><trkpt lat="44.63442231758822" lon="9.329307993033826"><ele>469.0</ele><time>2026-04-25T15:16:05Z</time></trkpt><trkpt lat="44.63422538252981" lon="9.329447145292571"><ele>469.0</ele><time>2026-04-25T15:16:06Z</time></trkpt><trkpt lat="44.634026164567786" lon="9.32958372388575"><ele>469.0</ele><time>2026-04-25T15:16:07Z</time></trkpt><trkpt lat="44.633827288710485" lon="9.329715601165566"><ele>469.0</ele><time>2026-04-25T15:16:08Z</time></trkpt><trkpt lat="44.63363359674199" lon="9.329843618025125"><ele>470.0</ele><time>2026-04-25T15:16:09Z</time></trkpt><trkpt lat="44.63344570184716" lon="9.329969928996777"><ele>471.0</ele><time>2026-04-25T15:16:10Z</time></trkpt><trkpt lat="44.63326280815206" lon="9.330094737138173"><ele>472.0</ele><time>2026-04-25T15:16:11Z</time></trkpt><trkpt lat="44.63308153993947" lon="9.330222726611508"><ele>472.0</ele><time>2026-04-25T15:16:12Z</time></trkpt><trkpt lat="44.63290434523177" lon="9.33036499853934"><ele>472.0</ele><time>2026-04-25T15:16:13Z</time></trkpt><trkpt lat="44.63272873750959" lon="9.330518921117715"><ele>472.0</ele><time>2026-04-25T15:16:14Z</time></trkpt><trkpt lat="44.63255310909493" lon="9.3306852731781"><ele>473.33333333333337</ele><time>2026-04-25T15:16:15Z</time></trkpt><trkpt lat="44.63237620306919" lon="9.330855338983554"><ele>474.66666666666663</ele><time>2026-04-25T15:16:16Z</time></trkpt><trkpt lat="44.63220014351201" lon="9.331027705282436"><ele>476.0</ele><time>2026-04-25T15:16:17Z</time></trkpt><trkpt lat="44.63202541365909" lon="9.331204294625229"><ele>477.3333333333333</ele><time>2026-04-25T15:16:18Z</time></trkpt><trkpt lat="44.631851961983735" lon="9.33138103891457"><ele>478.66666666666663</ele><time>2026-04-25T15:16:19Z</time></trkpt><trkpt lat="44.63167969843759" lon="9.331552240179848"><ele>480.0</ele><time>2026-04-25T15:16:20Z</time></trkpt><trkpt lat="44.63151447876743" lon="9.331711888914548"><ele>480.0</ele><time>2026-04-25T15:16:21Z</time></trkpt><trkpt lat="44.63135337896975" lon="9.33185714162237"><ele>480.0</ele><time>2026-04-25T15:16:22Z</time></trkpt><trkpt lat="44.63119334254604" lon="9.331990802782892"><ele>480.0</ele><time>2026-04-25T15:16:23Z</time></trkpt><trkpt lat="44.631027756368354" lon="9.332111844006212"><ele>481.66666666666663</ele><time>2026-04-25T15:16:24Z</time></trkpt><trkpt lat="44.630863809219136" lon="9.332235247752465"><ele>483.3333333333333</ele><time>2026-04-25T15:16:25Z</time></trkpt><trkpt lat="44.63069750894492" lon="9.332358891855336"><ele>485.0</ele><time>2026-04-25T15:16:26Z</time></trkpt><trkpt lat="44.6305298013058" lon="9.33248087179507"><ele>485.0</ele><time>2026-04-25T15:16:27Z</time></trkpt><trkpt lat="44.630357187581836" lon="9.332604968038899"><ele>485.0</ele><time>2026-04-25T15:16:28Z</time></trkpt><trkpt lat="44.63019100209353" lon="9.332716076133817"><ele>485.0</ele><time>2026-04-25T15:16:29Z</time></trkpt><trkpt lat="44.630025027245935" lon="9.33280675304142"><ele>480.3333333333333</ele><time>2026-04-25T15:16:30Z</time></trkpt><trkpt lat="44.62985853962182" lon="9.332885739908967"><ele>475.66666666666663</ele><time>2026-04-25T15:16:31Z</time></trkpt><trkpt lat="44.62968328079989" lon="9.332951414963162"><ele>471.0</ele><time>2026-04-25T15:16:32Z</time></trkpt><trkpt lat="44.629499691728086" lon="9.333000969952359"><ele>471.33333333333337</ele><time>2026-04-25T15:16:33Z</time></trkpt><trkpt lat="44.6293075532674" lon="9.33303674501081"><ele>471.6666666666667</ele><time>2026-04-25T15:16:34Z</time></trkpt><trkpt lat="44.629119254079505" lon="9.333052232281203"><ele>472.0</ele><time>2026-04-25T15:16:35Z</time></trkpt><trkpt lat="44.62894358852699" lon="9.333049457966748"><ele>472.0</ele><time>2026-04-25T15:16:36Z</time></trkpt><trkpt lat="44.6287693886464" lon="9.33304054932129"><ele>472.0</ele><time>2026-04-25T15:16:37Z</time></trkpt><trkpt lat="44.62859641838565" lon="9.333028621914954"><ele>472.0</ele><time>2026-04-25T15:16:38Z</time></trkpt><trkpt lat="44.62841867563352" lon="9.333014988999738"><ele>472.33333333333337</ele><time>2026-04-25T15:16:39Z</time></trkpt><trkpt lat="44.62824042804302" lon="9.333004639509037"><ele>472.66666666666663</ele><time>2026-04-25T15:16:40Z</time></trkpt><trkpt lat="44.62805845065677" lon="9.332996068556596"><ele>473.0</ele><time>2026-04-25T15:16:41Z</time></trkpt><trkpt lat="44.62787698269779" lon="9.332980563574177"><ele>473.0</ele><time>2026-04-25T15:16:42Z</time></trkpt><trkpt lat="44.62770589739993" lon="9.332962368170552"><ele>473.0</ele><time>2026-04-25T15:16:43Z</time></trkpt><trkpt lat="44.627542566839324" lon="9.33294711788704"><ele>473.0</ele><time>2026-04-25T15:16:44Z</time></trkpt><trkpt lat="44.62737992399038" lon="9.3329250531611"><ele>473.0</ele><time>2026-04-25T15:16:45Z</time></trkpt><trkpt lat="44.627220158892115" lon="9.332896084640772"><ele>473.0</ele><time>2026-04-25T15:16:46Z</time></trkpt><trkpt lat="44.62706416612792" lon="9.332861754628137"><ele>473.0</ele><time>2026-04-25T15:16:47Z</time></trkpt><trkpt lat="44.6269034561816" lon="9.332822420111912"><ele>475.0</ele><time>2026-04-25T15:16:48Z</time></trkpt><trkpt lat="44.62674173396615" lon="9.3327800615586"><ele>477.0</ele><time>2026-04-25T15:16:49Z</time></trkpt><trkpt lat="44.626578985711376" lon="9.332735064715003"><ele>479.0</ele><time>2026-04-25T15:16:50Z</time></trkpt><trkpt lat="44.62641638078328" lon="9.332676584897625"><ele>479.0</ele><time>2026-04-25T15:16:51Z</time></trkpt><trkpt lat="44.626249443836905" lon="9.332612125307673"><ele>479.0</ele><time>2026-04-25T15:16:52Z</time></trkpt><trkpt lat="44.62607510127463" lon="9.332541022528366"><ele>479.0</ele><time>2026-04-25T15:16:53Z</time></trkpt><trkpt lat="44.62591018308209" lon="9.33245975671128"><ele>477.3333333333333</ele><time>2026-04-25T15:16:54Z</time></trkpt><trkpt lat="44.62574936001752" lon="9.332377432148348"><ele>475.66666666666663</ele><time>2026-04-25T15:16:55Z</time></trkpt><trkpt lat="44.625594499881835" lon="9.33229523330316"><ele>474.0</ele><time>2026-04-25T15:16:56Z</time></trkpt><trkpt lat="44.62544866477138" lon="9.332209368630384"><ele>475.5</ele><time>2026-04-25T15:16:57Z</time></trkpt><trkpt lat="44.625312930083474" lon="9.332132063965162"><ele>477.0</ele><time>2026-04-25T15:16:58Z</time></trkpt><trkpt lat="44.6251933357353" lon="9.332068842089978"><ele>478.5</ele><time>2026-04-25T15:16:59Z</time></trkpt><trkpt lat="44.62508190143826" lon="9.332011068469152"><ele>480.0</ele><time>2026-04-25T15:17:00Z</time></trkpt><trkpt lat="44.624980043825744" lon="9.331951529194486"><ele>480.0</ele><time>2026-04-25T15:17:01Z</time></trkpt><trkpt lat="44.62488088040356" lon="9.331889168179423"><ele>480.0</ele><time>2026-04-25T15:17:02Z</time></trkpt><trkpt lat="44.62477950041476" lon="9.3318325215406"><ele>480.0</ele><time>2026-04-25T15:17:03Z</time></trkpt><trkpt lat="44.62467687366976" lon="9.331774298794189"><ele>480.0</ele><time>2026-04-25T15:17:04Z</time></trkpt><trkpt lat="44.6245764023444" lon="9.331706954008876"><ele>480.0</ele><time>2026-04-25T15:17:05Z</time></trkpt><trkpt lat="44.62446868249625" lon="9.331649162193187"><ele>479.8333333333333</ele><time>2026-04-25T15:17:06Z</time></trkpt><trkpt lat="44.62437152753203" lon="9.331593197019508"><ele>479.66666666666663</ele><time>2026-04-25T15:17:07Z</time></trkpt><trkpt lat="44.62428086234421" lon="9.331544860335816"><ele>479.5</ele><time>2026-04-25T15:17:08Z</time></trkpt><trkpt lat="44.624204174828535" lon="9.33150203198707"><ele>479.3333333333333</ele><time>2026-04-25T15:17:09Z</time></trkpt><trkpt lat="44.624138022998146" lon="9.331466301638365"><ele>479.16666666666663</ele><time>2026-04-25T15:17:10Z</time></trkpt><trkpt lat="44.62406260187061" lon="9.331425033271582"><ele>479.0</ele><time>2026-04-25T15:17:11Z</time></trkpt><trkpt lat="44.6239513768816" lon="9.331362716278601"><ele>479.0</ele><time>2026-04-25T15:17:12Z</time></trkpt><trkpt lat="44.62380282694518" lon="9.331283138116321"><ele>479.0</ele><time>2026-04-25T15:17:13Z</time></trkpt><trkpt lat="44.62362307385024" lon="9.33118565840858"><ele>479.0</ele><time>2026-04-25T15:17:14Z</time></trkpt><trkpt lat="44.62345693799375" lon="9.331095050315637"><ele>478.66666666666663</ele><time>2026-04-25T15:17:15Z</time></trkpt><trkpt lat="44.623276570795106" lon="9.33100731818154"><ele>478.33333333333337</ele><time>2026-04-25T15:17:16Z</time></trkpt><trkpt lat="44.62309958650594" lon="9.33088426936034"><ele>478.0</ele><time>2026-04-25T15:17:17Z</time></trkpt><trkpt lat="44.62293119016858" lon="9.330776055342415"><ele>478.33333333333337</ele><time>2026-04-25T15:17:18Z</time></trkpt><trkpt lat="44.62277700476354" lon="9.33066046700073"><ele>478.66666666666663</ele><time>2026-04-25T15:17:19Z</time></trkpt><trkpt lat="44.622628369688165" lon="9.330535520480534"><ele>479.0</ele><time>2026-04-25T15:17:20Z</time></trkpt><trkpt lat="44.62248071666467" lon="9.330396653658568"><ele>480.3333333333333</ele><time>2026-04-25T15:17:21Z</time></trkpt><trkpt lat="44.62233197217864" lon="9.330238171303522"><ele>481.66666666666663</ele><time>2026-04-25T15:17:22Z</time></trkpt><trkpt lat="44.62217223195448" lon="9.330082695016799"><ele>483.0</ele><time>2026-04-25T15:17:23Z</time></trkpt><trkpt lat="44.62203596701406" lon="9.329874747560465"><ele>484.0</ele><time>2026-04-25T15:17:24Z</time></trkpt><trkpt lat="44.62188974130523" lon="9.329682101896633"><ele>485.0</ele><time>2026-04-25T15:17:25Z</time></trkpt><trkpt lat="44.62175967652975" lon="9.329473396370837"><ele>486.0</ele><time>2026-04-25T15:17:26Z</time></trkpt><trkpt lat="44.621646940784686" lon="9.329250915019424"><ele>486.0</ele><time>2026-04-25T15:17:27Z</time></trkpt><trkpt lat="44.621521801690434" lon="9.329052233996608"><ele>486.0</ele><time>2026-04-25T15:17:28Z</time></trkpt><trkpt lat="44.62141764132434" lon="9.328804057362994"><ele>486.0</ele><time>2026-04-25T15:17:29Z</time></trkpt><trkpt lat="44.62131623612243" lon="9.328546412732617"><ele>485.0</ele><time>2026-04-25T15:17:30Z</time></trkpt><trkpt lat="44.621215411929924" lon="9.328266835432641"><ele>484.0</ele><time>2026-04-25T15:17:31Z</time></trkpt><trkpt lat="44.62111010825519" lon="9.328002052128346"><ele>483.0</ele><time>2026-04-25T15:17:32Z</time></trkpt><trkpt lat="44.6210073367702" lon="9.327757539959153"><ele>483.0</ele><time>2026-04-25T15:17:33Z</time></trkpt><trkpt lat="44.62090735115324" lon="9.327519229531031"><ele>483.0</ele><time>2026-04-25T15:17:34Z</time></trkpt><trkpt lat="44.62080885387401" lon="9.32727636028269"><ele>483.0</ele><time>2026-04-25T15:17:35Z</time></trkpt><trkpt lat="44.62070970736218" lon="9.327039313010909"><ele>483.33333333333337</ele><time>2026-04-25T15:17:36Z</time></trkpt><trkpt lat="44.62059981963485" lon="9.326807812226125"><ele>483.6666666666667</ele><time>2026-04-25T15:17:37Z</time></trkpt><trkpt lat="44.620478382529384" lon="9.326586848240959"><ele>484.0</ele><time>2026-04-25T15:17:38Z</time></trkpt><trkpt lat="44.62034399214754" lon="9.326366016362899"><ele>485.33333333333337</ele><time>2026-04-25T15:17:39Z</time></trkpt><trkpt lat="44.620199135975" lon="9.326148885178963"><ele>486.66666666666663</ele><time>2026-04-25T15:17:40Z</time></trkpt><trkpt lat="44.62004606622485" lon="9.325939804743614"><ele>488.0</ele><time>2026-04-25T15:17:41Z</time></trkpt><trkpt lat="44.61988850348001" lon="9.325729803278186"><ele>488.0</ele><time>2026-04-25T15:17:42Z</time></trkpt><trkpt lat="44.619729119603136" lon="9.325514475545067"><ele>488.0</ele><time>2026-04-25T15:17:43Z</time></trkpt><trkpt lat="44.6195700652343" lon="9.325296643930265"><ele>488.0</ele><time>2026-04-25T15:17:44Z</time></trkpt><trkpt lat="44.619406845603365" lon="9.325071465692359"><ele>490.0</ele><time>2026-04-25T15:17:45Z</time></trkpt><trkpt lat="44.6192426488872" lon="9.324850668783629"><ele>492.0</ele><time>2026-04-25T15:17:46Z</time></trkpt><trkpt lat="44.619073931452824" lon="9.324629463745916"><ele>498.0</ele><time>2026-04-25T15:17:47Z</time></trkpt><trkpt lat="44.61891321439294" lon="9.32441251271593"><ele>504.0</ele><time>2026-04-25T15:17:48Z</time></trkpt><trkpt lat="44.61874861486313" lon="9.324192499279285"><ele>501.5</ele><time>2026-04-25T15:17:49Z</time></trkpt><trkpt lat="44.61858217468558" lon="9.323967646302785"><ele>499.0</ele><time>2026-04-25T15:17:50Z</time></trkpt><trkpt lat="44.61840980821392" lon="9.3237401324554"><ele>499.0</ele><time>2026-04-25T15:17:51Z</time></trkpt><trkpt lat="44.61824179894237" lon="9.32351560050511"><ele>499.0</ele><time>2026-04-25T15:17:52Z</time></trkpt><trkpt lat="44.61808289281317" lon="9.32330056557696"><ele>499.0</ele><time>2026-04-25T15:17:53Z</time></trkpt><trkpt lat="44.617932147356775" lon="9.323098955198356"><ele>499.0</ele><time>2026-04-25T15:17:54Z</time></trkpt><trkpt lat="44.61779157046796" lon="9.32290988889137"><ele>499.0</ele><time>2026-04-25T15:17:55Z</time></trkpt><trkpt lat="44.617655883903645" lon="9.322728538428148"><ele>496.0</ele><time>2026-04-25T15:17:56Z</time></trkpt><trkpt lat="44.61753195264372" lon="9.322555323193901"><ele>493.0</ele><time>2026-04-25T15:17:57Z</time></trkpt><trkpt lat="44.61741457751781" lon="9.322392817939892"><ele>490.0</ele><time>2026-04-25T15:17:58Z</time></trkpt><trkpt lat="44.6172974196365" lon="9.322240436170432"><ele>490.0</ele><time>2026-04-25T15:17:59Z</time></trkpt><trkpt lat="44.61717869727374" lon="9.322104420735714"><ele>490.0</ele><time>2026-04-25T15:18:00Z</time></trkpt><trkpt lat="44.617049814511205" lon="9.321991068921644"><ele>490.0</ele><time>2026-04-25T15:18:01Z</time></trkpt><trkpt lat="44.61690472738297" lon="9.321899880069925"><ele>494.0</ele><time>2026-04-25T15:18:02Z</time></trkpt><trkpt lat="44.61675287590759" lon="9.32182841662021"><ele>498.0</ele><time>2026-04-25T15:18:03Z</time></trkpt><trkpt lat="44.61659391273699" lon="9.321785737159757"><ele>502.0</ele><time>2026-04-25T15:18:04Z</time></trkpt><trkpt lat="44.61642207485533" lon="9.321768686115716"><ele>502.0</ele><time>2026-04-25T15:18:05Z</time></trkpt><trkpt lat="44.616239596464695" lon="9.32177092490401"><ele>502.0</ele><time>2026-04-25T15:18:06Z</time></trkpt><trkpt lat="44.61606890059041" lon="9.321777181963178"><ele>502.0</ele><time>2026-04-25T15:18:07Z</time></trkpt><trkpt lat="44.61591217541523" lon="9.32178469843931"><ele>503.75</ele><time>2026-04-25T15:18:08Z</time></trkpt><trkpt lat="44.615761690693176" lon="9.321802455952675"><ele>505.5</ele><time>2026-04-25T15:18:09Z</time></trkpt><trkpt lat="44.61561283757851" lon="9.321813259051652"><ele>507.25</ele><time>2026-04-25T15:18:10Z</time></trkpt><trkpt lat="44.61546663284011" lon="9.321818511360831"><ele>509.0</ele><time>2026-04-25T15:18:11Z</time></trkpt><trkpt lat="44.61532556534783" lon="9.321804884126037"><ele>509.5</ele><time>2026-04-25T15:18:12Z</time></trkpt><trkpt lat="44.61519119543405" lon="9.321770379642368"><ele>510.0</ele><time>2026-04-25T15:18:13Z</time></trkpt><trkpt lat="44.61506926634385" lon="9.321710871499063"><ele>510.5</ele><time>2026-04-25T15:18:14Z</time></trkpt><trkpt lat="44.61495658954605" lon="9.321599389252503"><ele>511.0</ele><time>2026-04-25T15:18:15Z</time></trkpt><trkpt lat="44.614846917702124" lon="9.321484895002369"><ele>511.0</ele><time>2026-04-25T15:18:16Z</time></trkpt><trkpt lat="44.614742843813794" lon="9.321407496550208"><ele>511.0</ele><time>2026-04-25T15:18:17Z</time></trkpt><trkpt lat="44.61466372372267" lon="9.321309548394943"><ele>511.0</ele><time>2026-04-25T15:18:18Z</time></trkpt><trkpt lat="44.614567058585095" lon="9.321217023487831"><ele>511.0</ele><time>2026-04-25T15:18:19Z</time></trkpt><trkpt lat="44.61446385771457" lon="9.321127534231563"><ele>516.0</ele><time>2026-04-25T15:18:20Z</time></trkpt><trkpt lat="44.6141729118785" lon="9.32142017679852"><ele>521.0</ele><time>2026-04-25T15:18:21Z</time></trkpt><trkpt lat="44.61398554794736" lon="9.321476170605218"><ele>521.0</ele><time>2026-04-25T15:18:22Z</time></trkpt><trkpt lat="44.61381307454247" lon="9.321520414449513"><ele>521.0</ele><time>2026-04-25T15:18:23Z</time></trkpt><trkpt lat="44.61365640006843" lon="9.32156311890974"><ele>521.0</ele><time>2026-04-25T15:18:24Z</time></trkpt><trkpt lat="44.6135098249437" lon="9.321607721047238"><ele>520.2</ele><time>2026-04-25T15:18:25Z</time></trkpt><trkpt lat="44.613371130174244" lon="9.321648895291"><ele>519.4000000000001</ele><time>2026-04-25T15:18:26Z</time></trkpt><trkpt lat="44.613256796581375" lon="9.321673283258857"><ele>518.6</ele><time>2026-04-25T15:18:27Z</time></trkpt><trkpt lat="44.61315596106992" lon="9.32167782767974"><ele>517.8000000000001</ele><time>2026-04-25T15:18:28Z</time></trkpt><trkpt lat="44.61307675556349" lon="9.321629788140752"><ele>517.0</ele><time>2026-04-25T15:18:29Z</time></trkpt><trkpt lat="44.613017719591845" lon="9.321522820454243"><ele>513.25</ele><time>2026-04-25T15:18:30Z</time></trkpt><trkpt lat="44.61298031485484" lon="9.321386626038084"><ele>509.5</ele><time>2026-04-25T15:18:31Z</time></trkpt><trkpt lat="44.61296482704515" lon="9.321208891858202"><ele>505.75</ele><time>2026-04-25T15:18:32Z</time></trkpt><trkpt lat="44.612939483271454" lon="9.321021800977093"><ele>502.0</ele><time>2026-04-25T15:18:33Z</time></trkpt><trkpt lat="44.612908247584166" lon="9.320848288906868"><ele>502.0</ele><time>2026-04-25T15:18:34Z</time></trkpt><trkpt lat="44.61287275157124" lon="9.320693856060435"><ele>502.0</ele><time>2026-04-25T15:18:35Z</time></trkpt><trkpt lat="44.61281766803254" lon="9.320553796127856"><ele>502.0</ele><time>2026-04-25T15:18:36Z</time></trkpt><trkpt lat="44.61272011476223" lon="9.320433801734508"><ele>502.0</ele><time>2026-04-25T15:18:37Z</time></trkpt><trkpt lat="44.61258918252488" lon="9.320324017593126"><ele>503.0</ele><time>2026-04-25T15:18:38Z</time></trkpt><trkpt lat="44.6124433314809" lon="9.3202105395684"><ele>504.0</ele><time>2026-04-25T15:18:39Z</time></trkpt><trkpt lat="44.6123078774145" lon="9.320101662787739"><ele>505.0</ele><time>2026-04-25T15:18:40Z</time></trkpt><trkpt lat="44.612189774991094" lon="9.320003407326762"><ele>505.0</ele><time>2026-04-25T15:18:41Z</time></trkpt><trkpt lat="44.612082730169476" lon="9.31991669996706"><ele>505.0</ele><time>2026-04-25T15:18:42Z</time></trkpt><trkpt lat="44.611988714059386" lon="9.319825416857027"><ele>505.0</ele><time>2026-04-25T15:18:43Z</time></trkpt><trkpt lat="44.611920396217286" lon="9.319727791141588"><ele>505.0</ele><time>2026-04-25T15:18:44Z</time></trkpt><trkpt lat="44.611885651213996" lon="9.319607033167706"><ele>505.0</ele><time>2026-04-25T15:18:45Z</time></trkpt><trkpt lat="44.61188111600059" lon="9.319460325837719"><ele>505.0</ele><time>2026-04-25T15:18:46Z</time></trkpt><trkpt lat="44.611890402979434" lon="9.31929660446579"><ele>505.0</ele><time>2026-04-25T15:18:47Z</time></trkpt><trkpt lat="44.61190128655926" lon="9.31913083012616"><ele>505.0</ele><time>2026-04-25T15:18:48Z</time></trkpt><trkpt lat="44.61189753526759" lon="9.318992337089842"><ele>505.0</ele><time>2026-04-25T15:18:49Z</time></trkpt><trkpt lat="44.61185976986136" lon="9.318878345246763"><ele>505.0</ele><time>2026-04-25T15:18:50Z</time></trkpt><trkpt lat="44.61178304667593" lon="9.318795315320067"><ele>512.0</ele><time>2026-04-25T15:18:51Z</time></trkpt><trkpt lat="44.61168219798173" lon="9.31872157125233"><ele>519.0</ele><time>2026-04-25T15:18:52Z</time></trkpt><trkpt lat="44.61156863110728" lon="9.318623728496467"><ele>526.0</ele><time>2026-04-25T15:18:53Z</time></trkpt><trkpt lat="44.61144465844916" lon="9.318504479942945"><ele>533.0</ele><time>2026-04-25T15:18:54Z</time></trkpt><trkpt lat="44.61131580679888" lon="9.318385205194788"><ele>533.0</ele><time>2026-04-25T15:18:55Z</time></trkpt><trkpt lat="44.61120133831825" lon="9.318277286827316"><ele>533.0</ele><time>2026-04-25T15:18:56Z</time></trkpt><trkpt lat="44.611088319284505" lon="9.31819172478851"><ele>533.0</ele><time>2026-04-25T15:18:57Z</time></trkpt><trkpt lat="44.610975890052735" lon="9.318133946072194"><ele>533.0</ele><time>2026-04-25T15:18:58Z</time></trkpt><trkpt lat="44.610878265284036" lon="9.318083243217618"><ele>528.8</ele><time>2026-04-25T15:18:59Z</time></trkpt><trkpt lat="44.61080993674207" lon="9.318005171042019"><ele>524.5999999999999</ele><time>2026-04-25T15:19:00Z</time></trkpt><trkpt lat="44.61077394144865" lon="9.317900398484339"><ele>520.4000000000001</ele><time>2026-04-25T15:19:01Z</time></trkpt><trkpt lat="44.610762002866565" lon="9.31777425083148"><ele>516.2</ele><time>2026-04-25T15:19:02Z</time></trkpt><trkpt lat="44.610767223898875" lon="9.317632613484902"><ele>512.0</ele><time>2026-04-25T15:19:03Z</time></trkpt><trkpt lat="44.61078704462464" lon="9.317468169089793"><ele>512.0</ele><time>2026-04-25T15:19:04Z</time></trkpt><trkpt lat="44.61078805322012" lon="9.317284065572661"><ele>512.0</ele><time>2026-04-25T15:19:05Z</time></trkpt><trkpt lat="44.61077030656708" lon="9.31708263511041"><ele>512.0</ele><time>2026-04-25T15:19:06Z</time></trkpt><trkpt lat="44.610745108475314" lon="9.316893283442587"><ele>512.0</ele><time>2026-04-25T15:19:07Z</time></trkpt><trkpt lat="44.61074397292646" lon="9.316727876446233"><ele>513.25</ele><time>2026-04-25T15:19:08Z</time></trkpt><trkpt lat="44.61077736429638" lon="9.316566985803494"><ele>514.5</ele><time>2026-04-25T15:19:09Z</time></trkpt><trkpt lat="44.610847419744054" lon="9.31641429883031"><ele>515.75</ele><time>2026-04-25T15:19:10Z</time></trkpt><trkpt lat="44.610869577660175" lon="9.316254593602698"><ele>517.0</ele><time>2026-04-25T15:19:11Z</time></trkpt><trkpt lat="44.610857713349446" lon="9.316085022001786"><ele>517.25</ele><time>2026-04-25T15:19:12Z</time></trkpt><trkpt lat="44.61083180718851" lon="9.31590563225137"><ele>517.5</ele><time>2026-04-25T15:19:13Z</time></trkpt><trkpt lat="44.610797405181074" lon="9.31571753111071"><ele>517.75</ele><time>2026-04-25T15:19:14Z</time></trkpt><trkpt lat="44.61075085469465" lon="9.315516620719036"><ele>518.0</ele><time>2026-04-25T15:19:15Z</time></trkpt><trkpt lat="44.61069746808767" lon="9.315309773203966"><ele>518.3333333333333</ele><time>2026-04-25T15:19:16Z</time></trkpt><trkpt lat="44.610640017361106" lon="9.3150984380009"><ele>518.6666666666666</ele><time>2026-04-25T15:19:17Z</time></trkpt><trkpt lat="44.610584624772365" lon="9.314901059088811"><ele>519.0</ele><time>2026-04-25T15:19:18Z</time></trkpt><trkpt lat="44.61054234526433" lon="9.314708410579023"><ele>521.0</ele><time>2026-04-25T15:19:19Z</time></trkpt><trkpt lat="44.61053131616971" lon="9.314516421120759"><ele>523.0</ele><time>2026-04-25T15:19:20Z</time></trkpt><trkpt lat="44.61052438442215" lon="9.31430729424136"><ele>525.0</ele><time>2026-04-25T15:19:21Z</time></trkpt><trkpt lat="44.610506978492204" lon="9.314080715005788"><ele>527.0</ele><time>2026-04-25T15:19:22Z</time></trkpt><trkpt lat="44.61051234496036" lon="9.31385077047179"><ele>527.0</ele><time>2026-04-25T15:19:23Z</time></trkpt><trkpt lat="44.61051227712155" lon="9.313626319226174"><ele>527.0</ele><time>2026-04-25T15:19:24Z</time></trkpt><trkpt lat="44.610500776597995" lon="9.313405505907213"><ele>527.0</ele><time>2026-04-25T15:19:25Z</time></trkpt><trkpt lat="44.61046079047286" lon="9.313190128200672"><ele>529.3333333333333</ele><time>2026-04-25T15:19:26Z</time></trkpt><trkpt lat="44.61040895652502" lon="9.312965511981751"><ele>531.6666666666666</ele><time>2026-04-25T15:19:27Z</time></trkpt><trkpt lat="44.61035675751413" lon="9.312738532931219"><ele>534.0</ele><time>2026-04-25T15:19:28Z</time></trkpt><trkpt lat="44.61029415089269" lon="9.312515009619935"><ele>528.25</ele><time>2026-04-25T15:19:29Z</time></trkpt><trkpt lat="44.610223779150736" lon="9.312312966583498"><ele>522.5</ele><time>2026-04-25T15:19:30Z</time></trkpt><trkpt lat="44.61015368162041" lon="9.312130893482477"><ele>516.75</ele><time>2026-04-25T15:19:31Z</time></trkpt><trkpt lat="44.610112633142336" lon="9.311970888406128"><ele>511.0</ele><time>2026-04-25T15:19:32Z</time></trkpt><trkpt lat="44.61012022312443" lon="9.311819518163714"><ele>511.0</ele><time>2026-04-25T15:19:33Z</time></trkpt><trkpt lat="44.610120996622555" lon="9.31166756822817"><ele>511.0</ele><time>2026-04-25T15:19:34Z</time></trkpt><trkpt lat="44.610158991968355" lon="9.311512696327785"><ele>511.0</ele><time>2026-04-25T15:19:35Z</time></trkpt><trkpt lat="44.610247484879395" lon="9.311381515322235"><ele>511.0</ele><time>2026-04-25T15:19:36Z</time></trkpt><trkpt lat="44.61033820923818" lon="9.311232896083922"><ele>517.6666666666667</ele><time>2026-04-25T15:19:37Z</time></trkpt><trkpt lat="44.61042990423028" lon="9.311055901681177"><ele>524.3333333333334</ele><time>2026-04-25T15:19:38Z</time></trkpt><trkpt lat="44.6105374940125" lon="9.310889428631326"><ele>531.0</ele><time>2026-04-25T15:19:39Z</time></trkpt><trkpt lat="44.6106478140927" lon="9.310726402218299"><ele>525.6666666666666</ele><time>2026-04-25T15:19:40Z</time></trkpt><trkpt lat="44.6107547065238" lon="9.3105544824098"><ele>520.3333333333333</ele><time>2026-04-25T15:19:41Z</time></trkpt><trkpt lat="44.61085967327033" lon="9.310388316081214"><ele>515.0</ele><time>2026-04-25T15:19:42Z</time></trkpt><trkpt lat="44.61096108324182" lon="9.310229635153807"><ele>515.0</ele><time>2026-04-25T15:19:43Z</time></trkpt><trkpt lat="44.611045835726834" lon="9.310091044604324"><ele>515.0</ele><time>2026-04-25T15:19:44Z</time></trkpt><trkpt lat="44.611106517766885" lon="9.309931994234267"><ele>515.0</ele><time>2026-04-25T15:19:45Z</time></trkpt><trkpt lat="44.611140521574974" lon="9.309738639372068"><ele>515.0</ele><time>2026-04-25T15:19:46Z</time></trkpt><trkpt lat="44.61115567015845" lon="9.309520233082209"><ele>519.0</ele><time>2026-04-25T15:19:47Z</time></trkpt><trkpt lat="44.61118467238525" lon="9.309320757931637"><ele>523.0</ele><time>2026-04-25T15:19:48Z</time></trkpt><trkpt lat="44.61121770546279" lon="9.309144072490906"><ele>527.0</ele><time>2026-04-25T15:19:49Z</time></trkpt><trkpt lat="44.611252669887236" lon="9.308993653377092"><ele>531.0</ele><time>2026-04-25T15:19:50Z</time></trkpt><trkpt lat="44.61126614391082" lon="9.308859510643568"><ele>531.0</ele><time>2026-04-25T15:19:51Z</time></trkpt><trkpt lat="44.61125424562019" lon="9.30873021014305"><ele>531.0</ele><time>2026-04-25T15:19:52Z</time></trkpt><trkpt lat="44.6111721450479" lon="9.308618782994511"><ele>531.0</ele><time>2026-04-25T15:19:53Z</time></trkpt><trkpt lat="44.61109319373061" lon="9.308489151913491"><ele>531.0</ele><time>2026-04-25T15:19:54Z</time></trkpt><trkpt lat="44.611002238782625" lon="9.308335601897301"><ele>529.0</ele><time>2026-04-25T15:19:55Z</time></trkpt><trkpt lat="44.610904299312175" lon="9.308168601874346"><ele>527.0</ele><time>2026-04-25T15:19:56Z</time></trkpt><trkpt lat="44.61081633179407" lon="9.30801680900312"><ele>525.0</ele><time>2026-04-25T15:19:57Z</time></trkpt><trkpt lat="44.61072595748574" lon="9.307866829200318"><ele>523.0</ele><time>2026-04-25T15:19:58Z</time></trkpt><trkpt lat="44.61064063025056" lon="9.307726463131893"><ele>523.0</ele><time>2026-04-25T15:19:59Z</time></trkpt><trkpt lat="44.610601009352074" lon="9.307565879566889"><ele>523.0</ele><time>2026-04-25T15:20:00Z</time></trkpt><trkpt lat="44.61060489246922" lon="9.307409578746945"><ele>523.0</ele><time>2026-04-25T15:20:01Z</time></trkpt><trkpt lat="44.61061828372112" lon="9.30722626966452"><ele>523.0</ele><time>2026-04-25T15:20:02Z</time></trkpt><trkpt lat="44.610601690793665" lon="9.307085363556244"><ele>526.0</ele><time>2026-04-25T15:20:03Z</time></trkpt><trkpt lat="44.61057306061614" lon="9.306955173127124"><ele>529.0</ele><time>2026-04-25T15:20:04Z</time></trkpt><trkpt lat="44.61048630462704" lon="9.30684058243759"><ele>532.0</ele><time>2026-04-25T15:20:05Z</time></trkpt><trkpt lat="44.61037139579256" lon="9.306747341501454"><ele>535.0</ele><time>2026-04-25T15:20:06Z</time></trkpt><trkpt lat="44.610233496023255" lon="9.306667526285876"><ele>535.0</ele><time>2026-04-25T15:20:07Z</time></trkpt><trkpt lat="44.61008449741681" lon="9.306610912053431"><ele>535.0</ele><time>2026-04-25T15:20:08Z</time></trkpt><trkpt lat="44.60991238528785" lon="9.30661600500092"><ele>535.0</ele><time>2026-04-25T15:20:09.001Z</time></trkpt><trkpt lat="44.60972447244869" lon="9.306666918242962"><ele>535.0</ele><time>2026-04-25T15:20:10.001Z</time></trkpt><trkpt lat="44.60950594923373" lon="9.30671724664669"><ele>535.0</ele><time>2026-04-25T15:20:11.001Z</time></trkpt><trkpt lat="44.60929872491969" lon="9.306764011608458"><ele>535.0</ele><time>2026-04-25T15:20:12.001Z</time></trkpt><trkpt lat="44.60910215917377" lon="9.306845064682914"><ele>533.3333333333334</ele><time>2026-04-25T15:20:13.001Z</time></trkpt><trkpt lat="44.60892393846989" lon="9.306931177850457"><ele>531.6666666666666</ele><time>2026-04-25T15:20:14.001Z</time></trkpt><trkpt lat="44.60876145554992" lon="9.307000330228506"><ele>530.0</ele><time>2026-04-25T15:20:15.001Z</time></trkpt><trkpt lat="44.6086234159597" lon="9.30705348017883"><ele>529.5</ele><time>2026-04-25T15:20:16.001Z</time></trkpt><trkpt lat="44.60849204102978" lon="9.307046894662387"><ele>529.0</ele><time>2026-04-25T15:20:17.001Z</time></trkpt><trkpt lat="44.60835897445339" lon="9.307006927081789"><ele>528.5</ele><time>2026-04-25T15:20:18.001Z</time></trkpt><trkpt lat="44.608195588223" lon="9.306970062898273"><ele>528.0</ele><time>2026-04-25T15:20:19.001Z</time></trkpt><trkpt lat="44.60801134567928" lon="9.306952130142847"><ele>528.0</ele><time>2026-04-25T15:20:20.001Z</time></trkpt><trkpt lat="44.60783223386976" lon="9.306946744674221"><ele>528.0</ele><time>2026-04-25T15:20:21.001Z</time></trkpt><trkpt lat="44.607672737739776" lon="9.306959979841544"><ele>528.0</ele><time>2026-04-25T15:20:22.001Z</time></trkpt><trkpt lat="44.607525998010594" lon="9.306953301966583"><ele>527.5</ele><time>2026-04-25T15:20:23.001Z</time></trkpt><trkpt lat="44.60740190364442" lon="9.306881307086913"><ele>527.0</ele><time>2026-04-25T15:20:24.001Z</time></trkpt><trkpt lat="44.60730070168395" lon="9.306776859522088"><ele>526.5</ele><time>2026-04-25T15:20:25.001Z</time></trkpt><trkpt lat="44.60719267029235" lon="9.306664167003497"><ele>526.0</ele><time>2026-04-25T15:20:26.001Z</time></trkpt><trkpt lat="44.607083895403704" lon="9.30654748922657"><ele>526.25</ele><time>2026-04-25T15:20:27.001Z</time></trkpt><trkpt lat="44.60698541170004" lon="9.306423216924832"><ele>526.5</ele><time>2026-04-25T15:20:28.001Z</time></trkpt><trkpt lat="44.606907266331" lon="9.306289589733005"><ele>526.75</ele><time>2026-04-25T15:20:29.001Z</time></trkpt><trkpt lat="44.606857326577575" lon="9.306102605815969"><ele>527.0</ele><time>2026-04-25T15:20:30.001Z</time></trkpt><trkpt lat="44.60682034153363" lon="9.305886094106434"><ele>527.0</ele><time>2026-04-25T15:20:31.001Z</time></trkpt><trkpt lat="44.60677734383821" lon="9.305651479271132"><ele>527.0</ele><time>2026-04-25T15:20:32.001Z</time></trkpt><trkpt lat="44.60673875916414" lon="9.305410262756173"><ele>527.0</ele><time>2026-04-25T15:20:33Z</time></trkpt><trkpt lat="44.60670878473313" lon="9.305182729664029"><ele>527.0</ele><time>2026-04-25T15:20:34Z</time></trkpt><trkpt lat="44.60668305916339" lon="9.30496963304112"><ele>527.0</ele><time>2026-04-25T15:20:35Z</time></trkpt><trkpt lat="44.6066711607756" lon="9.304777249998503"><ele>527.0</ele><time>2026-04-25T15:20:36Z</time></trkpt><trkpt lat="44.606687802853486" lon="9.304604364641413"><ele>527.0</ele><time>2026-04-25T15:20:37Z</time></trkpt><trkpt lat="44.606739455700954" lon="9.304455479500792"><ele>528.5</ele><time>2026-04-25T15:20:38Z</time></trkpt><trkpt lat="44.60682024548976" lon="9.304340800493502"><ele>530.0</ele><time>2026-04-25T15:20:39Z</time></trkpt><trkpt lat="44.60692005043996" lon="9.304281114070564"><ele>531.5</ele><time>2026-04-25T15:20:40Z</time></trkpt><trkpt lat="44.607027519477704" lon="9.304310531616087"><ele>533.0</ele><time>2026-04-25T15:20:41Z</time></trkpt><trkpt lat="44.60715953127921" lon="9.304301907918811"><ele>533.0</ele><time>2026-04-25T15:20:42Z</time></trkpt><trkpt lat="44.60731094026561" lon="9.304285222642099"><ele>533.0</ele><time>2026-04-25T15:20:43Z</time></trkpt><trkpt lat="44.607477007711736" lon="9.304209966419597"><ele>533.0</ele><time>2026-04-25T15:20:44Z</time></trkpt><trkpt lat="44.60762716793012" lon="9.304105124372406"><ele>533.0</ele><time>2026-04-25T15:20:45Z</time></trkpt><trkpt lat="44.6077676605905" lon="9.303967480462505"><ele>533.0</ele><time>2026-04-25T15:20:46Z</time></trkpt><trkpt lat="44.60790467085857" lon="9.303830245288983"><ele>533.0</ele><time>2026-04-25T15:20:47Z</time></trkpt><trkpt lat="44.608028947253324" lon="9.303695428710375"><ele>533.3333333333333</ele><time>2026-04-25T15:20:48Z</time></trkpt><trkpt lat="44.60814420786566" lon="9.30355365252822"><ele>533.6666666666666</ele><time>2026-04-25T15:20:49Z</time></trkpt><trkpt lat="44.608241633629746" lon="9.303374263997624"><ele>534.0</ele><time>2026-04-25T15:20:50Z</time></trkpt><trkpt lat="44.60831958525001" lon="9.303165975727348"><ele>533.5</ele><time>2026-04-25T15:20:51Z</time></trkpt><trkpt lat="44.60839577738722" lon="9.302957392591265"><ele>533.0</ele><time>2026-04-25T15:20:52Z</time></trkpt><trkpt lat="44.60846620991751" lon="9.30277896437853"><ele>532.5</ele><time>2026-04-25T15:20:53Z</time></trkpt><trkpt lat="44.60851561494454" lon="9.302625357415682"><ele>532.0</ele><time>2026-04-25T15:20:54Z</time></trkpt><trkpt lat="44.60852656571352" lon="9.302467706245594"><ele>532.0</ele><time>2026-04-25T15:20:55Z</time></trkpt><trkpt lat="44.60850012992143" lon="9.302283305910438"><ele>532.0</ele><time>2026-04-25T15:20:56Z</time></trkpt><trkpt lat="44.60845758900873" lon="9.30205898904291"><ele>532.0</ele><time>2026-04-25T15:20:57Z</time></trkpt><trkpt lat="44.60842502428538" lon="9.301805643900952"><ele>532.3333333333334</ele><time>2026-04-25T15:20:58Z</time></trkpt><trkpt lat="44.60839461839697" lon="9.301520292229087"><ele>532.6666666666666</ele><time>2026-04-25T15:20:59Z</time></trkpt><trkpt lat="44.60836357281739" lon="9.301231042811759"><ele>533.0</ele><time>2026-04-25T15:21:00Z</time></trkpt><trkpt lat="44.60833733514651" lon="9.300957810206725"><ele>533.0</ele><time>2026-04-25T15:21:01Z</time></trkpt><trkpt lat="44.608332115935276" lon="9.30068375223324"><ele>533.0</ele><time>2026-04-25T15:21:02Z</time></trkpt><trkpt lat="44.60833902355819" lon="9.300410432242817"><ele>533.0</ele><time>2026-04-25T15:21:03Z</time></trkpt><trkpt lat="44.60833227620683" lon="9.300146150110944"><ele>535.6666666666666</ele><time>2026-04-25T15:21:04Z</time></trkpt><trkpt lat="44.608308797490096" lon="9.29988659636465"><ele>538.3333333333334</ele><time>2026-04-25T15:21:05Z</time></trkpt><trkpt lat="44.608273783872484" lon="9.299630313123192"><ele>541.0</ele><time>2026-04-25T15:21:06Z</time></trkpt><trkpt lat="44.60823689643228" lon="9.299376142363442"><ele>543.0</ele><time>2026-04-25T15:21:07Z</time></trkpt><trkpt lat="44.60820274203036" lon="9.299143678729703"><ele>545.0</ele><time>2026-04-25T15:21:08Z</time></trkpt><trkpt lat="44.6081715635256" lon="9.298918195878192"><ele>547.0</ele><time>2026-04-25T15:21:09Z</time></trkpt><trkpt lat="44.608141598276106" lon="9.298709819559784"><ele>548.2</ele><time>2026-04-25T15:21:10Z</time></trkpt><trkpt lat="44.60811206549241" lon="9.29852527584168"><ele>549.4000000000001</ele><time>2026-04-25T15:21:11Z</time></trkpt><trkpt lat="44.60808653023344" lon="9.298364583352036"><ele>550.5999999999999</ele><time>2026-04-25T15:21:12Z</time></trkpt><trkpt lat="44.60805272409987" lon="9.298227290923922"><ele>551.8</ele><time>2026-04-25T15:21:13Z</time></trkpt><trkpt lat="44.607993755711526" lon="9.298126031046392"><ele>553.0</ele><time>2026-04-25T15:21:14Z</time></trkpt><trkpt lat="44.607912718649814" lon="9.29804932472374"><ele>548.25</ele><time>2026-04-25T15:21:15Z</time></trkpt><trkpt lat="44.607803664085495" lon="9.297997832641942"><ele>543.5</ele><time>2026-04-25T15:21:16Z</time></trkpt><trkpt lat="44.60767404816459" lon="9.297949027995307"><ele>538.75</ele><time>2026-04-25T15:21:17Z</time></trkpt><trkpt lat="44.60755359085462" lon="9.297875304585842"><ele>534.0</ele><time>2026-04-25T15:21:18Z</time></trkpt><trkpt lat="44.60745347214386" lon="9.297784858669713"><ele>534.0</ele><time>2026-04-25T15:21:19Z</time></trkpt><trkpt lat="44.60736558170412" lon="9.297668155579391"><ele>534.0</ele><time>2026-04-25T15:21:20Z</time></trkpt><trkpt lat="44.60727893897084" lon="9.29750279390471"><ele>534.0</ele><time>2026-04-25T15:21:21Z</time></trkpt><trkpt lat="44.607190404287245" lon="9.29732158810443"><ele>534.0</ele><time>2026-04-25T15:21:22Z</time></trkpt><trkpt lat="44.60710096424594" lon="9.297157146791733"><ele>532.0</ele><time>2026-04-25T15:21:23Z</time></trkpt><trkpt lat="44.60701949194433" lon="9.297010794143702"><ele>530.0</ele><time>2026-04-25T15:21:24Z</time></trkpt><trkpt lat="44.60695088414941" lon="9.296861033115755"><ele>528.0</ele><time>2026-04-25T15:21:25Z</time></trkpt><trkpt lat="44.60689297559827" lon="9.296689859547334"><ele>526.0</ele><time>2026-04-25T15:21:26Z</time></trkpt><trkpt lat="44.606857904915024" lon="9.296498291072526"><ele>527.0</ele><time>2026-04-25T15:21:27Z</time></trkpt><trkpt lat="44.60684908906047" lon="9.296312335435298"><ele>528.0</ele><time>2026-04-25T15:21:28Z</time></trkpt><trkpt lat="44.606820778719374" lon="9.296149589370204"><ele>529.0</ele><time>2026-04-25T15:21:29Z</time></trkpt><trkpt lat="44.60675544520583" lon="9.295989423896689"><ele>530.0</ele><time>2026-04-25T15:21:30Z</time></trkpt><trkpt lat="44.60666385825251" lon="9.295817459571705"><ele>530.0</ele><time>2026-04-25T15:21:31Z</time></trkpt><trkpt lat="44.60656345141078" lon="9.295625437976781"><ele>530.0</ele><time>2026-04-25T15:21:32Z</time></trkpt><trkpt lat="44.60645883512842" lon="9.295413677753235"><ele>530.0</ele><time>2026-04-25T15:21:33Z</time></trkpt><trkpt lat="44.606348761675434" lon="9.295187746262075"><ele>529.6666666666666</ele><time>2026-04-25T15:21:34Z</time></trkpt><trkpt lat="44.6062346192288" lon="9.29495177986362"><ele>529.3333333333334</ele><time>2026-04-25T15:21:35Z</time></trkpt><trkpt lat="44.60613148640952" lon="9.294735981861264"><ele>529.0</ele><time>2026-04-25T15:21:36Z</time></trkpt><trkpt lat="44.60603418767321" lon="9.29453509891353"><ele>527.3333333333334</ele><time>2026-04-25T15:21:37Z</time></trkpt><trkpt lat="44.60594234597588" lon="9.294348736173475"><ele>525.6666666666666</ele><time>2026-04-25T15:21:38Z</time></trkpt><trkpt lat="44.6058535158777" lon="9.294169047975107"><ele>524.0</ele><time>2026-04-25T15:21:39Z</time></trkpt><trkpt lat="44.6057671738802" lon="9.293991531481208"><ele>524.0</ele><time>2026-04-25T15:21:40Z</time></trkpt><trkpt lat="44.605681764695895" lon="9.293816290783866"><ele>524.0</ele><time>2026-04-25T15:21:41Z</time></trkpt><trkpt lat="44.60559535259019" lon="9.293640893471004"><ele>524.0</ele><time>2026-04-25T15:21:42Z</time></trkpt><trkpt lat="44.60550827861919" lon="9.293466035232157"><ele>524.0</ele><time>2026-04-25T15:21:43Z</time></trkpt><trkpt lat="44.60542130194025" lon="9.293293322177531"><ele>524.0</ele><time>2026-04-25T15:21:44Z</time></trkpt><trkpt lat="44.605337521935965" lon="9.293118381763229"><ele>524.0</ele><time>2026-04-25T15:21:45Z</time></trkpt><trkpt lat="44.60525258719285" lon="9.292942543749618"><ele>524.3333333333333</ele><time>2026-04-25T15:21:46Z</time></trkpt><trkpt lat="44.605166384975" lon="9.292764408846606"><ele>524.6666666666666</ele><time>2026-04-25T15:21:47Z</time></trkpt><trkpt lat="44.60508001932529" lon="9.292574340560792"><ele>525.0</ele><time>2026-04-25T15:21:48Z</time></trkpt><trkpt lat="44.60498920124163" lon="9.29238662510974"><ele>525.75</ele><time>2026-04-25T15:21:49Z</time></trkpt><trkpt lat="44.60489973473106" lon="9.292209006251767"><ele>526.5</ele><time>2026-04-25T15:21:50Z</time></trkpt><trkpt lat="44.60481462496414" lon="9.292051104050229"><ele>527.25</ele><time>2026-04-25T15:21:51Z</time></trkpt><trkpt lat="44.60472338639983" lon="9.291924668545393"><ele>528.0</ele><time>2026-04-25T15:21:52Z</time></trkpt><trkpt lat="44.604627145066175" lon="9.291827476353369"><ele>528.0</ele><time>2026-04-25T15:21:53Z</time></trkpt><trkpt lat="44.604515378209406" lon="9.291754368590595"><ele>528.0</ele><time>2026-04-25T15:21:54Z</time></trkpt><trkpt lat="44.60438499836587" lon="9.291692695432515"><ele>528.0</ele><time>2026-04-25T15:21:55Z</time></trkpt><trkpt lat="44.604236907117524" lon="9.291627349449499"><ele>528.0</ele><time>2026-04-25T15:21:56Z</time></trkpt><trkpt lat="44.60407716222785" lon="9.291551702600366"><ele>527.0</ele><time>2026-04-25T15:21:57Z</time></trkpt><trkpt lat="44.60391134944772" lon="9.291465393443413"><ele>526.0</ele><time>2026-04-25T15:21:58Z</time></trkpt><trkpt lat="44.60373900393558" lon="9.291373264221061"><ele>525.0</ele><time>2026-04-25T15:21:59Z</time></trkpt><trkpt lat="44.60355343322144" lon="9.291281373003583"><ele>524.0</ele><time>2026-04-25T15:22:00Z</time></trkpt><trkpt lat="44.603371902904414" lon="9.2911927379512"><ele>523.0</ele><time>2026-04-25T15:22:01Z</time></trkpt><trkpt lat="44.60318831599711" lon="9.291100784111693"><ele>522.0</ele><time>2026-04-25T15:22:02Z</time></trkpt><trkpt lat="44.60299857938807" lon="9.291006551529863"><ele>525.0</ele><time>2026-04-25T15:22:03Z</time></trkpt><trkpt lat="44.602803407295454" lon="9.290908080434544"><ele>528.0</ele><time>2026-04-25T15:22:04Z</time></trkpt><trkpt lat="44.602601727911136" lon="9.29080767686151"><ele>531.0</ele><time>2026-04-25T15:22:05Z</time></trkpt><trkpt lat="44.60240348718517" lon="9.29070764913447"><ele>531.0</ele><time>2026-04-25T15:22:06Z</time></trkpt><trkpt lat="44.602215915112254" lon="9.290611913418177"><ele>531.0</ele><time>2026-04-25T15:22:07Z</time></trkpt><trkpt lat="44.602042658768156" lon="9.2905202844509"><ele>531.0</ele><time>2026-04-25T15:22:08Z</time></trkpt><trkpt lat="44.60187399946114" lon="9.290434744488277"><ele>531.0</ele><time>2026-04-25T15:22:09Z</time></trkpt><trkpt lat="44.6017112974904" lon="9.29035662753074"><ele>531.0</ele><time>2026-04-25T15:22:10Z</time></trkpt><trkpt lat="44.601552928272255" lon="9.29029353015424"><ele>531.0</ele><time>2026-04-25T15:22:11Z</time></trkpt><trkpt lat="44.60140152101965" lon="9.29026300064326"><ele>531.0</ele><time>2026-04-25T15:22:12Z</time></trkpt><trkpt lat="44.60125079885002" lon="9.290271589238836"><ele>531.0</ele><time>2026-04-25T15:22:13Z</time></trkpt><trkpt lat="44.601095823672765" lon="9.290317354571735"><ele>531.0</ele><time>2026-04-25T15:22:14Z</time></trkpt><trkpt lat="44.60093206152491" lon="9.290383931676148"><ele>531.0</ele><time>2026-04-25T15:22:15.001Z</time></trkpt><trkpt lat="44.600765430123616" lon="9.290467109967977"><ele>531.0</ele><time>2026-04-25T15:22:16.001Z</time></trkpt><trkpt lat="44.600614816241794" lon="9.290534859186726"><ele>531.0</ele><time>2026-04-25T15:22:17.001Z</time></trkpt><trkpt lat="44.60048350771605" lon="9.290609875625668"><ele>531.3333333333334</ele><time>2026-04-25T15:22:18.001Z</time></trkpt><trkpt lat="44.600370445324245" lon="9.290722797744246"><ele>531.6666666666667</ele><time>2026-04-25T15:22:19.001Z</time></trkpt><trkpt lat="44.60026350664417" lon="9.290876682815624"><ele>532.0</ele><time>2026-04-25T15:22:20.001Z</time></trkpt><trkpt lat="44.60016384166567" lon="9.291070709915315"><ele>532.0</ele><time>2026-04-25T15:22:21.001Z</time></trkpt><trkpt lat="44.600066209417285" lon="9.29128877943893"><ele>532.0</ele><time>2026-04-25T15:22:22.001Z</time></trkpt><trkpt lat="44.599963636581876" lon="9.291512347865742"><ele>532.0</ele><time>2026-04-25T15:22:23.001Z</time></trkpt><trkpt lat="44.59985906602945" lon="9.29175120908771"><ele>536.0</ele><time>2026-04-25T15:22:24.001Z</time></trkpt><trkpt lat="44.599763819359005" lon="9.291991608719439"><ele>540.0</ele><time>2026-04-25T15:22:25.001Z</time></trkpt><trkpt lat="44.59967270357214" lon="9.292232585553338"><ele>544.0</ele><time>2026-04-25T15:22:26.001Z</time></trkpt><trkpt lat="44.59959428881867" lon="9.292467217275362"><ele>541.75</ele><time>2026-04-25T15:22:27.001Z</time></trkpt><trkpt lat="44.59951835718111" lon="9.292653701496539"><ele>539.5</ele><time>2026-04-25T15:22:28.001Z</time></trkpt><trkpt lat="44.59943339886516" lon="9.292790390253796"><ele>537.25</ele><time>2026-04-25T15:22:29.001Z</time></trkpt><trkpt lat="44.59931860925284" lon="9.292871356031569"><ele>535.0</ele><time>2026-04-25T15:22:30.001Z</time></trkpt><trkpt lat="44.5991908276622" lon="9.292949154539924"><ele>535.0</ele><time>2026-04-25T15:22:31.001Z</time></trkpt><trkpt lat="44.59906301040669" lon="9.29303793648406"><ele>535.0</ele><time>2026-04-25T15:22:32.001Z</time></trkpt><trkpt lat="44.59892174992989" lon="9.293100311446167"><ele>535.0</ele><time>2026-04-25T15:22:33.001Z</time></trkpt><trkpt lat="44.5987730650914" lon="9.293188779417155"><ele>538.6666666666667</ele><time>2026-04-25T15:22:34.001Z</time></trkpt><trkpt lat="44.59861584330225" lon="9.293286449782169"><ele>542.3333333333334</ele><time>2026-04-25T15:22:35.001Z</time></trkpt><trkpt lat="44.5984466116036" lon="9.293387460357867"><ele>546.0</ele><time>2026-04-25T15:22:36.001Z</time></trkpt><trkpt lat="44.59827749164239" lon="9.293487578825166"><ele>546.0</ele><time>2026-04-25T15:22:37.001Z</time></trkpt><trkpt lat="44.598114914494495" lon="9.293576971610152"><ele>546.0</ele><time>2026-04-25T15:22:38.001Z</time></trkpt><trkpt lat="44.59796083654946" lon="9.293606617493044"><ele>546.0</ele><time>2026-04-25T15:22:39.001Z</time></trkpt><trkpt lat="44.597812885234326" lon="9.29364246933633"><ele>545.3333333333334</ele><time>2026-04-25T15:22:40.001Z</time></trkpt><trkpt lat="44.59766703803295" lon="9.293634203597131"><ele>544.6666666666667</ele><time>2026-04-25T15:22:41.001Z</time></trkpt><trkpt lat="44.59751504049119" lon="9.293581230810872"><ele>544.0</ele><time>2026-04-25T15:22:42.001Z</time></trkpt><trkpt lat="44.597362295123375" lon="9.293482762131784"><ele>544.0</ele><time>2026-04-25T15:22:43.001Z</time></trkpt><trkpt lat="44.59720547865629" lon="9.29337115197388"><ele>544.0</ele><time>2026-04-25T15:22:44.001Z</time></trkpt><trkpt lat="44.59703494440126" lon="9.29327173440632"><ele>544.0</ele><time>2026-04-25T15:22:45.001Z</time></trkpt><trkpt lat="44.59684979173076" lon="9.293189005866992"><ele>546.3333333333334</ele><time>2026-04-25T15:22:46.001Z</time></trkpt><trkpt lat="44.5966549783867" lon="9.293113735155837"><ele>548.6666666666666</ele><time>2026-04-25T15:22:47.001Z</time></trkpt><trkpt lat="44.59645458355112" lon="9.293050757713635"><ele>551.0</ele><time>2026-04-25T15:22:48.001Z</time></trkpt><trkpt lat="44.59626150937049" lon="9.29299340230706"><ele>546.0</ele><time>2026-04-25T15:22:49.001Z</time></trkpt><trkpt lat="44.596070944125366" lon="9.292934566051063"><ele>541.0</ele><time>2026-04-25T15:22:50.001Z</time></trkpt><trkpt lat="44.59588474521745" lon="9.292876734435366"><ele>536.0</ele><time>2026-04-25T15:22:51.001Z</time></trkpt><trkpt lat="44.5957002932184" lon="9.292824121141404"><ele>536.0</ele><time>2026-04-25T15:22:52.001Z</time></trkpt><trkpt lat="44.595522114189734" lon="9.292771961093438"><ele>536.0</ele><time>2026-04-25T15:22:53.001Z</time></trkpt><trkpt lat="44.59536522520344" lon="9.292725808674895"><ele>536.0</ele><time>2026-04-25T15:22:54.001Z</time></trkpt><trkpt lat="44.595228334465745" lon="9.292673347895171"><ele>540.75</ele><time>2026-04-25T15:22:55.001Z</time></trkpt><trkpt lat="44.59511022037955" lon="9.292591915901603"><ele>545.5</ele><time>2026-04-25T15:22:56.001Z</time></trkpt><trkpt lat="44.59501509160963" lon="9.29247175290944"><ele>550.25</ele><time>2026-04-25T15:22:57.001Z</time></trkpt><trkpt lat="44.59491134971968" lon="9.292362663574993"><ele>555.0</ele><time>2026-04-25T15:22:58.001Z</time></trkpt><trkpt lat="44.59479233513536" lon="9.292311060239408"><ele>555.0</ele><time>2026-04-25T15:22:59.001Z</time></trkpt><trkpt lat="44.59466241989266" lon="9.2922869723305"><ele>555.0</ele><time>2026-04-25T15:23:00.001Z</time></trkpt><trkpt lat="44.59452979427211" lon="9.292255185994632"><ele>555.0</ele><time>2026-04-25T15:23:01.001Z</time></trkpt><trkpt lat="44.5944034927321" lon="9.292182913231152"><ele>555.0</ele><time>2026-04-25T15:23:02.001Z</time></trkpt><trkpt lat="44.594289379068684" lon="9.292077169048719"><ele>554.75</ele><time>2026-04-25T15:23:03Z</time></trkpt><trkpt lat="44.59419319182934" lon="9.291943532299895"><ele>554.5</ele><time>2026-04-25T15:23:04Z</time></trkpt><trkpt lat="44.59411298269576" lon="9.291783691221722"><ele>554.25</ele><time>2026-04-25T15:23:05Z</time></trkpt><trkpt lat="44.59406534993028" lon="9.291583577068977"><ele>554.0</ele><time>2026-04-25T15:23:06Z</time></trkpt><trkpt lat="44.594010764755666" lon="9.291366552422962"><ele>549.0</ele><time>2026-04-25T15:23:07Z</time></trkpt><trkpt lat="44.593950737626386" lon="9.291144190046108"><ele>544.0</ele><time>2026-04-25T15:23:08Z</time></trkpt><trkpt lat="44.59388062096369" lon="9.290900992723605"><ele>539.0</ele><time>2026-04-25T15:23:09Z</time></trkpt><trkpt lat="44.5937935272364" lon="9.290663612582627"><ele>538.3333333333333</ele><time>2026-04-25T15:23:10Z</time></trkpt><trkpt lat="44.59368803042893" lon="9.290463582316237"><ele>537.6666666666666</ele><time>2026-04-25T15:23:11Z</time></trkpt><trkpt lat="44.59357180712831" lon="9.29024977388865"><ele>537.0</ele><time>2026-04-25T15:23:12Z</time></trkpt><trkpt lat="44.593442103296276" lon="9.29003452508583"><ele>540.3333333333334</ele><time>2026-04-25T15:23:13Z</time></trkpt><trkpt lat="44.59330530121356" lon="9.289818613820739"><ele>543.6666666666667</ele><time>2026-04-25T15:23:14Z</time></trkpt><trkpt lat="44.59320901485934" lon="9.289591093812783"><ele>547.0</ele><time>2026-04-25T15:23:15Z</time></trkpt><trkpt lat="44.59309881840905" lon="9.28938951932285"><ele>547.0</ele><time>2026-04-25T15:23:16Z</time></trkpt><trkpt lat="44.59300478378639" lon="9.289182910812146"><ele>547.0</ele><time>2026-04-25T15:23:17Z</time></trkpt><trkpt lat="44.59291558325026" lon="9.288988021539168"><ele>547.0</ele><time>2026-04-25T15:23:18Z</time></trkpt><trkpt lat="44.59282455897612" lon="9.288820920828472"><ele>546.0</ele><time>2026-04-25T15:23:19Z</time></trkpt><trkpt lat="44.59272047303768" lon="9.288692573816164"><ele>545.0</ele><time>2026-04-25T15:23:20Z</time></trkpt><trkpt lat="44.59260689323929" lon="9.288611822427331"><ele>544.0</ele><time>2026-04-25T15:23:21Z</time></trkpt><trkpt lat="44.592474419693445" lon="9.2885848418415"><ele>543.0</ele><time>2026-04-25T15:23:22Z</time></trkpt><trkpt lat="44.59233584619302" lon="9.288603381383687"><ele>543.0</ele><time>2026-04-25T15:23:23Z</time></trkpt><trkpt lat="44.592197492370715" lon="9.288657237504104"><ele>543.0</ele><time>2026-04-25T15:23:24Z</time></trkpt><trkpt lat="44.59205272340037" lon="9.288727553142543"><ele>543.0</ele><time>2026-04-25T15:23:25Z</time></trkpt><trkpt lat="44.591922371319455" lon="9.288777354317238"><ele>543.0</ele><time>2026-04-25T15:23:26Z</time></trkpt><trkpt lat="44.59178002125471" lon="9.288785245993292"><ele>545.3333333333334</ele><time>2026-04-25T15:23:27Z</time></trkpt><trkpt lat="44.59163781646445" lon="9.288692130489475"><ele>547.6666666666667</ele><time>2026-04-25T15:23:28Z</time></trkpt><trkpt lat="44.591480996750526" lon="9.288602010019078"><ele>550.0</ele><time>2026-04-25T15:23:29Z</time></trkpt><trkpt lat="44.59131224973997" lon="9.288505515484879"><ele>550.75</ele><time>2026-04-25T15:23:30Z</time></trkpt><trkpt lat="44.59116049369556" lon="9.28841721254701"><ele>551.5</ele><time>2026-04-25T15:23:31Z</time></trkpt><trkpt lat="44.5910356851964" lon="9.288313022965779"><ele>552.25</ele><time>2026-04-25T15:23:32Z</time></trkpt><trkpt lat="44.59094670127771" lon="9.288167644553525"><ele>553.0</ele><time>2026-04-25T15:23:33Z</time></trkpt><trkpt lat="44.590878383495124" lon="9.287993215300531"><ele>553.0</ele><time>2026-04-25T15:23:34Z</time></trkpt><trkpt lat="44.590819328026456" lon="9.287787749529008"><ele>553.0</ele><time>2026-04-25T15:23:35Z</time></trkpt><trkpt lat="44.59074016039542" lon="9.287567065598846"><ele>553.0</ele><time>2026-04-25T15:23:36Z</time></trkpt><trkpt lat="44.59067712426183" lon="9.287321891258122"><ele>551.0</ele><time>2026-04-25T15:23:37Z</time></trkpt><trkpt lat="44.59060474257729" lon="9.28707771162755"><ele>549.0</ele><time>2026-04-25T15:23:38Z</time></trkpt><trkpt lat="44.59053668723422" lon="9.286846432183829"><ele>547.0</ele><time>2026-04-25T15:23:39Z</time></trkpt><trkpt lat="44.59046969802094" lon="9.286621963381291"><ele>545.6666666666667</ele><time>2026-04-25T15:23:40Z</time></trkpt><trkpt lat="44.59040561300895" lon="9.286418529598816"><ele>544.3333333333334</ele><time>2026-04-25T15:23:41Z</time></trkpt><trkpt lat="44.590344874367" lon="9.286217666228923"><ele>543.0</ele><time>2026-04-25T15:23:42Z</time></trkpt><trkpt lat="44.59027561825798" lon="9.286047432456433"><ele>544.0</ele><time>2026-04-25T15:23:43Z</time></trkpt><trkpt lat="44.59019545174517" lon="9.28588965539177"><ele>545.0</ele><time>2026-04-25T15:23:44Z</time></trkpt><trkpt lat="44.59009216972351" lon="9.285746954508092"><ele>546.0</ele><time>2026-04-25T15:23:45Z</time></trkpt><trkpt lat="44.58996312367078" lon="9.285625278604476"><ele>547.0</ele><time>2026-04-25T15:23:46Z</time></trkpt><trkpt lat="44.58982760876308" lon="9.285529475368302"><ele>547.0</ele><time>2026-04-25T15:23:47Z</time></trkpt><trkpt lat="44.589731627131194" lon="9.285378656876075"><ele>547.0</ele><time>2026-04-25T15:23:48Z</time></trkpt><trkpt lat="44.5896588402569" lon="9.285190553106215"><ele>547.0</ele><time>2026-04-25T15:23:49Z</time></trkpt><trkpt lat="44.58957751701623" lon="9.28497501774202"><ele>554.0</ele><time>2026-04-25T15:23:50Z</time></trkpt><trkpt lat="44.58949137851047" lon="9.284737201076044"><ele>561.0</ele><time>2026-04-25T15:23:51Z</time></trkpt><trkpt lat="44.589396132110195" lon="9.284484509621723"><ele>568.0</ele><time>2026-04-25T15:23:52Z</time></trkpt><trkpt lat="44.58930771735226" lon="9.284264089655219"><ele>568.0</ele><time>2026-04-25T15:23:53Z</time></trkpt><trkpt lat="44.5892593011634" lon="9.284077573009359"><ele>568.0</ele><time>2026-04-25T15:23:54Z</time></trkpt><trkpt lat="44.589242363261825" lon="9.283895903032215"><ele>568.0</ele><time>2026-04-25T15:23:55Z</time></trkpt><trkpt lat="44.58926355818173" lon="9.283701928615155"><ele>568.0</ele><time>2026-04-25T15:23:56Z</time></trkpt><trkpt lat="44.58927591644127" lon="9.283467632587946"><ele>568.0</ele><time>2026-04-25T15:23:57Z</time></trkpt><trkpt lat="44.58927170546059" lon="9.28323531161547"><ele>568.0</ele><time>2026-04-25T15:23:58Z</time></trkpt><trkpt lat="44.58923731480177" lon="9.283008064941408"><ele>568.0</ele><time>2026-04-25T15:23:59Z</time></trkpt><trkpt lat="44.58918014289646" lon="9.282781258327265"><ele>565.3333333333334</ele><time>2026-04-25T15:24:00Z</time></trkpt><trkpt lat="44.589111173948105" lon="9.282558204669485"><ele>562.6666666666666</ele><time>2026-04-25T15:24:01Z</time></trkpt><trkpt lat="44.5890398130129" lon="9.282355192760289"><ele>560.0</ele><time>2026-04-25T15:24:02Z</time></trkpt><trkpt lat="44.588978096915895" lon="9.282181686959005"><ele>560.0</ele><time>2026-04-25T15:24:03Z</time></trkpt><trkpt lat="44.58892065429982" lon="9.282056937159766"><ele>560.0</ele><time>2026-04-25T15:24:04Z</time></trkpt><trkpt lat="44.588864713439754" lon="9.281963049597989"><ele>560.0</ele><time>2026-04-25T15:24:05Z</time></trkpt><trkpt lat="44.588812572320016" lon="9.281879284472497"><ele>560.0</ele><time>2026-04-25T15:24:06Z</time></trkpt><trkpt lat="44.58874588800674" lon="9.28181487859968"><ele>560.0</ele><time>2026-04-25T15:24:08Z</time></trkpt><trkpt lat="44.58864587171231" lon="9.281761903862327"><ele>560.0</ele><time>2026-04-25T15:26:59.001Z</time></trkpt><trkpt lat="44.588551888304586" lon="9.281714784780293"><ele>560.0</ele><time>2026-04-25T15:27:00.001Z</time></trkpt><trkpt lat="44.58844414082909" lon="9.281721457349112"><ele>560.0</ele><time>2026-04-25T15:27:01.001Z</time></trkpt><trkpt lat="44.588362407300295" lon="9.281759776836143"><ele>560.0</ele><time>2026-04-25T15:27:02.001Z</time></trkpt><trkpt lat="44.58824539010676" lon="9.281837406486657"><ele>560.0</ele><time>2026-04-25T15:27:03.001Z</time></trkpt><trkpt lat="44.58810348818783" lon="9.281930979886996"><ele>560.0</ele><time>2026-04-25T15:27:04.001Z</time></trkpt><trkpt lat="44.58797770383919" lon="9.282007649171563"><ele>560.0</ele><time>2026-04-25T15:27:05.001Z</time></trkpt><trkpt lat="44.58786702824507" lon="9.282061506896586"><ele>560.0</ele><time>2026-04-25T15:27:06.001Z</time></trkpt><trkpt lat="44.58776347107175" lon="9.282062210839529"><ele>560.0</ele><time>2026-04-25T15:27:07.001Z</time></trkpt><trkpt lat="44.58766184822092" lon="9.28203181409585"><ele>560.0</ele><time>2026-04-25T15:27:08.001Z</time></trkpt><trkpt lat="44.58756697038739" lon="9.28196666501766"><ele>560.0</ele><time>2026-04-25T15:27:09.001Z</time></trkpt><trkpt lat="44.587443713169634" lon="9.281868683347257"><ele>560.0</ele><time>2026-04-25T15:27:10.001Z</time></trkpt><trkpt lat="44.58730298837636" lon="9.2817431630665"><ele>560.0</ele><time>2026-04-25T15:27:11.001Z</time></trkpt><trkpt lat="44.587160340756256" lon="9.281593839183596"><ele>560.6666666666666</ele><time>2026-04-25T15:27:12.001Z</time></trkpt><trkpt lat="44.58703357068507" lon="9.281430418082499"><ele>561.3333333333334</ele><time>2026-04-25T15:27:13.001Z</time></trkpt><trkpt lat="44.58691155559041" lon="9.281263432331581"><ele>562.0</ele><time>2026-04-25T15:27:14.001Z</time></trkpt><trkpt lat="44.586817787001245" lon="9.281094821484078"><ele>562.0</ele><time>2026-04-25T15:27:15.001Z</time></trkpt><trkpt lat="44.586739661329986" lon="9.280912825222327"><ele>562.0</ele><time>2026-04-25T15:27:16.001Z</time></trkpt><trkpt lat="44.586651933776615" lon="9.280687828166036"><ele>562.0</ele><time>2026-04-25T15:27:17.001Z</time></trkpt><trkpt lat="44.586558302150394" lon="9.280439093414625"><ele>558.3333333333334</ele><time>2026-04-25T15:27:18.001Z</time></trkpt><trkpt lat="44.586466483759786" lon="9.280195873278016"><ele>554.6666666666666</ele><time>2026-04-25T15:27:19.001Z</time></trkpt><trkpt lat="44.586378247278724" lon="9.279968893139754"><ele>551.0</ele><time>2026-04-25T15:27:20.001Z</time></trkpt><trkpt lat="44.58628361184031" lon="9.27974961823273"><ele>550.0</ele><time>2026-04-25T15:27:21.001Z</time></trkpt><trkpt lat="44.586214710707715" lon="9.279509120044047"><ele>549.0</ele><time>2026-04-25T15:27:22.001Z</time></trkpt><trkpt lat="44.5861455294738" lon="9.279273584680139"><ele>548.0</ele><time>2026-04-25T15:27:23.001Z</time></trkpt><trkpt lat="44.58609399598338" lon="9.279033646428555"><ele>553.3333333333333</ele><time>2026-04-25T15:27:24.001Z</time></trkpt><trkpt lat="44.58603592104844" lon="9.278794093441896"><ele>558.6666666666666</ele><time>2026-04-25T15:27:25.001Z</time></trkpt><trkpt lat="44.585970992773376" lon="9.278551911132281"><ele>564.0</ele><time>2026-04-25T15:27:26.001Z</time></trkpt><trkpt lat="44.58586429013265" lon="9.27832901578389"><ele>564.0</ele><time>2026-04-25T15:27:27.001Z</time></trkpt><trkpt lat="44.58574626699842" lon="9.278114291400332"><ele>564.0</ele><time>2026-04-25T15:27:28.001Z</time></trkpt><trkpt lat="44.58562415322521" lon="9.277895184332783"><ele>564.0</ele><time>2026-04-25T15:27:29.001Z</time></trkpt><trkpt lat="44.58551216590984" lon="9.2776766760756"><ele>562.0</ele><time>2026-04-25T15:27:30.001Z</time></trkpt><trkpt lat="44.585410779359115" lon="9.277485295471923"><ele>560.0</ele><time>2026-04-25T15:27:31.001Z</time></trkpt><trkpt lat="44.585333464536795" lon="9.277305463447442"><ele>558.0</ele><time>2026-04-25T15:27:32.001Z</time></trkpt><trkpt lat="44.58528517109847" lon="9.277118163744024"><ele>563.0</ele><time>2026-04-25T15:27:33.001Z</time></trkpt><trkpt lat="44.58526341367309" lon="9.276915489474224"><ele>568.0</ele><time>2026-04-25T15:27:34.001Z</time></trkpt><trkpt lat="44.585260352523356" lon="9.276680953384876"><ele>573.0</ele><time>2026-04-25T15:27:35.001Z</time></trkpt><trkpt lat="44.58526063943987" lon="9.276439901218298"><ele>574.0</ele><time>2026-04-25T15:27:36.001Z</time></trkpt><trkpt lat="44.585258434107246" lon="9.276184119805432"><ele>575.0</ele><time>2026-04-25T15:27:37Z</time></trkpt><trkpt lat="44.58526117648822" lon="9.275937200672892"><ele>576.0</ele><time>2026-04-25T15:27:38Z</time></trkpt><trkpt lat="44.585225507239194" lon="9.275717507761184"><ele>573.3333333333334</ele><time>2026-04-25T15:27:39Z</time></trkpt><trkpt lat="44.585167680306405" lon="9.275499888389453"><ele>570.6666666666667</ele><time>2026-04-25T15:27:40Z</time></trkpt><trkpt lat="44.58507969184102" lon="9.275271498056847"><ele>568.0</ele><time>2026-04-25T15:27:41Z</time></trkpt><trkpt lat="44.584979187849775" lon="9.27502399207581"><ele>566.6666666666667</ele><time>2026-04-25T15:27:42Z</time></trkpt><trkpt lat="44.58488458886884" lon="9.274757540028677"><ele>565.3333333333334</ele><time>2026-04-25T15:27:43Z</time></trkpt><trkpt lat="44.58479615742658" lon="9.27450125844936"><ele>564.0</ele><time>2026-04-25T15:27:44Z</time></trkpt><trkpt lat="44.584713857070554" lon="9.274258075420999"><ele>564.0</ele><time>2026-04-25T15:27:45Z</time></trkpt><trkpt lat="44.58462962801467" lon="9.274021221835865"><ele>564.0</ele><time>2026-04-25T15:27:46Z</time></trkpt><trkpt lat="44.58452479140795" lon="9.273788760717524"><ele>564.0</ele><time>2026-04-25T15:27:47Z</time></trkpt><trkpt lat="44.58440690641566" lon="9.27355416655095"><ele>565.6666666666666</ele><time>2026-04-25T15:27:48Z</time></trkpt><trkpt lat="44.58427795344895" lon="9.273318028425441"><ele>567.3333333333333</ele><time>2026-04-25T15:27:49Z</time></trkpt><trkpt lat="44.5841457065615" lon="9.273074729292997"><ele>569.0</ele><time>2026-04-25T15:27:50Z</time></trkpt><trkpt lat="44.584010085123836" lon="9.272824026096139"><ele>569.0</ele><time>2026-04-25T15:27:51Z</time></trkpt><trkpt lat="44.583882066135644" lon="9.27259021965948"><ele>569.0</ele><time>2026-04-25T15:27:52Z</time></trkpt><trkpt lat="44.58376250282984" lon="9.272375007620747"><ele>569.0</ele><time>2026-04-25T15:27:53Z</time></trkpt><trkpt lat="44.58365744347255" lon="9.272189142518735"><ele>570.0</ele><time>2026-04-25T15:27:54Z</time></trkpt><trkpt lat="44.58354610311285" lon="9.272012653093547"><ele>571.0</ele><time>2026-04-25T15:27:55Z</time></trkpt><trkpt lat="44.58341735662008" lon="9.271853019973099"><ele>572.0</ele><time>2026-04-25T15:27:56Z</time></trkpt><trkpt lat="44.58326625502925" lon="9.271704629519123"><ele>572.0</ele><time>2026-04-25T15:27:57Z</time></trkpt><trkpt lat="44.5830950436028" lon="9.271567607296646"><ele>572.0</ele><time>2026-04-25T15:27:58Z</time></trkpt><trkpt lat="44.58289869385604" lon="9.271431842009173"><ele>572.0</ele><time>2026-04-25T15:27:59Z</time></trkpt><trkpt lat="44.58269015313955" lon="9.271287320431606"><ele>570.0</ele><time>2026-04-25T15:28:00Z</time></trkpt><trkpt lat="44.58247009161467" lon="9.271130281800644"><ele>568.0</ele><time>2026-04-25T15:28:01Z</time></trkpt><trkpt lat="44.58224682220008" lon="9.270974810881693"><ele>568.0</ele><time>2026-04-25T15:28:02Z</time></trkpt><trkpt lat="44.58203968021827" lon="9.270825139402907"><ele>568.0</ele><time>2026-04-25T15:28:03Z</time></trkpt><trkpt lat="44.581837947207724" lon="9.270685226307823"><ele>567.6666666666667</ele><time>2026-04-25T15:28:04Z</time></trkpt><trkpt lat="44.58164554798505" lon="9.270547547225721"><ele>567.3333333333334</ele><time>2026-04-25T15:28:05Z</time></trkpt><trkpt lat="44.58145938941408" lon="9.270420140366925"><ele>567.0</ele><time>2026-04-25T15:28:06Z</time></trkpt><trkpt lat="44.581280033179446" lon="9.270312134672452"><ele>569.0</ele><time>2026-04-25T15:28:07Z</time></trkpt><trkpt lat="44.58108072393937" lon="9.270227950825365"><ele>571.0</ele><time>2026-04-25T15:28:08Z</time></trkpt><trkpt lat="44.58086684565226" lon="9.270175202206374"><ele>573.0</ele><time>2026-04-25T15:28:09Z</time></trkpt><trkpt lat="44.5806425424391" lon="9.270139799288804"><ele>573.0</ele><time>2026-04-25T15:28:10Z</time></trkpt><trkpt lat="44.58040576978354" lon="9.270112340418194"><ele>573.0</ele><time>2026-04-25T15:28:11Z</time></trkpt><trkpt lat="44.58016669217074" lon="9.270081685057185"><ele>574.5</ele><time>2026-04-25T15:28:12Z</time></trkpt><trkpt lat="44.57992694004613" lon="9.2700563761181"><ele>576.0</ele><time>2026-04-25T15:28:13Z</time></trkpt><trkpt lat="44.579700106853124" lon="9.270030210613319"><ele>576.0</ele><time>2026-04-25T15:28:14Z</time></trkpt><trkpt lat="44.579487669225706" lon="9.269998611917066"><ele>576.0</ele><time>2026-04-25T15:28:15Z</time></trkpt><trkpt lat="44.57929024568788" lon="9.26997481027544"><ele>576.0</ele><time>2026-04-25T15:28:16Z</time></trkpt><trkpt lat="44.57909494250024" lon="9.269958555004418"><ele>576.0</ele><time>2026-04-25T15:28:17Z</time></trkpt><trkpt lat="44.578915560973904" lon="9.269963911153216"><ele>576.0</ele><time>2026-04-25T15:28:18Z</time></trkpt><trkpt lat="44.57873641761529" lon="9.269997283106509"><ele>576.0</ele><time>2026-04-25T15:28:19Z</time></trkpt><trkpt lat="44.57856231242562" lon="9.270055607515093"><ele>575.6666666666666</ele><time>2026-04-25T15:28:20Z</time></trkpt><trkpt lat="44.57838059558964" lon="9.270108190786662"><ele>575.3333333333333</ele><time>2026-04-25T15:28:21Z</time></trkpt><trkpt lat="44.57818790447324" lon="9.270171736772726"><ele>575.0</ele><time>2026-04-25T15:28:22Z</time></trkpt><trkpt lat="44.57800131105257" lon="9.270228970259584"><ele>575.0</ele><time>2026-04-25T15:28:23Z</time></trkpt><trkpt lat="44.577829788950304" lon="9.270262774536105"><ele>575.0</ele><time>2026-04-25T15:28:24Z</time></trkpt><trkpt lat="44.57766157669694" lon="9.270276743944095"><ele>575.0</ele><time>2026-04-25T15:28:25Z</time></trkpt><trkpt lat="44.577490557943555" lon="9.270272011906389"><ele>575.0</ele><time>2026-04-25T15:28:26Z</time></trkpt><trkpt lat="44.57731726297967" lon="9.270246898063773"><ele>575.0</ele><time>2026-04-25T15:28:27Z</time></trkpt><trkpt lat="44.57715760799921" lon="9.270215936690864"><ele>575.0</ele><time>2026-04-25T15:28:28Z</time></trkpt><trkpt lat="44.577019258575426" lon="9.270195288378734"><ele>575.5</ele><time>2026-04-25T15:28:29Z</time></trkpt><trkpt lat="44.57688993495243" lon="9.27018937989139"><ele>576.0</ele><time>2026-04-25T15:28:30Z</time></trkpt><trkpt lat="44.57676457892159" lon="9.2702104221932"><ele>576.5</ele><time>2026-04-25T15:28:31Z</time></trkpt><trkpt lat="44.576639570627904" lon="9.27024772761986"><ele>577.0</ele><time>2026-04-25T15:28:32Z</time></trkpt><trkpt lat="44.57651217420847" lon="9.27028481885193"><ele>577.0</ele><time>2026-04-25T15:28:33.001Z</time></trkpt><trkpt lat="44.57638285683212" lon="9.270327625847436"><ele>577.0</ele><time>2026-04-25T15:28:34.001Z</time></trkpt><trkpt lat="44.57625202984493" lon="9.270376216569044"><ele>577.0</ele><time>2026-04-25T15:28:35.001Z</time></trkpt><trkpt lat="44.5761188807687" lon="9.270423051815031"><ele>577.0</ele><time>2026-04-25T15:28:36.001Z</time></trkpt><trkpt lat="44.57598734350133" lon="9.270468157957568"><ele>577.4</ele><time>2026-04-25T15:28:37.001Z</time></trkpt><trkpt lat="44.57587089393709" lon="9.270496460418341"><ele>577.8000000000001</ele><time>2026-04-25T15:28:38.001Z</time></trkpt><trkpt lat="44.57576124906871" lon="9.270515912253241"><ele>578.2</ele><time>2026-04-25T15:28:39.001Z</time></trkpt><trkpt lat="44.57565849869299" lon="9.270536831666755"><ele>578.6</ele><time>2026-04-25T15:28:40.001Z</time></trkpt><trkpt lat="44.57556770705156" lon="9.270586778245491"><ele>579.0</ele><time>2026-04-25T15:28:41.001Z</time></trkpt><trkpt lat="44.575487611424606" lon="9.270666621484292"><ele>579.5</ele><time>2026-04-25T15:28:42.001Z</time></trkpt><trkpt lat="44.575411385602116" lon="9.270773303596068"><ele>580.0</ele><time>2026-04-25T15:28:43.001Z</time></trkpt><trkpt lat="44.575326777211096" lon="9.27087840791954"><ele>580.5</ele><time>2026-04-25T15:28:44.001Z</time></trkpt><trkpt lat="44.57523984986213" lon="9.270998368222191"><ele>581.0</ele><time>2026-04-25T15:28:45.001Z</time></trkpt><trkpt lat="44.575153374698345" lon="9.27114160622703"><ele>581.0</ele><time>2026-04-25T15:28:46.001Z</time></trkpt><trkpt lat="44.57506499276118" lon="9.271301619373535"><ele>581.0</ele><time>2026-04-25T15:28:47.001Z</time></trkpt><trkpt lat="44.574972581088204" lon="9.271472088813713"><ele>581.0</ele><time>2026-04-25T15:28:48.001Z</time></trkpt><trkpt lat="44.574889664660766" lon="9.27163562958614"><ele>581.0</ele><time>2026-04-25T15:28:49.001Z</time></trkpt><trkpt lat="44.57481346187351" lon="9.271795808940245"><ele>582.5</ele><time>2026-04-25T15:28:50.001Z</time></trkpt><trkpt lat="44.5747440265048" lon="9.271965050817867"><ele>584.0</ele><time>2026-04-25T15:28:51.001Z</time></trkpt><trkpt lat="44.57468269344114" lon="9.272149686489646"><ele>585.5</ele><time>2026-04-25T15:28:52.001Z</time></trkpt><trkpt lat="44.5746243393213" lon="9.27234801907872"><ele>587.0</ele><time>2026-04-25T15:28:53.001Z</time></trkpt><trkpt lat="44.574566600681585" lon="9.272548451897839"><ele>587.0</ele><time>2026-04-25T15:28:54.001Z</time></trkpt><trkpt lat="44.574514593428376" lon="9.272736760989613"><ele>587.0</ele><time>2026-04-25T15:28:55.001Z</time></trkpt><trkpt lat="44.574459277995864" lon="9.27291863063341"><ele>587.0</ele><time>2026-04-25T15:28:56.001Z</time></trkpt><trkpt lat="44.57437221641881" lon="9.273097495068122"><ele>587.0</ele><time>2026-04-25T15:28:57.001Z</time></trkpt><trkpt lat="44.57426234485663" lon="9.273258800210268"><ele>587.0</ele><time>2026-04-25T15:28:58.001Z</time></trkpt><trkpt lat="44.57413125472482" lon="9.273384381571482"><ele>587.0</ele><time>2026-04-25T15:28:59.001Z</time></trkpt><trkpt lat="44.573999630186506" lon="9.273515015055628"><ele>587.0</ele><time>2026-04-25T15:29:00.001Z</time></trkpt><trkpt lat="44.57387212714607" lon="9.273667462612819"><ele>587.0</ele><time>2026-04-25T15:29:01.001Z</time></trkpt><trkpt lat="44.573740122664724" lon="9.273832727046738"><ele>587.0</ele><time>2026-04-25T15:29:02.001Z</time></trkpt><trkpt lat="44.573602663842365" lon="9.274000738265784"><ele>587.0</ele><time>2026-04-25T15:29:03.001Z</time></trkpt><trkpt lat="44.57346731496189" lon="9.274171442554074"><ele>586.3333333333333</ele><time>2026-04-25T15:29:04.001Z</time></trkpt><trkpt lat="44.57332719583701" lon="9.274337179523577"><ele>585.6666666666666</ele><time>2026-04-25T15:29:05.001Z</time></trkpt><trkpt lat="44.57317868361076" lon="9.274505246106106"><ele>585.0</ele><time>2026-04-25T15:29:06.001Z</time></trkpt><trkpt lat="44.57302363463271" lon="9.27466741631228"><ele>585.6666666666666</ele><time>2026-04-25T15:29:07.001Z</time></trkpt><trkpt lat="44.57285790924584" lon="9.274818055084808"><ele>586.3333333333333</ele><time>2026-04-25T15:29:08.001Z</time></trkpt><trkpt lat="44.57268394116721" lon="9.274969628517107"><ele>587.0</ele><time>2026-04-25T15:29:09.001Z</time></trkpt><trkpt lat="44.57250572050355" lon="9.275111031847967"><ele>587.0</ele><time>2026-04-25T15:29:10.001Z</time></trkpt><trkpt lat="44.572327443905536" lon="9.275238453840235"><ele>587.0</ele><time>2026-04-25T15:29:11Z</time></trkpt><trkpt lat="44.57215027561344" lon="9.275353496292833"><ele>587.0</ele><time>2026-04-25T15:29:12Z</time></trkpt><trkpt lat="44.57198424692824" lon="9.275455463050339"><ele>587.6666666666666</ele><time>2026-04-25T15:29:13Z</time></trkpt><trkpt lat="44.57183141718734" lon="9.275560592782163"><ele>588.3333333333334</ele><time>2026-04-25T15:29:14Z</time></trkpt><trkpt lat="44.5716977318028" lon="9.275673860260722"><ele>589.0</ele><time>2026-04-25T15:29:15Z</time></trkpt><trkpt lat="44.571580395152914" lon="9.275801524087004"><ele>589.0</ele><time>2026-04-25T15:29:16Z</time></trkpt><trkpt lat="44.571466799355825" lon="9.2759430280003"><ele>589.0</ele><time>2026-04-25T15:29:17Z</time></trkpt><trkpt lat="44.571360256266715" lon="9.276074573426495"><ele>589.0</ele><time>2026-04-25T15:29:18Z</time></trkpt><trkpt lat="44.57125757254573" lon="9.276154974326008"><ele>589.0</ele><time>2026-04-25T15:29:19Z</time></trkpt><trkpt lat="44.57115024300562" lon="9.276192922610777"><ele>589.0</ele><time>2026-04-25T15:29:20Z</time></trkpt><trkpt lat="44.571035191737046" lon="9.276159829358571"><ele>589.0</ele><time>2026-04-25T15:29:21Z</time></trkpt><trkpt lat="44.57091650536036" lon="9.27607301101717"><ele>589.0</ele><time>2026-04-25T15:29:22Z</time></trkpt><trkpt lat="44.57078748406622" lon="9.27596439982998"><ele>589.0</ele><time>2026-04-25T15:29:23Z</time></trkpt><trkpt lat="44.57065323273734" lon="9.275861259277335"><ele>589.0</ele><time>2026-04-25T15:29:24Z</time></trkpt><trkpt lat="44.570504266362505" lon="9.27579405581772"><ele>589.0</ele><time>2026-04-25T15:29:25Z</time></trkpt><trkpt lat="44.57033124973186" lon="9.27576795530991"><ele>589.0</ele><time>2026-04-25T15:29:26Z</time></trkpt><trkpt lat="44.570149836286056" lon="9.275767315787702"><ele>587.3333333333334</ele><time>2026-04-25T15:29:27Z</time></trkpt><trkpt lat="44.56997788770725" lon="9.275787445527722"><ele>585.6666666666666</ele><time>2026-04-25T15:29:28Z</time></trkpt><trkpt lat="44.569815522531115" lon="9.27582781494957"><ele>584.0</ele><time>2026-04-25T15:29:29Z</time></trkpt><trkpt lat="44.56966563571611" lon="9.275900541305232"><ele>584.0</ele><time>2026-04-25T15:29:30Z</time></trkpt><trkpt lat="44.56953367607828" lon="9.275993130832195"><ele>584.0</ele><time>2026-04-25T15:29:31Z</time></trkpt><trkpt lat="44.56941946279052" lon="9.276111196234961"><ele>584.0</ele><time>2026-04-25T15:29:32Z</time></trkpt><trkpt lat="44.56931955151929" lon="9.276241561326765"><ele>584.0</ele><time>2026-04-25T15:29:33Z</time></trkpt><trkpt lat="44.56923922120371" lon="9.276400726845702"><ele>583.3333333333333</ele><time>2026-04-25T15:29:34Z</time></trkpt><trkpt lat="44.56916686858837" lon="9.276602350242747"><ele>582.6666666666666</ele><time>2026-04-25T15:29:35Z</time></trkpt><trkpt lat="44.56910883543194" lon="9.276837516892694"><ele>582.0</ele><time>2026-04-25T15:29:36Z</time></trkpt><trkpt lat="44.5690549681807" lon="9.277059028096334"><ele>582.0</ele><time>2026-04-25T15:29:37Z</time></trkpt><trkpt lat="44.568981348712526" lon="9.277236444758032"><ele>582.0</ele><time>2026-04-25T15:29:38Z</time></trkpt><trkpt lat="44.568857915747046" lon="9.277350485509299"><ele>582.0</ele><time>2026-04-25T15:29:39Z</time></trkpt><trkpt lat="44.56872914794906" lon="9.277503942990666"><ele>582.0</ele><time>2026-04-25T15:29:40Z</time></trkpt><trkpt lat="44.5685717722589" lon="9.277653021272718"><ele>582.0</ele><time>2026-04-25T15:29:41Z</time></trkpt><trkpt lat="44.568409284951834" lon="9.277832914358294"><ele>582.0</ele><time>2026-04-25T15:29:42Z</time></trkpt><trkpt lat="44.56823468577509" lon="9.278023620470648"><ele>583.3333333333334</ele><time>2026-04-25T15:29:43Z</time></trkpt><trkpt lat="44.568061494437934" lon="9.278214081253342"><ele>584.6666666666667</ele><time>2026-04-25T15:29:44Z</time></trkpt><trkpt lat="44.567890838768655" lon="9.278399715129089"><ele>586.0</ele><time>2026-04-25T15:29:45Z</time></trkpt><trkpt lat="44.56772230235916" lon="9.278573433736819"><ele>586.0</ele><time>2026-04-25T15:29:46Z</time></trkpt><trkpt lat="44.56754952401892" lon="9.278742150778093"><ele>586.0</ele><time>2026-04-25T15:29:47Z</time></trkpt><trkpt lat="44.56736527386098" lon="9.278895841726207"><ele>586.0</ele><time>2026-04-25T15:29:48Z</time></trkpt><trkpt lat="44.56718197302902" lon="9.279034021823696"><ele>586.6666666666667</ele><time>2026-04-25T15:29:49Z</time></trkpt><trkpt lat="44.567008932691344" lon="9.27917096749836"><ele>587.3333333333334</ele><time>2026-04-25T15:29:50Z</time></trkpt><trkpt lat="44.56684177802606" lon="9.279297915594528"><ele>588.0</ele><time>2026-04-25T15:29:51Z</time></trkpt><trkpt lat="44.5666835004755" lon="9.279412850171777"><ele>588.0</ele><time>2026-04-25T15:29:52Z</time></trkpt><trkpt lat="44.56654879809241" lon="9.27951578301343"><ele>588.0</ele><time>2026-04-25T15:29:53Z</time></trkpt><trkpt lat="44.56642898623365" lon="9.279618270223894"><ele>588.0</ele><time>2026-04-25T15:29:54Z</time></trkpt><trkpt lat="44.566330419905846" lon="9.279747115967265"><ele>588.0</ele><time>2026-04-25T15:29:55Z</time></trkpt><trkpt lat="44.56624719394555" lon="9.27990094408377"><ele>588.3333333333334</ele><time>2026-04-25T15:29:56Z</time></trkpt><trkpt lat="44.566177308037794" lon="9.280083942230492"><ele>588.6666666666667</ele><time>2026-04-25T15:29:57Z</time></trkpt><trkpt lat="44.56609835077318" lon="9.280283119808788"><ele>589.0</ele><time>2026-04-25T15:29:58Z</time></trkpt><trkpt lat="44.56601065989104" lon="9.280492497366168"><ele>590.25</ele><time>2026-04-25T15:29:59Z</time></trkpt><trkpt lat="44.56593609323393" lon="9.280677885151068"><ele>591.5</ele><time>2026-04-25T15:30:00Z</time></trkpt><trkpt lat="44.56586884951374" lon="9.280819512386692"><ele>592.75</ele><time>2026-04-25T15:30:01Z</time></trkpt><trkpt lat="44.5657990513296" lon="9.280923536857129"><ele>594.0</ele><time>2026-04-25T15:30:02Z</time></trkpt><trkpt lat="44.56571787602818" lon="9.281005679982961"><ele>594.0</ele><time>2026-04-25T15:30:03Z</time></trkpt><trkpt lat="44.565638530161074" lon="9.281074776042807"><ele>594.0</ele><time>2026-04-25T15:30:04Z</time></trkpt><trkpt lat="44.56556528769951" lon="9.281123243501334"><ele>594.0</ele><time>2026-04-25T15:30:05Z</time></trkpt><trkpt lat="44.56544315089964" lon="9.281120028895966"><ele>594.0</ele><time>2026-04-25T15:30:07Z</time></trkpt><trkpt lat="44.5653769502493" lon="9.281064041305843"><ele>594.0</ele><time>2026-04-25T15:30:08Z</time></trkpt><trkpt lat="44.56529716511956" lon="9.280982197481919"><ele>593.4</ele><time>2026-04-25T15:30:09Z</time></trkpt><trkpt lat="44.56519430279667" lon="9.280891736419592"><ele>592.8</ele><time>2026-04-25T15:30:10Z</time></trkpt><trkpt lat="44.565092716428026" lon="9.280809444612313"><ele>592.2</ele><time>2026-04-25T15:30:11Z</time></trkpt><trkpt lat="44.565001358486676" lon="9.280750261082165"><ele>591.6</ele><time>2026-04-25T15:30:12Z</time></trkpt><trkpt lat="44.56490987320226" lon="9.280729084186959"><ele>591.0</ele><time>2026-04-25T15:30:13Z</time></trkpt><trkpt lat="44.56481526461953" lon="9.280761302176098"><ele>591.0</ele><time>2026-04-25T15:30:14Z</time></trkpt><trkpt lat="44.564726089500105" lon="9.280841729060063"><ele>591.0</ele><time>2026-04-25T15:30:15Z</time></trkpt><trkpt lat="44.56463224317959" lon="9.280975213557728"><ele>591.0</ele><time>2026-04-25T15:30:16Z</time></trkpt><trkpt lat="44.56452575140237" lon="9.281140886526813"><ele>591.0</ele><time>2026-04-25T15:30:17Z</time></trkpt><trkpt lat="44.56439846505228" lon="9.28129539309993"><ele>590.6666666666666</ele><time>2026-04-25T15:30:18Z</time></trkpt><trkpt lat="44.564238017508025" lon="9.281469360030007"><ele>590.3333333333333</ele><time>2026-04-25T15:30:19Z</time></trkpt><trkpt lat="44.56405572637192" lon="9.281652368263982"><ele>590.0</ele><time>2026-04-25T15:30:20Z</time></trkpt><trkpt lat="44.56386649206394" lon="9.28183389985142"><ele>600.0</ele><time>2026-04-25T15:30:21Z</time></trkpt><trkpt lat="44.56366228141358" lon="9.28202536251573"><ele>610.0</ele><time>2026-04-25T15:30:22Z</time></trkpt><trkpt lat="44.56345055831622" lon="9.282226578272928"><ele>599.5</ele><time>2026-04-25T15:30:23Z</time></trkpt><trkpt lat="44.56324836806372" lon="9.282420827310997"><ele>589.0</ele><time>2026-04-25T15:30:24Z</time></trkpt><trkpt lat="44.563054692419236" lon="9.282599945453411"><ele>589.0</ele><time>2026-04-25T15:30:25Z</time></trkpt><trkpt lat="44.562873352142056" lon="9.282772740082395"><ele>589.0</ele><time>2026-04-25T15:30:26Z</time></trkpt><trkpt lat="44.562702549634544" lon="9.282936164378404"><ele>589.0</ele><time>2026-04-25T15:30:27Z</time></trkpt><trkpt lat="44.56253243853917" lon="9.283092143430176"><ele>589.6666666666667</ele><time>2026-04-25T15:30:28Z</time></trkpt><trkpt lat="44.56235873283457" lon="9.283233223492875"><ele>590.3333333333334</ele><time>2026-04-25T15:30:29Z</time></trkpt><trkpt lat="44.562182651412506" lon="9.283365006385313"><ele>591.0</ele><time>2026-04-25T15:30:30Z</time></trkpt><trkpt lat="44.56201192876115" lon="9.283483264745938"><ele>599.0</ele><time>2026-04-25T15:30:31Z</time></trkpt><trkpt lat="44.561832808380856" lon="9.283572243917478"><ele>607.0</ele><time>2026-04-25T15:30:32Z</time></trkpt><trkpt lat="44.56164325273859" lon="9.283637205476502"><ele>615.0</ele><time>2026-04-25T15:30:33Z</time></trkpt><trkpt lat="44.56144525583772" lon="9.28368122759137"><ele>615.0</ele><time>2026-04-25T15:30:34Z</time></trkpt><trkpt lat="44.56124426349477" lon="9.283728451107821"><ele>615.0</ele><time>2026-04-25T15:30:35Z</time></trkpt><trkpt lat="44.56104646699781" lon="9.28376642807443"><ele>615.0</ele><time>2026-04-25T15:30:36Z</time></trkpt><trkpt lat="44.56086068835919" lon="9.283799672783442"><ele>619.3333333333334</ele><time>2026-04-25T15:30:37Z</time></trkpt><trkpt lat="44.56067238829477" lon="9.283827450333705"><ele>623.6666666666667</ele><time>2026-04-25T15:30:38Z</time></trkpt><trkpt lat="44.5604740135668" lon="9.283836263708256"><ele>628.0</ele><time>2026-04-25T15:30:39Z</time></trkpt><trkpt lat="44.56027538725002" lon="9.283821431860238"><ele>628.0</ele><time>2026-04-25T15:30:40Z</time></trkpt><trkpt lat="44.5600871977107" lon="9.283806611669739"><ele>628.0</ele><time>2026-04-25T15:30:41Z</time></trkpt><trkpt lat="44.55992500601631" lon="9.283792956008305"><ele>628.0</ele><time>2026-04-25T15:30:42Z</time></trkpt><trkpt lat="44.559787257031644" lon="9.283783188565236"><ele>628.0</ele><time>2026-04-25T15:30:43Z</time></trkpt><trkpt lat="44.55965590246969" lon="9.283764556906895"><ele>628.0</ele><time>2026-04-25T15:30:44Z</time></trkpt><trkpt lat="44.55953683411057" lon="9.283714349950023"><ele>628.0</ele><time>2026-04-25T15:30:45Z</time></trkpt><trkpt lat="44.55943226292755" lon="9.28362518232678"><ele>628.0</ele><time>2026-04-25T15:30:46Z</time></trkpt><trkpt lat="44.55934702014607" lon="9.283502646250867"><ele>624.25</ele><time>2026-04-25T15:30:47Z</time></trkpt><trkpt lat="44.55928667725706" lon="9.283368157030013"><ele>620.5</ele><time>2026-04-25T15:30:48Z</time></trkpt><trkpt lat="44.559254078826825" lon="9.283212090359465"><ele>616.75</ele><time>2026-04-25T15:30:49Z</time></trkpt><trkpt lat="44.559242600847426" lon="9.283026909102029"><ele>613.0</ele><time>2026-04-25T15:30:50Z</time></trkpt><trkpt lat="44.559242377111175" lon="9.282835346268097"><ele>613.0</ele><time>2026-04-25T15:30:51Z</time></trkpt><trkpt lat="44.55922057672675" lon="9.282645185809406"><ele>613.0</ele><time>2026-04-25T15:30:52Z</time></trkpt><trkpt lat="44.55917189833525" lon="9.282473749296296"><ele>613.0</ele><time>2026-04-25T15:30:53Z</time></trkpt><trkpt lat="44.55910886029231" lon="9.282321931329355"><ele>613.0</ele><time>2026-04-25T15:30:54Z</time></trkpt><trkpt lat="44.55902666192698" lon="9.282199817634032"><ele>611.6</ele><time>2026-04-25T15:30:55Z</time></trkpt><trkpt lat="44.55893840959338" lon="9.28210041257039"><ele>610.1999999999999</ele><time>2026-04-25T15:30:56Z</time></trkpt><trkpt lat="44.558845430802855" lon="9.282027033423008"><ele>608.8</ele><time>2026-04-25T15:30:57Z</time></trkpt><trkpt lat="44.5587490525526" lon="9.281975275463093"><ele>607.4</ele><time>2026-04-25T15:30:58Z</time></trkpt><trkpt lat="44.55865171842228" lon="9.28194252434513"><ele>606.0</ele><time>2026-04-25T15:30:59Z</time></trkpt><trkpt lat="44.55854923389257" lon="9.281933786455014"><ele>606.0</ele><time>2026-04-25T15:31:00Z</time></trkpt><trkpt lat="44.55844145001513" lon="9.281952601829591"><ele>606.0</ele><time>2026-04-25T15:31:01Z</time></trkpt><trkpt lat="44.55832948000222" lon="9.281987814416887"><ele>606.0</ele><time>2026-04-25T15:31:02Z</time></trkpt><trkpt lat="44.55821577228911" lon="9.282043432989079"><ele>606.0</ele><time>2026-04-25T15:31:03Z</time></trkpt><trkpt lat="44.55809451036952" lon="9.282112520104105"><ele>606.0</ele><time>2026-04-25T15:31:04Z</time></trkpt><trkpt lat="44.55796770379386" lon="9.282193960631679"><ele>606.0</ele><time>2026-04-25T15:31:05Z</time></trkpt><trkpt lat="44.557835831166386" lon="9.282281183536456"><ele>606.0</ele><time>2026-04-25T15:31:06Z</time></trkpt><trkpt lat="44.55769938747308" lon="9.282373914602616"><ele>606.0</ele><time>2026-04-25T15:31:07Z</time></trkpt><trkpt lat="44.55756332778588" lon="9.282461587050264"><ele>603.6666666666666</ele><time>2026-04-25T15:31:08Z</time></trkpt><trkpt lat="44.557424761156035" lon="9.2825458803582"><ele>601.3333333333333</ele><time>2026-04-25T15:31:09Z</time></trkpt><trkpt lat="44.55728111174327" lon="9.282636572226322"><ele>599.0</ele><time>2026-04-25T15:31:10Z</time></trkpt><trkpt lat="44.55713211864766" lon="9.28273047395542"><ele>600.3333333333333</ele><time>2026-04-25T15:31:11Z</time></trkpt><trkpt lat="44.55698012919476" lon="9.282828205811978"><ele>601.6666666666666</ele><time>2026-04-25T15:31:12Z</time></trkpt><trkpt lat="44.556824753978" lon="9.282930304053838"><ele>603.0</ele><time>2026-04-25T15:31:13Z</time></trkpt><trkpt lat="44.55666282216797" lon="9.28301164365034"><ele>602.0</ele><time>2026-04-25T15:31:14Z</time></trkpt><trkpt lat="44.55650995671468" lon="9.28310980386947"><ele>601.0</ele><time>2026-04-25T15:31:15Z</time></trkpt><trkpt lat="44.55637345834834" lon="9.283222745014339"><ele>600.0</ele><time>2026-04-25T15:31:16Z</time></trkpt><trkpt lat="44.55624018679081" lon="9.283304452866181"><ele>601.75</ele><time>2026-04-25T15:31:17Z</time></trkpt><trkpt lat="44.5561131552265" lon="9.283378483176609"><ele>603.5</ele><time>2026-04-25T15:31:18Z</time></trkpt><trkpt lat="44.55599512458528" lon="9.28344258934141"><ele>605.25</ele><time>2026-04-25T15:31:19Z</time></trkpt><trkpt lat="44.555887006545255" lon="9.283502442627162"><ele>607.0</ele><time>2026-04-25T15:31:20Z</time></trkpt><trkpt lat="44.55579410920144" lon="9.283538952543879"><ele>607.0</ele><time>2026-04-25T15:31:21Z</time></trkpt><trkpt lat="44.55571352784086" lon="9.283546555106147"><ele>607.0</ele><time>2026-04-25T15:31:22Z</time></trkpt><trkpt lat="44.55562459972072" lon="9.283509781038047"><ele>607.0</ele><time>2026-04-25T15:31:24Z</time></trkpt><trkpt lat="44.55555823843258" lon="9.28368618747679"><ele>607.0</ele><time>2026-04-25T15:31:26Z</time></trkpt><trkpt lat="44.555526421628834" lon="9.283811279752891"><ele>607.0</ele><time>2026-04-25T15:31:27Z</time></trkpt><trkpt lat="44.5554826350397" lon="9.283982828146986"><ele>605.6666666666667</ele><time>2026-04-25T15:31:28Z</time></trkpt><trkpt lat="44.555425402747055" lon="9.284168927469649"><ele>604.3333333333334</ele><time>2026-04-25T15:31:29Z</time></trkpt><trkpt lat="44.55537313480216" lon="9.284366302457869"><ele>603.0</ele><time>2026-04-25T15:31:30Z</time></trkpt><trkpt lat="44.55530032965075" lon="9.284572583627165"><ele>601.5</ele><time>2026-04-25T15:31:31Z</time></trkpt><trkpt lat="44.55525821610973" lon="9.28477116470325"><ele>600.0</ele><time>2026-04-25T15:31:32Z</time></trkpt><trkpt lat="44.55520357082629" lon="9.284931147845668"><ele>598.5</ele><time>2026-04-25T15:31:33Z</time></trkpt><trkpt lat="44.555145174271516" lon="9.285046212906476"><ele>597.0</ele><time>2026-04-25T15:31:34Z</time></trkpt><trkpt lat="44.55507483795739" lon="9.285135091596306"><ele>597.0</ele><time>2026-04-25T15:31:35Z</time></trkpt><trkpt lat="44.55499083426047" lon="9.285190980870532"><ele>597.0</ele><time>2026-04-25T15:31:36Z</time></trkpt><trkpt lat="44.5549045778672" lon="9.285198296304596"><ele>597.0</ele><time>2026-04-25T15:31:37Z</time></trkpt><trkpt lat="44.55481012611308" lon="9.285168947123138"><ele>597.0</ele><time>2026-04-25T15:31:38Z</time></trkpt><trkpt lat="44.55469063519875" lon="9.28509003680592"><ele>597.0</ele><time>2026-04-25T15:31:39Z</time></trkpt><trkpt lat="44.55455148944462" lon="9.284992368232627"><ele>597.0</ele><time>2026-04-25T15:31:40Z</time></trkpt><trkpt lat="44.554414671523865" lon="9.284898641608084"><ele>597.0</ele><time>2026-04-25T15:31:41Z</time></trkpt><trkpt lat="44.55426641813579" lon="9.284799545789058"><ele>597.0</ele><time>2026-04-25T15:31:42Z</time></trkpt><trkpt lat="44.55412689227822" lon="9.284706390934828"><ele>597.25</ele><time>2026-04-25T15:31:43Z</time></trkpt><trkpt lat="44.554002082307974" lon="9.284624344896317"><ele>597.5</ele><time>2026-04-25T15:31:44Z</time></trkpt><trkpt lat="44.55388593552634" lon="9.284562729429277"><ele>597.75</ele><time>2026-04-25T15:31:45Z</time></trkpt><trkpt lat="44.55377206968416" lon="9.28453510285553"><ele>598.0</ele><time>2026-04-25T15:31:46Z</time></trkpt><trkpt lat="44.55366298714917" lon="9.284543566752726"><ele>599.25</ele><time>2026-04-25T15:31:47Z</time></trkpt><trkpt lat="44.55356060372441" lon="9.28458232740686"><ele>600.5</ele><time>2026-04-25T15:31:48Z</time></trkpt><trkpt lat="44.553463370185725" lon="9.284639561171055"><ele>601.75</ele><time>2026-04-25T15:31:49Z</time></trkpt><trkpt lat="44.553376470394596" lon="9.284721124868968"><ele>603.0</ele><time>2026-04-25T15:31:50Z</time></trkpt><trkpt lat="44.553292150132926" lon="9.284868819252958"><ele>603.0</ele><time>2026-04-25T15:31:51Z</time></trkpt><trkpt lat="44.553245416328515" lon="9.285015611696682"><ele>603.0</ele><time>2026-04-25T15:31:52Z</time></trkpt><trkpt lat="44.55322523629022" lon="9.285140159870759"><ele>603.0</ele><time>2026-04-25T15:31:53Z</time></trkpt><trkpt lat="44.55320753978252" lon="9.285245553303943"><ele>603.0</ele><time>2026-04-25T15:31:54Z</time></trkpt><trkpt lat="44.55318124756004" lon="9.285332776486978"><ele>603.0</ele><time>2026-04-25T15:31:55Z</time></trkpt><trkpt lat="44.55308103876355" lon="9.285335352609177"><ele>603.0</ele><time>2026-04-25T15:31:57Z</time></trkpt><trkpt lat="44.5530527844283" lon="9.285172682868552"><ele>603.0</ele><time>2026-04-25T15:31:59Z</time></trkpt><trkpt lat="44.553119897100785" lon="9.285088360764128"><ele>603.0</ele><time>2026-04-25T15:32:00Z</time></trkpt><trkpt lat="44.553163557297864" lon="9.284957052912402"><ele>603.0</ele><time>2026-04-25T15:32:01Z</time></trkpt><trkpt lat="44.55318836102767" lon="9.284798095289839"><ele>603.0</ele><time>2026-04-25T15:32:02Z</time></trkpt><trkpt lat="44.5532161055306" lon="9.28461507088174"><ele>604.5</ele><time>2026-04-25T15:32:03Z</time></trkpt><trkpt lat="44.55323931649522" lon="9.284435235515698"><ele>606.0</ele><time>2026-04-25T15:32:04Z</time></trkpt><trkpt lat="44.55326338509497" lon="9.284275358501025"><ele>607.5</ele><time>2026-04-25T15:32:05Z</time></trkpt><trkpt lat="44.55329952810007" lon="9.284110408946068"><ele>609.0</ele><time>2026-04-25T15:32:06Z</time></trkpt><trkpt lat="44.55332836893356" lon="9.28397027119741"><ele>609.0</ele><time>2026-04-25T15:32:07Z</time></trkpt><trkpt lat="44.55334334790535" lon="9.283878143724596"><ele>609.0</ele><time>2026-04-25T15:32:08Z</time></trkpt><trkpt lat="44.55325220497765" lon="9.283775352325492"><ele>609.0</ele><time>2026-04-25T15:32:10Z</time></trkpt><trkpt lat="44.55318591807431" lon="9.283786266383125"><ele>609.0</ele><time>2026-04-25T15:32:11Z</time></trkpt><trkpt lat="44.55313821551041" lon="9.283850327641282"><ele>609.0</ele><time>2026-04-25T15:32:12Z</time></trkpt><trkpt lat="44.55310940032365" lon="9.283942978744413"><ele>609.0</ele><time>2026-04-25T15:32:13Z</time></trkpt><trkpt lat="44.55310705936417" lon="9.284053293786247"><ele>609.0</ele><time>2026-04-25T15:32:14Z</time></trkpt><trkpt lat="44.55310471680922" lon="9.284172174215438"><ele>609.0</ele><time>2026-04-25T15:32:15Z</time></trkpt><trkpt lat="44.55308019340503" lon="9.284301130597065"><ele>609.0</ele><time>2026-04-25T15:32:16Z</time></trkpt><trkpt lat="44.553035817974546" lon="9.28442569657953"><ele>609.0</ele><time>2026-04-25T15:32:17Z</time></trkpt><trkpt lat="44.552986237883324" lon="9.28457358464399"><ele>609.0</ele><time>2026-04-25T15:32:18Z</time></trkpt><trkpt lat="44.55292484319124" lon="9.284752821188633"><ele>607.8</ele><time>2026-04-25T15:32:19Z</time></trkpt><trkpt lat="44.55287356819605" lon="9.28491467173189"><ele>606.5999999999999</ele><time>2026-04-25T15:32:20Z</time></trkpt><trkpt lat="44.55284885061879" lon="9.285095745334438"><ele>605.4</ele><time>2026-04-25T15:32:21Z</time></trkpt><trkpt lat="44.552858492495304" lon="9.285248433101726"><ele>604.1999999999999</ele><time>2026-04-25T15:32:22Z</time></trkpt><trkpt lat="44.55283680681806" lon="9.285345185054707"><ele>603.0</ele><time>2026-04-25T15:32:23Z</time></trkpt><trkpt lat="44.552762576788226" lon="9.285388404877192"><ele>611.5</ele><time>2026-04-25T15:32:25Z</time></trkpt><trkpt lat="44.5527124422627" lon="9.28522666252428"><ele>620.0</ele><time>2026-04-25T15:32:27Z</time></trkpt><trkpt lat="44.552736171719175" lon="9.28509234051101"><ele>628.5</ele><time>2026-04-25T15:32:28Z</time></trkpt><trkpt lat="44.552763953597" lon="9.284924415596436"><ele>637.0</ele><time>2026-04-25T15:32:29Z</time></trkpt><trkpt lat="44.55278677475534" lon="9.284716110377436"><ele>637.25</ele><time>2026-04-25T15:32:30Z</time></trkpt><trkpt lat="44.55281086906543" lon="9.284528597523757"><ele>637.5</ele><time>2026-04-25T15:32:31Z</time></trkpt><trkpt lat="44.55280286760509" lon="9.284371972820155"><ele>637.75</ele><time>2026-04-25T15:32:32Z</time></trkpt><trkpt lat="44.552757032555" lon="9.284213313898062"><ele>638.0</ele><time>2026-04-25T15:32:33Z</time></trkpt><trkpt lat="44.55267949379074" lon="9.284037567137082"><ele>635.5</ele><time>2026-04-25T15:32:34Z</time></trkpt><trkpt lat="44.552619512347164" lon="9.283843011171465"><ele>633.0</ele><time>2026-04-25T15:32:35Z</time></trkpt><trkpt lat="44.552610061894214" lon="9.283659603876528"><ele>630.5</ele><time>2026-04-25T15:32:36Z</time></trkpt><trkpt lat="44.55260569023896" lon="9.283507915434242"><ele>628.0</ele><time>2026-04-25T15:32:37Z</time></trkpt><trkpt lat="44.55256856722221" lon="9.283387212957107"><ele>628.0</ele><time>2026-04-25T15:32:38Z</time></trkpt><trkpt lat="44.55250359080444" lon="9.28329279620506"><ele>628.0</ele><time>2026-04-25T15:32:39Z</time></trkpt><trkpt lat="44.55241896678059" lon="9.28324217650237"><ele>628.0</ele><time>2026-04-25T15:32:40Z</time></trkpt><trkpt lat="44.55232115421915" lon="9.283233541887899"><ele>628.0</ele><time>2026-04-25T15:32:41Z</time></trkpt><trkpt lat="44.55222592913258" lon="9.283278880767815"><ele>628.0</ele><time>2026-04-25T15:32:42Z</time></trkpt><trkpt lat="44.55213920546068" lon="9.283381175696059"><ele>628.0</ele><time>2026-04-25T15:32:43Z</time></trkpt><trkpt lat="44.55204655845247" lon="9.283510449940954"><ele>628.0</ele><time>2026-04-25T15:32:44Z</time></trkpt><trkpt lat="44.551943511331814" lon="9.283592216171222"><ele>628.0</ele><time>2026-04-25T15:32:45Z</time></trkpt><trkpt lat="44.55185827870912" lon="9.283613268948704"><ele>628.0</ele><time>2026-04-25T15:32:46Z</time></trkpt><trkpt lat="44.55177446481001" lon="9.283602632327794"><ele>628.0</ele><time>2026-04-25T15:32:47Z</time></trkpt><trkpt lat="44.55168861020495" lon="9.28352607717041"><ele>628.0</ele><time>2026-04-25T15:32:48Z</time></trkpt><trkpt lat="44.55161531512767" lon="9.283388017985306"><ele>628.0</ele><time>2026-04-25T15:32:49Z</time></trkpt><trkpt lat="44.55155067838472" lon="9.283233341268081"><ele>628.0</ele><time>2026-04-25T15:32:50Z</time></trkpt><trkpt lat="44.55146291356204" lon="9.283098306388888"><ele>628.0</ele><time>2026-04-25T15:32:51Z</time></trkpt><trkpt lat="44.55134301776509" lon="9.283004375218686"><ele>632.25</ele><time>2026-04-25T15:32:52Z</time></trkpt><trkpt lat="44.551203735475454" lon="9.282922057447882"><ele>636.5</ele><time>2026-04-25T15:32:53Z</time></trkpt><trkpt lat="44.55109198901925" lon="9.282831287584852"><ele>640.75</ele><time>2026-04-25T15:32:54Z</time></trkpt><trkpt lat="44.55101205010349" lon="9.282721017699723"><ele>645.0</ele><time>2026-04-25T15:32:55Z</time></trkpt><trkpt lat="44.550936075748204" lon="9.282629681046506"><ele>645.0</ele><time>2026-04-25T15:32:56Z</time></trkpt><trkpt lat="44.55084567715381" lon="9.282598302206988"><ele>645.0</ele><time>2026-04-25T15:32:57Z</time></trkpt><trkpt lat="44.55073943917919" lon="9.282621952223758"><ele>645.0</ele><time>2026-04-25T15:32:58Z</time></trkpt><trkpt lat="44.55061720602367" lon="9.282685246877444"><ele>645.0</ele><time>2026-04-25T15:32:59Z</time></trkpt><trkpt lat="44.55048657244818" lon="9.282750524425795"><ele>649.75</ele><time>2026-04-25T15:33:00Z</time></trkpt><trkpt lat="44.55036947213669" lon="9.28276911880545"><ele>654.5</ele><time>2026-04-25T15:33:01Z</time></trkpt><trkpt lat="44.550267733917416" lon="9.28270762102818"><ele>659.25</ele><time>2026-04-25T15:33:02Z</time></trkpt><trkpt lat="44.550171651789285" lon="9.28263968457243"><ele>664.0</ele><time>2026-04-25T15:33:03Z</time></trkpt><trkpt lat="44.55008651367035" lon="9.282522628667921"><ele>664.0</ele><time>2026-04-25T15:33:04Z</time></trkpt><trkpt lat="44.55002515791502" lon="9.282392245494844"><ele>664.0</ele><time>2026-04-25T15:33:05Z</time></trkpt><trkpt lat="44.55000527377004" lon="9.282239225609807"><ele>664.0</ele><time>2026-04-25T15:33:06Z</time></trkpt><trkpt lat="44.550005812042286" lon="9.282083316768418"><ele>664.0</ele><time>2026-04-25T15:33:07Z</time></trkpt><trkpt lat="44.55001282533534" lon="9.281900481785904"><ele>663.25</ele><time>2026-04-25T15:33:08Z</time></trkpt><trkpt lat="44.550051468195974" lon="9.281705675150095"><ele>662.5</ele><time>2026-04-25T15:33:09Z</time></trkpt><trkpt lat="44.550085658584365" lon="9.281504672255364"><ele>661.75</ele><time>2026-04-25T15:33:10Z</time></trkpt><trkpt lat="44.55012472479915" lon="9.28137063378487"><ele>661.0</ele><time>2026-04-25T15:33:11Z</time></trkpt><trkpt lat="44.550138153108605" lon="9.281269190694742"><ele>661.0</ele><time>2026-04-25T15:33:12Z</time></trkpt><trkpt lat="44.55006298091417" lon="9.281163784445553"><ele>661.0</ele><time>2026-04-25T15:33:14Z</time></trkpt><trkpt lat="44.549999937121285" lon="9.2811591612336"><ele>661.0</ele><time>2026-04-25T15:33:15Z</time></trkpt><trkpt lat="44.54994499685828" lon="9.281212920435268"><ele>661.0</ele><time>2026-04-25T15:33:16Z</time></trkpt><trkpt lat="44.54990193434294" lon="9.281327269823691"><ele>661.0</ele><time>2026-04-25T15:33:17Z</time></trkpt><trkpt lat="44.54986568460724" lon="9.281477059927152"><ele>661.0</ele><time>2026-04-25T15:33:18Z</time></trkpt><trkpt lat="44.54981896958012" lon="9.281672523509151"><ele>661.0</ele><time>2026-04-25T15:33:19Z</time></trkpt><trkpt lat="44.54976966811076" lon="9.28186995629523"><ele>661.0</ele><time>2026-04-25T15:33:20Z</time></trkpt><trkpt lat="44.5497263043765" lon="9.282056078960338"><ele>661.0</ele><time>2026-04-25T15:33:21Z</time></trkpt><trkpt lat="44.54968914043328" lon="9.2822665779756"><ele>661.0</ele><time>2026-04-25T15:33:22Z</time></trkpt><trkpt lat="44.54968430738057" lon="9.28251057217089"><ele>662.0</ele><time>2026-04-25T15:33:23Z</time></trkpt><trkpt lat="44.54969802388512" lon="9.282769580382931"><ele>663.0</ele><time>2026-04-25T15:33:24Z</time></trkpt><trkpt lat="44.54970881276508" lon="9.283005333435142"><ele>664.0</ele><time>2026-04-25T15:33:25Z</time></trkpt><trkpt lat="44.54973275611236" lon="9.283212580893268"><ele>667.5</ele><time>2026-04-25T15:33:26Z</time></trkpt><trkpt lat="44.54977247509981" lon="9.283402697026624"><ele>671.0</ele><time>2026-04-25T15:33:27Z</time></trkpt><trkpt lat="44.54979478888896" lon="9.283567389783292"><ele>674.5</ele><time>2026-04-25T15:33:28Z</time></trkpt><trkpt lat="44.54984852943474" lon="9.283680176824292"><ele>678.0</ele><time>2026-04-25T15:33:29Z</time></trkpt><trkpt lat="44.54993072232393" lon="9.2837483449413"><ele>678.0</ele><time>2026-04-25T15:33:30Z</time></trkpt><trkpt lat="44.55003816500637" lon="9.283778455014504"><ele>678.0</ele><time>2026-04-25T15:33:31Z</time></trkpt><trkpt lat="44.55015865289278" lon="9.283778868314672"><ele>678.0</ele><time>2026-04-25T15:33:32Z</time></trkpt><trkpt lat="44.55028929519436" lon="9.283746127695155"><ele>678.0</ele><time>2026-04-25T15:33:33Z</time></trkpt><trkpt lat="44.55041197867513" lon="9.283689256930149"><ele>679.2</ele><time>2026-04-25T15:33:34Z</time></trkpt><trkpt lat="44.55050541271048" lon="9.283695179575986"><ele>680.4</ele><time>2026-04-25T15:33:35Z</time></trkpt><trkpt lat="44.55057029433116" lon="9.283701967660193"><ele>681.6</ele><time>2026-04-25T15:33:36Z</time></trkpt><trkpt lat="44.55065284312238" lon="9.283835784897533"><ele>682.8000000000001</ele><time>2026-04-25T15:33:38Z</time></trkpt><trkpt lat="44.55062329675744" lon="9.28394485730194"><ele>684.0</ele><time>2026-04-25T15:33:39Z</time></trkpt><trkpt lat="44.55059096350032" lon="9.284065553023549"><ele>684.0</ele><time>2026-04-25T15:33:40Z</time></trkpt><trkpt lat="44.55056533200542" lon="9.284219142929519"><ele>684.0</ele><time>2026-04-25T15:33:41Z</time></trkpt><trkpt lat="44.550533646927036" lon="9.284370911088272"><ele>684.0</ele><time>2026-04-25T15:33:42Z</time></trkpt><trkpt lat="44.55054251157199" lon="9.284514092078801"><ele>684.0</ele><time>2026-04-25T15:33:43Z</time></trkpt><trkpt lat="44.55058219408036" lon="9.284651720011452"><ele>684.0</ele><time>2026-04-25T15:33:44Z</time></trkpt><trkpt lat="44.55065104668234" lon="9.284768128366103"><ele>687.75</ele><time>2026-04-25T15:33:45Z</time></trkpt><trkpt lat="44.550749130519485" lon="9.284887017749913"><ele>691.5</ele><time>2026-04-25T15:33:46Z</time></trkpt><trkpt lat="44.550861250343814" lon="9.28500689740805"><ele>695.25</ele><time>2026-04-25T15:33:47Z</time></trkpt><trkpt lat="44.550964712284355" lon="9.285138472788805"><ele>699.0</ele><time>2026-04-25T15:33:48Z</time></trkpt><trkpt lat="44.55103749003955" lon="9.28527439548219"><ele>699.0</ele><time>2026-04-25T15:33:49Z</time></trkpt><trkpt lat="44.551084357475624" lon="9.285407247817295"><ele>699.0</ele><time>2026-04-25T15:33:50Z</time></trkpt><trkpt lat="44.55109728465268" lon="9.285541824943895"><ele>699.0</ele><time>2026-04-25T15:33:51Z</time></trkpt><trkpt lat="44.55108697878622" lon="9.2856702318615"><ele>699.0</ele><time>2026-04-25T15:33:52Z</time></trkpt><trkpt lat="44.551032921020784" lon="9.285778897698666"><ele>699.0</ele><time>2026-04-25T15:33:53Z</time></trkpt><trkpt lat="44.55096544143842" lon="9.285871957574141"><ele>699.75</ele><time>2026-04-25T15:33:54Z</time></trkpt><trkpt lat="44.550861841195434" lon="9.285932437570349"><ele>700.5</ele><time>2026-04-25T15:33:55Z</time></trkpt><trkpt lat="44.55074741673112" lon="9.286012815012391"><ele>701.25</ele><time>2026-04-25T15:33:56Z</time></trkpt><trkpt lat="44.550619577465326" lon="9.286091138089825"><ele>702.0</ele><time>2026-04-25T15:33:57Z</time></trkpt><trkpt lat="44.550511559189495" lon="9.28621152668503"><ele>702.0</ele><time>2026-04-25T15:33:58Z</time></trkpt><trkpt lat="44.55040439260087" lon="9.286374895590015"><ele>702.0</ele><time>2026-04-25T15:33:59Z</time></trkpt><trkpt lat="44.55029901121804" lon="9.286508209731647"><ele>702.0</ele><time>2026-04-25T15:34:00Z</time></trkpt><trkpt lat="44.550192178464876" lon="9.28660204507241"><ele>702.0</ele><time>2026-04-25T15:34:01Z</time></trkpt><trkpt lat="44.55010583994628" lon="9.28669947692838"><ele>702.0</ele><time>2026-04-25T15:34:02Z</time></trkpt><trkpt lat="44.55006084719919" lon="9.286832690760646"><ele>702.0</ele><time>2026-04-25T15:34:03Z</time></trkpt><trkpt lat="44.550048065450156" lon="9.286989838407923"><ele>702.0</ele><time>2026-04-25T15:34:04Z</time></trkpt><trkpt lat="44.55003911691679" lon="9.287158644171022"><ele>702.0</ele><time>2026-04-25T15:34:05Z</time></trkpt><trkpt lat="44.549992618484055" lon="9.287311909794"><ele>702.0</ele><time>2026-04-25T15:34:06Z</time></trkpt><trkpt lat="44.54993804597091" lon="9.28743890235789"><ele>702.0</ele><time>2026-04-25T15:34:07Z</time></trkpt><trkpt lat="44.549856486933884" lon="9.28752074605221"><ele>702.0</ele><time>2026-04-25T15:34:08Z</time></trkpt><trkpt lat="44.54976478292849" lon="9.28759341773855"><ele>702.0</ele><time>2026-04-25T15:34:09Z</time></trkpt><trkpt lat="44.54964103338727" lon="9.287580630873201"><ele>702.0</ele><time>2026-04-25T15:34:10Z</time></trkpt><trkpt lat="44.549508786126765" lon="9.28759206064683"><ele>706.5</ele><time>2026-04-25T15:34:11Z</time></trkpt><trkpt lat="44.549363417118784" lon="9.287610186444752"><ele>711.0</ele><time>2026-04-25T15:34:12Z</time></trkpt><trkpt lat="44.549232630923335" lon="9.287620918657733"><ele>715.5</ele><time>2026-04-25T15:34:12.999Z</time></trkpt><trkpt lat="44.549121825304184" lon="9.287648642316018"><ele>720.0</ele><time>2026-04-25T15:34:13.999Z</time></trkpt><trkpt lat="44.549030665005944" lon="9.287716899108098"><ele>720.0</ele><time>2026-04-25T15:34:14.999Z</time></trkpt><trkpt lat="44.54894909233039" lon="9.287831465665777"><ele>720.0</ele><time>2026-04-25T15:34:15.999Z</time></trkpt><trkpt lat="44.54887094609043" lon="9.287974450689902"><ele>720.0</ele><time>2026-04-25T15:34:16.999Z</time></trkpt><trkpt lat="44.548784065582765" lon="9.288122417644786"><ele>720.0</ele><time>2026-04-25T15:34:17.999Z</time></trkpt><trkpt lat="44.54870853570983" lon="9.28828482586816"><ele>725.3333333333334</ele><time>2026-04-25T15:34:18.999Z</time></trkpt><trkpt lat="44.54865698213925" lon="9.288460101351687"><ele>730.6666666666667</ele><time>2026-04-25T15:34:19.999Z</time></trkpt><trkpt lat="44.548637466129826" lon="9.288671686302289"><ele>736.0</ele><time>2026-04-25T15:34:20.999Z</time></trkpt><trkpt lat="44.54862480919682" lon="9.288901221633951"><ele>733.0</ele><time>2026-04-25T15:34:21.999Z</time></trkpt><trkpt lat="44.54857742702894" lon="9.28913246501853"><ele>730.0</ele><time>2026-04-25T15:34:22.999Z</time></trkpt><trkpt lat="44.54853167876103" lon="9.289374089610043"><ele>727.0</ele><time>2026-04-25T15:34:23.999Z</time></trkpt><trkpt lat="44.54849622170817" lon="9.289625018900864"><ele>727.3333333333334</ele><time>2026-04-25T15:34:24.999Z</time></trkpt><trkpt lat="44.548451284270236" lon="9.28984718987953"><ele>727.6666666666666</ele><time>2026-04-25T15:34:25.999Z</time></trkpt><trkpt lat="44.548406690794955" lon="9.29005979301693"><ele>728.0</ele><time>2026-04-25T15:34:26.999Z</time></trkpt><trkpt lat="44.548423928724155" lon="9.290259819135683"><ele>728.0</ele><time>2026-04-25T15:34:27.999Z</time></trkpt><trkpt lat="44.548439079398534" lon="9.290433064934323"><ele>728.0</ele><time>2026-04-25T15:34:28.999Z</time></trkpt><trkpt lat="44.54844969444553" lon="9.290559425648015"><ele>728.0</ele><time>2026-04-25T15:34:29.999Z</time></trkpt><trkpt lat="44.54837351694335" lon="9.29065779776375"><ele>728.0</ele><time>2026-04-25T15:34:31.999Z</time></trkpt><trkpt lat="44.548255879645986" lon="9.290658097131145"><ele>728.0</ele><time>2026-04-25T15:34:33.999Z</time></trkpt><trkpt lat="44.548113448587955" lon="9.2906267099348"><ele>726.5</ele><time>2026-04-25T15:34:35.999Z</time></trkpt><trkpt lat="44.547991501728596" lon="9.29062369551104"><ele>725.0</ele><time>2026-04-25T15:34:36.999Z</time></trkpt><trkpt lat="44.547850266010606" lon="9.290621996622923"><ele>723.5</ele><time>2026-04-25T15:34:37.999Z</time></trkpt><trkpt lat="44.54769576118388" lon="9.290621742331538"><ele>722.0</ele><time>2026-04-25T15:34:38.999Z</time></trkpt><trkpt lat="44.54755655211238" lon="9.29061039824763"><ele>725.2</ele><time>2026-04-25T15:34:39.999Z</time></trkpt><trkpt lat="44.54743553497449" lon="9.290600256863597"><ele>728.4000000000001</ele><time>2026-04-25T15:34:40.999Z</time></trkpt><trkpt lat="44.54736015216004" lon="9.290604046843717"><ele>731.5999999999999</ele><time>2026-04-25T15:34:41.999Z</time></trkpt><trkpt lat="44.547287117285265" lon="9.29068109495278"><ele>734.8</ele><time>2026-04-25T15:34:42.999Z</time></trkpt><trkpt lat="44.54725996141387" lon="9.29081090601502"><ele>738.0</ele><time>2026-04-25T15:34:43.999Z</time></trkpt><trkpt lat="44.5472177335839" lon="9.290928750030531"><ele>738.0</ele><time>2026-04-25T15:34:44.999Z</time></trkpt><trkpt lat="44.54714931288738" lon="9.291022297664012"><ele>738.0</ele><time>2026-04-25T15:34:45.999Z</time></trkpt><trkpt lat="44.5470451076682" lon="9.291051304471504"><ele>738.0</ele><time>2026-04-25T15:34:46.999Z</time></trkpt><trkpt lat="44.54692715582587" lon="9.291099941970296"><ele>738.0</ele><time>2026-04-25T15:34:47.999Z</time></trkpt><trkpt lat="44.5468261294116" lon="9.291176905496545"><ele>738.0</ele><time>2026-04-25T15:34:48.999Z</time></trkpt><trkpt lat="44.546752606586935" lon="9.291227477563634"><ele>742.5</ele><time>2026-04-25T15:34:50Z</time></trkpt><trkpt lat="44.54673588030341" lon="9.291333218388225"><ele>747.0</ele><time>2026-04-25T15:34:51Z</time></trkpt><trkpt lat="44.54678825406954" lon="9.29151862195762"><ele>751.5</ele><time>2026-04-25T15:34:53Z</time></trkpt><trkpt lat="44.54686287308317" lon="9.291624730016474"><ele>756.0</ele><time>2026-04-25T15:34:54Z</time></trkpt><trkpt lat="44.546954178514376" lon="9.291744963738754"><ele>756.0</ele><time>2026-04-25T15:34:55Z</time></trkpt><trkpt lat="44.547008856152104" lon="9.291859581318048"><ele>756.0</ele><time>2026-04-25T15:34:56Z</time></trkpt><trkpt lat="44.54703045371791" lon="9.29198359419923"><ele>756.0</ele><time>2026-04-25T15:34:57Z</time></trkpt><trkpt lat="44.547033077166766" lon="9.292114684678966"><ele>756.0</ele><time>2026-04-25T15:34:58Z</time></trkpt><trkpt lat="44.54698725030031" lon="9.29222515638077"><ele>756.0</ele><time>2026-04-25T15:34:59Z</time></trkpt><trkpt lat="44.54693994312897" lon="9.29232365232202"><ele>755.75</ele><time>2026-04-25T15:35:00Z</time></trkpt><trkpt lat="44.546866837142204" lon="9.292431332662936"><ele>755.5</ele><time>2026-04-25T15:35:01Z</time></trkpt><trkpt lat="44.546789898470216" lon="9.292570966882396"><ele>755.25</ele><time>2026-04-25T15:35:02Z</time></trkpt><trkpt lat="44.54668968225315" lon="9.292698807808002"><ele>755.0</ele><time>2026-04-25T15:35:03Z</time></trkpt><trkpt lat="44.54658197253316" lon="9.292839383814417"><ele>755.0</ele><time>2026-04-25T15:35:04Z</time></trkpt><trkpt lat="44.546495995498525" lon="9.293026054486564"><ele>755.0</ele><time>2026-04-25T15:35:05Z</time></trkpt><trkpt lat="44.546438050146996" lon="9.293255363312245"><ele>755.0</ele><time>2026-04-25T15:35:06Z</time></trkpt><trkpt lat="44.54635945030368" lon="9.293471801741735"><ele>758.5</ele><time>2026-04-25T15:35:07Z</time></trkpt><trkpt lat="44.546274028561264" lon="9.29365077212543"><ele>762.0</ele><time>2026-04-25T15:35:08Z</time></trkpt><trkpt lat="44.54620182875269" lon="9.293805555745772"><ele>765.5</ele><time>2026-04-25T15:35:09Z</time></trkpt><trkpt lat="44.546160636247215" lon="9.293963626912168"><ele>769.0</ele><time>2026-04-25T15:35:10Z</time></trkpt><trkpt lat="44.54613980763095" lon="9.294141701844326"><ele>769.0</ele><time>2026-04-25T15:35:11Z</time></trkpt><trkpt lat="44.54612408500967" lon="9.29431673959599"><ele>769.0</ele><time>2026-04-25T15:35:12Z</time></trkpt><trkpt lat="44.54608285646883" lon="9.294439943978633"><ele>769.0</ele><time>2026-04-25T15:35:13Z</time></trkpt><trkpt lat="44.545981020071956" lon="9.29453114325637"><ele>769.0</ele><time>2026-04-25T15:35:15Z</time></trkpt><trkpt lat="44.545892873543046" lon="9.294553800558713"><ele>769.0</ele><time>2026-04-25T15:35:16Z</time></trkpt><trkpt lat="44.545775872431875" lon="9.294626089505064"><ele>769.0</ele><time>2026-04-25T15:35:17Z</time></trkpt><trkpt lat="44.54563412825565" lon="9.294688666934785"><ele>769.0</ele><time>2026-04-25T15:35:18Z</time></trkpt><trkpt lat="44.545472890092356" lon="9.294735397026955"><ele>769.0</ele><time>2026-04-25T15:35:19Z</time></trkpt><trkpt lat="44.54533239174755" lon="9.294756987745687"><ele>767.0</ele><time>2026-04-25T15:35:20Z</time></trkpt><trkpt lat="44.54517491125694" lon="9.294838966985004"><ele>765.0</ele><time>2026-04-25T15:35:21Z</time></trkpt><trkpt lat="44.54501933478043" lon="9.294917863716735"><ele>763.0</ele><time>2026-04-25T15:35:22Z</time></trkpt><trkpt lat="44.544889278443094" lon="9.294999480608176"><ele>763.0</ele><time>2026-04-25T15:35:23Z</time></trkpt><trkpt lat="44.54477643973731" lon="9.295050239422315"><ele>763.0</ele><time>2026-04-25T15:35:24Z</time></trkpt><trkpt lat="44.54467830424753" lon="9.295009488367903"><ele>763.0</ele><time>2026-04-25T15:35:25Z</time></trkpt><trkpt lat="44.54456012417877" lon="9.29498418843066"><ele>763.0</ele><time>2026-04-25T15:35:26Z</time></trkpt><trkpt lat="44.54444512044882" lon="9.294985857136338"><ele>766.75</ele><time>2026-04-25T15:35:27Z</time></trkpt><trkpt lat="44.544347307379745" lon="9.295011322061761"><ele>770.5</ele><time>2026-04-25T15:35:28Z</time></trkpt><trkpt lat="44.54426406114303" lon="9.295100138402217"><ele>774.25</ele><time>2026-04-25T15:35:29Z</time></trkpt><trkpt lat="44.54419264455721" lon="9.295240366620664"><ele>778.0</ele><time>2026-04-25T15:35:30Z</time></trkpt><trkpt lat="44.54412569667437" lon="9.295419814327486"><ele>777.9999999999999</ele><time>2026-04-25T15:35:31Z</time></trkpt><trkpt lat="44.54406835545342" lon="9.295552628076218"><ele>778.0</ele><time>2026-04-25T15:35:32Z</time></trkpt><trkpt lat="44.544054823196824" lon="9.295648983831594"><ele>778.0</ele><time>2026-04-25T15:35:33Z</time></trkpt><trkpt lat="44.54408568093131" lon="9.295734469704902"><ele>778.0</ele><time>2026-04-25T15:35:34Z</time></trkpt><trkpt lat="44.54415573506613" lon="9.295795932304465"><ele>777.9999999999999</ele><time>2026-04-25T15:35:35Z</time></trkpt><trkpt lat="44.544250545297714" lon="9.295833754880553"><ele>778.0</ele><time>2026-04-25T15:35:36Z</time></trkpt><trkpt lat="44.54437730228221" lon="9.29588304017402"><ele>778.0</ele><time>2026-04-25T15:35:37Z</time></trkpt><trkpt lat="44.544446317284994" lon="9.295931674040393"><ele>778.0</ele><time>2026-04-25T15:35:38Z</time></trkpt><trkpt lat="44.54446980606633" lon="9.296025309855676"><ele>778.0</ele><time>2026-04-25T15:35:39Z</time></trkpt><trkpt lat="44.544464491647496" lon="9.296152787625807"><ele>778.0</ele><time>2026-04-25T15:35:40Z</time></trkpt><trkpt lat="44.54444130833479" lon="9.296308802258459"><ele>778.0</ele><time>2026-04-25T15:35:41Z</time></trkpt><trkpt lat="44.54445143720695" lon="9.296483995794384"><ele>777.9999999999999</ele><time>2026-04-25T15:35:42Z</time></trkpt><trkpt lat="44.544488623982474" lon="9.296632772408332"><ele>778.0</ele><time>2026-04-25T15:35:43Z</time></trkpt><trkpt lat="44.54448365378759" lon="9.296758134319175"><ele>778.0</ele><time>2026-04-25T15:35:44Z</time></trkpt><trkpt lat="44.54445751645318" lon="9.296855909259168"><ele>778.0</ele><time>2026-04-25T15:35:45Z</time></trkpt><trkpt lat="44.54440836482511" lon="9.296942203502875"><ele>777.9999999999999</ele><time>2026-04-25T15:35:46Z</time></trkpt><trkpt lat="44.544324113067404" lon="9.296974193610641"><ele>778.0</ele><time>2026-04-25T15:35:47Z</time></trkpt><trkpt lat="44.54422251716801" lon="9.296940488247659"><ele>778.0</ele><time>2026-04-25T15:35:48Z</time></trkpt><trkpt lat="44.544094372306866" lon="9.296920354799123"><ele>778.0</ele><time>2026-04-25T15:35:49Z</time></trkpt><trkpt lat="44.543946159314274" lon="9.296909886304405"><ele>778.0</ele><time>2026-04-25T15:35:50Z</time></trkpt><trkpt lat="44.543811774228374" lon="9.296903251880874"><ele>778.0</ele><time>2026-04-25T15:35:51Z</time></trkpt><trkpt lat="44.54369003302445" lon="9.296904101664573"><ele>778.0</ele><time>2026-04-25T15:35:52Z</time></trkpt><trkpt lat="44.54359809322263" lon="9.296913093371007"><ele>778.0</ele><time>2026-04-25T15:35:53Z</time></trkpt><trkpt lat="44.54353163972037" lon="9.297028134836758"><ele>778.0</ele><time>2026-04-25T15:35:55Z</time></trkpt><trkpt lat="44.54358484018375" lon="9.297186328364317"><ele>778.0</ele><time>2026-04-25T15:35:57Z</time></trkpt><trkpt lat="44.543650557616964" lon="9.297218692488512"><ele>778.0</ele><time>2026-04-25T15:35:58Z</time></trkpt><trkpt lat="44.5437436180061" lon="9.297251397357458"><ele>778.0</ele><time>2026-04-25T15:35:59Z</time></trkpt><trkpt lat="44.54386119718177" lon="9.297290653964168"><ele>778.0</ele><time>2026-04-25T15:36:00Z</time></trkpt><trkpt lat="44.543975399831034" lon="9.297355846603441"><ele>778.0</ele><time>2026-04-25T15:36:01Z</time></trkpt><trkpt lat="44.54404626260102" lon="9.297398089185329"><ele>778.0</ele><time>2026-04-25T15:36:02Z</time></trkpt><trkpt lat="44.544088848631176" lon="9.297469959474085"><ele>778.0</ele><time>2026-04-25T15:36:03Z</time></trkpt><trkpt lat="44.54411355040221" lon="9.297559272727463"><ele>778.0</ele><time>2026-04-25T15:36:04Z</time></trkpt><trkpt lat="44.54406967388477" lon="9.297686472610955"><ele>778.0</ele><time>2026-04-25T15:36:05Z</time></trkpt><trkpt lat="44.54401186958725" lon="9.29780163155632"><ele>778.0</ele><time>2026-04-25T15:36:06Z</time></trkpt><trkpt lat="44.5439255445778" lon="9.297875905122059"><ele>778.0</ele><time>2026-04-25T15:36:07Z</time></trkpt><trkpt lat="44.54380916067928" lon="9.29793609545617"><ele>778.0</ele><time>2026-04-25T15:36:08Z</time></trkpt><trkpt lat="44.54365802254495" lon="9.298007879271438"><ele>781.0</ele><time>2026-04-25T15:36:09Z</time></trkpt><trkpt lat="44.5434864670388" lon="9.298069671411925"><ele>784.0</ele><time>2026-04-25T15:36:10Z</time></trkpt><trkpt lat="44.54334298492303" lon="9.29812929625706"><ele>787.0</ele><time>2026-04-25T15:36:11Z</time></trkpt><trkpt lat="44.54322045197109" lon="9.29819070082662"><ele>787.0</ele><time>2026-04-25T15:36:12Z</time></trkpt><trkpt lat="44.543103810811196" lon="9.29828934468501"><ele>787.0</ele><time>2026-04-25T15:36:13Z</time></trkpt><trkpt lat="44.54298118609801" lon="9.298438325150611"><ele>787.0</ele><time>2026-04-25T15:36:14Z</time></trkpt><trkpt lat="44.54285523508331" lon="9.298602529677737"><ele>791.4000000000001</ele><time>2026-04-25T15:36:15Z</time></trkpt><trkpt lat="44.542746184384846" lon="9.298738334042497"><ele>795.8000000000001</ele><time>2026-04-25T15:36:16Z</time></trkpt><trkpt lat="44.542676601671936" lon="9.298848404739926"><ele>800.2</ele><time>2026-04-25T15:36:17Z</time></trkpt><trkpt lat="44.54263755777003" lon="9.298922277038237"><ele>804.6</ele><time>2026-04-25T15:36:18Z</time></trkpt><trkpt lat="44.54263388060369" lon="9.299038452068013"><ele>809.0</ele><time>2026-04-25T15:36:19Z</time></trkpt><trkpt lat="44.542704744598815" lon="9.299170739419825"><ele>809.0</ele><time>2026-04-25T15:36:20Z</time></trkpt><trkpt lat="44.54275760051879" lon="9.299331880083294"><ele>809.0</ele><time>2026-04-25T15:36:21Z</time></trkpt><trkpt lat="44.54281262923108" lon="9.299500247496063"><ele>809.0</ele><time>2026-04-25T15:36:22Z</time></trkpt><trkpt lat="44.54283188095522" lon="9.29967492086823"><ele>809.0</ele><time>2026-04-25T15:36:23Z</time></trkpt><trkpt lat="44.54283239911585" lon="9.299834544364574"><ele>811.25</ele><time>2026-04-25T15:36:24Z</time></trkpt><trkpt lat="44.54285171166704" lon="9.299991571571747"><ele>813.5</ele><time>2026-04-25T15:36:25Z</time></trkpt><trkpt lat="44.54289176181923" lon="9.300152687703314"><ele>815.75</ele><time>2026-04-25T15:36:25.999Z</time></trkpt><trkpt lat="44.54292054994451" lon="9.300329915638184"><ele>818.0</ele><time>2026-04-25T15:36:26.999Z</time></trkpt><trkpt lat="44.542928921492674" lon="9.300523806315141"><ele>812.25</ele><time>2026-04-25T15:36:27.999Z</time></trkpt><trkpt lat="44.54294359782838" lon="9.30075364891341"><ele>806.5</ele><time>2026-04-25T15:36:28.999Z</time></trkpt><trkpt lat="44.542961028853824" lon="9.300957077481213"><ele>800.75</ele><time>2026-04-25T15:36:29.999Z</time></trkpt><trkpt lat="44.54295867116198" lon="9.301125557175725"><ele>795.0</ele><time>2026-04-25T15:36:30.999Z</time></trkpt><trkpt lat="44.54293228943665" lon="9.301264324155804"><ele>801.6</ele><time>2026-04-25T15:36:31.999Z</time></trkpt><trkpt lat="44.54285796345681" lon="9.301368181532284"><ele>808.2</ele><time>2026-04-25T15:36:32.999Z</time></trkpt><trkpt lat="44.54281321369375" lon="9.301479123413365"><ele>814.8</ele><time>2026-04-25T15:36:33.999Z</time></trkpt><trkpt lat="44.54279112677599" lon="9.301586183092907"><ele>821.4</ele><time>2026-04-25T15:36:34.999Z</time></trkpt><trkpt lat="44.54277884662651" lon="9.301745495935227"><ele>828.0</ele><time>2026-04-25T15:36:36.999Z</time></trkpt><trkpt lat="44.54286974341627" lon="9.301889929065743"><ele>825.6666666666666</ele><time>2026-04-25T15:36:38.999Z</time></trkpt><trkpt lat="44.542931153100916" lon="9.301958756526803"><ele>823.3333333333333</ele><time>2026-04-25T15:36:39.999Z</time></trkpt><trkpt lat="44.54299452113358" lon="9.30203681955472"><ele>821.0</ele><time>2026-04-25T15:36:40.999Z</time></trkpt><trkpt lat="44.54305073758573" lon="9.302116719599615"><ele>818.6666666666666</ele><time>2026-04-25T15:36:41.999Z</time></trkpt><trkpt lat="44.54308923529941" lon="9.302198630212361"><ele>816.3333333333333</ele><time>2026-04-25T15:36:42.999Z</time></trkpt><trkpt lat="44.543089623550294" lon="9.302310218861082"><ele>814.0</ele><time>2026-04-25T15:36:43.999Z</time></trkpt><trkpt lat="44.543117453317585" lon="9.302445307388197"><ele>814.0</ele><time>2026-04-25T15:36:44.999Z</time></trkpt><trkpt lat="44.543156774495685" lon="9.30258161939915"><ele>814.0</ele><time>2026-04-25T15:36:45.999Z</time></trkpt><trkpt lat="44.543227517526056" lon="9.302704956602387"><ele>814.0</ele><time>2026-04-25T15:36:46.999Z</time></trkpt><trkpt lat="44.54331249692328" lon="9.302805583118703"><ele>814.0</ele><time>2026-04-25T15:36:47.999Z</time></trkpt><trkpt lat="44.543374862772495" lon="9.30289931760839"><ele>814.0</ele><time>2026-04-25T15:36:48.999Z</time></trkpt><trkpt lat="44.54342402646601" lon="9.302990822325084"><ele>814.0</ele><time>2026-04-25T15:36:49.999Z</time></trkpt><trkpt lat="44.54344148193516" lon="9.303078231852293"><ele>814.0</ele><time>2026-04-25T15:36:50.999Z</time></trkpt><trkpt lat="44.54343944359825" lon="9.303167121345743"><ele>814.0</ele><time>2026-04-25T15:36:51.999Z</time></trkpt><trkpt lat="44.54340475185882" lon="9.303287333385148"><ele>814.0</ele><time>2026-04-25T15:36:53.999Z</time></trkpt><trkpt lat="44.54326722608912" lon="9.303204578140386"><ele>814.0</ele><time>2026-04-25T15:36:58Z</time></trkpt><trkpt lat="44.54322258798119" lon="9.303110526610778"><ele>814.0</ele><time>2026-04-25T15:36:59Z</time></trkpt><trkpt lat="44.54315266769635" lon="9.302990850889529"><ele>814.0</ele><time>2026-04-25T15:37:00Z</time></trkpt><trkpt lat="44.54307620611212" lon="9.302873300667626"><ele>814.0</ele><time>2026-04-25T15:37:01Z</time></trkpt><trkpt lat="44.54301819548356" lon="9.30274737455766"><ele>814.0</ele><time>2026-04-25T15:37:02Z</time></trkpt><trkpt lat="44.54300975918876" lon="9.302598725295367"><ele>814.0</ele><time>2026-04-25T15:37:03Z</time></trkpt><trkpt lat="44.542979787613234" lon="9.302467282567177"><ele>813.9999999999999</ele><time>2026-04-25T15:37:04Z</time></trkpt><trkpt lat="44.542959951636064" lon="9.302353549701179"><ele>814.0</ele><time>2026-04-25T15:37:05Z</time></trkpt><trkpt lat="44.54292287635782" lon="9.302257328054601"><ele>814.0</ele><time>2026-04-25T15:37:06Z</time></trkpt><trkpt lat="44.54287170735303" lon="9.302176889547532"><ele>814.0</ele><time>2026-04-25T15:37:07Z</time></trkpt><trkpt lat="44.54280358610627" lon="9.302108209660531"><ele>813.9999999999999</ele><time>2026-04-25T15:37:08Z</time></trkpt><trkpt lat="44.542721079525684" lon="9.302067450594185"><ele>814.0</ele><time>2026-04-25T15:37:09Z</time></trkpt><trkpt lat="44.542639960742875" lon="9.302046839487806"><ele>816.9999999999999</ele><time>2026-04-25T15:37:10Z</time></trkpt><trkpt lat="44.542552963797306" lon="9.30205339355046"><ele>820.0</ele><time>2026-04-25T15:37:11Z</time></trkpt><trkpt lat="44.54245287630757" lon="9.302088992921634"><ele>823.0</ele><time>2026-04-25T15:37:12Z</time></trkpt><trkpt lat="44.542368002992134" lon="9.302117244111118"><ele>826.0</ele><time>2026-04-25T15:37:13Z</time></trkpt><trkpt lat="44.54229958251004" lon="9.302078959461978"><ele>828.9999999999999</ele><time>2026-04-25T15:37:14Z</time></trkpt><trkpt lat="44.542255955643114" lon="9.301981788773665"><ele>832.0</ele><time>2026-04-25T15:37:15Z</time></trkpt><trkpt lat="44.54224935409671" lon="9.301874627616654"><ele>832.0</ele><time>2026-04-25T15:37:16Z</time></trkpt><trkpt lat="44.542285548633636" lon="9.301769020290688"><ele>832.0</ele><time>2026-04-25T15:37:17Z</time></trkpt><trkpt lat="44.5423691675013" lon="9.30171517763628"><ele>832.0</ele><time>2026-04-25T15:37:18Z</time></trkpt><trkpt lat="44.542421203537465" lon="9.301616908301813"><ele>832.0</ele><time>2026-04-25T15:37:19Z</time></trkpt><trkpt lat="44.54246590026826" lon="9.301456599930631"><ele>832.0</ele><time>2026-04-25T15:37:21Z</time></trkpt><trkpt lat="44.542451605860435" lon="9.301341141417334"><ele>831.3333333333333</ele><time>2026-04-25T15:37:22Z</time></trkpt><trkpt lat="44.542418769903534" lon="9.301226258521332"><ele>830.6666666666666</ele><time>2026-04-25T15:37:23Z</time></trkpt><trkpt lat="44.54237618025545" lon="9.301138084046991"><ele>830.0</ele><time>2026-04-25T15:37:24Z</time></trkpt><trkpt lat="44.54230881537053" lon="9.301079998715727"><ele>829.3333333333333</ele><time>2026-04-25T15:37:25Z</time></trkpt><trkpt lat="44.54222372576626" lon="9.301071408842981"><ele>828.6666666666666</ele><time>2026-04-25T15:37:26Z</time></trkpt><trkpt lat="44.5421191215853" lon="9.301090816620663"><ele>828.0</ele><time>2026-04-25T15:37:27Z</time></trkpt><trkpt lat="44.5420002405962" lon="9.301112534247853"><ele>831.2</ele><time>2026-04-25T15:37:28Z</time></trkpt><trkpt lat="44.54189123191197" lon="9.301110388866594"><ele>834.4</ele><time>2026-04-25T15:37:29Z</time></trkpt><trkpt lat="44.54181068564284" lon="9.301114023232044"><ele>837.6</ele><time>2026-04-25T15:37:30Z</time></trkpt><trkpt lat="44.541707382754694" lon="9.301063180141728"><ele>840.8000000000001</ele><time>2026-04-25T15:37:32Z</time></trkpt><trkpt lat="44.54171341707416" lon="9.300891065273596"><ele>844.0</ele><time>2026-04-25T15:37:34Z</time></trkpt><trkpt lat="44.54173563065844" lon="9.300780347619721"><ele>844.0</ele><time>2026-04-25T15:37:35Z</time></trkpt><trkpt lat="44.54173081232958" lon="9.300631428581442"><ele>844.0</ele><time>2026-04-25T15:37:36Z</time></trkpt><trkpt lat="44.54171679938685" lon="9.300461394528943"><ele>844.0</ele><time>2026-04-25T15:37:37Z</time></trkpt><trkpt lat="44.54169231201579" lon="9.300272276702588"><ele>844.0</ele><time>2026-04-25T15:37:38Z</time></trkpt><trkpt lat="44.541688142782256" lon="9.300099089385723"><ele>844.25</ele><time>2026-04-25T15:37:39Z</time></trkpt><trkpt lat="44.54166451908893" lon="9.299930580781478"><ele>844.5</ele><time>2026-04-25T15:37:40Z</time></trkpt><trkpt lat="44.54164022573642" lon="9.299746743769013"><ele>844.75</ele><time>2026-04-25T15:37:41Z</time></trkpt><trkpt lat="44.54161359106172" lon="9.299549236889684"><ele>845.0</ele><time>2026-04-25T15:37:42Z</time></trkpt><trkpt lat="44.54159727520629" lon="9.299350363327092"><ele>846.0</ele><time>2026-04-25T15:37:43Z</time></trkpt><trkpt lat="44.54158198092888" lon="9.2991686743968"><ele>847.0</ele><time>2026-04-25T15:37:44Z</time></trkpt><trkpt lat="44.54156285561257" lon="9.298992913937743"><ele>848.0</ele><time>2026-04-25T15:37:45Z</time></trkpt><trkpt lat="44.54155221507269" lon="9.298840657643312"><ele>849.0</ele><time>2026-04-25T15:37:46Z</time></trkpt><trkpt lat="44.541561406476674" lon="9.298705100805686"><ele>850.75</ele><time>2026-04-25T15:37:47Z</time></trkpt><trkpt lat="44.54160743525248" lon="9.298545265464195"><ele>852.5</ele><time>2026-04-25T15:37:48Z</time></trkpt><trkpt lat="44.54164739352048" lon="9.298384868777928"><ele>854.25</ele><time>2026-04-25T15:37:49Z</time></trkpt><trkpt lat="44.541678987972304" lon="9.298203241291073"><ele>856.0</ele><time>2026-04-25T15:37:50Z</time></trkpt><trkpt lat="44.54170882187238" lon="9.298036341359666"><ele>856.9999999999999</ele><time>2026-04-25T15:37:51Z</time></trkpt><trkpt lat="44.54173560459885" lon="9.297894902314495"><ele>858.0</ele><time>2026-04-25T15:37:52Z</time></trkpt><trkpt lat="44.541758450254676" lon="9.29777020568982"><ele>859.0</ele><time>2026-04-25T15:37:53Z</time></trkpt><trkpt lat="44.54176855974068" lon="9.297664043202673"><ele>860.0</ele><time>2026-04-25T15:37:54Z</time></trkpt><trkpt lat="44.541767631041296" lon="9.297551195337505"><ele>860.9999999999999</ele><time>2026-04-25T15:37:55Z</time></trkpt><trkpt lat="44.54174989491177" lon="9.29743676343322"><ele>862.0</ele><time>2026-04-25T15:37:56Z</time></trkpt><trkpt lat="44.54172189957611" lon="9.297313587426768"><ele>862.4999999999999</ele><time>2026-04-25T15:37:57Z</time></trkpt><trkpt lat="44.54169331605051" lon="9.29720344593512"><ele>863.0</ele><time>2026-04-25T15:37:58Z</time></trkpt><trkpt lat="44.5416722173798" lon="9.29709269587832"><ele>863.5</ele><time>2026-04-25T15:37:59Z</time></trkpt><trkpt lat="44.54167204858548" lon="9.296983354182798"><ele>864.0</ele><time>2026-04-25T15:38:00Z</time></trkpt><trkpt lat="44.54169578900258" lon="9.296882976911222"><ele>864.4999999999999</ele><time>2026-04-25T15:38:01Z</time></trkpt><trkpt lat="44.54172637218748" lon="9.296784692984478"><ele>865.0</ele><time>2026-04-25T15:38:02Z</time></trkpt><trkpt lat="44.54173992975319" lon="9.29666369313266"><ele>865.0</ele><time>2026-04-25T15:38:03Z</time></trkpt><trkpt lat="44.54173244983021" lon="9.296516513406397"><ele>865.0</ele><time>2026-04-25T15:38:04Z</time></trkpt><trkpt lat="44.54171777260368" lon="9.296339626320401"><ele>865.0</ele><time>2026-04-25T15:38:05Z</time></trkpt><trkpt lat="44.54171649641374" lon="9.296141022702605"><ele>865.0</ele><time>2026-04-25T15:38:06Z</time></trkpt><trkpt lat="44.54171591512401" lon="9.295925825338097"><ele>865.5</ele><time>2026-04-25T15:38:07Z</time></trkpt><trkpt lat="44.541710661724856" lon="9.29571681686365"><ele>866.0</ele><time>2026-04-25T15:38:08Z</time></trkpt><trkpt lat="44.54170990124352" lon="9.295528152545304"><ele>866.5</ele><time>2026-04-25T15:38:09Z</time></trkpt><trkpt lat="44.54171049921824" lon="9.295349764361712"><ele>867.0</ele><time>2026-04-25T15:38:10Z</time></trkpt><trkpt lat="44.541711964789684" lon="9.29518084472504"><ele>866.3333333333334</ele><time>2026-04-25T15:38:11Z</time></trkpt><trkpt lat="44.541713297031926" lon="9.295023008362582"><ele>865.6666666666667</ele><time>2026-04-25T15:38:12Z</time></trkpt><trkpt lat="44.54171082958618" lon="9.294890751479521"><ele>865.0</ele><time>2026-04-25T15:38:13Z</time></trkpt><trkpt lat="44.541707174525044" lon="9.294787725997802"><ele>864.3333333333334</ele><time>2026-04-25T15:38:14Z</time></trkpt><trkpt lat="44.54168905440046" lon="9.29469510836835"><ele>863.6666666666667</ele><time>2026-04-25T15:38:15Z</time></trkpt><trkpt lat="44.54165601146165" lon="9.2946122695169"><ele>863.0</ele><time>2026-04-25T15:38:16Z</time></trkpt><trkpt lat="44.541608032704964" lon="9.294549342105825"><ele>863.0000000000001</ele><time>2026-04-25T15:38:17Z</time></trkpt><trkpt lat="44.541491072647496" lon="9.294494643255645"><ele>863.0</ele><time>2026-04-25T15:38:19Z</time></trkpt><trkpt lat="44.54142418353062" lon="9.294490790821955"><ele>863.0</ele><time>2026-04-25T15:38:20Z</time></trkpt><trkpt lat="44.54135467761788" lon="9.294502723343289"><ele>863.0</ele><time>2026-04-25T15:38:21Z</time></trkpt><trkpt lat="44.5412908441174" lon="9.294547712267097"><ele>863.0000000000001</ele><time>2026-04-25T15:38:22Z</time></trkpt><trkpt lat="44.54121511867606" lon="9.294601902484818"><ele>863.0</ele><time>2026-04-25T15:38:23Z</time></trkpt><trkpt lat="44.541138078608746" lon="9.294695830541619"><ele>862.5</ele><time>2026-04-25T15:38:24Z</time></trkpt><trkpt lat="44.54106071639346" lon="9.294816940332849"><ele>862.0</ele><time>2026-04-25T15:38:25Z</time></trkpt><trkpt lat="44.54095997873721" lon="9.294912145802414"><ele>861.5</ele><time>2026-04-25T15:38:26Z</time></trkpt><trkpt lat="44.54084820491948" lon="9.294964634471528"><ele>861.0</ele><time>2026-04-25T15:38:27Z</time></trkpt><trkpt lat="44.54075019259831" lon="9.295051818814745"><ele>861.0</ele><time>2026-04-25T15:38:28Z</time></trkpt><trkpt lat="44.54066563933869" lon="9.29513556114372"><ele>861.0</ele><time>2026-04-25T15:38:29Z</time></trkpt><trkpt lat="44.54059438495704" lon="9.29518322742451"><ele>861.0</ele><time>2026-04-25T15:38:30Z</time></trkpt><trkpt lat="44.540527106187106" lon="9.295200113952406"><ele>861.0</ele><time>2026-04-25T15:38:31Z</time></trkpt><trkpt lat="44.54046747903888" lon="9.295116123916694"><ele>861.0</ele><time>2026-04-25T15:38:32Z</time></trkpt><trkpt lat="44.54039361504986" lon="9.29504253441569"><ele>861.0</ele><time>2026-04-25T15:38:33Z</time></trkpt><trkpt lat="44.54031515292536" lon="9.294948656529781"><ele>859.5999999999999</ele><time>2026-04-25T15:38:34Z</time></trkpt><trkpt lat="44.540224973218166" lon="9.294857420908215"><ele>858.1999999999999</ele><time>2026-04-25T15:38:35Z</time></trkpt><trkpt lat="44.540147563440115" lon="9.294750650776606"><ele>856.8000000000001</ele><time>2026-04-25T15:38:36Z</time></trkpt><trkpt lat="44.540081390235315" lon="9.294655155848217"><ele>855.4000000000001</ele><time>2026-04-25T15:38:37Z</time></trkpt><trkpt lat="44.540018717306246" lon="9.294595771413663"><ele>854.0</ele><time>2026-04-25T15:38:38Z</time></trkpt><trkpt lat="44.53995573053091" lon="9.294581787573293"><ele>854.0000000000001</ele><time>2026-04-25T15:38:39Z</time></trkpt><trkpt lat="44.53989591642719" lon="9.294612428501908"><ele>854.0</ele><time>2026-04-25T15:38:40Z</time></trkpt><trkpt lat="44.539847583068756" lon="9.29468852758083"><ele>854.0</ele><time>2026-04-25T15:38:41Z</time></trkpt><trkpt lat="44.539820320881375" lon="9.294795722217419"><ele>854.0</ele><time>2026-04-25T15:38:42Z</time></trkpt><trkpt lat="44.53979999061829" lon="9.294899494355125"><ele>854.0000000000001</ele><time>2026-04-25T15:38:43Z</time></trkpt><trkpt lat="44.539856068133865" lon="9.295009188879073"><ele>854.0</ele><time>2026-04-25T15:38:44Z</time></trkpt><trkpt lat="44.53989242242724" lon="9.295135456346587"><ele>854.0000000000001</ele><time>2026-04-25T15:38:45Z</time></trkpt><trkpt lat="44.53992108567146" lon="9.295242864916103"><ele>854.0</ele><time>2026-04-25T15:38:46Z</time></trkpt><trkpt lat="44.539922764310944" lon="9.29535364941639"><ele>854.0</ele><time>2026-04-25T15:38:47Z</time></trkpt><trkpt lat="44.53991440801936" lon="9.29547633196435"><ele>854.0</ele><time>2026-04-25T15:38:48Z</time></trkpt><trkpt lat="44.5398574488686" lon="9.29558602450676"><ele>854.0000000000001</ele><time>2026-04-25T15:38:48.999Z</time></trkpt><trkpt lat="44.53980130596421" lon="9.295703764240471"><ele>854.0</ele><time>2026-04-25T15:38:49.999Z</time></trkpt><trkpt lat="44.539748836476384" lon="9.295850932536256"><ele>854.4000000000001</ele><time>2026-04-25T15:38:50.999Z</time></trkpt><trkpt lat="44.539674994411875" lon="9.295982645245765"><ele>854.8000000000001</ele><time>2026-04-25T15:38:51.999Z</time></trkpt><trkpt lat="44.53962951203291" lon="9.29613113671521"><ele>855.1999999999999</ele><time>2026-04-25T15:38:52.999Z</time></trkpt><trkpt lat="44.53959348374627" lon="9.296274212790372"><ele>855.5999999999999</ele><time>2026-04-25T15:38:53.999Z</time></trkpt><trkpt lat="44.539542916553074" lon="9.296400286656548"><ele>856.0</ele><time>2026-04-25T15:38:54.999Z</time></trkpt><trkpt lat="44.53946670286954" lon="9.296503942471192"><ele>855.9999999999999</ele><time>2026-04-25T15:38:55.999Z</time></trkpt><trkpt lat="44.53940067444178" lon="9.296598393161146"><ele>856.0</ele><time>2026-04-25T15:38:56.999Z</time></trkpt><trkpt lat="44.53933879394442" lon="9.296676193410795"><ele>856.0</ele><time>2026-04-25T15:38:57.999Z</time></trkpt><trkpt lat="44.53925581680526" lon="9.296692945236243"><ele>856.0</ele><time>2026-04-25T15:38:58.999Z</time></trkpt><trkpt lat="44.5391768250609" lon="9.296663184301464"><ele>855.9999999999999</ele><time>2026-04-25T15:38:59.999Z</time></trkpt><trkpt lat="44.53910695758607" lon="9.2965843319428"><ele>856.0</ele><time>2026-04-25T15:39:00.999Z</time></trkpt><trkpt lat="44.53905228553505" lon="9.29646823121943"><ele>854.4999999999999</ele><time>2026-04-25T15:39:02Z</time></trkpt><trkpt lat="44.5389937527634" lon="9.296379874969796"><ele>853.0</ele><time>2026-04-25T15:39:03Z</time></trkpt><trkpt lat="44.53892164926641" lon="9.296325677965594"><ele>851.5</ele><time>2026-04-25T15:39:04Z</time></trkpt><trkpt lat="44.538834523887495" lon="9.296313959055368"><ele>850.0</ele><time>2026-04-25T15:39:05Z</time></trkpt><trkpt lat="44.5387495868514" lon="9.296328655124116"><ele>848.4999999999999</ele><time>2026-04-25T15:39:06Z</time></trkpt><trkpt lat="44.538668557514455" lon="9.296382362280598"><ele>847.0</ele><time>2026-04-25T15:39:07Z</time></trkpt><trkpt lat="44.538591070317416" lon="9.296466207081796"><ele>847.0</ele><time>2026-04-25T15:39:08Z</time></trkpt><trkpt lat="44.538501666569395" lon="9.296537997334505"><ele>847.0</ele><time>2026-04-25T15:39:09Z</time></trkpt><trkpt lat="44.5384048395487" lon="9.296572035891872"><ele>847.0</ele><time>2026-04-25T15:39:10Z</time></trkpt><trkpt lat="44.53830349946484" lon="9.296577017350605"><ele>847.0</ele><time>2026-04-25T15:39:11Z</time></trkpt><trkpt lat="44.538208094521714" lon="9.296541376565804"><ele>847.0</ele><time>2026-04-25T15:39:12Z</time></trkpt><trkpt lat="44.53811541804638" lon="9.296563899664255"><ele>846.9999999999999</ele><time>2026-04-25T15:39:13Z</time></trkpt><trkpt lat="44.53803323622288" lon="9.29659843973148"><ele>847.0</ele><time>2026-04-25T15:39:14Z</time></trkpt><trkpt lat="44.53797122498113" lon="9.296661879498373"><ele>847.0</ele><time>2026-04-25T15:39:15Z</time></trkpt><trkpt lat="44.5379318213255" lon="9.29674139247671"><ele>847.0</ele><time>2026-04-25T15:39:16Z</time></trkpt><trkpt lat="44.537940465014046" lon="9.29691195088557"><ele>846.9999999999999</ele><time>2026-04-25T15:39:18Z</time></trkpt><trkpt lat="44.537951796522925" lon="9.297020090321567"><ele>847.0</ele><time>2026-04-25T15:39:18.999Z</time></trkpt><trkpt lat="44.537937495766606" lon="9.297127031349824"><ele>847.0</ele><time>2026-04-25T15:39:19.999Z</time></trkpt><trkpt lat="44.53789375530331" lon="9.297240945695266"><ele>847.0</ele><time>2026-04-25T15:39:20.999Z</time></trkpt><trkpt lat="44.537847390709466" lon="9.297362082305263"><ele>847.0</ele><time>2026-04-25T15:39:21.999Z</time></trkpt><trkpt lat="44.53782198279358" lon="9.297491231999471"><ele>847.0</ele><time>2026-04-25T15:39:22.999Z</time></trkpt><trkpt lat="44.537822924552856" lon="9.297632584037002"><ele>847.0</ele><time>2026-04-25T15:39:23.998Z</time></trkpt><trkpt lat="44.537802497561344" lon="9.297770883374135"><ele>849.0</ele><time>2026-04-25T15:39:24.998Z</time></trkpt><trkpt lat="44.537738168873105" lon="9.297905429305898"><ele>851.0</ele><time>2026-04-25T15:39:25.998Z</time></trkpt><trkpt lat="44.53764159774726" lon="9.298007412747278"><ele>853.0</ele><time>2026-04-25T15:39:26.998Z</time></trkpt><trkpt lat="44.53754531210518" lon="9.298095104502977"><ele>855.0</ele><time>2026-04-25T15:39:27.998Z</time></trkpt><trkpt lat="44.537436592668705" lon="9.298145057446787"><ele>855.0</ele><time>2026-04-25T15:39:28.998Z</time></trkpt><trkpt lat="44.53730848820834" lon="9.298174646453074"><ele>855.0</ele><time>2026-04-25T15:39:29.998Z</time></trkpt><trkpt lat="44.537187204462285" lon="9.298207886221958"><ele>855.0</ele><time>2026-04-25T15:39:30.998Z</time></trkpt><trkpt lat="44.53708118484122" lon="9.298257265669854"><ele>855.0</ele><time>2026-04-25T15:39:31.997Z</time></trkpt><trkpt lat="44.53698161337195" lon="9.298320540405467"><ele>850.4</ele><time>2026-04-25T15:39:32.997Z</time></trkpt><trkpt lat="44.53688750220901" lon="9.298394387700473"><ele>845.8</ele><time>2026-04-25T15:39:33.997Z</time></trkpt><trkpt lat="44.5367923654111" lon="9.298440888336048"><ele>841.2</ele><time>2026-04-25T15:39:34.997Z</time></trkpt><trkpt lat="44.53670403715276" lon="9.298492542432019"><ele>836.6</ele><time>2026-04-25T15:39:35.997Z</time></trkpt><trkpt lat="44.53662448194971" lon="9.29857997090864"><ele>832.0</ele><time>2026-04-25T15:39:36.997Z</time></trkpt><trkpt lat="44.53654257317042" lon="9.298705113611735"><ele>832.0</ele><time>2026-04-25T15:39:37.997Z</time></trkpt><trkpt lat="44.53645164465481" lon="9.298815328026565"><ele>832.0</ele><time>2026-04-25T15:39:38.997Z</time></trkpt><trkpt lat="44.5363563570166" lon="9.298914756148253"><ele>832.0</ele><time>2026-04-25T15:39:39.997Z</time></trkpt><trkpt lat="44.536264234194036" lon="9.298986331711895"><ele>832.0</ele><time>2026-04-25T15:39:40.997Z</time></trkpt><trkpt lat="44.536172403561146" lon="9.29901653228344"><ele>832.0</ele><time>2026-04-25T15:39:41.997Z</time></trkpt><trkpt lat="44.53609445139548" lon="9.298975620596082"><ele>830.8</ele><time>2026-04-25T15:39:42.997Z</time></trkpt><trkpt lat="44.53599183915194" lon="9.298950680415366"><ele>829.6</ele><time>2026-04-25T15:39:43.997Z</time></trkpt><trkpt lat="44.535885321810646" lon="9.298958532532856"><ele>828.4</ele><time>2026-04-25T15:39:44.997Z</time></trkpt><trkpt lat="44.535770602520486" lon="9.298940735420995"><ele>827.1999999999999</ele><time>2026-04-25T15:39:45.997Z</time></trkpt><trkpt lat="44.535653028006315" lon="9.298888661175667"><ele>826.0</ele><time>2026-04-25T15:39:46.997Z</time></trkpt><trkpt lat="44.53553203622293" lon="9.298833481262166"><ele>826.0</ele><time>2026-04-25T15:39:47.997Z</time></trkpt><trkpt lat="44.53540324813062" lon="9.298790006887742"><ele>826.0</ele><time>2026-04-25T15:39:48.996Z</time></trkpt><trkpt lat="44.53529126407665" lon="9.298746664679673"><ele>826.0</ele><time>2026-04-25T15:39:49.996Z</time></trkpt><trkpt lat="44.535193810145635" lon="9.29871271594602"><ele>826.0</ele><time>2026-04-25T15:39:50.996Z</time></trkpt><trkpt lat="44.53510168445901" lon="9.29871189479758"><ele>826.0</ele><time>2026-04-25T15:39:51.996Z</time></trkpt><trkpt lat="44.53502072919167" lon="9.298750855249903"><ele>824.8</ele><time>2026-04-25T15:39:52.996Z</time></trkpt><trkpt lat="44.53495658809244" lon="9.298825476910869"><ele>823.5999999999999</ele><time>2026-04-25T15:39:53.996Z</time></trkpt><trkpt lat="44.53488735846975" lon="9.298930904259802"><ele>822.4</ele><time>2026-04-25T15:39:54.996Z</time></trkpt><trkpt lat="44.53480246179511" lon="9.299035293095864"><ele>821.2</ele><time>2026-04-25T15:39:55.996Z</time></trkpt><trkpt lat="44.53469356628986" lon="9.299116605260526"><ele>820.0</ele><time>2026-04-25T15:39:56.996Z</time></trkpt><trkpt lat="44.53457484777666" lon="9.299179273690555"><ele>819.4</ele><time>2026-04-25T15:39:57.996Z</time></trkpt><trkpt lat="44.53447636343922" lon="9.299247789887497"><ele>818.8</ele><time>2026-04-25T15:39:58.996Z</time></trkpt><trkpt lat="44.53439513249445" lon="9.299340089923511"><ele>818.2</ele><time>2026-04-25T15:39:59.996Z</time></trkpt><trkpt lat="44.53432781639655" lon="9.299458889553287"><ele>817.6</ele><time>2026-04-25T15:40:00.996Z</time></trkpt><trkpt lat="44.534279964239246" lon="9.299605564215252"><ele>817.0</ele><time>2026-04-25T15:40:01.996Z</time></trkpt><trkpt lat="44.53423274897511" lon="9.29975685409618"><ele>819.8</ele><time>2026-04-25T15:40:02.996Z</time></trkpt><trkpt lat="44.53417950100343" lon="9.299914399763928"><ele>822.6</ele><time>2026-04-25T15:40:03.996Z</time></trkpt><trkpt lat="44.53412955469049" lon="9.30005116686065"><ele>825.4</ele><time>2026-04-25T15:40:04.996Z</time></trkpt><trkpt lat="44.53408879503091" lon="9.300182126377376"><ele>828.1999999999999</ele><time>2026-04-25T15:40:05.996Z</time></trkpt><trkpt lat="44.5340617071484" lon="9.300318589017683"><ele>831.0</ele><time>2026-04-25T15:40:06.996Z</time></trkpt><trkpt lat="44.53404755036384" lon="9.300456447890738"><ele>832.5999999999999</ele><time>2026-04-25T15:40:07.996Z</time></trkpt><trkpt lat="44.534034375788764" lon="9.300596852426802"><ele>834.2</ele><time>2026-04-25T15:40:08.996Z</time></trkpt><trkpt lat="44.53402094997945" lon="9.300733587882243"><ele>835.8</ele><time>2026-04-25T15:40:09.996Z</time></trkpt><trkpt lat="44.53400019265002" lon="9.300860176495387"><ele>837.4000000000001</ele><time>2026-04-25T15:40:10.996Z</time></trkpt><trkpt lat="44.53396945076685" lon="9.300969713964179"><ele>839.0</ele><time>2026-04-25T15:40:11.996Z</time></trkpt><trkpt lat="44.53395548182569" lon="9.301081207935106"><ele>839.0000000000001</ele><time>2026-04-25T15:40:12.996Z</time></trkpt><trkpt lat="44.53394936135288" lon="9.301180642911019"><ele>839.0</ele><time>2026-04-25T15:40:13.996Z</time></trkpt><trkpt lat="44.53398447749916" lon="9.301288412700004"><ele>839.0</ele><time>2026-04-25T15:40:14.996Z</time></trkpt><trkpt lat="44.53401058442048" lon="9.301403219133723"><ele>839.0</ele><time>2026-04-25T15:40:15.996Z</time></trkpt><trkpt lat="44.53401289194015" lon="9.301534660743984"><ele>839.0000000000001</ele><time>2026-04-25T15:40:16.996Z</time></trkpt><trkpt lat="44.53401055391991" lon="9.30166976889145"><ele>839.0</ele><time>2026-04-25T15:40:17.996Z</time></trkpt><trkpt lat="44.53399800146824" lon="9.3017988705767"><ele>839.5000000000001</ele><time>2026-04-25T15:40:18.996Z</time></trkpt><trkpt lat="44.53398465283824" lon="9.301920203049335"><ele>840.0</ele><time>2026-04-25T15:40:19.996Z</time></trkpt><trkpt lat="44.533977902490115" lon="9.302029404330353"><ele>840.5</ele><time>2026-04-25T15:40:20.996Z</time></trkpt><trkpt lat="44.53397705392135" lon="9.302143947357393"><ele>841.0</ele><time>2026-04-25T15:40:21.996Z</time></trkpt><trkpt lat="44.53401374780979" lon="9.302252291758062"><ele>841.5000000000001</ele><time>2026-04-25T15:40:22.996Z</time></trkpt><trkpt lat="44.534061737518385" lon="9.302356439563122"><ele>842.0</ele><time>2026-04-25T15:40:23.996Z</time></trkpt><trkpt lat="44.534093329697996" lon="9.302476996411704"><ele>842.3333333333334</ele><time>2026-04-25T15:40:24.996Z</time></trkpt><trkpt lat="44.534110836673314" lon="9.30258470118635"><ele>842.6666666666667</ele><time>2026-04-25T15:40:25.996Z</time></trkpt><trkpt lat="44.534108444300834" lon="9.302691997544558"><ele>843.0</ele><time>2026-04-25T15:40:26.996Z</time></trkpt><trkpt lat="44.53408931795699" lon="9.302794920002203"><ele>843.3333333333333</ele><time>2026-04-25T15:40:27.996Z</time></trkpt><trkpt lat="44.53404868710722" lon="9.302889722559865"><ele>843.6666666666666</ele><time>2026-04-25T15:40:28.996Z</time></trkpt><trkpt lat="44.5339967081333" lon="9.302977086143722"><ele>844.0</ele><time>2026-04-25T15:40:29.996Z</time></trkpt><trkpt lat="44.53392379163602" lon="9.303057758971903"><ele>841.4000000000001</ele><time>2026-04-25T15:40:30.996Z</time></trkpt><trkpt lat="44.5338440732694" lon="9.30315457727975"><ele>838.8</ele><time>2026-04-25T15:40:31.996Z</time></trkpt><trkpt lat="44.53375601641963" lon="9.303245035170272"><ele>836.2</ele><time>2026-04-25T15:40:32.996Z</time></trkpt><trkpt lat="44.53366084234895" lon="9.30332048100415"><ele>833.5999999999999</ele><time>2026-04-25T15:40:33.996Z</time></trkpt><trkpt lat="44.53356031861422" lon="9.30338016086654"><ele>831.0</ele><time>2026-04-25T15:40:34.996Z</time></trkpt><trkpt lat="44.53345898040428" lon="9.30343423904518"><ele>831.0</ele><time>2026-04-25T15:40:35.996Z</time></trkpt><trkpt lat="44.53336012509185" lon="9.303494048330052"><ele>831.0</ele><time>2026-04-25T15:40:36.996Z</time></trkpt><trkpt lat="44.53326194191596" lon="9.303529559277294"><ele>831.0</ele><time>2026-04-25T15:40:37.996Z</time></trkpt><trkpt lat="44.53316456063844" lon="9.303559507641188"><ele>831.0</ele><time>2026-04-25T15:40:38.996Z</time></trkpt><trkpt lat="44.533080364040046" lon="9.303581515981204"><ele>831.0</ele><time>2026-04-25T15:40:39.996Z</time></trkpt><trkpt lat="44.53301645190351" lon="9.303627753852748"><ele>831.0</ele><time>2026-04-25T15:40:40.996Z</time></trkpt><trkpt lat="44.5329738775183" lon="9.303699593442095"><ele>831.0</ele><time>2026-04-25T15:40:41.996Z</time></trkpt><trkpt lat="44.5329510368677" lon="9.303789506235319"><ele>831.0</ele><time>2026-04-25T15:40:42.996Z</time></trkpt><trkpt lat="44.532940075896136" lon="9.303892294604962"><ele>831.0</ele><time>2026-04-25T15:40:43.996Z</time></trkpt><trkpt lat="44.53293962826155" lon="9.304003069922626"><ele>831.0</ele><time>2026-04-25T15:40:44.996Z</time></trkpt><trkpt lat="44.53292409937468" lon="9.304112370266958"><ele>831.0</ele><time>2026-04-25T15:40:45.996Z</time></trkpt><trkpt lat="44.53294632970171" lon="9.304228142218697"><ele>828.6666666666666</ele><time>2026-04-25T15:40:46.996Z</time></trkpt><trkpt lat="44.532934408405396" lon="9.304346330204304"><ele>826.3333333333333</ele><time>2026-04-25T15:40:47.996Z</time></trkpt><trkpt lat="44.53293181114428" lon="9.30446067309327"><ele>824.0</ele><time>2026-04-25T15:40:48.996Z</time></trkpt><trkpt lat="44.53291356902513" lon="9.30457668613344"><ele>821.6666666666666</ele><time>2026-04-25T15:40:49.996Z</time></trkpt><trkpt lat="44.532866797805504" lon="9.304682912282958"><ele>819.3333333333333</ele><time>2026-04-25T15:40:50.996Z</time></trkpt><trkpt lat="44.5328182386705" lon="9.304794787229433"><ele>817.0</ele><time>2026-04-25T15:40:51.996Z</time></trkpt><trkpt lat="44.532764400970564" lon="9.304892325247215"><ele>822.1666666666666</ele><time>2026-04-25T15:40:52.996Z</time></trkpt><trkpt lat="44.53269437626819" lon="9.304964351993814"><ele>827.3333333333333</ele><time>2026-04-25T15:40:53.996Z</time></trkpt><trkpt lat="44.53261579201323" lon="9.30503776843896"><ele>832.5</ele><time>2026-04-25T15:40:54.996Z</time></trkpt><trkpt lat="44.53256320342813" lon="9.305144509606942"><ele>837.6666666666667</ele><time>2026-04-25T15:40:55.996Z</time></trkpt><trkpt lat="44.5325253771498" lon="9.30525170931533"><ele>842.8333333333334</ele><time>2026-04-25T15:40:56.996Z</time></trkpt><trkpt lat="44.53248501422831" lon="9.30532920251077"><ele>848.0</ele><time>2026-04-25T15:40:57.996Z</time></trkpt><trkpt lat="44.53242072017732" lon="9.305359781937824"><ele>848.0000000000001</ele><time>2026-04-25T15:40:58.996Z</time></trkpt><trkpt lat="44.53234359425745" lon="9.305349068304212"><ele>848.0</ele><time>2026-04-25T15:40:59.996Z</time></trkpt><trkpt lat="44.53226496777504" lon="9.305323528088515"><ele>848.0</ele><time>2026-04-25T15:41:00.996Z</time></trkpt><trkpt lat="44.532191391910295" lon="9.305323755475124"><ele>848.0</ele><time>2026-04-25T15:41:01.996Z</time></trkpt><trkpt lat="44.53212146810681" lon="9.305369511636464"><ele>848.0000000000001</ele><time>2026-04-25T15:41:02.996Z</time></trkpt><trkpt lat="44.53206091943678" lon="9.30544779536104"><ele>848.0</ele><time>2026-04-25T15:41:03.996Z</time></trkpt><trkpt lat="44.53200279018642" lon="9.305548656066147"><ele>850.8</ele><time>2026-04-25T15:41:04.996Z</time></trkpt><trkpt lat="44.531940154317134" lon="9.305648962336393"><ele>853.5999999999999</ele><time>2026-04-25T15:41:05.996Z</time></trkpt><trkpt lat="44.531881629407806" lon="9.305755959689412"><ele>856.4000000000001</ele><time>2026-04-25T15:41:06.996Z</time></trkpt><trkpt lat="44.53181861181627" lon="9.305859635388712"><ele>859.2</ele><time>2026-04-25T15:41:07.996Z</time></trkpt><trkpt lat="44.531754690772125" lon="9.305953457393713"><ele>862.0</ele><time>2026-04-25T15:41:08.996Z</time></trkpt><trkpt lat="44.531688183811404" lon="9.306039140348663"><ele>861.9999999999999</ele><time>2026-04-25T15:41:09.996Z</time></trkpt><trkpt lat="44.53161687942199" lon="9.306106748656902"><ele>862.0</ele><time>2026-04-25T15:41:10.996Z</time></trkpt><trkpt lat="44.531535892762406" lon="9.30613616154031"><ele>862.0</ele><time>2026-04-25T15:41:11.997Z</time></trkpt><trkpt lat="44.53146049040534" lon="9.30618148859701"><ele>862.0</ele><time>2026-04-25T15:41:12.997Z</time></trkpt><trkpt lat="44.53138503033671" lon="9.306167479873979"><ele>861.9999999999999</ele><time>2026-04-25T15:41:13.997Z</time></trkpt><trkpt lat="44.531309881153064" lon="9.306110035076761"><ele>862.0</ele><time>2026-04-25T15:41:14.997Z</time></trkpt><trkpt lat="44.531231290306295" lon="9.306032676826153"><ele>864.2</ele><time>2026-04-25T15:41:15.997Z</time></trkpt><trkpt lat="44.531157137370904" lon="9.305948209497119"><ele>866.4000000000001</ele><time>2026-04-25T15:41:16.998Z</time></trkpt><trkpt lat="44.531088413321584" lon="9.305869880686782"><ele>868.5999999999999</ele><time>2026-04-25T15:41:17.998Z</time></trkpt><trkpt lat="44.53102047499738" lon="9.305782622040764"><ele>870.8</ele><time>2026-04-25T15:41:18.998Z</time></trkpt><trkpt lat="44.53095701594917" lon="9.305702443890624"><ele>873.0</ele><time>2026-04-25T15:41:19.998Z</time></trkpt><trkpt lat="44.5308874273743" lon="9.30562380813447"><ele>870.5999999999999</ele><time>2026-04-25T15:41:20.998Z</time></trkpt><trkpt lat="44.53080403091082" lon="9.30556280755264"><ele>868.1999999999999</ele><time>2026-04-25T15:41:21.998Z</time></trkpt><trkpt lat="44.530707060845174" lon="9.30553040126837"><ele>865.8</ele><time>2026-04-25T15:41:22.998Z</time></trkpt><trkpt lat="44.53059705708711" lon="9.30553450967801"><ele>863.4</ele><time>2026-04-25T15:41:23.999Z</time></trkpt><trkpt lat="44.53048830007322" lon="9.305559881990067"><ele>861.0</ele><time>2026-04-25T15:41:24.999Z</time></trkpt><trkpt lat="44.53037991315489" lon="9.305615049556813"><ele>861.0</ele><time>2026-04-25T15:41:25.999Z</time></trkpt><trkpt lat="44.53027897689758" lon="9.305693893847101"><ele>861.0</ele><time>2026-04-25T15:41:26.999Z</time></trkpt><trkpt lat="44.530184287858496" lon="9.305791718270626"><ele>861.0</ele><time>2026-04-25T15:41:27.999Z</time></trkpt><trkpt lat="44.53009413910161" lon="9.305909564216725"><ele>861.0</ele><time>2026-04-25T15:41:28.999Z</time></trkpt><trkpt lat="44.52999886976613" lon="9.306028215278655"><ele>861.0</ele><time>2026-04-25T15:41:29.999Z</time></trkpt><trkpt lat="44.52989810590401" lon="9.306152586361602"><ele>861.0</ele><time>2026-04-25T15:41:30.999Z</time></trkpt><trkpt lat="44.52980387890167" lon="9.306291594889244"><ele>861.0</ele><time>2026-04-25T15:41:31.999Z</time></trkpt><trkpt lat="44.52971770467754" lon="9.306444516151755"><ele>861.0</ele><time>2026-04-25T15:41:32.999Z</time></trkpt><trkpt lat="44.52964308164923" lon="9.306596909576585"><ele>860.5</ele><time>2026-04-25T15:41:33.999Z</time></trkpt><trkpt lat="44.52955728602447" lon="9.306736916993229"><ele>860.0</ele><time>2026-04-25T15:41:34.999Z</time></trkpt><trkpt lat="44.52945004314619" lon="9.306847078850877"><ele>859.5</ele><time>2026-04-25T15:41:35.999Z</time></trkpt><trkpt lat="44.52932801355958" lon="9.30691091337598"><ele>859.0</ele><time>2026-04-25T15:41:36.999Z</time></trkpt><trkpt lat="44.529215907658795" lon="9.306980294758837"><ele>858.9999999999999</ele><time>2026-04-25T15:41:37.999Z</time></trkpt><trkpt lat="44.529120846672676" lon="9.30705768575052"><ele>859.0</ele><time>2026-04-25T15:41:38.999Z</time></trkpt><trkpt lat="44.52904565932708" lon="9.307115692393046"><ele>859.0</ele><time>2026-04-25T15:41:39.999Z</time></trkpt><trkpt lat="44.5290013632403" lon="9.30720120147928"><ele>859.0</ele><time>2026-04-25T15:41:41Z</time></trkpt><trkpt lat="44.52897887082263" lon="9.30730632479008"><ele>858.9999999999999</ele><time>2026-04-25T15:41:42Z</time></trkpt><trkpt lat="44.528979454436524" lon="9.30743503411037"><ele>859.0</ele><time>2026-04-25T15:41:43Z</time></trkpt><trkpt lat="44.52897890657192" lon="9.307581902163214"><ele>865.0</ele><time>2026-04-25T15:41:44Z</time></trkpt><trkpt lat="44.5289601518845" lon="9.307735789356437"><ele>871.0</ele><time>2026-04-25T15:41:45Z</time></trkpt><trkpt lat="44.52893589908743" lon="9.307894123406424"><ele>877.0</ele><time>2026-04-25T15:41:46Z</time></trkpt><trkpt lat="44.528915585332676" lon="9.30805496624535"><ele>883.0</ele><time>2026-04-25T15:41:47Z</time></trkpt><trkpt lat="44.52886865982049" lon="9.3082031238092"><ele>880.5999999999999</ele><time>2026-04-25T15:41:48Z</time></trkpt><trkpt lat="44.52882538928699" lon="9.308338558300402"><ele>878.1999999999999</ele><time>2026-04-25T15:41:49Z</time></trkpt><trkpt lat="44.52877343807845" lon="9.308457379582391"><ele>875.8</ele><time>2026-04-25T15:41:50Z</time></trkpt><trkpt lat="44.52870559355737" lon="9.308553285754968"><ele>873.4</ele><time>2026-04-25T15:41:51Z</time></trkpt><trkpt lat="44.528625008534426" lon="9.308641024497595"><ele>871.0</ele><time>2026-04-25T15:41:52Z</time></trkpt><trkpt lat="44.5285308780447" lon="9.308687956426589"><ele>871.0</ele><time>2026-04-25T15:41:53Z</time></trkpt><trkpt lat="44.52843079447779" lon="9.308739674157575"><ele>870.9999999999999</ele><time>2026-04-25T15:41:54Z</time></trkpt><trkpt lat="44.52833325257197" lon="9.30880646470228"><ele>870.9999999999999</ele><time>2026-04-25T15:41:55Z</time></trkpt><trkpt lat="44.52823730851109" lon="9.308836744852798"><ele>871.0</ele><time>2026-04-25T15:41:56Z</time></trkpt><trkpt lat="44.52814897520848" lon="9.308843009767246"><ele>871.0</ele><time>2026-04-25T15:41:57Z</time></trkpt><trkpt lat="44.52807997864264" lon="9.308853478077081"><ele>871.0</ele><time>2026-04-25T15:41:58Z</time></trkpt><trkpt lat="44.5280170249668" lon="9.30884568533555"><ele>871.0</ele><time>2026-04-25T15:41:59Z</time></trkpt><trkpt lat="44.52791879293415" lon="9.308750572931817"><ele>871.0</ele><time>2026-04-25T15:42:01Z</time></trkpt><trkpt lat="44.52786298228214" lon="9.308707566787561"><ele>871.0</ele><time>2026-04-25T15:42:02Z</time></trkpt><trkpt lat="44.527809455859924" lon="9.308652284548865"><ele>871.0</ele><time>2026-04-25T15:42:03Z</time></trkpt><trkpt lat="44.527750921673466" lon="9.308611977548793"><ele>871.0</ele><time>2026-04-25T15:42:04Z</time></trkpt><trkpt lat="44.527685102849354" lon="9.308587127434093"><ele>871.0</ele><time>2026-04-25T15:42:05Z</time></trkpt><trkpt lat="44.527616272168444" lon="9.308572313443982"><ele>874.5999999999999</ele><time>2026-04-25T15:42:06Z</time></trkpt><trkpt lat="44.527508938081894" lon="9.308559535306184"><ele>878.1999999999999</ele><time>2026-04-25T15:42:08Z</time></trkpt><trkpt lat="44.52747735841156" lon="9.30876906214606"><ele>881.8000000000001</ele><time>2026-04-25T15:42:15Z</time></trkpt><trkpt lat="44.52752611149635" lon="9.308851072604961"><ele>885.4000000000001</ele><time>2026-04-25T15:42:16Z</time></trkpt><trkpt lat="44.52758881435287" lon="9.30891792980824"><ele>889.0</ele><time>2026-04-25T15:42:17Z</time></trkpt><trkpt lat="44.527667862886354" lon="9.308976364486254"><ele>890.6</ele><time>2026-04-25T15:42:18Z</time></trkpt><trkpt lat="44.52776201216785" lon="9.309022145572138"><ele>892.2</ele><time>2026-04-25T15:42:19Z</time></trkpt><trkpt lat="44.527850415038785" lon="9.309047859924894"><ele>893.8000000000001</ele><time>2026-04-25T15:42:20Z</time></trkpt><trkpt lat="44.527943389551595" lon="9.309063447274779"><ele>895.4000000000001</ele><time>2026-04-25T15:42:21Z</time></trkpt><trkpt lat="44.52806368488581" lon="9.309066774079357"><ele>897.0</ele><time>2026-04-25T15:42:22Z</time></trkpt><trkpt lat="44.52820088399328" lon="9.30906049372518"><ele>897.75</ele><time>2026-04-25T15:42:23Z</time></trkpt><trkpt lat="44.528345280201016" lon="9.309050703736215"><ele>898.5</ele><time>2026-04-25T15:42:24Z</time></trkpt><trkpt lat="44.52847957115632" lon="9.309042190954186"><ele>899.25</ele><time>2026-04-25T15:42:25Z</time></trkpt><trkpt lat="44.528603835412085" lon="9.309033411837342"><ele>900.0</ele><time>2026-04-25T15:42:26Z</time></trkpt><trkpt lat="44.528722576259376" lon="9.309009579989649"><ele>900.0</ele><time>2026-04-25T15:42:27Z</time></trkpt><trkpt lat="44.528825417031236" lon="9.308958759536383"><ele>900.0</ele><time>2026-04-25T15:42:28Z</time></trkpt><trkpt lat="44.528908797945206" lon="9.308880509615092"><ele>900.0</ele><time>2026-04-25T15:42:29Z</time></trkpt><trkpt lat="44.52897089007409" lon="9.308791989617493"><ele>900.0</ele><time>2026-04-25T15:42:30Z</time></trkpt><trkpt lat="44.52903429466001" lon="9.30869961828997"><ele>900.0</ele><time>2026-04-25T15:42:31Z</time></trkpt><trkpt lat="44.52909302547758" lon="9.308583934699152"><ele>900.0</ele><time>2026-04-25T15:42:32Z</time></trkpt><trkpt lat="44.529147561903024" lon="9.308448807819419"><ele>900.0</ele><time>2026-04-25T15:42:33Z</time></trkpt><trkpt lat="44.52920864495472" lon="9.308305745652557"><ele>900.0</ele><time>2026-04-25T15:42:34Z</time></trkpt><trkpt lat="44.52926441043984" lon="9.308165454702307"><ele>900.0</ele><time>2026-04-25T15:42:35Z</time></trkpt><trkpt lat="44.529316114148415" lon="9.308029496542387"><ele>902.0</ele><time>2026-04-25T15:42:36Z</time></trkpt><trkpt lat="44.52938344521007" lon="9.307913048009354"><ele>904.0</ele><time>2026-04-25T15:42:37Z</time></trkpt><trkpt lat="44.52945908106131" lon="9.30780863965275"><ele>906.0</ele><time>2026-04-25T15:42:38Z</time></trkpt><trkpt lat="44.52955006137105" lon="9.307725114444885"><ele>908.0</ele><time>2026-04-25T15:42:39Z</time></trkpt><trkpt lat="44.52965013202535" lon="9.30765618410592"><ele>910.0</ele><time>2026-04-25T15:42:40Z</time></trkpt><trkpt lat="44.5297556950336" lon="9.30760479669939"><ele>910.0</ele><time>2026-04-25T15:42:41Z</time></trkpt><trkpt lat="44.52986561814285" lon="9.307573106007867"><ele>910.0</ele><time>2026-04-25T15:42:42Z</time></trkpt><trkpt lat="44.529975981196" lon="9.307521331317107"><ele>910.0</ele><time>2026-04-25T15:42:43Z</time></trkpt><trkpt lat="44.53009176915796" lon="9.307465785469702"><ele>910.0</ele><time>2026-04-25T15:42:44Z</time></trkpt><trkpt lat="44.53019877906933" lon="9.307383238593227"><ele>910.0</ele><time>2026-04-25T15:42:45Z</time></trkpt><trkpt lat="44.530296978962404" lon="9.307297996603646"><ele>910.0</ele><time>2026-04-25T15:42:46Z</time></trkpt><trkpt lat="44.53038245739415" lon="9.307186733613591"><ele>910.0</ele><time>2026-04-25T15:42:47Z</time></trkpt><trkpt lat="44.53044415520622" lon="9.307071994623772"><ele>910.0</ele><time>2026-04-25T15:42:48Z</time></trkpt><trkpt lat="44.53051248330494" lon="9.306997771325598"><ele>910.0</ele><time>2026-04-25T15:42:49Z</time></trkpt><trkpt lat="44.53057328415054" lon="9.306967186769596"><ele>908.4</ele><time>2026-04-25T15:42:50Z</time></trkpt><trkpt lat="44.530665692091375" lon="9.307009832898569"><ele>906.8</ele><time>2026-04-25T15:42:52Z</time></trkpt><trkpt lat="44.530684372175976" lon="9.307110530986211"><ele>905.2</ele><time>2026-04-25T15:42:53Z</time></trkpt><trkpt lat="44.53063848754524" lon="9.307268543716354"><ele>903.6</ele><time>2026-04-25T15:42:55Z</time></trkpt><trkpt lat="44.53057551035577" lon="9.307336668753788"><ele>902.0</ele><time>2026-04-25T15:42:56Z</time></trkpt><trkpt lat="44.53049598821578" lon="9.307420515549826"><ele>904.0</ele><time>2026-04-25T15:42:57Z</time></trkpt><trkpt lat="44.53040219818701" lon="9.307522563612753"><ele>906.0</ele><time>2026-04-25T15:42:58Z</time></trkpt><trkpt lat="44.53029794360966" lon="9.307639798780317"><ele>908.0</ele><time>2026-04-25T15:42:59Z</time></trkpt><trkpt lat="44.530204389738685" lon="9.307745001000912"><ele>910.0</ele><time>2026-04-25T15:43:00Z</time></trkpt><trkpt lat="44.53011784925123" lon="9.307864804963392"><ele>910.0</ele><time>2026-04-25T15:43:01Z</time></trkpt><trkpt lat="44.5300206971347" lon="9.307974603237069"><ele>910.0</ele><time>2026-04-25T15:43:02Z</time></trkpt><trkpt lat="44.529923706318336" lon="9.308088175342418"><ele>910.0</ele><time>2026-04-25T15:43:03Z</time></trkpt><trkpt lat="44.529829386221806" lon="9.308202867388033"><ele>910.0</ele><time>2026-04-25T15:43:04Z</time></trkpt><trkpt lat="44.52974390748371" lon="9.308311778204605"><ele>908.0</ele><time>2026-04-25T15:43:05Z</time></trkpt><trkpt lat="44.52967762897337" lon="9.308409379614604"><ele>906.0</ele><time>2026-04-25T15:43:06Z</time></trkpt><trkpt lat="44.52962162111641" lon="9.308519311524178"><ele>904.0</ele><time>2026-04-25T15:43:07Z</time></trkpt><trkpt lat="44.52958188864649" lon="9.308658475428883"><ele>902.0</ele><time>2026-04-25T15:43:08Z</time></trkpt><trkpt lat="44.52954947909987" lon="9.308815024408785"><ele>900.0</ele><time>2026-04-25T15:43:09Z</time></trkpt><trkpt lat="44.52951115728534" lon="9.308980416039432"><ele>907.5</ele><time>2026-04-25T15:43:10Z</time></trkpt><trkpt lat="44.52945044112679" lon="9.309142853539862"><ele>915.0</ele><time>2026-04-25T15:43:11Z</time></trkpt><trkpt lat="44.52937840693209" lon="9.30931508686637"><ele>922.5</ele><time>2026-04-25T15:43:12Z</time></trkpt><trkpt lat="44.529301441178035" lon="9.30950005764876"><ele>930.0</ele><time>2026-04-25T15:43:13Z</time></trkpt><trkpt lat="44.529228062500536" lon="9.309677843057836"><ele>1067.0</ele><time>2026-04-25T15:43:14Z</time></trkpt><trkpt lat="44.52253895080232" lon="9.316572829827924"><ele>1067.0</ele><time>2026-04-25T15:45:20.999Z</time></trkpt><trkpt lat="44.52259054657478" lon="9.316428955100454"><ele>1067.0</ele><time>2026-04-25T15:45:21.999Z</time></trkpt><trkpt lat="44.52260942358125" lon="9.31628635868656"><ele>1067.0</ele><time>2026-04-25T15:45:22.999Z</time></trkpt><trkpt lat="44.52264610679022" lon="9.316182133842593"><ele>1067.0</ele><time>2026-04-25T15:45:23.999Z</time></trkpt><trkpt lat="44.52268863458272" lon="9.31611673862959"><ele>1067.0</ele><time>2026-04-25T15:45:24.999Z</time></trkpt><trkpt lat="44.5228075381039" lon="9.316109427479564"><ele>1065.8</ele><time>2026-04-25T15:45:26.999Z</time></trkpt><trkpt lat="44.522879579905556" lon="9.316167494578554"><ele>1064.6</ele><time>2026-04-25T15:45:27.999Z</time></trkpt><trkpt lat="44.522981304434936" lon="9.31618718723805"><ele>1063.3999999999999</ele><time>2026-04-25T15:45:28.999Z</time></trkpt><trkpt lat="44.52308733001896" lon="9.31619248447183"><ele>1062.2</ele><time>2026-04-25T15:45:29.999Z</time></trkpt><trkpt lat="44.52320352218537" lon="9.316176326934983"><ele>1061.0</ele><time>2026-04-25T15:45:30.999Z</time></trkpt><trkpt lat="44.523327623750475" lon="9.316130902493533"><ele>1061.0</ele><time>2026-04-25T15:45:31.999Z</time></trkpt><trkpt lat="44.52354524237125" lon="9.316108423425916"><ele>1061.0</ele><time>2026-04-25T15:45:33.999Z</time></trkpt><trkpt lat="44.52365317990855" lon="9.31608740488636"><ele>1061.0</ele><time>2026-04-25T15:45:34.999Z</time></trkpt><trkpt lat="44.52376105241682" lon="9.316072009084175"><ele>1061.0</ele><time>2026-04-25T15:45:35.999Z</time></trkpt><trkpt lat="44.52386657960091" lon="9.316059533966117"><ele>1062.1666666666667</ele><time>2026-04-25T15:45:36.999Z</time></trkpt><trkpt lat="44.523964236672036" lon="9.316055179575269"><ele>1063.3333333333335</ele><time>2026-04-25T15:45:37.999Z</time></trkpt><trkpt lat="44.52405470074112" lon="9.3160432500574"><ele>1064.5</ele><time>2026-04-25T15:45:38.999Z</time></trkpt><trkpt lat="44.52413390766632" lon="9.316096870073586"><ele>1065.6666666666667</ele><time>2026-04-25T15:45:39.999Z</time></trkpt><trkpt lat="44.52420792168837" lon="9.31614312415438"><ele>1066.8333333333333</ele><time>2026-04-25T15:45:40.999Z</time></trkpt><trkpt lat="44.524277888216844" lon="9.316175567530873"><ele>1068.0</ele><time>2026-04-25T15:45:41.999Z</time></trkpt><trkpt lat="44.52432781112661" lon="9.316231066189804"><ele>1068.0</ele><time>2026-04-25T15:45:42.999Z</time></trkpt><trkpt lat="44.52435291456565" lon="9.31635270622143"><ele>1068.0</ele><time>2026-04-25T15:45:44.999Z</time></trkpt><trkpt lat="44.52430918184179" lon="9.316464802472172"><ele>1068.0</ele><time>2026-04-25T15:45:46.999Z</time></trkpt><trkpt lat="44.52419343032492" lon="9.316531384768503"><ele>1068.0</ele><time>2026-04-25T15:45:49Z</time></trkpt><trkpt lat="44.52410771997019" lon="9.316533580391733"><ele>1068.0</ele><time>2026-04-25T15:45:50Z</time></trkpt><trkpt lat="44.52401019853948" lon="9.316531683797871"><ele>1072.25</ele><time>2026-04-25T15:45:51Z</time></trkpt><trkpt lat="44.52391174237817" lon="9.316531562705586"><ele>1076.5</ele><time>2026-04-25T15:45:52Z</time></trkpt><trkpt lat="44.52383427619428" lon="9.316556050178475"><ele>1080.75</ele><time>2026-04-25T15:45:53Z</time></trkpt><trkpt lat="44.52374356103263" lon="9.316774871442536"><ele>1085.0</ele><time>2026-04-25T15:45:56Z</time></trkpt><trkpt lat="44.52376402426779" lon="9.316906043829828"><ele>1085.0</ele><time>2026-04-25T15:45:57Z</time></trkpt><trkpt lat="44.52379507612298" lon="9.31705691047769"><ele>1085.0</ele><time>2026-04-25T15:45:58Z</time></trkpt><trkpt lat="44.52381271408599" lon="9.317216460952693"><ele>1085.0</ele><time>2026-04-25T15:45:59Z</time></trkpt><trkpt lat="44.52384090509464" lon="9.317374196479388"><ele>1085.0</ele><time>2026-04-25T15:46:00Z</time></trkpt><trkpt lat="44.523853366141914" lon="9.317510477360495"><ele>1085.0</ele><time>2026-04-25T15:46:01Z</time></trkpt><trkpt lat="44.52386933295207" lon="9.317617382184633"><ele>1087.4</ele><time>2026-04-25T15:46:02Z</time></trkpt><trkpt lat="44.52381908639826" lon="9.317744695700453"><ele>1089.8</ele><time>2026-04-25T15:46:04Z</time></trkpt><trkpt lat="44.52370428304368" lon="9.317764263157262"><ele>1092.2</ele><time>2026-04-25T15:46:06Z</time></trkpt><trkpt lat="44.523638111017874" lon="9.317705830172258"><ele>1094.6</ele><time>2026-04-25T15:46:07Z</time></trkpt><trkpt lat="44.52356320218604" lon="9.317655013887636"><ele>1097.0</ele><time>2026-04-25T15:46:08Z</time></trkpt><trkpt lat="44.52348296549254" lon="9.317598836254486"><ele>1097.5</ele><time>2026-04-25T15:46:09Z</time></trkpt><trkpt lat="44.52340282959878" lon="9.317574879808715"><ele>1098.0</ele><time>2026-04-25T15:46:10Z</time></trkpt><trkpt lat="44.52329050807298" lon="9.317615524051261"><ele>1098.5</ele><time>2026-04-25T15:46:11Z</time></trkpt><trkpt lat="44.52320187723672" lon="9.31766163226974"><ele>1099.0</ele><time>2026-04-25T15:46:12Z</time></trkpt><trkpt lat="44.523126181737595" lon="9.317724326811213"><ele>1099.5</ele><time>2026-04-25T15:46:12.999Z</time></trkpt><trkpt lat="44.523071336371494" lon="9.31777968744541"><ele>1100.0</ele><time>2026-04-25T15:46:13.999Z</time></trkpt><trkpt lat="44.52311594488696" lon="9.317987529152736"><ele>1100.0</ele><time>2026-04-25T15:46:17.999Z</time></trkpt><trkpt lat="44.523179912899394" lon="9.318019693861658"><ele>1100.0</ele><time>2026-04-25T15:46:18.999Z</time></trkpt><trkpt lat="44.523258557311735" lon="9.31804137261858"><ele>1100.0</ele><time>2026-04-25T15:46:19.999Z</time></trkpt><trkpt lat="44.523350277342544" lon="9.318039497108611"><ele>1100.0</ele><time>2026-04-25T15:46:20.999Z</time></trkpt><trkpt lat="44.523417556334046" lon="9.31806535162406"><ele>1100.0</ele><time>2026-04-25T15:46:21.999Z</time></trkpt><trkpt lat="44.52350092956346" lon="9.318150419141677"><ele>1100.0</ele><time>2026-04-25T15:46:23.999Z</time></trkpt><trkpt lat="44.52346121337759" lon="9.318252599329684"><ele>1104.4</ele><time>2026-04-25T15:46:25.999Z</time></trkpt><trkpt lat="44.52335011458181" lon="9.3182904722039"><ele>1108.8</ele><time>2026-04-25T15:46:27.999Z</time></trkpt><trkpt lat="44.523254452778836" lon="9.318271566858343"><ele>1113.2</ele><time>2026-04-25T15:46:28.999Z</time></trkpt><trkpt lat="44.52313898237304" lon="9.318245850805802"><ele>1117.6</ele><time>2026-04-25T15:46:29.999Z</time></trkpt><trkpt lat="44.5230212590964" lon="9.318209378759784"><ele>1122.0</ele><time>2026-04-25T15:46:30.999Z</time></trkpt><trkpt lat="44.52292695903301" lon="9.318206721007604"><ele>1120.0</ele><time>2026-04-25T15:46:31.999Z</time></trkpt><trkpt lat="44.52284450963776" lon="9.31823409803097"><ele>1118.0</ele><time>2026-04-25T15:46:32.999Z</time></trkpt><trkpt lat="44.52278328251028" lon="9.318293170326259"><ele>1116.0</ele><time>2026-04-25T15:46:33.999Z</time></trkpt><trkpt lat="44.52273755194282" lon="9.318377641181373"><ele>1114.0</ele><time>2026-04-25T15:46:34.999Z</time></trkpt><trkpt lat="44.52266833784045" lon="9.318600121018102"><ele>1112.0</ele><time>2026-04-25T15:46:36.999Z</time></trkpt><trkpt lat="44.52262705759339" lon="9.318722922614961"><ele>1112.0</ele><time>2026-04-25T15:46:37.999Z</time></trkpt><trkpt lat="44.5225791643193" lon="9.318858797993856"><ele>1112.0</ele><time>2026-04-25T15:46:38.999Z</time></trkpt><trkpt lat="44.522523778277254" lon="9.31899337151616"><ele>1112.0</ele><time>2026-04-25T15:46:39.999Z</time></trkpt><trkpt lat="44.522478854537255" lon="9.319113274365403"><ele>1112.0</ele><time>2026-04-25T15:46:40.999Z</time></trkpt><trkpt lat="44.52245353443466" lon="9.319210410980123"><ele>1112.0</ele><time>2026-04-25T15:46:41.999Z</time></trkpt><trkpt lat="44.52242843176" lon="9.319296283898677"><ele>1113.0</ele><time>2026-04-25T15:46:42.999Z</time></trkpt><trkpt lat="44.522355291879784" lon="9.319402016848242"><ele>1114.0</ele><time>2026-04-25T15:46:44.999Z</time></trkpt><trkpt lat="44.522247712753575" lon="9.319424669965121"><ele>1115.0</ele><time>2026-04-25T15:46:46.999Z</time></trkpt><trkpt lat="44.52218622597803" lon="9.319443751771901"><ele>1116.0</ele><time>2026-04-25T15:46:47.999Z</time></trkpt><trkpt lat="44.52208376149841" lon="9.319497700775953"><ele>1117.0</ele><time>2026-04-25T15:46:49.999Z</time></trkpt><trkpt lat="44.52195925045069" lon="9.31956418084045"><ele>1117.0</ele><time>2026-04-25T15:46:51.999Z</time></trkpt><trkpt lat="44.521889171176596" lon="9.319629039996338"><ele>1117.0</ele><time>2026-04-25T15:46:52.999Z</time></trkpt><trkpt lat="44.5218142771844" lon="9.319687768750388"><ele>1117.0</ele><time>2026-04-25T15:46:53.999Z</time></trkpt><trkpt lat="44.521753664305784" lon="9.319786844565112"><ele>1117.0</ele><time>2026-04-25T15:46:54.999Z</time></trkpt><trkpt lat="44.52169787639575" lon="9.319900433727373"><ele>1117.0</ele><time>2026-04-25T15:46:55.999Z</time></trkpt><trkpt lat="44.52247177515901" lon="9.319982876544167"><ele>1128.75</ele><time>2026-04-25T15:47:13.999Z</time></trkpt><trkpt lat="44.52241298910551" lon="9.320055706692587"><ele>1140.5</ele><time>2026-04-25T15:47:15.999Z</time></trkpt><trkpt lat="44.52235298986444" lon="9.320087839669247"><ele>1152.25</ele><time>2026-04-25T15:47:16.999Z</time></trkpt><trkpt lat="44.522279439693726" lon="9.320140877806608"><ele>1164.0</ele><time>2026-04-25T15:47:17.999Z</time></trkpt><trkpt lat="44.52209999727858" lon="9.320415876585102"><ele>1163.2</ele><time>2026-04-25T15:47:20.999Z</time></trkpt><trkpt lat="44.52203947780174" lon="9.320531341243688"><ele>1162.4</ele><time>2026-04-25T15:47:21.999Z</time></trkpt><trkpt lat="44.52197705690035" lon="9.320657630356811"><ele>1161.6</ele><time>2026-04-25T15:47:22.999Z</time></trkpt><trkpt lat="44.521899636526705" lon="9.320759440766954"><ele>1160.8</ele><time>2026-04-25T15:47:23.999Z</time></trkpt><trkpt lat="44.52185410323183" lon="9.320851149827943"><ele>1160.0</ele><time>2026-04-25T15:47:24.999Z</time></trkpt><trkpt lat="44.52181526962639" lon="9.320925223230462"><ele>1160.0</ele><time>2026-04-25T15:47:25.999Z</time></trkpt><trkpt lat="44.52180201930028" lon="9.321021425757928"><ele>1160.0</ele><time>2026-04-25T15:47:26.999Z</time></trkpt><trkpt lat="44.521807470482905" lon="9.321130070512487"><ele>1160.0</ele><time>2026-04-25T15:47:27.999Z</time></trkpt><trkpt lat="44.52181467762052" lon="9.321254749678156"><ele>1160.0</ele><time>2026-04-25T15:47:28.999Z</time></trkpt><trkpt lat="44.521801671351724" lon="9.321393277868099"><ele>1160.0</ele><time>2026-04-25T15:47:29.999Z</time></trkpt><trkpt lat="44.52176810051254" lon="9.321535255214359"><ele>1160.0</ele><time>2026-04-25T15:47:30.999Z</time></trkpt><trkpt lat="44.52172223316845" lon="9.321679302903808"><ele>1164.0</ele><time>2026-04-25T15:47:31.999Z</time></trkpt><trkpt lat="44.52165101258483" lon="9.321789482951365"><ele>1168.0</ele><time>2026-04-25T15:47:32.999Z</time></trkpt><trkpt lat="44.52158920604936" lon="9.321927329943266"><ele>1172.0</ele><time>2026-04-25T15:47:33.999Z</time></trkpt><trkpt lat="44.521513830407955" lon="9.322043802429596"><ele>1176.0</ele><time>2026-04-25T15:47:34.999Z</time></trkpt><trkpt lat="44.52145182404052" lon="9.322151091762246"><ele>1180.0</ele><time>2026-04-25T15:47:35.999Z</time></trkpt><trkpt lat="44.52138787829662" lon="9.322232067898177"><ele>1182.75</ele><time>2026-04-25T15:47:36.999Z</time></trkpt><trkpt lat="44.52130993344504" lon="9.322296420218285"><ele>1185.5</ele><time>2026-04-25T15:47:37.999Z</time></trkpt><trkpt lat="44.521226398157296" lon="9.322337079075464"><ele>1188.25</ele><time>2026-04-25T15:47:38.999Z</time></trkpt><trkpt lat="44.521048241410206" lon="9.322308163377546"><ele>1191.0</ele><time>2026-04-25T15:47:40.999Z</time></trkpt><trkpt lat="44.52095975543002" lon="9.322262215204939"><ele>1186.6</ele><time>2026-04-25T15:47:41.999Z</time></trkpt><trkpt lat="44.520870422952044" lon="9.322201608475654"><ele>1182.1999999999998</ele><time>2026-04-25T15:47:42.999Z</time></trkpt><trkpt lat="44.52079371822225" lon="9.322124815861695"><ele>1177.8000000000002</ele><time>2026-04-25T15:47:43.999Z</time></trkpt><trkpt lat="44.520731997414394" lon="9.322054007131074"><ele>1173.4</ele><time>2026-04-25T15:47:44.999Z</time></trkpt><trkpt lat="44.52062054126348" lon="9.321992068067946"><ele>1169.0</ele><time>2026-04-25T15:47:46.999Z</time></trkpt><trkpt lat="44.52048654214353" lon="9.322009087679783"><ele>1170.5</ele><time>2026-04-25T15:47:48.999Z</time></trkpt><trkpt lat="44.520394016797844" lon="9.32205271448215"><ele>1172.0</ele><time>2026-04-25T15:47:49.999Z</time></trkpt><trkpt lat="44.52027687123529" lon="9.32211713299576"><ele>1173.5</ele><time>2026-04-25T15:47:50.999Z</time></trkpt><trkpt lat="44.52014621213314" lon="9.322196434506257"><ele>1175.0</ele><time>2026-04-25T15:47:51.999Z</time></trkpt><trkpt lat="44.520009032313205" lon="9.322259851072324"><ele>1180.0</ele><time>2026-04-25T15:47:52.999Z</time></trkpt><trkpt lat="44.51988221735997" lon="9.322306216947393"><ele>1185.0</ele><time>2026-04-25T15:47:53.999Z</time></trkpt><trkpt lat="44.519751467068986" lon="9.322303516206345"><ele>1190.0</ele><time>2026-04-25T15:47:54.999Z</time></trkpt><trkpt lat="44.519631282438" lon="9.322296481793497"><ele>1195.0</ele><time>2026-04-25T15:47:55.999Z</time></trkpt><trkpt lat="44.519526473617105" lon="9.322332530720267"><ele>1195.75</ele><time>2026-04-25T15:47:56.999Z</time></trkpt><trkpt lat="44.51944640914018" lon="9.322422526638373"><ele>1196.5</ele><time>2026-04-25T15:47:57.999Z</time></trkpt><trkpt lat="44.519361517352564" lon="9.322476401151981"><ele>1197.25</ele><time>2026-04-25T15:47:58.999Z</time></trkpt><trkpt lat="44.519268577166315" lon="9.322481803913224"><ele>1198.0</ele><time>2026-04-25T15:47:59.999Z</time></trkpt><trkpt lat="44.5190898723788" lon="9.322334238619005"><ele>1198.0</ele><time>2026-04-25T15:48:01.999Z</time></trkpt><trkpt lat="44.51898777843876" lon="9.322256151673653"><ele>1198.0</ele><time>2026-04-25T15:48:02.999Z</time></trkpt><trkpt lat="44.5188770435661" lon="9.322206366245455"><ele>1198.0</ele><time>2026-04-25T15:48:03.999Z</time></trkpt><trkpt lat="44.51877037903204" lon="9.322155859265656"><ele>1198.0</ele><time>2026-04-25T15:48:04.999Z</time></trkpt><trkpt lat="44.518675201709655" lon="9.322116622705297"><ele>1198.0</ele><time>2026-04-25T15:48:05.999Z</time></trkpt><trkpt lat="44.51859354783257" lon="9.322065804617855"><ele>1198.6</ele><time>2026-04-25T15:48:06.999Z</time></trkpt><trkpt lat="44.51852293833746" lon="9.322004837329432"><ele>1199.1999999999998</ele><time>2026-04-25T15:48:07.999Z</time></trkpt><trkpt lat="44.5184480113766" lon="9.321935771791033"><ele>1199.8</ele><time>2026-04-25T15:48:08.999Z</time></trkpt><trkpt lat="44.51837914912694" lon="9.321831962826046"><ele>1200.3999999999999</ele><time>2026-04-25T15:48:09.999Z</time></trkpt><trkpt lat="44.5183659516812" lon="9.32168867423788"><ele>1201.0</ele><time>2026-04-25T15:48:10.999Z</time></trkpt><trkpt lat="44.51834213400525" lon="9.321546158310051"><ele>1200.25</ele><time>2026-04-25T15:48:11.999Z</time></trkpt><trkpt lat="44.51830997383789" lon="9.321381423885262"><ele>1199.5</ele><time>2026-04-25T15:48:12.999Z</time></trkpt><trkpt lat="44.51827214831415" lon="9.32119611598294"><ele>1198.75</ele><time>2026-04-25T15:48:13.999Z</time></trkpt><trkpt lat="44.518223658157076" lon="9.320996702161153"><ele>1198.0</ele><time>2026-04-25T15:48:14.999Z</time></trkpt><trkpt lat="44.51818372139107" lon="9.320803531347671"><ele>1198.0</ele><time>2026-04-25T15:48:15.999Z</time></trkpt><trkpt lat="44.51814675198178" lon="9.320617716588576"><ele>1198.0</ele><time>2026-04-25T15:48:16.999Z</time></trkpt><trkpt lat="44.51811185522367" lon="9.320447809584824"><ele>1198.0</ele><time>2026-04-25T15:48:17.999Z</time></trkpt><trkpt lat="44.518076224296195" lon="9.320293685327965"><ele>1198.0</ele><time>2026-04-25T15:48:18.999Z</time></trkpt><trkpt lat="44.518046419729366" lon="9.320159862045612"><ele>1198.5</ele><time>2026-04-25T15:48:19.999Z</time></trkpt><trkpt lat="44.518001955290615" lon="9.320030378033518"><ele>1199.0</ele><time>2026-04-25T15:48:20.999Z</time></trkpt><trkpt lat="44.517341021676586" lon="9.319385229672251"><ele>1199.0</ele><time>2026-04-25T15:56:35Z</time></trkpt><trkpt lat="44.517350747745496" lon="9.319496703413288"><ele>1199.0</ele><time>2026-04-25T15:56:36Z</time></trkpt><trkpt lat="44.517367631455045" lon="9.319630328210415"><ele>1199.0</ele><time>2026-04-25T15:56:37Z</time></trkpt><trkpt lat="44.51738719931316" lon="9.31975366343615"><ele>1199.0</ele><time>2026-04-25T15:56:38Z</time></trkpt><trkpt lat="44.51740922232766" lon="9.319884317662055"><ele>1199.0</ele><time>2026-04-25T15:56:39Z</time></trkpt><trkpt lat="44.517427074564175" lon="9.320017500473982"><ele>1199.4</ele><time>2026-04-25T15:56:40Z</time></trkpt><trkpt lat="44.517437413119595" lon="9.320151800732503"><ele>1199.8000000000002</ele><time>2026-04-25T15:56:41Z</time></trkpt><trkpt lat="44.517435772538164" lon="9.320282138420017"><ele>1200.1999999999998</ele><time>2026-04-25T15:56:42Z</time></trkpt><trkpt lat="44.51742776225005" lon="9.320408291662668"><ele>1200.6</ele><time>2026-04-25T15:56:43Z</time></trkpt><trkpt lat="44.517413555527895" lon="9.320540905407897"><ele>1201.0</ele><time>2026-04-25T15:56:44Z</time></trkpt><trkpt lat="44.51739708907826" lon="9.320668903439193"><ele>1201.0</ele><time>2026-04-25T15:56:45Z</time></trkpt><trkpt lat="44.51737744448233" lon="9.320802990695318"><ele>1201.0</ele><time>2026-04-25T15:56:46Z</time></trkpt><trkpt lat="44.517342314583004" lon="9.320928487687517"><ele>1201.0</ele><time>2026-04-25T15:56:47Z</time></trkpt><trkpt lat="44.51728870225248" lon="9.32105298871929"><ele>1201.0</ele><time>2026-04-25T15:56:48Z</time></trkpt><trkpt lat="44.51721922476991" lon="9.321167346758376"><ele>1201.0</ele><time>2026-04-25T15:56:49Z</time></trkpt><trkpt lat="44.51713274704344" lon="9.321288725377723"><ele>1196.25</ele><time>2026-04-25T15:56:50Z</time></trkpt><trkpt lat="44.517034471200716" lon="9.321404214570208"><ele>1191.5</ele><time>2026-04-25T15:56:51Z</time></trkpt><trkpt lat="44.51693463097786" lon="9.321509961498792"><ele>1186.75</ele><time>2026-04-25T15:56:52Z</time></trkpt><trkpt lat="44.516838180123706" lon="9.321614196331836"><ele>1182.0</ele><time>2026-04-25T15:56:53Z</time></trkpt><trkpt lat="44.516747720334166" lon="9.321691992772566"><ele>1182.0</ele><time>2026-04-25T15:56:54Z</time></trkpt><trkpt lat="44.516700370190755" lon="9.321797458663758"><ele>1182.0</ele><time>2026-04-25T15:56:55Z</time></trkpt><trkpt lat="44.51665470150887" lon="9.321893047879264"><ele>1182.0</ele><time>2026-04-25T15:56:56Z</time></trkpt><trkpt lat="44.516603308795" lon="9.322008598618195"><ele>1182.0</ele><time>2026-04-25T15:56:57Z</time></trkpt><trkpt lat="44.51656853496868" lon="9.322137417233265"><ele>1182.0</ele><time>2026-04-25T15:56:58Z</time></trkpt><trkpt lat="44.51653598136269" lon="9.32226941455137"><ele>1183.5</ele><time>2026-04-25T15:56:59Z</time></trkpt><trkpt lat="44.516506371751895" lon="9.322390571461455"><ele>1185.0</ele><time>2026-04-25T15:57:00Z</time></trkpt><trkpt lat="44.516477505086925" lon="9.322509223416546"><ele>1186.5</ele><time>2026-04-25T15:57:01Z</time></trkpt><trkpt lat="44.516460964334506" lon="9.322631936937746"><ele>1188.0</ele><time>2026-04-25T15:57:02Z</time></trkpt><trkpt lat="44.51645756338451" lon="9.322752903679024"><ele>1189.5</ele><time>2026-04-25T15:57:03Z</time></trkpt><trkpt lat="44.51646118528961" lon="9.322853835093246"><ele>1191.0</ele><time>2026-04-25T15:57:04Z</time></trkpt><trkpt lat="44.51648990356508" lon="9.322943072291725"><ele>1191.0</ele><time>2026-04-25T15:57:05Z</time></trkpt><trkpt lat="44.51652876696402" lon="9.323038262842477"><ele>1191.0</ele><time>2026-04-25T15:57:06Z</time></trkpt><trkpt lat="44.516589382032535" lon="9.32312963742945"><ele>1191.0</ele><time>2026-04-25T15:57:07Z</time></trkpt><trkpt lat="44.51664878666224" lon="9.323230354007242"><ele>1191.0</ele><time>2026-04-25T15:57:08Z</time></trkpt><trkpt lat="44.516718330443524" lon="9.323332068683355"><ele>1191.0</ele><time>2026-04-25T15:57:09Z</time></trkpt><trkpt lat="44.51677040063691" lon="9.323464051349305"><ele>1188.25</ele><time>2026-04-25T15:57:10Z</time></trkpt><trkpt lat="44.51681768873531" lon="9.323619056219943"><ele>1185.5</ele><time>2026-04-25T15:57:11Z</time></trkpt><trkpt lat="44.51687990061632" lon="9.323776029558593"><ele>1182.75</ele><time>2026-04-25T15:57:12Z</time></trkpt><trkpt lat="44.51691324195634" lon="9.323949247436271"><ele>1180.0</ele><time>2026-04-25T15:57:13Z</time></trkpt><trkpt lat="44.51697413533488" lon="9.324102870631808"><ele>1176.8</ele><time>2026-04-25T15:57:14Z</time></trkpt><trkpt lat="44.51702082024071" lon="9.324246738115853"><ele>1173.6</ele><time>2026-04-25T15:57:15Z</time></trkpt><trkpt lat="44.51707078901693" lon="9.324371799155713"><ele>1170.4</ele><time>2026-04-25T15:57:16Z</time></trkpt><trkpt lat="44.51712208225059" lon="9.32450603100515"><ele>1167.2</ele><time>2026-04-25T15:57:17Z</time></trkpt><trkpt lat="44.51719541558432" lon="9.324621715012547"><ele>1164.0</ele><time>2026-04-25T15:57:18Z</time></trkpt><trkpt lat="44.517258330505186" lon="9.324715382311956"><ele>1167.8</ele><time>2026-04-25T15:57:19Z</time></trkpt><trkpt lat="44.51731201584006" lon="9.324797475794329"><ele>1171.6000000000001</ele><time>2026-04-25T15:57:20Z</time></trkpt><trkpt lat="44.51732557063426" lon="9.324889946538699"><ele>1175.4</ele><time>2026-04-25T15:57:21Z</time></trkpt><trkpt lat="44.517260714557175" lon="9.32503505756868"><ele>1179.2</ele><time>2026-04-25T15:57:23Z</time></trkpt><trkpt lat="44.51717977891873" lon="9.325046654038236"><ele>1183.0</ele><time>2026-04-25T15:57:24Z</time></trkpt><trkpt lat="44.51707898012748" lon="9.325087760425593"><ele>1177.75</ele><time>2026-04-25T15:57:25Z</time></trkpt><trkpt lat="44.516948993132424" lon="9.32510325789097"><ele>1172.5</ele><time>2026-04-25T15:57:26Z</time></trkpt><trkpt lat="44.51681805805422" lon="9.3251264886722"><ele>1167.25</ele><time>2026-04-25T15:57:27Z</time></trkpt><trkpt lat="44.51669436221447" lon="9.325163799470491"><ele>1162.0</ele><time>2026-04-25T15:57:28Z</time></trkpt><trkpt lat="44.516579509325275" lon="9.325221002431567"><ele>1162.0</ele><time>2026-04-25T15:57:29Z</time></trkpt><trkpt lat="44.516470850339815" lon="9.325258713857423"><ele>1162.0</ele><time>2026-04-25T15:57:30Z</time></trkpt><trkpt lat="44.516360671441596" lon="9.325252357844274"><ele>1162.0</ele><time>2026-04-25T15:57:31Z</time></trkpt><trkpt lat="44.516251963359984" lon="9.32521626883138"><ele>1162.0</ele><time>2026-04-25T15:57:32Z</time></trkpt><trkpt lat="44.51614114075834" lon="9.325166464827955"><ele>1160.5</ele><time>2026-04-25T15:57:33Z</time></trkpt><trkpt lat="44.51601683234979" lon="9.325143825726204"><ele>1159.0</ele><time>2026-04-25T15:57:34Z</time></trkpt><trkpt lat="44.5158943719487" lon="9.32515465245747"><ele>1157.5</ele><time>2026-04-25T15:57:35Z</time></trkpt><trkpt lat="44.51579117214208" lon="9.325183205973234"><ele>1156.0</ele><time>2026-04-25T15:57:36Z</time></trkpt><trkpt lat="44.515688024903184" lon="9.325198679949285"><ele>1156.0</ele><time>2026-04-25T15:57:37Z</time></trkpt><trkpt lat="44.51558813098283" lon="9.325281520413725"><ele>1156.0</ele><time>2026-04-25T15:57:38Z</time></trkpt><trkpt lat="44.515492134104605" lon="9.325405067153573"><ele>1156.0</ele><time>2026-04-25T15:57:39Z</time></trkpt><trkpt lat="44.51540792876725" lon="9.325514685781403"><ele>1156.0</ele><time>2026-04-25T15:57:40Z</time></trkpt><trkpt lat="44.515329922933695" lon="9.325604109862494"><ele>1154.0</ele><time>2026-04-25T15:57:41Z</time></trkpt><trkpt lat="44.51522632869183" lon="9.325601859029861"><ele>1152.0</ele><time>2026-04-25T15:57:41.999Z</time></trkpt><trkpt lat="44.5151222959051" lon="9.325635019988471"><ele>1150.0</ele><time>2026-04-25T15:57:42.999Z</time></trkpt><trkpt lat="44.51504540971112" lon="9.32566678276785"><ele>1148.0</ele><time>2026-04-25T15:57:43.999Z</time></trkpt><trkpt lat="44.51499614334478" lon="9.325722606510343"><ele>1146.0</ele><time>2026-04-25T15:57:44.999Z</time></trkpt><trkpt lat="44.51494951116214" lon="9.325792829819221"><ele>1144.0</ele><time>2026-04-25T15:57:45.999Z</time></trkpt><trkpt lat="44.51495739783856" lon="9.325925549750659"><ele>1144.0</ele><time>2026-04-25T15:57:46.999Z</time></trkpt><trkpt lat="44.514951040525446" lon="9.326070162307973"><ele>1144.0</ele><time>2026-04-25T15:57:47.999Z</time></trkpt><trkpt lat="44.51493738818108" lon="9.326228389108207"><ele>1144.0</ele><time>2026-04-25T15:57:48.999Z</time></trkpt><trkpt lat="44.51493450174225" lon="9.326367912233572"><ele>1144.0</ele><time>2026-04-25T15:57:49.999Z</time></trkpt><trkpt lat="44.51494992795158" lon="9.326504875501419"><ele>1144.0</ele><time>2026-04-25T15:57:50.999Z</time></trkpt><trkpt lat="44.514976573886386" lon="9.326642335552737"><ele>1143.5</ele><time>2026-04-25T15:57:51.999Z</time></trkpt><trkpt lat="44.514977199339576" lon="9.326779786765098"><ele>1143.0</ele><time>2026-04-25T15:57:52.999Z</time></trkpt><trkpt lat="44.51495296347731" lon="9.326931541160537"><ele>1142.5</ele><time>2026-04-25T15:57:54.001Z</time></trkpt><trkpt lat="44.5148983215104" lon="9.327105731669265"><ele>1142.0</ele><time>2026-04-25T15:57:55.001Z</time></trkpt><trkpt lat="44.51484441730697" lon="9.327280276480337"><ele>1140.2</ele><time>2026-04-25T15:57:56.001Z</time></trkpt><trkpt lat="44.51479261395494" lon="9.327440577514437"><ele>1138.4</ele><time>2026-04-25T15:57:57.001Z</time></trkpt><trkpt lat="44.514741100300874" lon="9.327572594039173"><ele>1136.6</ele><time>2026-04-25T15:57:58.001Z</time></trkpt><trkpt lat="44.514701808726365" lon="9.32767741413542"><ele>1134.8</ele><time>2026-04-25T15:57:59.001Z</time></trkpt><trkpt lat="44.51468940462795" lon="9.327770728081223"><ele>1133.0</ele><time>2026-04-25T15:58:00.001Z</time></trkpt><trkpt lat="44.51471006695222" lon="9.327857705425894"><ele>1133.0</ele><time>2026-04-25T15:58:01.001Z</time></trkpt><trkpt lat="44.51476115527821" lon="9.327930440761001"><ele>1133.0</ele><time>2026-04-25T15:58:02.001Z</time></trkpt><trkpt lat="44.51484105715427" lon="9.327991588557884"><ele>1133.0</ele><time>2026-04-25T15:58:03.001Z</time></trkpt><trkpt lat="44.51493441323461" lon="9.32808278519425"><ele>1133.0</ele><time>2026-04-25T15:58:04.001Z</time></trkpt><trkpt lat="44.51502755903648" lon="9.328167751867506"><ele>1133.0</ele><time>2026-04-25T15:58:05.001Z</time></trkpt><trkpt lat="44.515108262913444" lon="9.32824794114134"><ele>1130.75</ele><time>2026-04-25T15:58:06.001Z</time></trkpt><trkpt lat="44.51516025861532" lon="9.328360918875514"><ele>1128.5</ele><time>2026-04-25T15:58:07.001Z</time></trkpt><trkpt lat="44.51518791191066" lon="9.328507898663352"><ele>1126.25</ele><time>2026-04-25T15:58:08.001Z</time></trkpt><trkpt lat="44.515173892179305" lon="9.328683555956802"><ele>1124.0</ele><time>2026-04-25T15:58:09.001Z</time></trkpt><trkpt lat="44.51517588337293" lon="9.328869877019176"><ele>1120.75</ele><time>2026-04-25T15:58:10.001Z</time></trkpt><trkpt lat="44.51519658335971" lon="9.329065804992902"><ele>1117.5</ele><time>2026-04-25T15:58:11.001Z</time></trkpt><trkpt lat="44.515221679853134" lon="9.329259374516248"><ele>1114.25</ele><time>2026-04-25T15:58:12Z</time></trkpt><trkpt lat="44.51524146233458" lon="9.329439638657183"><ele>1111.0</ele><time>2026-04-25T15:58:13Z</time></trkpt><trkpt lat="44.515240910852604" lon="9.329599370296362"><ele>1111.0</ele><time>2026-04-25T15:58:14Z</time></trkpt><trkpt lat="44.51525803704478" lon="9.329720240245491"><ele>1111.0</ele><time>2026-04-25T15:58:15Z</time></trkpt><trkpt lat="44.51530314350714" lon="9.329799300257337"><ele>1111.0</ele><time>2026-04-25T15:58:16Z</time></trkpt><trkpt lat="44.515397021891054" lon="9.32987252165694"><ele>1111.0</ele><time>2026-04-25T15:58:18Z</time></trkpt><trkpt lat="44.51546389501583" lon="9.329855654640818"><ele>1111.0</ele><time>2026-04-25T15:58:19Z</time></trkpt><trkpt lat="44.51553771419875" lon="9.329802449897608"><ele>1111.0</ele><time>2026-04-25T15:58:20Z</time></trkpt><trkpt lat="44.51560596439634" lon="9.32976226708702"><ele>1113.6</ele><time>2026-04-25T15:58:21Z</time></trkpt><trkpt lat="44.51572253736194" lon="9.329792319381612"><ele>1116.1999999999998</ele><time>2026-04-25T15:58:23Z</time></trkpt><trkpt lat="44.51575082895068" lon="9.329896766840342"><ele>1118.8000000000002</ele><time>2026-04-25T15:58:24Z</time></trkpt><trkpt lat="44.5157191319476" lon="9.330014544034373"><ele>1121.4</ele><time>2026-04-25T15:58:25Z</time></trkpt><trkpt lat="44.515674878588484" lon="9.330148042985693"><ele>1124.0</ele><time>2026-04-25T15:58:26Z</time></trkpt><trkpt lat="44.51565901494833" lon="9.330306225639426"><ele>1124.0</ele><time>2026-04-25T15:58:27Z</time></trkpt><trkpt lat="44.51565247874755" lon="9.330433315132739"><ele>1124.0</ele><time>2026-04-25T15:58:28Z</time></trkpt><trkpt lat="44.51568661630943" lon="9.33053121044771"><ele>1124.0</ele><time>2026-04-25T15:58:29Z</time></trkpt><trkpt lat="44.51575836349324" lon="9.33059334619999"><ele>1124.0</ele><time>2026-04-25T15:58:30Z</time></trkpt><trkpt lat="44.515836074130554" lon="9.330649555724625"><ele>1124.0</ele><time>2026-04-25T15:58:31Z</time></trkpt><trkpt lat="44.51592838529443" lon="9.330673993820241"><ele>1124.0</ele><time>2026-04-25T15:58:32Z</time></trkpt><trkpt lat="44.51605819411104" lon="9.330681116012967"><ele>1121.3333333333335</ele><time>2026-04-25T15:58:33Z</time></trkpt><trkpt lat="44.51619767925603" lon="9.330696700028298"><ele>1118.6666666666667</ele><time>2026-04-25T15:58:34Z</time></trkpt><trkpt lat="44.516376333106805" lon="9.330738772508482"><ele>1116.0</ele><time>2026-04-25T15:58:35Z</time></trkpt><trkpt lat="44.5165221922921" lon="9.330778498938278"><ele>1116.0</ele><time>2026-04-25T15:58:36Z</time></trkpt><trkpt lat="44.516652650560424" lon="9.330809638770615"><ele>1116.0</ele><time>2026-04-25T15:58:37Z</time></trkpt><trkpt lat="44.51676173407287" lon="9.330816571482808"><ele>1116.0</ele><time>2026-04-25T15:58:38Z</time></trkpt><trkpt lat="44.516837521572754" lon="9.330838979394517"><ele>1116.0</ele><time>2026-04-25T15:58:39Z</time></trkpt><trkpt lat="44.51690268701588" lon="9.331016215618412"><ele>1116.0</ele><time>2026-04-25T15:58:41Z</time></trkpt><trkpt lat="44.516879346070375" lon="9.331125694881"><ele>1116.0</ele><time>2026-04-25T15:58:42Z</time></trkpt><trkpt lat="44.51678203451787" lon="9.331156242896045"><ele>1116.0</ele><time>2026-04-25T15:58:43Z</time></trkpt><trkpt lat="44.516728222979296" lon="9.33128911354466"><ele>1116.0</ele><time>2026-04-25T15:58:44Z</time></trkpt><trkpt lat="44.51664467811197" lon="9.331498737090616"><ele>1112.6</ele><time>2026-04-25T15:58:45Z</time></trkpt><trkpt lat="44.516592542407736" lon="9.3316551308185"><ele>1109.1999999999998</ele><time>2026-04-25T15:58:46Z</time></trkpt><trkpt lat="44.51655723457998" lon="9.331768270245867"><ele>1105.8000000000002</ele><time>2026-04-25T15:58:47Z</time></trkpt><trkpt lat="44.51649957684622" lon="9.331911702309192"><ele>1102.4</ele><time>2026-04-25T15:58:49Z</time></trkpt><trkpt lat="44.51648469677289" lon="9.33206473393299"><ele>1099.0</ele><time>2026-04-25T15:58:51Z</time></trkpt><trkpt lat="44.516498577592664" lon="9.332152771582015"><ele>1099.8</ele><time>2026-04-25T15:58:52Z</time></trkpt><trkpt lat="44.516508779475814" lon="9.332248863271854"><ele>1100.6000000000001</ele><time>2026-04-25T15:58:53Z</time></trkpt><trkpt lat="44.51651469846055" lon="9.332362396611618"><ele>1101.4</ele><time>2026-04-25T15:58:54Z</time></trkpt><trkpt lat="44.51651588282901" lon="9.332491069035639"><ele>1102.2</ele><time>2026-04-25T15:58:55Z</time></trkpt><trkpt lat="44.516507184206525" lon="9.332649577496543"><ele>1103.0</ele><time>2026-04-25T15:58:56Z</time></trkpt><trkpt lat="44.51647730343871" lon="9.332813669948598"><ele>1103.0</ele><time>2026-04-25T15:58:57Z</time></trkpt><trkpt lat="44.516407799365496" lon="9.332933488398991"><ele>1103.0</ele><time>2026-04-25T15:58:58Z</time></trkpt><trkpt lat="44.51633719216221" lon="9.333023463883547"><ele>1103.0</ele><time>2026-04-25T15:58:59Z</time></trkpt><trkpt lat="44.516235909535034" lon="9.333065516892075"><ele>1103.0</ele><time>2026-04-25T15:59:00Z</time></trkpt><trkpt lat="44.51609831530571" lon="9.333158243621279"><ele>1096.6666666666667</ele><time>2026-04-25T15:59:01Z</time></trkpt><trkpt lat="44.515944850723464" lon="9.333286284233106"><ele>1090.3333333333333</ele><time>2026-04-25T15:59:02Z</time></trkpt><trkpt lat="44.515777985140645" lon="9.333432103827212"><ele>1084.0</ele><time>2026-04-25T15:59:03Z</time></trkpt><trkpt lat="44.51560316065654" lon="9.333567551674662"><ele>1084.0</ele><time>2026-04-25T15:59:04Z</time></trkpt><trkpt lat="44.51542621319021" lon="9.333676394245137"><ele>1084.0</ele><time>2026-04-25T15:59:05Z</time></trkpt><trkpt lat="44.515249931600046" lon="9.333785766601654"><ele>1084.0</ele><time>2026-04-25T15:59:06Z</time></trkpt><trkpt lat="44.51508150252037" lon="9.33391474800785"><ele>1084.3333333333333</ele><time>2026-04-25T15:59:07Z</time></trkpt><trkpt lat="44.51490503612369" lon="9.33403452421243"><ele>1084.6666666666667</ele><time>2026-04-25T15:59:08Z</time></trkpt><trkpt lat="44.5147350445005" lon="9.334152001929912"><ele>1085.0</ele><time>2026-04-25T15:59:09Z</time></trkpt><trkpt lat="44.51456974921528" lon="9.334254483812671"><ele>1077.6666666666667</ele><time>2026-04-25T15:59:10Z</time></trkpt><trkpt lat="44.51441729357768" lon="9.334348804324865"><ele>1070.3333333333333</ele><time>2026-04-25T15:59:11Z</time></trkpt><trkpt lat="44.51426647003093" lon="9.334444647215351"><ele>1063.0</ele><time>2026-04-25T15:59:12Z</time></trkpt><trkpt lat="44.51412118236833" lon="9.334538017458579"><ele>1063.0</ele><time>2026-04-25T15:59:13Z</time></trkpt><trkpt lat="44.51398215582039" lon="9.33462419782721"><ele>1063.0</ele><time>2026-04-25T15:59:14Z</time></trkpt><trkpt lat="44.51385280264633" lon="9.334700510634327"><ele>1063.0</ele><time>2026-04-25T15:59:15Z</time></trkpt><trkpt lat="44.51373595439187" lon="9.33475785963752"><ele>1063.0</ele><time>2026-04-25T15:59:16Z</time></trkpt><trkpt lat="44.513626275561585" lon="9.33478873644031"><ele>1064.4</ele><time>2026-04-25T15:59:17Z</time></trkpt><trkpt lat="44.51351719447893" lon="9.334805912728466"><ele>1065.8</ele><time>2026-04-25T15:59:17.999Z</time></trkpt><trkpt lat="44.51342996454135" lon="9.334867769745266"><ele>1067.2</ele><time>2026-04-25T15:59:18.999Z</time></trkpt><trkpt lat="44.513350605168526" lon="9.334928712189978"><ele>1068.6</ele><time>2026-04-25T15:59:19.999Z</time></trkpt><trkpt lat="44.51328134919825" lon="9.33498578427614"><ele>1070.0</ele><time>2026-04-25T15:59:20.999Z</time></trkpt><trkpt lat="44.51321047024082" lon="9.335022595337378"><ele>1070.0</ele><time>2026-04-25T15:59:22.999Z</time></trkpt><trkpt lat="44.513202908964075" lon="9.33489479892072"><ele>1070.0</ele><time>2026-04-25T15:59:24.999Z</time></trkpt><trkpt lat="44.51326614596129" lon="9.334820143586533"><ele>1070.0</ele><time>2026-04-25T15:59:26.999Z</time></trkpt><trkpt lat="44.51333040056462" lon="9.334713780824918"><ele>1070.0</ele><time>2026-04-25T15:59:28.999Z</time></trkpt><trkpt lat="44.513397139149056" lon="9.334659944531051"><ele>1070.0</ele><time>2026-04-25T15:59:29.999Z</time></trkpt><trkpt lat="44.51348533786282" lon="9.334621405686201"><ele>1070.0</ele><time>2026-04-25T15:59:30.999Z</time></trkpt><trkpt lat="44.513596137125816" lon="9.334596816519547"><ele>1068.8333333333335</ele><time>2026-04-25T15:59:31.999Z</time></trkpt><trkpt lat="44.51368808024975" lon="9.33458146874736"><ele>1067.6666666666667</ele><time>2026-04-25T15:59:32.999Z</time></trkpt><trkpt lat="44.51376381041833" lon="9.334546381811668"><ele>1066.5</ele><time>2026-04-25T15:59:33.999Z</time></trkpt><trkpt lat="44.51382241927959" lon="9.33447762159351"><ele>1065.3333333333333</ele><time>2026-04-25T15:59:34.999Z</time></trkpt><trkpt lat="44.513880343624535" lon="9.33438705142805"><ele>1064.1666666666665</ele><time>2026-04-25T15:59:35.999Z</time></trkpt><trkpt lat="44.513958369827705" lon="9.33429144394215"><ele>1063.0</ele><time>2026-04-25T15:59:36.999Z</time></trkpt><trkpt lat="44.51402224808741" lon="9.334156860183784"><ele>1063.0</ele><time>2026-04-25T15:59:37.999Z</time></trkpt><trkpt lat="44.514075754572566" lon="9.334006405013588"><ele>1063.0</ele><time>2026-04-25T15:59:38.999Z</time></trkpt><trkpt lat="44.51412764076502" lon="9.333852404712468"><ele>1063.0</ele><time>2026-04-25T15:59:39.999Z</time></trkpt><trkpt lat="44.51419692668183" lon="9.333726391371318"><ele>1063.0</ele><time>2026-04-25T15:59:40.999Z</time></trkpt><trkpt lat="44.51426947335978" lon="9.333603805303856"><ele>1063.2</ele><time>2026-04-25T15:59:41.999Z</time></trkpt><trkpt lat="44.514339359482946" lon="9.333481506002885"><ele>1063.4</ele><time>2026-04-25T15:59:42.999Z</time></trkpt><trkpt lat="44.51440937463836" lon="9.333355729755876"><ele>1063.6000000000001</ele><time>2026-04-25T15:59:43.999Z</time></trkpt><trkpt lat="44.51447293741893" lon="9.333239278520765"><ele>1063.8</ele><time>2026-04-25T15:59:44.999Z</time></trkpt><trkpt lat="44.51453229874847" lon="9.333140469510528"><ele>1064.0</ele><time>2026-04-25T15:59:45.999Z</time></trkpt><trkpt lat="44.514596190850035" lon="9.33307389770236"><ele>1061.0</ele><time>2026-04-25T15:59:46.999Z</time></trkpt><trkpt lat="44.51468845883149" lon="9.333029688499492"><ele>1058.0</ele><time>2026-04-25T15:59:47.999Z</time></trkpt><trkpt lat="44.51479147012542" lon="9.332968448922532"><ele>1055.0</ele><time>2026-04-25T15:59:48.999Z</time></trkpt><trkpt lat="44.514884034979474" lon="9.332865358729192"><ele>1052.0</ele><time>2026-04-25T15:59:49.999Z</time></trkpt><trkpt lat="44.51496174273031" lon="9.33274078298509"><ele>1049.0</ele><time>2026-04-25T15:59:50.999Z</time></trkpt><trkpt lat="44.515016817539404" lon="9.332644226180452"><ele>1049.0</ele><time>2026-04-25T15:59:51.999Z</time></trkpt><trkpt lat="44.515046472306366" lon="9.33256498611834"><ele>1049.0</ele><time>2026-04-25T15:59:52.999Z</time></trkpt><trkpt lat="44.5150176974615" lon="9.332421539030001"><ele>1049.0</ele><time>2026-04-25T15:59:54.999Z</time></trkpt><trkpt lat="44.51488389725882" lon="9.33236839760884"><ele>1049.0</ele><time>2026-04-25T15:59:56.999Z</time></trkpt><trkpt lat="44.51480193956808" lon="9.332394961138474"><ele>1049.0</ele><time>2026-04-25T15:59:57.999Z</time></trkpt><trkpt lat="44.51473343580013" lon="9.332456275098407"><ele>1049.0</ele><time>2026-04-25T15:59:58.999Z</time></trkpt><trkpt lat="44.51466441865772" lon="9.332559057746591"><ele>1049.0</ele><time>2026-04-25T16:00:00Z</time></trkpt><trkpt lat="44.514568836436474" lon="9.332670270830087"><ele>1049.0</ele><time>2026-04-25T16:00:01Z</time></trkpt><trkpt lat="44.51444648844828" lon="9.332771025448745"><ele>1049.0</ele><time>2026-04-25T16:00:02Z</time></trkpt><trkpt lat="44.514309054111145" lon="9.332875736661233"><ele>1046.6666666666667</ele><time>2026-04-25T16:00:03Z</time></trkpt><trkpt lat="44.514164414167794" lon="9.332991252546282"><ele>1044.3333333333333</ele><time>2026-04-25T16:00:04Z</time></trkpt><trkpt lat="44.51403028809957" lon="9.33311484746523"><ele>1042.0</ele><time>2026-04-25T16:00:05Z</time></trkpt><trkpt lat="44.513902699309426" lon="9.33323336546292"><ele>1042.0</ele><time>2026-04-25T16:00:06Z</time></trkpt><trkpt lat="44.51376627067168" lon="9.333325549224929"><ele>1042.0</ele><time>2026-04-25T16:00:07Z</time></trkpt><trkpt lat="44.51363022643703" lon="9.33341841442335"><ele>1042.0</ele><time>2026-04-25T16:00:08Z</time></trkpt><trkpt lat="44.513500878436055" lon="9.33352475304558"><ele>1035.0</ele><time>2026-04-25T16:00:09Z</time></trkpt><trkpt lat="44.51335692634514" lon="9.333580545654081"><ele>1028.0</ele><time>2026-04-25T16:00:10Z</time></trkpt><trkpt lat="44.513219731017685" lon="9.333643498145342"><ele>1021.0</ele><time>2026-04-25T16:00:11Z</time></trkpt><trkpt lat="44.513078930994894" lon="9.333678677571369"><ele>1014.0</ele><time>2026-04-25T16:00:12Z</time></trkpt><trkpt lat="44.51292928958539" lon="9.333714111143525"><ele>1008.75</ele><time>2026-04-25T16:00:13Z</time></trkpt><trkpt lat="44.51278523929162" lon="9.333718127195533"><ele>1003.5</ele><time>2026-04-25T16:00:14Z</time></trkpt><trkpt lat="44.51266488775982" lon="9.333729989507253"><ele>998.25</ele><time>2026-04-25T16:00:15Z</time></trkpt><trkpt lat="44.51256378264076" lon="9.33374749075813"><ele>993.0</ele><time>2026-04-25T16:00:16Z</time></trkpt><trkpt lat="44.51248555193423" lon="9.333796722186655"><ele>993.0</ele><time>2026-04-25T16:00:17Z</time></trkpt><trkpt lat="44.51242845102439" lon="9.333885713606724"><ele>993.0</ele><time>2026-04-25T16:00:18Z</time></trkpt><trkpt lat="44.512400548249275" lon="9.334006211115511"><ele>993.0</ele><time>2026-04-25T16:00:19Z</time></trkpt><trkpt lat="44.5123925441752" lon="9.334151388555812"><ele>993.0</ele><time>2026-04-25T16:00:20Z</time></trkpt><trkpt lat="44.51239388526169" lon="9.334315967732032"><ele>993.0</ele><time>2026-04-25T16:00:21Z</time></trkpt><trkpt lat="44.51235650388044" lon="9.334470530035924"><ele>994.0</ele><time>2026-04-25T16:00:22Z</time></trkpt><trkpt lat="44.512318158304616" lon="9.33458673801775"><ele>995.0</ele><time>2026-04-25T16:00:23Z</time></trkpt><trkpt lat="44.512272612994245" lon="9.334658894498828"><ele>996.0</ele><time>2026-04-25T16:00:24Z</time></trkpt><trkpt lat="44.51219471981349" lon="9.334666654248323"><ele>997.0</ele><time>2026-04-25T16:00:25Z</time></trkpt><trkpt lat="44.512119577972605" lon="9.334623118701895"><ele>998.0</ele><time>2026-04-25T16:00:26Z</time></trkpt><trkpt lat="44.512071884013366" lon="9.334518941637171"><ele>999.0</ele><time>2026-04-25T16:00:27Z</time></trkpt><trkpt lat="44.512031329898825" lon="9.334431812473206"><ele>999.0</ele><time>2026-04-25T16:00:28Z</time></trkpt><trkpt lat="44.51197670610575" lon="9.334344689623268"><ele>999.0000000000001</ele><time>2026-04-25T16:00:29Z</time></trkpt><trkpt lat="44.51189028773429" lon="9.334313292332679"><ele>999.0000000000001</ele><time>2026-04-25T16:00:30Z</time></trkpt><trkpt lat="44.51177244462158" lon="9.334316795290801"><ele>999.0</ele><time>2026-04-25T16:00:31Z</time></trkpt><trkpt lat="44.51162983285732" lon="9.334338242167759"><ele>999.0</ele><time>2026-04-25T16:00:32Z</time></trkpt><trkpt lat="44.5114818424745" lon="9.334309446102504"><ele>999.0</ele><time>2026-04-25T16:00:33Z</time></trkpt><trkpt lat="44.511362800302294" lon="9.334268327373982"><ele>999.0000000000001</ele><time>2026-04-25T16:00:34Z</time></trkpt><trkpt lat="44.51126774477548" lon="9.33419430543763"><ele>999.0000000000001</ele><time>2026-04-25T16:00:35Z</time></trkpt><trkpt lat="44.511188135606204" lon="9.3341847125418"><ele>999.0</ele><time>2026-04-25T16:00:36Z</time></trkpt><trkpt lat="44.51110748447203" lon="9.334194656073201"><ele>999.0</ele><time>2026-04-25T16:00:37Z</time></trkpt><trkpt lat="44.51103031250169" lon="9.334240675098268"><ele>997.5</ele><time>2026-04-25T16:00:38Z</time></trkpt><trkpt lat="44.51095976231538" lon="9.33430353029216"><ele>996.0</ele><time>2026-04-25T16:00:39Z</time></trkpt><trkpt lat="44.5108921170842" lon="9.334380484751005"><ele>994.5</ele><time>2026-04-25T16:00:40Z</time></trkpt><trkpt lat="44.51082441207013" lon="9.334461681573549"><ele>993.0</ele><time>2026-04-25T16:00:41Z</time></trkpt><trkpt lat="44.51075783667678" lon="9.334546469789718"><ele>991.5</ele><time>2026-04-25T16:00:42Z</time></trkpt><trkpt lat="44.51069964141436" lon="9.334650830679818"><ele>990.0</ele><time>2026-04-25T16:00:43Z</time></trkpt><trkpt lat="44.51064209743412" lon="9.334780723785856"><ele>988.25</ele><time>2026-04-25T16:00:44Z</time></trkpt><trkpt lat="44.510566346897235" lon="9.334910489842715"><ele>986.5</ele><time>2026-04-25T16:00:45Z</time></trkpt><trkpt lat="44.51044301734553" lon="9.334962900586214"><ele>984.75</ele><time>2026-04-25T16:00:46Z</time></trkpt><trkpt lat="44.51032553807031" lon="9.335034319713106"><ele>983.0</ele><time>2026-04-25T16:00:47Z</time></trkpt><trkpt lat="44.51023060209857" lon="9.335128878264623"><ele>983.0</ele><time>2026-04-25T16:00:48Z</time></trkpt><trkpt lat="44.51013286677673" lon="9.335207534896673"><ele>983.0</ele><time>2026-04-25T16:00:49Z</time></trkpt><trkpt lat="44.51004157408144" lon="9.335298584572513"><ele>983.0</ele><time>2026-04-25T16:00:50Z</time></trkpt><trkpt lat="44.5099647142148" lon="9.335401650209658"><ele>983.0</ele><time>2026-04-25T16:00:51Z</time></trkpt><trkpt lat="44.50990905170551" lon="9.33550722880987"><ele>983.0</ele><time>2026-04-25T16:00:52Z</time></trkpt><trkpt lat="44.50987521446971" lon="9.335618645856565"><ele>985.3333333333334</ele><time>2026-04-25T16:00:53Z</time></trkpt><trkpt lat="44.50986569287549" lon="9.335742439294656"><ele>987.6666666666667</ele><time>2026-04-25T16:00:54Z</time></trkpt><trkpt lat="44.50984925364077" lon="9.335858801447982"><ele>990.0</ele><time>2026-04-25T16:00:55Z</time></trkpt><trkpt lat="44.50982035271359" lon="9.335958807005905"><ele>992.3333333333333</ele><time>2026-04-25T16:00:56Z</time></trkpt><trkpt lat="44.50978001136756" lon="9.336045877761116"><ele>994.6666666666666</ele><time>2026-04-25T16:00:57Z</time></trkpt><trkpt lat="44.509695760037246" lon="9.336049658679155"><ele>997.0</ele><time>2026-04-25T16:00:58Z</time></trkpt><trkpt lat="44.50961597870936" lon="9.335956386913697"><ele>992.25</ele><time>2026-04-25T16:00:59Z</time></trkpt><trkpt lat="44.509508223747126" lon="9.335901538795822"><ele>987.5</ele><time>2026-04-25T16:01:00Z</time></trkpt><trkpt lat="44.50939739228057" lon="9.335814547999444"><ele>982.75</ele><time>2026-04-25T16:01:00.999Z</time></trkpt><trkpt lat="44.50928322048819" lon="9.33577805596559"><ele>978.0</ele><time>2026-04-25T16:01:01.999Z</time></trkpt><trkpt lat="44.509178140095976" lon="9.335773909436615"><ele>978.0</ele><time>2026-04-25T16:01:02.999Z</time></trkpt><trkpt lat="44.50909895587733" lon="9.33578015961112"><ele>978.0</ele><time>2026-04-25T16:01:03.999Z</time></trkpt><trkpt lat="44.5090295519675" lon="9.335800964125735"><ele>978.0</ele><time>2026-04-25T16:01:04.999Z</time></trkpt><trkpt lat="44.50900241709997" lon="9.335894482789131"><ele>978.0</ele><time>2026-04-25T16:01:05.999Z</time></trkpt><trkpt lat="44.50901529482429" lon="9.336055393278277"><ele>978.0</ele><time>2026-04-25T16:01:07.999Z</time></trkpt><trkpt lat="44.50903430445985" lon="9.336153409540755"><ele>978.0</ele><time>2026-04-25T16:01:08.999Z</time></trkpt><trkpt lat="44.50906965690653" lon="9.336270226228352"><ele>977.0</ele><time>2026-04-25T16:01:09.999Z</time></trkpt><trkpt lat="44.50911130697972" lon="9.336402688623023"><ele>976.0</ele><time>2026-04-25T16:01:10.999Z</time></trkpt><trkpt lat="44.50913567613752" lon="9.336569715004513"><ele>975.0</ele><time>2026-04-25T16:01:11.999Z</time></trkpt><trkpt lat="44.509148903986" lon="9.336738484990786"><ele>974.0</ele><time>2026-04-25T16:01:12.999Z</time></trkpt><trkpt lat="44.50919346810611" lon="9.336913775209991"><ele>974.0</ele><time>2026-04-25T16:01:13.999Z</time></trkpt><trkpt lat="44.509235082890875" lon="9.337091489821521"><ele>974.0</ele><time>2026-04-25T16:01:14.999Z</time></trkpt><trkpt lat="44.50927741418242" lon="9.337268692144177"><ele>974.0</ele><time>2026-04-25T16:01:15.999Z</time></trkpt><trkpt lat="44.50931671288962" lon="9.33741252137814"><ele>974.0</ele><time>2026-04-25T16:01:16.999Z</time></trkpt><trkpt lat="44.50934989931894" lon="9.337545358712156"><ele>972.25</ele><time>2026-04-25T16:01:17.999Z</time></trkpt><trkpt lat="44.50931232241942" lon="9.337684688214159"><ele>970.5</ele><time>2026-04-25T16:01:18.999Z</time></trkpt><trkpt lat="44.509274878761566" lon="9.337837556680084"><ele>968.75</ele><time>2026-04-25T16:01:19.999Z</time></trkpt><trkpt lat="44.50925244137929" lon="9.338010834990309"><ele>967.0</ele><time>2026-04-25T16:01:20.999Z</time></trkpt><trkpt lat="44.50920426091498" lon="9.338156610477478"><ele>966.0</ele><time>2026-04-25T16:01:21.999Z</time></trkpt><trkpt lat="44.509170503283435" lon="9.338309448020004"><ele>965.0</ele><time>2026-04-25T16:01:22.999Z</time></trkpt><trkpt lat="44.509146873762305" lon="9.338449704438363"><ele>964.0</ele><time>2026-04-25T16:01:23.999Z</time></trkpt><trkpt lat="44.509131381457166" lon="9.338556520228549"><ele>963.0</ele><time>2026-04-25T16:01:24.999Z</time></trkpt><trkpt lat="44.509110402470704" lon="9.338690411791486"><ele>962.0</ele><time>2026-04-25T16:01:26.999Z</time></trkpt><trkpt lat="44.50901694278081" lon="9.338658746534785"><ele>962.0</ele><time>2026-04-25T16:01:28.999Z</time></trkpt><trkpt lat="44.509035946624074" lon="9.338509284065928"><ele>962.0</ele><time>2026-04-25T16:01:30.999Z</time></trkpt><trkpt lat="44.509054234450765" lon="9.338391354626474"><ele>962.0</ele><time>2026-04-25T16:01:31.999Z</time></trkpt><trkpt lat="44.509095330792285" lon="9.338253890219685"><ele>962.0</ele><time>2026-04-25T16:01:32.999Z</time></trkpt><trkpt lat="44.509106989389764" lon="9.338129703576"><ele>962.0</ele><time>2026-04-25T16:01:33.999Z</time></trkpt><trkpt lat="44.50912044727786" lon="9.33796654039501"><ele>962.8333333333334</ele><time>2026-04-25T16:01:34.999Z</time></trkpt><trkpt lat="44.509121239145486" lon="9.337831859663089"><ele>963.6666666666667</ele><time>2026-04-25T16:01:35.999Z</time></trkpt><trkpt lat="44.50911153231866" lon="9.337726767206947"><ele>964.5</ele><time>2026-04-25T16:01:36.999Z</time></trkpt><trkpt lat="44.509075759655914" lon="9.337645418737724"><ele>965.3333333333333</ele><time>2026-04-25T16:01:37.999Z</time></trkpt><trkpt lat="44.50901776077891" lon="9.337591495310583"><ele>966.1666666666666</ele><time>2026-04-25T16:01:38.999Z</time></trkpt><trkpt lat="44.5089416020411" lon="9.33756380989115"><ele>967.0</ele><time>2026-04-25T16:01:39.999Z</time></trkpt><trkpt lat="44.508840839060476" lon="9.33756372181846"><ele>961.0</ele><time>2026-04-25T16:01:40.999Z</time></trkpt><trkpt lat="44.508733143066664" lon="9.337554795260397"><ele>955.0</ele><time>2026-04-25T16:01:41.999Z</time></trkpt><trkpt lat="44.50862625099875" lon="9.33749563419208"><ele>949.0</ele><time>2026-04-25T16:01:42.999Z</time></trkpt><trkpt lat="44.50850911538928" lon="9.337411473906945"><ele>943.0</ele><time>2026-04-25T16:01:43.999Z</time></trkpt><trkpt lat="44.50841010664581" lon="9.337291073831416"><ele>946.0</ele><time>2026-04-25T16:01:44.999Z</time></trkpt><trkpt lat="44.50829530485315" lon="9.33718888560292"><ele>949.0</ele><time>2026-04-25T16:01:45.999Z</time></trkpt><trkpt lat="44.50817619329871" lon="9.337124003995147"><ele>952.0</ele><time>2026-04-25T16:01:46.999Z</time></trkpt><trkpt lat="44.508070956139406" lon="9.337069608836426"><ele>955.0</ele><time>2026-04-25T16:01:47.999Z</time></trkpt><trkpt lat="44.50796892778789" lon="9.337014876969176"><ele>950.4</ele><time>2026-04-25T16:01:48.999Z</time></trkpt><trkpt lat="44.50789312717236" lon="9.3369273529199"><ele>945.8</ele><time>2026-04-25T16:01:49.999Z</time></trkpt><trkpt lat="44.507817992250594" lon="9.33684367102186"><ele>941.2</ele><time>2026-04-25T16:01:50.999Z</time></trkpt><trkpt lat="44.50774634424747" lon="9.336752319526877"><ele>936.6</ele><time>2026-04-25T16:01:51.999Z</time></trkpt><trkpt lat="44.507688179344456" lon="9.336650410316748"><ele>932.0</ele><time>2026-04-25T16:01:52.999Z</time></trkpt><trkpt lat="44.50763325378313" lon="9.33652478398799"><ele>932.0000000000001</ele><time>2026-04-25T16:01:53.999Z</time></trkpt><trkpt lat="44.507580356031546" lon="9.336399197744237"><ele>932.0</ele><time>2026-04-25T16:01:54.999Z</time></trkpt><trkpt lat="44.507540676376244" lon="9.336281469159221"><ele>932.0</ele><time>2026-04-25T16:01:55.999Z</time></trkpt><trkpt lat="44.50752296722025" lon="9.336173191304212"><ele>932.0</ele><time>2026-04-25T16:01:56.999Z</time></trkpt><trkpt lat="44.507521176135754" lon="9.336066403912989"><ele>932.0000000000001</ele><time>2026-04-25T16:01:57.999Z</time></trkpt><trkpt lat="44.50753566244121" lon="9.335979132096702"><ele>932.0</ele><time>2026-04-25T16:01:58.999Z</time></trkpt><trkpt lat="44.50759267435803" lon="9.33591390368439"><ele>931.4000000000001</ele><time>2026-04-25T16:01:59.999Z</time></trkpt><trkpt lat="44.507652001390724" lon="9.335829261156354"><ele>930.8000000000001</ele><time>2026-04-25T16:02:00.999Z</time></trkpt><trkpt lat="44.50773373192128" lon="9.335731617646072"><ele>930.2</ele><time>2026-04-25T16:02:01.999Z</time></trkpt><trkpt lat="44.5078206049782" lon="9.335623325786564"><ele>929.6</ele><time>2026-04-25T16:02:02.999Z</time></trkpt><trkpt lat="44.50787623775603" lon="9.335513520689624"><ele>929.0</ele><time>2026-04-25T16:02:03.999Z</time></trkpt><trkpt lat="44.50789619368736" lon="9.335395040851862"><ele>928.4000000000001</ele><time>2026-04-25T16:02:04.999Z</time></trkpt><trkpt lat="44.50789832834746" lon="9.335288387209033"><ele>927.8000000000001</ele><time>2026-04-25T16:02:06Z</time></trkpt><trkpt lat="44.50786902799979" lon="9.3351812495398"><ele>927.1999999999999</ele><time>2026-04-25T16:02:07Z</time></trkpt><trkpt lat="44.50778803702191" lon="9.33509715546262"><ele>926.5999999999999</ele><time>2026-04-25T16:02:08Z</time></trkpt><trkpt lat="44.507712612541326" lon="9.335001725244176"><ele>926.0</ele><time>2026-04-25T16:02:09Z</time></trkpt><trkpt lat="44.50763465220428" lon="9.334870333616793"><ele>926.0</ele><time>2026-04-25T16:02:10Z</time></trkpt><trkpt lat="44.50756470472654" lon="9.334732609213123"><ele>926.0</ele><time>2026-04-25T16:02:11Z</time></trkpt><trkpt lat="44.507519991898555" lon="9.334579131760105"><ele>926.0</ele><time>2026-04-25T16:02:12Z</time></trkpt><trkpt lat="44.50745889627208" lon="9.334447864660124"><ele>926.0</ele><time>2026-04-25T16:02:13Z</time></trkpt><trkpt lat="44.50735359708088" lon="9.334347126339305"><ele>927.5</ele><time>2026-04-25T16:02:14Z</time></trkpt><trkpt lat="44.50726959908285" lon="9.334210043496713"><ele>929.0</ele><time>2026-04-25T16:02:15Z</time></trkpt><trkpt lat="44.507186817989" lon="9.3340849234249"><ele>930.5</ele><time>2026-04-25T16:02:16Z</time></trkpt><trkpt lat="44.50712264057723" lon="9.333955519429365"><ele>932.0</ele><time>2026-04-25T16:02:17Z</time></trkpt><trkpt lat="44.50708293225181" lon="9.333812868856581"><ele>929.0</ele><time>2026-04-25T16:02:18Z</time></trkpt><trkpt lat="44.50704171760193" lon="9.333691089352145"><ele>926.0</ele><time>2026-04-25T16:02:19Z</time></trkpt><trkpt lat="44.507014225240304" lon="9.333591625042482"><ele>923.0</ele><time>2026-04-25T16:02:20Z</time></trkpt><trkpt lat="44.507014534902424" lon="9.333461173719153"><ele>920.0</ele><time>2026-04-25T16:02:22Z</time></trkpt><trkpt lat="44.50714481587408" lon="9.333410116122721"><ele>917.0</ele><time>2026-04-25T16:02:24Z</time></trkpt><trkpt lat="44.50723781164785" lon="9.333416968749086"><ele>917.0</ele><time>2026-04-25T16:02:25Z</time></trkpt><trkpt lat="44.50736548031376" lon="9.333419435659438"><ele>917.0</ele><time>2026-04-25T16:02:26Z</time></trkpt><trkpt lat="44.50749887364199" lon="9.333442187801856"><ele>917.0</ele><time>2026-04-25T16:02:27Z</time></trkpt><trkpt lat="44.50763095885683" lon="9.333455354897707"><ele>917.0</ele><time>2026-04-25T16:02:28Z</time></trkpt><trkpt lat="44.507755040689574" lon="9.3334727235793"><ele>917.0000000000001</ele><time>2026-04-25T16:02:29Z</time></trkpt><trkpt lat="44.50787268132671" lon="9.333496106578549"><ele>917.0</ele><time>2026-04-25T16:02:30Z</time></trkpt><trkpt lat="44.50796543993277" lon="9.333509098331925"><ele>917.0</ele><time>2026-04-25T16:02:31Z</time></trkpt><trkpt lat="44.50803477539507" lon="9.33349689549958"><ele>917.0</ele><time>2026-04-25T16:02:32Z</time></trkpt><trkpt lat="44.508080749729594" lon="9.333369856624218"><ele>917.0000000000001</ele><time>2026-04-25T16:02:34Z</time></trkpt><trkpt lat="44.50805485871634" lon="9.333287109093765"><ele>917.0</ele><time>2026-04-25T16:02:35Z</time></trkpt><trkpt lat="44.50800001969552" lon="9.333220374322245"><ele>917.0</ele><time>2026-04-25T16:02:36Z</time></trkpt><trkpt lat="44.50791024149267" lon="9.333152791739794"><ele>917.0</ele><time>2026-04-25T16:02:37Z</time></trkpt><trkpt lat="44.50779977163903" lon="9.333073836537219"><ele>917.0</ele><time>2026-04-25T16:02:38Z</time></trkpt><trkpt lat="44.50767486791961" lon="9.332968739814259"><ele>917.0</ele><time>2026-04-25T16:02:39Z</time></trkpt><trkpt lat="44.50754701501589" lon="9.332880121094968"><ele>910.0</ele><time>2026-04-25T16:02:40Z</time></trkpt><trkpt lat="44.50742965355055" lon="9.332802092121499"><ele>903.0</ele><time>2026-04-25T16:02:41Z</time></trkpt><trkpt lat="44.507323478413326" lon="9.332726340782338"><ele>896.0</ele><time>2026-04-25T16:02:42Z</time></trkpt><trkpt lat="44.507222434648604" lon="9.332682024985376"><ele>889.0</ele><time>2026-04-25T16:02:43Z</time></trkpt><trkpt lat="44.50711932358493" lon="9.332640535881389"><ele>888.6</ele><time>2026-04-25T16:02:44Z</time></trkpt><trkpt lat="44.50700730119635" lon="9.332613375742639"><ele>888.2</ele><time>2026-04-25T16:02:45Z</time></trkpt><trkpt lat="44.50688855716709" lon="9.332598998026377"><ele>887.8000000000001</ele><time>2026-04-25T16:02:46Z</time></trkpt><trkpt lat="44.506783360079915" lon="9.332592709161645"><ele>887.4000000000001</ele><time>2026-04-25T16:02:47Z</time></trkpt><trkpt lat="44.50669778853821" lon="9.332603621417132"><ele>887.0</ele><time>2026-04-25T16:02:48Z</time></trkpt><trkpt lat="44.506630217054855" lon="9.33263826786563"><ele>887.0</ele><time>2026-04-25T16:02:49Z</time></trkpt><trkpt lat="44.50656713702602" lon="9.33269768034851"><ele>887.0</ele><time>2026-04-25T16:02:50Z</time></trkpt><trkpt lat="44.50652264197216" lon="9.33280675461688"><ele>887.0</ele><time>2026-04-25T16:02:51Z</time></trkpt><trkpt lat="44.50647069165699" lon="9.332930424513913"><ele>887.0</ele><time>2026-04-25T16:02:52Z</time></trkpt><trkpt lat="44.50640525601459" lon="9.333041166522253"><ele>887.0</ele><time>2026-04-25T16:02:53Z</time></trkpt><trkpt lat="44.506329150497706" lon="9.333118464444667"><ele>884.5000000000001</ele><time>2026-04-25T16:02:54Z</time></trkpt><trkpt lat="44.506270881074634" lon="9.333198004932283"><ele>882.0</ele><time>2026-04-25T16:02:55Z</time></trkpt><trkpt lat="44.50622990811044" lon="9.33330992300206"><ele>879.5</ele><time>2026-04-25T16:02:55.999Z</time></trkpt><trkpt lat="44.50620968311696" lon="9.333425684173507"><ele>877.0</ele><time>2026-04-25T16:02:56.999Z</time></trkpt><trkpt lat="44.506213030177015" lon="9.333532754853271"><ele>874.5000000000001</ele><time>2026-04-25T16:02:57.999Z</time></trkpt><trkpt lat="44.50622287821946" lon="9.333651599166144"><ele>872.0</ele><time>2026-04-25T16:02:58.999Z</time></trkpt><trkpt lat="44.50628989334451" lon="9.333762401932804"><ele>879.5</ele><time>2026-04-25T16:02:59.999Z</time></trkpt><trkpt lat="44.50634678694152" lon="9.333917519236733"><ele>887.0</ele><time>2026-04-25T16:03:00.999Z</time></trkpt><trkpt lat="44.506342485089114" lon="9.334079679682825"><ele>894.5</ele><time>2026-04-25T16:03:01.999Z</time></trkpt><trkpt lat="44.50635014261864" lon="9.334243482812887"><ele>902.0</ele><time>2026-04-25T16:03:02.999Z</time></trkpt><trkpt lat="44.506353213365124" lon="9.334387379107916"><ele>902.0000000000001</ele><time>2026-04-25T16:03:03.999Z</time></trkpt><trkpt lat="44.50635213882126" lon="9.334499809071488"><ele>902.0</ele><time>2026-04-25T16:03:04.999Z</time></trkpt><trkpt lat="44.50634591665401" lon="9.33459330369691"><ele>902.0</ele><time>2026-04-25T16:03:05.999Z</time></trkpt><trkpt lat="44.50632445858006" lon="9.33470050525232"><ele>902.0</ele><time>2026-04-25T16:03:07.999Z</time></trkpt><trkpt lat="44.50619140929273" lon="9.334665675683707"><ele>902.0000000000001</ele><time>2026-04-25T16:03:09.999Z</time></trkpt><trkpt lat="44.50611385895465" lon="9.334668811941755"><ele>902.0</ele><time>2026-04-25T16:03:10.999Z</time></trkpt><trkpt lat="44.5060420482464" lon="9.334645737887342"><ele>897.1666666666667</ele><time>2026-04-25T16:03:11.999Z</time></trkpt><trkpt lat="44.5059704793388" lon="9.334699794544713"><ele>892.3333333333334</ele><time>2026-04-25T16:03:12.999Z</time></trkpt><trkpt lat="44.50591785964219" lon="9.33479290262521"><ele>887.5</ele><time>2026-04-25T16:03:13.999Z</time></trkpt><trkpt lat="44.50589086055776" lon="9.334914571292925"><ele>882.6666666666667</ele><time>2026-04-25T16:03:14.999Z</time></trkpt><trkpt lat="44.50583967424388" lon="9.335001608151467"><ele>877.8333333333334</ele><time>2026-04-25T16:03:15.999Z</time></trkpt><trkpt lat="44.50579317560137" lon="9.335082481290478"><ele>873.0</ele><time>2026-04-25T16:03:16.999Z</time></trkpt><trkpt lat="44.50568372236393" lon="9.335123770518967"><ele>873.0</ele><time>2026-04-25T16:03:18.999Z</time></trkpt><trkpt lat="44.50562735842763" lon="9.335067229948931"><ele>873.0</ele><time>2026-04-25T16:03:19.999Z</time></trkpt><trkpt lat="44.505605089184236" lon="9.33496549597686"><ele>873.0</ele><time>2026-04-25T16:03:20.999Z</time></trkpt><trkpt lat="44.50559122209734" lon="9.334868122567343"><ele>873.0</ele><time>2026-04-25T16:03:21.999Z</time></trkpt><trkpt lat="44.50554947019026" lon="9.33479176341168"><ele>873.0</ele><time>2026-04-25T16:03:22.999Z</time></trkpt><trkpt lat="44.50545015235496" lon="9.334710936010007"><ele>873.0</ele><time>2026-04-25T16:03:24.999Z</time></trkpt><trkpt lat="44.50538265048044" lon="9.334719068559277"><ele>873.0</ele><time>2026-04-25T16:03:25.999Z</time></trkpt><trkpt lat="44.50530502594937" lon="9.334838850563596"><ele>873.0</ele><time>2026-04-25T16:03:27.999Z</time></trkpt><trkpt lat="44.50535176080711" lon="9.335046468536412"><ele>873.0</ele><time>2026-04-25T16:03:29.999Z</time></trkpt><trkpt lat="44.505389850576876" lon="9.33520303220808"><ele>873.0</ele><time>2026-04-25T16:03:30.999Z</time></trkpt><trkpt lat="44.50543203900259" lon="9.335368936193728"><ele>873.0</ele><time>2026-04-25T16:03:31.999Z</time></trkpt><trkpt lat="44.50548916743399" lon="9.335524083132782"><ele>873.0</ele><time>2026-04-25T16:03:32.999Z</time></trkpt><trkpt lat="44.505570354431065" lon="9.335671866022565"><ele>873.0</ele><time>2026-04-25T16:03:33.999Z</time></trkpt><trkpt lat="44.50564886233528" lon="9.33583946874899"><ele>873.0</ele><time>2026-04-25T16:03:34.999Z</time></trkpt><trkpt lat="44.50572616986476" lon="9.33599138087209"><ele>873.0</ele><time>2026-04-25T16:03:35.999Z</time></trkpt><trkpt lat="44.50578063489279" lon="9.336130845471262"><ele>873.0</ele><time>2026-04-25T16:03:36.999Z</time></trkpt><trkpt lat="44.50582187596291" lon="9.336241492760847"><ele>873.0</ele><time>2026-04-25T16:03:37.999Z</time></trkpt><trkpt lat="44.505814888038735" lon="9.336346725142882"><ele>873.0</ele><time>2026-04-25T16:03:38.999Z</time></trkpt><trkpt lat="44.50577317820558" lon="9.336433962475347"><ele>873.0</ele><time>2026-04-25T16:03:39.999Z</time></trkpt><trkpt lat="44.505681667281785" lon="9.336472544230583"><ele>873.0</ele><time>2026-04-25T16:03:40.999Z</time></trkpt><trkpt lat="44.5055859685482" lon="9.336529242038"><ele>873.0</ele><time>2026-04-25T16:03:41.999Z</time></trkpt><trkpt lat="44.50549836176444" lon="9.336634419185778"><ele>873.0</ele><time>2026-04-25T16:03:42.999Z</time></trkpt><trkpt lat="44.505403551783594" lon="9.33677690799054"><ele>873.0</ele><time>2026-04-25T16:03:43.999Z</time></trkpt><trkpt lat="44.505303523061556" lon="9.336949583187607"><ele>873.0</ele><time>2026-04-25T16:03:44.999Z</time></trkpt><trkpt lat="44.505182621628165" lon="9.337111696213157"><ele>866.3333333333333</ele><time>2026-04-25T16:03:45.999Z</time></trkpt><trkpt lat="44.50507280498855" lon="9.337318374761358"><ele>859.6666666666666</ele><time>2026-04-25T16:03:46.999Z</time></trkpt><trkpt lat="44.504982458074345" lon="9.33752765010691"><ele>853.0</ele><time>2026-04-25T16:03:47.999Z</time></trkpt><trkpt lat="44.504853132525916" lon="9.337684841036664"><ele>853.0</ele><time>2026-04-25T16:03:48.999Z</time></trkpt><trkpt lat="44.50473568241733" lon="9.337839865319225"><ele>853.0</ele><time>2026-04-25T16:03:49.999Z</time></trkpt><trkpt lat="44.50462893737262" lon="9.337991692122795"><ele>853.0</ele><time>2026-04-25T16:03:50.999Z</time></trkpt><trkpt lat="44.5045244567297" lon="9.338137338774933"><ele>849.5</ele><time>2026-04-25T16:03:51.999Z</time></trkpt><trkpt lat="44.50441491248967" lon="9.338272173696488"><ele>846.0</ele><time>2026-04-25T16:03:52.999Z</time></trkpt><trkpt lat="44.5043014702714" lon="9.338405050246065"><ele>842.5</ele><time>2026-04-25T16:03:53.999Z</time></trkpt><trkpt lat="44.50419186815501" lon="9.338536239346835"><ele>839.0</ele><time>2026-04-25T16:03:54.999Z</time></trkpt><trkpt lat="44.504082028299784" lon="9.338671267741994"><ele>839.0</ele><time>2026-04-25T16:03:55.999Z</time></trkpt><trkpt lat="44.50396683349571" lon="9.338814909847613"><ele>839.0</ele><time>2026-04-25T16:03:56.999Z</time></trkpt><trkpt lat="44.50385352388116" lon="9.338958905995797"><ele>839.0</ele><time>2026-04-25T16:03:57.999Z</time></trkpt><trkpt lat="44.50374337936872" lon="9.339101234299509"><ele>838.0</ele><time>2026-04-25T16:03:58.999Z</time></trkpt><trkpt lat="44.503628414949965" lon="9.339250007848088"><ele>837.0</ele><time>2026-04-25T16:03:59.999Z</time></trkpt><trkpt lat="44.50350501352576" lon="9.339407549809318"><ele>836.0</ele><time>2026-04-25T16:04:00.999Z</time></trkpt><trkpt lat="44.50337284059949" lon="9.339573641792905"><ele>835.6666666666667</ele><time>2026-04-25T16:04:01.999Z</time></trkpt><trkpt lat="44.50323316168386" lon="9.339747934905466"><ele>835.3333333333333</ele><time>2026-04-25T16:04:02.999Z</time></trkpt><trkpt lat="44.50309145609987" lon="9.339918573445395"><ele>835.0</ele><time>2026-04-25T16:04:03.999Z</time></trkpt><trkpt lat="44.50295588080436" lon="9.340092860111493"><ele>835.0</ele><time>2026-04-25T16:04:04.999Z</time></trkpt><trkpt lat="44.50282227158623" lon="9.340271509375984"><ele>835.0</ele><time>2026-04-25T16:04:05.999Z</time></trkpt><trkpt lat="44.50269029101371" lon="9.340450331517099"><ele>835.0</ele><time>2026-04-25T16:04:06.999Z</time></trkpt><trkpt lat="44.502559545105555" lon="9.340629994269015"><ele>832.0</ele><time>2026-04-25T16:04:07.999Z</time></trkpt><trkpt lat="44.50243535975887" lon="9.340802584179682"><ele>829.0</ele><time>2026-04-25T16:04:08.999Z</time></trkpt><trkpt lat="44.502315022468764" lon="9.340965238533657"><ele>826.0</ele><time>2026-04-25T16:04:09.999Z</time></trkpt><trkpt lat="44.50219749684307" lon="9.341123045270109"><ele>826.0</ele><time>2026-04-25T16:04:10.998Z</time></trkpt><trkpt lat="44.50208292413137" lon="9.341279033633047"><ele>826.0</ele><time>2026-04-25T16:04:12Z</time></trkpt><trkpt lat="44.50197357496155" lon="9.341428839269689"><ele>826.0</ele><time>2026-04-25T16:04:13Z</time></trkpt><trkpt lat="44.50186517230433" lon="9.341572613837208"><ele>826.25</ele><time>2026-04-25T16:04:14Z</time></trkpt><trkpt lat="44.50175694125857" lon="9.341712115218476"><ele>826.5</ele><time>2026-04-25T16:04:15Z</time></trkpt><trkpt lat="44.501650893600925" lon="9.341846811853852"><ele>826.75</ele><time>2026-04-25T16:04:16Z</time></trkpt><trkpt lat="44.50154462901709" lon="9.341977170217216"><ele>827.0</ele><time>2026-04-25T16:04:16.999Z</time></trkpt><trkpt lat="44.50144161683008" lon="9.342102829050283"><ele>827.0</ele><time>2026-04-25T16:04:17.999Z</time></trkpt><trkpt lat="44.50133869639735" lon="9.342232519324403"><ele>827.0</ele><time>2026-04-25T16:04:18.999Z</time></trkpt><trkpt lat="44.5012418548748" lon="9.342363220315907"><ele>827.0</ele><time>2026-04-25T16:04:19.999Z</time></trkpt><trkpt lat="44.50115546763553" lon="9.342510026424899"><ele>827.0</ele><time>2026-04-25T16:04:20.999Z</time></trkpt><trkpt lat="44.501055040837144" lon="9.342631732896791"><ele>827.0</ele><time>2026-04-25T16:04:21.999Z</time></trkpt><trkpt lat="44.50095625893474" lon="9.342752399883441"><ele>827.0</ele><time>2026-04-25T16:04:22.999Z</time></trkpt><trkpt lat="44.5008457871875" lon="9.342855077583698"><ele>827.0</ele><time>2026-04-25T16:04:24Z</time></trkpt><trkpt lat="44.50075666795535" lon="9.342988030209344"><ele>827.0</ele><time>2026-04-25T16:04:25Z</time></trkpt><trkpt lat="44.500656086731276" lon="9.34310614640822"><ele>827.25</ele><time>2026-04-25T16:04:26Z</time></trkpt><trkpt lat="44.50056767818474" lon="9.34324032658698"><ele>827.5</ele><time>2026-04-25T16:04:27Z</time></trkpt><trkpt lat="44.50048188432402" lon="9.343372130854126"><ele>827.75</ele><time>2026-04-25T16:04:28Z</time></trkpt><trkpt lat="44.50039507347854" lon="9.343498247221483"><ele>828.0</ele><time>2026-04-25T16:04:29Z</time></trkpt><trkpt lat="44.50030959941182" lon="9.343620978001736"><ele>828.0</ele><time>2026-04-25T16:04:30Z</time></trkpt><trkpt lat="44.50022370282194" lon="9.343750873154754"><ele>828.0</ele><time>2026-04-25T16:04:31Z</time></trkpt><trkpt lat="44.50013166051674" lon="9.343878763092432"><ele>828.0</ele><time>2026-04-25T16:04:32Z</time></trkpt><trkpt lat="44.50003422858411" lon="9.344006814260874"><ele>828.0</ele><time>2026-04-25T16:04:33Z</time></trkpt><trkpt lat="44.499931616822565" lon="9.34413349623329"><ele>827.3333333333333</ele><time>2026-04-25T16:04:34Z</time></trkpt><trkpt lat="44.49981430278836" lon="9.34425776300268"><ele>826.6666666666666</ele><time>2026-04-25T16:04:35Z</time></trkpt><trkpt lat="44.49968851717695" lon="9.344382038352794"><ele>826.0</ele><time>2026-04-25T16:04:36Z</time></trkpt><trkpt lat="44.4995654343593" lon="9.344525654900885"><ele>826.0</ele><time>2026-04-25T16:04:37Z</time></trkpt><trkpt lat="44.49945161087351" lon="9.344683201665537"><ele>826.0</ele><time>2026-04-25T16:04:38Z</time></trkpt><trkpt lat="44.499326028588705" lon="9.344846130248106"><ele>826.0</ele><time>2026-04-25T16:04:39Z</time></trkpt><trkpt lat="44.49918741225946" lon="9.345016434384958"><ele>823.6666666666666</ele><time>2026-04-25T16:04:39.999Z</time></trkpt><trkpt lat="44.499043737829496" lon="9.345191963763385"><ele>821.3333333333333</ele><time>2026-04-25T16:04:40.999Z</time></trkpt><trkpt lat="44.49889703234737" lon="9.345355115424816"><ele>819.0</ele><time>2026-04-25T16:04:41.999Z</time></trkpt><trkpt lat="44.498756719040735" lon="9.345504061354648"><ele>821.0</ele><time>2026-04-25T16:04:42.999Z</time></trkpt><trkpt lat="44.49862539887405" lon="9.34564407988427"><ele>823.0</ele><time>2026-04-25T16:04:43.999Z</time></trkpt><trkpt lat="44.498517561648384" lon="9.345808197335295"><ele>825.0</ele><time>2026-04-25T16:04:44.999Z</time></trkpt><trkpt lat="44.498449328347654" lon="9.345901096000986"><ele>827.0</ele><time>2026-04-25T16:04:45.999Z</time></trkpt><trkpt lat="44.498342582003815" lon="9.34600750219624"><ele>827.0</ele><time>2026-04-25T16:04:46.999Z</time></trkpt><trkpt lat="44.498232251169156" lon="9.34608741915986"><ele>827.0</ele><time>2026-04-25T16:04:47.999Z</time></trkpt><trkpt lat="44.49811993650839" lon="9.346148666961913"><ele>827.0</ele><time>2026-04-25T16:04:48.999Z</time></trkpt><trkpt lat="44.4980117986432" lon="9.346187255161501"><ele>827.0</ele><time>2026-04-25T16:04:49.999Z</time></trkpt><trkpt lat="44.49791476153726" lon="9.346205185857407"><ele>828.0</ele><time>2026-04-25T16:04:50.999Z</time></trkpt><trkpt lat="44.49782582139598" lon="9.346185180950922"><ele>829.0</ele><time>2026-04-25T16:04:51.999Z</time></trkpt><trkpt lat="44.49773515136422" lon="9.34613330265925"><ele>830.0</ele><time>2026-04-25T16:04:52.999Z</time></trkpt><trkpt lat="44.49763398845939" lon="9.346070921756256"><ele>831.0</ele><time>2026-04-25T16:04:53.999Z</time></trkpt><trkpt lat="44.4975188384399" lon="9.346030179866833"><ele>832.0</ele><time>2026-04-25T16:04:54.999Z</time></trkpt><trkpt lat="44.49739596745785" lon="9.34601258045891"><ele>832.0</ele><time>2026-04-25T16:04:55.999Z</time></trkpt><trkpt lat="44.49726612171273" lon="9.346017908811946"><ele>832.0</ele><time>2026-04-25T16:04:56.999Z</time></trkpt><trkpt lat="44.49713736499199" lon="9.346016563804714"><ele>832.0</ele><time>2026-04-25T16:04:57.999Z</time></trkpt><trkpt lat="44.497018284635324" lon="9.345997936559376"><ele>832.0</ele><time>2026-04-25T16:04:58.999Z</time></trkpt><trkpt lat="44.49690703821433" lon="9.345960295284387"><ele>830.75</ele><time>2026-04-25T16:04:59.999Z</time></trkpt><trkpt lat="44.49680403274793" lon="9.345894353517828"><ele>829.5</ele><time>2026-04-25T16:05:00.999Z</time></trkpt><trkpt lat="44.496695038841374" lon="9.345801653528746"><ele>828.25</ele><time>2026-04-25T16:05:01.999Z</time></trkpt><trkpt lat="44.496579818913865" lon="9.3457278504537"><ele>827.0</ele><time>2026-04-25T16:05:02.999Z</time></trkpt><trkpt lat="44.496460110218564" lon="9.34567826427862"><ele>827.0</ele><time>2026-04-25T16:05:03.999Z</time></trkpt><trkpt lat="44.496340674580146" lon="9.345638051151974"><ele>827.0</ele><time>2026-04-25T16:05:04.999Z</time></trkpt><trkpt lat="44.49622571250689" lon="9.345584197177415"><ele>827.0</ele><time>2026-04-25T16:05:05.999Z</time></trkpt><trkpt lat="44.49611340730142" lon="9.345525984652793"><ele>827.0</ele><time>2026-04-25T16:05:06.999Z</time></trkpt><trkpt lat="44.496003310188755" lon="9.345490682873017"><ele>827.75</ele><time>2026-04-25T16:05:07.999Z</time></trkpt><trkpt lat="44.495887711520716" lon="9.345493310663038"><ele>828.5</ele><time>2026-04-25T16:05:08.999Z</time></trkpt><trkpt lat="44.49576536469973" lon="9.345529354993866"><ele>829.25</ele><time>2026-04-25T16:05:09.999Z</time></trkpt><trkpt lat="44.49565069993298" lon="9.345594661693582"><ele>830.0</ele><time>2026-04-25T16:05:10.999Z</time></trkpt><trkpt lat="44.49554356887818" lon="9.34563841731601"><ele>828.5000000000001</ele><time>2026-04-25T16:05:11.999Z</time></trkpt><trkpt lat="44.49545123910773" lon="9.34564574982142"><ele>827.0</ele><time>2026-04-25T16:05:12.999Z</time></trkpt><trkpt lat="44.49536160372341" lon="9.34561492280109"><ele>825.5</ele><time>2026-04-25T16:05:13.999Z</time></trkpt><trkpt lat="44.495284945990335" lon="9.345552100304918"><ele>824.0</ele><time>2026-04-25T16:05:14.999Z</time></trkpt><trkpt lat="44.49521611788047" lon="9.345482975576727"><ele>822.5000000000001</ele><time>2026-04-25T16:05:15.999Z</time></trkpt><trkpt lat="44.49514171422085" lon="9.34545017689782"><ele>821.0</ele><time>2026-04-25T16:05:16.999Z</time></trkpt><trkpt lat="44.49507045712487" lon="9.34544967030533"><ele>821.0</ele><time>2026-04-25T16:05:17.999Z</time></trkpt><trkpt lat="44.49495996184586" lon="9.345462836434175"><ele>821.0</ele><time>2026-04-25T16:05:19.999Z</time></trkpt><trkpt lat="44.494895053465065" lon="9.345505755053416"><ele>821.0</ele><time>2026-04-25T16:05:21.999Z</time></trkpt><trkpt lat="44.49481208712421" lon="9.345362412906697"><ele>821.0</ele><time>2026-04-25T16:05:22.999Z</time></trkpt><trkpt lat="44.4947510201108" lon="9.34530245381156"><ele>821.0</ele><time>2026-04-25T16:05:23.999Z</time></trkpt><trkpt lat="44.49467834425826" lon="9.345214649434798"><ele>821.0</ele><time>2026-04-25T16:05:24.999Z</time></trkpt><trkpt lat="44.49459709442071" lon="9.345098891000887"><ele>821.0</ele><time>2026-04-25T16:05:25.999Z</time></trkpt><trkpt lat="44.49451014549623" lon="9.34495154906878"><ele>821.0</ele><time>2026-04-25T16:05:26.999Z</time></trkpt><trkpt lat="44.49441904979519" lon="9.344806540929515"><ele>821.0</ele><time>2026-04-25T16:05:27.999Z</time></trkpt><trkpt lat="44.49431458654163" lon="9.344666031790661"><ele>824.3333333333334</ele><time>2026-04-25T16:05:28.999Z</time></trkpt><trkpt lat="44.494175929282925" lon="9.344538274593756"><ele>827.6666666666667</ele><time>2026-04-25T16:05:29.999Z</time></trkpt><trkpt lat="44.49401650441711" lon="9.344419138139402"><ele>831.0</ele><time>2026-04-25T16:05:30.999Z</time></trkpt><trkpt lat="44.493865482478796" lon="9.34430311441993"><ele>826.6666666666667</ele><time>2026-04-25T16:05:31.999Z</time></trkpt><trkpt lat="44.49372085968623" lon="9.34419061142625"><ele>822.3333333333334</ele><time>2026-04-25T16:05:32.999Z</time></trkpt><trkpt lat="44.493587765067176" lon="9.344086639848685"><ele>818.0</ele><time>2026-04-25T16:05:33.999Z</time></trkpt><trkpt lat="44.49346966607746" lon="9.343992567646099"><ele>818.0</ele><time>2026-04-25T16:05:34.999Z</time></trkpt><trkpt lat="44.49337134869118" lon="9.343890028284772"><ele>818.0</ele><time>2026-04-25T16:05:35.999Z</time></trkpt><trkpt lat="44.49329297610671" lon="9.343766083532895"><ele>818.0</ele><time>2026-04-25T16:05:36.999Z</time></trkpt><trkpt lat="44.493233444106686" lon="9.343615338672002"><ele>818.0</ele><time>2026-04-25T16:05:37.999Z</time></trkpt><trkpt lat="44.49319904115098" lon="9.343434969417993"><ele>819.0</ele><time>2026-04-25T16:05:38.999Z</time></trkpt><trkpt lat="44.493179840352425" lon="9.343228609687642"><ele>820.0</ele><time>2026-04-25T16:05:39.999Z</time></trkpt><trkpt lat="44.49315490213845" lon="9.343011445680073"><ele>821.0</ele><time>2026-04-25T16:05:40.999Z</time></trkpt><trkpt lat="44.49311932412336" lon="9.342780413773179"><ele>821.0</ele><time>2026-04-25T16:05:41.999Z</time></trkpt><trkpt lat="44.49308739308081" lon="9.342554531557564"><ele>821.0</ele><time>2026-04-25T16:05:42.999Z</time></trkpt><trkpt lat="44.49305645184604" lon="9.342338881391768"><ele>821.0</ele><time>2026-04-25T16:05:43.999Z</time></trkpt><trkpt lat="44.493027126497445" lon="9.342121420925443"><ele>820.0</ele><time>2026-04-25T16:05:44.999Z</time></trkpt><trkpt lat="44.49300382327731" lon="9.341916606583077"><ele>819.0</ele><time>2026-04-25T16:05:45.999Z</time></trkpt><trkpt lat="44.492971859344834" lon="9.341723910394027"><ele>818.0</ele><time>2026-04-25T16:05:46.999Z</time></trkpt><trkpt lat="44.49293638033695" lon="9.34154173984297"><ele>817.0</ele><time>2026-04-25T16:05:47.999Z</time></trkpt><trkpt lat="44.492888021917764" lon="9.341375964161813"><ele>816.75</ele><time>2026-04-25T16:05:48.999Z</time></trkpt><trkpt lat="44.492821705201" lon="9.341219018864392"><ele>816.5</ele><time>2026-04-25T16:05:49.999Z</time></trkpt><trkpt lat="44.492742726421554" lon="9.341058783457703"><ele>816.25</ele><time>2026-04-25T16:05:50.999Z</time></trkpt><trkpt lat="44.492662744886744" lon="9.340904225474352"><ele>816.0</ele><time>2026-04-25T16:05:51.999Z</time></trkpt><trkpt lat="44.492585345390914" lon="9.340758926963224"><ele>816.0</ele><time>2026-04-25T16:05:52.999Z</time></trkpt><trkpt lat="44.49251103277306" lon="9.340624233168779"><ele>816.0</ele><time>2026-04-25T16:05:53.999Z</time></trkpt><trkpt lat="44.49244115421135" lon="9.340496120041555"><ele>816.0</ele><time>2026-04-25T16:05:54.999Z</time></trkpt><trkpt lat="44.49236809932405" lon="9.340378957572398"><ele>816.0</ele><time>2026-04-25T16:05:55.999Z</time></trkpt><trkpt lat="44.49229030707583" lon="9.340275274234276"><ele>816.0</ele><time>2026-04-25T16:05:56.999Z</time></trkpt><trkpt lat="44.492209425295485" lon="9.340187710145191"><ele>816.0</ele><time>2026-04-25T16:05:57.999Z</time></trkpt><trkpt lat="44.492128499240415" lon="9.34010735416854"><ele>816.0</ele><time>2026-04-25T16:05:58.999Z</time></trkpt><trkpt lat="44.49205287817215" lon="9.34002937206257"><ele>816.0</ele><time>2026-04-25T16:05:59.999Z</time></trkpt><trkpt lat="44.49198187893529" lon="9.339959189847654"><ele>816.0</ele><time>2026-04-25T16:06:00.998Z</time></trkpt><trkpt lat="44.49191185838052" lon="9.339891080658873"><ele>816.0</ele><time>2026-04-25T16:06:01.998Z</time></trkpt><trkpt lat="44.491845771996275" lon="9.339826215331117"><ele>816.0</ele><time>2026-04-25T16:06:02.998Z</time></trkpt><trkpt lat="44.49177420203383" lon="9.33976079884959"><ele>816.0</ele><time>2026-04-25T16:06:03.998Z</time></trkpt><trkpt lat="44.491693208242" lon="9.339682893802685"><ele>816.0</ele><time>2026-04-25T16:06:04.998Z</time></trkpt><trkpt lat="44.49160262082351" lon="9.339605800080447"><ele>816.0</ele><time>2026-04-25T16:06:05.998Z</time></trkpt><trkpt lat="44.49150058948411" lon="9.33954386403447"><ele>816.5999999999999</ele><time>2026-04-25T16:06:06.998Z</time></trkpt><trkpt lat="44.49139742806789" lon="9.339496124966576"><ele>817.2</ele><time>2026-04-25T16:06:07.998Z</time></trkpt><trkpt lat="44.49129128710812" lon="9.339469312731804"><ele>817.8</ele><time>2026-04-25T16:06:08.998Z</time></trkpt><trkpt lat="44.49118493165805" lon="9.339453081745726"><ele>818.4000000000001</ele><time>2026-04-25T16:06:09.998Z</time></trkpt><trkpt lat="44.49108018368395" lon="9.33942271673028"><ele>819.0</ele><time>2026-04-25T16:06:10.998Z</time></trkpt><trkpt lat="44.49096943141889" lon="9.339367458219487"><ele>819.0</ele><time>2026-04-25T16:06:11.998Z</time></trkpt><trkpt lat="44.49084811607034" lon="9.33929823142315"><ele>819.0</ele><time>2026-04-25T16:06:12.998Z</time></trkpt><trkpt lat="44.49072050340755" lon="9.33921720929379"><ele>819.0</ele><time>2026-04-25T16:06:13.998Z</time></trkpt><trkpt lat="44.490586353392516" lon="9.339129662572377"><ele>819.0</ele><time>2026-04-25T16:06:14.998Z</time></trkpt><trkpt lat="44.49046493959803" lon="9.339028382800276"><ele>819.6666666666667</ele><time>2026-04-25T16:06:15.998Z</time></trkpt><trkpt lat="44.49035212079384" lon="9.338896886941395"><ele>820.3333333333334</ele><time>2026-04-25T16:06:16.998Z</time></trkpt><trkpt lat="44.49024442166879" lon="9.338735714810507"><ele>821.0</ele><time>2026-04-25T16:06:18Z</time></trkpt><trkpt lat="44.49012902536046" lon="9.338553389549974"><ele>821.0</ele><time>2026-04-25T16:06:19Z</time></trkpt><trkpt lat="44.4900105438014" lon="9.338351174184702"><ele>821.0</ele><time>2026-04-25T16:06:20Z</time></trkpt><trkpt lat="44.48987277672209" lon="9.338137064076188"><ele>821.0</ele><time>2026-04-25T16:06:21Z</time></trkpt><trkpt lat="44.489721582268025" lon="9.337910364349192"><ele>821.0</ele><time>2026-04-25T16:06:22Z</time></trkpt><trkpt lat="44.48955458348365" lon="9.337690243311581"><ele>821.0</ele><time>2026-04-25T16:06:23Z</time></trkpt><trkpt lat="44.48939899955162" lon="9.337466713447295"><ele>821.0</ele><time>2026-04-25T16:06:24Z</time></trkpt><trkpt lat="44.48925271970639" lon="9.337262124400171"><ele>821.0</ele><time>2026-04-25T16:06:25Z</time></trkpt><trkpt lat="44.48911417490202" lon="9.337063040866074"><ele>821.0</ele><time>2026-04-25T16:06:26Z</time></trkpt><trkpt lat="44.488980256224096" lon="9.336875796653036"><ele>820.6666666666667</ele><time>2026-04-25T16:06:27Z</time></trkpt><trkpt lat="44.48885241944846" lon="9.336695831739931"><ele>820.3333333333333</ele><time>2026-04-25T16:06:28Z</time></trkpt><trkpt lat="44.48873259409384" lon="9.336524405937721"><ele>820.0</ele><time>2026-04-25T16:06:29Z</time></trkpt><trkpt lat="44.488617591799944" lon="9.336362116451413"><ele>827.3333333333333</ele><time>2026-04-25T16:06:30Z</time></trkpt><trkpt lat="44.48849006065973" lon="9.33621045826214"><ele>834.6666666666667</ele><time>2026-04-25T16:06:31Z</time></trkpt><trkpt lat="44.488335144947996" lon="9.336076542253487"><ele>842.0</ele><time>2026-04-25T16:06:32Z</time></trkpt><trkpt lat="44.48816648527799" lon="9.335955337343767"><ele>842.0</ele><time>2026-04-25T16:06:33Z</time></trkpt><trkpt lat="44.487990758250945" lon="9.33582939401619"><ele>842.0</ele><time>2026-04-25T16:06:34Z</time></trkpt><trkpt lat="44.48781274908856" lon="9.33570885889005"><ele>842.0</ele><time>2026-04-25T16:06:35Z</time></trkpt><trkpt lat="44.48763257992454" lon="9.335592410667362"><ele>842.0</ele><time>2026-04-25T16:06:36Z</time></trkpt><trkpt lat="44.48746308178019" lon="9.335480946332998"><ele>842.0</ele><time>2026-04-25T16:06:37Z</time></trkpt><trkpt lat="44.487302804841576" lon="9.335372717521562"><ele>842.0</ele><time>2026-04-25T16:06:38Z</time></trkpt><trkpt lat="44.48715310769782" lon="9.335260362762254"><ele>836.3333333333334</ele><time>2026-04-25T16:06:39Z</time></trkpt><trkpt lat="44.4870076302546" lon="9.335127964312845"><ele>830.6666666666667</ele><time>2026-04-25T16:06:39.999Z</time></trkpt><trkpt lat="44.486867590768504" lon="9.334982206087235"><ele>825.0</ele><time>2026-04-25T16:06:40.999Z</time></trkpt><trkpt lat="44.486732349103335" lon="9.334828552949233"><ele>826.6666666666667</ele><time>2026-04-25T16:06:41.999Z</time></trkpt><trkpt lat="44.48659522918613" lon="9.33468080154765"><ele>828.3333333333334</ele><time>2026-04-25T16:06:42.999Z</time></trkpt><trkpt lat="44.486467591830035" lon="9.334546596552633"><ele>830.0</ele><time>2026-04-25T16:06:43.999Z</time></trkpt><trkpt lat="44.48635095923069" lon="9.334416096490386"><ele>829.5</ele><time>2026-04-25T16:06:44.999Z</time></trkpt><trkpt lat="44.48624843047996" lon="9.334279742658525"><ele>829.0</ele><time>2026-04-25T16:06:45.999Z</time></trkpt><trkpt lat="44.48616588235788" lon="9.334115555664281"><ele>828.5</ele><time>2026-04-25T16:06:46.999Z</time></trkpt><trkpt lat="44.486095865702026" lon="9.33391636690756"><ele>828.0</ele><time>2026-04-25T16:06:47.999Z</time></trkpt><trkpt lat="44.486016753084854" lon="9.333703103929507"><ele>828.0</ele><time>2026-04-25T16:06:48.999Z</time></trkpt><trkpt lat="44.485927441505474" lon="9.333480131702755"><ele>828.0</ele><time>2026-04-25T16:06:49.999Z</time></trkpt><trkpt lat="44.485842422925295" lon="9.33325279373399"><ele>828.0</ele><time>2026-04-25T16:06:50.999Z</time></trkpt><trkpt lat="44.485762332357424" lon="9.333038961190073"><ele>831.6666666666667</ele><time>2026-04-25T16:06:51.999Z</time></trkpt><trkpt lat="44.48568474918698" lon="9.332820616631711"><ele>835.3333333333334</ele><time>2026-04-25T16:06:52.999Z</time></trkpt><trkpt lat="44.48559771510471" lon="9.332604790503103"><ele>839.0</ele><time>2026-04-25T16:06:53.999Z</time></trkpt><trkpt lat="44.485491715506356" lon="9.332390997450378"><ele>838.3333333333334</ele><time>2026-04-25T16:06:54.999Z</time></trkpt><trkpt lat="44.48536964154574" lon="9.332176071477978"><ele>837.6666666666667</ele><time>2026-04-25T16:06:55.999Z</time></trkpt><trkpt lat="44.4852375907608" lon="9.331964519305425"><ele>837.0</ele><time>2026-04-25T16:06:56.999Z</time></trkpt><trkpt lat="44.485097957746866" lon="9.331762204853048"><ele>837.0</ele><time>2026-04-25T16:06:57.999Z</time></trkpt><trkpt lat="44.48493384210644" lon="9.331562101562849"><ele>837.0</ele><time>2026-04-25T16:06:58.999Z</time></trkpt><trkpt lat="44.484758020574255" lon="9.33136131273705"><ele>837.0</ele><time>2026-04-25T16:06:59.999Z</time></trkpt><trkpt lat="44.48457874424068" lon="9.33114789962678"><ele>835.0</ele><time>2026-04-25T16:07:00.999Z</time></trkpt><trkpt lat="44.484401030190575" lon="9.330931351085887"><ele>833.0</ele><time>2026-04-25T16:07:01.999Z</time></trkpt><trkpt lat="44.4842282409114" lon="9.330724376986995"><ele>836.0</ele><time>2026-04-25T16:07:02.999Z</time></trkpt><trkpt lat="44.48406756562157" lon="9.33052695683856"><ele>839.0</ele><time>2026-04-25T16:07:03.999Z</time></trkpt><trkpt lat="44.48392585698708" lon="9.330349255744792"><ele>842.0</ele><time>2026-04-25T16:07:04.999Z</time></trkpt><trkpt lat="44.48379430788844" lon="9.33018801981964"><ele>837.3333333333334</ele><time>2026-04-25T16:07:05.999Z</time></trkpt><trkpt lat="44.48366353825121" lon="9.330033543733919"><ele>832.6666666666667</ele><time>2026-04-25T16:07:06.999Z</time></trkpt><trkpt lat="44.483551078313425" lon="9.329897785323059"><ele>828.0</ele><time>2026-04-25T16:07:07.999Z</time></trkpt><trkpt lat="44.48344886010902" lon="9.329773585572376"><ele>830.5999999999999</ele><time>2026-04-25T16:07:08.999Z</time></trkpt><trkpt lat="44.483360701915586" lon="9.32966305176916"><ele>833.1999999999999</ele><time>2026-04-25T16:07:09.999Z</time></trkpt><trkpt lat="44.48327970813349" lon="9.329562882779683"><ele>835.8</ele><time>2026-04-25T16:07:10.999Z</time></trkpt><trkpt lat="44.48320159235966" lon="9.329467504825226"><ele>838.4</ele><time>2026-04-25T16:07:11.999Z</time></trkpt><trkpt lat="44.483123079642844" lon="9.329376641662826"><ele>841.0</ele><time>2026-04-25T16:07:12.999Z</time></trkpt><trkpt lat="44.483045928707256" lon="9.32928963892539"><ele>841.0</ele><time>2026-04-25T16:07:13.999Z</time></trkpt><trkpt lat="44.482967042988726" lon="9.32920323869041"><ele>841.0</ele><time>2026-04-25T16:07:14.999Z</time></trkpt><trkpt lat="44.482886252219146" lon="9.32911529682328"><ele>841.0</ele><time>2026-04-25T16:07:15.999Z</time></trkpt><trkpt lat="44.482800705108076" lon="9.329029875426729"><ele>841.0</ele><time>2026-04-25T16:07:16.999Z</time></trkpt><trkpt lat="44.48270115797211" lon="9.328959405366142"><ele>841.0</ele><time>2026-04-25T16:07:17.999Z</time></trkpt><trkpt lat="44.4825839881724" lon="9.328887852104085"><ele>840.3333333333333</ele><time>2026-04-25T16:07:18.999Z</time></trkpt><trkpt lat="44.48245121321312" lon="9.328808778678248"><ele>839.6666666666667</ele><time>2026-04-25T16:07:19.999Z</time></trkpt><trkpt lat="44.48230504549815" lon="9.328721275418173"><ele>839.0</ele><time>2026-04-25T16:07:20.999Z</time></trkpt><trkpt lat="44.48216842900546" lon="9.328637652448984"><ele>836.75</ele><time>2026-04-25T16:07:21.999Z</time></trkpt><trkpt lat="44.48203550507778" lon="9.328549835552076"><ele>834.5</ele><time>2026-04-25T16:07:22.999Z</time></trkpt><trkpt lat="44.481907732854104" lon="9.32844551265683"><ele>832.25</ele><time>2026-04-25T16:07:23.999Z</time></trkpt><trkpt lat="44.481794398985926" lon="9.328347076949681"><ele>830.0</ele><time>2026-04-25T16:07:24.999Z</time></trkpt><trkpt lat="44.48168412934044" lon="9.328255824989418"><ele>830.0</ele><time>2026-04-25T16:07:25.999Z</time></trkpt><trkpt lat="44.48156717369544" lon="9.328147584782412"><ele>830.0</ele><time>2026-04-25T16:07:26.999Z</time></trkpt><trkpt lat="44.48143658606457" lon="9.32801440799315"><ele>830.0</ele><time>2026-04-25T16:07:27.999Z</time></trkpt><trkpt lat="44.48130504794541" lon="9.327860082943937"><ele>830.0</ele><time>2026-04-25T16:07:28.999Z</time></trkpt><trkpt lat="44.48116711481622" lon="9.327691483483491"><ele>830.0</ele><time>2026-04-25T16:07:29.999Z</time></trkpt><trkpt lat="44.48103760941564" lon="9.327516640602944"><ele>830.0</ele><time>2026-04-25T16:07:30.999Z</time></trkpt><trkpt lat="44.48091806116215" lon="9.327340252736882"><ele>831.3333333333334</ele><time>2026-04-25T16:07:31.999Z</time></trkpt><trkpt lat="44.4807442586746" lon="9.327212984631016"><ele>832.6666666666667</ele><time>2026-04-25T16:07:32.999Z</time></trkpt><trkpt lat="44.480618108093374" lon="9.327052588092132"><ele>834.0</ele><time>2026-04-25T16:07:33.999Z</time></trkpt><trkpt lat="44.48049364799691" lon="9.326905568862234"><ele>831.5</ele><time>2026-04-25T16:07:34.999Z</time></trkpt><trkpt lat="44.4803683638649" lon="9.326778638972982"><ele>829.0</ele><time>2026-04-25T16:07:35.999Z</time></trkpt><trkpt lat="44.480250800212204" lon="9.32666367401933"><ele>826.5</ele><time>2026-04-25T16:07:36.999Z</time></trkpt><trkpt lat="44.4801310617843" lon="9.326562794487318"><ele>824.0</ele><time>2026-04-25T16:07:37.999Z</time></trkpt><trkpt lat="44.48001742144002" lon="9.326483292709604"><ele>824.0</ele><time>2026-04-25T16:07:38.999Z</time></trkpt><trkpt lat="44.479910254010335" lon="9.326434339458155"><ele>824.0</ele><time>2026-04-25T16:07:39.999Z</time></trkpt><trkpt lat="44.479802831664756" lon="9.326404319567644"><ele>824.0</ele><time>2026-04-25T16:07:40.999Z</time></trkpt><trkpt lat="44.479695266105374" lon="9.326368770689452"><ele>824.0</ele><time>2026-04-25T16:07:41.999Z</time></trkpt><trkpt lat="44.47959272961308" lon="9.326328554632571"><ele>824.0</ele><time>2026-04-25T16:07:42.999Z</time></trkpt><trkpt lat="44.479484254163964" lon="9.32628575624232"><ele>823.5</ele><time>2026-04-25T16:07:43.999Z</time></trkpt><trkpt lat="44.4793655497599" lon="9.32624661627332"><ele>823.0</ele><time>2026-04-25T16:07:44.999Z</time></trkpt><trkpt lat="44.479240088343346" lon="9.3262006184286"><ele>822.5</ele><time>2026-04-25T16:07:45.999Z</time></trkpt><trkpt lat="44.47910554162726" lon="9.326142002935484"><ele>822.0</ele><time>2026-04-25T16:07:46.998Z</time></trkpt><trkpt lat="44.478961110198874" lon="9.326086997347142"><ele>822.0</ele><time>2026-04-25T16:07:47.998Z</time></trkpt><trkpt lat="44.47882209642482" lon="9.326029191536069"><ele>822.0</ele><time>2026-04-25T16:07:48.998Z</time></trkpt><trkpt lat="44.478688659193026" lon="9.325976101631005"><ele>822.0</ele><time>2026-04-25T16:07:49.998Z</time></trkpt><trkpt lat="44.47856652141214" lon="9.325917052614038"><ele>822.0</ele><time>2026-04-25T16:07:50.998Z</time></trkpt><trkpt lat="44.47845591459812" lon="9.32581371702518"><ele>822.3333333333333</ele><time>2026-04-25T16:07:51.998Z</time></trkpt><trkpt lat="44.47837991205665" lon="9.325627024977704"><ele>822.6666666666666</ele><time>2026-04-25T16:07:52.998Z</time></trkpt><trkpt lat="44.47827191265359" lon="9.325451264997733"><ele>823.0</ele><time>2026-04-25T16:07:53.998Z</time></trkpt><trkpt lat="44.47818868291867" lon="9.325250617549976"><ele>823.0</ele><time>2026-04-25T16:07:54.998Z</time></trkpt><trkpt lat="44.478111533369706" lon="9.325100443937794"><ele>823.0</ele><time>2026-04-25T16:07:55.998Z</time></trkpt><trkpt lat="44.47800143659602" lon="9.324983771781634"><ele>823.0</ele><time>2026-04-25T16:07:56.998Z</time></trkpt><trkpt lat="44.47785938378803" lon="9.324891252485152"><ele>823.0</ele><time>2026-04-25T16:07:57.998Z</time></trkpt><trkpt lat="44.47769611090724" lon="9.32481439067038"><ele>828.0</ele><time>2026-04-25T16:07:58.998Z</time></trkpt><trkpt lat="44.477523225159565" lon="9.324725551702587"><ele>833.0</ele><time>2026-04-25T16:07:59.998Z</time></trkpt><trkpt lat="44.477365619659295" lon="9.324637149763701"><ele>838.0</ele><time>2026-04-25T16:08:00.998Z</time></trkpt><trkpt lat="44.47722001032743" lon="9.324558754066015"><ele>836.25</ele><time>2026-04-25T16:08:01.998Z</time></trkpt><trkpt lat="44.4770805361832" lon="9.32448505394033"><ele>834.5</ele><time>2026-04-25T16:08:02.998Z</time></trkpt><trkpt lat="44.47694731207903" lon="9.324406713783166"><ele>832.75</ele><time>2026-04-25T16:08:03.998Z</time></trkpt><trkpt lat="44.47681867657993" lon="9.32433654573075"><ele>831.0</ele><time>2026-04-25T16:08:04.998Z</time></trkpt><trkpt lat="44.476693237719566" lon="9.324272617929333"><ele>831.0</ele><time>2026-04-25T16:08:05.998Z</time></trkpt><trkpt lat="44.47657271171557" lon="9.324224101669184"><ele>831.0</ele><time>2026-04-25T16:08:06.998Z</time></trkpt><trkpt lat="44.4764503831366" lon="9.324203715633912"><ele>831.0</ele><time>2026-04-25T16:08:07.998Z</time></trkpt><trkpt lat="44.47632184896474" lon="9.324228621653061"><ele>831.0</ele><time>2026-04-25T16:08:08.998Z</time></trkpt><trkpt lat="44.47619319369223" lon="9.324286252490731"><ele>829.0</ele><time>2026-04-25T16:08:09.998Z</time></trkpt><trkpt lat="44.47606026156581" lon="9.324374969650897"><ele>827.0</ele><time>2026-04-25T16:08:10.998Z</time></trkpt><trkpt lat="44.475918558698986" lon="9.324487755515232"><ele>825.0</ele><time>2026-04-25T16:08:11.998Z</time></trkpt><trkpt lat="44.47576604872567" lon="9.324619540228436"><ele>825.6666666666667</ele><time>2026-04-25T16:08:12.998Z</time></trkpt><trkpt lat="44.47561751488092" lon="9.324744920267701"><ele>826.3333333333334</ele><time>2026-04-25T16:08:13.998Z</time></trkpt><trkpt lat="44.47547892050784" lon="9.324845869259372"><ele>827.0</ele><time>2026-04-25T16:08:14.998Z</time></trkpt><trkpt lat="44.475343681881945" lon="9.32491237321003"><ele>826.5</ele><time>2026-04-25T16:08:15.998Z</time></trkpt><trkpt lat="44.47521029350851" lon="9.324909451107501"><ele>826.0</ele><time>2026-04-25T16:08:16.998Z</time></trkpt><trkpt lat="44.47507221507891" lon="9.324903081048532"><ele>825.5</ele><time>2026-04-25T16:08:17.998Z</time></trkpt><trkpt lat="44.474933257772165" lon="9.324797902963319"><ele>825.0</ele><time>2026-04-25T16:08:18.998Z</time></trkpt><trkpt lat="44.474779046050045" lon="9.32469479026819"><ele>825.0</ele><time>2026-04-25T16:08:19.998Z</time></trkpt><trkpt lat="44.47460677997015" lon="9.324595850460375"><ele>825.0</ele><time>2026-04-25T16:08:20.998Z</time></trkpt><trkpt lat="44.47443307500194" lon="9.324470505201164"><ele>825.0</ele><time>2026-04-25T16:08:21.998Z</time></trkpt><trkpt lat="44.474265141238" lon="9.324358765771835"><ele>827.6666666666667</ele><time>2026-04-25T16:08:22.998Z</time></trkpt><trkpt lat="44.47410830341609" lon="9.324259047921938"><ele>830.3333333333334</ele><time>2026-04-25T16:08:23.999Z</time></trkpt><trkpt lat="44.47395787026701" lon="9.324160244314697"><ele>833.0</ele><time>2026-04-25T16:08:24.999Z</time></trkpt><trkpt lat="44.473821997617975" lon="9.324071638562332"><ele>833.75</ele><time>2026-04-25T16:08:25.999Z</time></trkpt><trkpt lat="44.47368866274293" lon="9.32400364820263"><ele>834.5</ele><time>2026-04-25T16:08:26.999Z</time></trkpt><trkpt lat="44.47355294525081" lon="9.32396914237882"><ele>835.25</ele><time>2026-04-25T16:08:27.999Z</time></trkpt><trkpt lat="44.473419229970645" lon="9.32397413814149"><ele>836.0</ele><time>2026-04-25T16:08:28.999Z</time></trkpt><trkpt lat="44.47328646950441" lon="9.324011710659889"><ele>836.0</ele><time>2026-04-25T16:08:29.999Z</time></trkpt><trkpt lat="44.47315616636846" lon="9.324072096575497"><ele>836.0</ele><time>2026-04-25T16:08:30.999Z</time></trkpt><trkpt lat="44.473031229042235" lon="9.324136810258205"><ele>836.0</ele><time>2026-04-25T16:08:31.999Z</time></trkpt><trkpt lat="44.47291556210505" lon="9.324193249080874"><ele>836.0</ele><time>2026-04-25T16:08:32.999Z</time></trkpt><trkpt lat="44.47279954027992" lon="9.324253060498597"><ele>835.5</ele><time>2026-04-25T16:08:33.999Z</time></trkpt><trkpt lat="44.472682356582126" lon="9.324312468978441"><ele>835.0</ele><time>2026-04-25T16:08:34.999Z</time></trkpt><trkpt lat="44.472563437395884" lon="9.324369487767777"><ele>834.5</ele><time>2026-04-25T16:08:35.999Z</time></trkpt><trkpt lat="44.472445797718656" lon="9.324425405589812"><ele>834.0</ele><time>2026-04-25T16:08:36.999Z</time></trkpt><trkpt lat="44.47232770175861" lon="9.324487414887491"><ele>834.0</ele><time>2026-04-25T16:08:37.999Z</time></trkpt><trkpt lat="44.47220504215399" lon="9.324538815416192"><ele>834.0</ele><time>2026-04-25T16:08:38.999Z</time></trkpt><trkpt lat="44.472075271362826" lon="9.324574359982138"><ele>834.0</ele><time>2026-04-25T16:08:39.999Z</time></trkpt><trkpt lat="44.471942110719276" lon="9.324559631062272"><ele>834.0</ele><time>2026-04-25T16:08:40.999Z</time></trkpt><trkpt lat="44.471814884594835" lon="9.324551772344671"><ele>833.8000000000001</ele><time>2026-04-25T16:08:41.999Z</time></trkpt><trkpt lat="44.47170788309135" lon="9.324572291602681"><ele>833.6</ele><time>2026-04-25T16:08:42.999Z</time></trkpt><trkpt lat="44.47160759275888" lon="9.324611424383482"><ele>833.4</ele><time>2026-04-25T16:08:43.999Z</time></trkpt><trkpt lat="44.471522644105356" lon="9.32469668152828"><ele>833.2</ele><time>2026-04-25T16:08:44.999Z</time></trkpt><trkpt lat="44.47146186107946" lon="9.324832001748852"><ele>833.0</ele><time>2026-04-25T16:08:45.999Z</time></trkpt><trkpt lat="44.471427148120156" lon="9.324993508924774"><ele>835.5</ele><time>2026-04-25T16:08:46.999Z</time></trkpt><trkpt lat="44.47140820308027" lon="9.325171572252373"><ele>838.0</ele><time>2026-04-25T16:08:47.999Z</time></trkpt><trkpt lat="44.47137959566219" lon="9.325351865745697"><ele>840.5</ele><time>2026-04-25T16:08:48.999Z</time></trkpt><trkpt lat="44.47134498650954" lon="9.3255137303904"><ele>843.0</ele><time>2026-04-25T16:08:49.999Z</time></trkpt><trkpt lat="44.471310262349085" lon="9.325660352802112"><ele>844.2</ele><time>2026-04-25T16:08:50.999Z</time></trkpt><trkpt lat="44.47128153323229" lon="9.325800089277214"><ele>845.4</ele><time>2026-04-25T16:08:51.999Z</time></trkpt><trkpt lat="44.47125602033091" lon="9.325931237112188"><ele>846.6</ele><time>2026-04-25T16:08:52.999Z</time></trkpt><trkpt lat="44.4712218394613" lon="9.32606134875326"><ele>847.8000000000001</ele><time>2026-04-25T16:08:53.999Z</time></trkpt><trkpt lat="44.47116919138832" lon="9.326194947528313"><ele>849.0</ele><time>2026-04-25T16:08:54.999Z</time></trkpt><trkpt lat="44.47108251226703" lon="9.326308499711647"><ele>848.5</ele><time>2026-04-25T16:08:55.999Z</time></trkpt><trkpt lat="44.470954289560844" lon="9.326361291130853"><ele>848.0</ele><time>2026-04-25T16:08:56.999Z</time></trkpt><trkpt lat="44.47082611280235" lon="9.326423332562827"><ele>847.5</ele><time>2026-04-25T16:08:57.999Z</time></trkpt><trkpt lat="44.47070502548693" lon="9.326493982047024"><ele>847.0</ele><time>2026-04-25T16:08:58.999Z</time></trkpt><trkpt lat="44.470591019883855" lon="9.326535681837605"><ele>847.0</ele><time>2026-04-25T16:08:59.999Z</time></trkpt><trkpt lat="44.47047208644017" lon="9.326542991333701"><ele>847.0</ele><time>2026-04-25T16:09:00.999Z</time></trkpt><trkpt lat="44.47035221751543" lon="9.32647588809414"><ele>847.0</ele><time>2026-04-25T16:09:01.999Z</time></trkpt><trkpt lat="44.4702306035683" lon="9.326411507714777"><ele>847.0</ele><time>2026-04-25T16:09:02.999Z</time></trkpt><trkpt lat="44.470118590918844" lon="9.326342416720708"><ele>846.6</ele><time>2026-04-25T16:09:03.999Z</time></trkpt><trkpt lat="44.47001216932324" lon="9.326311902633723"><ele>846.2</ele><time>2026-04-25T16:09:04.999Z</time></trkpt><trkpt lat="44.46990957652811" lon="9.326311655238737"><ele>845.8</ele><time>2026-04-25T16:09:05.999Z</time></trkpt><trkpt lat="44.469810423852884" lon="9.326336104852658"><ele>845.4</ele><time>2026-04-25T16:09:06.999Z</time></trkpt><trkpt lat="44.46971108637559" lon="9.326391245275499"><ele>845.0</ele><time>2026-04-25T16:09:07.999Z</time></trkpt><trkpt lat="44.46962019822882" lon="9.32647472235062"><ele>843.5</ele><time>2026-04-25T16:09:08.999Z</time></trkpt><trkpt lat="44.46953860427382" lon="9.326583246363644"><ele>842.0</ele><time>2026-04-25T16:09:09.999Z</time></trkpt><trkpt lat="44.469460628760864" lon="9.326705292362266"><ele>840.5</ele><time>2026-04-25T16:09:10.999Z</time></trkpt><trkpt lat="44.4693811467233" lon="9.32683260689939"><ele>839.0</ele><time>2026-04-25T16:09:11.999Z</time></trkpt><trkpt lat="44.46929752069509" lon="9.326957741471329"><ele>839.0</ele><time>2026-04-25T16:09:12.999Z</time></trkpt><trkpt lat="44.469214213943225" lon="9.327082850003999"><ele>839.0</ele><time>2026-04-25T16:09:13.999Z</time></trkpt><trkpt lat="44.46913449256042" lon="9.327206801947952"><ele>839.0</ele><time>2026-04-25T16:09:14.999Z</time></trkpt><trkpt lat="44.469061158459056" lon="9.327333204655883"><ele>839.0</ele><time>2026-04-25T16:09:15.999Z</time></trkpt><trkpt lat="44.4689861691319" lon="9.327448839971009"><ele>839.6</ele><time>2026-04-25T16:09:16.999Z</time></trkpt><trkpt lat="44.46891307682564" lon="9.327559921041129"><ele>840.2</ele><time>2026-04-25T16:09:17.999Z</time></trkpt><trkpt lat="44.46884448627371" lon="9.327673667076391"><ele>840.8000000000001</ele><time>2026-04-25T16:09:18.999Z</time></trkpt><trkpt lat="44.468757215028546" lon="9.327765442323143"><ele>841.4000000000001</ele><time>2026-04-25T16:09:19.999Z</time></trkpt><trkpt lat="44.468639864214325" lon="9.32779667465085"><ele>842.0</ele><time>2026-04-25T16:09:20.999Z</time></trkpt><trkpt lat="44.46852579353085" lon="9.327838675796647"><ele>842.0</ele><time>2026-04-25T16:09:21.999Z</time></trkpt><trkpt lat="44.46841686027093" lon="9.327889987357466"><ele>842.0</ele><time>2026-04-25T16:09:22.999Z</time></trkpt><trkpt lat="44.46830523317889" lon="9.327926079955693"><ele>842.0</ele><time>2026-04-25T16:09:23.999Z</time></trkpt><trkpt lat="44.46819003905338" lon="9.327937615041463"><ele>842.0</ele><time>2026-04-25T16:09:24.999Z</time></trkpt><trkpt lat="44.46808431209266" lon="9.32786536422966"><ele>842.0</ele><time>2026-04-25T16:09:25.999Z</time></trkpt><trkpt lat="44.46798951426395" lon="9.327777486665596"><ele>842.0</ele><time>2026-04-25T16:09:26.999Z</time></trkpt><trkpt lat="44.467886192846514" lon="9.327696055532453"><ele>842.0</ele><time>2026-04-25T16:09:27.999Z</time></trkpt><trkpt lat="44.467801748960895" lon="9.327582188661049"><ele>842.0</ele><time>2026-04-25T16:09:28.999Z</time></trkpt><trkpt lat="44.46771458941687" lon="9.327495650390961"><ele>842.1666666666667</ele><time>2026-04-25T16:09:29.999Z</time></trkpt><trkpt lat="44.467628358524806" lon="9.327438859297018"><ele>842.3333333333334</ele><time>2026-04-25T16:09:30.999Z</time></trkpt><trkpt lat="44.46754232940371" lon="9.327418066147759"><ele>842.5</ele><time>2026-04-25T16:09:31.999Z</time></trkpt><trkpt lat="44.46746063328183" lon="9.32743520509213"><ele>842.6666666666667</ele><time>2026-04-25T16:09:32.999Z</time></trkpt><trkpt lat="44.46739668478439" lon="9.327508452724015"><ele>842.8333333333334</ele><time>2026-04-25T16:09:33.999Z</time></trkpt><trkpt lat="44.46735485292928" lon="9.327620715054497"><ele>843.0</ele><time>2026-04-25T16:09:34.999Z</time></trkpt><trkpt lat="44.467346812717764" lon="9.32775650806256"><ele>843.0</ele><time>2026-04-25T16:09:35.999Z</time></trkpt><trkpt lat="44.4673649421889" lon="9.327907661462184"><ele>843.0</ele><time>2026-04-25T16:09:36.999Z</time></trkpt><trkpt lat="44.46735839175632" lon="9.328061139714285"><ele>843.0</ele><time>2026-04-25T16:09:37.999Z</time></trkpt><trkpt lat="44.46733195275642" lon="9.32820062455934"><ele>843.0</ele><time>2026-04-25T16:09:38.999Z</time></trkpt><trkpt lat="44.46729867029585" lon="9.328330640346215"><ele>843.0</ele><time>2026-04-25T16:09:39.999Z</time></trkpt><trkpt lat="44.46724002007705" lon="9.328440388893652"><ele>843.5999999999999</ele><time>2026-04-25T16:09:40.999Z</time></trkpt><trkpt lat="44.46715715960639" lon="9.328522240648761"><ele>844.1999999999999</ele><time>2026-04-25T16:09:41.999Z</time></trkpt><trkpt lat="44.46705884739542" lon="9.328586730870857"><ele>844.8</ele><time>2026-04-25T16:09:42.999Z</time></trkpt><trkpt lat="44.46695305515197" lon="9.328645657653462"><ele>845.4</ele><time>2026-04-25T16:09:43.999Z</time></trkpt><trkpt lat="44.466848746376265" lon="9.32868457202227"><ele>846.0</ele><time>2026-04-25T16:09:44.999Z</time></trkpt><trkpt lat="44.46675482604762" lon="9.328719263204412"><ele>846.0</ele><time>2026-04-25T16:09:45.999Z</time></trkpt><trkpt lat="44.46665685404914" lon="9.32875406485348"><ele>846.0</ele><time>2026-04-25T16:09:46.999Z</time></trkpt><trkpt lat="44.466560367064766" lon="9.328797746217138"><ele>846.0</ele><time>2026-04-25T16:09:47.999Z</time></trkpt><trkpt lat="44.466470717476454" lon="9.328850752689121"><ele>846.0</ele><time>2026-04-25T16:09:48.999Z</time></trkpt><trkpt lat="44.466402095924266" lon="9.328932620221881"><ele>846.0</ele><time>2026-04-25T16:09:49.999Z</time></trkpt><trkpt lat="44.46635987494969" lon="9.329044450013257"><ele>846.8</ele><time>2026-04-25T16:09:50.999Z</time></trkpt><trkpt lat="44.46634253714788" lon="9.32917692884739"><ele>847.5999999999999</ele><time>2026-04-25T16:09:51.999Z</time></trkpt><trkpt lat="44.46635263769685" lon="9.329308485207868"><ele>848.4</ele><time>2026-04-25T16:09:52.999Z</time></trkpt><trkpt lat="44.466390628268" lon="9.329439650738026"><ele>849.2</ele><time>2026-04-25T16:09:53.999Z</time></trkpt><trkpt lat="44.466451372120744" lon="9.3295532472926"><ele>850.0</ele><time>2026-04-25T16:09:54.999Z</time></trkpt><trkpt lat="44.46648968873766" lon="9.329666107726062"><ele>850.4</ele><time>2026-04-25T16:09:55.999Z</time></trkpt><trkpt lat="44.46651881490109" lon="9.329775056663763"><ele>850.8</ele><time>2026-04-25T16:09:56.999Z</time></trkpt><trkpt lat="44.46650705377112" lon="9.329892571097862"><ele>851.2</ele><time>2026-04-25T16:09:57.999Z</time></trkpt><trkpt lat="44.466457468062266" lon="9.329999033120604"><ele>851.6</ele><time>2026-04-25T16:09:58.999Z</time></trkpt><trkpt lat="44.4664071443353" lon="9.330125969022262"><ele>852.0</ele><time>2026-04-25T16:09:59.998Z</time></trkpt><trkpt lat="44.46636847970571" lon="9.330267698577515"><ele>852.0</ele><time>2026-04-25T16:10:00.998Z</time></trkpt><trkpt lat="44.466320777567056" lon="9.330396638216287"><ele>852.0</ele><time>2026-04-25T16:10:01.998Z</time></trkpt><trkpt lat="44.4662635934455" lon="9.330510765140884"><ele>852.0</ele><time>2026-04-25T16:10:02.998Z</time></trkpt><trkpt lat="44.46622284377019" lon="9.3306223244253"><ele>852.0</ele><time>2026-04-25T16:10:03.998Z</time></trkpt><trkpt lat="44.46618058416725" lon="9.330722355697338"><ele>852.0</ele><time>2026-04-25T16:10:04.998Z</time></trkpt><trkpt lat="44.466130442758946" lon="9.330819106177223"><ele>853.0</ele><time>2026-04-25T16:10:05.998Z</time></trkpt><trkpt lat="44.46603728180435" lon="9.330865835629123"><ele>854.0</ele><time>2026-04-25T16:10:06.998Z</time></trkpt><trkpt lat="44.465943672333026" lon="9.330881287489213"><ele>855.0</ele><time>2026-04-25T16:10:07.998Z</time></trkpt><trkpt lat="44.46584978178975" lon="9.330907584012722"><ele>856.0</ele><time>2026-04-25T16:10:08.998Z</time></trkpt><trkpt lat="44.4657540637796" lon="9.330959908764035"><ele>857.0</ele><time>2026-04-25T16:10:09.998Z</time></trkpt><trkpt lat="44.46566657933694" lon="9.33102160340223"><ele>857.0000000000001</ele><time>2026-04-25T16:10:10.998Z</time></trkpt><trkpt lat="44.465588922867816" lon="9.331083148356996"><ele>857.0</ele><time>2026-04-25T16:10:11.998Z</time></trkpt><trkpt lat="44.46552816050484" lon="9.331165653729427"><ele>857.0</ele><time>2026-04-25T16:10:12.998Z</time></trkpt><trkpt lat="44.46547592657012" lon="9.331263607672106"><ele>857.0</ele><time>2026-04-25T16:10:13.998Z</time></trkpt><trkpt lat="44.465483786667996" lon="9.331398151902318"><ele>857.0000000000001</ele><time>2026-04-25T16:10:14.998Z</time></trkpt><trkpt lat="44.465462771010706" lon="9.331506323327451"><ele>857.0</ele><time>2026-04-25T16:10:15.998Z</time></trkpt><trkpt lat="44.46544000467606" lon="9.331603865808734"><ele>857.4000000000001</ele><time>2026-04-25T16:10:16.998Z</time></trkpt><trkpt lat="44.465393977765565" lon="9.331690723496324"><ele>857.8000000000001</ele><time>2026-04-25T16:10:17.998Z</time></trkpt><trkpt lat="44.465311543464516" lon="9.33175015042285"><ele>858.2</ele><time>2026-04-25T16:10:18.998Z</time></trkpt><trkpt lat="44.46520765529371" lon="9.331818430445958"><ele>858.6</ele><time>2026-04-25T16:10:19.998Z</time></trkpt><trkpt lat="44.46509919434882" lon="9.331889153137482"><ele>859.0</ele><time>2026-04-25T16:10:20.998Z</time></trkpt><trkpt lat="44.46500142534642" lon="9.331963071735323"><ele>859.0</ele><time>2026-04-25T16:10:21.998Z</time></trkpt><trkpt lat="44.464896504428566" lon="9.332014020780667"><ele>859.0000000000001</ele><time>2026-04-25T16:10:22.998Z</time></trkpt><trkpt lat="44.464801869347156" lon="9.332057400405958"><ele>859.0000000000001</ele><time>2026-04-25T16:10:23.998Z</time></trkpt><trkpt lat="44.46471496956254" lon="9.332101069387047"><ele>859.0</ele><time>2026-04-25T16:10:24.998Z</time></trkpt><trkpt lat="44.464636297173186" lon="9.332174265369092"><ele>859.0</ele><time>2026-04-25T16:10:25.998Z</time></trkpt><trkpt lat="44.46456892419568" lon="9.332271067685637"><ele>861.8000000000001</ele><time>2026-04-25T16:10:26.998Z</time></trkpt><trkpt lat="44.46451704710323" lon="9.332375813896325"><ele>864.6000000000001</ele><time>2026-04-25T16:10:27.998Z</time></trkpt><trkpt lat="44.464467142516654" lon="9.332472170850439"><ele>867.4</ele><time>2026-04-25T16:10:29Z</time></trkpt><trkpt lat="44.46439711926683" lon="9.332533981374347"><ele>870.2</ele><time>2026-04-25T16:10:30Z</time></trkpt><trkpt lat="44.464300159407706" lon="9.332530869379351"><ele>873.0</ele><time>2026-04-25T16:10:31Z</time></trkpt><trkpt lat="44.46419661067502" lon="9.332534555103415"><ele>873.0</ele><time>2026-04-25T16:10:32Z</time></trkpt><trkpt lat="44.4640960989852" lon="9.332498857556736"><ele>873.0</ele><time>2026-04-25T16:10:33Z</time></trkpt><trkpt lat="44.463995052959504" lon="9.332478610162804"><ele>873.0</ele><time>2026-04-25T16:10:34Z</time></trkpt><trkpt lat="44.46390452491179" lon="9.332445232309768"><ele>873.0</ele><time>2026-04-25T16:10:35Z</time></trkpt><trkpt lat="44.46381879685017" lon="9.332455959922138"><ele>873.0</ele><time>2026-04-25T16:10:36Z</time></trkpt><trkpt lat="44.4637353481156" lon="9.332500009827129"><ele>871.5999999999999</ele><time>2026-04-25T16:10:37Z</time></trkpt><trkpt lat="44.46365414791358" lon="9.332573280487104"><ele>870.1999999999999</ele><time>2026-04-25T16:10:38Z</time></trkpt><trkpt lat="44.46357309008866" lon="9.332654789120918"><ele>868.8</ele><time>2026-04-25T16:10:39Z</time></trkpt><trkpt lat="44.463479485820194" lon="9.332678655834039"><ele>867.4</ele><time>2026-04-25T16:10:40Z</time></trkpt><trkpt lat="44.46339284278983" lon="9.332722590754917"><ele>866.0</ele><time>2026-04-25T16:10:41Z</time></trkpt><trkpt lat="44.46330573694289" lon="9.33274510822807"><ele>866.0000000000001</ele><time>2026-04-25T16:10:42Z</time></trkpt><trkpt lat="44.463226521699895" lon="9.332782727233397"><ele>866.0</ele><time>2026-04-25T16:10:43Z</time></trkpt><trkpt lat="44.4631658466187" lon="9.332841812210386"><ele>866.0</ele><time>2026-04-25T16:10:43.999Z</time></trkpt><trkpt lat="44.463127787826565" lon="9.332934822103791"><ele>866.0</ele><time>2026-04-25T16:10:44.999Z</time></trkpt><trkpt lat="44.463115927518565" lon="9.333057783056043"><ele>866.0000000000001</ele><time>2026-04-25T16:10:45.999Z</time></trkpt><trkpt lat="44.463120874387165" lon="9.33319893498683"><ele>866.0</ele><time>2026-04-25T16:10:46.999Z</time></trkpt><trkpt lat="44.46314835433643" lon="9.333348355719304"><ele>868.0</ele><time>2026-04-25T16:10:47.999Z</time></trkpt><trkpt lat="44.46317773310976" lon="9.333495311424857"><ele>869.9999999999999</ele><time>2026-04-25T16:10:48.999Z</time></trkpt><trkpt lat="44.46317989100868" lon="9.333632311369033"><ele>871.9999999999999</ele><time>2026-04-25T16:10:49.999Z</time></trkpt><trkpt lat="44.46318757165413" lon="9.33376968797289"><ele>874.0</ele><time>2026-04-25T16:10:50.999Z</time></trkpt><trkpt lat="44.463174843991716" lon="9.333894513635654"><ele>876.0</ele><time>2026-04-25T16:10:51.999Z</time></trkpt><trkpt lat="44.4631419520498" lon="9.334029826459158"><ele>877.5999999999999</ele><time>2026-04-25T16:10:52.999Z</time></trkpt><trkpt lat="44.46310209443837" lon="9.334169074619517"><ele>879.1999999999999</ele><time>2026-04-25T16:10:53.999Z</time></trkpt><trkpt lat="44.46306072828416" lon="9.334305639577998"><ele>880.8000000000001</ele><time>2026-04-25T16:10:54.999Z</time></trkpt><trkpt lat="44.4630246499316" lon="9.334420614556405"><ele>882.4000000000001</ele><time>2026-04-25T16:10:55.999Z</time></trkpt><trkpt lat="44.463000754983895" lon="9.334554046407808"><ele>884.0</ele><time>2026-04-25T16:10:56.999Z</time></trkpt><trkpt lat="44.46295967320945" lon="9.334668445822997"><ele>884.1666666666667</ele><time>2026-04-25T16:10:57.999Z</time></trkpt><trkpt lat="44.46292128837614" lon="9.334776830177955"><ele>884.3333333333334</ele><time>2026-04-25T16:10:58.999Z</time></trkpt><trkpt lat="44.46287178028275" lon="9.334870687148491"><ele>884.5</ele><time>2026-04-25T16:10:59.999Z</time></trkpt><trkpt lat="44.462822753192036" lon="9.33498218262645"><ele>884.6666666666667</ele><time>2026-04-25T16:11:00.999Z</time></trkpt><trkpt lat="44.46277587157715" lon="9.335094303575776"><ele>884.8333333333334</ele><time>2026-04-25T16:11:01.999Z</time></trkpt><trkpt lat="44.46272973220462" lon="9.335192187386733"><ele>885.0</ele><time>2026-04-25T16:11:02.999Z</time></trkpt><trkpt lat="44.46268796922102" lon="9.335280932795866"><ele>885.0</ele><time>2026-04-25T16:11:03.999Z</time></trkpt><trkpt lat="44.46264890733831" lon="9.335363792678631"><ele>885.0</ele><time>2026-04-25T16:11:04.999Z</time></trkpt><trkpt lat="44.462606931181696" lon="9.335438148312576"><ele>885.0</ele><time>2026-04-25T16:11:05.999Z</time></trkpt><trkpt lat="44.462574685416136" lon="9.335516746986361"><ele>885.0</ele><time>2026-04-25T16:11:06.999Z</time></trkpt><trkpt lat="44.46255341234916" lon="9.33560154542582"><ele>885.0</ele><time>2026-04-25T16:11:07.999Z</time></trkpt><trkpt lat="44.46253371548714" lon="9.335697127577358"><ele>885.0</ele><time>2026-04-25T16:11:08.999Z</time></trkpt><trkpt lat="44.46257215694811" lon="9.335809692407468"><ele>885.0</ele><time>2026-04-25T16:11:09.999Z</time></trkpt><trkpt lat="44.462613515652876" lon="9.335919732084843"><ele>884.0</ele><time>2026-04-25T16:11:10.999Z</time></trkpt><trkpt lat="44.46266708578588" lon="9.336031926190751"><ele>883.0</ele><time>2026-04-25T16:11:11.999Z</time></trkpt><trkpt lat="44.462721937185584" lon="9.336155862226041"><ele>882.0</ele><time>2026-04-25T16:11:12.999Z</time></trkpt><trkpt lat="44.462792670148225" lon="9.336275707158944"><ele>881.0</ele><time>2026-04-25T16:11:13.999Z</time></trkpt><trkpt lat="44.4628906971992" lon="9.336368957721975"><ele>880.0</ele><time>2026-04-25T16:11:14.999Z</time></trkpt><trkpt lat="44.46300696418223" lon="9.336433881885782"><ele>880.0</ele><time>2026-04-25T16:11:15.999Z</time></trkpt><trkpt lat="44.46310910720476" lon="9.336529742121822"><ele>880.0</ele><time>2026-04-25T16:11:16.999Z</time></trkpt><trkpt lat="44.46320717624757" lon="9.336610398796822"><ele>880.0</ele><time>2026-04-25T16:11:17.999Z</time></trkpt><trkpt lat="44.463292428297656" lon="9.336703855291915"><ele>880.0</ele><time>2026-04-25T16:11:18.999Z</time></trkpt><trkpt lat="44.46337305218231" lon="9.336801800874332"><ele>880.0</ele><time>2026-04-25T16:11:19.999Z</time></trkpt><trkpt lat="44.46345973980935" lon="9.336881543022324"><ele>880.0</ele><time>2026-04-25T16:11:20.999Z</time></trkpt><trkpt lat="44.46353202178599" lon="9.336985133538965"><ele>880.0</ele><time>2026-04-25T16:11:21.999Z</time></trkpt><trkpt lat="44.46356903415021" lon="9.337129541105854"><ele>880.0</ele><time>2026-04-25T16:11:22.999Z</time></trkpt><trkpt lat="44.46360047484755" lon="9.337277769490367"><ele>880.0</ele><time>2026-04-25T16:11:23.999Z</time></trkpt><trkpt lat="44.46361950993931" lon="9.337423913807926"><ele>875.0</ele><time>2026-04-25T16:11:24.999Z</time></trkpt><trkpt lat="44.46360087577645" lon="9.337557970392888"><ele>870.0</ele><time>2026-04-25T16:11:25.999Z</time></trkpt><trkpt lat="44.463548445203635" lon="9.337668164305468"><ele>865.0</ele><time>2026-04-25T16:11:26.999Z</time></trkpt><trkpt lat="44.46351942752222" lon="9.337793000573033"><ele>860.0</ele><time>2026-04-25T16:11:27.999Z</time></trkpt><trkpt lat="44.463483684181874" lon="9.337907503620396"><ele>855.0</ele><time>2026-04-25T16:11:28.999Z</time></trkpt><trkpt lat="44.46346644647101" lon="9.338037720561324"><ele>854.6</ele><time>2026-04-25T16:11:29.999Z</time></trkpt><trkpt lat="44.46346809454979" lon="9.338177189299946"><ele>854.2</ele><time>2026-04-25T16:11:30.999Z</time></trkpt><trkpt lat="44.463478487830294" lon="9.33833415809935"><ele>853.8</ele><time>2026-04-25T16:11:31.999Z</time></trkpt><trkpt lat="44.463478542078974" lon="9.33849752933364"><ele>853.4</ele><time>2026-04-25T16:11:32.999Z</time></trkpt><trkpt lat="44.463455636149064" lon="9.338661515966296"><ele>853.0</ele><time>2026-04-25T16:11:33.999Z</time></trkpt><trkpt lat="44.46341682578499" lon="9.338820545863001"><ele>854.2</ele><time>2026-04-25T16:11:34.999Z</time></trkpt><trkpt lat="44.46335221154975" lon="9.338952638620421"><ele>855.4</ele><time>2026-04-25T16:11:35.999Z</time></trkpt><trkpt lat="44.46330595731214" lon="9.339093750589488"><ele>856.6000000000001</ele><time>2026-04-25T16:11:36.999Z</time></trkpt><trkpt lat="44.463259086750554" lon="9.339222755146967"><ele>857.8000000000001</ele><time>2026-04-25T16:11:37.999Z</time></trkpt><trkpt lat="44.463232153996955" lon="9.339377295962544"><ele>859.0</ele><time>2026-04-25T16:11:38.999Z</time></trkpt><trkpt lat="44.463215659816505" lon="9.339541647674444"><ele>859.0</ele><time>2026-04-25T16:11:39.999Z</time></trkpt><trkpt lat="44.46318237695438" lon="9.339693501996004"><ele>859.0000000000001</ele><time>2026-04-25T16:11:40.999Z</time></trkpt><trkpt lat="44.46315299609499" lon="9.339838779075913"><ele>859.0000000000001</ele><time>2026-04-25T16:11:41.999Z</time></trkpt><trkpt lat="44.463116946494395" lon="9.339978167322727"><ele>859.0</ele><time>2026-04-25T16:11:42.999Z</time></trkpt><trkpt lat="44.46305155282113" lon="9.340095926179194"><ele>859.0</ele><time>2026-04-25T16:11:43.999Z</time></trkpt><trkpt lat="44.46297225095531" lon="9.340204559339616"><ele>857.0</ele><time>2026-04-25T16:11:44.999Z</time></trkpt><trkpt lat="44.462880245233855" lon="9.340305127091101"><ele>855.0</ele><time>2026-04-25T16:11:45.999Z</time></trkpt><trkpt lat="44.462784399923414" lon="9.340406538279082"><ele>853.0</ele><time>2026-04-25T16:11:46.999Z</time></trkpt><trkpt lat="44.46269890437783" lon="9.340506323045082"><ele>851.0</ele><time>2026-04-25T16:11:47.999Z</time></trkpt><trkpt lat="44.462620037485785" lon="9.340608951557881"><ele>851.0</ele><time>2026-04-25T16:11:48.999Z</time></trkpt><trkpt lat="44.462542058279546" lon="9.340707804005895"><ele>851.0</ele><time>2026-04-25T16:11:49.999Z</time></trkpt><trkpt lat="44.46247565248608" lon="9.340811014280913"><ele>851.0</ele><time>2026-04-25T16:11:50.999Z</time></trkpt><trkpt lat="44.46241459633817" lon="9.340910531796329"><ele>851.0</ele><time>2026-04-25T16:11:51.999Z</time></trkpt><trkpt lat="44.46235682036934" lon="9.341005926909997"><ele>851.0</ele><time>2026-04-25T16:11:52.999Z</time></trkpt><trkpt lat="44.462302557721976" lon="9.341088313378119"><ele>851.0</ele><time>2026-04-25T16:11:53.999Z</time></trkpt><trkpt lat="44.462252582082066" lon="9.341225105804666"><ele>851.0</ele><time>2026-04-25T16:11:55.999Z</time></trkpt><trkpt lat="44.462266351713545" lon="9.341382201855406"><ele>851.0</ele><time>2026-04-25T16:11:57.999Z</time></trkpt><trkpt lat="44.46230989306122" lon="9.341456267669342"><ele>851.0</ele><time>2026-04-25T16:11:58.999Z</time></trkpt><trkpt lat="44.46237843453247" lon="9.341515863216495"><ele>851.0</ele><time>2026-04-25T16:11:59.999Z</time></trkpt><trkpt lat="44.462475385592064" lon="9.34151656013471"><ele>848.4</ele><time>2026-04-25T16:12:00.999Z</time></trkpt><trkpt lat="44.46257817483235" lon="9.341524626815405"><ele>845.8</ele><time>2026-04-25T16:12:01.999Z</time></trkpt><trkpt lat="44.46267585537464" lon="9.341527036939032"><ele>843.1999999999999</ele><time>2026-04-25T16:12:02.999Z</time></trkpt><trkpt lat="44.46276197651561" lon="9.34155284467273"><ele>840.5999999999999</ele><time>2026-04-25T16:12:03.998Z</time></trkpt><trkpt lat="44.46284016095512" lon="9.341603305259492"><ele>838.0</ele><time>2026-04-25T16:12:04.998Z</time></trkpt><trkpt lat="44.46291861085051" lon="9.341631082539063"><ele>836.8</ele><time>2026-04-25T16:12:05.998Z</time></trkpt><trkpt lat="44.46300125844215" lon="9.34163123285623"><ele>835.5999999999999</ele><time>2026-04-25T16:12:06.998Z</time></trkpt><trkpt lat="44.46308389926724" lon="9.341594183902302"><ele>834.4000000000001</ele><time>2026-04-25T16:12:07.998Z</time></trkpt><trkpt lat="44.46316888143635" lon="9.341503146723548"><ele>833.2</ele><time>2026-04-25T16:12:08.998Z</time></trkpt><trkpt lat="44.463270693462974" lon="9.341369580394675"><ele>832.0</ele><time>2026-04-25T16:12:09.998Z</time></trkpt><trkpt lat="44.46336619568376" lon="9.341217647627664"><ele>830.25</ele><time>2026-04-25T16:12:10.998Z</time></trkpt><trkpt lat="44.463459788897204" lon="9.341071048578307"><ele>828.5</ele><time>2026-04-25T16:12:11.998Z</time></trkpt><trkpt lat="44.46357540734295" lon="9.340944764297122"><ele>826.75</ele><time>2026-04-25T16:12:12.998Z</time></trkpt><trkpt lat="44.46369652453863" lon="9.340799774514258"><ele>825.0</ele><time>2026-04-25T16:12:13.998Z</time></trkpt><trkpt lat="44.463822149291914" lon="9.34066031462019"><ele>832.5</ele><time>2026-04-25T16:12:14.998Z</time></trkpt><trkpt lat="44.463940328508116" lon="9.34054456097349"><ele>840.0</ele><time>2026-04-25T16:12:15.998Z</time></trkpt><trkpt lat="44.46404994556931" lon="9.34048860908006"><ele>847.5</ele><time>2026-04-25T16:12:16.998Z</time></trkpt><trkpt lat="44.46414912420918" lon="9.34042166704402"><ele>855.0</ele><time>2026-04-25T16:12:17.998Z</time></trkpt><trkpt lat="44.46424905521151" lon="9.340380167506288"><ele>855.0</ele><time>2026-04-25T16:12:18.998Z</time></trkpt><trkpt lat="44.464342299147816" lon="9.340300700156444"><ele>855.0</ele><time>2026-04-25T16:12:19.998Z</time></trkpt><trkpt lat="44.464418332807796" lon="9.34018879374116"><ele>855.0</ele><time>2026-04-25T16:12:20.998Z</time></trkpt><trkpt lat="44.46447621374516" lon="9.340061398235727"><ele>855.0</ele><time>2026-04-25T16:12:21.998Z</time></trkpt><trkpt lat="44.46451766293877" lon="9.339938338068633"><ele>855.0</ele><time>2026-04-25T16:12:22.998Z</time></trkpt><trkpt lat="44.46454808588478" lon="9.33984222584837"><ele>855.0</ele><time>2026-04-25T16:12:23.998Z</time></trkpt><trkpt lat="44.46460975459111" lon="9.339756325222943"><ele>855.0</ele><time>2026-04-25T16:12:24.998Z</time></trkpt><trkpt lat="44.46465956143662" lon="9.339673421370222"><ele>855.0</ele><time>2026-04-25T16:12:25.998Z</time></trkpt><trkpt lat="44.464732315265906" lon="9.339637583000073"><ele>855.0</ele><time>2026-04-25T16:12:26.998Z</time></trkpt><trkpt lat="44.46481230020173" lon="9.339645427163562"><ele>855.0</ele><time>2026-04-25T16:12:27.998Z</time></trkpt><trkpt lat="44.464886776295344" lon="9.33972884158828"><ele>855.0</ele><time>2026-04-25T16:12:28.998Z</time></trkpt><trkpt lat="44.464951487598995" lon="9.339818491642133"><ele>851.1666666666666</ele><time>2026-04-25T16:12:29.998Z</time></trkpt><trkpt lat="44.46500613407456" lon="9.339892660265937"><ele>847.3333333333333</ele><time>2026-04-25T16:12:30.998Z</time></trkpt><trkpt lat="44.4650566852556" lon="9.339964433258016"><ele>843.5</ele><time>2026-04-25T16:12:31.998Z</time></trkpt><trkpt lat="44.46512569807784" lon="9.340012348111799"><ele>839.6666666666666</ele><time>2026-04-25T16:12:32.998Z</time></trkpt><trkpt lat="44.46521067932974" lon="9.340028622001658"><ele>835.8333333333333</ele><time>2026-04-25T16:12:33.998Z</time></trkpt><trkpt lat="44.46530052490957" lon="9.340002059141982"><ele>832.0</ele><time>2026-04-25T16:12:34.999Z</time></trkpt><trkpt lat="44.46538695873803" lon="9.33994560556145"><ele>833.6</ele><time>2026-04-25T16:12:35.999Z</time></trkpt><trkpt lat="44.465472613824765" lon="9.339940224842625"><ele>835.2</ele><time>2026-04-25T16:12:36.999Z</time></trkpt><trkpt lat="44.465557083046754" lon="9.339940352813164"><ele>836.8</ele><time>2026-04-25T16:12:37.999Z</time></trkpt><trkpt lat="44.465644946294795" lon="9.339977922297587"><ele>838.4</ele><time>2026-04-25T16:12:38.999Z</time></trkpt><trkpt lat="44.46572599876737" lon="9.340048994523727"><ele>840.0</ele><time>2026-04-25T16:12:39.999Z</time></trkpt><trkpt lat="44.46581530577274" lon="9.340106034449617"><ele>840.0</ele><time>2026-04-25T16:12:40.999Z</time></trkpt><trkpt lat="44.46588857158762" lon="9.340180802249181"><ele>840.0</ele><time>2026-04-25T16:12:41.999Z</time></trkpt><trkpt lat="44.46596227291144" lon="9.340247219489429"><ele>840.0</ele><time>2026-04-25T16:12:42.999Z</time></trkpt><trkpt lat="44.466037873070015" lon="9.340307963602472"><ele>840.0</ele><time>2026-04-25T16:12:43.999Z</time></trkpt><trkpt lat="44.46611975706175" lon="9.34035380263831"><ele>840.0</ele><time>2026-04-25T16:12:44.999Z</time></trkpt><trkpt lat="44.46621346070725" lon="9.3403668180431"><ele>840.0</ele><time>2026-04-25T16:12:45.999Z</time></trkpt><trkpt lat="44.46631884851255" lon="9.340336162109557"><ele>839.6</ele><time>2026-04-25T16:12:46.999Z</time></trkpt><trkpt lat="44.466421714018225" lon="9.34027080526636"><ele>839.2</ele><time>2026-04-25T16:12:47.999Z</time></trkpt><trkpt lat="44.46651244932179" lon="9.340199400956068"><ele>838.8</ele><time>2026-04-25T16:12:48.999Z</time></trkpt><trkpt lat="44.46660792153135" lon="9.340162251598526"><ele>838.4</ele><time>2026-04-25T16:12:49.999Z</time></trkpt><trkpt lat="44.46669319926269" lon="9.34011434316715"><ele>838.0</ele><time>2026-04-25T16:12:50.999Z</time></trkpt><trkpt lat="44.46678324618801" lon="9.340099200672759"><ele>838.0</ele><time>2026-04-25T16:12:51.999Z</time></trkpt><trkpt lat="44.46687459849324" lon="9.340122859075718"><ele>838.0</ele><time>2026-04-25T16:12:52.999Z</time></trkpt><trkpt lat="44.46697358967206" lon="9.34014578161621"><ele>838.0</ele><time>2026-04-25T16:12:53.999Z</time></trkpt><trkpt lat="44.46706403871714" lon="9.34018845870698"><ele>838.0</ele><time>2026-04-25T16:12:54.999Z</time></trkpt><trkpt lat="44.46713888451045" lon="9.340248997854513"><ele>838.0</ele><time>2026-04-25T16:12:55.999Z</time></trkpt><trkpt lat="44.46720237818614" lon="9.340326010370745"><ele>837.1666666666666</ele><time>2026-04-25T16:12:56.999Z</time></trkpt><trkpt lat="44.46728883947597" lon="9.340368628823352"><ele>836.3333333333333</ele><time>2026-04-25T16:12:57.999Z</time></trkpt><trkpt lat="44.46737263058294" lon="9.340416255015318"><ele>835.5</ele><time>2026-04-25T16:12:58.999Z</time></trkpt><trkpt lat="44.46745578469649" lon="9.340440397337822"><ele>834.6666666666667</ele><time>2026-04-25T16:12:59.999Z</time></trkpt><trkpt lat="44.46753798722281" lon="9.340438196246355"><ele>833.8333333333334</ele><time>2026-04-25T16:13:00.999Z</time></trkpt><trkpt lat="44.467620336991146" lon="9.340402256868407"><ele>833.0</ele><time>2026-04-25T16:13:01.999Z</time></trkpt><trkpt lat="44.46769708530506" lon="9.340345365239594"><ele>833.0</ele><time>2026-04-25T16:13:02.999Z</time></trkpt><trkpt lat="44.4677602972706" lon="9.340277563396436"><ele>833.0</ele><time>2026-04-25T16:13:03.999Z</time></trkpt><trkpt lat="44.46781867211749" lon="9.340233170644215"><ele>833.0</ele><time>2026-04-25T16:13:04.999Z</time></trkpt><trkpt lat="44.46788334754585" lon="9.340203507050216"><ele>833.0</ele><time>2026-04-25T16:13:05.999Z</time></trkpt><trkpt lat="44.46795287634499" lon="9.34022336485268"><ele>833.0</ele><time>2026-04-25T16:13:06.999Z</time></trkpt><trkpt lat="44.4680179432337" lon="9.340264409614747"><ele>833.0</ele><time>2026-04-25T16:13:07.999Z</time></trkpt><trkpt lat="44.46808175774597" lon="9.340311354424154"><ele>833.0</ele><time>2026-04-25T16:13:08.999Z</time></trkpt><trkpt lat="44.468129131055164" lon="9.340388268692992"><ele>832.8333333333334</ele><time>2026-04-25T16:13:09.999Z</time></trkpt><trkpt lat="44.46819788101384" lon="9.340432163361253"><ele>832.6666666666667</ele><time>2026-04-25T16:13:10.999Z</time></trkpt><trkpt lat="44.46827732495912" lon="9.340451319159161"><ele>832.5</ele><time>2026-04-25T16:13:11.999Z</time></trkpt><trkpt lat="44.468354534117175" lon="9.34042684996666"><ele>832.3333333333333</ele><time>2026-04-25T16:13:12.999Z</time></trkpt><trkpt lat="44.468425384365155" lon="9.340373577439452"><ele>832.1666666666666</ele><time>2026-04-25T16:13:13.999Z</time></trkpt><trkpt lat="44.468491734547285" lon="9.340316867301313"><ele>832.0</ele><time>2026-04-25T16:13:14.999Z</time></trkpt><trkpt lat="44.46856521263655" lon="9.34028690286946"><ele>832.0</ele><time>2026-04-25T16:13:15.999Z</time></trkpt><trkpt lat="44.468649905826" lon="9.340295106109872"><ele>832.0</ele><time>2026-04-25T16:13:16.999Z</time></trkpt><trkpt lat="44.468737776044485" lon="9.340343151833222"><ele>832.0</ele><time>2026-04-25T16:13:17.999Z</time></trkpt><trkpt lat="44.46881037186843" lon="9.34043499544302"><ele>832.0</ele><time>2026-04-25T16:13:18.999Z</time></trkpt><trkpt lat="44.46889446402783" lon="9.340489797732817"><ele>832.0</ele><time>2026-04-25T16:13:19.999Z</time></trkpt><trkpt lat="44.46896829806464" lon="9.34056048164274"><ele>830.1666666666666</ele><time>2026-04-25T16:13:20.999Z</time></trkpt><trkpt lat="44.4690445732878" lon="9.340617359084629"><ele>828.3333333333333</ele><time>2026-04-25T16:13:21.999Z</time></trkpt><trkpt lat="44.46912450036777" lon="9.340673422047384"><ele>826.5</ele><time>2026-04-25T16:13:22.999Z</time></trkpt><trkpt lat="44.469215130926905" lon="9.340684409602911"><ele>824.6666666666667</ele><time>2026-04-25T16:13:23.999Z</time></trkpt><trkpt lat="44.46929796113222" lon="9.340689162379572"><ele>822.8333333333334</ele><time>2026-04-25T16:13:24.999Z</time></trkpt><trkpt lat="44.469371237882164" lon="9.340700610829472"><ele>821.0</ele><time>2026-04-25T16:13:25.999Z</time></trkpt><trkpt lat="44.4694377818306" lon="9.340733952091195"><ele>821.0000000000001</ele><time>2026-04-25T16:13:26.999Z</time></trkpt><trkpt lat="44.46949855149617" lon="9.340784840429619"><ele>821.0</ele><time>2026-04-25T16:13:27.999Z</time></trkpt><trkpt lat="44.46953039658832" lon="9.3408836438702"><ele>821.0</ele><time>2026-04-25T16:13:28.999Z</time></trkpt><trkpt lat="44.469539684529934" lon="9.340993808173463"><ele>821.0</ele><time>2026-04-25T16:13:29.999Z</time></trkpt><trkpt lat="44.46951927908648" lon="9.341103309507973"><ele>821.0000000000001</ele><time>2026-04-25T16:13:30.999Z</time></trkpt><trkpt lat="44.469471950083836" lon="9.341195246635692"><ele>821.0</ele><time>2026-04-25T16:13:31.999Z</time></trkpt><trkpt lat="44.469427472465625" lon="9.341278979981976"><ele>821.0000000000001</ele><time>2026-04-25T16:13:32.999Z</time></trkpt><trkpt lat="44.4694012623811" lon="9.341368756118635"><ele>821.0</ele><time>2026-04-25T16:13:33.999Z</time></trkpt><trkpt lat="44.46940029056134" lon="9.341467431279048"><ele>821.0</ele><time>2026-04-25T16:13:34.999Z</time></trkpt><trkpt lat="44.469414969969215" lon="9.341570151388536"><ele>821.0</ele><time>2026-04-25T16:13:35.999Z</time></trkpt><trkpt lat="44.46949407370149" lon="9.341648168694295"><ele>821.0000000000001</ele><time>2026-04-25T16:13:36.999Z</time></trkpt><trkpt lat="44.469563518785584" lon="9.341741561451549"><ele>821.0</ele><time>2026-04-25T16:13:37.999Z</time></trkpt><trkpt lat="44.46962611701211" lon="9.341856642100527"><ele>819.6666666666667</ele><time>2026-04-25T16:13:38.999Z</time></trkpt><trkpt lat="44.4697055523457" lon="9.341950810504098"><ele>818.3333333333334</ele><time>2026-04-25T16:13:39.999Z</time></trkpt><trkpt lat="44.46979293367937" lon="9.342018843676552"><ele>817.0</ele><time>2026-04-25T16:13:40.999Z</time></trkpt><trkpt lat="44.46987504200448" lon="9.342066029641824"><ele>815.6666666666667</ele><time>2026-04-25T16:13:41.999Z</time></trkpt><trkpt lat="44.46993428310409" lon="9.34212071662881"><ele>814.3333333333334</ele><time>2026-04-25T16:13:42.999Z</time></trkpt><trkpt lat="44.46998977413725" lon="9.342176976904721"><ele>813.0</ele><time>2026-04-25T16:13:43.999Z</time></trkpt><trkpt lat="44.47001092576971" lon="9.342266248021918"><ele>813.0</ele><time>2026-04-25T16:13:44.999Z</time></trkpt><trkpt lat="44.47000927139844" lon="9.342371106413475"><ele>813.0</ele><time>2026-04-25T16:13:45.999Z</time></trkpt><trkpt lat="44.46999124556194" lon="9.342479963870188"><ele>813.0</ele><time>2026-04-25T16:13:46.999Z</time></trkpt><trkpt lat="44.46997711254109" lon="9.34259208016379"><ele>813.0</ele><time>2026-04-25T16:13:47.999Z</time></trkpt><trkpt lat="44.46995566052025" lon="9.342708357413038"><ele>813.0</ele><time>2026-04-25T16:13:48.999Z</time></trkpt><trkpt lat="44.46997278321689" lon="9.34284350781572"><ele>813.0</ele><time>2026-04-25T16:13:49.998Z</time></trkpt><trkpt lat="44.47002021474398" lon="9.342983394304458"><ele>812.1666666666666</ele><time>2026-04-25T16:13:50.998Z</time></trkpt><trkpt lat="44.47007407550285" lon="9.343102806917605"><ele>811.3333333333333</ele><time>2026-04-25T16:13:51.998Z</time></trkpt><trkpt lat="44.47011520766596" lon="9.343172353641583"><ele>810.5</ele><time>2026-04-25T16:13:52.998Z</time></trkpt><trkpt lat="44.470146990674806" lon="9.343277966158494"><ele>809.6666666666666</ele><time>2026-04-25T16:13:53.998Z</time></trkpt><trkpt lat="44.47014314438527" lon="9.343386382975435"><ele>808.8333333333333</ele><time>2026-04-25T16:13:54.998Z</time></trkpt><trkpt lat="44.470087166246074" lon="9.343506099939635"><ele>808.0</ele><time>2026-04-25T16:13:55.998Z</time></trkpt><trkpt lat="44.47002501491259" lon="9.343610031752926"><ele>808.0</ele><time>2026-04-25T16:13:56.998Z</time></trkpt><trkpt lat="44.46997373285535" lon="9.343737606905696"><ele>808.0</ele><time>2026-04-25T16:13:57.998Z</time></trkpt><trkpt lat="44.46993433843554" lon="9.343869506842546"><ele>808.0</ele><time>2026-04-25T16:13:58.998Z</time></trkpt><trkpt lat="44.46987526062842" lon="9.343964069153035"><ele>808.0</ele><time>2026-04-25T16:13:59.998Z</time></trkpt><trkpt lat="44.469824141815764" lon="9.34404726828063"><ele>808.0</ele><time>2026-04-25T16:14:00.998Z</time></trkpt><trkpt lat="44.4697526570105" lon="9.344127993936073"><ele>808.5999999999999</ele><time>2026-04-25T16:14:01.998Z</time></trkpt><trkpt lat="44.46967278087585" lon="9.344218975046656"><ele>809.1999999999999</ele><time>2026-04-25T16:14:02.998Z</time></trkpt><trkpt lat="44.46958628843285" lon="9.344297759700881"><ele>809.8</ele><time>2026-04-25T16:14:03.998Z</time></trkpt><trkpt lat="44.46952406438888" lon="9.34441386275777"><ele>810.4</ele><time>2026-04-25T16:14:04.998Z</time></trkpt><trkpt lat="44.46948383509871" lon="9.344560542810841"><ele>811.0</ele><time>2026-04-25T16:14:05.998Z</time></trkpt><trkpt lat="44.46945801462371" lon="9.344727654666299"><ele>806.3333333333333</ele><time>2026-04-25T16:14:06.998Z</time></trkpt><trkpt lat="44.46943954420308" lon="9.344887939148999"><ele>801.6666666666666</ele><time>2026-04-25T16:14:07.998Z</time></trkpt><trkpt lat="44.469424570055224" lon="9.345025517131319"><ele>797.0</ele><time>2026-04-25T16:14:08.998Z</time></trkpt><trkpt lat="44.469411745571456" lon="9.345140175916052"><ele>792.3333333333333</ele><time>2026-04-25T16:14:09.998Z</time></trkpt><trkpt lat="44.469414527879216" lon="9.345243503452727"><ele>787.6666666666666</ele><time>2026-04-25T16:14:10.998Z</time></trkpt><trkpt lat="44.46943553574071" lon="9.34534114103737"><ele>783.0</ele><time>2026-04-25T16:14:11.998Z</time></trkpt><trkpt lat="44.469474607058295" lon="9.345423309064744"><ele>783.0</ele><time>2026-04-25T16:14:12.998Z</time></trkpt><trkpt lat="44.46953051455967" lon="9.345483937309593"><ele>783.0</ele><time>2026-04-25T16:14:13.998Z</time></trkpt><trkpt lat="44.46960760095089" lon="9.34549864074788"><ele>783.0</ele><time>2026-04-25T16:14:14.998Z</time></trkpt><trkpt lat="44.469688655367634" lon="9.34547677744006"><ele>783.0</ele><time>2026-04-25T16:14:15.998Z</time></trkpt><trkpt lat="44.469760459869725" lon="9.345391511369153"><ele>783.0</ele><time>2026-04-25T16:14:16.998Z</time></trkpt><trkpt lat="44.46984322248892" lon="9.345358192258455"><ele>783.0</ele><time>2026-04-25T16:14:17.998Z</time></trkpt><trkpt lat="44.469919044314885" lon="9.345322043745774"><ele>783.5</ele><time>2026-04-25T16:14:18.998Z</time></trkpt><trkpt lat="44.4699917190326" lon="9.3453058656605"><ele>784.0</ele><time>2026-04-25T16:14:19.998Z</time></trkpt><trkpt lat="44.470067654994864" lon="9.345295539750895"><ele>784.5</ele><time>2026-04-25T16:14:20.998Z</time></trkpt><trkpt lat="44.470145868714205" lon="9.345309265374489"><ele>785.0</ele><time>2026-04-25T16:14:21.998Z</time></trkpt><trkpt lat="44.470222021786064" lon="9.3453686798438"><ele>785.5</ele><time>2026-04-25T16:14:22.998Z</time></trkpt><trkpt lat="44.47027892012745" lon="9.34549035535437"><ele>786.0</ele><time>2026-04-25T16:14:23.998Z</time></trkpt><trkpt lat="44.47035486030999" lon="9.345631995371228"><ele>786.0</ele><time>2026-04-25T16:14:24.998Z</time></trkpt><trkpt lat="44.47043792386863" lon="9.345792483555428"><ele>786.0</ele><time>2026-04-25T16:14:25.998Z</time></trkpt><trkpt lat="44.47051306613016" lon="9.345937666989785"><ele>786.0</ele><time>2026-04-25T16:14:26.998Z</time></trkpt><trkpt lat="44.470578649356845" lon="9.346073361330825"><ele>786.0</ele><time>2026-04-25T16:14:27.998Z</time></trkpt><trkpt lat="44.47063336652671" lon="9.3462413251893"><ele>788.3333333333333</ele><time>2026-04-25T16:14:28.998Z</time></trkpt><trkpt lat="44.4706935788221" lon="9.346452691377976"><ele>790.6666666666666</ele><time>2026-04-25T16:14:29.998Z</time></trkpt><trkpt lat="44.470762100352104" lon="9.346704115440529"><ele>793.0</ele><time>2026-04-25T16:14:30.998Z</time></trkpt><trkpt lat="44.47082454999147" lon="9.34694665699361"><ele>793.0</ele><time>2026-04-25T16:14:31.998Z</time></trkpt><trkpt lat="44.470877295124566" lon="9.347174231508848"><ele>793.0</ele><time>2026-04-25T16:14:32.998Z</time></trkpt><trkpt lat="44.47092326488929" lon="9.347377231800591"><ele>793.0</ele><time>2026-04-25T16:14:33.998Z</time></trkpt><trkpt lat="44.47089994940343" lon="9.347571627253721"><ele>791.0</ele><time>2026-04-25T16:14:34.998Z</time></trkpt><trkpt lat="44.47087560466925" lon="9.347755710790038"><ele>789.0</ele><time>2026-04-25T16:14:35.998Z</time></trkpt><trkpt lat="44.470880950744295" lon="9.347904441230947"><ele>787.0</ele><time>2026-04-25T16:14:36.998Z</time></trkpt><trkpt lat="44.470908911161274" lon="9.348032146074848"><ele>785.0</ele><time>2026-04-25T16:14:37.998Z</time></trkpt><trkpt lat="44.47097362585096" lon="9.34817073263967"><ele>783.25</ele><time>2026-04-25T16:14:38.998Z</time></trkpt><trkpt lat="44.471018801677836" lon="9.348341023333024"><ele>781.5</ele><time>2026-04-25T16:14:39.998Z</time></trkpt><trkpt lat="44.47099314666579" lon="9.348545092232815"><ele>779.75</ele><time>2026-04-25T16:14:40.999Z</time></trkpt><trkpt lat="44.47098289473676" lon="9.348779748357765"><ele>778.0</ele><time>2026-04-25T16:14:41.999Z</time></trkpt><trkpt lat="44.47097394344029" lon="9.349034810077892"><ele>778.3333333333333</ele><time>2026-04-25T16:14:42.999Z</time></trkpt><trkpt lat="44.47092910407871" lon="9.349273323579059"><ele>778.6666666666667</ele><time>2026-04-25T16:14:43.999Z</time></trkpt><trkpt lat="44.47085938847808" lon="9.349525649873627"><ele>779.0</ele><time>2026-04-25T16:14:44.999Z</time></trkpt><trkpt lat="44.47076702452405" lon="9.349800852524387"><ele>779.0</ele><time>2026-04-25T16:14:45.999Z</time></trkpt><trkpt lat="44.47067884068876" lon="9.350097631442553"><ele>779.0</ele><time>2026-04-25T16:14:46.999Z</time></trkpt><trkpt lat="44.4706093587626" lon="9.350386011757601"><ele>779.0</ele><time>2026-04-25T16:14:47.999Z</time></trkpt><trkpt lat="44.470521000817804" lon="9.35064054139687"><ele>772.0</ele><time>2026-04-25T16:14:48.999Z</time></trkpt><trkpt lat="44.470431814126435" lon="9.350858914673234"><ele>765.0</ele><time>2026-04-25T16:14:49.999Z</time></trkpt><trkpt lat="44.470368038480046" lon="9.351040014700004"><ele>758.0</ele><time>2026-04-25T16:14:50.999Z</time></trkpt><trkpt lat="44.47032618864822" lon="9.351187753572038"><ele>751.0</ele><time>2026-04-25T16:14:51.999Z</time></trkpt><trkpt lat="44.47031094826762" lon="9.351330390063698"><ele>752.25</ele><time>2026-04-25T16:14:52.999Z</time></trkpt><trkpt lat="44.47032461350129" lon="9.351486804742711"><ele>753.5</ele><time>2026-04-25T16:14:53.999Z</time></trkpt><trkpt lat="44.47036097856873" lon="9.351667941048133"><ele>754.75</ele><time>2026-04-25T16:14:54.999Z</time></trkpt><trkpt lat="44.47038694429212" lon="9.351879213906729"><ele>756.0</ele><time>2026-04-25T16:14:55.999Z</time></trkpt><trkpt lat="44.4704155078062" lon="9.352076188281304"><ele>757.0</ele><time>2026-04-25T16:14:56.999Z</time></trkpt><trkpt lat="44.470419953534844" lon="9.352236530804339"><ele>758.0</ele><time>2026-04-25T16:14:57.999Z</time></trkpt><trkpt lat="44.470395805149906" lon="9.352380955410478"><ele>759.0</ele><time>2026-04-25T16:14:58.999Z</time></trkpt><trkpt lat="44.47034147344349" lon="9.352539972934377"><ele>760.0</ele><time>2026-04-25T16:14:59.999Z</time></trkpt><trkpt lat="44.470260829972105" lon="9.352707129374396"><ele>760.0</ele><time>2026-04-25T16:15:00.999Z</time></trkpt><trkpt lat="44.47018076307013" lon="9.352881997620818"><ele>760.0</ele><time>2026-04-25T16:15:01.999Z</time></trkpt><trkpt lat="44.47008348069189" lon="9.353043560254127"><ele>760.0</ele><time>2026-04-25T16:15:02.999Z</time></trkpt><trkpt lat="44.469965449941576" lon="9.353162373473296"><ele>760.0</ele><time>2026-04-25T16:15:03.999Z</time></trkpt><trkpt lat="44.4698201864629" lon="9.353209200048727"><ele>757.0</ele><time>2026-04-25T16:15:04.999Z</time></trkpt><trkpt lat="44.469670349108405" lon="9.353282019974799"><ele>754.0</ele><time>2026-04-25T16:15:05.999Z</time></trkpt><trkpt lat="44.469504399364155" lon="9.353319269554417"><ele>751.0</ele><time>2026-04-25T16:15:06.999Z</time></trkpt><trkpt lat="44.46935811906478" lon="9.353375868836727"><ele>751.0</ele><time>2026-04-25T16:15:07.999Z</time></trkpt><trkpt lat="44.46923310690743" lon="9.353440467077895"><ele>751.0</ele><time>2026-04-25T16:15:08.999Z</time></trkpt><trkpt lat="44.46912279427484" lon="9.353543344246797"><ele>751.0</ele><time>2026-04-25T16:15:09.999Z</time></trkpt><trkpt lat="44.469018207184064" lon="9.35370105865303"><ele>751.0</ele><time>2026-04-25T16:15:10.999Z</time></trkpt><trkpt lat="44.46891225580963" lon="9.353883063411745"><ele>751.6666666666667</ele><time>2026-04-25T16:15:11.999Z</time></trkpt><trkpt lat="44.46877632791743" lon="9.354027745659307"><ele>752.3333333333334</ele><time>2026-04-25T16:15:12.999Z</time></trkpt><trkpt lat="44.46860926762187" lon="9.354137188035013"><ele>753.0</ele><time>2026-04-25T16:15:13.999Z</time></trkpt><trkpt lat="44.468450299787484" lon="9.354246224352883"><ele>753.0</ele><time>2026-04-25T16:15:14.999Z</time></trkpt><trkpt lat="44.468308885819084" lon="9.354374611205772"><ele>753.0</ele><time>2026-04-25T16:15:15.999Z</time></trkpt><trkpt lat="44.46819003985896" lon="9.354514340189537"><ele>753.0</ele><time>2026-04-25T16:15:16.999Z</time></trkpt><trkpt lat="44.46808465042576" lon="9.354654292050345"><ele>753.0</ele><time>2026-04-25T16:15:17.999Z</time></trkpt><trkpt lat="44.46796575593232" lon="9.35471735167432"><ele>753.0</ele><time>2026-04-25T16:15:18.999Z</time></trkpt><trkpt lat="44.46787810792016" lon="9.35478877539458"><ele>753.0</ele><time>2026-04-25T16:15:19.999Z</time></trkpt><trkpt lat="44.46781540046462" lon="9.354870141754427"><ele>753.0</ele><time>2026-04-25T16:15:20.999Z</time></trkpt><trkpt lat="44.46779748633642" lon="9.354987996769474"><ele>753.0</ele><time>2026-04-25T16:15:21.999Z</time></trkpt><trkpt lat="44.467821668490416" lon="9.355111889247892"><ele>753.0</ele><time>2026-04-25T16:15:22.999Z</time></trkpt><trkpt lat="44.46788090811964" lon="9.35521394663279"><ele>753.0</ele><time>2026-04-25T16:15:23.999Z</time></trkpt><trkpt lat="44.4679528294052" lon="9.355293373143493"><ele>753.0</ele><time>2026-04-25T16:15:24.999Z</time></trkpt><trkpt lat="44.46808409734421" lon="9.355269936367648"><ele>753.0</ele><time>2026-04-25T16:15:25.999Z</time></trkpt><trkpt lat="44.46822431658098" lon="9.355256405059352"><ele>753.0</ele><time>2026-04-25T16:15:26.999Z</time></trkpt><trkpt lat="44.46839011908174" lon="9.355262514465576"><ele>753.0</ele><time>2026-04-25T16:15:27.999Z</time></trkpt><trkpt lat="44.46856097087553" lon="9.355279858194917"><ele>753.0</ele><time>2026-04-25T16:15:28.999Z</time></trkpt><trkpt lat="44.468731786946755" lon="9.35529118921191"><ele>757.0</ele><time>2026-04-25T16:15:29.999Z</time></trkpt><trkpt lat="44.46890380240101" lon="9.355280205379442"><ele>761.0</ele><time>2026-04-25T16:15:30.999Z</time></trkpt><trkpt lat="44.46908363986871" lon="9.355234319243191"><ele>765.0</ele><time>2026-04-25T16:15:31.999Z</time></trkpt><trkpt lat="44.469252905020696" lon="9.355162336168943"><ele>765.0</ele><time>2026-04-25T16:15:32.999Z</time></trkpt><trkpt lat="44.469409520594745" lon="9.355092735366325"><ele>765.0</ele><time>2026-04-25T16:15:33.999Z</time></trkpt><trkpt lat="44.46950547370861" lon="9.35506848576108"><ele>765.0</ele><time>2026-04-25T16:15:34.999Z</time></trkpt><trkpt lat="44.469600514729265" lon="9.355060373346081"><ele>765.0</ele><time>2026-04-25T16:15:35.999Z</time></trkpt><trkpt lat="44.46969268213425" lon="9.355174710735742"><ele>768.0</ele><time>2026-04-25T16:15:36.999Z</time></trkpt><trkpt lat="44.46981956998217" lon="9.355246977357142"><ele>771.0</ele><time>2026-04-25T16:15:37.999Z</time></trkpt><trkpt lat="44.469976163585386" lon="9.355289057829795"><ele>774.0</ele><time>2026-04-25T16:15:38.999Z</time></trkpt><trkpt lat="44.47015029251808" lon="9.35535476301479"><ele>774.0</ele><time>2026-04-25T16:15:39.999Z</time></trkpt><trkpt lat="44.470314892641575" lon="9.35544781705585"><ele>774.0</ele><time>2026-04-25T16:15:40.999Z</time></trkpt><trkpt lat="44.47046292241271" lon="9.35554256759142"><ele>774.0</ele><time>2026-04-25T16:15:41.999Z</time></trkpt><trkpt lat="44.470613531972305" lon="9.355602813991077"><ele>767.4000000000001</ele><time>2026-04-25T16:15:42.999Z</time></trkpt><trkpt lat="44.47074526839318" lon="9.355655544526789"><ele>760.8</ele><time>2026-04-25T16:15:43.999Z</time></trkpt><trkpt lat="44.47083453684361" lon="9.355710757009028"><ele>754.2</ele><time>2026-04-25T16:15:44.999Z</time></trkpt><trkpt lat="44.470901801723365" lon="9.35572409689932"><ele>747.5999999999999</ele><time>2026-04-25T16:15:45.999Z</time></trkpt><trkpt lat="44.47098914958006" lon="9.355670853168638"><ele>741.0</ele><time>2026-04-25T16:15:46.999Z</time></trkpt><trkpt lat="44.47108698354778" lon="9.35559994008263"><ele>741.0</ele><time>2026-04-25T16:15:47.999Z</time></trkpt><trkpt lat="44.471180902471794" lon="9.355640371684727"><ele>741.0</ele><time>2026-04-25T16:15:48.999Z</time></trkpt><trkpt lat="44.471248016848435" lon="9.355696458831021"><ele>741.0</ele><time>2026-04-25T16:15:49.999Z</time></trkpt><trkpt lat="44.47128635663793" lon="9.355817014511118"><ele>741.0</ele><time>2026-04-25T16:15:50.999Z</time></trkpt><trkpt lat="44.47127659074058" lon="9.355976558809681"><ele>741.0</ele><time>2026-04-25T16:15:51.999Z</time></trkpt><trkpt lat="44.47128746093492" lon="9.35615500984467"><ele>741.0</ele><time>2026-04-25T16:15:52.999Z</time></trkpt><trkpt lat="44.471255603260765" lon="9.356317268056168"><ele>741.0</ele><time>2026-04-25T16:15:53.999Z</time></trkpt><trkpt lat="44.4711509121695" lon="9.356420033144216"><ele>741.0</ele><time>2026-04-25T16:15:54.999Z</time></trkpt><trkpt lat="44.471043469952434" lon="9.356568931313621"><ele>741.0</ele><time>2026-04-25T16:15:55.998Z</time></trkpt><trkpt lat="44.4709295629395" lon="9.356745215543365"><ele>737.6666666666666</ele><time>2026-04-25T16:15:56.998Z</time></trkpt><trkpt lat="44.47079666740239" lon="9.35689926964266"><ele>734.3333333333333</ele><time>2026-04-25T16:15:57.998Z</time></trkpt><trkpt lat="44.47067214646283" lon="9.357024135585077"><ele>731.0</ele><time>2026-04-25T16:15:58.998Z</time></trkpt><trkpt lat="44.470552300121945" lon="9.357131311075031"><ele>732.4</ele><time>2026-04-25T16:15:59.998Z</time></trkpt><trkpt lat="44.47044884222828" lon="9.357223211266737"><ele>733.8</ele><time>2026-04-25T16:16:00.998Z</time></trkpt><trkpt lat="44.470379231592915" lon="9.357334187061333"><ele>735.1999999999999</ele><time>2026-04-25T16:16:01.998Z</time></trkpt><trkpt lat="44.47035158796635" lon="9.357469153339409"><ele>736.5999999999999</ele><time>2026-04-25T16:16:02.998Z</time></trkpt><trkpt lat="44.47034575620083" lon="9.357632285682909"><ele>738.0</ele><time>2026-04-25T16:16:03.998Z</time></trkpt><trkpt lat="44.47035482347103" lon="9.357802846629797"><ele>736.5999999999999</ele><time>2026-04-25T16:16:04.998Z</time></trkpt><trkpt lat="44.47037859270425" lon="9.357958699957083"><ele>735.1999999999999</ele><time>2026-04-25T16:16:05.998Z</time></trkpt><trkpt lat="44.47043867173885" lon="9.358076792742587"><ele>733.8</ele><time>2026-04-25T16:16:06.998Z</time></trkpt><trkpt lat="44.470522773923285" lon="9.358144204864441"><ele>732.4</ele><time>2026-04-25T16:16:07.998Z</time></trkpt><trkpt lat="44.47061936827562" lon="9.358154602210773"><ele>731.0</ele><time>2026-04-25T16:16:08.998Z</time></trkpt><trkpt lat="44.4707176986951" lon="9.358109231749625"><ele>731.0</ele><time>2026-04-25T16:16:09.998Z</time></trkpt><trkpt lat="44.470808763941655" lon="9.358088013017612"><ele>731.0</ele><time>2026-04-25T16:16:10.998Z</time></trkpt><trkpt lat="44.470877250743534" lon="9.358128865164128"><ele>731.0</ele><time>2026-04-25T16:16:11.998Z</time></trkpt><trkpt lat="44.470920728087414" lon="9.358220925377083"><ele>731.0</ele><time>2026-04-25T16:16:12.998Z</time></trkpt><trkpt lat="44.470946564545834" lon="9.358338991314277"><ele>731.0</ele><time>2026-04-25T16:16:13.998Z</time></trkpt><trkpt lat="44.470919865349835" lon="9.358474934267676"><ele>731.0</ele><time>2026-04-25T16:16:14.998Z</time></trkpt><trkpt lat="44.47090433765518" lon="9.358640819039"><ele>731.0</ele><time>2026-04-25T16:16:15.998Z</time></trkpt><trkpt lat="44.47093667159711" lon="9.35883203798743"><ele>731.0</ele><time>2026-04-25T16:16:16.998Z</time></trkpt><trkpt lat="44.47097513811708" lon="9.359029982874466"><ele>731.0</ele><time>2026-04-25T16:16:17.998Z</time></trkpt><trkpt lat="44.47096319002466" lon="9.35921616737668"><ele>731.0</ele><time>2026-04-25T16:16:18.998Z</time></trkpt><trkpt lat="44.4709337398189" lon="9.359388493087373"><ele>729.4</ele><time>2026-04-25T16:16:19.998Z</time></trkpt><trkpt lat="44.47091405343166" lon="9.359560884914409"><ele>727.8</ele><time>2026-04-25T16:16:20.998Z</time></trkpt><trkpt lat="44.47089083363668" lon="9.359706392958643"><ele>726.1999999999999</ele><time>2026-04-25T16:16:21.998Z</time></trkpt><trkpt lat="44.47090951328741" lon="9.35983634382059"><ele>724.5999999999999</ele><time>2026-04-25T16:16:22.998Z</time></trkpt><trkpt lat="44.4709690912815" lon="9.35993714810727"><ele>723.0</ele><time>2026-04-25T16:16:23.998Z</time></trkpt><trkpt lat="44.47107493003478" lon="9.360002414790022"><ele>722.5</ele><time>2026-04-25T16:16:24.998Z</time></trkpt><trkpt lat="44.47118101395002" lon="9.360098435735512"><ele>722.0</ele><time>2026-04-25T16:16:25.998Z</time></trkpt><trkpt lat="44.47130820299014" lon="9.360183462802913"><ele>721.5</ele><time>2026-04-25T16:16:26.998Z</time></trkpt><trkpt lat="44.4714283048698" lon="9.360263036092947"><ele>721.0</ele><time>2026-04-25T16:16:27.998Z</time></trkpt><trkpt lat="44.47153779641786" lon="9.360335926315509"><ele>719.4</ele><time>2026-04-25T16:16:28.998Z</time></trkpt><trkpt lat="44.47162660003383" lon="9.360417267953995"><ele>717.8</ele><time>2026-04-25T16:16:29.998Z</time></trkpt><trkpt lat="44.471696550062774" lon="9.360532187776858"><ele>716.1999999999999</ele><time>2026-04-25T16:16:30.998Z</time></trkpt><trkpt lat="44.47176889079876" lon="9.360656898463668"><ele>714.5999999999999</ele><time>2026-04-25T16:16:31.998Z</time></trkpt><trkpt lat="44.47182004398492" lon="9.360802292001008"><ele>713.0</ele><time>2026-04-25T16:16:32.998Z</time></trkpt><trkpt lat="44.47188546507066" lon="9.360926577679734"><ele>713.0</ele><time>2026-04-25T16:16:33.998Z</time></trkpt><trkpt lat="44.471970392933194" lon="9.361053817169829"><ele>713.0</ele><time>2026-04-25T16:16:34.998Z</time></trkpt><trkpt lat="44.47210042505294" lon="9.361106048870234"><ele>713.0</ele><time>2026-04-25T16:16:35.998Z</time></trkpt><trkpt lat="44.47222284461882" lon="9.361141284866536"><ele>713.0</ele><time>2026-04-25T16:16:36.998Z</time></trkpt><trkpt lat="44.47233095836815" lon="9.361208727770919"><ele>715.0</ele><time>2026-04-25T16:16:37.998Z</time></trkpt><trkpt lat="44.47241587365631" lon="9.361362799635351"><ele>717.0</ele><time>2026-04-25T16:16:38.998Z</time></trkpt><trkpt lat="44.47251407881013" lon="9.361528867773188"><ele>719.0</ele><time>2026-04-25T16:16:39.998Z</time></trkpt><trkpt lat="44.47261715262933" lon="9.3617043867695"><ele>719.0</ele><time>2026-04-25T16:16:40.998Z</time></trkpt><trkpt lat="44.47271767909456" lon="9.361873826432358"><ele>719.0</ele><time>2026-04-25T16:16:41.998Z</time></trkpt><trkpt lat="44.472826447908254" lon="9.362034734745675"><ele>719.0</ele><time>2026-04-25T16:16:42.998Z</time></trkpt><trkpt lat="44.47289062407476" lon="9.362249692054142"><ele>725.3333333333333</ele><time>2026-04-25T16:16:43.998Z</time></trkpt><trkpt lat="44.47297253914429" lon="9.362469643912494"><ele>731.6666666666666</ele><time>2026-04-25T16:16:44.998Z</time></trkpt><trkpt lat="44.47302346756005" lon="9.362726832565071"><ele>738.0</ele><time>2026-04-25T16:16:45.999Z</time></trkpt><trkpt lat="44.473054945833" lon="9.362987027253949"><ele>735.0</ele><time>2026-04-25T16:16:46.999Z</time></trkpt><trkpt lat="44.4730805201296" lon="9.36323523102739"><ele>732.0</ele><time>2026-04-25T16:16:47.999Z</time></trkpt><trkpt lat="44.47311323147536" lon="9.363475014679354"><ele>729.0</ele><time>2026-04-25T16:16:48.999Z</time></trkpt><trkpt lat="44.473144210838434" lon="9.363693790232698"><ele>728.0</ele><time>2026-04-25T16:16:49.999Z</time></trkpt><trkpt lat="44.47316981464499" lon="9.36389279097691"><ele>727.0</ele><time>2026-04-25T16:16:50.999Z</time></trkpt><trkpt lat="44.47318952503453" lon="9.364059143454647"><ele>726.0</ele><time>2026-04-25T16:16:51.999Z</time></trkpt><trkpt lat="44.47320405237833" lon="9.364196451569349"><ele>725.0</ele><time>2026-04-25T16:16:52.999Z</time></trkpt><trkpt lat="44.47319578501816" lon="9.364310375966598"><ele>724.0</ele><time>2026-04-25T16:16:53.999Z</time></trkpt><trkpt lat="44.47315020776255" lon="9.364412295882884"><ele>724.0</ele><time>2026-04-25T16:16:54.999Z</time></trkpt><trkpt lat="44.47306919846352" lon="9.364467881409336"><ele>724.0</ele><time>2026-04-25T16:16:55.999Z</time></trkpt><trkpt lat="44.472959778395754" lon="9.364476824394819"><ele>724.0</ele><time>2026-04-25T16:16:56.999Z</time></trkpt><trkpt lat="44.4728293145435" lon="9.364471039906688"><ele>724.0</ele><time>2026-04-25T16:16:57.999Z</time></trkpt><trkpt lat="44.472693193898984" lon="9.364482065455908"><ele>721.5</ele><time>2026-04-25T16:16:58.999Z</time></trkpt><trkpt lat="44.4725751178086" lon="9.36448972183226"><ele>719.0</ele><time>2026-04-25T16:16:59.999Z</time></trkpt><trkpt lat="44.47246292182687" lon="9.364542902928898"><ele>716.5</ele><time>2026-04-25T16:17:00.999Z</time></trkpt><trkpt lat="44.472353408405006" lon="9.364632120042026"><ele>714.0</ele><time>2026-04-25T16:17:01.999Z</time></trkpt><trkpt lat="44.472255911262295" lon="9.364744516362876"><ele>714.0</ele><time>2026-04-25T16:17:02.999Z</time></trkpt><trkpt lat="44.472181750481646" lon="9.364873692219817"><ele>714.0</ele><time>2026-04-25T16:17:03.999Z</time></trkpt><trkpt lat="44.472133503884415" lon="9.365030686472295"><ele>714.0</ele><time>2026-04-25T16:17:04.999Z</time></trkpt><trkpt lat="44.472108921866166" lon="9.365202575895458"><ele>714.0</ele><time>2026-04-25T16:17:05.999Z</time></trkpt><trkpt lat="44.47208408889993" lon="9.365364354199178"><ele>712.6</ele><time>2026-04-25T16:17:06.999Z</time></trkpt><trkpt lat="44.47207184774156" lon="9.365517253827301"><ele>711.2</ele><time>2026-04-25T16:17:07.999Z</time></trkpt><trkpt lat="44.47207428063789" lon="9.365665659442167"><ele>709.8000000000001</ele><time>2026-04-25T16:17:08.999Z</time></trkpt><trkpt lat="44.47206013173521" lon="9.365804184333713"><ele>708.4000000000001</ele><time>2026-04-25T16:17:09.999Z</time></trkpt><trkpt lat="44.47204329085039" lon="9.365933181427785"><ele>707.0</ele><time>2026-04-25T16:17:10.999Z</time></trkpt><trkpt lat="44.47204346446236" lon="9.36605675289895"><ele>707.0</ele><time>2026-04-25T16:17:11.999Z</time></trkpt><trkpt lat="44.47201792666212" lon="9.366167519623815"><ele>707.0</ele><time>2026-04-25T16:17:12.999Z</time></trkpt><trkpt lat="44.47201043920984" lon="9.366263056385527"><ele>707.0</ele><time>2026-04-25T16:17:13.999Z</time></trkpt><trkpt lat="44.47201587198553" lon="9.36639334706458"><ele>707.0</ele><time>2026-04-25T16:17:15.999Z</time></trkpt><trkpt lat="44.47199191915122" lon="9.366499364560845"><ele>707.0</ele><time>2026-04-25T16:17:23.999Z</time></trkpt><trkpt lat="44.47199978244766" lon="9.36669035597687"><ele>706.6</ele><time>2026-04-25T16:17:25.999Z</time></trkpt><trkpt lat="44.4719925618796" lon="9.366839073214972"><ele>706.2</ele><time>2026-04-25T16:17:26.999Z</time></trkpt><trkpt lat="44.47198276377735" lon="9.36697407843547"><ele>705.8</ele><time>2026-04-25T16:17:27.999Z</time></trkpt><trkpt lat="44.471971076697145" lon="9.367093666544942"><ele>705.4</ele><time>2026-04-25T16:17:28.999Z</time></trkpt><trkpt lat="44.47195282827214" lon="9.367205202960399"><ele>705.0</ele><time>2026-04-25T16:17:29.999Z</time></trkpt><trkpt lat="44.47192378232975" lon="9.367316204137385"><ele>704.2</ele><time>2026-04-25T16:17:30.999Z</time></trkpt><trkpt lat="44.471883168355944" lon="9.36742690166867"><ele>703.4</ele><time>2026-04-25T16:17:31.999Z</time></trkpt><trkpt lat="44.471824368813124" lon="9.367525660522446"><ele>702.5999999999999</ele><time>2026-04-25T16:17:32.999Z</time></trkpt><trkpt lat="44.471748142454075" lon="9.367606365525141"><ele>701.8</ele><time>2026-04-25T16:17:33.999Z</time></trkpt><trkpt lat="44.47165399544653" lon="9.367662829476949"><ele>701.0</ele><time>2026-04-25T16:17:34.999Z</time></trkpt><trkpt lat="44.47155976772153" lon="9.367718509578541"><ele>701.0</ele><time>2026-04-25T16:17:35.999Z</time></trkpt><trkpt lat="44.471426227592055" lon="9.367741939874694"><ele>701.0</ele><time>2026-04-25T16:17:36.999Z</time></trkpt><trkpt lat="44.47133474640885" lon="9.367761558083735"><ele>701.0</ele><time>2026-04-25T16:17:37.999Z</time></trkpt><trkpt lat="44.47120536623957" lon="9.367757240582916"><ele>701.0</ele><time>2026-04-25T16:17:38.999Z</time></trkpt><trkpt lat="44.47108202263272" lon="9.36776265119862"><ele>702.75</ele><time>2026-04-25T16:17:39.999Z</time></trkpt><trkpt lat="44.47096983119795" lon="9.36780765333806"><ele>704.5</ele><time>2026-04-25T16:17:40.999Z</time></trkpt><trkpt lat="44.47086659507719" lon="9.367900416568034"><ele>706.25</ele><time>2026-04-25T16:17:41.999Z</time></trkpt><trkpt lat="44.47077442641726" lon="9.368037168396796"><ele>708.0</ele><time>2026-04-25T16:17:42.999Z</time></trkpt><trkpt lat="44.47069432480469" lon="9.368201114507219"><ele>708.0</ele><time>2026-04-25T16:17:43.999Z</time></trkpt><trkpt lat="44.470592972163445" lon="9.36834036698759"><ele>708.0</ele><time>2026-04-25T16:17:44.999Z</time></trkpt><trkpt lat="44.47048146372714" lon="9.368444270288682"><ele>708.0</ele><time>2026-04-25T16:17:45.999Z</time></trkpt><trkpt lat="44.470368329696875" lon="9.368522992100134"><ele>708.0</ele><time>2026-04-25T16:17:46.999Z</time></trkpt><trkpt lat="44.4702518196049" lon="9.368554099946792"><ele>704.0</ele><time>2026-04-25T16:17:47.999Z</time></trkpt><trkpt lat="44.4701193483504" lon="9.368541093079573"><ele>700.0</ele><time>2026-04-25T16:17:48.999Z</time></trkpt><trkpt lat="44.469976649138026" lon="9.368509719298553"><ele>696.0</ele><time>2026-04-25T16:17:49.999Z</time></trkpt><trkpt lat="44.469828550194705" lon="9.36848807836665"><ele>692.0</ele><time>2026-04-25T16:17:50.999Z</time></trkpt><trkpt lat="44.46968839013177" lon="9.368470769221373"><ele>690.3333333333333</ele><time>2026-04-25T16:17:51.999Z</time></trkpt><trkpt lat="44.469542803825036" lon="9.368456089009"><ele>688.6666666666666</ele><time>2026-04-25T16:17:52.999Z</time></trkpt><trkpt lat="44.46937582961398" lon="9.36846860135627"><ele>687.0</ele><time>2026-04-25T16:17:53.999Z</time></trkpt><trkpt lat="44.469195734754365" lon="9.368495284882341"><ele>687.0</ele><time>2026-04-25T16:17:54.999Z</time></trkpt><trkpt lat="44.4690145800923" lon="9.36853454734763"><ele>687.0</ele><time>2026-04-25T16:17:55.999Z</time></trkpt><trkpt lat="44.468846609915396" lon="9.368587209520323"><ele>687.0</ele><time>2026-04-25T16:17:56.999Z</time></trkpt><trkpt lat="44.46868178741478" lon="9.368640726751508"><ele>684.3333333333334</ele><time>2026-04-25T16:17:57.999Z</time></trkpt><trkpt lat="44.46851938102452" lon="9.3686929301273"><ele>681.6666666666667</ele><time>2026-04-25T16:17:58.999Z</time></trkpt><trkpt lat="44.468351340477085" lon="9.36878025774958"><ele>679.0</ele><time>2026-04-25T16:17:59.999Z</time></trkpt><trkpt lat="44.46818259071732" lon="9.368901622891116"><ele>679.6666666666667</ele><time>2026-04-25T16:18:00.999Z</time></trkpt><trkpt lat="44.468019388104864" lon="9.369008951863231"><ele>680.3333333333334</ele><time>2026-04-25T16:18:01.999Z</time></trkpt><trkpt lat="44.46785298512041" lon="9.36908296430555"><ele>681.0</ele><time>2026-04-25T16:18:02.999Z</time></trkpt><trkpt lat="44.467686360320805" lon="9.369142686173936"><ele>681.0</ele><time>2026-04-25T16:18:03.999Z</time></trkpt><trkpt lat="44.46752876109405" lon="9.369198287401122"><ele>681.0</ele><time>2026-04-25T16:18:04.999Z</time></trkpt><trkpt lat="44.46741035313004" lon="9.369251585213094"><ele>681.0</ele><time>2026-04-25T16:18:05.999Z</time></trkpt><trkpt lat="44.46730873244845" lon="9.369335897970581"><ele>681.0</ele><time>2026-04-25T16:18:06.999Z</time></trkpt><trkpt lat="44.467219903859494" lon="9.369458910724925"><ele>681.0</ele><time>2026-04-25T16:18:07.999Z</time></trkpt><trkpt lat="44.46714087567335" lon="9.369601696190426"><ele>681.0</ele><time>2026-04-25T16:18:08.999Z</time></trkpt><trkpt lat="44.46703849894382" lon="9.369705910478173"><ele>681.0</ele><time>2026-04-25T16:18:09.999Z</time></trkpt><trkpt lat="44.46692375311474" lon="9.369757959968208"><ele>681.0</ele><time>2026-04-25T16:18:10.999Z</time></trkpt><trkpt lat="44.466794474248374" lon="9.369763688323536"><ele>682.3333333333334</ele><time>2026-04-25T16:18:11.999Z</time></trkpt><trkpt lat="44.46665262741523" lon="9.36971767157521"><ele>683.6666666666667</ele><time>2026-04-25T16:18:12.999Z</time></trkpt><trkpt lat="44.46650018207425" lon="9.369660966422202"><ele>685.0</ele><time>2026-04-25T16:18:13.999Z</time></trkpt><trkpt lat="44.46634914043593" lon="9.369622697754306"><ele>679.0</ele><time>2026-04-25T16:18:14.999Z</time></trkpt><trkpt lat="44.46620561844299" lon="9.369605312019496"><ele>673.0</ele><time>2026-04-25T16:18:15.999Z</time></trkpt><trkpt lat="44.46606562019944" lon="9.36961152902809"><ele>667.0</ele><time>2026-04-25T16:18:16.999Z</time></trkpt><trkpt lat="44.46593091034378" lon="9.369639065283515"><ele>661.0</ele><time>2026-04-25T16:18:17.999Z</time></trkpt><trkpt lat="44.46581347200753" lon="9.369682024212851"><ele>664.0</ele><time>2026-04-25T16:18:18.999Z</time></trkpt><trkpt lat="44.46571925050812" lon="9.36974032249836"><ele>667.0</ele><time>2026-04-25T16:18:19.999Z</time></trkpt><trkpt lat="44.465639548003736" lon="9.36983472689864"><ele>670.0</ele><time>2026-04-25T16:18:20.999Z</time></trkpt><trkpt lat="44.46558130322981" lon="9.369966638422277"><ele>673.0</ele><time>2026-04-25T16:18:21.999Z</time></trkpt><trkpt lat="44.46554464029286" lon="9.370134490327391"><ele>676.0</ele><time>2026-04-25T16:18:22.999Z</time></trkpt><trkpt lat="44.465505580833586" lon="9.370320039657052"><ele>676.0</ele><time>2026-04-25T16:18:23.998Z</time></trkpt><trkpt lat="44.46546394552332" lon="9.370519920640056"><ele>676.0</ele><time>2026-04-25T16:18:24.998Z</time></trkpt><trkpt lat="44.46543937512784" lon="9.37071157957292"><ele>676.0</ele><time>2026-04-25T16:18:25.998Z</time></trkpt><trkpt lat="44.465418379395686" lon="9.370895658470717"><ele>676.0</ele><time>2026-04-25T16:18:26.998Z</time></trkpt><trkpt lat="44.465415168392504" lon="9.371058937993935"><ele>675.5999999999999</ele><time>2026-04-25T16:18:27.998Z</time></trkpt><trkpt lat="44.46540398390292" lon="9.371193883534612"><ele>675.2</ele><time>2026-04-25T16:18:28.998Z</time></trkpt><trkpt lat="44.46534825214602" lon="9.37130518883091"><ele>674.8</ele><time>2026-04-25T16:18:29.998Z</time></trkpt><trkpt lat="44.46526989438677" lon="9.371375446988287"><ele>674.4000000000001</ele><time>2026-04-25T16:18:30.998Z</time></trkpt><trkpt lat="44.46517909950762" lon="9.371384309050166"><ele>674.0</ele><time>2026-04-25T16:18:31.998Z</time></trkpt><trkpt lat="44.46508234930064" lon="9.371307170496774"><ele>674.0</ele><time>2026-04-25T16:18:32.998Z</time></trkpt><trkpt lat="44.46497387046489" lon="9.371224259074944"><ele>674.0</ele><time>2026-04-25T16:18:33.998Z</time></trkpt><trkpt lat="44.46487021618931" lon="9.371158335127882"><ele>674.0</ele><time>2026-04-25T16:18:34.998Z</time></trkpt><trkpt lat="44.4647989459605" lon="9.371043554567336"><ele>674.0</ele><time>2026-04-25T16:18:35.998Z</time></trkpt><trkpt lat="44.46476710461411" lon="9.370876696166935"><ele>674.0</ele><time>2026-04-25T16:18:36.998Z</time></trkpt><trkpt lat="44.46476890887355" lon="9.370684596200087"><ele>674.0</ele><time>2026-04-25T16:18:37.998Z</time></trkpt><trkpt lat="44.464749261333445" lon="9.370550118109003"><ele>674.0</ele><time>2026-04-25T16:18:38.998Z</time></trkpt><trkpt lat="44.46472682749455" lon="9.370395859349042"><ele>674.0</ele><time>2026-04-25T16:18:39.998Z</time></trkpt><trkpt lat="44.46470710255171" lon="9.370283405130552"><ele>674.0</ele><time>2026-04-25T16:18:40.998Z</time></trkpt><trkpt lat="44.46464519811448" lon="9.370183017714377"><ele>670.25</ele><time>2026-04-25T16:18:41.998Z</time></trkpt><trkpt lat="44.46454813944549" lon="9.370115331034391"><ele>666.5</ele><time>2026-04-25T16:18:42.998Z</time></trkpt><trkpt lat="44.46442669222763" lon="9.370092015105527"><ele>662.75</ele><time>2026-04-25T16:18:43.998Z</time></trkpt><trkpt lat="44.46429461456642" lon="9.370127905511044"><ele>659.0</ele><time>2026-04-25T16:18:44.998Z</time></trkpt><trkpt lat="44.46416804708549" lon="9.370176403761501"><ele>659.0</ele><time>2026-04-25T16:18:45.998Z</time></trkpt><trkpt lat="44.46405952413262" lon="9.37025332150104"><ele>659.0</ele><time>2026-04-25T16:18:46.998Z</time></trkpt><trkpt lat="44.46396977770636" lon="9.370354179038156"><ele>659.0</ele><time>2026-04-25T16:18:47.998Z</time></trkpt><trkpt lat="44.4639058444576" lon="9.370471057539522"><ele>659.0</ele><time>2026-04-25T16:18:48.998Z</time></trkpt><trkpt lat="44.46385372675358" lon="9.37060011361438"><ele>659.0</ele><time>2026-04-25T16:18:49.998Z</time></trkpt><trkpt lat="44.46377817071564" lon="9.370667502259709"><ele>660.8333333333333</ele><time>2026-04-25T16:18:50.998Z</time></trkpt><trkpt lat="44.4637089484043" lon="9.3706704096654"><ele>662.6666666666666</ele><time>2026-04-25T16:18:52Z</time></trkpt><trkpt lat="44.463614631177656" lon="9.370637151799404"><ele>664.5</ele><time>2026-04-25T16:18:53Z</time></trkpt><trkpt lat="44.46356322114552" lon="9.370555100028115"><ele>666.3333333333334</ele><time>2026-04-25T16:18:54Z</time></trkpt><trkpt lat="44.46355515943458" lon="9.37043541305957"><ele>668.1666666666667</ele><time>2026-04-25T16:18:55Z</time></trkpt><trkpt lat="44.46356587956633" lon="9.370327396793753"><ele>670.0</ele><time>2026-04-25T16:18:56Z</time></trkpt><trkpt lat="44.463612813790206" lon="9.370242700268028"><ele>670.0</ele><time>2026-04-25T16:18:57Z</time></trkpt><trkpt lat="44.46368562144861" lon="9.370184052192766"><ele>670.0</ele><time>2026-04-25T16:18:58Z</time></trkpt><trkpt lat="44.46378526175849" lon="9.370169278487237"><ele>670.0</ele><time>2026-04-25T16:18:59Z</time></trkpt><trkpt lat="44.463914697079964" lon="9.370168980710208"><ele>670.0</ele><time>2026-04-25T16:19:00Z</time></trkpt><trkpt lat="44.46406588705754" lon="9.370078836050462"><ele>666.3333333333334</ele><time>2026-04-25T16:19:01Z</time></trkpt><trkpt lat="44.46421826447776" lon="9.369987999085371"><ele>662.6666666666666</ele><time>2026-04-25T16:19:02Z</time></trkpt><trkpt lat="44.46436568205926" lon="9.369926183548543"><ele>659.0</ele><time>2026-04-25T16:19:03Z</time></trkpt><trkpt lat="44.46450189735612" lon="9.369884610719511"><ele>659.6</ele><time>2026-04-25T16:19:04Z</time></trkpt><trkpt lat="44.464615173215215" lon="9.369874129531047"><ele>660.2</ele><time>2026-04-25T16:19:05Z</time></trkpt><trkpt lat="44.464698384982604" lon="9.369895099867305"><ele>660.8000000000001</ele><time>2026-04-25T16:19:06Z</time></trkpt><trkpt lat="44.4647498317294" lon="9.369985916379546"><ele>661.4000000000001</ele><time>2026-04-25T16:19:06.999Z</time></trkpt><trkpt lat="44.46480651786864" lon="9.370098111397901"><ele>662.0</ele><time>2026-04-25T16:19:07.999Z</time></trkpt><trkpt lat="44.46488994390009" lon="9.370221615753701"><ele>662.0</ele><time>2026-04-25T16:19:08.999Z</time></trkpt><trkpt lat="44.46500101949674" lon="9.370291836457168"><ele>662.0</ele><time>2026-04-25T16:19:09.999Z</time></trkpt><trkpt lat="44.465107437968676" lon="9.37033783473212"><ele>662.0</ele><time>2026-04-25T16:19:10.999Z</time></trkpt><trkpt lat="44.46520275056476" lon="9.370339460536476"><ele>662.0</ele><time>2026-04-25T16:19:11.999Z</time></trkpt><trkpt lat="44.465287354045785" lon="9.37028396043352"><ele>662.0</ele><time>2026-04-25T16:19:12.999Z</time></trkpt><trkpt lat="44.4653413499643" lon="9.370193369911316"><ele>662.0</ele><time>2026-04-25T16:19:13.999Z</time></trkpt><trkpt lat="44.46535893190063" lon="9.37002806751494"><ele>662.0</ele><time>2026-04-25T16:19:14.999Z</time></trkpt><trkpt lat="44.465384458706495" lon="9.369872291735104"><ele>662.0</ele><time>2026-04-25T16:19:15.999Z</time></trkpt><trkpt lat="44.4653906343195" lon="9.369696816152294"><ele>662.0</ele><time>2026-04-25T16:19:16.999Z</time></trkpt><trkpt lat="44.46536826148945" lon="9.369513415440734"><ele>661.8</ele><time>2026-04-25T16:19:17.999Z</time></trkpt><trkpt lat="44.46534250548758" lon="9.369349538467201"><ele>661.6</ele><time>2026-04-25T16:19:18.999Z</time></trkpt><trkpt lat="44.465353711659" lon="9.369222627173523"><ele>661.4</ele><time>2026-04-25T16:19:19.999Z</time></trkpt><trkpt lat="44.46540372443158" lon="9.369130639240238"><ele>661.1999999999999</ele><time>2026-04-25T16:19:20.999Z</time></trkpt><trkpt lat="44.465506192793114" lon="9.36911587923311"><ele>661.0</ele><time>2026-04-25T16:19:21.999Z</time></trkpt><trkpt lat="44.46561905326559" lon="9.369060537547135"><ele>661.0</ele><time>2026-04-25T16:19:22.999Z</time></trkpt><trkpt lat="44.46573560997482" lon="9.36894896211555"><ele>661.0</ele><time>2026-04-25T16:19:23.999Z</time></trkpt><trkpt lat="44.46585881224864" lon="9.368820351254866"><ele>661.0</ele><time>2026-04-25T16:19:24.999Z</time></trkpt><trkpt lat="44.465963332464604" lon="9.368696132259982"><ele>661.0</ele><time>2026-04-25T16:19:25.999Z</time></trkpt><trkpt lat="44.46605220976084" lon="9.36858031643359"><ele>657.5</ele><time>2026-04-25T16:19:26.999Z</time></trkpt><trkpt lat="44.46611095418765" lon="9.368451060583892"><ele>654.0</ele><time>2026-04-25T16:19:27.999Z</time></trkpt><trkpt lat="44.46614085734707" lon="9.36828719477768"><ele>650.5</ele><time>2026-04-25T16:19:28.999Z</time></trkpt><trkpt lat="44.46615161992037" lon="9.36808306713963"><ele>647.0</ele><time>2026-04-25T16:19:29.999Z</time></trkpt><trkpt lat="44.46616210560419" lon="9.367857876888175"><ele>645.5</ele><time>2026-04-25T16:19:30.999Z</time></trkpt><trkpt lat="44.466190506180055" lon="9.367649092774972"><ele>644.0</ele><time>2026-04-25T16:19:31.999Z</time></trkpt><trkpt lat="44.46621231152452" lon="9.367453136806091"><ele>642.5</ele><time>2026-04-25T16:19:32.999Z</time></trkpt><trkpt lat="44.466242771201955" lon="9.367262407955629"><ele>641.0</ele><time>2026-04-25T16:19:33.999Z</time></trkpt><trkpt lat="44.46628096118123" lon="9.367077907380414"><ele>641.0</ele><time>2026-04-25T16:19:34.999Z</time></trkpt><trkpt lat="44.46633392869166" lon="9.366895314135121"><ele>641.0</ele><time>2026-04-25T16:19:35.999Z</time></trkpt><trkpt lat="44.466406725446554" lon="9.366758324888417"><ele>641.0</ele><time>2026-04-25T16:19:36.999Z</time></trkpt><trkpt lat="44.466476867899594" lon="9.36667019346607"><ele>641.0</ele><time>2026-04-25T16:19:37.999Z</time></trkpt><trkpt lat="44.4665659208869" lon="9.366613710520083"><ele>641.0</ele><time>2026-04-25T16:19:38.999Z</time></trkpt><trkpt lat="44.466679222730065" lon="9.366557979247709"><ele>641.0</ele><time>2026-04-25T16:19:39.999Z</time></trkpt><trkpt lat="44.46678383696783" lon="9.366483199395512"><ele>641.0</ele><time>2026-04-25T16:19:41Z</time></trkpt><trkpt lat="44.466871150339166" lon="9.366415845397341"><ele>641.0</ele><time>2026-04-25T16:19:42Z</time></trkpt><trkpt lat="44.466919926288355" lon="9.366312103670724"><ele>641.0</ele><time>2026-04-25T16:19:43Z</time></trkpt><trkpt lat="44.466923366116134" lon="9.36617853812833"><ele>637.8</ele><time>2026-04-25T16:19:44Z</time></trkpt><trkpt lat="44.46688711495917" lon="9.366053294895243"><ele>634.5999999999999</ele><time>2026-04-25T16:19:45Z</time></trkpt><trkpt lat="44.466815724750205" lon="9.365958811583488"><ele>631.4</ele><time>2026-04-25T16:19:46Z</time></trkpt><trkpt lat="44.466724664792316" lon="9.365912899891793"><ele>628.2</ele><time>2026-04-25T16:19:47Z</time></trkpt><trkpt lat="44.46663244652521" lon="9.36592670609015"><ele>625.0</ele><time>2026-04-25T16:19:48Z</time></trkpt><trkpt lat="44.466534315024624" lon="9.365998138944391"><ele>625.0</ele><time>2026-04-25T16:19:49Z</time></trkpt><trkpt lat="44.46643950651864" lon="9.366084942808971"><ele>625.0</ele><time>2026-04-25T16:19:50Z</time></trkpt><trkpt lat="44.46634697653674" lon="9.366188097309836"><ele>625.0</ele><time>2026-04-25T16:19:51Z</time></trkpt><trkpt lat="44.4662673360708" lon="9.366313363479264"><ele>625.0</ele><time>2026-04-25T16:19:52Z</time></trkpt><trkpt lat="44.46620229853736" lon="9.366460358182911"><ele>625.75</ele><time>2026-04-25T16:19:53Z</time></trkpt><trkpt lat="44.46614300592002" lon="9.366615704654102"><ele>626.5</ele><time>2026-04-25T16:19:54Z</time></trkpt><trkpt lat="44.46607870370765" lon="9.366771755537648"><ele>627.25</ele><time>2026-04-25T16:19:55Z</time></trkpt><trkpt lat="44.46601739142485" lon="9.366932329234777"><ele>628.0</ele><time>2026-04-25T16:19:56Z</time></trkpt><trkpt lat="44.465971201100984" lon="9.367110031752103"><ele>630.75</ele><time>2026-04-25T16:19:57Z</time></trkpt><trkpt lat="44.46593850459214" lon="9.367294909622432"><ele>633.5</ele><time>2026-04-25T16:19:58Z</time></trkpt><trkpt lat="44.46588968519199" lon="9.367461218972425"><ele>636.25</ele><time>2026-04-25T16:19:59Z</time></trkpt><trkpt lat="44.46583728117758" lon="9.36760436208435"><ele>639.0</ele><time>2026-04-25T16:20:00Z</time></trkpt><trkpt lat="44.46574855743583" lon="9.367698761215408"><ele>639.0</ele><time>2026-04-25T16:20:01Z</time></trkpt><trkpt lat="44.465632170307366" lon="9.36778062823235"><ele>639.0</ele><time>2026-04-25T16:20:02Z</time></trkpt><trkpt lat="44.46551377072033" lon="9.367850238395292"><ele>639.0</ele><time>2026-04-25T16:20:03Z</time></trkpt><trkpt lat="44.46538998742877" lon="9.36786855101601"><ele>639.0</ele><time>2026-04-25T16:20:04Z</time></trkpt><trkpt lat="44.46526706612989" lon="9.367841121056017"><ele>635.75</ele><time>2026-04-25T16:20:05Z</time></trkpt><trkpt lat="44.46515083390019" lon="9.367766172730498"><ele>632.5</ele><time>2026-04-25T16:20:06Z</time></trkpt><trkpt lat="44.46503923361616" lon="9.367657911367258"><ele>629.25</ele><time>2026-04-25T16:20:07Z</time></trkpt><trkpt lat="44.464938011415256" lon="9.36753456961682"><ele>626.0</ele><time>2026-04-25T16:20:08Z</time></trkpt><trkpt lat="44.46485113622275" lon="9.367402220869156"><ele>626.0</ele><time>2026-04-25T16:20:09Z</time></trkpt><trkpt lat="44.46477217591466" lon="9.367264292119325"><ele>626.0</ele><time>2026-04-25T16:20:10Z</time></trkpt><trkpt lat="44.464699189897566" lon="9.367118278598053"><ele>626.0</ele><time>2026-04-25T16:20:11Z</time></trkpt><trkpt lat="44.46464708192802" lon="9.366981909610578"><ele>626.0</ele><time>2026-04-25T16:20:12Z</time></trkpt><trkpt lat="44.46463376920648" lon="9.366859167420817"><ele>624.6</ele><time>2026-04-25T16:20:13Z</time></trkpt><trkpt lat="44.464671831204726" lon="9.366755349408011"><ele>623.2</ele><time>2026-04-25T16:20:14Z</time></trkpt><trkpt lat="44.46474816671978" lon="9.366677908977458"><ele>621.8</ele><time>2026-04-25T16:20:15Z</time></trkpt><trkpt lat="44.46484413677735" lon="9.366654983426812"><ele>620.4</ele><time>2026-04-25T16:20:16Z</time></trkpt><trkpt lat="44.464928370310474" lon="9.366730914832777"><ele>619.0</ele><time>2026-04-25T16:20:17Z</time></trkpt><trkpt lat="44.46498242418066" lon="9.366841472674487"><ele>619.0</ele><time>2026-04-25T16:20:18Z</time></trkpt><trkpt lat="44.46505650997444" lon="9.366953054413823"><ele>619.0</ele><time>2026-04-25T16:20:19Z</time></trkpt><trkpt lat="44.4651250964504" lon="9.367052250951717"><ele>619.0</ele><time>2026-04-25T16:20:20Z</time></trkpt><trkpt lat="44.46520193469547" lon="9.367117236570117"><ele>619.0</ele><time>2026-04-25T16:20:21Z</time></trkpt><trkpt lat="44.46529409055686" lon="9.36708657558197"><ele>619.0</ele><time>2026-04-25T16:20:22Z</time></trkpt><trkpt lat="44.46536602624445" lon="9.367032563397693"><ele>619.0</ele><time>2026-04-25T16:20:22.999Z</time></trkpt><trkpt lat="44.465406511418216" lon="9.366925586544065"><ele>619.0</ele><time>2026-04-25T16:20:23.999Z</time></trkpt><trkpt lat="44.46541590958417" lon="9.366801316344892"><ele>619.0</ele><time>2026-04-25T16:20:24.999Z</time></trkpt><trkpt lat="44.4653918477596" lon="9.366662168770699"><ele>619.0</ele><time>2026-04-25T16:20:25.999Z</time></trkpt><trkpt lat="44.46536216054082" lon="9.366508521193"><ele>619.0</ele><time>2026-04-25T16:20:26.999Z</time></trkpt><trkpt lat="44.465341618764754" lon="9.36635761683325"><ele>619.0</ele><time>2026-04-25T16:20:27.999Z</time></trkpt><trkpt lat="44.465362277508625" lon="9.36622211337067"><ele>619.0</ele><time>2026-04-25T16:20:28.999Z</time></trkpt><trkpt lat="44.46540437394382" lon="9.366111953833132"><ele>619.0</ele><time>2026-04-25T16:20:29.999Z</time></trkpt><trkpt lat="44.46546228127495" lon="9.366004194069339"><ele>619.0</ele><time>2026-04-25T16:20:30.999Z</time></trkpt><trkpt lat="44.46551789300935" lon="9.36588354728136"><ele>619.0</ele><time>2026-04-25T16:20:31.999Z</time></trkpt><trkpt lat="44.46556263057389" lon="9.365755809134052"><ele>619.0</ele><time>2026-04-25T16:20:32.999Z</time></trkpt><trkpt lat="44.465572657365904" lon="9.365612041433758"><ele>619.0</ele><time>2026-04-25T16:20:33.999Z</time></trkpt><trkpt lat="44.46554965570342" lon="9.365462913582212"><ele>619.0</ele><time>2026-04-25T16:20:34.999Z</time></trkpt><trkpt lat="44.465525856187305" lon="9.3653275067974"><ele>619.0</ele><time>2026-04-25T16:20:35.999Z</time></trkpt><trkpt lat="44.46553598603122" lon="9.365195981402744"><ele>619.0</ele><time>2026-04-25T16:20:36.999Z</time></trkpt><trkpt lat="44.465531999596905" lon="9.365076358176413"><ele>616.6</ele><time>2026-04-25T16:20:37.999Z</time></trkpt><trkpt lat="44.46559266225721" lon="9.364982144714375"><ele>614.2</ele><time>2026-04-25T16:20:38.999Z</time></trkpt><trkpt lat="44.46564438821656" lon="9.364890858585143"><ele>611.8000000000001</ele><time>2026-04-25T16:20:39.999Z</time></trkpt><trkpt lat="44.46572517533971" lon="9.364848339921739"><ele>609.4</ele><time>2026-04-25T16:20:40.999Z</time></trkpt><trkpt lat="44.46580959825264" lon="9.364889371275536"><ele>607.0</ele><time>2026-04-25T16:20:41.999Z</time></trkpt><trkpt lat="44.46591389398787" lon="9.36490224645053"><ele>607.0</ele><time>2026-04-25T16:20:42.999Z</time></trkpt><trkpt lat="44.46603363508328" lon="9.36494520730456"><ele>607.0</ele><time>2026-04-25T16:20:43.999Z</time></trkpt><trkpt lat="44.46616782139171" lon="9.36497932300083"><ele>607.0</ele><time>2026-04-25T16:20:44.999Z</time></trkpt><trkpt lat="44.46630623491238" lon="9.365045019850255"><ele>607.0</ele><time>2026-04-25T16:20:45.999Z</time></trkpt><trkpt lat="44.46645327363765" lon="9.365085532639029"><ele>606.75</ele><time>2026-04-25T16:20:46.999Z</time></trkpt><trkpt lat="44.4665948159561" lon="9.365100229596788"><ele>606.5</ele><time>2026-04-25T16:20:47.999Z</time></trkpt><trkpt lat="44.466724518138676" lon="9.365135299112708"><ele>606.25</ele><time>2026-04-25T16:20:48.999Z</time></trkpt><trkpt lat="44.46684939642836" lon="9.365174554033313"><ele>606.0</ele><time>2026-04-25T16:20:49.999Z</time></trkpt><trkpt lat="44.46697113773723" lon="9.36520361528657"><ele>606.0</ele><time>2026-04-25T16:20:50.999Z</time></trkpt><trkpt lat="44.46709838779787" lon="9.365187624873347"><ele>606.0</ele><time>2026-04-25T16:20:51.999Z</time></trkpt><trkpt lat="44.467235410230536" lon="9.365129852431977"><ele>606.0</ele><time>2026-04-25T16:20:52.999Z</time></trkpt><trkpt lat="44.467367446140315" lon="9.365070535016358"><ele>606.0</ele><time>2026-04-25T16:20:53.999Z</time></trkpt><trkpt lat="44.46748934515025" lon="9.365034394116824"><ele>605.4</ele><time>2026-04-25T16:20:54.999Z</time></trkpt><trkpt lat="44.467599827889664" lon="9.364982272462278"><ele>604.8</ele><time>2026-04-25T16:20:55.999Z</time></trkpt><trkpt lat="44.46768846505572" lon="9.364908390755721"><ele>604.1999999999999</ele><time>2026-04-25T16:20:56.999Z</time></trkpt><trkpt lat="44.46775321799031" lon="9.364806666996355"><ele>603.6</ele><time>2026-04-25T16:20:58Z</time></trkpt><trkpt lat="44.467788097034166" lon="9.364689353008055"><ele>603.0</ele><time>2026-04-25T16:20:59Z</time></trkpt><trkpt lat="44.46777930265837" lon="9.364562960192082"><ele>601.4</ele><time>2026-04-25T16:21:00Z</time></trkpt><trkpt lat="44.46773940526907" lon="9.364450636032712"><ele>599.8</ele><time>2026-04-25T16:21:01Z</time></trkpt><trkpt lat="44.467666697741" lon="9.364370927388215"><ele>598.2</ele><time>2026-04-25T16:21:02Z</time></trkpt><trkpt lat="44.46757367363861" lon="9.36432826690041"><ele>596.6</ele><time>2026-04-25T16:21:03Z</time></trkpt><trkpt lat="44.4674791105924" lon="9.364347206471095"><ele>595.0</ele><time>2026-04-25T16:21:04Z</time></trkpt><trkpt lat="44.467387348703056" lon="9.364412182404475"><ele>595.0</ele><time>2026-04-25T16:21:05Z</time></trkpt><trkpt lat="44.46731046707438" lon="9.36453561786446"><ele>595.0</ele><time>2026-04-25T16:21:06Z</time></trkpt><trkpt lat="44.46722720308976" lon="9.364692293579461"><ele>595.0</ele><time>2026-04-25T16:21:07Z</time></trkpt><trkpt lat="44.46713328500008" lon="9.364837564356252"><ele>595.0</ele><time>2026-04-25T16:21:08Z</time></trkpt><trkpt lat="44.46704350387355" lon="9.364932937155555"><ele>597.75</ele><time>2026-04-25T16:21:09Z</time></trkpt><trkpt lat="44.46695756704775" lon="9.364965264586504"><ele>600.5</ele><time>2026-04-25T16:21:10Z</time></trkpt><trkpt lat="44.46685857176303" lon="9.364913572807843"><ele>603.25</ele><time>2026-04-25T16:21:11Z</time></trkpt><trkpt lat="44.46675189379323" lon="9.3648362588258"><ele>606.0</ele><time>2026-04-25T16:21:12Z</time></trkpt><trkpt lat="44.466606180521104" lon="9.364765998440555"><ele>600.3333333333334</ele><time>2026-04-25T16:21:13Z</time></trkpt><trkpt lat="44.46643652290668" lon="9.364678400721886"><ele>594.6666666666667</ele><time>2026-04-25T16:21:14Z</time></trkpt><trkpt lat="44.466268654480025" lon="9.364585611569389"><ele>589.0</ele><time>2026-04-25T16:21:15Z</time></trkpt><trkpt lat="44.466104420395766" lon="9.364501585728268"><ele>587.6666666666667</ele><time>2026-04-25T16:21:16Z</time></trkpt><trkpt lat="44.46594651418145" lon="9.364422361853387"><ele>586.3333333333334</ele><time>2026-04-25T16:21:17Z</time></trkpt><trkpt lat="44.465786978848925" lon="9.364367403481916"><ele>585.0</ele><time>2026-04-25T16:21:18Z</time></trkpt><trkpt lat="44.4656253271886" lon="9.364337609096596"><ele>585.0</ele><time>2026-04-25T16:21:19Z</time></trkpt><trkpt lat="44.46545542064011" lon="9.36433164615394"><ele>585.0</ele><time>2026-04-25T16:21:20Z</time></trkpt><trkpt lat="44.46526845935187" lon="9.364345519158771"><ele>585.0</ele><time>2026-04-25T16:21:21Z</time></trkpt><trkpt lat="44.46507553952872" lon="9.364374674501383"><ele>583.6666666666666</ele><time>2026-04-25T16:21:22Z</time></trkpt><trkpt lat="44.464892226278195" lon="9.364406097177989"><ele>582.3333333333333</ele><time>2026-04-25T16:21:23Z</time></trkpt><trkpt lat="44.464739652612614" lon="9.364411540018644"><ele>581.0</ele><time>2026-04-25T16:21:24Z</time></trkpt><trkpt lat="44.464625950684315" lon="9.364416395260724"><ele>580.8</ele><time>2026-04-25T16:21:25Z</time></trkpt><trkpt lat="44.46451524148894" lon="9.364428256976582"><ele>580.6</ele><time>2026-04-25T16:21:26Z</time></trkpt><trkpt lat="44.464416816946226" lon="9.36446771321041"><ele>580.4</ele><time>2026-04-25T16:21:27Z</time></trkpt><trkpt lat="44.46433179231619" lon="9.364561900282625"><ele>580.2</ele><time>2026-04-25T16:21:28Z</time></trkpt><trkpt lat="44.46425561842981" lon="9.364694212692916"><ele>580.0</ele><time>2026-04-25T16:21:29Z</time></trkpt><trkpt lat="44.46417688918797" lon="9.364852909714836"><ele>580.0</ele><time>2026-04-25T16:21:30Z</time></trkpt><trkpt lat="44.46407955267425" lon="9.36501756087417"><ele>580.0</ele><time>2026-04-25T16:21:31Z</time></trkpt><trkpt lat="44.46397976282088" lon="9.365184062309757"><ele>580.0</ele><time>2026-04-25T16:21:32Z</time></trkpt><trkpt lat="44.463885512197216" lon="9.365341075034184"><ele>580.0</ele><time>2026-04-25T16:21:33Z</time></trkpt><trkpt lat="44.4638000772768" lon="9.365463945787544"><ele>580.0</ele><time>2026-04-25T16:21:34Z</time></trkpt><trkpt lat="44.463716926287404" lon="9.365536576319402"><ele>580.0</ele><time>2026-04-25T16:21:35Z</time></trkpt><trkpt lat="44.46361649221575" lon="9.365557907670482"><ele>580.0</ele><time>2026-04-25T16:21:36Z</time></trkpt><trkpt lat="44.46350299352998" lon="9.365540513533695"><ele>580.0</ele><time>2026-04-25T16:21:37Z</time></trkpt><trkpt lat="44.46337961329422" lon="9.365511054693606"><ele>577.4</ele><time>2026-04-25T16:21:38Z</time></trkpt><trkpt lat="44.46324739748823" lon="9.365485676288229"><ele>574.8</ele><time>2026-04-25T16:21:39Z</time></trkpt><trkpt lat="44.46313367674362" lon="9.365466102002632"><ele>572.2</ele><time>2026-04-25T16:21:40Z</time></trkpt><trkpt lat="44.46303631130633" lon="9.365475852585165"><ele>569.6</ele><time>2026-04-25T16:21:41Z</time></trkpt><trkpt lat="44.462945982792185" lon="9.365540652816636"><ele>567.0</ele><time>2026-04-25T16:21:42Z</time></trkpt><trkpt lat="44.462864703861996" lon="9.365664519161042"><ele>567.0</ele><time>2026-04-25T16:21:43Z</time></trkpt><trkpt lat="44.46277948769557" lon="9.365821955687261"><ele>567.0</ele><time>2026-04-25T16:21:44Z</time></trkpt><trkpt lat="44.46266479657498" lon="9.365957167876804"><ele>567.0</ele><time>2026-04-25T16:21:45Z</time></trkpt><trkpt lat="44.46250865579703" lon="9.366058857822162"><ele>567.0</ele><time>2026-04-25T16:21:46Z</time></trkpt><trkpt lat="44.462325839931935" lon="9.366140808093988"><ele>567.0</ele><time>2026-04-25T16:21:47Z</time></trkpt><trkpt lat="44.46214846809764" lon="9.366225063528608"><ele>567.0</ele><time>2026-04-25T16:21:48Z</time></trkpt><trkpt lat="44.46196978732671" lon="9.36632072694615"><ele>569.6666666666666</ele><time>2026-04-25T16:21:49Z</time></trkpt><trkpt lat="44.46179355107119" lon="9.366396524994952"><ele>572.3333333333333</ele><time>2026-04-25T16:21:50Z</time></trkpt><trkpt lat="44.461619189304464" lon="9.366454453480562"><ele>575.0</ele><time>2026-04-25T16:21:51Z</time></trkpt><trkpt lat="44.46144098226059" lon="9.366488872956362"><ele>575.6666666666666</ele><time>2026-04-25T16:21:52Z</time></trkpt><trkpt lat="44.46125839920667" lon="9.366496758247331"><ele>576.3333333333334</ele><time>2026-04-25T16:21:53Z</time></trkpt><trkpt lat="44.46109109185943" lon="9.36650343467801"><ele>577.0</ele><time>2026-04-25T16:21:54Z</time></trkpt><trkpt lat="44.46095047616043" lon="9.366510102793528"><ele>577.0</ele><time>2026-04-25T16:21:55Z</time></trkpt><trkpt lat="44.4608197206874" lon="9.366483050126279"><ele>577.0</ele><time>2026-04-25T16:21:56Z</time></trkpt><trkpt lat="44.460685665337586" lon="9.366398956480342"><ele>577.0</ele><time>2026-04-25T16:21:57Z</time></trkpt><trkpt lat="44.460548535534116" lon="9.366291861198398"><ele>577.0</ele><time>2026-04-25T16:21:58Z</time></trkpt><trkpt lat="44.46037702325613" lon="9.366213642042453"><ele>568.6666666666667</ele><time>2026-04-25T16:21:59Z</time></trkpt><trkpt lat="44.46017754861588" lon="9.366160590408796"><ele>560.3333333333334</ele><time>2026-04-25T16:22:00Z</time></trkpt><trkpt lat="44.45998842578974" lon="9.366124776079392"><ele>552.0</ele><time>2026-04-25T16:22:01Z</time></trkpt><trkpt lat="44.45982061747358" lon="9.366092532599389"><ele>552.0</ele><time>2026-04-25T16:22:02Z</time></trkpt><trkpt lat="44.45968264396717" lon="9.366044419472113"><ele>552.0</ele><time>2026-04-25T16:22:03Z</time></trkpt><trkpt lat="44.4595482704846" lon="9.365950513993775"><ele>552.0</ele><time>2026-04-25T16:22:04Z</time></trkpt><trkpt lat="44.45941929516041" lon="9.365808763036627"><ele>551.0</ele><time>2026-04-25T16:22:05Z</time></trkpt><trkpt lat="44.45929087724238" lon="9.365671279656796"><ele>550.0</ele><time>2026-04-25T16:22:06Z</time></trkpt><trkpt lat="44.45917254348829" lon="9.365560601873707"><ele>549.0</ele><time>2026-04-25T16:22:07Z</time></trkpt><trkpt lat="44.45907704172296" lon="9.365466505035215"><ele>548.0</ele><time>2026-04-25T16:22:08Z</time></trkpt><trkpt lat="44.45898836943422" lon="9.365400518280385"><ele>548.0</ele><time>2026-04-25T16:22:09Z</time></trkpt><trkpt lat="44.45890648931991" lon="9.365387292052002"><ele>548.0</ele><time>2026-04-25T16:22:10Z</time></trkpt><trkpt lat="44.458832828529914" lon="9.365433058646332"><ele>548.0</ele><time>2026-04-25T16:22:11Z</time></trkpt><trkpt lat="44.45877558129895" lon="9.365525978896304"><ele>548.0</ele><time>2026-04-25T16:22:12Z</time></trkpt><trkpt lat="44.45875151165019" lon="9.365642672920009"><ele>548.0</ele><time>2026-04-25T16:22:13Z</time></trkpt><trkpt lat="44.458764627986234" lon="9.365777434104547"><ele>548.0</ele><time>2026-04-25T16:22:14Z</time></trkpt><trkpt lat="44.458815102245616" lon="9.365914670239995"><ele>548.0</ele><time>2026-04-25T16:22:15Z</time></trkpt><trkpt lat="44.45889198740965" lon="9.366063402963533"><ele>548.0</ele><time>2026-04-25T16:22:16Z</time></trkpt><trkpt lat="44.45896272614483" lon="9.366219145148087"><ele>548.0</ele><time>2026-04-25T16:22:17Z</time></trkpt><trkpt lat="44.459018948920026" lon="9.366396796558298"><ele>548.0</ele><time>2026-04-25T16:22:18Z</time></trkpt><trkpt lat="44.45905749835906" lon="9.366608144064744"><ele>548.3333333333333</ele><time>2026-04-25T16:22:19Z</time></trkpt><trkpt lat="44.459078035400346" lon="9.366834744880821"><ele>548.6666666666666</ele><time>2026-04-25T16:22:20Z</time></trkpt><trkpt lat="44.45906956310355" lon="9.367067431411037"><ele>549.0</ele><time>2026-04-25T16:22:21Z</time></trkpt><trkpt lat="44.45906940798763" lon="9.367293458212314"><ele>549.0</ele><time>2026-04-25T16:22:22Z</time></trkpt><trkpt lat="44.459095796710585" lon="9.36751433526933"><ele>549.0</ele><time>2026-04-25T16:22:23Z</time></trkpt><trkpt lat="44.45913866925914" lon="9.36773771783106"><ele>549.0</ele><time>2026-04-25T16:22:24Z</time></trkpt><trkpt lat="44.45917250211897" lon="9.367963297268366"><ele>548.25</ele><time>2026-04-25T16:22:25Z</time></trkpt><trkpt lat="44.45923767778956" lon="9.368139079895133"><ele>547.5</ele><time>2026-04-25T16:22:26Z</time></trkpt><trkpt lat="44.459276454589094" lon="9.368302000076334"><ele>546.75</ele><time>2026-04-25T16:22:27Z</time></trkpt><trkpt lat="44.45926202867824" lon="9.368455871888875"><ele>546.0</ele><time>2026-04-25T16:22:27.999Z</time></trkpt><trkpt lat="44.4592486650041" lon="9.368587289121256"><ele>546.0</ele><time>2026-04-25T16:22:28.999Z</time></trkpt><trkpt lat="44.45917896230238" lon="9.368681016497707"><ele>546.0</ele><time>2026-04-25T16:22:29.999Z</time></trkpt><trkpt lat="44.45908453490348" lon="9.368719306298312"><ele>546.0</ele><time>2026-04-25T16:22:30.999Z</time></trkpt><trkpt lat="44.458983716308715" lon="9.36869660200678"><ele>546.0</ele><time>2026-04-25T16:22:31.999Z</time></trkpt><trkpt lat="44.45888370672743" lon="9.368614073320918"><ele>546.0</ele><time>2026-04-25T16:22:32.999Z</time></trkpt><trkpt lat="44.45877419706424" lon="9.368496628931334"><ele>544.25</ele><time>2026-04-25T16:22:33.999Z</time></trkpt><trkpt lat="44.4586557566148" lon="9.368374452184149"><ele>542.5</ele><time>2026-04-25T16:22:34.999Z</time></trkpt><trkpt lat="44.458534920642904" lon="9.368288989730887"><ele>540.75</ele><time>2026-04-25T16:22:35.999Z</time></trkpt><trkpt lat="44.4584133695934" lon="9.368210328509386"><ele>539.0</ele><time>2026-04-25T16:22:36.999Z</time></trkpt><trkpt lat="44.45829659722207" lon="9.368221991522486"><ele>539.0</ele><time>2026-04-25T16:22:37.999Z</time></trkpt><trkpt lat="44.458162365108684" lon="9.368211411072172"><ele>539.0</ele><time>2026-04-25T16:22:38.999Z</time></trkpt><trkpt lat="44.45804199536233" lon="9.368194410335665"><ele>539.0</ele><time>2026-04-25T16:22:39.999Z</time></trkpt><trkpt lat="44.45792947328634" lon="9.3681174410959"><ele>539.0</ele><time>2026-04-25T16:22:40.999Z</time></trkpt><trkpt lat="44.45784131133574" lon="9.36799264690466"><ele>533.5</ele><time>2026-04-25T16:22:41.999Z</time></trkpt><trkpt lat="44.4577500295273" lon="9.367904146959052"><ele>528.0</ele><time>2026-04-25T16:22:42.999Z</time></trkpt><trkpt lat="44.45764324539697" lon="9.367876441994758"><ele>522.5</ele><time>2026-04-25T16:22:43.999Z</time></trkpt><trkpt lat="44.45752309741267" lon="9.36790188903334"><ele>517.0</ele><time>2026-04-25T16:22:44.999Z</time></trkpt><trkpt lat="44.45740022213636" lon="9.367943116446769"><ele>517.0</ele><time>2026-04-25T16:22:45.999Z</time></trkpt><trkpt lat="44.45728252845834" lon="9.36792207883028"><ele>517.0</ele><time>2026-04-25T16:22:46.999Z</time></trkpt><trkpt lat="44.45717202890121" lon="9.367836038205121"><ele>517.0</ele><time>2026-04-25T16:22:47.999Z</time></trkpt><trkpt lat="44.457051344701064" lon="9.367715312017799"><ele>517.0</ele><time>2026-04-25T16:22:48.999Z</time></trkpt><trkpt lat="44.45693695763571" lon="9.367618450994193"><ele>516.25</ele><time>2026-04-25T16:22:49.999Z</time></trkpt><trkpt lat="44.456832806908636" lon="9.36756475011289"><ele>515.5</ele><time>2026-04-25T16:22:50.999Z</time></trkpt><trkpt lat="44.45672809437014" lon="9.367560240860147"><ele>514.75</ele><time>2026-04-25T16:22:51.999Z</time></trkpt><trkpt lat="44.45661384005116" lon="9.367620825471963"><ele>514.0</ele><time>2026-04-25T16:22:52.999Z</time></trkpt><trkpt lat="44.4564958411249" lon="9.367691396526403"><ele>514.0</ele><time>2026-04-25T16:22:53.999Z</time></trkpt><trkpt lat="44.45636251287212" lon="9.367703230808708"><ele>514.0</ele><time>2026-04-25T16:22:54.999Z</time></trkpt><trkpt lat="44.45623585298043" lon="9.367672784770308"><ele>514.0</ele><time>2026-04-25T16:22:55.999Z</time></trkpt><trkpt lat="44.456132754588964" lon="9.367607024803759"><ele>514.0</ele><time>2026-04-25T16:22:56.999Z</time></trkpt><trkpt lat="44.45606034621163" lon="9.36749656940477"><ele>514.75</ele><time>2026-04-25T16:22:57.999Z</time></trkpt><trkpt lat="44.45601081766374" lon="9.367332330448336"><ele>515.5</ele><time>2026-04-25T16:22:58.999Z</time></trkpt><trkpt lat="44.45596600977155" lon="9.367128282712045"><ele>516.25</ele><time>2026-04-25T16:22:59.999Z</time></trkpt><trkpt lat="44.45591477000937" lon="9.366908507953813"><ele>517.0</ele><time>2026-04-25T16:23:00.999Z</time></trkpt><trkpt lat="44.45586641587968" lon="9.366703611258332"><ele>517.0</ele><time>2026-04-25T16:23:01.999Z</time></trkpt><trkpt lat="44.45578933598055" lon="9.36650938707697"><ele>517.0</ele><time>2026-04-25T16:23:02.999Z</time></trkpt><trkpt lat="44.45568825637015" lon="9.366310764098625"><ele>517.0</ele><time>2026-04-25T16:23:04Z</time></trkpt><trkpt lat="44.45557324976238" lon="9.366108849506125"><ele>516.0</ele><time>2026-04-25T16:23:05Z</time></trkpt><trkpt lat="44.455456454134215" lon="9.365907143214216"><ele>515.0</ele><time>2026-04-25T16:23:06Z</time></trkpt><trkpt lat="44.4553505410861" lon="9.36571743540211"><ele>514.0</ele><time>2026-04-25T16:23:07Z</time></trkpt><trkpt lat="44.45525205575386" lon="9.36553843661851"><ele>511.5</ele><time>2026-04-25T16:23:08Z</time></trkpt><trkpt lat="44.45515795823953" lon="9.365374006808722"><ele>509.0</ele><time>2026-04-25T16:23:09Z</time></trkpt><trkpt lat="44.45507229119498" lon="9.365222799258149"><ele>506.5</ele><time>2026-04-25T16:23:10Z</time></trkpt><trkpt lat="44.454999909422305" lon="9.365099881200438"><ele>504.0</ele><time>2026-04-25T16:23:11Z</time></trkpt><trkpt lat="44.45492205453595" lon="9.364990770538224"><ele>504.0</ele><time>2026-04-25T16:23:12Z</time></trkpt><trkpt lat="44.45482865434605" lon="9.364912803583588"><ele>504.0</ele><time>2026-04-25T16:23:13Z</time></trkpt><trkpt lat="44.45472567364108" lon="9.364875777284464"><ele>504.0</ele><time>2026-04-25T16:23:14Z</time></trkpt><trkpt lat="44.454626262830914" lon="9.36486546270416"><ele>504.0</ele><time>2026-04-25T16:23:15Z</time></trkpt><trkpt lat="44.4545486524187" lon="9.364843172228891"><ele>504.0</ele><time>2026-04-25T16:23:16Z</time></trkpt><trkpt lat="44.45448073658781" lon="9.364912284919505"><ele>503.25</ele><time>2026-04-25T16:23:17Z</time></trkpt><trkpt lat="44.45443517492502" lon="9.365024446986428"><ele>502.5</ele><time>2026-04-25T16:23:18Z</time></trkpt><trkpt lat="44.45440840416351" lon="9.365200187585776"><ele>501.75</ele><time>2026-04-25T16:23:19Z</time></trkpt><trkpt lat="44.45437023202396" lon="9.365392038063616"><ele>501.0</ele><time>2026-04-25T16:23:20Z</time></trkpt><trkpt lat="44.45425803347599" lon="9.365545115973681"><ele>501.0</ele><time>2026-04-25T16:23:21Z</time></trkpt><trkpt lat="44.454148194570266" lon="9.365692927260437"><ele>501.0</ele><time>2026-04-25T16:23:22Z</time></trkpt><trkpt lat="44.45404971827374" lon="9.365852865722477"><ele>501.0</ele><time>2026-04-25T16:23:23Z</time></trkpt><trkpt lat="44.45393626754656" lon="9.365993785215652"><ele>501.0</ele><time>2026-04-25T16:23:24Z</time></trkpt><trkpt lat="44.45383653288045" lon="9.366069420356029"><ele>501.0</ele><time>2026-04-25T16:23:25Z</time></trkpt><trkpt lat="44.453762214445334" lon="9.366079695099128"><ele>501.0</ele><time>2026-04-25T16:23:26Z</time></trkpt><trkpt lat="44.4537027083153" lon="9.366031053119748"><ele>501.0</ele><time>2026-04-25T16:23:27Z</time></trkpt><trkpt lat="44.453631951001896" lon="9.365956462584826"><ele>501.0</ele><time>2026-04-25T16:23:28Z</time></trkpt><trkpt lat="44.45356632421661" lon="9.365830555816155"><ele>498.6</ele><time>2026-04-25T16:23:29Z</time></trkpt><trkpt lat="44.45351716958452" lon="9.365680595585133"><ele>496.20000000000005</ele><time>2026-04-25T16:23:30Z</time></trkpt><trkpt lat="44.453489183870694" lon="9.365526287934577"><ele>493.79999999999995</ele><time>2026-04-25T16:23:31Z</time></trkpt><trkpt lat="44.45349377306537" lon="9.365389380132028"><ele>491.4</ele><time>2026-04-25T16:23:32Z</time></trkpt><trkpt lat="44.45351767532082" lon="9.36527840997516"><ele>489.0</ele><time>2026-04-25T16:23:33Z</time></trkpt><trkpt lat="44.45360180682628" lon="9.36526481455309"><ele>487.79999999999995</ele><time>2026-04-25T16:23:34Z</time></trkpt><trkpt lat="44.45366645403253" lon="9.365274070080204"><ele>486.59999999999997</ele><time>2026-04-25T16:23:35Z</time></trkpt><trkpt lat="44.45375881887055" lon="9.365268873390935"><ele>485.4</ele><time>2026-04-25T16:23:36Z</time></trkpt><trkpt lat="44.453872162332964" lon="9.365259097600706"><ele>484.2</ele><time>2026-04-25T16:23:37Z</time></trkpt><trkpt lat="44.45400257394637" lon="9.365223204128515"><ele>483.0</ele><time>2026-04-25T16:23:38Z</time></trkpt><trkpt lat="44.45410397593823" lon="9.365142905219185"><ele>483.0</ele><time>2026-04-25T16:23:39Z</time></trkpt><trkpt lat="44.4541661811154" lon="9.365025216469242"><ele>482.99999999999994</ele><time>2026-04-25T16:23:40Z</time></trkpt><trkpt lat="44.45419051415339" lon="9.36488532353746"><ele>482.99999999999994</ele><time>2026-04-25T16:23:41Z</time></trkpt><trkpt lat="44.45418903920018" lon="9.364735114709644"><ele>483.0</ele><time>2026-04-25T16:23:42Z</time></trkpt><trkpt lat="44.45417414433874" lon="9.364580479915762"><ele>483.0</ele><time>2026-04-25T16:23:43Z</time></trkpt><trkpt lat="44.45416944453158" lon="9.364425290134776"><ele>483.0</ele><time>2026-04-25T16:23:44Z</time></trkpt><trkpt lat="44.45418204259525" lon="9.364277459611044"><ele>482.99999999999994</ele><time>2026-04-25T16:23:45Z</time></trkpt><trkpt lat="44.454217909992494" lon="9.364141014907261"><ele>482.99999999999994</ele><time>2026-04-25T16:23:46Z</time></trkpt><trkpt lat="44.45428740059338" lon="9.364020655683953"><ele>483.0</ele><time>2026-04-25T16:23:47Z</time></trkpt><trkpt lat="44.454363009239614" lon="9.363895790400026"><ele>483.0</ele><time>2026-04-25T16:23:48Z</time></trkpt><trkpt lat="44.454436200773465" lon="9.363751695955989"><ele>481.25</ele><time>2026-04-25T16:23:49Z</time></trkpt><trkpt lat="44.45452270499991" lon="9.363620109894438"><ele>479.5</ele><time>2026-04-25T16:23:50Z</time></trkpt><trkpt lat="44.454607376079274" lon="9.363478535103843"><ele>477.75</ele><time>2026-04-25T16:23:51Z</time></trkpt><trkpt lat="44.45469204192453" lon="9.363340279848888"><ele>476.0</ele><time>2026-04-25T16:23:52Z</time></trkpt><trkpt lat="44.454773698374126" lon="9.363208744247112"><ele>476.0</ele><time>2026-04-25T16:23:53Z</time></trkpt><trkpt lat="44.45485244187082" lon="9.363079374024725"><ele>476.0</ele><time>2026-04-25T16:23:54Z</time></trkpt><trkpt lat="44.45492458030361" lon="9.362973862050419"><ele>476.0</ele><time>2026-04-25T16:23:55Z</time></trkpt><trkpt lat="44.4549949545162" lon="9.362922851174076"><ele>476.0</ele><time>2026-04-25T16:23:56Z</time></trkpt><trkpt lat="44.4550735810398" lon="9.362935860183452"><ele>476.0</ele><time>2026-04-25T16:23:57Z</time></trkpt><trkpt lat="44.45515770009703" lon="9.363010774111041"><ele>476.0</ele><time>2026-04-25T16:23:58Z</time></trkpt><trkpt lat="44.45521938626829" lon="9.363157528587772"><ele>476.0</ele><time>2026-04-25T16:23:59Z</time></trkpt><trkpt lat="44.45531712519436" lon="9.363318640092869"><ele>476.0</ele><time>2026-04-25T16:24:00Z</time></trkpt><trkpt lat="44.455386157531166" lon="9.3635422028615"><ele>476.0</ele><time>2026-04-25T16:24:01Z</time></trkpt><trkpt lat="44.45544578185316" lon="9.363764569667484"><ele>475.25</ele><time>2026-04-25T16:24:02Z</time></trkpt><trkpt lat="44.45547918792908" lon="9.363975732392477"><ele>474.5</ele><time>2026-04-25T16:24:03Z</time></trkpt><trkpt lat="44.45551756809239" lon="9.36415275671633"><ele>473.75</ele><time>2026-04-25T16:24:04Z</time></trkpt><trkpt lat="44.455558158803235" lon="9.364292262209021"><ele>473.0</ele><time>2026-04-25T16:24:05Z</time></trkpt><trkpt lat="44.45561250897543" lon="9.364397397040875"><ele>472.99999999999994</ele><time>2026-04-25T16:24:06Z</time></trkpt><trkpt lat="44.45568454729192" lon="9.36445972598731"><ele>473.0</ele><time>2026-04-25T16:24:07Z</time></trkpt><trkpt lat="44.45577318798271" lon="9.364466984249676"><ele>473.0</ele><time>2026-04-25T16:24:08Z</time></trkpt><trkpt lat="44.455855153528525" lon="9.36441785126327"><ele>473.0</ele><time>2026-04-25T16:24:09Z</time></trkpt><trkpt lat="44.455921105696575" lon="9.364335879142395"><ele>472.99999999999994</ele><time>2026-04-25T16:24:10Z</time></trkpt><trkpt lat="44.455944828537106" lon="9.364214417064366"><ele>473.0</ele><time>2026-04-25T16:24:11Z</time></trkpt><trkpt lat="44.45592687410128" lon="9.364062213984504"><ele>473.0</ele><time>2026-04-25T16:24:12Z</time></trkpt><trkpt lat="44.45587085274179" lon="9.363896924969644"><ele>473.0</ele><time>2026-04-25T16:24:13Z</time></trkpt><trkpt lat="44.455786773635175" lon="9.363714946722302"><ele>473.0</ele><time>2026-04-25T16:24:14Z</time></trkpt><trkpt lat="44.45569319013076" lon="9.363506326882698"><ele>470.0</ele><time>2026-04-25T16:24:15Z</time></trkpt><trkpt lat="44.45560376902321" lon="9.363289767560959"><ele>467.0</ele><time>2026-04-25T16:24:16Z</time></trkpt><trkpt lat="44.45551627833667" lon="9.363078406657399"><ele>464.0</ele><time>2026-04-25T16:24:17Z</time></trkpt><trkpt lat="44.45543794720942" lon="9.362877964265529"><ele>463.5</ele><time>2026-04-25T16:24:18Z</time></trkpt><trkpt lat="44.45536398981725" lon="9.362710660838388"><ele>463.0</ele><time>2026-04-25T16:24:19Z</time></trkpt><trkpt lat="44.455286919428325" lon="9.36258293727686"><ele>462.5</ele><time>2026-04-25T16:24:20Z</time></trkpt><trkpt lat="44.45519567484205" lon="9.362482769737333"><ele>462.0</ele><time>2026-04-25T16:24:21Z</time></trkpt><trkpt lat="44.455078243348254" lon="9.362415075414523"><ele>462.0</ele><time>2026-04-25T16:24:22Z</time></trkpt><trkpt lat="44.4549408661064" lon="9.362384547599131"><ele>462.0</ele><time>2026-04-25T16:24:23Z</time></trkpt><trkpt lat="44.45478629270334" lon="9.36238149950652"><ele>462.0</ele><time>2026-04-25T16:24:24Z</time></trkpt><trkpt lat="44.454623820895605" lon="9.36236202574647"><ele>462.66666666666663</ele><time>2026-04-25T16:24:25Z</time></trkpt><trkpt lat="44.4544689619517" lon="9.362316724066185"><ele>463.3333333333333</ele><time>2026-04-25T16:24:26Z</time></trkpt><trkpt lat="44.45432540865595" lon="9.36226188078256"><ele>464.0</ele><time>2026-04-25T16:24:27Z</time></trkpt><trkpt lat="44.4541914045996" lon="9.362181080015654"><ele>461.75</ele><time>2026-04-25T16:24:28Z</time></trkpt><trkpt lat="44.45407057886648" lon="9.362086461675785"><ele>459.5</ele><time>2026-04-25T16:24:29Z</time></trkpt><trkpt lat="44.453947664214084" lon="9.36198088218391"><ele>457.25</ele><time>2026-04-25T16:24:30Z</time></trkpt><trkpt lat="44.453817842047755" lon="9.36188929889937"><ele>455.0</ele><time>2026-04-25T16:24:31Z</time></trkpt><trkpt lat="44.45370374114735" lon="9.361763208615324"><ele>455.0</ele><time>2026-04-25T16:24:32Z</time></trkpt><trkpt lat="44.45360682852787" lon="9.361610667092448"><ele>455.0</ele><time>2026-04-25T16:24:33Z</time></trkpt><trkpt lat="44.45353536950383" lon="9.36143772533521"><ele>455.0</ele><time>2026-04-25T16:24:34Z</time></trkpt><trkpt lat="44.453486687492976" lon="9.361286339686004"><ele>455.0</ele><time>2026-04-25T16:24:35Z</time></trkpt><trkpt lat="44.45342391955227" lon="9.361188772091145"><ele>455.0</ele><time>2026-04-25T16:24:36Z</time></trkpt><trkpt lat="44.45333486349161" lon="9.361147578489758"><ele>455.0</ele><time>2026-04-25T16:24:37Z</time></trkpt><trkpt lat="44.45324175529109" lon="9.361153203865856"><ele>455.0</ele><time>2026-04-25T16:24:38Z</time></trkpt><trkpt lat="44.453153014788576" lon="9.361212792784178"><ele>455.0</ele><time>2026-04-25T16:24:39Z</time></trkpt><trkpt lat="44.453073883410475" lon="9.361308005553292"><ele>455.0</ele><time>2026-04-25T16:24:40Z</time></trkpt><trkpt lat="44.45299647721713" lon="9.361432825843963"><ele>453.8</ele><time>2026-04-25T16:24:40.999Z</time></trkpt><trkpt lat="44.452920272307374" lon="9.361554027043118"><ele>452.6</ele><time>2026-04-25T16:24:41.999Z</time></trkpt><trkpt lat="44.45282687095493" lon="9.361623058829426"><ele>451.4</ele><time>2026-04-25T16:24:42.999Z</time></trkpt><trkpt lat="44.45272545399804" lon="9.361583757046647"><ele>450.2</ele><time>2026-04-25T16:24:43.999Z</time></trkpt><trkpt lat="44.45263486597302" lon="9.361508438262735"><ele>449.0</ele><time>2026-04-25T16:24:44.999Z</time></trkpt><trkpt lat="44.45252167215692" lon="9.361444618388278"><ele>449.0</ele><time>2026-04-25T16:24:45.999Z</time></trkpt><trkpt lat="44.452411134868" lon="9.36137048516914"><ele>449.0</ele><time>2026-04-25T16:24:46.999Z</time></trkpt><trkpt lat="44.45229953964756" lon="9.361352072196107"><ele>449.0</ele><time>2026-04-25T16:24:47.999Z</time></trkpt><trkpt lat="44.45218123938422" lon="9.361403643245245"><ele>449.0</ele><time>2026-04-25T16:24:48.999Z</time></trkpt><trkpt lat="44.45204113057987" lon="9.361499751250278"><ele>445.5</ele><time>2026-04-25T16:24:49.999Z</time></trkpt><trkpt lat="44.45191726119791" lon="9.361609763836295"><ele>442.0</ele><time>2026-04-25T16:24:50.999Z</time></trkpt><trkpt lat="44.45179862229145" lon="9.36169842053314"><ele>438.5</ele><time>2026-04-25T16:24:51.999Z</time></trkpt><trkpt lat="44.451710282433794" lon="9.361800055251015"><ele>435.0</ele><time>2026-04-25T16:24:52.999Z</time></trkpt><trkpt lat="44.45165083387629" lon="9.361935342623445"><ele>435.0</ele><time>2026-04-25T16:24:53.999Z</time></trkpt><trkpt lat="44.45161294864218" lon="9.3620950955448"><ele>435.0</ele><time>2026-04-25T16:24:54.999Z</time></trkpt><trkpt lat="44.45158013459342" lon="9.362243582967196"><ele>435.0</ele><time>2026-04-25T16:24:55.999Z</time></trkpt><trkpt lat="44.45151847269801" lon="9.362333302596618"><ele>435.0</ele><time>2026-04-25T16:24:56.999Z</time></trkpt><trkpt lat="44.4514620639578" lon="9.362402331912655"><ele>435.0</ele><time>2026-04-25T16:24:57.999Z</time></trkpt><trkpt lat="44.45139240186125" lon="9.36242698400851"><ele>435.0</ele><time>2026-04-25T16:24:58.999Z</time></trkpt><trkpt lat="44.451320611676806" lon="9.362435940679523"><ele>435.0</ele><time>2026-04-25T16:24:59.999Z</time></trkpt><trkpt lat="44.451254419808265" lon="9.362362552255759"><ele>435.0</ele><time>2026-04-25T16:25:00.999Z</time></trkpt><trkpt lat="44.451219042587546" lon="9.362260105550478"><ele>435.0</ele><time>2026-04-25T16:25:01.999Z</time></trkpt><trkpt lat="44.45121956656514" lon="9.362142877273655"><ele>435.0</ele><time>2026-04-25T16:25:02.999Z</time></trkpt><trkpt lat="44.45126475616278" lon="9.362023464484377"><ele>435.0</ele><time>2026-04-25T16:25:03.999Z</time></trkpt><trkpt lat="44.45135985657827" lon="9.361914075103126"><ele>435.0</ele><time>2026-04-25T16:25:04.999Z</time></trkpt><trkpt lat="44.45145637443439" lon="9.361761668468716"><ele>435.0</ele><time>2026-04-25T16:25:05.999Z</time></trkpt><trkpt lat="44.451553664080585" lon="9.361601068958363"><ele>435.0</ele><time>2026-04-25T16:25:06.999Z</time></trkpt><trkpt lat="44.45162464499387" lon="9.361414223756034"><ele>435.0</ele><time>2026-04-25T16:25:07.999Z</time></trkpt><trkpt lat="44.45169123945464" lon="9.361233547791532"><ele>432.75</ele><time>2026-04-25T16:25:08.999Z</time></trkpt><trkpt lat="44.45177976004566" lon="9.361088954513235"><ele>430.5</ele><time>2026-04-25T16:25:10.001Z</time></trkpt><trkpt lat="44.45189905269724" lon="9.361002724616695"><ele>428.25</ele><time>2026-04-25T16:25:11.001Z</time></trkpt><trkpt lat="44.45201802044798" lon="9.360929818183621"><ele>426.0</ele><time>2026-04-25T16:25:12Z</time></trkpt><trkpt lat="44.452119655455085" lon="9.360886612382684"><ele>427.20000000000005</ele><time>2026-04-25T16:25:13.001Z</time></trkpt><trkpt lat="44.45221630227795" lon="9.36086115928705"><ele>428.40000000000003</ele><time>2026-04-25T16:25:14.001Z</time></trkpt><trkpt lat="44.4523007461022" lon="9.360948869006615"><ele>429.6</ele><time>2026-04-25T16:25:15.001Z</time></trkpt><trkpt lat="44.45240357282726" lon="9.361009763998329"><ele>430.8</ele><time>2026-04-25T16:25:16.001Z</time></trkpt><trkpt lat="44.45249856788174" lon="9.361098385385342"><ele>432.0</ele><time>2026-04-25T16:25:17.001Z</time></trkpt><trkpt lat="44.45259760945074" lon="9.361145366076332"><ele>432.0</ele><time>2026-04-25T16:25:18Z</time></trkpt><trkpt lat="44.45269503879057" lon="9.361152072586483"><ele>432.00000000000006</ele><time>2026-04-25T16:25:19Z</time></trkpt><trkpt lat="44.45278196619057" lon="9.361115907969458"><ele>432.00000000000006</ele><time>2026-04-25T16:25:20Z</time></trkpt><trkpt lat="44.45284665353228" lon="9.361037093719089"><ele>432.0</ele><time>2026-04-25T16:25:21Z</time></trkpt><trkpt lat="44.45287709436138" lon="9.36092182980919"><ele>432.0</ele><time>2026-04-25T16:25:22Z</time></trkpt><trkpt lat="44.45287180053435" lon="9.360798730187799"><ele>432.0</ele><time>2026-04-25T16:25:23Z</time></trkpt><trkpt lat="44.452831779528616" lon="9.360691945081921"><ele>432.00000000000006</ele><time>2026-04-25T16:25:24Z</time></trkpt><trkpt lat="44.452762005579835" lon="9.36061621948421"><ele>432.00000000000006</ele><time>2026-04-25T16:25:25Z</time></trkpt><trkpt lat="44.45266662455764" lon="9.360586997817032"><ele>432.0</ele><time>2026-04-25T16:25:26Z</time></trkpt><trkpt lat="44.452564182773486" lon="9.360620176470995"><ele>432.0</ele><time>2026-04-25T16:25:27Z</time></trkpt><trkpt lat="44.45246278886683" lon="9.360669993276511"><ele>432.0</ele><time>2026-04-25T16:25:28Z</time></trkpt><trkpt lat="44.452365853161915" lon="9.360670238047273"><ele>432.00000000000006</ele><time>2026-04-25T16:25:29Z</time></trkpt><trkpt lat="44.452279818531785" lon="9.360609419454326"><ele>432.00000000000006</ele><time>2026-04-25T16:25:30Z</time></trkpt><trkpt lat="44.452200594778766" lon="9.36049416250708"><ele>432.0</ele><time>2026-04-25T16:25:31Z</time></trkpt><trkpt lat="44.452145513278495" lon="9.360346251671672"><ele>432.0</ele><time>2026-04-25T16:25:32Z</time></trkpt><trkpt lat="44.45209019027648" lon="9.360201819591614"><ele>428.8</ele><time>2026-04-25T16:25:33Z</time></trkpt><trkpt lat="44.45202135509327" lon="9.360098990015686"><ele>425.6</ele><time>2026-04-25T16:25:34Z</time></trkpt><trkpt lat="44.45195065358128" lon="9.36003675376431"><ele>422.40000000000003</ele><time>2026-04-25T16:25:35Z</time></trkpt><trkpt lat="44.45186924024014" lon="9.360018948708422"><ele>419.20000000000005</ele><time>2026-04-25T16:25:36Z</time></trkpt><trkpt lat="44.451779858393834" lon="9.360033555163163"><ele>416.0</ele><time>2026-04-25T16:25:37Z</time></trkpt><trkpt lat="44.451686380705524" lon="9.360094706616048"><ele>416.0</ele><time>2026-04-25T16:25:38Z</time></trkpt><trkpt lat="44.451581572451616" lon="9.360190331475438"><ele>416.0</ele><time>2026-04-25T16:25:39Z</time></trkpt><trkpt lat="44.451465044384975" lon="9.360301826156276"><ele>416.0</ele><time>2026-04-25T16:25:40Z</time></trkpt><trkpt lat="44.45134585582115" lon="9.360404462102164"><ele>416.0</ele><time>2026-04-25T16:25:41Z</time></trkpt><trkpt lat="44.451240134538125" lon="9.360514644059508"><ele>412.3333333333333</ele><time>2026-04-25T16:25:42Z</time></trkpt><trkpt lat="44.451145493689104" lon="9.360665074021345"><ele>408.66666666666663</ele><time>2026-04-25T16:25:43Z</time></trkpt><trkpt lat="44.45105886737546" lon="9.360850267638355"><ele>405.0</ele><time>2026-04-25T16:25:44Z</time></trkpt><trkpt lat="44.450970135712716" lon="9.361030053814536"><ele>405.0</ele><time>2026-04-25T16:25:45Z</time></trkpt><trkpt lat="44.450883675205894" lon="9.361186327811916"><ele>405.0</ele><time>2026-04-25T16:25:46Z</time></trkpt><trkpt lat="44.45081922570587" lon="9.361332943801699"><ele>405.0</ele><time>2026-04-25T16:25:47Z</time></trkpt><trkpt lat="44.45079536902078" lon="9.361497073255432"><ele>405.0</ele><time>2026-04-25T16:25:48Z</time></trkpt><trkpt lat="44.450825895430896" lon="9.36167243550212"><ele>406.8</ele><time>2026-04-25T16:25:49Z</time></trkpt><trkpt lat="44.45083757365204" lon="9.361835636644411"><ele>408.6</ele><time>2026-04-25T16:25:50Z</time></trkpt><trkpt lat="44.45081194607988" lon="9.361982165192098"><ele>410.4</ele><time>2026-04-25T16:25:51Z</time></trkpt><trkpt lat="44.450758575675536" lon="9.362102511639197"><ele>412.2</ele><time>2026-04-25T16:25:52Z</time></trkpt><trkpt lat="44.45067507972361" lon="9.362179623398804"><ele>414.0</ele><time>2026-04-25T16:25:53Z</time></trkpt><trkpt lat="44.4505652075763" lon="9.362187889149153"><ele>411.5</ele><time>2026-04-25T16:25:54Z</time></trkpt><trkpt lat="44.45043663665223" lon="9.36221393850724"><ele>409.0</ele><time>2026-04-25T16:25:55Z</time></trkpt><trkpt lat="44.45030076740294" lon="9.362223609796049"><ele>406.5</ele><time>2026-04-25T16:25:56Z</time></trkpt><trkpt lat="44.45016632921018" lon="9.362226111775021"><ele>404.0</ele><time>2026-04-25T16:25:57Z</time></trkpt><trkpt lat="44.4500451280348" lon="9.362248875305028"><ele>404.0</ele><time>2026-04-25T16:25:58Z</time></trkpt><trkpt lat="44.44992364160059" lon="9.362284903274292"><ele>404.0</ele><time>2026-04-25T16:25:59Z</time></trkpt><trkpt lat="44.44982367092496" lon="9.362362932857499"><ele>404.0</ele><time>2026-04-25T16:26:00Z</time></trkpt><trkpt lat="44.44975957196241" lon="9.362479561897658"><ele>404.0</ele><time>2026-04-25T16:26:01Z</time></trkpt><trkpt lat="44.449734847004194" lon="9.362631263458063"><ele>404.0</ele><time>2026-04-25T16:26:02Z</time></trkpt><trkpt lat="44.44974100344721" lon="9.362810548095787"><ele>404.0</ele><time>2026-04-25T16:26:03Z</time></trkpt><trkpt lat="44.44979348649626" lon="9.362996650158502"><ele>404.0</ele><time>2026-04-25T16:26:04Z</time></trkpt><trkpt lat="44.44985810384204" lon="9.363166229495343"><ele>404.0</ele><time>2026-04-25T16:26:05Z</time></trkpt><trkpt lat="44.44986345094227" lon="9.363337652322137"><ele>404.75</ele><time>2026-04-25T16:26:06Z</time></trkpt><trkpt lat="44.44981583168766" lon="9.363478878603326"><ele>405.5</ele><time>2026-04-25T16:26:07Z</time></trkpt><trkpt lat="44.44975486924281" lon="9.363619343744045"><ele>406.25</ele><time>2026-04-25T16:26:08Z</time></trkpt><trkpt lat="44.44968584515211" lon="9.363729364405238"><ele>407.0</ele><time>2026-04-25T16:26:09Z</time></trkpt><trkpt lat="44.449554697072834" lon="9.363727085616532"><ele>403.5</ele><time>2026-04-25T16:26:10Z</time></trkpt><trkpt lat="44.4494259911381" lon="9.363723228129919"><ele>400.0</ele><time>2026-04-25T16:26:11Z</time></trkpt><trkpt lat="44.44928915907266" lon="9.363774391552793"><ele>396.5</ele><time>2026-04-25T16:26:12Z</time></trkpt><trkpt lat="44.44915201773215" lon="9.36382257038135"><ele>393.0</ele><time>2026-04-25T16:26:13Z</time></trkpt><trkpt lat="44.44902483414532" lon="9.363900367746888"><ele>393.0</ele><time>2026-04-25T16:26:14Z</time></trkpt><trkpt lat="44.448919749450454" lon="9.363992269207554"><ele>393.0</ele><time>2026-04-25T16:26:15Z</time></trkpt><trkpt lat="44.448857271740415" lon="9.364098626547356"><ele>393.0</ele><time>2026-04-25T16:26:16Z</time></trkpt><trkpt lat="44.44883173411837" lon="9.364235579990131"><ele>393.0</ele><time>2026-04-25T16:26:17Z</time></trkpt><trkpt lat="44.448833189889086" lon="9.364387486975213"><ele>393.0</ele><time>2026-04-25T16:26:18Z</time></trkpt><trkpt lat="44.448864334046824" lon="9.364530337894239"><ele>393.0</ele><time>2026-04-25T16:26:19Z</time></trkpt><trkpt lat="44.44893716360013" lon="9.364650001677298"><ele>393.0</ele><time>2026-04-25T16:26:20Z</time></trkpt><trkpt lat="44.449042709019224" lon="9.364749197842782"><ele>393.0</ele><time>2026-04-25T16:26:21Z</time></trkpt><trkpt lat="44.449130828332386" lon="9.364840609622096"><ele>393.0</ele><time>2026-04-25T16:26:22Z</time></trkpt><trkpt lat="44.44914983530562" lon="9.364964847787872"><ele>393.0</ele><time>2026-04-25T16:26:23Z</time></trkpt><trkpt lat="44.449122987411606" lon="9.365074331447573"><ele>393.0</ele><time>2026-04-25T16:26:24Z</time></trkpt><trkpt lat="44.44905589955889" lon="9.365171900342686"><ele>393.0</ele><time>2026-04-25T16:26:25Z</time></trkpt><trkpt lat="44.448962200480636" lon="9.365234211284788"><ele>393.0</ele><time>2026-04-25T16:26:26Z</time></trkpt><trkpt lat="44.448863888296394" lon="9.365224188177212"><ele>393.0</ele><time>2026-04-25T16:26:27Z</time></trkpt><trkpt lat="44.44873273312036" lon="9.365174669523844"><ele>393.0</ele><time>2026-04-25T16:26:28Z</time></trkpt><trkpt lat="44.44861175124983" lon="9.365103245651925"><ele>393.0</ele><time>2026-04-25T16:26:29Z</time></trkpt><trkpt lat="44.44848054179471" lon="9.365032836882344"><ele>393.0</ele><time>2026-04-25T16:26:30Z</time></trkpt><trkpt lat="44.44832666127779" lon="9.364999399790479"><ele>393.0</ele><time>2026-04-25T16:26:31Z</time></trkpt><trkpt lat="44.448186498757124" lon="9.364944027546963"><ele>393.0</ele><time>2026-04-25T16:26:32Z</time></trkpt><trkpt lat="44.448069501662374" lon="9.364845678968635"><ele>393.5</ele><time>2026-04-25T16:26:33Z</time></trkpt><trkpt lat="44.4479511952247" lon="9.364791072579337"><ele>394.0</ele><time>2026-04-25T16:26:34Z</time></trkpt><trkpt lat="44.44781744194546" lon="9.364804530926202"><ele>394.5</ele><time>2026-04-25T16:26:35Z</time></trkpt><trkpt lat="44.44767069968009" lon="9.364848456339029"><ele>395.0</ele><time>2026-04-25T16:26:36Z</time></trkpt><trkpt lat="44.44752751869866" lon="9.364868340161745"><ele>395.0</ele><time>2026-04-25T16:26:37Z</time></trkpt><trkpt lat="44.447387950765865" lon="9.36482515801265"><ele>395.0</ele><time>2026-04-25T16:26:38Z</time></trkpt><trkpt lat="44.44722054231828" lon="9.364732430821958"><ele>395.0</ele><time>2026-04-25T16:26:39Z</time></trkpt><trkpt lat="44.447022911416255" lon="9.364636443305187"><ele>384.66666666666663</ele><time>2026-04-25T16:26:40Z</time></trkpt><trkpt lat="44.446817103509765" lon="9.364557085356807"><ele>374.3333333333333</ele><time>2026-04-25T16:26:40.999Z</time></trkpt><trkpt lat="44.44661998606161" lon="9.3644856225783"><ele>364.0</ele><time>2026-04-25T16:26:41.999Z</time></trkpt><trkpt lat="44.44643531355881" lon="9.36442981937642"><ele>367.0</ele><time>2026-04-25T16:26:42.999Z</time></trkpt><trkpt lat="44.44625660919741" lon="9.36438641815404"><ele>370.0</ele><time>2026-04-25T16:26:43.999Z</time></trkpt><trkpt lat="44.446079418948734" lon="9.364353447660886"><ele>373.0</ele><time>2026-04-25T16:26:44.999Z</time></trkpt><trkpt lat="44.44590936033626" lon="9.364329121965902"><ele>373.0</ele><time>2026-04-25T16:26:45.999Z</time></trkpt><trkpt lat="44.44574824225651" lon="9.36429345651184"><ele>373.0</ele><time>2026-04-25T16:26:46.999Z</time></trkpt><trkpt lat="44.44559907671508" lon="9.364241328445829"><ele>373.0</ele><time>2026-04-25T16:26:47.999Z</time></trkpt><trkpt lat="44.445462876008136" lon="9.364178560520928"><ele>371.75</ele><time>2026-04-25T16:26:48.999Z</time></trkpt><trkpt lat="44.44534050892813" lon="9.364131920131904"><ele>370.5</ele><time>2026-04-25T16:26:49.999Z</time></trkpt><trkpt lat="44.445228528610045" lon="9.364096518654984"><ele>369.25</ele><time>2026-04-25T16:26:50.999Z</time></trkpt><trkpt lat="44.44511556470521" lon="9.364078363283362"><ele>368.0</ele><time>2026-04-25T16:26:51.999Z</time></trkpt><trkpt lat="44.4450045328032" lon="9.364096518548603"><ele>368.0</ele><time>2026-04-25T16:26:52.999Z</time></trkpt><trkpt lat="44.44489714349505" lon="9.364157615250962"><ele>368.0</ele><time>2026-04-25T16:26:53.999Z</time></trkpt><trkpt lat="44.444787273317836" lon="9.364259099059275"><ele>368.0</ele><time>2026-04-25T16:26:54.999Z</time></trkpt><trkpt lat="44.444685990121286" lon="9.364400401283993"><ele>368.0</ele><time>2026-04-25T16:26:55.999Z</time></trkpt><trkpt lat="44.44460154755687" lon="9.364528414560485"><ele>366.2</ele><time>2026-04-25T16:26:56.999Z</time></trkpt><trkpt lat="44.44451918592381" lon="9.364585407346336"><ele>364.4</ele><time>2026-04-25T16:26:57.999Z</time></trkpt><trkpt lat="44.44442927311831" lon="9.364554424848658"><ele>362.59999999999997</ele><time>2026-04-25T16:26:58.999Z</time></trkpt><trkpt lat="44.444335550049004" lon="9.364448290195103"><ele>360.79999999999995</ele><time>2026-04-25T16:26:59.999Z</time></trkpt><trkpt lat="44.44420688207975" lon="9.364413148388737"><ele>359.0</ele><time>2026-04-25T16:27:00.999Z</time></trkpt><trkpt lat="44.44406107207987" lon="9.364392618966978"><ele>359.0</ele><time>2026-04-25T16:27:01.999Z</time></trkpt><trkpt lat="44.44391064751251" lon="9.364386306794026"><ele>359.0</ele><time>2026-04-25T16:27:02.999Z</time></trkpt><trkpt lat="44.44379347139545" lon="9.364352683110457"><ele>359.0</ele><time>2026-04-25T16:27:03.999Z</time></trkpt><trkpt lat="44.44372212804801" lon="9.364226873558746"><ele>359.0</ele><time>2026-04-25T16:27:04.999Z</time></trkpt><trkpt lat="44.44363546103815" lon="9.364117592340824"><ele>359.6666666666667</ele><time>2026-04-25T16:27:05.999Z</time></trkpt><trkpt lat="44.44356556934467" lon="9.364029283862271"><ele>360.33333333333337</ele><time>2026-04-25T16:27:06.999Z</time></trkpt><trkpt lat="44.443503997803276" lon="9.363949550593391"><ele>361.0</ele><time>2026-04-25T16:27:07.999Z</time></trkpt><trkpt lat="44.443434294397534" lon="9.363894765881799"><ele>361.6666666666667</ele><time>2026-04-25T16:27:08.999Z</time></trkpt><trkpt lat="44.443368294763296" lon="9.363866543641661"><ele>362.3333333333333</ele><time>2026-04-25T16:27:09.999Z</time></trkpt><trkpt lat="44.443305234283145" lon="9.363869841926139"><ele>363.0</ele><time>2026-04-25T16:27:10.999Z</time></trkpt><trkpt lat="44.44322671827881" lon="9.363866638069046"><ele>363.0</ele><time>2026-04-25T16:27:11.999Z</time></trkpt><trkpt lat="44.44313521485126" lon="9.363871248975489"><ele>363.0</ele><time>2026-04-25T16:27:12.999Z</time></trkpt><trkpt lat="44.44305532514264" lon="9.363876516917584"><ele>363.0</ele><time>2026-04-25T16:27:13.999Z</time></trkpt><trkpt lat="44.44294751856765" lon="9.363885690327484"><ele>363.0</ele><time>2026-04-25T16:27:16Z</time></trkpt><trkpt lat="44.442871272329675" lon="9.363892178233689"><ele>363.0</ele><time>2026-04-25T16:27:18Z</time></trkpt><trkpt lat="44.44277864668084" lon="9.363899172133042"><ele>363.0</ele><time>2026-04-25T16:27:20Z</time></trkpt><trkpt lat="44.44265561542628" lon="9.363899427204645"><ele>362.0</ele><time>2026-04-25T16:27:22Z</time></trkpt><trkpt lat="44.44258157341966" lon="9.363887460041903"><ele>361.0</ele><time>2026-04-25T16:27:23Z</time></trkpt><trkpt lat="44.44249804515971" lon="9.363871363629674"><ele>360.0</ele><time>2026-04-25T16:27:24Z</time></trkpt><trkpt lat="44.44241802412162" lon="9.363847863570339"><ele>359.0</ele><time>2026-04-25T16:27:25Z</time></trkpt><trkpt lat="44.4423445556898" lon="9.363822010505775"><ele>358.0</ele><time>2026-04-25T16:27:26Z</time></trkpt><trkpt lat="44.4422613157145" lon="9.363790293936173"><ele>357.0</ele><time>2026-04-25T16:27:27Z</time></trkpt><trkpt lat="44.44217343057549" lon="9.36375850391418"><ele>354.6666666666667</ele><time>2026-04-25T16:27:28Z</time></trkpt><trkpt lat="44.442087091910246" lon="9.363740290991702"><ele>352.3333333333333</ele><time>2026-04-25T16:27:29Z</time></trkpt><trkpt lat="44.44200740910536" lon="9.363751865747755"><ele>350.0</ele><time>2026-04-25T16:27:30Z</time></trkpt><trkpt lat="44.44192874553598" lon="9.36380319694442"><ele>347.66666666666663</ele><time>2026-04-25T16:27:31Z</time></trkpt><trkpt lat="44.44185490978042" lon="9.363880624795495"><ele>345.3333333333333</ele><time>2026-04-25T16:27:32Z</time></trkpt><trkpt lat="44.441811757458254" lon="9.36401115145766"><ele>343.0</ele><time>2026-04-25T16:27:33Z</time></trkpt><trkpt lat="44.44178196550274" lon="9.364134994679107"><ele>343.0</ele><time>2026-04-25T16:27:34Z</time></trkpt><trkpt lat="44.44173652988174" lon="9.364241386737488"><ele>343.0</ele><time>2026-04-25T16:27:35Z</time></trkpt><trkpt lat="44.441671967551805" lon="9.364306029468686"><ele>343.0</ele><time>2026-04-25T16:27:36Z</time></trkpt><trkpt lat="44.44158318136392" lon="9.364325184306969"><ele>343.0</ele><time>2026-04-25T16:27:37Z</time></trkpt><trkpt lat="44.44148408422529" lon="9.364364596000637"><ele>343.0</ele><time>2026-04-25T16:27:38Z</time></trkpt><trkpt lat="44.441400860101446" lon="9.364443457261991"><ele>343.0</ele><time>2026-04-25T16:27:39Z</time></trkpt><trkpt lat="44.441345586292705" lon="9.364570673609164"><ele>343.0</ele><time>2026-04-25T16:27:40Z</time></trkpt><trkpt lat="44.44127893980488" lon="9.364690192535836"><ele>343.0</ele><time>2026-04-25T16:27:41Z</time></trkpt><trkpt lat="44.44121538687268" lon="9.364822792730976"><ele>343.0</ele><time>2026-04-25T16:27:42Z</time></trkpt><trkpt lat="44.44115130718533" lon="9.36496407135053"><ele>343.0</ele><time>2026-04-25T16:27:43Z</time></trkpt><trkpt lat="44.44108466439991" lon="9.365103135306647"><ele>343.0</ele><time>2026-04-25T16:27:44Z</time></trkpt><trkpt lat="44.441019611420224" lon="9.365233656398699"><ele>343.0</ele><time>2026-04-25T16:27:45Z</time></trkpt><trkpt lat="44.44095090425606" lon="9.365340511477495"><ele>343.0</ele><time>2026-04-25T16:27:46Z</time></trkpt><trkpt lat="44.44086558576985" lon="9.365400885310335"><ele>343.0</ele><time>2026-04-25T16:27:47Z</time></trkpt><trkpt lat="44.44076894856865" lon="9.365406634864595"><ele>343.0</ele><time>2026-04-25T16:27:48Z</time></trkpt><trkpt lat="44.440680914220536" lon="9.365341140076866"><ele>343.0</ele><time>2026-04-25T16:27:49Z</time></trkpt><trkpt lat="44.44059546352026" lon="9.365304332604687"><ele>343.0</ele><time>2026-04-25T16:27:50Z</time></trkpt><trkpt lat="44.440516114384906" lon="9.365260720506276"><ele>343.0</ele><time>2026-04-25T16:27:51Z</time></trkpt><trkpt lat="44.44043367468057" lon="9.365273588244522"><ele>343.0</ele><time>2026-04-25T16:27:52Z</time></trkpt><trkpt lat="44.44035264814626" lon="9.365329782281062"><ele>343.0</ele><time>2026-04-25T16:27:53Z</time></trkpt><trkpt lat="44.44026974283774" lon="9.365403940808667"><ele>343.0</ele><time>2026-04-25T16:27:54Z</time></trkpt><trkpt lat="44.44018018900472" lon="9.365467433707751"><ele>343.4</ele><time>2026-04-25T16:27:55Z</time></trkpt><trkpt lat="44.44008555982613" lon="9.365533321620559"><ele>343.79999999999995</ele><time>2026-04-25T16:27:56Z</time></trkpt><trkpt lat="44.439996277590176" lon="9.365608981089498"><ele>344.2</ele><time>2026-04-25T16:27:57Z</time></trkpt><trkpt lat="44.439911208913564" lon="9.365703551826954"><ele>344.6</ele><time>2026-04-25T16:27:58Z</time></trkpt><trkpt lat="44.43979947650963" lon="9.365796659721813"><ele>345.0</ele><time>2026-04-25T16:27:59Z</time></trkpt><trkpt lat="44.439691677416434" lon="9.365925638186447"><ele>343.5</ele><time>2026-04-25T16:28:00Z</time></trkpt><trkpt lat="44.439572385444336" lon="9.36604823359305"><ele>342.0</ele><time>2026-04-25T16:28:01Z</time></trkpt><trkpt lat="44.43945923370367" lon="9.366168271919316"><ele>340.5</ele><time>2026-04-25T16:28:02Z</time></trkpt><trkpt lat="44.43934691414151" lon="9.366274484580849"><ele>339.0</ele><time>2026-04-25T16:28:03Z</time></trkpt><trkpt lat="44.43922870607115" lon="9.366362882509131"><ele>339.0</ele><time>2026-04-25T16:28:04Z</time></trkpt><trkpt lat="44.439096251449655" lon="9.366388626078638"><ele>339.0</ele><time>2026-04-25T16:28:05Z</time></trkpt><trkpt lat="44.43898336078449" lon="9.366432042896543"><ele>339.0</ele><time>2026-04-25T16:28:06Z</time></trkpt><trkpt lat="44.43888118912123" lon="9.366446775368667"><ele>339.0</ele><time>2026-04-25T16:28:07Z</time></trkpt><trkpt lat="44.438776107951725" lon="9.366442315517459"><ele>336.79999999999995</ele><time>2026-04-25T16:28:08Z</time></trkpt><trkpt lat="44.43866960464134" lon="9.366415991458378"><ele>334.59999999999997</ele><time>2026-04-25T16:28:09Z</time></trkpt><trkpt lat="44.4385670501564" lon="9.366380218797838"><ele>332.4</ele><time>2026-04-25T16:28:10Z</time></trkpt><trkpt lat="44.43847844759916" lon="9.366344422768073"><ele>330.2</ele><time>2026-04-25T16:28:11Z</time></trkpt><trkpt lat="44.43840105050266" lon="9.366353003999931"><ele>328.0</ele><time>2026-04-25T16:28:12Z</time></trkpt><trkpt lat="44.43833263784449" lon="9.366414250230587"><ele>328.0</ele><time>2026-04-25T16:28:13Z</time></trkpt><trkpt lat="44.43826219476866" lon="9.366487429721225"><ele>328.0</ele><time>2026-04-25T16:28:14Z</time></trkpt><trkpt lat="44.4381835018202" lon="9.36656849758897"><ele>328.0</ele><time>2026-04-25T16:28:15Z</time></trkpt><trkpt lat="44.43808909193683" lon="9.36664475293686"><ele>328.0</ele><time>2026-04-25T16:28:16Z</time></trkpt><trkpt lat="44.43798266886213" lon="9.366727676520862"><ele>328.0</ele><time>2026-04-25T16:28:17Z</time></trkpt><trkpt lat="44.437873600113605" lon="9.366806018507676"><ele>324.25</ele><time>2026-04-25T16:28:18Z</time></trkpt><trkpt lat="44.437766712911504" lon="9.366898968591462"><ele>320.5</ele><time>2026-04-25T16:28:19Z</time></trkpt><trkpt lat="44.43765303864911" lon="9.366991710393881"><ele>316.75</ele><time>2026-04-25T16:28:20Z</time></trkpt><trkpt lat="44.437533038772706" lon="9.367091226204629"><ele>313.0</ele><time>2026-04-25T16:28:21Z</time></trkpt><trkpt lat="44.43740040092979" lon="9.367143588909887"><ele>313.25</ele><time>2026-04-25T16:28:22Z</time></trkpt><trkpt lat="44.43727137327025" lon="9.36719627020025"><ele>313.5</ele><time>2026-04-25T16:28:23Z</time></trkpt><trkpt lat="44.437134912848904" lon="9.367251162292952"><ele>313.75</ele><time>2026-04-25T16:28:24Z</time></trkpt><trkpt lat="44.43699345040985" lon="9.367322119154183"><ele>314.0</ele><time>2026-04-25T16:28:25Z</time></trkpt><trkpt lat="44.43685016889532" lon="9.367381380791555"><ele>314.0</ele><time>2026-04-25T16:28:26Z</time></trkpt><trkpt lat="44.43672153909885" lon="9.367436232717624"><ele>314.0</ele><time>2026-04-25T16:28:27Z</time></trkpt><trkpt lat="44.43659450113266" lon="9.367488342219364"><ele>314.0</ele><time>2026-04-25T16:28:28Z</time></trkpt><trkpt lat="44.436469466700885" lon="9.367523657638216"><ele>314.0</ele><time>2026-04-25T16:28:29Z</time></trkpt><trkpt lat="44.4363541547769" lon="9.36757314726682"><ele>312.75</ele><time>2026-04-25T16:28:30Z</time></trkpt><trkpt lat="44.4362568355646" lon="9.367636023124842"><ele>311.5</ele><time>2026-04-25T16:28:31Z</time></trkpt><trkpt lat="44.43618524084748" lon="9.36775993596473"><ele>310.25</ele><time>2026-04-25T16:28:32Z</time></trkpt><trkpt lat="44.43611646374439" lon="9.367912505810587"><ele>309.0</ele><time>2026-04-25T16:28:33Z</time></trkpt><trkpt lat="44.43604132796155" lon="9.368056103128588"><ele>309.0</ele><time>2026-04-25T16:28:34Z</time></trkpt><trkpt lat="44.43592010810037" lon="9.36812342267618"><ele>309.0</ele><time>2026-04-25T16:28:35Z</time></trkpt><trkpt lat="44.43578112673838" lon="9.36816083196125"><ele>309.0</ele><time>2026-04-25T16:28:36Z</time></trkpt><trkpt lat="44.43563329080524" lon="9.36821860709768"><ele>309.0</ele><time>2026-04-25T16:28:37Z</time></trkpt><trkpt lat="44.435491422351234" lon="9.368282004552094"><ele>303.75</ele><time>2026-04-25T16:28:38Z</time></trkpt><trkpt lat="44.43536444484156" lon="9.368361512770116"><ele>298.5</ele><time>2026-04-25T16:28:39Z</time></trkpt><trkpt lat="44.43524690196044" lon="9.368466142878525"><ele>293.25</ele><time>2026-04-25T16:28:40Z</time></trkpt><trkpt lat="44.43514934040561" lon="9.368596154493021"><ele>288.0</ele><time>2026-04-25T16:28:40.999Z</time></trkpt><trkpt lat="44.43506702955423" lon="9.368741661817872"><ele>291.5</ele><time>2026-04-25T16:28:41.999Z</time></trkpt><trkpt lat="44.43498706125585" lon="9.368907249875095"><ele>295.0</ele><time>2026-04-25T16:28:42.999Z</time></trkpt><trkpt lat="44.434923064505746" lon="9.36910594073037"><ele>298.5</ele><time>2026-04-25T16:28:43.999Z</time></trkpt><trkpt lat="44.434866697003145" lon="9.369298220827991"><ele>302.0</ele><time>2026-04-25T16:28:44.999Z</time></trkpt><trkpt lat="44.4348156135664" lon="9.369486630046302"><ele>302.0</ele><time>2026-04-25T16:28:45.999Z</time></trkpt><trkpt lat="44.43476420030045" lon="9.36966849536541"><ele>302.0</ele><time>2026-04-25T16:28:46.999Z</time></trkpt><trkpt lat="44.4347493239564" lon="9.369883299080385"><ele>302.0</ele><time>2026-04-25T16:28:47.999Z</time></trkpt><trkpt lat="44.43475261340559" lon="9.370112309821424"><ele>302.75</ele><time>2026-04-25T16:28:48.999Z</time></trkpt><trkpt lat="44.43476788287584" lon="9.370326106354332"><ele>303.5</ele><time>2026-04-25T16:28:49.999Z</time></trkpt><trkpt lat="44.43477118922732" lon="9.370504512468573"><ele>304.25</ele><time>2026-04-25T16:28:50.999Z</time></trkpt><trkpt lat="44.43477183526912" lon="9.370649122642943"><ele>305.0</ele><time>2026-04-25T16:28:51.999Z</time></trkpt><trkpt lat="44.43473687999625" lon="9.37075946667936"><ele>305.6</ele><time>2026-04-25T16:28:52.999Z</time></trkpt><trkpt lat="44.434683039539756" lon="9.370828317649032"><ele>306.2</ele><time>2026-04-25T16:28:53.999Z</time></trkpt><trkpt lat="44.434594746262064" lon="9.370813877386574"><ele>306.8</ele><time>2026-04-25T16:28:54.999Z</time></trkpt><trkpt lat="44.434506506726855" lon="9.370763668560821"><ele>307.4</ele><time>2026-04-25T16:28:55.999Z</time></trkpt><trkpt lat="44.43440129961562" lon="9.370678061699266"><ele>308.0</ele><time>2026-04-25T16:28:56.999Z</time></trkpt><trkpt lat="44.43427051817223" lon="9.370591584489107"><ele>302.6</ele><time>2026-04-25T16:28:57.999Z</time></trkpt><trkpt lat="44.43415003412581" lon="9.370510132499232"><ele>297.20000000000005</ele><time>2026-04-25T16:28:58.999Z</time></trkpt><trkpt lat="44.434045153796916" lon="9.37043872096026"><ele>291.8</ele><time>2026-04-25T16:28:59.999Z</time></trkpt><trkpt lat="44.433941787831515" lon="9.370416173206069"><ele>286.40000000000003</ele><time>2026-04-25T16:29:00.999Z</time></trkpt><trkpt lat="44.433854219723955" lon="9.370412977096576"><ele>281.0</ele><time>2026-04-25T16:29:01.999Z</time></trkpt><trkpt lat="44.433768173590536" lon="9.370472471391052"><ele>280.75</ele><time>2026-04-25T16:29:02.999Z</time></trkpt><trkpt lat="44.433676376488314" lon="9.37057790318507"><ele>280.5</ele><time>2026-04-25T16:29:03.999Z</time></trkpt><trkpt lat="44.43358961297207" lon="9.370705702502766"><ele>280.25</ele><time>2026-04-25T16:29:04.999Z</time></trkpt><trkpt lat="44.43347989581334" lon="9.37084347044862"><ele>280.0</ele><time>2026-04-25T16:29:05.999Z</time></trkpt><trkpt lat="44.43336497373567" lon="9.370980781967445"><ele>280.0</ele><time>2026-04-25T16:29:06.999Z</time></trkpt><trkpt lat="44.433253358945024" lon="9.37109914625514"><ele>280.0</ele><time>2026-04-25T16:29:07.999Z</time></trkpt><trkpt lat="44.43314491356571" lon="9.371219464017498"><ele>280.0</ele><time>2026-04-25T16:29:08.999Z</time></trkpt><trkpt lat="44.43304675367734" lon="9.371323494132243"><ele>280.0</ele><time>2026-04-25T16:29:09.999Z</time></trkpt><trkpt lat="44.43294107461906" lon="9.371365895191053"><ele>282.0</ele><time>2026-04-25T16:29:10.999Z</time></trkpt><trkpt lat="44.4328347806739" lon="9.371369873436267"><ele>284.0</ele><time>2026-04-25T16:29:11.999Z</time></trkpt><trkpt lat="44.432699230173625" lon="9.371363470148474"><ele>286.0</ele><time>2026-04-25T16:29:12.999Z</time></trkpt><trkpt lat="44.43254932063911" lon="9.371357027450884"><ele>288.0</ele><time>2026-04-25T16:29:13.999Z</time></trkpt><trkpt lat="44.43238603657735" lon="9.371346070668269"><ele>282.25</ele><time>2026-04-25T16:29:14.999Z</time></trkpt><trkpt lat="44.43223791357916" lon="9.371335946793291"><ele>276.5</ele><time>2026-04-25T16:29:15.999Z</time></trkpt><trkpt lat="44.432098918416806" lon="9.371345865579915"><ele>270.75</ele><time>2026-04-25T16:29:16.999Z</time></trkpt><trkpt lat="44.431985934087365" lon="9.371332367216043"><ele>265.0</ele><time>2026-04-25T16:29:17.999Z</time></trkpt><trkpt lat="44.43188831093981" lon="9.371343626554637"><ele>265.2</ele><time>2026-04-25T16:29:18.999Z</time></trkpt><trkpt lat="44.43179400642532" lon="9.371377568412138"><ele>265.4</ele><time>2026-04-25T16:29:19.999Z</time></trkpt><trkpt lat="44.43171603401404" lon="9.371464954192332"><ele>265.6</ele><time>2026-04-25T16:29:20.999Z</time></trkpt><trkpt lat="44.43165266854305" lon="9.371585610174451"><ele>265.8</ele><time>2026-04-25T16:29:22Z</time></trkpt><trkpt lat="44.4316030027616" lon="9.371738406767145"><ele>266.0</ele><time>2026-04-25T16:29:23Z</time></trkpt><trkpt lat="44.431557778312445" lon="9.371908318585808"><ele>266.0</ele><time>2026-04-25T16:29:24Z</time></trkpt><trkpt lat="44.431499516093616" lon="9.372083746308151"><ele>266.0</ele><time>2026-04-25T16:29:25Z</time></trkpt><trkpt lat="44.43143133251919" lon="9.372268668840581"><ele>266.0</ele><time>2026-04-25T16:29:26Z</time></trkpt><trkpt lat="44.43136583893857" lon="9.37245402550267"><ele>266.0</ele><time>2026-04-25T16:29:27Z</time></trkpt><trkpt lat="44.43129746012875" lon="9.372643710760572"><ele>261.0</ele><time>2026-04-25T16:29:28Z</time></trkpt><trkpt lat="44.431214932831665" lon="9.37283847324628"><ele>256.0</ele><time>2026-04-25T16:29:29Z</time></trkpt><trkpt lat="44.431118985063435" lon="9.373034163024021"><ele>251.0</ele><time>2026-04-25T16:29:30Z</time></trkpt><trkpt lat="44.43102245435927" lon="9.37322916347107"><ele>251.0</ele><time>2026-04-25T16:29:31Z</time></trkpt><trkpt lat="44.430938063009506" lon="9.373419134386491"><ele>251.0</ele><time>2026-04-25T16:29:32Z</time></trkpt><trkpt lat="44.430870050882156" lon="9.373614767934733"><ele>251.0</ele><time>2026-04-25T16:29:33Z</time></trkpt><trkpt lat="44.43080877534147" lon="9.373813913904021"><ele>256.0</ele><time>2026-04-25T16:29:34Z</time></trkpt><trkpt lat="44.43074415561251" lon="9.37400513481834"><ele>261.0</ele><time>2026-04-25T16:29:35Z</time></trkpt><trkpt lat="44.430681449112434" lon="9.374192888423648"><ele>266.0</ele><time>2026-04-25T16:29:36Z</time></trkpt><trkpt lat="44.43063776209677" lon="9.374387327371915"><ele>271.0</ele><time>2026-04-25T16:29:37Z</time></trkpt><trkpt lat="44.430610679903324" lon="9.374572122618744"><ele>276.5</ele><time>2026-04-25T16:29:38Z</time></trkpt><trkpt lat="44.43059154877036" lon="9.374737075686761"><ele>282.0</ele><time>2026-04-25T16:29:39Z</time></trkpt><trkpt lat="44.430519913561184" lon="9.374880847375486"><ele>287.5</ele><time>2026-04-25T16:29:40Z</time></trkpt><trkpt lat="44.43041935265773" lon="9.375011123755009"><ele>293.0</ele><time>2026-04-25T16:29:41Z</time></trkpt><trkpt lat="44.43030548715387" lon="9.3751466934959"><ele>288.25</ele><time>2026-04-25T16:29:42Z</time></trkpt><trkpt lat="44.43020393921195" lon="9.375290269761049"><ele>283.5</ele><time>2026-04-25T16:29:43Z</time></trkpt><trkpt lat="44.430106843571885" lon="9.375416139733128"><ele>278.75</ele><time>2026-04-25T16:29:44Z</time></trkpt><trkpt lat="44.430015130853114" lon="9.375523671410289"><ele>274.0</ele><time>2026-04-25T16:29:45Z</time></trkpt><trkpt lat="44.4299124948464" lon="9.375603142558031"><ele>274.0</ele><time>2026-04-25T16:29:46Z</time></trkpt><trkpt lat="44.42978956431275" lon="9.375607101138987"><ele>274.0</ele><time>2026-04-25T16:29:47Z</time></trkpt><trkpt lat="44.429665275418984" lon="9.375590713508581"><ele>274.0</ele><time>2026-04-25T16:29:48Z</time></trkpt><trkpt lat="44.429541858567454" lon="9.37555566315393"><ele>274.0</ele><time>2026-04-25T16:29:49Z</time></trkpt><trkpt lat="44.429423544615624" lon="9.37552361809159"><ele>267.0</ele><time>2026-04-25T16:29:50Z</time></trkpt><trkpt lat="44.42932704314728" lon="9.37549754114866"><ele>260.0</ele><time>2026-04-25T16:29:51Z</time></trkpt><trkpt lat="44.42925057022196" lon="9.375525426480175"><ele>252.99999999999997</ele><time>2026-04-25T16:29:52Z</time></trkpt><trkpt lat="44.42918928878177" lon="9.375609498868638"><ele>246.0</ele><time>2026-04-25T16:29:53Z</time></trkpt><trkpt lat="44.429155411233424" lon="9.375738492646619"><ele>239.0</ele><time>2026-04-25T16:29:54Z</time></trkpt><trkpt lat="44.429135031383204" lon="9.375881689509688"><ele>239.0</ele><time>2026-04-25T16:29:55Z</time></trkpt><trkpt lat="44.42912019402965" lon="9.376030712086813"><ele>238.99999999999997</ele><time>2026-04-25T16:29:56Z</time></trkpt><trkpt lat="44.42910140258125" lon="9.37615800714516"><ele>238.99999999999997</ele><time>2026-04-25T16:29:57Z</time></trkpt><trkpt lat="44.42908865368155" lon="9.376265356414164"><ele>239.0</ele><time>2026-04-25T16:29:58Z</time></trkpt><trkpt lat="44.42906116580138" lon="9.376434362515047"><ele>239.0</ele><time>2026-04-25T16:29:59.999Z</time></trkpt><trkpt lat="44.429060814965254" lon="9.376586260462066"><ele>241.83333333333334</ele><time>2026-04-25T16:30:01.999Z</time></trkpt><trkpt lat="44.42904765965879" lon="9.37672642142277"><ele>244.66666666666669</ele><time>2026-04-25T16:30:22.999Z</time></trkpt><trkpt lat="44.429038157752856" lon="9.376827393795441"><ele>247.5</ele><time>2026-04-25T16:30:23.999Z</time></trkpt><trkpt lat="44.42901300769081" lon="9.376953008292784"><ele>250.33333333333331</ele><time>2026-04-25T16:30:24.999Z</time></trkpt><trkpt lat="44.42899982266763" lon="9.377085402912233"><ele>253.16666666666666</ele><time>2026-04-25T16:30:25.999Z</time></trkpt><trkpt lat="44.42897745825254" lon="9.377196538585238"><ele>256.0</ele><time>2026-04-25T16:30:26.999Z</time></trkpt><trkpt lat="44.42893743802977" lon="9.37730610887743"><ele>258.40000000000003</ele><time>2026-04-25T16:30:27.999Z</time></trkpt><trkpt lat="44.42888527447757" lon="9.377428896532463"><ele>260.8</ele><time>2026-04-25T16:30:28.999Z</time></trkpt><trkpt lat="44.42882992236645" lon="9.377561296638738"><ele>263.20000000000005</ele><time>2026-04-25T16:30:29.999Z</time></trkpt><trkpt lat="44.42877130661974" lon="9.377694932293796"><ele>265.6</ele><time>2026-04-25T16:30:30.999Z</time></trkpt><trkpt lat="44.42871124810807" lon="9.377821229751781"><ele>268.0</ele><time>2026-04-25T16:30:31.999Z</time></trkpt><trkpt lat="44.42864072157179" lon="9.3779267880442"><ele>261.4</ele><time>2026-04-25T16:30:32.999Z</time></trkpt><trkpt lat="44.42855955163829" lon="9.378009982119414"><ele>254.8</ele><time>2026-04-25T16:30:33.999Z</time></trkpt><trkpt lat="44.42847967094839" lon="9.378091339339752"><ele>248.2</ele><time>2026-04-25T16:30:34.999Z</time></trkpt><trkpt lat="44.42840863848799" lon="9.378191147896471"><ele>241.6</ele><time>2026-04-25T16:30:35.999Z</time></trkpt><trkpt lat="44.42833078139129" lon="9.378263397802378"><ele>235.0</ele><time>2026-04-25T16:30:36.999Z</time></trkpt><trkpt lat="44.42827516183248" lon="9.378369346052608"><ele>235.0</ele><time>2026-04-25T16:30:37.999Z</time></trkpt><trkpt lat="44.428236491583995" lon="9.378496017286118"><ele>235.0</ele><time>2026-04-25T16:30:38.999Z</time></trkpt><trkpt lat="44.42820169598591" lon="9.37863705807153"><ele>235.0</ele><time>2026-04-25T16:30:39.999Z</time></trkpt><trkpt lat="44.42815947360968" lon="9.378778451080347"><ele>235.0</ele><time>2026-04-25T16:30:40.999Z</time></trkpt><trkpt lat="44.42808617180322" lon="9.378901861913155"><ele>235.0</ele><time>2026-04-25T16:30:41.999Z</time></trkpt><trkpt lat="44.427987862882205" lon="9.379005613196075"><ele>231.25</ele><time>2026-04-25T16:30:42.999Z</time></trkpt><trkpt lat="44.427891138033885" lon="9.379115072255239"><ele>227.5</ele><time>2026-04-25T16:30:43.999Z</time></trkpt><trkpt lat="44.42780867643898" lon="9.379265668288154"><ele>223.75</ele><time>2026-04-25T16:30:44.999Z</time></trkpt><trkpt lat="44.42772913416288" lon="9.379460436906758"><ele>220.0</ele><time>2026-04-25T16:30:45.999Z</time></trkpt><trkpt lat="44.42764592624648" lon="9.379705489733865"><ele>220.0</ele><time>2026-04-25T16:30:46.999Z</time></trkpt><trkpt lat="44.42755665554319" lon="9.37995649647442"><ele>220.0</ele><time>2026-04-25T16:30:47.999Z</time></trkpt><trkpt lat="44.42746048947164" lon="9.380181443580607"><ele>220.0</ele><time>2026-04-25T16:30:48.999Z</time></trkpt><trkpt lat="44.42736647475109" lon="9.380391176221483"><ele>213.66666666666666</ele><time>2026-04-25T16:30:49.999Z</time></trkpt><trkpt lat="44.42728100991076" lon="9.380589810005068"><ele>207.33333333333331</ele><time>2026-04-25T16:30:50.999Z</time></trkpt><trkpt lat="44.42718634381615" lon="9.380776497422794"><ele>201.0</ele><time>2026-04-25T16:30:51.999Z</time></trkpt><trkpt lat="44.427047794254285" lon="9.380927371997375"><ele>201.0</ele><time>2026-04-25T16:30:52.999Z</time></trkpt><trkpt lat="44.42690743762125" lon="9.381114171093738"><ele>201.0</ele><time>2026-04-25T16:30:53.999Z</time></trkpt><trkpt lat="44.426753760957034" lon="9.381273989299107"><ele>201.0</ele><time>2026-04-25T16:30:54.999Z</time></trkpt><trkpt lat="44.42662324638982" lon="9.38144993169945"><ele>196.0</ele><time>2026-04-25T16:30:55.999Z</time></trkpt><trkpt lat="44.42650376606506" lon="9.381630643293294"><ele>191.0</ele><time>2026-04-25T16:30:56.999Z</time></trkpt><trkpt lat="44.42639616332775" lon="9.381814310782216"><ele>186.0</ele><time>2026-04-25T16:30:57.999Z</time></trkpt><trkpt lat="44.42627950998213" lon="9.381985835499561"><ele>186.0</ele><time>2026-04-25T16:30:58.999Z</time></trkpt><trkpt lat="44.42615681534909" lon="9.382120185818303"><ele>186.0</ele><time>2026-04-25T16:30:59.999Z</time></trkpt><trkpt lat="44.42604805336617" lon="9.382212378051337"><ele>186.0</ele><time>2026-04-25T16:31:00.999Z</time></trkpt><trkpt lat="44.42595740915483" lon="9.382327287126627"><ele>186.0</ele><time>2026-04-25T16:31:01.999Z</time></trkpt><trkpt lat="44.42587599688488" lon="9.382510092235767"><ele>190.66666666666669</ele><time>2026-04-25T16:31:02.999Z</time></trkpt><trkpt lat="44.4257929577255" lon="9.38274979422396"><ele>195.33333333333334</ele><time>2026-04-25T16:31:03.999Z</time></trkpt><trkpt lat="44.42570433695165" lon="9.3829963681041"><ele>200.0</ele><time>2026-04-25T16:31:04.999Z</time></trkpt><trkpt lat="44.42561349020686" lon="9.383221616549672"><ele>198.25</ele><time>2026-04-25T16:31:05.999Z</time></trkpt><trkpt lat="44.42553140314041" lon="9.383416420176365"><ele>196.5</ele><time>2026-04-25T16:31:06.999Z</time></trkpt><trkpt lat="44.425461228242746" lon="9.383590425907727"><ele>194.75</ele><time>2026-04-25T16:31:07.999Z</time></trkpt><trkpt lat="44.42539436717433" lon="9.38374137516182"><ele>193.0</ele><time>2026-04-25T16:31:08.999Z</time></trkpt><trkpt lat="44.42530396670174" lon="9.383866097776894"><ele>193.0</ele><time>2026-04-25T16:31:09.999Z</time></trkpt><trkpt lat="44.42518316681468" lon="9.383969915302071"><ele>193.0</ele><time>2026-04-25T16:31:10.999Z</time></trkpt><trkpt lat="44.42505314695809" lon="9.384080382447513"><ele>193.0</ele><time>2026-04-25T16:31:11.998Z</time></trkpt><trkpt lat="44.42491519582739" lon="9.384205934900542"><ele>193.0</ele><time>2026-04-25T16:31:12.998Z</time></trkpt><trkpt lat="44.42477144222808" lon="9.384313712585245"><ele>193.0</ele><time>2026-04-25T16:31:13.998Z</time></trkpt><trkpt lat="44.42462565075767" lon="9.384389691598555"><ele>193.0</ele><time>2026-04-25T16:31:14.998Z</time></trkpt><trkpt lat="44.42448469005294" lon="9.384452343884906"><ele>191.0</ele><time>2026-04-25T16:31:15.998Z</time></trkpt><trkpt lat="44.42435679787503" lon="9.384549687575054"><ele>189.0</ele><time>2026-04-25T16:31:16.998Z</time></trkpt><trkpt lat="44.424229100108256" lon="9.384696748727366"><ele>187.0</ele><time>2026-04-25T16:31:17.998Z</time></trkpt><trkpt lat="44.42409493283478" lon="9.384876488922556"><ele>187.0</ele><time>2026-04-25T16:31:18.998Z</time></trkpt><trkpt lat="44.42397094200366" lon="9.385038911220368"><ele>187.0</ele><time>2026-04-25T16:31:19.998Z</time></trkpt><trkpt lat="44.42386538289422" lon="9.385165205181421"><ele>187.0</ele><time>2026-04-25T16:31:20.998Z</time></trkpt><trkpt lat="44.423770023825845" lon="9.385279737441728"><ele>187.0</ele><time>2026-04-25T16:31:21.998Z</time></trkpt><trkpt lat="44.42367959411849" lon="9.38540423923963"><ele>183.75</ele><time>2026-04-25T16:31:22.998Z</time></trkpt><trkpt lat="44.423576745453076" lon="9.385511756849334"><ele>180.5</ele><time>2026-04-25T16:31:23.998Z</time></trkpt><trkpt lat="44.42348920270037" lon="9.385639276578138"><ele>177.25</ele><time>2026-04-25T16:31:24.998Z</time></trkpt><trkpt lat="44.42341430829768" lon="9.385784238791816"><ele>174.0</ele><time>2026-04-25T16:31:25.998Z</time></trkpt><trkpt lat="44.42333239185038" lon="9.385908431294217"><ele>174.0</ele><time>2026-04-25T16:31:26.998Z</time></trkpt><trkpt lat="44.42325438789305" lon="9.38603125092427"><ele>174.0</ele><time>2026-04-25T16:31:27.999Z</time></trkpt><trkpt lat="44.42317363486606" lon="9.386152034777451"><ele>174.0</ele><time>2026-04-25T16:31:28.999Z</time></trkpt><trkpt lat="44.423094436763186" lon="9.386267272593818"><ele>174.0</ele><time>2026-04-25T16:31:29.999Z</time></trkpt><trkpt lat="44.42301469892707" lon="9.386379856597465"><ele>172.79999999999998</ele><time>2026-04-25T16:31:30.999Z</time></trkpt><trkpt lat="44.42293964218748" lon="9.386487998548578"><ele>171.6</ele><time>2026-04-25T16:31:32Z</time></trkpt><trkpt lat="44.42286861496354" lon="9.38658860782653"><ele>170.4</ele><time>2026-04-25T16:31:33Z</time></trkpt><trkpt lat="44.42280471980064" lon="9.386691016584914"><ele>169.2</ele><time>2026-04-25T16:31:34Z</time></trkpt><trkpt lat="44.42274735061219" lon="9.386783840091253"><ele>168.0</ele><time>2026-04-25T16:31:35Z</time></trkpt><trkpt lat="44.42269044877948" lon="9.38686636646087"><ele>168.0</ele><time>2026-04-25T16:31:36Z</time></trkpt><trkpt lat="44.422629109165236" lon="9.386934872473372"><ele>168.0</ele><time>2026-04-25T16:31:37Z</time></trkpt><trkpt lat="44.422560672941266" lon="9.38699362365217"><ele>168.0</ele><time>2026-04-25T16:31:38Z</time></trkpt><trkpt lat="44.422488447257905" lon="9.387023372522764"><ele>168.0</ele><time>2026-04-25T16:31:39Z</time></trkpt><trkpt lat="44.42242208253707" lon="9.38704402247223"><ele>168.0</ele><time>2026-04-25T16:31:40Z</time></trkpt><trkpt lat="44.422319074721834" lon="9.387044807920072"><ele>168.0</ele><time>2026-04-25T16:31:42Z</time></trkpt><trkpt lat="44.422252822483465" lon="9.387037402444868"><ele>168.0</ele><time>2026-04-25T16:31:46Z</time></trkpt></trkseg><trkseg><trkpt lat="44.422204857036974" lon="9.387089976847445"><ele>167.8</ele><time>2026-04-25T16:43:14.999Z</time></trkpt><trkpt lat="44.42214010128809" lon="9.387123893032014"><ele>167.60000000000002</ele><time>2026-04-25T16:43:15.999Z</time></trkpt><trkpt lat="44.42205952332195" lon="9.38718052555338"><ele>167.39999999999998</ele><time>2026-04-25T16:43:16.999Z</time></trkpt><trkpt lat="44.42197683140437" lon="9.387244918577359"><ele>167.2</ele><time>2026-04-25T16:43:17.999Z</time></trkpt><trkpt lat="44.42186275749783" lon="9.387264124910077"><ele>167.0</ele><time>2026-04-25T16:43:18.999Z</time></trkpt><trkpt lat="44.421735151029736" lon="9.387312881075482"><ele>166.5</ele><time>2026-04-25T16:43:19.999Z</time></trkpt><trkpt lat="44.421612126916756" lon="9.387381359816821"><ele>166.0</ele><time>2026-04-25T16:43:20.999Z</time></trkpt><trkpt lat="44.42149370279405" lon="9.387425299184187"><ele>165.5</ele><time>2026-04-25T16:43:21.999Z</time></trkpt><trkpt lat="44.421389342843796" lon="9.387433781134426"><ele>165.0</ele><time>2026-04-25T16:43:22.999Z</time></trkpt><trkpt lat="44.42126912927421" lon="9.387450164186692"><ele>164.2</ele><time>2026-04-25T16:43:23.999Z</time></trkpt><trkpt lat="44.421144379136" lon="9.387462815356054"><ele>163.4</ele><time>2026-04-25T16:43:24.999Z</time></trkpt><trkpt lat="44.42102698592988" lon="9.387470256121242"><ele>162.60000000000002</ele><time>2026-04-25T16:43:25.999Z</time></trkpt><trkpt lat="44.420921882386224" lon="9.38749253951083"><ele>161.8</ele><time>2026-04-25T16:43:26.999Z</time></trkpt><trkpt lat="44.42084902880005" lon="9.38752490041806"><ele>161.0</ele><time>2026-04-25T16:43:27.999Z</time></trkpt><trkpt lat="44.42074788893989" lon="9.387665063399394"><ele>161.0</ele><time>2026-04-25T16:43:29.999Z</time></trkpt><trkpt lat="44.420684509011615" lon="9.387792573150461"><ele>161.0</ele><time>2026-04-25T16:43:30.999Z</time></trkpt><trkpt lat="44.42060478404965" lon="9.387961945954766"><ele>161.0</ele><time>2026-04-25T16:43:31.999Z</time></trkpt><trkpt lat="44.420530541613026" lon="9.388119688228214"><ele>161.0</ele><time>2026-04-25T16:43:32.999Z</time></trkpt><trkpt lat="44.42045012670319" lon="9.388257774908345"><ele>160.8</ele><time>2026-04-25T16:43:33.999Z</time></trkpt><trkpt lat="44.4203796721039" lon="9.388389965109962"><ele>160.60000000000002</ele><time>2026-04-25T16:43:34.999Z</time></trkpt><trkpt lat="44.4202986147575" lon="9.388500137918504"><ele>160.4</ele><time>2026-04-25T16:43:35.999Z</time></trkpt><trkpt lat="44.42026108513678" lon="9.388643762525165"><ele>160.2</ele><time>2026-04-25T16:43:36.999Z</time></trkpt><trkpt lat="44.42022713802354" lon="9.388780271150152"><ele>160.0</ele><time>2026-04-25T16:43:37.999Z</time></trkpt><trkpt lat="44.42019959732838" lon="9.388916969315078"><ele>158.8</ele><time>2026-04-25T16:43:38.999Z</time></trkpt><trkpt lat="44.420170494991915" lon="9.389043044569952"><ele>157.6</ele><time>2026-04-25T16:43:39.999Z</time></trkpt><trkpt lat="44.42018955073231" lon="9.389167758862078"><ele>156.4</ele><time>2026-04-25T16:43:40.999Z</time></trkpt><trkpt lat="44.42018622395015" lon="9.389264445916067"><ele>155.2</ele><time>2026-04-25T16:43:41.999Z</time></trkpt><trkpt lat="44.4201749202024" lon="9.389424286444948"><ele>154.0</ele><time>2026-04-25T16:43:43.999Z</time></trkpt><trkpt lat="44.42014603400966" lon="9.389572203360295"><ele>156.4</ele><time>2026-04-25T16:43:45.999Z</time></trkpt><trkpt lat="44.42007502927522" lon="9.389686217124648"><ele>158.8</ele><time>2026-04-25T16:43:47.999Z</time></trkpt><trkpt lat="44.41995642322987" lon="9.389764171896651"><ele>161.20000000000002</ele><time>2026-04-25T16:43:49.999Z</time></trkpt><trkpt lat="44.41988056659276" lon="9.389787646425898"><ele>163.60000000000002</ele><time>2026-04-25T16:43:50.999Z</time></trkpt><trkpt lat="44.41978962965421" lon="9.389774087428968"><ele>166.0</ele><time>2026-04-25T16:43:51.999Z</time></trkpt><trkpt lat="44.41967658736326" lon="9.389781809516293"><ele>164.33333333333334</ele><time>2026-04-25T16:43:52.999Z</time></trkpt><trkpt lat="44.41952971684086" lon="9.389784114451064"><ele>162.66666666666666</ele><time>2026-04-25T16:43:53.999Z</time></trkpt><trkpt lat="44.419362826086086" lon="9.389824306848345"><ele>161.0</ele><time>2026-04-25T16:43:54.999Z</time></trkpt><trkpt lat="44.41918727638553" lon="9.389878719312692"><ele>161.0</ele><time>2026-04-25T16:43:55.999Z</time></trkpt><trkpt lat="44.41898427524103" lon="9.389935361989622"><ele>161.0</ele><time>2026-04-25T16:43:56.999Z</time></trkpt><trkpt lat="44.41876785870156" lon="9.389989739257048"><ele>161.0</ele><time>2026-04-25T16:43:57.999Z</time></trkpt><trkpt lat="44.41856601501537" lon="9.390056045738659"><ele>158.66666666666666</ele><time>2026-04-25T16:43:58.999Z</time></trkpt><trkpt lat="44.4183764563854" lon="9.390109324804094"><ele>156.33333333333334</ele><time>2026-04-25T16:43:59.999Z</time></trkpt><trkpt lat="44.418182962836546" lon="9.390153834632285"><ele>154.0</ele><time>2026-04-25T16:44:00.999Z</time></trkpt><trkpt lat="44.417981760234824" lon="9.390166611194687"><ele>152.0</ele><time>2026-04-25T16:44:02Z</time></trkpt><trkpt lat="44.417789153579974" lon="9.390222227250888"><ele>150.0</ele><time>2026-04-25T16:44:03Z</time></trkpt><trkpt lat="44.41761602580588" lon="9.390247856620443"><ele>148.0</ele><time>2026-04-25T16:44:04Z</time></trkpt><trkpt lat="44.41746383331467" lon="9.390270579664218"><ele>148.0</ele><time>2026-04-25T16:44:05Z</time></trkpt><trkpt lat="44.41733095316697" lon="9.390288360275358"><ele>148.0</ele><time>2026-04-25T16:44:06Z</time></trkpt><trkpt lat="44.417205241193535" lon="9.390287336650543"><ele>148.0</ele><time>2026-04-25T16:44:07Z</time></trkpt><trkpt lat="44.417083866132515" lon="9.390259216077744"><ele>148.0</ele><time>2026-04-25T16:44:08Z</time></trkpt><trkpt lat="44.41696134663444" lon="9.39020299473272"><ele>150.66666666666669</ele><time>2026-04-25T16:44:09Z</time></trkpt><trkpt lat="44.41684707512577" lon="9.390079043667082"><ele>153.33333333333334</ele><time>2026-04-25T16:44:10Z</time></trkpt><trkpt lat="44.41669821892843" lon="9.38996480279995"><ele>156.0</ele><time>2026-04-25T16:44:11Z</time></trkpt><trkpt lat="44.416553142418074" lon="9.389825065525061"><ele>156.0</ele><time>2026-04-25T16:44:12Z</time></trkpt><trkpt lat="44.41642218351866" lon="9.389705036437615"><ele>156.0</ele><time>2026-04-25T16:44:13Z</time></trkpt><trkpt lat="44.4163020090015" lon="9.38960283050381"><ele>156.0</ele><time>2026-04-25T16:44:14Z</time></trkpt><trkpt lat="44.41618198591038" lon="9.38952196119263"><ele>156.0</ele><time>2026-04-25T16:44:15Z</time></trkpt><trkpt lat="44.416051487855235" lon="9.389460538347876"><ele>152.66666666666666</ele><time>2026-04-25T16:44:16Z</time></trkpt><trkpt lat="44.41590948030807" lon="9.389421772778192"><ele>149.33333333333331</ele><time>2026-04-25T16:44:17Z</time></trkpt><trkpt lat="44.41575366461154" lon="9.38939641102951"><ele>146.0</ele><time>2026-04-25T16:44:18Z</time></trkpt><trkpt lat="44.41558255863497" lon="9.389369249113834"><ele>145.33333333333331</ele><time>2026-04-25T16:44:19Z</time></trkpt><trkpt lat="44.41539900636932" lon="9.38933345122276"><ele>144.66666666666666</ele><time>2026-04-25T16:44:20Z</time></trkpt><trkpt lat="44.415226154883335" lon="9.389299367768073"><ele>144.0</ele><time>2026-04-25T16:44:21Z</time></trkpt><trkpt lat="44.415040980696155" lon="9.389261845090479"><ele>144.0</ele><time>2026-04-25T16:44:22Z</time></trkpt><trkpt lat="44.41486146655459" lon="9.389227613601674"><ele>144.0</ele><time>2026-04-25T16:44:23Z</time></trkpt><trkpt lat="44.414708460661736" lon="9.389197031540919"><ele>144.0</ele><time>2026-04-25T16:44:24Z</time></trkpt><trkpt lat="44.41457998003037" lon="9.389174255145116"><ele>144.0</ele><time>2026-04-25T16:44:25Z</time></trkpt><trkpt lat="44.414462517186415" lon="9.38915176164165"><ele>144.0</ele><time>2026-04-25T16:44:26Z</time></trkpt><trkpt lat="44.41435079121128" lon="9.389095919393267"><ele>144.0</ele><time>2026-04-25T16:44:27Z</time></trkpt><trkpt lat="44.414243009627484" lon="9.389000900528796"><ele>144.0</ele><time>2026-04-25T16:44:28Z</time></trkpt><trkpt lat="44.41412770768259" lon="9.388867678240178"><ele>143.0</ele><time>2026-04-25T16:44:29Z</time></trkpt><trkpt lat="44.413997808061644" lon="9.388699806984283"><ele>142.0</ele><time>2026-04-25T16:44:30Z</time></trkpt><trkpt lat="44.413851471933434" lon="9.38852986098695"><ele>141.0</ele><time>2026-04-25T16:44:31Z</time></trkpt><trkpt lat="44.41370664089808" lon="9.38836830437053"><ele>141.0</ele><time>2026-04-25T16:44:32Z</time></trkpt><trkpt lat="44.41356787220672" lon="9.38819091434957"><ele>141.0</ele><time>2026-04-25T16:44:33Z</time></trkpt><trkpt lat="44.413432079519666" lon="9.388027305497713"><ele>141.0</ele><time>2026-04-25T16:44:34Z</time></trkpt><trkpt lat="44.41330153760853" lon="9.387872404800559"><ele>150.25</ele><time>2026-04-25T16:44:35Z</time></trkpt><trkpt lat="44.4131851402634" lon="9.38774305333349"><ele>159.5</ele><time>2026-04-25T16:44:36Z</time></trkpt><trkpt lat="44.41306962739562" lon="9.387632420904676"><ele>168.75</ele><time>2026-04-25T16:44:37Z</time></trkpt><trkpt lat="44.41294498084994" lon="9.387551706486313"><ele>178.0</ele><time>2026-04-25T16:44:38Z</time></trkpt><trkpt lat="44.412830395854996" lon="9.387499413038757"><ele>178.0</ele><time>2026-04-25T16:44:39Z</time></trkpt><trkpt lat="44.4127287338089" lon="9.387484726874128"><ele>178.0</ele><time>2026-04-25T16:44:40Z</time></trkpt><trkpt lat="44.41262957128885" lon="9.387515492834414"><ele>178.0</ele><time>2026-04-25T16:44:41Z</time></trkpt><trkpt lat="44.41252710527718" lon="9.387583514313661"><ele>178.0</ele><time>2026-04-25T16:44:42Z</time></trkpt><trkpt lat="44.412416108227326" lon="9.387699397963615"><ele>178.0</ele><time>2026-04-25T16:44:43Z</time></trkpt><trkpt lat="44.412290213741784" lon="9.387849395945944"><ele>178.0</ele><time>2026-04-25T16:44:44Z</time></trkpt><trkpt lat="44.41214186709759" lon="9.387996521640614"><ele>178.0</ele><time>2026-04-25T16:44:45Z</time></trkpt><trkpt lat="44.41200419933004" lon="9.388129651007086"><ele>171.0</ele><time>2026-04-25T16:44:46Z</time></trkpt><trkpt lat="44.41187015639857" lon="9.388246649507957"><ele>164.0</ele><time>2026-04-25T16:44:47Z</time></trkpt><trkpt lat="44.411739924556485" lon="9.388347695189225"><ele>157.0</ele><time>2026-04-25T16:44:48Z</time></trkpt><trkpt lat="44.41162161189187" lon="9.388419419324467"><ele>150.0</ele><time>2026-04-25T16:44:49Z</time></trkpt><trkpt lat="44.411505249295" lon="9.388461419584175"><ele>150.0</ele><time>2026-04-25T16:44:50Z</time></trkpt><trkpt lat="44.41138161661723" lon="9.388473071800442"><ele>150.0</ele><time>2026-04-25T16:44:51Z</time></trkpt><trkpt lat="44.41124064865594" lon="9.388474520550004"><ele>150.0</ele><time>2026-04-25T16:44:52Z</time></trkpt><trkpt lat="44.41108024965325" lon="9.388445807612277"><ele>150.0</ele><time>2026-04-25T16:44:52.999Z</time></trkpt><trkpt lat="44.41090756828597" lon="9.388423897607757"><ele>150.0</ele><time>2026-04-25T16:44:53.999Z</time></trkpt><trkpt lat="44.41074451878517" lon="9.388401072450382"><ele>150.0</ele><time>2026-04-25T16:44:54.999Z</time></trkpt><trkpt lat="44.41058453596471" lon="9.388362988950677"><ele>150.0</ele><time>2026-04-25T16:44:55.999Z</time></trkpt><trkpt lat="44.41040759258135" lon="9.388305220367501"><ele>148.0</ele><time>2026-04-25T16:44:56.999Z</time></trkpt><trkpt lat="44.410232122556586" lon="9.388241413676555"><ele>146.0</ele><time>2026-04-25T16:44:57.999Z</time></trkpt><trkpt lat="44.41006769515345" lon="9.388189632659605"><ele>144.0</ele><time>2026-04-25T16:44:58.999Z</time></trkpt><trkpt lat="44.40989747479492" lon="9.38814812663762"><ele>144.0</ele><time>2026-04-25T16:44:59.999Z</time></trkpt><trkpt lat="44.40970596376911" lon="9.38813527723086"><ele>144.0</ele><time>2026-04-25T16:45:00.999Z</time></trkpt><trkpt lat="44.409504561204294" lon="9.388122002592407"><ele>144.0</ele><time>2026-04-25T16:45:01.999Z</time></trkpt><trkpt lat="44.40930867319613" lon="9.388114411777092"><ele>140.0</ele><time>2026-04-25T16:45:02.999Z</time></trkpt><trkpt lat="44.40913424402408" lon="9.388103177784094"><ele>136.0</ele><time>2026-04-25T16:45:03.999Z</time></trkpt><trkpt lat="44.4089818506554" lon="9.388091297713457"><ele>132.0</ele><time>2026-04-25T16:45:04.999Z</time></trkpt><trkpt lat="44.408842537193635" lon="9.3880750013457"><ele>131.5</ele><time>2026-04-25T16:45:05.999Z</time></trkpt><trkpt lat="44.40870926204007" lon="9.388030329505463"><ele>131.0</ele><time>2026-04-25T16:45:06.999Z</time></trkpt><trkpt lat="44.4085800403258" lon="9.387954705690191"><ele>130.5</ele><time>2026-04-25T16:45:07.999Z</time></trkpt><trkpt lat="44.40845077231541" lon="9.38785010870635"><ele>130.0</ele><time>2026-04-25T16:45:08.999Z</time></trkpt><trkpt lat="44.40830710246468" lon="9.38770641974455"><ele>129.0</ele><time>2026-04-25T16:45:09.999Z</time></trkpt><trkpt lat="44.40814674560175" lon="9.387543131523275"><ele>128.0</ele><time>2026-04-25T16:45:10.999Z</time></trkpt><trkpt lat="44.40796310710047" lon="9.387377775620417"><ele>127.0</ele><time>2026-04-25T16:45:11.999Z</time></trkpt><trkpt lat="44.40778762709802" lon="9.38721717743658"><ele>127.66666666666667</ele><time>2026-04-25T16:45:12.999Z</time></trkpt><trkpt lat="44.40762734606121" lon="9.38707404770961"><ele>128.33333333333334</ele><time>2026-04-25T16:45:13.999Z</time></trkpt><trkpt lat="44.407482123498845" lon="9.386950180044488"><ele>129.0</ele><time>2026-04-25T16:45:14.999Z</time></trkpt><trkpt lat="44.40734487665393" lon="9.386843922850085"><ele>129.0</ele><time>2026-04-25T16:45:15.999Z</time></trkpt><trkpt lat="44.40718747139872" lon="9.386770969393737"><ele>129.0</ele><time>2026-04-25T16:45:16.999Z</time></trkpt><trkpt lat="44.40700218592671" lon="9.3867248712322"><ele>129.0</ele><time>2026-04-25T16:45:17.999Z</time></trkpt><trkpt lat="44.406806986650935" lon="9.386705547585033"><ele>128.5</ele><time>2026-04-25T16:45:18.999Z</time></trkpt><trkpt lat="44.40663629441592" lon="9.38668477259515"><ele>128.0</ele><time>2026-04-25T16:45:19.999Z</time></trkpt><trkpt lat="44.40649603323474" lon="9.386651580844404"><ele>127.5</ele><time>2026-04-25T16:45:20.999Z</time></trkpt><trkpt lat="44.40637307053923" lon="9.386593492299454"><ele>127.0</ele><time>2026-04-25T16:45:21.999Z</time></trkpt><trkpt lat="44.4062620982364" lon="9.386502029744417"><ele>125.75</ele><time>2026-04-25T16:45:22.999Z</time></trkpt><trkpt lat="44.406173376314825" lon="9.38638838693746"><ele>124.5</ele><time>2026-04-25T16:45:23.999Z</time></trkpt><trkpt lat="44.406089594103264" lon="9.386238645059981"><ele>123.25</ele><time>2026-04-25T16:45:24.999Z</time></trkpt><trkpt lat="44.40600789328098" lon="9.386048439654619"><ele>122.0</ele><time>2026-04-25T16:45:25.999Z</time></trkpt><trkpt lat="44.40593806537052" lon="9.385855301228748"><ele>121.75</ele><time>2026-04-25T16:45:26.999Z</time></trkpt><trkpt lat="44.40585570547298" lon="9.385697362892323"><ele>121.5</ele><time>2026-04-25T16:45:27.999Z</time></trkpt><trkpt lat="44.40576050600052" lon="9.385578517775619"><ele>121.25</ele><time>2026-04-25T16:45:28.999Z</time></trkpt><trkpt lat="44.405651431242774" lon="9.385488781709329"><ele>121.0</ele><time>2026-04-25T16:45:29.999Z</time></trkpt><trkpt lat="44.405512012391114" lon="9.385421972248785"><ele>127.33333333333334</ele><time>2026-04-25T16:45:30.999Z</time></trkpt><trkpt lat="44.405350370158565" lon="9.385357150767577"><ele>133.66666666666666</ele><time>2026-04-25T16:45:31.999Z</time></trkpt><trkpt lat="44.405174363765404" lon="9.385279359679652"><ele>140.0</ele><time>2026-04-25T16:45:32.999Z</time></trkpt><trkpt lat="44.40499210894913" lon="9.385194303242956"><ele>140.0</ele><time>2026-04-25T16:45:33.999Z</time></trkpt><trkpt lat="44.404825007610754" lon="9.385116041416033"><ele>140.0</ele><time>2026-04-25T16:45:34.999Z</time></trkpt><trkpt lat="44.40468114351206" lon="9.385040688369044"><ele>140.0</ele><time>2026-04-25T16:45:35.999Z</time></trkpt><trkpt lat="44.4045495114336" lon="9.384949619543052"><ele>141.66666666666666</ele><time>2026-04-25T16:45:36.999Z</time></trkpt><trkpt lat="44.404418025093115" lon="9.384826864013398"><ele>143.33333333333334</ele><time>2026-04-25T16:45:37.999Z</time></trkpt><trkpt lat="44.40428152873221" lon="9.384678918813831"><ele>145.0</ele><time>2026-04-25T16:45:38.999Z</time></trkpt><trkpt lat="44.404148959463065" lon="9.384523137162626"><ele>145.0</ele><time>2026-04-25T16:45:39.999Z</time></trkpt><trkpt lat="44.40403118313514" lon="9.384384181842039"><ele>145.0</ele><time>2026-04-25T16:45:40.999Z</time></trkpt><trkpt lat="44.40392285696136" lon="9.384260000064609"><ele>145.0</ele><time>2026-04-25T16:45:41.999Z</time></trkpt><trkpt lat="44.40382995740594" lon="9.384127067327887"><ele>145.0</ele><time>2026-04-25T16:45:42.999Z</time></trkpt><trkpt lat="44.40373938530217" lon="9.383957880810538"><ele>139.0</ele><time>2026-04-25T16:45:43.999Z</time></trkpt><trkpt lat="44.40366183517855" lon="9.383747360755562"><ele>133.0</ele><time>2026-04-25T16:45:44.999Z</time></trkpt><trkpt lat="44.403594306623766" lon="9.383522926434843"><ele>127.0</ele><time>2026-04-25T16:45:45.999Z</time></trkpt><trkpt lat="44.40352771652356" lon="9.38332101024499"><ele>127.0</ele><time>2026-04-25T16:45:46.999Z</time></trkpt><trkpt lat="44.40343778144248" lon="9.383115727074728"><ele>127.0</ele><time>2026-04-25T16:45:47.999Z</time></trkpt><trkpt lat="44.40331716601257" lon="9.382923723703602"><ele>127.0</ele><time>2026-04-25T16:45:48.999Z</time></trkpt><trkpt lat="44.4031708510322" lon="9.382752520672225"><ele>126.33333333333334</ele><time>2026-04-25T16:45:49.999Z</time></trkpt><trkpt lat="44.40300879287909" lon="9.382564658295973"><ele>125.66666666666666</ele><time>2026-04-25T16:45:50.999Z</time></trkpt><trkpt lat="44.40286416852847" lon="9.382383942002"><ele>125.0</ele><time>2026-04-25T16:45:51.999Z</time></trkpt><trkpt lat="44.40272728798293" lon="9.382223289335593"><ele>132.75</ele><time>2026-04-25T16:45:52.999Z</time></trkpt><trkpt lat="44.40261027636001" lon="9.38208701886065"><ele>140.5</ele><time>2026-04-25T16:45:53.999Z</time></trkpt><trkpt lat="44.402490301056844" lon="9.381982269836469"><ele>148.25</ele><time>2026-04-25T16:45:54.999Z</time></trkpt><trkpt lat="44.402353333838406" lon="9.38192083298797"><ele>156.0</ele><time>2026-04-25T16:45:55.999Z</time></trkpt><trkpt lat="44.402189295561705" lon="9.38187589339973"><ele>148.0</ele><time>2026-04-25T16:45:56.999Z</time></trkpt><trkpt lat="44.402011758175725" lon="9.38184861374931"><ele>140.0</ele><time>2026-04-25T16:45:57.999Z</time></trkpt><trkpt lat="44.40184248176431" lon="9.38181933808931"><ele>132.0</ele><time>2026-04-25T16:45:58.999Z</time></trkpt><trkpt lat="44.401681622180824" lon="9.381748303603962"><ele>132.0</ele><time>2026-04-25T16:45:59.999Z</time></trkpt><trkpt lat="44.4015353915004" lon="9.381676582622871"><ele>132.0</ele><time>2026-04-25T16:46:00.999Z</time></trkpt><trkpt lat="44.401400796956736" lon="9.381655110893329"><ele>132.0</ele><time>2026-04-25T16:46:01.999Z</time></trkpt><trkpt lat="44.40125671398027" lon="9.381681972550043"><ele>132.0</ele><time>2026-04-25T16:46:02.999Z</time></trkpt><trkpt lat="44.40110710079024" lon="9.381715110066645"><ele>129.66666666666666</ele><time>2026-04-25T16:46:03.999Z</time></trkpt><trkpt lat="44.400950444139525" lon="9.381701436385171"><ele>127.33333333333333</ele><time>2026-04-25T16:46:04.999Z</time></trkpt><trkpt lat="44.40078464820624" lon="9.381665317969103"><ele>125.0</ele><time>2026-04-25T16:46:05.999Z</time></trkpt><trkpt lat="44.40060715031865" lon="9.381596658838502"><ele>121.33333333333333</ele><time>2026-04-25T16:46:06.999Z</time></trkpt><trkpt lat="44.40042056608877" lon="9.381510398838547"><ele>117.66666666666666</ele><time>2026-04-25T16:46:08Z</time></trkpt><trkpt lat="44.400236491806325" lon="9.38143457516057"><ele>114.0</ele><time>2026-04-25T16:46:09Z</time></trkpt><trkpt lat="44.40003712342867" lon="9.381356069830952"><ele>115.0</ele><time>2026-04-25T16:46:10Z</time></trkpt><trkpt lat="44.39984399361815" lon="9.38126761481164"><ele>116.0</ele><time>2026-04-25T16:46:11Z</time></trkpt><trkpt lat="44.39965901074078" lon="9.381191375013413"><ele>117.0</ele><time>2026-04-25T16:46:12Z</time></trkpt><trkpt lat="44.39947862743904" lon="9.381119950865424"><ele>117.0</ele><time>2026-04-25T16:46:13Z</time></trkpt><trkpt lat="44.39930456038435" lon="9.38104622345611"><ele>117.0</ele><time>2026-04-25T16:46:14Z</time></trkpt><trkpt lat="44.399137177371564" lon="9.38097299856246"><ele>117.0</ele><time>2026-04-25T16:46:15Z</time></trkpt><trkpt lat="44.398976338773416" lon="9.380903148037483"><ele>114.33333333333334</ele><time>2026-04-25T16:46:16Z</time></trkpt><trkpt lat="44.39882503338253" lon="9.380832112482368"><ele>111.66666666666667</ele><time>2026-04-25T16:46:17Z</time></trkpt><trkpt lat="44.398682817445525" lon="9.38075927286178"><ele>109.0</ele><time>2026-04-25T16:46:18Z</time></trkpt><trkpt lat="44.39854695343412" lon="9.380679086328175"><ele>109.0</ele><time>2026-04-25T16:46:19Z</time></trkpt><trkpt lat="44.39842918050662" lon="9.380592569445966"><ele>109.0</ele><time>2026-04-25T16:46:20Z</time></trkpt><trkpt lat="44.39831368614556" lon="9.380495125225302"><ele>109.0</ele><time>2026-04-25T16:46:21Z</time></trkpt><trkpt lat="44.39819277169502" lon="9.38036951085787"><ele>109.0</ele><time>2026-04-25T16:46:22Z</time></trkpt><trkpt lat="44.398069097864216" lon="9.380233829594095"><ele>108.75</ele><time>2026-04-25T16:46:23Z</time></trkpt><trkpt lat="44.39795382646263" lon="9.38010484362926"><ele>108.5</ele><time>2026-04-25T16:46:24Z</time></trkpt><trkpt lat="44.39784827815139" lon="9.379982986816541"><ele>108.25</ele><time>2026-04-25T16:46:25Z</time></trkpt><trkpt lat="44.397747392300786" lon="9.379879067239031"><ele>108.0</ele><time>2026-04-25T16:46:26Z</time></trkpt><trkpt lat="44.39764837227698" lon="9.379792990889602"><ele>108.0</ele><time>2026-04-25T16:46:27Z</time></trkpt><trkpt lat="44.39754655031845" lon="9.379736566200348"><ele>108.00000000000001</ele><time>2026-04-25T16:46:28Z</time></trkpt><trkpt lat="44.39743843828394" lon="9.379705602913413"><ele>108.00000000000001</ele><time>2026-04-25T16:46:29Z</time></trkpt><trkpt lat="44.39733415527003" lon="9.379695089528525"><ele>108.0</ele><time>2026-04-25T16:46:30Z</time></trkpt><trkpt lat="44.39723472656164" lon="9.379708446510495"><ele>108.0</ele><time>2026-04-25T16:46:31Z</time></trkpt><trkpt lat="44.39714360059392" lon="9.379751496670801"><ele>107.2</ele><time>2026-04-25T16:46:32Z</time></trkpt><trkpt lat="44.39706101473551" lon="9.37980668190491"><ele>106.4</ele><time>2026-04-25T16:46:33Z</time></trkpt><trkpt lat="44.39698482266835" lon="9.379870152190962"><ele>105.60000000000001</ele><time>2026-04-25T16:46:34Z</time></trkpt><trkpt lat="44.396906504312966" lon="9.37993540813059"><ele>104.80000000000001</ele><time>2026-04-25T16:46:35Z</time></trkpt><trkpt lat="44.396826688008936" lon="9.380003513853195"><ele>104.0</ele><time>2026-04-25T16:46:36Z</time></trkpt><trkpt lat="44.39674516683481" lon="9.380072695896644"><ele>104.0</ele><time>2026-04-25T16:46:37Z</time></trkpt><trkpt lat="44.39666358168665" lon="9.380142401654425"><ele>104.0</ele><time>2026-04-25T16:46:38Z</time></trkpt><trkpt lat="44.396578349105205" lon="9.380212486688402"><ele>104.0</ele><time>2026-04-25T16:46:39Z</time></trkpt><trkpt lat="44.39649238933556" lon="9.380273649517527"><ele>104.0</ele><time>2026-04-25T16:46:40Z</time></trkpt><trkpt lat="44.396406252076154" lon="9.380291556747236"><ele>104.0</ele><time>2026-04-25T16:46:41Z</time></trkpt><trkpt lat="44.39632471498702" lon="9.380256582516566"><ele>106.80000000000001</ele><time>2026-04-25T16:46:42Z</time></trkpt><trkpt lat="44.396245147405025" lon="9.380191620880943"><ele>109.60000000000001</ele><time>2026-04-25T16:46:43Z</time></trkpt><trkpt lat="44.39617643906567" lon="9.380087061269766"><ele>112.4</ele><time>2026-04-25T16:46:44Z</time></trkpt><trkpt lat="44.39612391647243" lon="9.37994949268704"><ele>115.2</ele><time>2026-04-25T16:46:45Z</time></trkpt><trkpt lat="44.39606582011143" lon="9.379806869258369"><ele>118.0</ele><time>2026-04-25T16:46:46Z</time></trkpt><trkpt lat="44.395971558773624" lon="9.379684831576387"><ele>115.25</ele><time>2026-04-25T16:46:47Z</time></trkpt><trkpt lat="44.39585741223996" lon="9.37958526671373"><ele>112.5</ele><time>2026-04-25T16:46:48Z</time></trkpt><trkpt lat="44.39572550476859" lon="9.379507367463226"><ele>109.75</ele><time>2026-04-25T16:46:49Z</time></trkpt><trkpt lat="44.395577942027586" lon="9.379457015214925"><ele>107.0</ele><time>2026-04-25T16:46:50Z</time></trkpt><trkpt lat="44.39541505483128" lon="9.379425155720032"><ele>107.0</ele><time>2026-04-25T16:46:51Z</time></trkpt><trkpt lat="44.3952566486331" lon="9.379403330015549"><ele>107.0</ele><time>2026-04-25T16:46:52Z</time></trkpt><trkpt lat="44.3951137840756" lon="9.379383142198032"><ele>107.0</ele><time>2026-04-25T16:46:53Z</time></trkpt><trkpt lat="44.39497020238866" lon="9.379358995147458"><ele>107.0</ele><time>2026-04-25T16:46:54Z</time></trkpt><trkpt lat="44.39481510756941" lon="9.379321477788436"><ele>109.33333333333333</ele><time>2026-04-25T16:46:55Z</time></trkpt><trkpt lat="44.394651342509995" lon="9.379267251529766"><ele>111.66666666666666</ele><time>2026-04-25T16:46:56Z</time></trkpt><trkpt lat="44.394480166439514" lon="9.379202517516323"><ele>114.0</ele><time>2026-04-25T16:46:57Z</time></trkpt><trkpt lat="44.39431393816126" lon="9.379129722409388"><ele>114.0</ele><time>2026-04-25T16:46:58Z</time></trkpt><trkpt lat="44.394151549661785" lon="9.379070926654945"><ele>114.0</ele><time>2026-04-25T16:46:59Z</time></trkpt><trkpt lat="44.39399022615145" lon="9.378995515499458"><ele>114.0</ele><time>2026-04-25T16:47:00Z</time></trkpt><trkpt lat="44.39381994913478" lon="9.37895032089447"><ele>112.75</ele><time>2026-04-25T16:47:01Z</time></trkpt><trkpt lat="44.39366116297816" lon="9.378921767764016"><ele>111.5</ele><time>2026-04-25T16:47:02Z</time></trkpt><trkpt lat="44.393520404051" lon="9.378880535998814"><ele>110.25</ele><time>2026-04-25T16:47:03Z</time></trkpt><trkpt lat="44.39338381799366" lon="9.378837503200927"><ele>109.0</ele><time>2026-04-25T16:47:04Z</time></trkpt><trkpt lat="44.393229607122755" lon="9.37883782771499"><ele>109.0</ele><time>2026-04-25T16:47:05Z</time></trkpt><trkpt lat="44.39306983518767" lon="9.378855773624352"><ele>109.0</ele><time>2026-04-25T16:47:06Z</time></trkpt><trkpt lat="44.39290472389514" lon="9.378866000556249"><ele>109.0</ele><time>2026-04-25T16:47:07Z</time></trkpt><trkpt lat="44.39274177463621" lon="9.378877220537088"><ele>107.25</ele><time>2026-04-25T16:47:08Z</time></trkpt><trkpt lat="44.39261556472774" lon="9.378887292277497"><ele>105.5</ele><time>2026-04-25T16:47:09Z</time></trkpt><trkpt lat="44.392488247776285" lon="9.378927485495696"><ele>103.75</ele><time>2026-04-25T16:47:10Z</time></trkpt><trkpt lat="44.392378060727225" lon="9.37894069588433"><ele>102.0</ele><time>2026-04-25T16:47:10.999Z</time></trkpt><trkpt lat="44.39227110905964" lon="9.3789374005172"><ele>102.0</ele><time>2026-04-25T16:47:11.999Z</time></trkpt><trkpt lat="44.39217647551304" lon="9.378926559186343"><ele>102.0</ele><time>2026-04-25T16:47:12.999Z</time></trkpt><trkpt lat="44.39209660905684" lon="9.378909434248913"><ele>102.0</ele><time>2026-04-25T16:47:13.999Z</time></trkpt><trkpt lat="44.39203518841571" lon="9.378875876729646"><ele>102.0</ele><time>2026-04-25T16:47:14.999Z</time></trkpt><trkpt lat="44.391958266277626" lon="9.378820918161605"><ele>102.0</ele><time>2026-04-25T16:47:16.999Z</time></trkpt><trkpt lat="44.391852943615795" lon="9.378949839563841"><ele>104.8</ele><time>2026-04-25T16:47:19.999Z</time></trkpt><trkpt lat="44.39183800260432" lon="9.37904765719833"><ele>107.6</ele><time>2026-04-25T16:47:20.999Z</time></trkpt><trkpt lat="44.39184150168873" lon="9.379169823939218"><ele>110.39999999999999</ele><time>2026-04-25T16:47:21.999Z</time></trkpt><trkpt lat="44.391872070385325" lon="9.379323936133666"><ele>113.19999999999999</ele><time>2026-04-25T16:47:22.999Z</time></trkpt><trkpt lat="44.39192518818591" lon="9.379479185758933"><ele>116.0</ele><time>2026-04-25T16:47:23.999Z</time></trkpt><trkpt lat="44.39199011904553" lon="9.379674460343422"><ele>113.75</ele><time>2026-04-25T16:47:24.999Z</time></trkpt><trkpt lat="44.39206853367452" lon="9.379878058675182"><ele>111.5</ele><time>2026-04-25T16:47:25.999Z</time></trkpt><trkpt lat="44.392150950268054" lon="9.38005498361196"><ele>109.25</ele><time>2026-04-25T16:47:26.999Z</time></trkpt><trkpt lat="44.39222679987975" lon="9.380206454176937"><ele>107.0</ele><time>2026-04-25T16:47:27.999Z</time></trkpt><trkpt lat="44.39228824794077" lon="9.380317230907382"><ele>106.99999999999999</ele><time>2026-04-25T16:47:28.999Z</time></trkpt><trkpt lat="44.39235208382554" lon="9.380388998013212"><ele>107.0</ele><time>2026-04-25T16:47:29.999Z</time></trkpt><trkpt lat="44.392424656816374" lon="9.380447005253085"><ele>107.0</ele><time>2026-04-25T16:47:30.999Z</time></trkpt><trkpt lat="44.392506873232975" lon="9.380394894852618"><ele>107.0</ele><time>2026-04-25T16:47:31.999Z</time></trkpt><trkpt lat="44.39257791393187" lon="9.380332443991945"><ele>106.99999999999999</ele><time>2026-04-25T16:47:32.999Z</time></trkpt><trkpt lat="44.3926624094576" lon="9.380260149544121"><ele>107.0</ele><time>2026-04-25T16:47:33.999Z</time></trkpt><trkpt lat="44.392763575870646" lon="9.380204873249392"><ele>107.0</ele><time>2026-04-25T16:47:34.999Z</time></trkpt><trkpt lat="44.39286983769903" lon="9.3801846228058"><ele>107.0</ele><time>2026-04-25T16:47:35.999Z</time></trkpt><trkpt lat="44.392967584298816" lon="9.380221328260928"><ele>107.0</ele><time>2026-04-25T16:47:36.999Z</time></trkpt><trkpt lat="44.39305016030919" lon="9.380332354136664"><ele>107.0</ele><time>2026-04-25T16:47:37.999Z</time></trkpt><trkpt lat="44.39313884792732" lon="9.380466910631192"><ele>110.0</ele><time>2026-04-25T16:47:38.999Z</time></trkpt><trkpt lat="44.3932484087791" lon="9.380600204266278"><ele>113.0</ele><time>2026-04-25T16:47:39.999Z</time></trkpt><trkpt lat="44.393365060937874" lon="9.38077256479935"><ele>116.0</ele><time>2026-04-25T16:47:40.999Z</time></trkpt><trkpt lat="44.39349937198038" lon="9.380966327016878"><ele>116.0</ele><time>2026-04-25T16:47:41.999Z</time></trkpt><trkpt lat="44.39362660229027" lon="9.381162498332893"><ele>116.0</ele><time>2026-04-25T16:47:42.999Z</time></trkpt><trkpt lat="44.39376542897589" lon="9.381366393787328"><ele>116.0</ele><time>2026-04-25T16:47:43.999Z</time></trkpt><trkpt lat="44.393904459383386" lon="9.381564822325018"><ele>123.66666666666666</ele><time>2026-04-25T16:47:44.999Z</time></trkpt><trkpt lat="44.394036612420535" lon="9.3817505507127"><ele>131.33333333333334</ele><time>2026-04-25T16:47:45.999Z</time></trkpt><trkpt lat="44.394171705131974" lon="9.381944048542286"><ele>139.0</ele><time>2026-04-25T16:47:46.999Z</time></trkpt><trkpt lat="44.39428786068464" lon="9.382136137989134"><ele>135.0</ele><time>2026-04-25T16:47:47.999Z</time></trkpt><trkpt lat="44.394391501952356" lon="9.382333358426507"><ele>131.0</ele><time>2026-04-25T16:47:48.999Z</time></trkpt><trkpt lat="44.394488361050065" lon="9.382557108885036"><ele>127.0</ele><time>2026-04-25T16:47:49.999Z</time></trkpt><trkpt lat="44.394567829875015" lon="9.382801816119743"><ele>124.66666666666667</ele><time>2026-04-25T16:47:50.999Z</time></trkpt><trkpt lat="44.39465690371349" lon="9.383062214415524"><ele>122.33333333333334</ele><time>2026-04-25T16:47:51.999Z</time></trkpt><trkpt lat="44.39474800431288" lon="9.383319734685372"><ele>120.0</ele><time>2026-04-25T16:47:52.999Z</time></trkpt><trkpt lat="44.394825092470235" lon="9.383553260277402"><ele>125.66666666666666</ele><time>2026-04-25T16:47:53.999Z</time></trkpt><trkpt lat="44.39490481215075" lon="9.383775763245746"><ele>131.33333333333331</ele><time>2026-04-25T16:47:54.999Z</time></trkpt><trkpt lat="44.394982409263484" lon="9.384019835267619"><ele>137.0</ele><time>2026-04-25T16:47:55.999Z</time></trkpt><trkpt lat="44.395088025129574" lon="9.384243700662074"><ele>137.0</ele><time>2026-04-25T16:47:56.999Z</time></trkpt><trkpt lat="44.39517616512715" lon="9.384490235771281"><ele>137.0</ele><time>2026-04-25T16:47:57.999Z</time></trkpt><trkpt lat="44.395257507706056" lon="9.384772616355797"><ele>137.0</ele><time>2026-04-25T16:47:58.999Z</time></trkpt><trkpt lat="44.39533530792178" lon="9.385050738421839"><ele>137.33333333333331</ele><time>2026-04-25T16:47:59.999Z</time></trkpt><trkpt lat="44.395409709986275" lon="9.385313577360114"><ele>137.66666666666666</ele><time>2026-04-25T16:48:00.999Z</time></trkpt><trkpt lat="44.395474482027915" lon="9.385552947366628"><ele>138.0</ele><time>2026-04-25T16:48:01.999Z</time></trkpt><trkpt lat="44.39550955125859" lon="9.385774055612021"><ele>140.75</ele><time>2026-04-25T16:48:02.999Z</time></trkpt><trkpt lat="44.39554072087706" lon="9.385992167472244"><ele>143.5</ele><time>2026-04-25T16:48:03.999Z</time></trkpt><trkpt lat="44.39557548388854" lon="9.38614336260074"><ele>146.25</ele><time>2026-04-25T16:48:04.999Z</time></trkpt><trkpt lat="44.395603315870076" lon="9.386279813268857"><ele>149.0</ele><time>2026-04-25T16:48:05.999Z</time></trkpt><trkpt lat="44.39563053147836" lon="9.386407926889914"><ele>149.0</ele><time>2026-04-25T16:48:06.999Z</time></trkpt><trkpt lat="44.395728055599534" lon="9.386498759524626"><ele>149.0</ele><time>2026-04-25T16:48:07.999Z</time></trkpt><trkpt lat="44.39582818218497" lon="9.386629319190375"><ele>149.0</ele><time>2026-04-25T16:48:08.999Z</time></trkpt><trkpt lat="44.395940382690306" lon="9.386753661334216"><ele>149.0</ele><time>2026-04-25T16:48:09.999Z</time></trkpt><trkpt lat="44.39604434510566" lon="9.386872646893865"><ele>149.0</ele><time>2026-04-25T16:48:10.999Z</time></trkpt><trkpt lat="44.39608871129456" lon="9.387051222878968"><ele>149.0</ele><time>2026-04-25T16:48:11.999Z</time></trkpt><trkpt lat="44.396163026505036" lon="9.387215049334383"><ele>149.0</ele><time>2026-04-25T16:48:12.999Z</time></trkpt><trkpt lat="44.39620574612364" lon="9.387369304473003"><ele>149.0</ele><time>2026-04-25T16:48:14Z</time></trkpt><trkpt lat="44.39628554037673" lon="9.387492570801026"><ele>155.25</ele><time>2026-04-25T16:48:15Z</time></trkpt><trkpt lat="44.39640920868776" lon="9.38755391691905"><ele>161.5</ele><time>2026-04-25T16:48:16Z</time></trkpt><trkpt lat="44.39653602053118" lon="9.387651808002019"><ele>167.75</ele><time>2026-04-25T16:48:17Z</time></trkpt><trkpt lat="44.396665636365746" lon="9.387739332271925"><ele>174.0</ele><time>2026-04-25T16:48:18Z</time></trkpt><trkpt lat="44.39676772419917" lon="9.387816854777958"><ele>174.0</ele><time>2026-04-25T16:48:19Z</time></trkpt><trkpt lat="44.396840381934865" lon="9.387921438547167"><ele>174.0</ele><time>2026-04-25T16:48:20Z</time></trkpt><trkpt lat="44.39690102841875" lon="9.38807397696217"><ele>174.0</ele><time>2026-04-25T16:48:21Z</time></trkpt><trkpt lat="44.396972445064236" lon="9.38825813600301"><ele>174.0</ele><time>2026-04-25T16:48:22Z</time></trkpt><trkpt lat="44.397053022450564" lon="9.38846756226616"><ele>175.33333333333334</ele><time>2026-04-25T16:48:23Z</time></trkpt><trkpt lat="44.39715519123148" lon="9.388693872816305"><ele>176.66666666666669</ele><time>2026-04-25T16:48:24Z</time></trkpt><trkpt lat="44.397239461139975" lon="9.388895271968092"><ele>178.0</ele><time>2026-04-25T16:48:25Z</time></trkpt><trkpt lat="44.397308633684816" lon="9.389089252383824"><ele>178.0</ele><time>2026-04-25T16:48:26Z</time></trkpt><trkpt lat="44.39736964429027" lon="9.389275320481614"><ele>178.0</ele><time>2026-04-25T16:48:27Z</time></trkpt><trkpt lat="44.39741909837621" lon="9.38946326625414"><ele>178.0</ele><time>2026-04-25T16:48:28Z</time></trkpt><trkpt lat="44.39743821072151" lon="9.38968457680664"><ele>178.0</ele><time>2026-04-25T16:48:29Z</time></trkpt><trkpt lat="44.39745113933517" lon="9.389929665764196"><ele>177.33333333333334</ele><time>2026-04-25T16:48:30Z</time></trkpt><trkpt lat="44.39745452879768" lon="9.39016209365853"><ele>176.66666666666666</ele><time>2026-04-25T16:48:31Z</time></trkpt><trkpt lat="44.39744791813062" lon="9.390371758312504"><ele>176.0</ele><time>2026-04-25T16:48:32Z</time></trkpt><trkpt lat="44.397420078620975" lon="9.390563560887399"><ele>176.0</ele><time>2026-04-25T16:48:33Z</time></trkpt><trkpt lat="44.39740536401213" lon="9.390731287534908"><ele>176.0</ele><time>2026-04-25T16:48:34Z</time></trkpt><trkpt lat="44.39742736050011" lon="9.3908946927643"><ele>176.0</ele><time>2026-04-25T16:48:35Z</time></trkpt><trkpt lat="44.39747725777674" lon="9.391030037247482"><ele>176.0</ele><time>2026-04-25T16:48:36Z</time></trkpt><trkpt lat="44.39748975431674" lon="9.391173479688012"><ele>177.0</ele><time>2026-04-25T16:48:37Z</time></trkpt><trkpt lat="44.39747191539682" lon="9.391344428646414"><ele>178.0</ele><time>2026-04-25T16:48:38Z</time></trkpt><trkpt lat="44.3974389608628" lon="9.391529961042625"><ele>179.0</ele><time>2026-04-25T16:48:39Z</time></trkpt><trkpt lat="44.39741115177947" lon="9.391722859717337"><ele>180.0</ele><time>2026-04-25T16:48:40Z</time></trkpt><trkpt lat="44.39743989674126" lon="9.391939211098526"><ele>180.0</ele><time>2026-04-25T16:48:41Z</time></trkpt><trkpt lat="44.39748238766338" lon="9.392170421753889"><ele>180.0</ele><time>2026-04-25T16:48:42Z</time></trkpt><trkpt lat="44.397513679501024" lon="9.392394897146234"><ele>180.0</ele><time>2026-04-25T16:48:43Z</time></trkpt><trkpt lat="44.39759779305345" lon="9.392610306829084"><ele>179.33333333333334</ele><time>2026-04-25T16:48:44Z</time></trkpt><trkpt lat="44.397703624101084" lon="9.392818177928348"><ele>178.66666666666669</ele><time>2026-04-25T16:48:45Z</time></trkpt><trkpt lat="44.39780343609613" lon="9.393020241925997"><ele>178.0</ele><time>2026-04-25T16:48:47Z</time></trkpt><trkpt lat="44.39784851110167" lon="9.39313430398417"><ele>178.0</ele><time>2026-04-25T16:48:48Z</time></trkpt><trkpt lat="44.39786438808958" lon="9.393222188257761"><ele>178.0</ele><time>2026-04-25T16:48:49Z</time></trkpt><trkpt lat="44.39781179786923" lon="9.393283704695513"><ele>178.0</ele><time>2026-04-25T16:48:50Z</time></trkpt><trkpt lat="44.39768736697694" lon="9.393395775756117"><ele>178.0</ele><time>2026-04-25T16:48:52Z</time></trkpt><trkpt lat="44.39761055684617" lon="9.393507867478771"><ele>178.0</ele><time>2026-04-25T16:48:53Z</time></trkpt><trkpt lat="44.397559305507286" lon="9.39364628731555"><ele>181.0</ele><time>2026-04-25T16:48:54Z</time></trkpt><trkpt lat="44.39754520838323" lon="9.393890014219416"><ele>184.0</ele><time>2026-04-25T16:48:55Z</time></trkpt><trkpt lat="44.39751950548065" lon="9.394124394345148"><ele>187.0</ele><time>2026-04-25T16:48:56Z</time></trkpt><trkpt lat="44.39749520392527" lon="9.39431362189489"><ele>187.0</ele><time>2026-04-25T16:48:57Z</time></trkpt><trkpt lat="44.39750019947762" lon="9.394493284956733"><ele>187.0</ele><time>2026-04-25T16:48:58Z</time></trkpt><trkpt lat="44.39753939960599" lon="9.394709660290776"><ele>187.0</ele><time>2026-04-25T16:48:59Z</time></trkpt><trkpt lat="44.39758442037445" lon="9.394920896201393"><ele>187.0</ele><time>2026-04-25T16:49:00Z</time></trkpt><trkpt lat="44.39759325183198" lon="9.39509794591289"><ele>188.75</ele><time>2026-04-25T16:49:01Z</time></trkpt><trkpt lat="44.39756652424906" lon="9.395257961325937"><ele>190.5</ele><time>2026-04-25T16:49:02Z</time></trkpt><trkpt lat="44.39750889017027" lon="9.395456682824385"><ele>192.25</ele><time>2026-04-25T16:49:03Z</time></trkpt><trkpt lat="44.39744921336128" lon="9.395652524644046"><ele>194.0</ele><time>2026-04-25T16:49:04Z</time></trkpt><trkpt lat="44.39741296675252" lon="9.395797347307694"><ele>194.79999999999998</ele><time>2026-04-25T16:49:05Z</time></trkpt><trkpt lat="44.39741621424047" lon="9.395913991368186"><ele>195.6</ele><time>2026-04-25T16:49:06Z</time></trkpt><trkpt lat="44.3974334024821" lon="9.396026321735583"><ele>196.4</ele><time>2026-04-25T16:49:07Z</time></trkpt><trkpt lat="44.39744571766818" lon="9.39614351390952"><ele>197.2</ele><time>2026-04-25T16:49:08Z</time></trkpt><trkpt lat="44.39743656825223" lon="9.396259603950522"><ele>198.0</ele><time>2026-04-25T16:49:09Z</time></trkpt><trkpt lat="44.397331636505406" lon="9.396345205563037"><ele>200.4</ele><time>2026-04-25T16:49:10Z</time></trkpt><trkpt lat="44.39727460720145" lon="9.396481887434671"><ele>202.8</ele><time>2026-04-25T16:49:11Z</time></trkpt><trkpt lat="44.397223942096495" lon="9.396585077383639"><ele>205.2</ele><time>2026-04-25T16:49:12Z</time></trkpt><trkpt lat="44.39719783260359" lon="9.396707275334867"><ele>207.6</ele><time>2026-04-25T16:49:13Z</time></trkpt><trkpt lat="44.39719195140916" lon="9.396861324199776"><ele>210.0</ele><time>2026-04-25T16:49:14Z</time></trkpt><trkpt lat="44.39720192934331" lon="9.397058297348776"><ele>212.25</ele><time>2026-04-25T16:49:15Z</time></trkpt><trkpt lat="44.39719863837248" lon="9.397260207767863"><ele>214.5</ele><time>2026-04-25T16:49:16Z</time></trkpt><trkpt lat="44.39723381235803" lon="9.397431421052584"><ele>216.75</ele><time>2026-04-25T16:49:17Z</time></trkpt><trkpt lat="44.39727147508997" lon="9.397586429454611"><ele>219.0</ele><time>2026-04-25T16:49:18Z</time></trkpt><trkpt lat="44.39734355138413" lon="9.397748501784847"><ele>219.0</ele><time>2026-04-25T16:49:19Z</time></trkpt><trkpt lat="44.397415003019006" lon="9.397953593936702"><ele>219.0</ele><time>2026-04-25T16:49:20Z</time></trkpt><trkpt lat="44.39751005785523" lon="9.398176166520276"><ele>219.0</ele><time>2026-04-25T16:49:21Z</time></trkpt><trkpt lat="44.397611642030604" lon="9.39841399137407"><ele>217.0</ele><time>2026-04-25T16:49:22Z</time></trkpt><trkpt lat="44.397706632620036" lon="9.398641902175395"><ele>215.0</ele><time>2026-04-25T16:49:23Z</time></trkpt><trkpt lat="44.39778684652526" lon="9.398857977501683"><ele>213.0</ele><time>2026-04-25T16:49:24Z</time></trkpt><trkpt lat="44.39784483639078" lon="9.399061162182898"><ele>211.75</ele><time>2026-04-25T16:49:25Z</time></trkpt><trkpt lat="44.39789947161821" lon="9.399235629033486"><ele>210.5</ele><time>2026-04-25T16:49:26Z</time></trkpt><trkpt lat="44.39797602618616" lon="9.39937717597853"><ele>209.25</ele><time>2026-04-25T16:49:27Z</time></trkpt><trkpt lat="44.39806363745626" lon="9.399525952358966"><ele>208.0</ele><time>2026-04-25T16:49:28Z</time></trkpt><trkpt lat="44.398174899790135" lon="9.399675888167858"><ele>211.25</ele><time>2026-04-25T16:49:29Z</time></trkpt><trkpt lat="44.39827371951841" lon="9.399852766419878"><ele>214.5</ele><time>2026-04-25T16:49:30Z</time></trkpt><trkpt lat="44.39836867517828" lon="9.400010810956383"><ele>217.75</ele><time>2026-04-25T16:49:31Z</time></trkpt><trkpt lat="44.3984532122946" lon="9.400167027292266"><ele>221.0</ele><time>2026-04-25T16:49:32Z</time></trkpt><trkpt lat="44.3985321637884" lon="9.400308391982703"><ele>221.0</ele><time>2026-04-25T16:49:33Z</time></trkpt><trkpt lat="44.39863446414106" lon="9.400438672452996"><ele>221.0</ele><time>2026-04-25T16:49:34Z</time></trkpt><trkpt lat="44.398771640875175" lon="9.400542739054039"><ele>221.0</ele><time>2026-04-25T16:49:35Z</time></trkpt><trkpt lat="44.39887250000953" lon="9.400692417753291"><ele>221.0</ele><time>2026-04-25T16:49:36Z</time></trkpt><trkpt lat="44.39898491365019" lon="9.400815839334976"><ele>224.5</ele><time>2026-04-25T16:49:37Z</time></trkpt><trkpt lat="44.399111021136505" lon="9.400903793878271"><ele>228.0</ele><time>2026-04-25T16:49:38Z</time></trkpt><trkpt lat="44.39923901004114" lon="9.400929645424853"><ele>231.5</ele><time>2026-04-25T16:49:38.999Z</time></trkpt><trkpt lat="44.3993269020079" lon="9.401013349185956"><ele>235.0</ele><time>2026-04-25T16:49:39.999Z</time></trkpt><trkpt lat="44.39940380981969" lon="9.401097762837052"><ele>235.0</ele><time>2026-04-25T16:49:40.999Z</time></trkpt><trkpt lat="44.39946104596163" lon="9.401230648065415"><ele>235.0</ele><time>2026-04-25T16:49:41.999Z</time></trkpt><trkpt lat="44.399542983649035" lon="9.401348704826496"><ele>235.0</ele><time>2026-04-25T16:49:42.999Z</time></trkpt><trkpt lat="44.39964756606135" lon="9.40144719913638"><ele>235.0</ele><time>2026-04-25T16:49:43.999Z</time></trkpt><trkpt lat="44.39975597698533" lon="9.401538468796806"><ele>235.75</ele><time>2026-04-25T16:49:44.999Z</time></trkpt><trkpt lat="44.3998928286837" lon="9.40159905729607"><ele>236.5</ele><time>2026-04-25T16:49:45.999Z</time></trkpt><trkpt lat="44.40004478166596" lon="9.401674321101636"><ele>237.25</ele><time>2026-04-25T16:49:46.999Z</time></trkpt><trkpt lat="44.40017954860305" lon="9.401735131343514"><ele>238.0</ele><time>2026-04-25T16:49:47.999Z</time></trkpt><trkpt lat="44.400279402236784" lon="9.4017893351521"><ele>238.0</ele><time>2026-04-25T16:49:48.999Z</time></trkpt><trkpt lat="44.400336024338735" lon="9.401888892450076"><ele>238.0</ele><time>2026-04-25T16:49:49.999Z</time></trkpt><trkpt lat="44.40040593833024" lon="9.402034694726582"><ele>238.0</ele><time>2026-04-25T16:49:50.999Z</time></trkpt><trkpt lat="44.400520610148206" lon="9.40217346443774"><ele>238.0</ele><time>2026-04-25T16:49:51.999Z</time></trkpt><trkpt lat="44.40064823425374" lon="9.402328991092212"><ele>240.0</ele><time>2026-04-25T16:49:52.999Z</time></trkpt><trkpt lat="44.40080338739045" lon="9.402478997881953"><ele>242.0</ele><time>2026-04-25T16:49:53.999Z</time></trkpt><trkpt lat="44.400953531052885" lon="9.402613524003524"><ele>244.0</ele><time>2026-04-25T16:49:54.999Z</time></trkpt><trkpt lat="44.401091222652006" lon="9.402740629123743"><ele>244.0</ele><time>2026-04-25T16:49:55.999Z</time></trkpt><trkpt lat="44.40120508196842" lon="9.402884901670049"><ele>244.0</ele><time>2026-04-25T16:49:56.999Z</time></trkpt><trkpt lat="44.40134405661977" lon="9.403034329535227"><ele>244.0</ele><time>2026-04-25T16:49:57.999Z</time></trkpt><trkpt lat="44.40149967912764" lon="9.403169776308909"><ele>248.33333333333331</ele><time>2026-04-25T16:49:58.999Z</time></trkpt><trkpt lat="44.40163787273606" lon="9.403329043034582"><ele>252.66666666666669</ele><time>2026-04-25T16:49:59.999Z</time></trkpt><trkpt lat="44.40177268023862" lon="9.403455727359903"><ele>257.0</ele><time>2026-04-25T16:50:00.999Z</time></trkpt><trkpt lat="44.40191234122707" lon="9.40355273553375"><ele>257.0</ele><time>2026-04-25T16:50:01.999Z</time></trkpt><trkpt lat="44.40206067561135" lon="9.403673788668723"><ele>257.0</ele><time>2026-04-25T16:50:02.999Z</time></trkpt><trkpt lat="44.4022360910486" lon="9.403733744043857"><ele>257.0</ele><time>2026-04-25T16:50:03.999Z</time></trkpt><trkpt lat="44.40239867851011" lon="9.403841732073436"><ele>258.33333333333337</ele><time>2026-04-25T16:50:04.999Z</time></trkpt><trkpt lat="44.40254839784923" lon="9.403964276986546"><ele>259.6666666666667</ele><time>2026-04-25T16:50:05.999Z</time></trkpt><trkpt lat="44.40269424203366" lon="9.404133873176411"><ele>261.0</ele><time>2026-04-25T16:50:06.999Z</time></trkpt><trkpt lat="44.40285313496673" lon="9.404319494622008"><ele>262.0</ele><time>2026-04-25T16:50:07.999Z</time></trkpt><trkpt lat="44.403005696671826" lon="9.404484078237877"><ele>263.0</ele><time>2026-04-25T16:50:08.999Z</time></trkpt><trkpt lat="44.40315148777996" lon="9.404605661542282"><ele>264.0</ele><time>2026-04-25T16:50:09.999Z</time></trkpt><trkpt lat="44.40328342744907" lon="9.404729035019825"><ele>264.0</ele><time>2026-04-25T16:50:10.999Z</time></trkpt><trkpt lat="44.4034270705781" lon="9.404838923318836"><ele>264.0</ele><time>2026-04-25T16:50:11.999Z</time></trkpt><trkpt lat="44.403590795423895" lon="9.40493063278404"><ele>264.0</ele><time>2026-04-25T16:50:12.999Z</time></trkpt><trkpt lat="44.403735492895706" lon="9.405038659389406"><ele>267.75</ele><time>2026-04-25T16:50:13.999Z</time></trkpt><trkpt lat="44.40385490469757" lon="9.405135230988916"><ele>271.5</ele><time>2026-04-25T16:50:14.999Z</time></trkpt><trkpt lat="44.40394228520865" lon="9.40525382938793"><ele>275.25</ele><time>2026-04-25T16:50:15.999Z</time></trkpt><trkpt lat="44.40404419247939" lon="9.405404892666635"><ele>279.0</ele><time>2026-04-25T16:50:16.999Z</time></trkpt><trkpt lat="44.404144636152616" lon="9.405554061903844"><ele>279.0</ele><time>2026-04-25T16:50:17.999Z</time></trkpt><trkpt lat="44.40422204352246" lon="9.405687008835166"><ele>279.0</ele><time>2026-04-25T16:50:18.999Z</time></trkpt><trkpt lat="44.40426077730871" lon="9.405830038506885"><ele>279.0</ele><time>2026-04-25T16:50:20Z</time></trkpt><trkpt lat="44.404279819281996" lon="9.406014854856188"><ele>279.0</ele><time>2026-04-25T16:50:21Z</time></trkpt><trkpt lat="44.40432320493083" lon="9.406233149403539"><ele>279.25</ele><time>2026-04-25T16:50:22Z</time></trkpt><trkpt lat="44.40442165482022" lon="9.40643325762965"><ele>279.5</ele><time>2026-04-25T16:50:23Z</time></trkpt><trkpt lat="44.404469088897855" lon="9.406616759778785"><ele>279.75</ele><time>2026-04-25T16:50:24Z</time></trkpt><trkpt lat="44.40450258140093" lon="9.406771407576088"><ele>280.0</ele><time>2026-04-25T16:50:25Z</time></trkpt><trkpt lat="44.404551469813065" lon="9.406895577782745"><ele>286.0</ele><time>2026-04-25T16:50:26Z</time></trkpt><trkpt lat="44.404662927306426" lon="9.406985500791295"><ele>292.0</ele><time>2026-04-25T16:50:27Z</time></trkpt><trkpt lat="44.40474358352302" lon="9.40711458607087"><ele>298.0</ele><time>2026-04-25T16:50:28Z</time></trkpt><trkpt lat="44.40480725659376" lon="9.407246807283899"><ele>304.0</ele><time>2026-04-25T16:50:29Z</time></trkpt><trkpt lat="44.40485159195617" lon="9.40737960067699"><ele>304.0</ele><time>2026-04-25T16:50:30Z</time></trkpt><trkpt lat="44.40483932292377" lon="9.407516498265108"><ele>304.0</ele><time>2026-04-25T16:50:31Z</time></trkpt><trkpt lat="44.404790466110875" lon="9.407621135927727"><ele>304.0</ele><time>2026-04-25T16:50:32Z</time></trkpt><trkpt lat="44.40470794181425" lon="9.407701766117468"><ele>304.0</ele><time>2026-04-25T16:50:33Z</time></trkpt><trkpt lat="44.40459726235472" lon="9.407720953092966"><ele>304.0</ele><time>2026-04-25T16:50:34Z</time></trkpt><trkpt lat="44.40448582822157" lon="9.407789863286153"><ele>302.25</ele><time>2026-04-25T16:50:35Z</time></trkpt><trkpt lat="44.40438111965608" lon="9.40786703313428"><ele>300.5</ele><time>2026-04-25T16:50:36Z</time></trkpt><trkpt lat="44.40429873979884" lon="9.407996827573118"><ele>298.75</ele><time>2026-04-25T16:50:37Z</time></trkpt><trkpt lat="44.404231328351976" lon="9.408167845096528"><ele>297.0</ele><time>2026-04-25T16:50:38Z</time></trkpt><trkpt lat="44.404174966521424" lon="9.40837296866555"><ele>297.0</ele><time>2026-04-25T16:50:39Z</time></trkpt><trkpt lat="44.40411989955475" lon="9.408580136477461"><ele>297.0</ele><time>2026-04-25T16:50:40Z</time></trkpt><trkpt lat="44.40402885223971" lon="9.408734180531289"><ele>297.0</ele><time>2026-04-25T16:50:41Z</time></trkpt><trkpt lat="44.40390603768379" lon="9.40888011639132"><ele>297.0</ele><time>2026-04-25T16:50:42Z</time></trkpt><trkpt lat="44.40375917002886" lon="9.409037520738886"><ele>297.0</ele><time>2026-04-25T16:50:43Z</time></trkpt><trkpt lat="44.40358462346018" lon="9.409176883090682"><ele>297.0</ele><time>2026-04-25T16:50:44Z</time></trkpt><trkpt lat="44.40341598820091" lon="9.409308459994802"><ele>297.0</ele><time>2026-04-25T16:50:45Z</time></trkpt><trkpt lat="44.40324879722072" lon="9.4094382956425"><ele>297.0</ele><time>2026-04-25T16:50:46Z</time></trkpt><trkpt lat="44.40308683417252" lon="9.409625872194392"><ele>297.0</ele><time>2026-04-25T16:50:47Z</time></trkpt><trkpt lat="44.402932947857245" lon="9.409808206924467"><ele>301.3333333333333</ele><time>2026-04-25T16:50:48Z</time></trkpt><trkpt lat="44.4027738329553" lon="9.409926429657181"><ele>305.66666666666663</ele><time>2026-04-25T16:50:49Z</time></trkpt><trkpt lat="44.40263674121042" lon="9.410037604366565"><ele>310.0</ele><time>2026-04-25T16:50:50Z</time></trkpt><trkpt lat="44.402519644514776" lon="9.410116473298054"><ele>310.0</ele><time>2026-04-25T16:50:51Z</time></trkpt><trkpt lat="44.40243017763632" lon="9.410235073007037"><ele>310.0</ele><time>2026-04-25T16:50:52Z</time></trkpt><trkpt lat="44.40234955050023" lon="9.410408655391949"><ele>310.0</ele><time>2026-04-25T16:50:53Z</time></trkpt><trkpt lat="44.40225237167547" lon="9.410605941911419"><ele>310.0</ele><time>2026-04-25T16:50:54Z</time></trkpt><trkpt lat="44.40209709187444" lon="9.410754760978312"><ele>313.3333333333333</ele><time>2026-04-25T16:50:55Z</time></trkpt><trkpt lat="44.401996970455635" lon="9.410969034632"><ele>316.6666666666667</ele><time>2026-04-25T16:50:56Z</time></trkpt><trkpt lat="44.401891658205585" lon="9.411170257954344"><ele>320.0</ele><time>2026-04-25T16:50:57Z</time></trkpt><trkpt lat="44.40176545067373" lon="9.411326152988211"><ele>322.25</ele><time>2026-04-25T16:50:58Z</time></trkpt><trkpt lat="44.401637828561384" lon="9.411460945910123"><ele>324.5</ele><time>2026-04-25T16:50:59Z</time></trkpt><trkpt lat="44.40151596954526" lon="9.411585993292736"><ele>326.75</ele><time>2026-04-25T16:51:00Z</time></trkpt><trkpt lat="44.40140419961058" lon="9.411683356293754"><ele>329.0</ele><time>2026-04-25T16:51:01Z</time></trkpt><trkpt lat="44.40132056568317" lon="9.411797235768896"><ele>330.75</ele><time>2026-04-25T16:51:02Z</time></trkpt><trkpt lat="44.40126227948071" lon="9.411937580288006"><ele>332.5</ele><time>2026-04-25T16:51:03Z</time></trkpt><trkpt lat="44.40122059100641" lon="9.412102110817804"><ele>334.25</ele><time>2026-04-25T16:51:04Z</time></trkpt><trkpt lat="44.40118776375099" lon="9.412293162172638"><ele>336.0</ele><time>2026-04-25T16:51:05Z</time></trkpt><trkpt lat="44.40112264044436" lon="9.412482419891548"><ele>336.0</ele><time>2026-04-25T16:51:06Z</time></trkpt><trkpt lat="44.40107616022367" lon="9.412639648139297"><ele>336.0</ele><time>2026-04-25T16:51:07Z</time></trkpt><trkpt lat="44.40106172766684" lon="9.412764340522893"><ele>336.0</ele><time>2026-04-25T16:51:08Z</time></trkpt><trkpt lat="44.40106988147392" lon="9.412867735939788"><ele>336.0</ele><time>2026-04-25T16:51:09Z</time></trkpt><trkpt lat="44.40111987923962" lon="9.412964621283754"><ele>336.0</ele><time>2026-04-25T16:51:10Z</time></trkpt><trkpt lat="44.40119748446389" lon="9.413035333923954"><ele>336.4</ele><time>2026-04-25T16:51:11Z</time></trkpt><trkpt lat="44.40127902628509" lon="9.413067001046576"><ele>336.8</ele><time>2026-04-25T16:51:12Z</time></trkpt><trkpt lat="44.401368535007606" lon="9.412984373654357"><ele>337.2</ele><time>2026-04-25T16:51:13Z</time></trkpt><trkpt lat="44.401429242308076" lon="9.41287293344733"><ele>337.59999999999997</ele><time>2026-04-25T16:51:14Z</time></trkpt><trkpt lat="44.40146296134481" lon="9.412749650147287"><ele>338.0</ele><time>2026-04-25T16:51:15Z</time></trkpt><trkpt lat="44.4014724480616" lon="9.412594716588597"><ele>338.0</ele><time>2026-04-25T16:51:16Z</time></trkpt><trkpt lat="44.401516493404" lon="9.4124438562637"><ele>338.0</ele><time>2026-04-25T16:51:17Z</time></trkpt><trkpt lat="44.40161749228268" lon="9.412287380822168"><ele>338.0</ele><time>2026-04-25T16:51:18Z</time></trkpt><trkpt lat="44.40172185122188" lon="9.412089549606781"><ele>338.0</ele><time>2026-04-25T16:51:19Z</time></trkpt><trkpt lat="44.40180573985428" lon="9.411888596454908"><ele>335.75</ele><time>2026-04-25T16:51:20Z</time></trkpt><trkpt lat="44.40187856254838" lon="9.411714462313315"><ele>333.5</ele><time>2026-04-25T16:51:21Z</time></trkpt><trkpt lat="44.40194842036133" lon="9.411593450962478"><ele>331.25</ele><time>2026-04-25T16:51:22Z</time></trkpt><trkpt lat="44.40204404380413" lon="9.411487242242618"><ele>329.0</ele><time>2026-04-25T16:51:23Z</time></trkpt><trkpt lat="44.402174713405586" lon="9.41141331890021"><ele>328.79999999999995</ele><time>2026-04-25T16:51:24Z</time></trkpt><trkpt lat="44.40226347458302" lon="9.411287700923154"><ele>328.59999999999997</ele><time>2026-04-25T16:51:25Z</time></trkpt><trkpt lat="44.402323975934266" lon="9.411165589392448"><ele>328.4</ele><time>2026-04-25T16:51:26Z</time></trkpt><trkpt lat="44.40240313259262" lon="9.411073964651322"><ele>328.2</ele><time>2026-04-25T16:51:27Z</time></trkpt><trkpt lat="44.40251070132839" lon="9.411026462298558"><ele>328.0</ele><time>2026-04-25T16:51:28Z</time></trkpt><trkpt lat="44.402645036031615" lon="9.410991963076334"><ele>328.0</ele><time>2026-04-25T16:51:29Z</time></trkpt><trkpt lat="44.40276558724509" lon="9.410986295134421"><ele>328.0</ele><time>2026-04-25T16:51:30Z</time></trkpt><trkpt lat="44.4028571866753" lon="9.410966470051484"><ele>328.0</ele><time>2026-04-25T16:51:31Z</time></trkpt><trkpt lat="44.402942180103416" lon="9.411028489422591"><ele>328.0</ele><time>2026-04-25T16:51:32Z</time></trkpt><trkpt lat="44.402992377524825" lon="9.411149797322858"><ele>328.0</ele><time>2026-04-25T16:51:33Z</time></trkpt><trkpt lat="44.403067840622874" lon="9.411245942242854"><ele>330.4</ele><time>2026-04-25T16:51:34Z</time></trkpt><trkpt lat="44.40314142373044" lon="9.411302552063939"><ele>332.79999999999995</ele><time>2026-04-25T16:51:35Z</time></trkpt><trkpt lat="44.40323567533255" lon="9.411308931438542"><ele>335.2</ele><time>2026-04-25T16:51:36Z</time></trkpt><trkpt lat="44.40335673264705" lon="9.411302974045041"><ele>337.6</ele><time>2026-04-25T16:51:37Z</time></trkpt><trkpt lat="44.40346973314234" lon="9.411325698612117"><ele>340.0</ele><time>2026-04-25T16:51:38Z</time></trkpt><trkpt lat="44.40357553589345" lon="9.411391217329692"><ele>343.0</ele><time>2026-04-25T16:51:39Z</time></trkpt><trkpt lat="44.40366061335669" lon="9.411446988962135"><ele>346.0</ele><time>2026-04-25T16:51:40Z</time></trkpt><trkpt lat="44.40374407865569" lon="9.411472348753417"><ele>349.0</ele><time>2026-04-25T16:51:41Z</time></trkpt><trkpt lat="44.40383423821025" lon="9.411425846379295"><ele>352.0</ele><time>2026-04-25T16:51:42Z</time></trkpt><trkpt lat="44.40389149309135" lon="9.411303769506544"><ele>355.0</ele><time>2026-04-25T16:51:42.999Z</time></trkpt><trkpt lat="44.40388615836136" lon="9.411156399091054"><ele>355.0</ele><time>2026-04-25T16:51:43.999Z</time></trkpt><trkpt lat="44.40386819133014" lon="9.411035814941346"><ele>355.0</ele><time>2026-04-25T16:51:44.999Z</time></trkpt><trkpt lat="44.403878732887144" lon="9.410941553756649"><ele>355.0</ele><time>2026-04-25T16:51:45.999Z</time></trkpt><trkpt lat="44.40389911128474" lon="9.410844017088383"><ele>355.0</ele><time>2026-04-25T16:51:46.999Z</time></trkpt><trkpt lat="44.40394697927877" lon="9.410733567116731"><ele>355.0</ele><time>2026-04-25T16:51:47.999Z</time></trkpt><trkpt lat="44.40402366970455" lon="9.410641206883826"><ele>355.0</ele><time>2026-04-25T16:51:48.999Z</time></trkpt><trkpt lat="44.40408310479871" lon="9.410562828471928"><ele>355.0</ele><time>2026-04-25T16:51:49.999Z</time></trkpt><trkpt lat="44.404180838865535" lon="9.410531716086975"><ele>355.0</ele><time>2026-04-25T16:51:51.999Z</time></trkpt><trkpt lat="44.40422637979758" lon="9.410610017415305"><ele>355.0</ele><time>2026-04-25T16:51:52.999Z</time></trkpt><trkpt lat="44.40423155585621" lon="9.410701905747711"><ele>355.0</ele><time>2026-04-25T16:51:53.999Z</time></trkpt><trkpt lat="44.4041380756371" lon="9.410855996933641"><ele>355.0</ele><time>2026-04-25T16:51:55.999Z</time></trkpt><trkpt lat="44.40406618301297" lon="9.4108100689608"><ele>355.0</ele><time>2026-04-25T16:51:56.999Z</time></trkpt><trkpt lat="44.40397554586509" lon="9.410888944572417"><ele>355.0</ele><time>2026-04-25T16:51:57.999Z</time></trkpt><trkpt lat="44.40392524479558" lon="9.411015595448895"><ele>355.0</ele><time>2026-04-25T16:51:58.999Z</time></trkpt><trkpt lat="44.40390853497007" lon="9.411126036734883"><ele>355.0</ele><time>2026-04-25T16:51:59.999Z</time></trkpt><trkpt lat="44.40392129736387" lon="9.411258599813234"><ele>355.0</ele><time>2026-04-25T16:52:00.999Z</time></trkpt><trkpt lat="44.40394755243118" lon="9.411439453916241"><ele>356.6</ele><time>2026-04-25T16:52:01.999Z</time></trkpt><trkpt lat="44.40393361979192" lon="9.411579665736763"><ele>358.2</ele><time>2026-04-25T16:52:02.999Z</time></trkpt><trkpt lat="44.40389209507414" lon="9.411662452361652"><ele>359.79999999999995</ele><time>2026-04-25T16:52:03.999Z</time></trkpt><trkpt lat="44.4038182775026" lon="9.411692902634282"><ele>361.4</ele><time>2026-04-25T16:52:04.999Z</time></trkpt><trkpt lat="44.403724811805176" lon="9.411701380531436"><ele>363.0</ele><time>2026-04-25T16:52:05.999Z</time></trkpt><trkpt lat="44.403609782008935" lon="9.411670786351753"><ele>363.0</ele><time>2026-04-25T16:52:06.999Z</time></trkpt><trkpt lat="44.403491780436255" lon="9.41162845375698"><ele>363.0</ele><time>2026-04-25T16:52:07.999Z</time></trkpt><trkpt lat="44.4033956517066" lon="9.411614868201502"><ele>363.0</ele><time>2026-04-25T16:52:08.999Z</time></trkpt><trkpt lat="44.40331327894653" lon="9.411645981891335"><ele>363.0</ele><time>2026-04-25T16:52:09.999Z</time></trkpt><trkpt lat="44.403249408557215" lon="9.411694029717061"><ele>363.0</ele><time>2026-04-25T16:52:10.999Z</time></trkpt><trkpt lat="44.403189094220735" lon="9.411766299252575"><ele>363.0</ele><time>2026-04-25T16:52:11.999Z</time></trkpt><trkpt lat="44.40310777089384" lon="9.411854223090524"><ele>363.0</ele><time>2026-04-25T16:52:12.999Z</time></trkpt><trkpt lat="44.40300772356484" lon="9.41185856261132"><ele>363.0</ele><time>2026-04-25T16:52:13.999Z</time></trkpt><trkpt lat="44.40293349997278" lon="9.411822471602422"><ele>363.0</ele><time>2026-04-25T16:52:14.999Z</time></trkpt><trkpt lat="44.402852564121936" lon="9.411764924215403"><ele>363.0</ele><time>2026-04-25T16:52:15.999Z</time></trkpt><trkpt lat="44.40274684517921" lon="9.41176903280289"><ele>359.75</ele><time>2026-04-25T16:52:16.999Z</time></trkpt><trkpt lat="44.40262411139081" lon="9.411794044245315"><ele>356.5</ele><time>2026-04-25T16:52:17.999Z</time></trkpt><trkpt lat="44.402480152140726" lon="9.411850842980442"><ele>353.25</ele><time>2026-04-25T16:52:18.999Z</time></trkpt><trkpt lat="44.40236358348073" lon="9.411914934957956"><ele>350.0</ele><time>2026-04-25T16:52:19.999Z</time></trkpt><trkpt lat="44.40227874700741" lon="9.411998233554991"><ele>350.0</ele><time>2026-04-25T16:52:20.999Z</time></trkpt><trkpt lat="44.4022240486702" lon="9.412113565576224"><ele>350.0</ele><time>2026-04-25T16:52:21.999Z</time></trkpt><trkpt lat="44.40218756691257" lon="9.412258539210365"><ele>350.0</ele><time>2026-04-25T16:52:22.999Z</time></trkpt><trkpt lat="44.40218265717137" lon="9.412412554894772"><ele>350.0</ele><time>2026-04-25T16:52:23.999Z</time></trkpt><trkpt lat="44.40220532078829" lon="9.41260413259599"><ele>356.0</ele><time>2026-04-25T16:52:24.999Z</time></trkpt><trkpt lat="44.402237800486446" lon="9.4128223827008"><ele>362.0</ele><time>2026-04-25T16:52:26Z</time></trkpt><trkpt lat="44.40224580025124" lon="9.413023218761927"><ele>368.0</ele><time>2026-04-25T16:52:27Z</time></trkpt><trkpt lat="44.402260848807344" lon="9.413187006872427"><ele>374.0</ele><time>2026-04-25T16:52:28Z</time></trkpt><trkpt lat="44.402298561259514" lon="9.413319358255452"><ele>374.5</ele><time>2026-04-25T16:52:29Z</time></trkpt><trkpt lat="44.40236734461713" lon="9.413418437010264"><ele>375.0</ele><time>2026-04-25T16:52:30Z</time></trkpt><trkpt lat="44.40246361029709" lon="9.413498307106963"><ele>375.5</ele><time>2026-04-25T16:52:31Z</time></trkpt><trkpt lat="44.40258818172532" lon="9.413570482484786"><ele>376.0</ele><time>2026-04-25T16:52:32Z</time></trkpt><trkpt lat="44.40272602671888" lon="9.41365214267941"><ele>376.0</ele><time>2026-04-25T16:52:33Z</time></trkpt><trkpt lat="44.40287378292257" lon="9.41376246278082"><ele>376.0</ele><time>2026-04-25T16:52:34Z</time></trkpt><trkpt lat="44.403021623883696" lon="9.41391950311336"><ele>376.0</ele><time>2026-04-25T16:52:35Z</time></trkpt><trkpt lat="44.40316147359642" lon="9.41406838272612"><ele>381.0</ele><time>2026-04-25T16:52:36Z</time></trkpt><trkpt lat="44.403307149927926" lon="9.414193343963005"><ele>386.0</ele><time>2026-04-25T16:52:37Z</time></trkpt><trkpt lat="44.403448160063995" lon="9.414335796786974"><ele>391.0</ele><time>2026-04-25T16:52:38Z</time></trkpt><trkpt lat="44.4035594391233" lon="9.414488933963286"><ele>394.33333333333337</ele><time>2026-04-25T16:52:39Z</time></trkpt><trkpt lat="44.40365820187163" lon="9.414657085948631"><ele>397.66666666666663</ele><time>2026-04-25T16:52:40Z</time></trkpt><trkpt lat="44.40376159547775" lon="9.414845029799775"><ele>401.0</ele><time>2026-04-25T16:52:41Z</time></trkpt><trkpt lat="44.403842174662714" lon="9.415024958672767"><ele>401.0</ele><time>2026-04-25T16:52:42Z</time></trkpt><trkpt lat="44.40392111560619" lon="9.415163884431"><ele>401.0</ele><time>2026-04-25T16:52:43Z</time></trkpt><trkpt lat="44.403989036925616" lon="9.415279131213852"><ele>401.0</ele><time>2026-04-25T16:52:44Z</time></trkpt><trkpt lat="44.404095206831755" lon="9.415363227673163"><ele>401.0</ele><time>2026-04-25T16:52:45Z</time></trkpt><trkpt lat="44.40420041446382" lon="9.415486135501842"><ele>395.25</ele><time>2026-04-25T16:52:46Z</time></trkpt><trkpt lat="44.40432072187855" lon="9.415603125919372"><ele>389.5</ele><time>2026-04-25T16:52:47Z</time></trkpt><trkpt lat="44.404429647671016" lon="9.415735340111379"><ele>383.75</ele><time>2026-04-25T16:52:48Z</time></trkpt><trkpt lat="44.40451300982874" lon="9.415862813873323"><ele>378.0</ele><time>2026-04-25T16:52:49Z</time></trkpt><trkpt lat="44.4045737092025" lon="9.415976013787528"><ele>378.0</ele><time>2026-04-25T16:52:50Z</time></trkpt><trkpt lat="44.404606325715186" lon="9.416114590138871"><ele>378.0</ele><time>2026-04-25T16:52:51Z</time></trkpt><trkpt lat="44.40460415472087" lon="9.416272532567204"><ele>378.0</ele><time>2026-04-25T16:52:52Z</time></trkpt><trkpt lat="44.40457677179861" lon="9.416425911435347"><ele>378.0</ele><time>2026-04-25T16:52:53Z</time></trkpt><trkpt lat="44.40457295531519" lon="9.41656032132355"><ele>378.0</ele><time>2026-04-25T16:52:54Z</time></trkpt><trkpt lat="44.40460029093327" lon="9.416668177672939"><ele>377.2</ele><time>2026-04-25T16:52:55Z</time></trkpt><trkpt lat="44.404651917757924" lon="9.41676294188362"><ele>376.4</ele><time>2026-04-25T16:52:56Z</time></trkpt><trkpt lat="44.40473091816709" lon="9.416842193586849"><ele>375.59999999999997</ele><time>2026-04-25T16:52:57Z</time></trkpt><trkpt lat="44.404839217646234" lon="9.41690242732617"><ele>374.79999999999995</ele><time>2026-04-25T16:52:58Z</time></trkpt><trkpt lat="44.40497287191295" lon="9.416930490870584"><ele>374.0</ele><time>2026-04-25T16:52:59Z</time></trkpt><trkpt lat="44.40509521608203" lon="9.416953076531831"><ele>378.79999999999995</ele><time>2026-04-25T16:53:00Z</time></trkpt><trkpt lat="44.40517920444453" lon="9.41702338836189"><ele>383.59999999999997</ele><time>2026-04-25T16:53:01Z</time></trkpt><trkpt lat="44.40522523768829" lon="9.417139248292724"><ele>388.4</ele><time>2026-04-25T16:53:02Z</time></trkpt><trkpt lat="44.405244163035505" lon="9.417270474169625"><ele>393.2</ele><time>2026-04-25T16:53:03Z</time></trkpt><trkpt lat="44.40522148433974" lon="9.417384846572096"><ele>398.0</ele><time>2026-04-25T16:53:04Z</time></trkpt><trkpt lat="44.40516207306411" lon="9.41746491027385"><ele>398.0</ele><time>2026-04-25T16:53:05Z</time></trkpt><trkpt lat="44.40507237344892" lon="9.417488477684147"><ele>398.0</ele><time>2026-04-25T16:53:06Z</time></trkpt><trkpt lat="44.40498200592352" lon="9.417492376470737"><ele>398.0</ele><time>2026-04-25T16:53:07Z</time></trkpt><trkpt lat="44.40489819546433" lon="9.417556608981988"><ele>398.0</ele><time>2026-04-25T16:53:08Z</time></trkpt><trkpt lat="44.4048285207004" lon="9.417692082136165"><ele>398.0</ele><time>2026-04-25T16:53:09Z</time></trkpt><trkpt lat="44.404774908287465" lon="9.417866530984728"><ele>402.0</ele><time>2026-04-25T16:53:10Z</time></trkpt><trkpt lat="44.40472948943917" lon="9.4180605209655"><ele>406.0</ele><time>2026-04-25T16:53:11Z</time></trkpt><trkpt lat="44.40469094906178" lon="9.418277362157397"><ele>410.0</ele><time>2026-04-25T16:53:12Z</time></trkpt><trkpt lat="44.40466668894262" lon="9.418520828090742"><ele>406.25</ele><time>2026-04-25T16:53:13Z</time></trkpt><trkpt lat="44.404656055333824" lon="9.418751958857468"><ele>402.5</ele><time>2026-04-25T16:53:14Z</time></trkpt><trkpt lat="44.40464233881194" lon="9.418958923193655"><ele>398.75</ele><time>2026-04-25T16:53:15Z</time></trkpt><trkpt lat="44.40463231708965" lon="9.419139322396582"><ele>395.0</ele><time>2026-04-25T16:53:16Z</time></trkpt><trkpt lat="44.40464457197686" lon="9.419310230819026"><ele>395.0</ele><time>2026-04-25T16:53:17Z</time></trkpt><trkpt lat="44.404657331966064" lon="9.419490430474427"><ele>395.0</ele><time>2026-04-25T16:53:18Z</time></trkpt><trkpt lat="44.404653927684805" lon="9.419685702299876"><ele>395.0</ele><time>2026-04-25T16:53:19Z</time></trkpt><trkpt lat="44.404641902323334" lon="9.419895715639882"><ele>395.0</ele><time>2026-04-25T16:53:20Z</time></trkpt><trkpt lat="44.40462875147539" lon="9.420120674354202"><ele>397.66666666666663</ele><time>2026-04-25T16:53:21Z</time></trkpt><trkpt lat="44.40462157357282" lon="9.420336855616243"><ele>400.33333333333337</ele><time>2026-04-25T16:53:22Z</time></trkpt><trkpt lat="44.404588061370774" lon="9.420551518907416"><ele>403.0</ele><time>2026-04-25T16:53:23Z</time></trkpt><trkpt lat="44.404566873902716" lon="9.420759232251667"><ele>405.0</ele><time>2026-04-25T16:53:24Z</time></trkpt><trkpt lat="44.4045329077327" lon="9.42093948231876"><ele>407.0</ele><time>2026-04-25T16:53:25Z</time></trkpt><trkpt lat="44.40451228447711" lon="9.421094509136438"><ele>409.0</ele><time>2026-04-25T16:53:26Z</time></trkpt><trkpt lat="44.404526366238336" lon="9.421260477707074"><ele>411.0</ele><time>2026-04-25T16:53:27Z</time></trkpt><trkpt lat="44.40456410946109" lon="9.42142736349116"><ele>412.4</ele><time>2026-04-25T16:53:28Z</time></trkpt><trkpt lat="44.40456342656708" lon="9.42157809193823"><ele>413.8</ele><time>2026-04-25T16:53:29Z</time></trkpt><trkpt lat="44.40454693954336" lon="9.421699019826818"><ele>415.2</ele><time>2026-04-25T16:53:30Z</time></trkpt><trkpt lat="44.404478547485716" lon="9.42180340754749"><ele>416.59999999999997</ele><time>2026-04-25T16:53:31Z</time></trkpt><trkpt lat="44.40439907013053" lon="9.421940939969057"><ele>418.0</ele><time>2026-04-25T16:53:32Z</time></trkpt><trkpt lat="44.404292080549595" lon="9.422051728064814"><ele>418.0</ele><time>2026-04-25T16:53:33Z</time></trkpt><trkpt lat="44.40418250056615" lon="9.422143351329149"><ele>418.0</ele><time>2026-04-25T16:53:34Z</time></trkpt><trkpt lat="44.404064794812435" lon="9.42215907699212"><ele>418.0</ele><time>2026-04-25T16:53:35Z</time></trkpt><trkpt lat="44.403961587130716" lon="9.422121975424304"><ele>418.0</ele><time>2026-04-25T16:53:36Z</time></trkpt><trkpt lat="44.403880189356165" lon="9.422036104432577"><ele>425.0</ele><time>2026-04-25T16:53:37Z</time></trkpt><trkpt lat="44.40382046977375" lon="9.421904820163014"><ele>432.0</ele><time>2026-04-25T16:53:38Z</time></trkpt><trkpt lat="44.403770696369435" lon="9.421730174486862"><ele>439.0</ele><time>2026-04-25T16:53:39Z</time></trkpt><trkpt lat="44.403715829193764" lon="9.421526437240937"><ele>446.0</ele><time>2026-04-25T16:53:40Z</time></trkpt><trkpt lat="44.4036467213226" lon="9.421317064446312"><ele>445.0</ele><time>2026-04-25T16:53:41Z</time></trkpt><trkpt lat="44.403592214382726" lon="9.42111067512058"><ele>444.0</ele><time>2026-04-25T16:53:42Z</time></trkpt><trkpt lat="44.40355977388935" lon="9.420894686206909"><ele>443.0</ele><time>2026-04-25T16:53:43Z</time></trkpt><trkpt lat="44.403541929163424" lon="9.420661859960337"><ele>443.0</ele><time>2026-04-25T16:53:44Z</time></trkpt><trkpt lat="44.40352527732353" lon="9.420417526427766"><ele>443.0</ele><time>2026-04-25T16:53:44.999Z</time></trkpt><trkpt lat="44.40351059628503" lon="9.420176454162553"><ele>443.0</ele><time>2026-04-25T16:53:45.999Z</time></trkpt><trkpt lat="44.403499252713836" lon="9.419944293931326"><ele>443.0</ele><time>2026-04-25T16:53:46.999Z</time></trkpt><trkpt lat="44.4034793000121" lon="9.41972935373131"><ele>443.0</ele><time>2026-04-25T16:53:47.999Z</time></trkpt><trkpt lat="44.403450603043375" lon="9.419535262974911"><ele>443.0</ele><time>2026-04-25T16:53:48.999Z</time></trkpt><trkpt lat="44.40341174496979" lon="9.419379241394418"><ele>443.0</ele><time>2026-04-25T16:53:49.999Z</time></trkpt><trkpt lat="44.40336479062139" lon="9.419263967732656"><ele>446.5</ele><time>2026-04-25T16:53:50.999Z</time></trkpt><trkpt lat="44.403288356492915" lon="9.4191688538738"><ele>450.0</ele><time>2026-04-25T16:53:51.999Z</time></trkpt><trkpt lat="44.40317536122456" lon="9.419081427291264"><ele>453.5</ele><time>2026-04-25T16:53:52.999Z</time></trkpt><trkpt lat="44.403042543003444" lon="9.418992643591881"><ele>457.0</ele><time>2026-04-25T16:53:53.999Z</time></trkpt><trkpt lat="44.40289953268351" lon="9.418906042720375"><ele>457.0</ele><time>2026-04-25T16:53:54.999Z</time></trkpt><trkpt lat="44.402758237592295" lon="9.418828671802608"><ele>457.0</ele><time>2026-04-25T16:53:55.999Z</time></trkpt><trkpt lat="44.402638930603786" lon="9.418757145964168"><ele>457.0</ele><time>2026-04-25T16:53:56.999Z</time></trkpt><trkpt lat="44.40255518404774" lon="9.41865081770721"><ele>457.0</ele><time>2026-04-25T16:53:57.999Z</time></trkpt><trkpt lat="44.40248770119911" lon="9.418547123188407"><ele>452.6666666666667</ele><time>2026-04-25T16:53:58.999Z</time></trkpt><trkpt lat="44.40244403897675" lon="9.418426115925625"><ele>448.33333333333337</ele><time>2026-04-25T16:53:59.999Z</time></trkpt><trkpt lat="44.40238382290296" lon="9.418350897867604"><ele>444.0</ele><time>2026-04-25T16:54:00.999Z</time></trkpt><trkpt lat="44.402315686922236" lon="9.418343757780534"><ele>439.66666666666663</ele><time>2026-04-25T16:54:01.999Z</time></trkpt><trkpt lat="44.40224959593589" lon="9.418388124729097"><ele>435.3333333333333</ele><time>2026-04-25T16:54:02.999Z</time></trkpt><trkpt lat="44.40220108489825" lon="9.418472434319494"><ele>431.0</ele><time>2026-04-25T16:54:03.999Z</time></trkpt><trkpt lat="44.402186505382545" lon="9.418574906915746"><ele>431.0</ele><time>2026-04-25T16:54:04.999Z</time></trkpt><trkpt lat="44.402218449040575" lon="9.418672249668044"><ele>431.0</ele><time>2026-04-25T16:54:05.999Z</time></trkpt><trkpt lat="44.40229269247618" lon="9.418755495427952"><ele>431.0</ele><time>2026-04-25T16:54:06.999Z</time></trkpt><trkpt lat="44.402409728424516" lon="9.418818736876133"><ele>431.0</ele><time>2026-04-25T16:54:07.999Z</time></trkpt><trkpt lat="44.40255987988646" lon="9.418874125450964"><ele>437.5</ele><time>2026-04-25T16:54:08.999Z</time></trkpt><trkpt lat="44.40267467176579" lon="9.418986638864665"><ele>444.0</ele><time>2026-04-25T16:54:09.999Z</time></trkpt><trkpt lat="44.40278462335406" lon="9.419076074871864"><ele>450.5</ele><time>2026-04-25T16:54:10.999Z</time></trkpt><trkpt lat="44.40288934280127" lon="9.419174387004094"><ele>457.0</ele><time>2026-04-25T16:54:11.999Z</time></trkpt><trkpt lat="44.40298296172468" lon="9.41928885826051"><ele>453.5</ele><time>2026-04-25T16:54:12.999Z</time></trkpt><trkpt lat="44.40305508936544" lon="9.419422611372838"><ele>450.0</ele><time>2026-04-25T16:54:13.999Z</time></trkpt><trkpt lat="44.4031070232758" lon="9.419581560340148"><ele>446.5</ele><time>2026-04-25T16:54:14.999Z</time></trkpt><trkpt lat="44.40316152709712" lon="9.419776982558794"><ele>443.0</ele><time>2026-04-25T16:54:15.999Z</time></trkpt><trkpt lat="44.40321388432072" lon="9.419971097043707"><ele>443.0</ele><time>2026-04-25T16:54:16.999Z</time></trkpt><trkpt lat="44.403250601218204" lon="9.420139459585121"><ele>443.0</ele><time>2026-04-25T16:54:17.999Z</time></trkpt><trkpt lat="44.403274039790276" lon="9.42030201536191"><ele>443.0</ele><time>2026-04-25T16:54:18.999Z</time></trkpt><trkpt lat="44.403268784809654" lon="9.420480285422554"><ele>443.0</ele><time>2026-04-25T16:54:19.999Z</time></trkpt><trkpt lat="44.40325298328144" lon="9.420677103144616"><ele>443.0</ele><time>2026-04-25T16:54:20.999Z</time></trkpt><trkpt lat="44.40322133065571" lon="9.420857240437968"><ele>443.0</ele><time>2026-04-25T16:54:21.999Z</time></trkpt><trkpt lat="44.40317063565798" lon="9.421037306339798"><ele>443.0</ele><time>2026-04-25T16:54:22.999Z</time></trkpt><trkpt lat="44.40309470034132" lon="9.421227364694463"><ele>443.0</ele><time>2026-04-25T16:54:23.999Z</time></trkpt><trkpt lat="44.40301860179071" lon="9.421391452800107"><ele>443.59999999999997</ele><time>2026-04-25T16:54:24.999Z</time></trkpt><trkpt lat="44.40298138136677" lon="9.421522986875056"><ele>444.19999999999993</ele><time>2026-04-25T16:54:25.999Z</time></trkpt><trkpt lat="44.40296660092056" lon="9.4216130178797"><ele>444.8</ele><time>2026-04-25T16:54:26.999Z</time></trkpt><trkpt lat="44.40298344926295" lon="9.42170855538104"><ele>445.4</ele><time>2026-04-25T16:54:27.999Z</time></trkpt><trkpt lat="44.40303314731025" lon="9.42183408484389"><ele>446.0</ele><time>2026-04-25T16:54:28.999Z</time></trkpt><trkpt lat="44.40311793334176" lon="9.421971670425688"><ele>450.66666666666663</ele><time>2026-04-25T16:54:29.999Z</time></trkpt><trkpt lat="44.40321394910138" lon="9.422154944438994"><ele>455.33333333333337</ele><time>2026-04-25T16:54:30.999Z</time></trkpt><trkpt lat="44.403317344943574" lon="9.422322050392342"><ele>460.0</ele><time>2026-04-25T16:54:32Z</time></trkpt><trkpt lat="44.403421192763375" lon="9.422471907806251"><ele>460.0</ele><time>2026-04-25T16:54:33Z</time></trkpt><trkpt lat="44.40348658359292" lon="9.422572253146232"><ele>460.0</ele><time>2026-04-25T16:54:34Z</time></trkpt><trkpt lat="44.40354876414577" lon="9.422676441414524"><ele>460.0</ele><time>2026-04-25T16:54:35Z</time></trkpt><trkpt lat="44.40359247149632" lon="9.422775981947334"><ele>460.0</ele><time>2026-04-25T16:54:36Z</time></trkpt><trkpt lat="44.40360318932417" lon="9.422959763206109"><ele>460.0</ele><time>2026-04-25T16:54:38Z</time></trkpt><trkpt lat="44.403559812617104" lon="9.423047367378539"><ele>463.0</ele><time>2026-04-25T16:54:39Z</time></trkpt><trkpt lat="44.40353732435827" lon="9.423149027540324"><ele>466.0</ele><time>2026-04-25T16:54:40Z</time></trkpt><trkpt lat="44.40354975951813" lon="9.423249836392266"><ele>469.0</ele><time>2026-04-25T16:54:41Z</time></trkpt><trkpt lat="44.40359549997206" lon="9.423346068238425"><ele>472.0</ele><time>2026-04-25T16:54:42Z</time></trkpt><trkpt lat="44.403675331373684" lon="9.423447945977994"><ele>475.0</ele><time>2026-04-25T16:54:43Z</time></trkpt><trkpt lat="44.40379055260059" lon="9.423499321782534"><ele>472.6</ele><time>2026-04-25T16:54:44Z</time></trkpt><trkpt lat="44.40386290675024" lon="9.42354203789181"><ele>470.2</ele><time>2026-04-25T16:54:45Z</time></trkpt><trkpt lat="44.403912682259644" lon="9.423689728351913"><ele>467.79999999999995</ele><time>2026-04-25T16:54:47Z</time></trkpt><trkpt lat="44.403908711567425" lon="9.423810556699646"><ele>465.4</ele><time>2026-04-25T16:54:48Z</time></trkpt><trkpt lat="44.40389384242527" lon="9.423940906933446"><ele>463.0</ele><time>2026-04-25T16:54:49Z</time></trkpt><trkpt lat="44.403890031206295" lon="9.424067142106743"><ele>463.0</ele><time>2026-04-25T16:54:50Z</time></trkpt><trkpt lat="44.4039208207612" lon="9.42418172596778"><ele>462.99999999999994</ele><time>2026-04-25T16:54:51Z</time></trkpt><trkpt lat="44.40397650624659" lon="9.424284073765607"><ele>462.99999999999994</ele><time>2026-04-25T16:54:52Z</time></trkpt><trkpt lat="44.404061304547696" lon="9.424371587082048"><ele>463.0</ele><time>2026-04-25T16:54:53Z</time></trkpt><trkpt lat="44.40413492268874" lon="9.424477448412558"><ele>463.0</ele><time>2026-04-25T16:54:54Z</time></trkpt><trkpt lat="44.40419517009212" lon="9.424607301654271"><ele>466.5</ele><time>2026-04-25T16:54:55Z</time></trkpt><trkpt lat="44.404240816709596" lon="9.424754063173669"><ele>470.0</ele><time>2026-04-25T16:54:56Z</time></trkpt><trkpt lat="44.404274830821805" lon="9.424890648233905"><ele>473.5</ele><time>2026-04-25T16:54:57Z</time></trkpt><trkpt lat="44.40429530585862" lon="9.425090643343257"><ele>477.0</ele><time>2026-04-25T16:54:58Z</time></trkpt><trkpt lat="44.404290064862394" lon="9.425264881348241"><ele>477.0</ele><time>2026-04-25T16:54:59Z</time></trkpt><trkpt lat="44.40429060030429" lon="9.425428199409694"><ele>477.00000000000006</ele><time>2026-04-25T16:55:00Z</time></trkpt><trkpt lat="44.40432986556051" lon="9.42555899855504"><ele>477.00000000000006</ele><time>2026-04-25T16:55:01Z</time></trkpt><trkpt lat="44.404361853599696" lon="9.42566633257684"><ele>477.0</ele><time>2026-04-25T16:55:02Z</time></trkpt><trkpt lat="44.4044230096297" lon="9.425766254982712"><ele>477.0</ele><time>2026-04-25T16:55:03Z</time></trkpt><trkpt lat="44.40451413362829" lon="9.425863187348202"><ele>478.5</ele><time>2026-04-25T16:55:04Z</time></trkpt><trkpt lat="44.40460152780373" lon="9.425943165822558"><ele>480.0</ele><time>2026-04-25T16:55:05Z</time></trkpt><trkpt lat="44.40470510428938" lon="9.425985925222367"><ele>481.5</ele><time>2026-04-25T16:55:06Z</time></trkpt><trkpt lat="44.404832186287244" lon="9.425986495483622"><ele>483.0</ele><time>2026-04-25T16:55:07Z</time></trkpt><trkpt lat="44.40496890876728" lon="9.425985657778662"><ele>479.5</ele><time>2026-04-25T16:55:08Z</time></trkpt><trkpt lat="44.405112167037466" lon="9.425999714957864"><ele>476.0</ele><time>2026-04-25T16:55:09Z</time></trkpt><trkpt lat="44.40525544680537" lon="9.426017388324357"><ele>472.5</ele><time>2026-04-25T16:55:10Z</time></trkpt><trkpt lat="44.40536995465228" lon="9.426063207032035"><ele>469.0</ele><time>2026-04-25T16:55:11Z</time></trkpt><trkpt lat="44.40547232168687" lon="9.426103238140238"><ele>472.79999999999995</ele><time>2026-04-25T16:55:12Z</time></trkpt><trkpt lat="44.405574419697174" lon="9.426162049296329"><ele>476.59999999999997</ele><time>2026-04-25T16:55:13Z</time></trkpt><trkpt lat="44.40567514913848" lon="9.426215874016865"><ele>480.4</ele><time>2026-04-25T16:55:14Z</time></trkpt><trkpt lat="44.40576458777878" lon="9.426207398744475"><ele>484.2</ele><time>2026-04-25T16:55:15Z</time></trkpt><trkpt lat="44.405832861933995" lon="9.42617197251712"><ele>488.0</ele><time>2026-04-25T16:55:16Z</time></trkpt><trkpt lat="44.40588609293261" lon="9.42607662598191"><ele>488.0</ele><time>2026-04-25T16:55:17Z</time></trkpt><trkpt lat="44.40592186623861" lon="9.425945041604486"><ele>487.99999999999994</ele><time>2026-04-25T16:55:18Z</time></trkpt><trkpt lat="44.40594364445653" lon="9.425793185426528"><ele>487.99999999999994</ele><time>2026-04-25T16:55:19Z</time></trkpt><trkpt lat="44.40593501381538" lon="9.425622075766082"><ele>488.0</ele><time>2026-04-25T16:55:20Z</time></trkpt><trkpt lat="44.405898092595066" lon="9.425478529574455"><ele>488.0</ele><time>2026-04-25T16:55:21Z</time></trkpt><trkpt lat="44.40583268191247" lon="9.425339398673549"><ele>489.0</ele><time>2026-04-25T16:55:22Z</time></trkpt><trkpt lat="44.405764127932166" lon="9.425199198626181"><ele>489.99999999999994</ele><time>2026-04-25T16:55:23Z</time></trkpt><trkpt lat="44.40571033538209" lon="9.425062870201645"><ele>490.99999999999994</ele><time>2026-04-25T16:55:24Z</time></trkpt><trkpt lat="44.40567484090211" lon="9.424936036460366"><ele>492.0</ele><time>2026-04-25T16:55:25Z</time></trkpt><trkpt lat="44.40565984260078" lon="9.424812791137938"><ele>493.0</ele><time>2026-04-25T16:55:26Z</time></trkpt><trkpt lat="44.40566518458408" lon="9.424662669405059"><ele>493.25</ele><time>2026-04-25T16:55:27Z</time></trkpt><trkpt lat="44.40568595888568" lon="9.424475216994468"><ele>493.5</ele><time>2026-04-25T16:55:28Z</time></trkpt><trkpt lat="44.40569989018772" lon="9.424255355476273"><ele>493.75</ele><time>2026-04-25T16:55:29Z</time></trkpt><trkpt lat="44.405698264334596" lon="9.42404357239452"><ele>494.0</ele><time>2026-04-25T16:55:30Z</time></trkpt><trkpt lat="44.40568050647945" lon="9.423814239406479"><ele>494.75</ele><time>2026-04-25T16:55:31Z</time></trkpt><trkpt lat="44.40565450987506" lon="9.423582622925483"><ele>495.5</ele><time>2026-04-25T16:55:32Z</time></trkpt><trkpt lat="44.405631062683895" lon="9.423378870363829"><ele>496.25</ele><time>2026-04-25T16:55:33Z</time></trkpt><trkpt lat="44.40562134334308" lon="9.423209736966827"><ele>497.0</ele><time>2026-04-25T16:55:34Z</time></trkpt><trkpt lat="44.405628907148376" lon="9.423050444081971"><ele>495.25</ele><time>2026-04-25T16:55:35Z</time></trkpt><trkpt lat="44.405657010513394" lon="9.422873419284537"><ele>493.5</ele><time>2026-04-25T16:55:36Z</time></trkpt><trkpt lat="44.40568057539798" lon="9.422684456702605"><ele>491.75</ele><time>2026-04-25T16:55:37Z</time></trkpt><trkpt lat="44.405674715945906" lon="9.422504352809758"><ele>490.0</ele><time>2026-04-25T16:55:38Z</time></trkpt><trkpt lat="44.405650557394154" lon="9.422347186624034"><ele>490.00000000000006</ele><time>2026-04-25T16:55:39Z</time></trkpt><trkpt lat="44.40563786684051" lon="9.422214052294281"><ele>490.0</ele><time>2026-04-25T16:55:40Z</time></trkpt><trkpt lat="44.40565607114275" lon="9.422108801171603"><ele>490.0</ele><time>2026-04-25T16:55:41Z</time></trkpt><trkpt lat="44.40569252810386" lon="9.42201765607278"><ele>490.0</ele><time>2026-04-25T16:55:42Z</time></trkpt><trkpt lat="44.40574711203725" lon="9.421950370231977"><ele>490.00000000000006</ele><time>2026-04-25T16:55:43Z</time></trkpt><trkpt lat="44.40587262901412" lon="9.42193155847958"><ele>490.0</ele><time>2026-04-25T16:55:44.999Z</time></trkpt><trkpt lat="44.40592811834768" lon="9.422011219531802"><ele>490.0</ele><time>2026-04-25T16:55:45.999Z</time></trkpt><trkpt lat="44.405988415807876" lon="9.42210059194155"><ele>490.0</ele><time>2026-04-25T16:55:46.999Z</time></trkpt><trkpt lat="44.40607922121038" lon="9.422198956195162"><ele>490.0</ele><time>2026-04-25T16:55:47.999Z</time></trkpt><trkpt lat="44.4061539091783" lon="9.422293703441255"><ele>490.0</ele><time>2026-04-25T16:55:48.999Z</time></trkpt><trkpt lat="44.40622770448876" lon="9.422346003902176"><ele>490.0</ele><time>2026-04-25T16:55:49.999Z</time></trkpt><trkpt lat="44.406301370575434" lon="9.422342340876598"><ele>492.33333333333337</ele><time>2026-04-25T16:55:50.999Z</time></trkpt><trkpt lat="44.406363108038214" lon="9.422284395584068"><ele>494.6666666666667</ele><time>2026-04-25T16:55:51.999Z</time></trkpt><trkpt lat="44.406406692475116" lon="9.422187843344298"><ele>497.0</ele><time>2026-04-25T16:55:52.999Z</time></trkpt><trkpt lat="44.40642624508928" lon="9.4220674352447"><ele>499.33333333333337</ele><time>2026-04-25T16:55:53.999Z</time></trkpt><trkpt lat="44.40641527514566" lon="9.421947703752295"><ele>501.6666666666667</ele><time>2026-04-25T16:55:54.999Z</time></trkpt><trkpt lat="44.40640510910655" lon="9.421849127580584"><ele>504.0</ele><time>2026-04-25T16:55:55.999Z</time></trkpt><trkpt lat="44.40646157942674" lon="9.421704427328917"><ele>504.0</ele><time>2026-04-25T16:55:57.999Z</time></trkpt><trkpt lat="44.4065720441345" lon="9.421618690272439"><ele>504.0</ele><time>2026-04-25T16:55:59.999Z</time></trkpt><trkpt lat="44.40661861428016" lon="9.421527537669741"><ele>504.0</ele><time>2026-04-25T16:56:00.999Z</time></trkpt><trkpt lat="44.406625140965865" lon="9.42142345899341"><ele>504.0</ele><time>2026-04-25T16:56:01.999Z</time></trkpt><trkpt lat="44.40659458919519" lon="9.421303092367495"><ele>504.0</ele><time>2026-04-25T16:56:02.999Z</time></trkpt><trkpt lat="44.40653534160064" lon="9.42115461338485"><ele>504.5</ele><time>2026-04-25T16:56:03.999Z</time></trkpt><trkpt lat="44.406463341702135" lon="9.420974864743323"><ele>505.0</ele><time>2026-04-25T16:56:04.999Z</time></trkpt><trkpt lat="44.40639622028303" lon="9.420786616755166"><ele>505.5</ele><time>2026-04-25T16:56:05.999Z</time></trkpt><trkpt lat="44.406331190175656" lon="9.420631303620102"><ele>506.0</ele><time>2026-04-25T16:56:06.999Z</time></trkpt><trkpt lat="44.40625142503166" lon="9.420514024219493"><ele>498.6</ele><time>2026-04-25T16:56:07.999Z</time></trkpt><trkpt lat="44.40618887889601" lon="9.420429352310947"><ele>491.20000000000005</ele><time>2026-04-25T16:56:08.999Z</time></trkpt><trkpt lat="44.40615984462998" lon="9.420335233693967"><ele>483.79999999999995</ele><time>2026-04-25T16:56:09.999Z</time></trkpt><trkpt lat="44.40615557186251" lon="9.420221148600167"><ele>476.4</ele><time>2026-04-25T16:56:10.999Z</time></trkpt><trkpt lat="44.40617600748982" lon="9.42008805757946"><ele>469.0</ele><time>2026-04-25T16:56:11.999Z</time></trkpt><trkpt lat="44.40620853711424" lon="9.419927122617658"><ele>469.0</ele><time>2026-04-25T16:56:12.999Z</time></trkpt><trkpt lat="44.40623143529832" lon="9.419748372701497"><ele>469.0</ele><time>2026-04-25T16:56:13.999Z</time></trkpt><trkpt lat="44.406248371206395" lon="9.419602770142525"><ele>469.0</ele><time>2026-04-25T16:56:14.999Z</time></trkpt><trkpt lat="44.40626218910869" lon="9.419488255759546"><ele>469.0</ele><time>2026-04-25T16:56:15.999Z</time></trkpt><trkpt lat="44.40629411567837" lon="9.419397019992061"><ele>469.0</ele><time>2026-04-25T16:56:16.999Z</time></trkpt><trkpt lat="44.40635774167421" lon="9.419336430548478"><ele>474.4</ele><time>2026-04-25T16:56:17.999Z</time></trkpt><trkpt lat="44.40644309193484" lon="9.419302075851913"><ele>479.79999999999995</ele><time>2026-04-25T16:56:18.999Z</time></trkpt><trkpt lat="44.4065503736512" lon="9.419273049992833"><ele>485.20000000000005</ele><time>2026-04-25T16:56:19.999Z</time></trkpt><trkpt lat="44.406673868833025" lon="9.419249497290643"><ele>490.6</ele><time>2026-04-25T16:56:20.999Z</time></trkpt><trkpt lat="44.406793958984174" lon="9.419282908477909"><ele>496.0</ele><time>2026-04-25T16:56:21.999Z</time></trkpt><trkpt lat="44.40690981395096" lon="9.419316059387203"><ele>496.0</ele><time>2026-04-25T16:56:22.999Z</time></trkpt><trkpt lat="44.40702674162672" lon="9.419337717183886"><ele>496.0</ele><time>2026-04-25T16:56:23.999Z</time></trkpt><trkpt lat="44.40712704966067" lon="9.419356441345101"><ele>496.0</ele><time>2026-04-25T16:56:24.999Z</time></trkpt><trkpt lat="44.40721190397842" lon="9.419354111835393"><ele>496.0</ele><time>2026-04-25T16:56:25.999Z</time></trkpt><trkpt lat="44.40728427457565" lon="9.419235658813573"><ele>496.0</ele><time>2026-04-25T16:56:26.999Z</time></trkpt><trkpt lat="44.40734259956694" lon="9.419103663303863"><ele>498.0</ele><time>2026-04-25T16:56:27.999Z</time></trkpt><trkpt lat="44.40740315442624" lon="9.41896676426686"><ele>500.0</ele><time>2026-04-25T16:56:28.999Z</time></trkpt><trkpt lat="44.407466861999275" lon="9.418872965747791"><ele>502.0</ele><time>2026-04-25T16:56:29.999Z</time></trkpt><trkpt lat="44.40749994360032" lon="9.418778695197823"><ele>504.0</ele><time>2026-04-25T16:56:30.999Z</time></trkpt><trkpt lat="44.407493339741194" lon="9.418645523853952"><ele>506.0</ele><time>2026-04-25T16:56:31.999Z</time></trkpt><trkpt lat="44.407472040282265" lon="9.4184990326286"><ele>506.0</ele><time>2026-04-25T16:56:32.999Z</time></trkpt><trkpt lat="44.40748254580948" lon="9.41836597347009"><ele>506.0</ele><time>2026-04-25T16:56:33.999Z</time></trkpt><trkpt lat="44.40754199199393" lon="9.418283902999473"><ele>506.0</ele><time>2026-04-25T16:56:34.999Z</time></trkpt><trkpt lat="44.40761214302255" lon="9.418226347495153"><ele>506.0</ele><time>2026-04-25T16:56:35.999Z</time></trkpt><trkpt lat="44.40770323582885" lon="9.418145130220735"><ele>506.0</ele><time>2026-04-25T16:56:36.999Z</time></trkpt><trkpt lat="44.40781429809525" lon="9.418060147804733"><ele>503.0</ele><time>2026-04-25T16:56:38Z</time></trkpt><trkpt lat="44.40791123834661" lon="9.417977546068661"><ele>500.0</ele><time>2026-04-25T16:56:39Z</time></trkpt><trkpt lat="44.40798341829129" lon="9.417910357134456"><ele>497.0</ele><time>2026-04-25T16:56:40Z</time></trkpt><trkpt lat="44.40803296934373" lon="9.417744009338113"><ele>494.0</ele><time>2026-04-25T16:56:42Z</time></trkpt><trkpt lat="44.40800989232975" lon="9.417627726190323"><ele>491.0</ele><time>2026-04-25T16:56:43Z</time></trkpt><trkpt lat="44.40794437326808" lon="9.417520729973587"><ele>490.99999999999994</ele><time>2026-04-25T16:56:44Z</time></trkpt><trkpt lat="44.407869742869785" lon="9.417433807999409"><ele>491.0</ele><time>2026-04-25T16:56:45Z</time></trkpt><trkpt lat="44.40783229929603" lon="9.417341217535213"><ele>491.0</ele><time>2026-04-25T16:56:46Z</time></trkpt><trkpt lat="44.40786454407681" lon="9.41723758046722"><ele>491.0</ele><time>2026-04-25T16:56:47Z</time></trkpt><trkpt lat="44.407909351320185" lon="9.417131399673229"><ele>490.99999999999994</ele><time>2026-04-25T16:56:48Z</time></trkpt><trkpt lat="44.407968740848986" lon="9.417011653566025"><ele>491.0</ele><time>2026-04-25T16:56:49Z</time></trkpt><trkpt lat="44.408060228977895" lon="9.41689894595528"><ele>502.5</ele><time>2026-04-25T16:56:50Z</time></trkpt><trkpt lat="44.40816839655118" lon="9.416748857244686"><ele>514.0</ele><time>2026-04-25T16:56:51Z</time></trkpt><trkpt lat="44.40827267011858" lon="9.416621661675968"><ele>525.5</ele><time>2026-04-25T16:56:52Z</time></trkpt><trkpt lat="44.40835765732836" lon="9.416526658605873"><ele>537.0</ele><time>2026-04-25T16:56:53Z</time></trkpt><trkpt lat="44.40840363682256" lon="9.416431489514546"><ele>540.4</ele><time>2026-04-25T16:56:54Z</time></trkpt><trkpt lat="44.40841341059506" lon="9.416316556573197"><ele>543.8000000000001</ele><time>2026-04-25T16:56:55Z</time></trkpt><trkpt lat="44.4083869963098" lon="9.41620456819469"><ele>547.2</ele><time>2026-04-25T16:56:56Z</time></trkpt><trkpt lat="44.40832833132658" lon="9.416103177253074"><ele>550.6</ele><time>2026-04-25T16:56:57Z</time></trkpt><trkpt lat="44.4082409350825" lon="9.416021908649798"><ele>554.0</ele><time>2026-04-25T16:56:58Z</time></trkpt><trkpt lat="44.408119019798015" lon="9.415965430496565"><ele>546.6666666666666</ele><time>2026-04-25T16:56:59Z</time></trkpt><trkpt lat="44.407980041997426" lon="9.41593137182649"><ele>539.3333333333334</ele><time>2026-04-25T16:57:00Z</time></trkpt><trkpt lat="44.40782438644703" lon="9.415916757207908"><ele>532.0</ele><time>2026-04-25T16:57:01Z</time></trkpt><trkpt lat="44.407649264604146" lon="9.41592252221009"><ele>532.0</ele><time>2026-04-25T16:57:02Z</time></trkpt><trkpt lat="44.40749721399441" lon="9.415923191327245"><ele>532.0</ele><time>2026-04-25T16:57:03Z</time></trkpt><trkpt lat="44.407366965899946" lon="9.415908839033856"><ele>532.0</ele><time>2026-04-25T16:57:04Z</time></trkpt><trkpt lat="44.407257443149675" lon="9.415885048278122"><ele>532.0</ele><time>2026-04-25T16:57:05Z</time></trkpt><trkpt lat="44.4071784175504" lon="9.415850756045915"><ele>536.0</ele><time>2026-04-25T16:57:06Z</time></trkpt><trkpt lat="44.407112381447014" lon="9.415711275664945"><ele>540.0</ele><time>2026-04-25T16:57:08Z</time></trkpt><trkpt lat="44.407099858128646" lon="9.415600784241116"><ele>544.0</ele><time>2026-04-25T16:57:09Z</time></trkpt><trkpt lat="44.40710944162214" lon="9.415488271910577"><ele>548.0</ele><time>2026-04-25T16:57:10Z</time></trkpt><trkpt lat="44.40714739627158" lon="9.415388846170314"><ele>552.0</ele><time>2026-04-25T16:57:11Z</time></trkpt><trkpt lat="44.40721526331223" lon="9.41528662521167"><ele>552.0</ele><time>2026-04-25T16:57:12Z</time></trkpt><trkpt lat="44.40726944528405" lon="9.415149323918667"><ele>552.0</ele><time>2026-04-25T16:57:13Z</time></trkpt><trkpt lat="44.40730071848872" lon="9.414970191736822"><ele>552.0</ele><time>2026-04-25T16:57:14Z</time></trkpt><trkpt lat="44.40730012891586" lon="9.414767475748677"><ele>552.0</ele><time>2026-04-25T16:57:15Z</time></trkpt><trkpt lat="44.40726906544711" lon="9.414547296696057"><ele>554.0</ele><time>2026-04-25T16:57:16Z</time></trkpt><trkpt lat="44.40722917705374" lon="9.414340040482845"><ele>556.0</ele><time>2026-04-25T16:57:17Z</time></trkpt><trkpt lat="44.407194000717496" lon="9.414129496163488"><ele>558.0</ele><time>2026-04-25T16:57:18Z</time></trkpt><trkpt lat="44.40717772037241" lon="9.413913670250814"><ele>555.25</ele><time>2026-04-25T16:57:19Z</time></trkpt><trkpt lat="44.40717938997153" lon="9.413717798908243"><ele>552.5</ele><time>2026-04-25T16:57:20Z</time></trkpt><trkpt lat="44.40717626433036" lon="9.41355700805601"><ele>549.75</ele><time>2026-04-25T16:57:21Z</time></trkpt><trkpt lat="44.40719057492473" lon="9.413425720563056"><ele>547.0</ele><time>2026-04-25T16:57:22Z</time></trkpt><trkpt lat="44.407250780330585" lon="9.413304502768016"><ele>547.0</ele><time>2026-04-25T16:57:23Z</time></trkpt><trkpt lat="44.40731345909004" lon="9.41314088765682"><ele>547.0</ele><time>2026-04-25T16:57:24Z</time></trkpt><trkpt lat="44.40738956862476" lon="9.412991745460845"><ele>547.0</ele><time>2026-04-25T16:57:25Z</time></trkpt><trkpt lat="44.40744488871398" lon="9.412892156171477"><ele>547.0</ele><time>2026-04-25T16:57:26Z</time></trkpt><trkpt lat="44.40750952620173" lon="9.412837741384402"><ele>547.0</ele><time>2026-04-25T16:57:27Z</time></trkpt><trkpt lat="44.40758640913803" lon="9.412824736828103"><ele>547.0</ele><time>2026-04-25T16:57:28Z</time></trkpt><trkpt lat="44.407674415024374" lon="9.412883206456248"><ele>547.0</ele><time>2026-04-25T16:57:29Z</time></trkpt><trkpt lat="44.40776366433905" lon="9.412935025486393"><ele>547.0</ele><time>2026-04-25T16:57:30Z</time></trkpt><trkpt lat="44.40781545527914" lon="9.413036817598716"><ele>547.0</ele><time>2026-04-25T16:57:31Z</time></trkpt><trkpt lat="44.40784287170729" lon="9.41316970626878"><ele>547.0</ele><time>2026-04-25T16:57:32Z</time></trkpt><trkpt lat="44.4078663875021" lon="9.413317379409529"><ele>547.0</ele><time>2026-04-25T16:57:33Z</time></trkpt><trkpt lat="44.40792443122682" lon="9.41343960966898"><ele>547.0</ele><time>2026-04-25T16:57:34Z</time></trkpt><trkpt lat="44.40799764479855" lon="9.413548983338044"><ele>547.0</ele><time>2026-04-25T16:57:35Z</time></trkpt><trkpt lat="44.40810744837671" lon="9.413602513311195"><ele>547.0</ele><time>2026-04-25T16:57:36Z</time></trkpt><trkpt lat="44.40823300604717" lon="9.413574002846214"><ele>548.6666666666667</ele><time>2026-04-25T16:57:37Z</time></trkpt><trkpt lat="44.40837414661968" lon="9.413579470078313"><ele>550.3333333333334</ele><time>2026-04-25T16:57:38Z</time></trkpt><trkpt lat="44.40852739406511" lon="9.413631700487466"><ele>552.0</ele><time>2026-04-25T16:57:38.999Z</time></trkpt><trkpt lat="44.40869685647579" lon="9.413698456601141"><ele>549.25</ele><time>2026-04-25T16:57:39.999Z</time></trkpt><trkpt lat="44.40885116118539" lon="9.413776099409732"><ele>546.5</ele><time>2026-04-25T16:57:40.999Z</time></trkpt><trkpt lat="44.40897862021934" lon="9.413859209187157"><ele>543.75</ele><time>2026-04-25T16:57:41.999Z</time></trkpt><trkpt lat="44.40911786395951" lon="9.413875968814034"><ele>541.0</ele><time>2026-04-25T16:57:42.999Z</time></trkpt><trkpt lat="44.409271643065374" lon="9.413885072953704"><ele>541.6666666666667</ele><time>2026-04-25T16:57:43.999Z</time></trkpt><trkpt lat="44.40944591132702" lon="9.41387318953692"><ele>542.3333333333334</ele><time>2026-04-25T16:57:44.999Z</time></trkpt><trkpt lat="44.40961000160442" lon="9.413828725786034"><ele>543.0</ele><time>2026-04-25T16:57:45.999Z</time></trkpt><trkpt lat="44.40975055898285" lon="9.413819517708756"><ele>548.4</ele><time>2026-04-25T16:57:46.999Z</time></trkpt><trkpt lat="44.40986099336515" lon="9.413826861568324"><ele>553.8</ele><time>2026-04-25T16:57:47.999Z</time></trkpt><trkpt lat="44.409956551087895" lon="9.413870393770562"><ele>559.2</ele><time>2026-04-25T16:57:48.999Z</time></trkpt><trkpt lat="44.41004560142238" lon="9.413937519636097"><ele>564.6</ele><time>2026-04-25T16:57:49.999Z</time></trkpt><trkpt lat="44.410102481453805" lon="9.414038171920032"><ele>570.0</ele><time>2026-04-25T16:57:50.999Z</time></trkpt><trkpt lat="44.41015099427036" lon="9.414166303009152"><ele>570.0</ele><time>2026-04-25T16:57:51.999Z</time></trkpt><trkpt lat="44.410220249494145" lon="9.414275959220458"><ele>570.0</ele><time>2026-04-25T16:57:52.999Z</time></trkpt><trkpt lat="44.4103172106471" lon="9.4143452010929"><ele>570.0</ele><time>2026-04-25T16:57:53.999Z</time></trkpt><trkpt lat="44.410415835732216" lon="9.414384263808639"><ele>570.0</ele><time>2026-04-25T16:57:54.999Z</time></trkpt><trkpt lat="44.41053273489233" lon="9.414375682162584"><ele>570.0</ele><time>2026-04-25T16:57:55.999Z</time></trkpt><trkpt lat="44.41067305330955" lon="9.414324240521307"><ele>570.6666666666666</ele><time>2026-04-25T16:57:56.999Z</time></trkpt><trkpt lat="44.410823563620504" lon="9.414251642162093"><ele>571.3333333333333</ele><time>2026-04-25T16:57:57.999Z</time></trkpt><trkpt lat="44.41098371255169" lon="9.414207348997541"><ele>572.0</ele><time>2026-04-25T16:57:58.999Z</time></trkpt><trkpt lat="44.411126959142955" lon="9.414243361606387"><ele>572.0</ele><time>2026-04-25T16:57:59.999Z</time></trkpt><trkpt lat="44.41125927800672" lon="9.41420694089709"><ele>572.0</ele><time>2026-04-25T16:58:00.999Z</time></trkpt><trkpt lat="44.41136940669335" lon="9.414088582505297"><ele>572.0</ele><time>2026-04-25T16:58:01.999Z</time></trkpt><trkpt lat="44.41146522478558" lon="9.413982606716468"><ele>572.0</ele><time>2026-04-25T16:58:02.999Z</time></trkpt><trkpt lat="44.41158724325469" lon="9.41395786100509"><ele>568.5</ele><time>2026-04-25T16:58:03.999Z</time></trkpt><trkpt lat="44.411724547139286" lon="9.413949420625691"><ele>565.0</ele><time>2026-04-25T16:58:04.999Z</time></trkpt><trkpt lat="44.41184183117185" lon="9.41391309246426"><ele>561.5</ele><time>2026-04-25T16:58:05.999Z</time></trkpt><trkpt lat="44.41192892998605" lon="9.41382598796041"><ele>558.0</ele><time>2026-04-25T16:58:06.999Z</time></trkpt><trkpt lat="44.41199464606303" lon="9.413727409999536"><ele>558.0</ele><time>2026-04-25T16:58:07.999Z</time></trkpt><trkpt lat="44.41204478709508" lon="9.413587788821289"><ele>558.0</ele><time>2026-04-25T16:58:08.999Z</time></trkpt><trkpt lat="44.41209918508526" lon="9.4134338628324"><ele>558.0</ele><time>2026-04-25T16:58:09.999Z</time></trkpt><trkpt lat="44.41215524640111" lon="9.413303186539423"><ele>558.0</ele><time>2026-04-25T16:58:10.999Z</time></trkpt><trkpt lat="44.41222268205049" lon="9.413213541203826"><ele>558.0</ele><time>2026-04-25T16:58:11.999Z</time></trkpt><trkpt lat="44.41231571013416" lon="9.413194496310943"><ele>564.4</ele><time>2026-04-25T16:58:12.999Z</time></trkpt><trkpt lat="44.41240974786956" lon="9.41320202413285"><ele>570.8</ele><time>2026-04-25T16:58:13.999Z</time></trkpt><trkpt lat="44.412517535906126" lon="9.413234078767196"><ele>577.2</ele><time>2026-04-25T16:58:14.999Z</time></trkpt><trkpt lat="44.4126254946382" lon="9.413263733202085"><ele>583.6</ele><time>2026-04-25T16:58:15.999Z</time></trkpt><trkpt lat="44.412712572265555" lon="9.413296460098238"><ele>590.0</ele><time>2026-04-25T16:58:16.999Z</time></trkpt><trkpt lat="44.41279624646509" lon="9.41324854278665"><ele>590.0</ele><time>2026-04-25T16:58:17.999Z</time></trkpt><trkpt lat="44.41284730963356" lon="9.41312848552511"><ele>590.0</ele><time>2026-04-25T16:58:18.999Z</time></trkpt><trkpt lat="44.41287816055013" lon="9.412997647690053"><ele>590.0</ele><time>2026-04-25T16:58:19.999Z</time></trkpt><trkpt lat="44.41288440307823" lon="9.41282688551445"><ele>590.0</ele><time>2026-04-25T16:58:20.999Z</time></trkpt><trkpt lat="44.41288642373752" lon="9.41264196860273"><ele>592.4</ele><time>2026-04-25T16:58:21.999Z</time></trkpt><trkpt lat="44.41290660990855" lon="9.412480795594782"><ele>594.8</ele><time>2026-04-25T16:58:22.999Z</time></trkpt><trkpt lat="44.41294501053177" lon="9.412374450584629"><ele>597.2</ele><time>2026-04-25T16:58:23.999Z</time></trkpt><trkpt lat="44.413013162352826" lon="9.412322219475373"><ele>599.6</ele><time>2026-04-25T16:58:24.999Z</time></trkpt><trkpt lat="44.413099240061804" lon="9.41230716282206"><ele>602.0</ele><time>2026-04-25T16:58:25.999Z</time></trkpt><trkpt lat="44.41320210502605" lon="9.412294156920973"><ele>602.0</ele><time>2026-04-25T16:58:26.999Z</time></trkpt><trkpt lat="44.41331465189761" lon="9.412295865780347"><ele>602.0</ele><time>2026-04-25T16:58:27.999Z</time></trkpt><trkpt lat="44.41342130014047" lon="9.412270651556303"><ele>602.0</ele><time>2026-04-25T16:58:28.999Z</time></trkpt><trkpt lat="44.41351117366406" lon="9.412260101425312"><ele>602.0</ele><time>2026-04-25T16:58:29.999Z</time></trkpt><trkpt lat="44.41359990220533" lon="9.412124357873585"><ele>602.0</ele><time>2026-04-25T16:58:30.999Z</time></trkpt><trkpt lat="44.41368077840385" lon="9.412025396034657"><ele>596.8000000000001</ele><time>2026-04-25T16:58:31.999Z</time></trkpt><trkpt lat="44.413748248640545" lon="9.41193741243724"><ele>591.6</ele><time>2026-04-25T16:58:32.999Z</time></trkpt><trkpt lat="44.413795881626704" lon="9.41185433853016"><ele>586.4000000000001</ele><time>2026-04-25T16:58:33.999Z</time></trkpt><trkpt lat="44.413796027236394" lon="9.411724522561295"><ele>581.2</ele><time>2026-04-25T16:58:34.999Z</time></trkpt><trkpt lat="44.41373956346558" lon="9.41158220203826"><ele>576.0</ele><time>2026-04-25T16:58:35.999Z</time></trkpt><trkpt lat="44.41371438897585" lon="9.411433977754193"><ele>577.2</ele><time>2026-04-25T16:58:36.999Z</time></trkpt><trkpt lat="44.41377776150918" lon="9.411298183422325"><ele>578.4000000000001</ele><time>2026-04-25T16:58:37.999Z</time></trkpt><trkpt lat="44.413834258611544" lon="9.411157060469199"><ele>579.6</ele><time>2026-04-25T16:58:38.999Z</time></trkpt><trkpt lat="44.413859658520316" lon="9.411019250343365"><ele>580.8000000000001</ele><time>2026-04-25T16:58:39.999Z</time></trkpt><trkpt lat="44.41382431677194" lon="9.410872834739868"><ele>582.0</ele><time>2026-04-25T16:58:40.999Z</time></trkpt><trkpt lat="44.41373716158644" lon="9.410774707281258"><ele>582.0</ele><time>2026-04-25T16:58:41.999Z</time></trkpt><trkpt lat="44.413647728896386" lon="9.410695006053626"><ele>582.0</ele><time>2026-04-25T16:58:42.999Z</time></trkpt><trkpt lat="44.413567675334555" lon="9.410579509286745"><ele>582.0</ele><time>2026-04-25T16:58:44Z</time></trkpt><trkpt lat="44.413481641020354" lon="9.410448105909001"><ele>582.0</ele><time>2026-04-25T16:58:45Z</time></trkpt><trkpt lat="44.41341491080441" lon="9.410322606624904"><ele>583.2</ele><time>2026-04-25T16:58:46Z</time></trkpt><trkpt lat="44.413388604529054" lon="9.410218654871958"><ele>584.4000000000001</ele><time>2026-04-25T16:58:47Z</time></trkpt><trkpt lat="44.41336350126889" lon="9.410136648828635"><ele>585.5999999999999</ele><time>2026-04-25T16:58:48Z</time></trkpt><trkpt lat="44.41347022910595" lon="9.410021067235304"><ele>586.8</ele><time>2026-04-25T16:58:50Z</time></trkpt><trkpt lat="44.413531779573496" lon="9.409932549229945"><ele>588.0</ele><time>2026-04-25T16:58:51Z</time></trkpt><trkpt lat="44.41361113602056" lon="9.409855162946403"><ele>588.0</ele><time>2026-04-25T16:58:52Z</time></trkpt><trkpt lat="44.41368035399454" lon="9.409773853188312"><ele>588.0</ele><time>2026-04-25T16:58:53Z</time></trkpt><trkpt lat="44.413761188544655" lon="9.409663172329942"><ele>588.0</ele><time>2026-04-25T16:58:54Z</time></trkpt><trkpt lat="44.41384389466527" lon="9.409508004712134"><ele>588.0</ele><time>2026-04-25T16:58:55Z</time></trkpt><trkpt lat="44.413902693260845" lon="9.40933546440212"><ele>594.25</ele><time>2026-04-25T16:58:56Z</time></trkpt><trkpt lat="44.413929219564594" lon="9.409169011181758"><ele>600.5</ele><time>2026-04-25T16:58:57Z</time></trkpt><trkpt lat="44.41394551091065" lon="9.408991125129031"><ele>606.75</ele><time>2026-04-25T16:58:58Z</time></trkpt><trkpt lat="44.41396709792522" lon="9.408789516645855"><ele>613.0</ele><time>2026-04-25T16:58:59Z</time></trkpt><trkpt lat="44.41398697415137" lon="9.4085933545658"><ele>613.0</ele><time>2026-04-25T16:59:00Z</time></trkpt><trkpt lat="44.414010667158756" lon="9.408427300125842"><ele>613.0</ele><time>2026-04-25T16:59:01Z</time></trkpt><trkpt lat="44.4140338628335" lon="9.40829170078968"><ele>613.0</ele><time>2026-04-25T16:59:02Z</time></trkpt><trkpt lat="44.41405745463559" lon="9.408192910753497"><ele>613.0</ele><time>2026-04-25T16:59:03Z</time></trkpt><trkpt lat="44.41410889751247" lon="9.40813855468311"><ele>613.0</ele><time>2026-04-25T16:59:04Z</time></trkpt><trkpt lat="44.41417969887425" lon="9.408125309264747"><ele>613.0</ele><time>2026-04-25T16:59:05Z</time></trkpt><trkpt lat="44.414269285471946" lon="9.408157527237789"><ele>613.0</ele><time>2026-04-25T16:59:06Z</time></trkpt><trkpt lat="44.41438275305694" lon="9.408211418347353"><ele>613.0</ele><time>2026-04-25T16:59:07Z</time></trkpt><trkpt lat="44.41452259540989" lon="9.408274107842269"><ele>613.0</ele><time>2026-04-25T16:59:08Z</time></trkpt><trkpt lat="44.41466716379878" lon="9.4083237640214"><ele>613.0</ele><time>2026-04-25T16:59:09Z</time></trkpt><trkpt lat="44.41480861933973" lon="9.408342578248204"><ele>617.6666666666667</ele><time>2026-04-25T16:59:10Z</time></trkpt><trkpt lat="44.414946722201435" lon="9.408325148765867"><ele>622.3333333333334</ele><time>2026-04-25T16:59:11Z</time></trkpt><trkpt lat="44.41508253575906" lon="9.40824846148722"><ele>627.0</ele><time>2026-04-25T16:59:12Z</time></trkpt><trkpt lat="44.4152227718719" lon="9.408124588816678"><ele>620.5</ele><time>2026-04-25T16:59:13Z</time></trkpt><trkpt lat="44.41535606161532" lon="9.40796567858868"><ele>614.0</ele><time>2026-04-25T16:59:14Z</time></trkpt><trkpt lat="44.4154566375922" lon="9.407823300073165"><ele>607.5</ele><time>2026-04-25T16:59:15Z</time></trkpt><trkpt lat="44.41553527560779" lon="9.40773607031653"><ele>601.0</ele><time>2026-04-25T16:59:16Z</time></trkpt><trkpt lat="44.41561243161891" lon="9.407719809426183"><ele>601.0</ele><time>2026-04-25T16:59:17Z</time></trkpt><trkpt lat="44.415684439799854" lon="9.407778765127823"><ele>601.0</ele><time>2026-04-25T16:59:18Z</time></trkpt><trkpt lat="44.41572667041663" lon="9.407880516729804"><ele>601.0</ele><time>2026-04-25T16:59:19Z</time></trkpt><trkpt lat="44.415722660703715" lon="9.408007929306759"><ele>601.0</ele><time>2026-04-25T16:59:20Z</time></trkpt><trkpt lat="44.415666488844124" lon="9.408113001140892"><ele>601.0</ele><time>2026-04-25T16:59:21Z</time></trkpt><trkpt lat="44.41558702224256" lon="9.408159541569793"><ele>601.0</ele><time>2026-04-25T16:59:22Z</time></trkpt><trkpt lat="44.41548205632296" lon="9.408168933601672"><ele>607.5</ele><time>2026-04-25T16:59:23Z</time></trkpt><trkpt lat="44.41535191954434" lon="9.40819834592583"><ele>614.0</ele><time>2026-04-25T16:59:24Z</time></trkpt><trkpt lat="44.41522389394291" lon="9.408303961261868"><ele>620.5</ele><time>2026-04-25T16:59:25Z</time></trkpt><trkpt lat="44.41511162966899" lon="9.408429251855564"><ele>627.0</ele><time>2026-04-25T16:59:26Z</time></trkpt><trkpt lat="44.414986701278075" lon="9.408555020579993"><ele>627.0</ele><time>2026-04-25T16:59:27Z</time></trkpt><trkpt lat="44.41484107532597" lon="9.40861606042769"><ele>627.0</ele><time>2026-04-25T16:59:28Z</time></trkpt><trkpt lat="44.41469122110582" lon="9.408643066820348"><ele>627.0</ele><time>2026-04-25T16:59:29Z</time></trkpt><trkpt lat="44.41454790762514" lon="9.40867194696618"><ele>627.0</ele><time>2026-04-25T16:59:30Z</time></trkpt><trkpt lat="44.414438732348025" lon="9.408688299009741"><ele>627.4</ele><time>2026-04-25T16:59:31Z</time></trkpt><trkpt lat="44.414358380284746" lon="9.408732382710541"><ele>627.8000000000001</ele><time>2026-04-25T16:59:32Z</time></trkpt><trkpt lat="44.414304783610234" lon="9.408812118294376"><ele>628.2</ele><time>2026-04-25T16:59:33Z</time></trkpt><trkpt lat="44.41427723857152" lon="9.408920226633661"><ele>628.6</ele><time>2026-04-25T16:59:34Z</time></trkpt><trkpt lat="44.4142536634685" lon="9.409065261951774"><ele>629.0</ele><time>2026-04-25T16:59:35Z</time></trkpt><trkpt lat="44.414226805998624" lon="9.40924011227028"><ele>629.0</ele><time>2026-04-25T16:59:36Z</time></trkpt><trkpt lat="44.41417611265246" lon="9.409420755325856"><ele>629.0</ele><time>2026-04-25T16:59:37Z</time></trkpt><trkpt lat="44.41414554440211" lon="9.409614768061536"><ele>629.0</ele><time>2026-04-25T16:59:38Z</time></trkpt><trkpt lat="44.41409161682024" lon="9.409785193521694"><ele>629.0</ele><time>2026-04-25T16:59:39Z</time></trkpt><trkpt lat="44.414056699510205" lon="9.409927044281888"><ele>630.3333333333333</ele><time>2026-04-25T16:59:40Z</time></trkpt><trkpt lat="44.4140384438481" lon="9.410048292664596"><ele>631.6666666666666</ele><time>2026-04-25T16:59:41Z</time></trkpt><trkpt lat="44.41404546088585" lon="9.410149772000253"><ele>633.0</ele><time>2026-04-25T16:59:42Z</time></trkpt><trkpt lat="44.41407924577328" lon="9.410233715967165"><ele>634.3333333333334</ele><time>2026-04-25T16:59:43Z</time></trkpt><trkpt lat="44.41414336138819" lon="9.41030340131372"><ele>635.6666666666667</ele><time>2026-04-25T16:59:44Z</time></trkpt><trkpt lat="44.41423333845175" lon="9.41038242587431"><ele>637.0</ele><time>2026-04-25T16:59:45Z</time></trkpt><trkpt lat="44.41432428628407" lon="9.410488331117026"><ele>636.5</ele><time>2026-04-25T16:59:46Z</time></trkpt><trkpt lat="44.41439617062344" lon="9.410634187076148"><ele>636.0</ele><time>2026-04-25T16:59:47Z</time></trkpt><trkpt lat="44.41441945638954" lon="9.41083821685221"><ele>635.5</ele><time>2026-04-25T16:59:48Z</time></trkpt><trkpt lat="44.41445692156326" lon="9.411059804910119"><ele>635.0</ele><time>2026-04-25T16:59:49Z</time></trkpt><trkpt lat="44.41445822806648" lon="9.411298889253565"><ele>632.0</ele><time>2026-04-25T16:59:50Z</time></trkpt><trkpt lat="44.41445451299529" lon="9.411550314547911"><ele>629.0</ele><time>2026-04-25T16:59:51Z</time></trkpt><trkpt lat="44.414482946895205" lon="9.411775878278316"><ele>626.0</ele><time>2026-04-25T16:59:52Z</time></trkpt><trkpt lat="44.41446136074288" lon="9.41197664556347"><ele>631.0</ele><time>2026-04-25T16:59:53Z</time></trkpt><trkpt lat="44.41443213372937" lon="9.412164326063282"><ele>636.0</ele><time>2026-04-25T16:59:54Z</time></trkpt><trkpt lat="44.414385606488715" lon="9.412333377456402"><ele>641.0</ele><time>2026-04-25T16:59:55Z</time></trkpt><trkpt lat="44.41431992461513" lon="9.412507734509887"><ele>646.0</ele><time>2026-04-25T16:59:56Z</time></trkpt><trkpt lat="44.41423124259594" lon="9.412690733085352"><ele>646.0</ele><time>2026-04-25T16:59:57Z</time></trkpt><trkpt lat="44.414125946989074" lon="9.412873783503446"><ele>646.0</ele><time>2026-04-25T16:59:58Z</time></trkpt><trkpt lat="44.41403248535909" lon="9.413070823301009"><ele>646.0</ele><time>2026-04-25T16:59:59Z</time></trkpt><trkpt lat="44.41393534879909" lon="9.41323668399681"><ele>648.75</ele><time>2026-04-25T17:00:00Z</time></trkpt><trkpt lat="44.41383618548298" lon="9.41336248405533"><ele>651.5</ele><time>2026-04-25T17:00:01Z</time></trkpt><trkpt lat="44.41376582708306" lon="9.413495149141047"><ele>654.25</ele><time>2026-04-25T17:00:02Z</time></trkpt><trkpt lat="44.4137273386874" lon="9.413680157422952"><ele>657.0</ele><time>2026-04-25T17:00:03Z</time></trkpt><trkpt lat="44.413684470509" lon="9.41387923414715"><ele>657.0</ele><time>2026-04-25T17:00:04Z</time></trkpt><trkpt lat="44.41360381025953" lon="9.414075675655107"><ele>657.0</ele><time>2026-04-25T17:00:05Z</time></trkpt><trkpt lat="44.41352721468917" lon="9.414265715233132"><ele>657.0</ele><time>2026-04-25T17:00:06Z</time></trkpt><trkpt lat="44.4134571386859" lon="9.414419402243034"><ele>657.0</ele><time>2026-04-25T17:00:07Z</time></trkpt><trkpt lat="44.41337799866075" lon="9.414540649885554"><ele>657.0</ele><time>2026-04-25T17:00:08Z</time></trkpt><trkpt lat="44.41327244940072" lon="9.41461875072558"><ele>657.0</ele><time>2026-04-25T17:00:09Z</time></trkpt><trkpt lat="44.413145962308846" lon="9.414715425622838"><ele>657.0</ele><time>2026-04-25T17:00:10Z</time></trkpt><trkpt lat="44.413040411428575" lon="9.41483553839846"><ele>657.0</ele><time>2026-04-25T17:00:11Z</time></trkpt><trkpt lat="44.412963511926705" lon="9.41496112968698"><ele>654.75</ele><time>2026-04-25T17:00:12Z</time></trkpt><trkpt lat="44.41291622021941" lon="9.415113870898642"><ele>652.5</ele><time>2026-04-25T17:00:13Z</time></trkpt><trkpt lat="44.41288254395228" lon="9.415301188594311"><ele>650.25</ele><time>2026-04-25T17:00:14Z</time></trkpt><trkpt lat="44.41282326172271" lon="9.415496684817567"><ele>648.0</ele><time>2026-04-25T17:00:15Z</time></trkpt><trkpt lat="44.41277453425206" lon="9.415704078579001"><ele>654.25</ele><time>2026-04-25T17:00:16Z</time></trkpt><trkpt lat="44.41272349599416" lon="9.41588119965809"><ele>660.5</ele><time>2026-04-25T17:00:17Z</time></trkpt><trkpt lat="44.41266556070404" lon="9.416028969883984"><ele>666.75</ele><time>2026-04-25T17:00:18Z</time></trkpt><trkpt lat="44.41257687642542" lon="9.416135824350201"><ele>673.0</ele><time>2026-04-25T17:00:19Z</time></trkpt><trkpt lat="44.412460299611276" lon="9.416202638850251"><ele>673.0</ele><time>2026-04-25T17:00:20Z</time></trkpt><trkpt lat="44.41232270442307" lon="9.416290534503696"><ele>673.0</ele><time>2026-04-25T17:00:21Z</time></trkpt><trkpt lat="44.41217525056052" lon="9.416391177127297"><ele>673.0</ele><time>2026-04-25T17:00:21.999Z</time></trkpt><trkpt lat="44.41201399400658" lon="9.416511677099015"><ele>679.6666666666667</ele><time>2026-04-25T17:00:22.999Z</time></trkpt><trkpt lat="44.41188435102161" lon="9.416632141777294"><ele>686.3333333333334</ele><time>2026-04-25T17:00:23.999Z</time></trkpt><trkpt lat="44.411726408049965" lon="9.416677870478487"><ele>693.0</ele><time>2026-04-25T17:00:24.999Z</time></trkpt><trkpt lat="44.411566123255504" lon="9.416732954995785"><ele>693.0</ele><time>2026-04-25T17:00:25.999Z</time></trkpt><trkpt lat="44.411401792103966" lon="9.416758956108998"><ele>693.0</ele><time>2026-04-25T17:00:26.999Z</time></trkpt><trkpt lat="44.411261825792295" lon="9.416793404916037"><ele>693.0</ele><time>2026-04-25T17:00:27.999Z</time></trkpt><trkpt lat="44.41114006166838" lon="9.416830393494637"><ele>693.0</ele><time>2026-04-25T17:00:28.999Z</time></trkpt><trkpt lat="44.41104127261886" lon="9.416849187411822"><ele>692.0</ele><time>2026-04-25T17:00:29.999Z</time></trkpt><trkpt lat="44.410963415996314" lon="9.416917968382359"><ele>691.0</ele><time>2026-04-25T17:00:30.999Z</time></trkpt><trkpt lat="44.41090421948279" lon="9.417019058269592"><ele>690.0</ele><time>2026-04-25T17:00:31.999Z</time></trkpt><trkpt lat="44.41087402022751" lon="9.41716858330206"><ele>689.0</ele><time>2026-04-25T17:00:32.999Z</time></trkpt><trkpt lat="44.41087784435303" lon="9.417342151166276"><ele>688.0</ele><time>2026-04-25T17:00:33.999Z</time></trkpt><trkpt lat="44.41089149531014" lon="9.417533102489209"><ele>688.0</ele><time>2026-04-25T17:00:34.999Z</time></trkpt><trkpt lat="44.41090874858995" lon="9.41775075134074"><ele>688.0</ele><time>2026-04-25T17:00:35.999Z</time></trkpt><trkpt lat="44.41092146662027" lon="9.417964747289584"><ele>688.0</ele><time>2026-04-25T17:00:36.999Z</time></trkpt><trkpt lat="44.410923153200464" lon="9.418080587730836"><ele>688.0</ele><time>2026-04-25T17:00:37.999Z</time></trkpt><trkpt lat="44.41089079404176" lon="9.41822000912954"><ele>692.8</ele><time>2026-04-25T17:00:38.999Z</time></trkpt><trkpt lat="44.410842027088414" lon="9.418326729035632"><ele>697.5999999999999</ele><time>2026-04-25T17:00:39.999Z</time></trkpt><trkpt lat="44.41075811284818" lon="9.418390015632875"><ele>702.4000000000001</ele><time>2026-04-25T17:00:40.999Z</time></trkpt><trkpt lat="44.410652775758855" lon="9.418449317183684"><ele>707.2</ele><time>2026-04-25T17:00:41.999Z</time></trkpt><trkpt lat="44.41052975047733" lon="9.418510607302302"><ele>712.0</ele><time>2026-04-25T17:00:42.999Z</time></trkpt><trkpt lat="44.410439224450755" lon="9.41859226633305"><ele>704.8</ele><time>2026-04-25T17:00:43.999Z</time></trkpt><trkpt lat="44.41038463090983" lon="9.418710836053418"><ele>697.6</ele><time>2026-04-25T17:00:44.999Z</time></trkpt><trkpt lat="44.410378435515725" lon="9.41885462778337"><ele>690.4</ele><time>2026-04-25T17:00:45.999Z</time></trkpt><trkpt lat="44.410393409385925" lon="9.419015053389456"><ele>683.1999999999999</ele><time>2026-04-25T17:00:46.999Z</time></trkpt><trkpt lat="44.410421588647694" lon="9.419192120174703"><ele>676.0</ele><time>2026-04-25T17:00:47.999Z</time></trkpt><trkpt lat="44.410442634424356" lon="9.41938493790424"><ele>676.0</ele><time>2026-04-25T17:00:48.999Z</time></trkpt><trkpt lat="44.410462327448" lon="9.419604326203114"><ele>676.0</ele><time>2026-04-25T17:00:50.001Z</time></trkpt><trkpt lat="44.41047729295233" lon="9.419804374053376"><ele>676.0</ele><time>2026-04-25T17:00:51.001Z</time></trkpt><trkpt lat="44.41046883547484" lon="9.419985320299444"><ele>676.0</ele><time>2026-04-25T17:00:52Z</time></trkpt><trkpt lat="44.410371668563606" lon="9.420104066913067"><ele>678.5</ele><time>2026-04-25T17:00:53Z</time></trkpt><trkpt lat="44.41030307231947" lon="9.420279304224438"><ele>681.0</ele><time>2026-04-25T17:00:54.001Z</time></trkpt><trkpt lat="44.410240394175034" lon="9.420475227245225"><ele>683.5</ele><time>2026-04-25T17:00:55Z</time></trkpt><trkpt lat="44.41019002848637" lon="9.420674687752264"><ele>686.0</ele><time>2026-04-25T17:00:56Z</time></trkpt><trkpt lat="44.41018635196301" lon="9.420894283689947"><ele>690.25</ele><time>2026-04-25T17:00:57Z</time></trkpt><trkpt lat="44.41017423062184" lon="9.421088872101715"><ele>694.5</ele><time>2026-04-25T17:00:58Z</time></trkpt><trkpt lat="44.41011121814199" lon="9.421225649816309"><ele>698.75</ele><time>2026-04-25T17:00:59Z</time></trkpt><trkpt lat="44.410037936656686" lon="9.421343141321183"><ele>703.0</ele><time>2026-04-25T17:01:00Z</time></trkpt><trkpt lat="44.40997842112716" lon="9.421475561862623"><ele>704.5999999999999</ele><time>2026-04-25T17:01:01Z</time></trkpt><trkpt lat="44.40994840454518" lon="9.42158895470337"><ele>706.1999999999999</ele><time>2026-04-25T17:01:02Z</time></trkpt><trkpt lat="44.40998329620413" lon="9.421694130805202"><ele>707.8</ele><time>2026-04-25T17:01:03Z</time></trkpt><trkpt lat="44.41003371830988" lon="9.421779465455574"><ele>709.4</ele><time>2026-04-25T17:01:04Z</time></trkpt><trkpt lat="44.41011365499581" lon="9.421861106240021"><ele>711.0</ele><time>2026-04-25T17:01:05Z</time></trkpt><trkpt lat="44.41020758104243" lon="9.421945142848624"><ele>711.0</ele><time>2026-04-25T17:01:06Z</time></trkpt><trkpt lat="44.41026140054075" lon="9.422043112126776"><ele>711.0</ele><time>2026-04-25T17:01:07Z</time></trkpt><trkpt lat="44.410211845560994" lon="9.422181418526698"><ele>711.0</ele><time>2026-04-25T17:01:08Z</time></trkpt><trkpt lat="44.41021758100862" lon="9.422332822819204"><ele>711.0</ele><time>2026-04-25T17:01:09Z</time></trkpt><trkpt lat="44.4102243848776" lon="9.422474155052166"><ele>711.0</ele><time>2026-04-25T17:01:10Z</time></trkpt><trkpt lat="44.41026029578105" lon="9.42258881505011"><ele>709.5999999999999</ele><time>2026-04-25T17:01:11Z</time></trkpt><trkpt lat="44.410312560349176" lon="9.422686841559592"><ele>708.2</ele><time>2026-04-25T17:01:12Z</time></trkpt><trkpt lat="44.410439887714645" lon="9.422717986751143"><ele>706.8</ele><time>2026-04-25T17:01:13Z</time></trkpt><trkpt lat="44.410534939757575" lon="9.422801891247309"><ele>705.4000000000001</ele><time>2026-04-25T17:01:14Z</time></trkpt><trkpt lat="44.410581228474484" lon="9.42289576671584"><ele>704.0</ele><time>2026-04-25T17:01:15Z</time></trkpt><trkpt lat="44.41059563044259" lon="9.423003877502422"><ele>710.8333333333333</ele><time>2026-04-25T17:01:16Z</time></trkpt><trkpt lat="44.41055916203722" lon="9.423126850230489"><ele>717.6666666666666</ele><time>2026-04-25T17:01:17Z</time></trkpt><trkpt lat="44.41054958330681" lon="9.423248846422293"><ele>724.5</ele><time>2026-04-25T17:01:18Z</time></trkpt><trkpt lat="44.410579302301706" lon="9.42335256959309"><ele>731.3333333333334</ele><time>2026-04-25T17:01:19Z</time></trkpt><trkpt lat="44.410630630881336" lon="9.423422127596645"><ele>738.1666666666667</ele><time>2026-04-25T17:01:20Z</time></trkpt><trkpt lat="44.41070862032138" lon="9.423446586032432"><ele>745.0</ele><time>2026-04-25T17:01:21Z</time></trkpt><trkpt lat="44.410793380680346" lon="9.42342337991959"><ele>745.0</ele><time>2026-04-25T17:01:22Z</time></trkpt><trkpt lat="44.41085135857171" lon="9.423353726396584"><ele>745.0</ele><time>2026-04-25T17:01:23Z</time></trkpt><trkpt lat="44.410883324297416" lon="9.42325037608182"><ele>745.0</ele><time>2026-04-25T17:01:24Z</time></trkpt><trkpt lat="44.41087235180472" lon="9.423121085593166"><ele>745.0</ele><time>2026-04-25T17:01:25Z</time></trkpt><trkpt lat="44.41081600863272" lon="9.423011376236515"><ele>745.0</ele><time>2026-04-25T17:01:26Z</time></trkpt><trkpt lat="44.41074644941621" lon="9.422868893361358"><ele>746.25</ele><time>2026-04-25T17:01:27Z</time></trkpt><trkpt lat="44.41065262981125" lon="9.422731833307173"><ele>747.5</ele><time>2026-04-25T17:01:28Z</time></trkpt><trkpt lat="44.410554846609664" lon="9.42258813562815"><ele>748.75</ele><time>2026-04-25T17:01:29Z</time></trkpt><trkpt lat="44.4104659302912" lon="9.422471735648154"><ele>750.0</ele><time>2026-04-25T17:01:30Z</time></trkpt><trkpt lat="44.41040829653234" lon="9.422357490931722"><ele>742.2</ele><time>2026-04-25T17:01:31Z</time></trkpt><trkpt lat="44.41039212594582" lon="9.422254700987853"><ele>734.4</ele><time>2026-04-25T17:01:32Z</time></trkpt><trkpt lat="44.41041970730707" lon="9.42212483786571"><ele>726.5999999999999</ele><time>2026-04-25T17:01:33Z</time></trkpt><trkpt lat="44.41043488074545" lon="9.421951449495456"><ele>718.8</ele><time>2026-04-25T17:01:34Z</time></trkpt><trkpt lat="44.410422042093046" lon="9.421766862852978"><ele>711.0</ele><time>2026-04-25T17:01:35Z</time></trkpt><trkpt lat="44.41037666918988" lon="9.421617809051803"><ele>711.0</ele><time>2026-04-25T17:01:36Z</time></trkpt><trkpt lat="44.41036988204181" lon="9.421493873862978"><ele>711.0</ele><time>2026-04-25T17:01:37Z</time></trkpt><trkpt lat="44.41041043835147" lon="9.421377941468029"><ele>711.0</ele><time>2026-04-25T17:01:38Z</time></trkpt><trkpt lat="44.41047902662088" lon="9.421219842411952"><ele>711.0</ele><time>2026-04-25T17:01:39Z</time></trkpt><trkpt lat="44.410536452458125" lon="9.421023146539504"><ele>720.3333333333334</ele><time>2026-04-25T17:01:40Z</time></trkpt><trkpt lat="44.410607067332386" lon="9.420802394784593"><ele>729.6666666666667</ele><time>2026-04-25T17:01:41Z</time></trkpt><trkpt lat="44.41067423808348" lon="9.420553780934826"><ele>739.0</ele><time>2026-04-25T17:01:42Z</time></trkpt><trkpt lat="44.41075363664853" lon="9.420328701849263"><ele>739.0</ele><time>2026-04-25T17:01:43Z</time></trkpt><trkpt lat="44.410850154083725" lon="9.420132969838999"><ele>739.0</ele><time>2026-04-25T17:01:44Z</time></trkpt><trkpt lat="44.41093402368887" lon="9.419944018335485"><ele>739.0</ele><time>2026-04-25T17:01:45Z</time></trkpt><trkpt lat="44.41098814057348" lon="9.419729566122166"><ele>736.0</ele><time>2026-04-25T17:01:46Z</time></trkpt><trkpt lat="44.41101708639503" lon="9.419540453748526"><ele>733.0</ele><time>2026-04-25T17:01:47Z</time></trkpt><trkpt lat="44.41104347790414" lon="9.419385787465144"><ele>730.0</ele><time>2026-04-25T17:01:48Z</time></trkpt><trkpt lat="44.411113742496845" lon="9.419234719944996"><ele>727.0</ele><time>2026-04-25T17:01:49Z</time></trkpt><trkpt lat="44.41122388585568" lon="9.419086345564475"><ele>733.5</ele><time>2026-04-25T17:01:50Z</time></trkpt><trkpt lat="44.41135324277643" lon="9.418951594978013"><ele>740.0</ele><time>2026-04-25T17:01:51Z</time></trkpt><trkpt lat="44.4114654392036" lon="9.418841633645942"><ele>746.5</ele><time>2026-04-25T17:01:52Z</time></trkpt><trkpt lat="44.41154927520763" lon="9.418689789102448"><ele>753.0</ele><time>2026-04-25T17:01:53Z</time></trkpt><trkpt lat="44.41161308967704" lon="9.41848775210155"><ele>753.0</ele><time>2026-04-25T17:01:54Z</time></trkpt><trkpt lat="44.41167419685452" lon="9.418302350332967"><ele>753.0</ele><time>2026-04-25T17:01:55Z</time></trkpt><trkpt lat="44.411746194272034" lon="9.41816918784649"><ele>753.0</ele><time>2026-04-25T17:01:56Z</time></trkpt><trkpt lat="44.411840011155135" lon="9.41809662964312"><ele>753.0</ele><time>2026-04-25T17:01:57Z</time></trkpt><trkpt lat="44.41195773626383" lon="9.418070422558666"><ele>753.0</ele><time>2026-04-25T17:01:58Z</time></trkpt><trkpt lat="44.41209936183007" lon="9.418056987072772"><ele>753.0</ele><time>2026-04-25T17:01:59Z</time></trkpt><trkpt lat="44.41225772756351" lon="9.418007897693787"><ele>753.0</ele><time>2026-04-25T17:02:00Z</time></trkpt><trkpt lat="44.412425942890145" lon="9.417947283173978"><ele>749.25</ele><time>2026-04-25T17:02:01Z</time></trkpt><trkpt lat="44.41257726957051" lon="9.417900994075598"><ele>745.5</ele><time>2026-04-25T17:02:02Z</time></trkpt><trkpt lat="44.412701643608195" lon="9.417870353859335"><ele>741.75</ele><time>2026-04-25T17:02:03Z</time></trkpt><trkpt lat="44.41280185699213" lon="9.417866476534764"><ele>738.0</ele><time>2026-04-25T17:02:04Z</time></trkpt><trkpt lat="44.412887210878196" lon="9.41790519700643"><ele>742.5</ele><time>2026-04-25T17:02:05Z</time></trkpt><trkpt lat="44.41294017307252" lon="9.41799768314488"><ele>747.0</ele><time>2026-04-25T17:02:06Z</time></trkpt><trkpt lat="44.412948276600844" lon="9.418127381474006"><ele>751.5</ele><time>2026-04-25T17:02:07Z</time></trkpt><trkpt lat="44.41291995296009" lon="9.418253353002894"><ele>756.0</ele><time>2026-04-25T17:02:08Z</time></trkpt><trkpt lat="44.41285181169705" lon="9.418314226024764"><ele>760.5</ele><time>2026-04-25T17:02:09Z</time></trkpt><trkpt lat="44.41277821474218" lon="9.418324655595207"><ele>765.0</ele><time>2026-04-25T17:02:10Z</time></trkpt><trkpt lat="44.412701934711464" lon="9.418317887736212"><ele>765.0</ele><time>2026-04-25T17:02:11Z</time></trkpt><trkpt lat="44.41265219855187" lon="9.418253645414246"><ele>765.0</ele><time>2026-04-25T17:02:11.999Z</time></trkpt><trkpt lat="44.412592370512925" lon="9.418173041197862"><ele>765.0</ele><time>2026-04-25T17:02:12.999Z</time></trkpt><trkpt lat="44.4125244634426" lon="9.418089329240367"><ele>765.0</ele><time>2026-04-25T17:02:13.999Z</time></trkpt><trkpt lat="44.412438901241" lon="9.418034397406641"><ele>765.0</ele><time>2026-04-25T17:02:14.999Z</time></trkpt><trkpt lat="44.41232679923205" lon="9.41809131845164"><ele>765.0</ele><time>2026-04-25T17:02:15.999Z</time></trkpt><trkpt lat="44.41220962240056" lon="9.418117165378387"><ele>765.0</ele><time>2026-04-25T17:02:16.999Z</time></trkpt><trkpt lat="44.41210898150072" lon="9.418220204408058"><ele>765.0</ele><time>2026-04-25T17:02:17.999Z</time></trkpt><trkpt lat="44.41202302838568" lon="9.418303797900792"><ele>765.0</ele><time>2026-04-25T17:02:18.999Z</time></trkpt><trkpt lat="44.41195590171342" lon="9.418469412530635"><ele>767.6666666666667</ele><time>2026-04-25T17:02:19.999Z</time></trkpt><trkpt lat="44.41188531212634" lon="9.418646362981125"><ele>770.3333333333334</ele><time>2026-04-25T17:02:20.999Z</time></trkpt><trkpt lat="44.41183894263212" lon="9.41884479734456"><ele>773.0</ele><time>2026-04-25T17:02:21.999Z</time></trkpt><trkpt lat="44.41178787404262" lon="9.419069187045434"><ele>773.0</ele><time>2026-04-25T17:02:22.999Z</time></trkpt><trkpt lat="44.41175398803155" lon="9.419297803184175"><ele>773.0</ele><time>2026-04-25T17:02:23.999Z</time></trkpt><trkpt lat="44.4117197052332" lon="9.419516078256136"><ele>773.0</ele><time>2026-04-25T17:02:24.999Z</time></trkpt><trkpt lat="44.41165663541968" lon="9.41973562065221"><ele>777.6666666666667</ele><time>2026-04-25T17:02:25.999Z</time></trkpt><trkpt lat="44.41156858657337" lon="9.41996744658791"><ele>782.3333333333333</ele><time>2026-04-25T17:02:26.999Z</time></trkpt><trkpt lat="44.41148062874509" lon="9.420194348370739"><ele>787.0</ele><time>2026-04-25T17:02:27.999Z</time></trkpt><trkpt lat="44.411407703264075" lon="9.420392935044873"><ele>791.0</ele><time>2026-04-25T17:02:28.999Z</time></trkpt><trkpt lat="44.41135786848951" lon="9.420586472510916"><ele>795.0</ele><time>2026-04-25T17:02:29.999Z</time></trkpt><trkpt lat="44.41134037950932" lon="9.420808070773361"><ele>799.0</ele><time>2026-04-25T17:02:30.999Z</time></trkpt><trkpt lat="44.41132118300589" lon="9.421042426530526"><ele>799.5</ele><time>2026-04-25T17:02:31.999Z</time></trkpt><trkpt lat="44.41128832660162" lon="9.421272286609032"><ele>800.0</ele><time>2026-04-25T17:02:32.999Z</time></trkpt><trkpt lat="44.411309516094136" lon="9.421476122189894"><ele>800.5</ele><time>2026-04-25T17:02:33.999Z</time></trkpt><trkpt lat="44.411330565169" lon="9.421661303017657"><ele>801.0</ele><time>2026-04-25T17:02:34.999Z</time></trkpt><trkpt lat="44.41133958060999" lon="9.421835718488804"><ele>801.0</ele><time>2026-04-25T17:02:35.999Z</time></trkpt><trkpt lat="44.41137326335473" lon="9.421982469201204"><ele>801.0</ele><time>2026-04-25T17:02:36.999Z</time></trkpt><trkpt lat="44.41145462729809" lon="9.422094546380192"><ele>801.0</ele><time>2026-04-25T17:02:37.999Z</time></trkpt><trkpt lat="44.4115479845646" lon="9.422191953266188"><ele>801.0</ele><time>2026-04-25T17:02:38.999Z</time></trkpt><trkpt lat="44.41163506801378" lon="9.422286198581864"><ele>800.25</ele><time>2026-04-25T17:02:39.999Z</time></trkpt><trkpt lat="44.41162058994609" lon="9.422428752640181"><ele>799.5</ele><time>2026-04-25T17:02:40.999Z</time></trkpt><trkpt lat="44.411620657719986" lon="9.42258561622616"><ele>798.75</ele><time>2026-04-25T17:02:41.999Z</time></trkpt><trkpt lat="44.411629746083854" lon="9.422772711912792"><ele>798.0</ele><time>2026-04-25T17:02:42.999Z</time></trkpt><trkpt lat="44.411673505980396" lon="9.422962468207274"><ele>798.5</ele><time>2026-04-25T17:02:43.999Z</time></trkpt><trkpt lat="44.411739545720906" lon="9.423147583611614"><ele>799.0</ele><time>2026-04-25T17:02:44.999Z</time></trkpt><trkpt lat="44.41177801615332" lon="9.423320129040686"><ele>799.5</ele><time>2026-04-25T17:02:45.999Z</time></trkpt><trkpt lat="44.41179102442641" lon="9.42349048324177"><ele>800.0</ele><time>2026-04-25T17:02:46.999Z</time></trkpt><trkpt lat="44.41174547701011" lon="9.423658725067197"><ele>803.0</ele><time>2026-04-25T17:02:47.999Z</time></trkpt><trkpt lat="44.411695363870386" lon="9.423852011770734"><ele>806.0</ele><time>2026-04-25T17:02:48.999Z</time></trkpt><trkpt lat="44.411640881341356" lon="9.424039707592193"><ele>809.0</ele><time>2026-04-25T17:02:49.999Z</time></trkpt><trkpt lat="44.41156872269836" lon="9.424220822976002"><ele>812.0</ele><time>2026-04-25T17:02:50.999Z</time></trkpt><trkpt lat="44.41146964972759" lon="9.424392151891103"><ele>812.0</ele><time>2026-04-25T17:02:51.999Z</time></trkpt><trkpt lat="44.411358996371185" lon="9.424531663915007"><ele>812.0</ele><time>2026-04-25T17:02:52.999Z</time></trkpt><trkpt lat="44.411260702360934" lon="9.424652728964732"><ele>812.0</ele><time>2026-04-25T17:02:53.999Z</time></trkpt><trkpt lat="44.41118622808381" lon="9.424771340754692"><ele>812.0</ele><time>2026-04-25T17:02:54.999Z</time></trkpt><trkpt lat="44.411120683956646" lon="9.424879414580595"><ele>807.25</ele><time>2026-04-25T17:02:56Z</time></trkpt><trkpt lat="44.411081231728424" lon="9.42501615410065"><ele>802.5</ele><time>2026-04-25T17:02:57Z</time></trkpt><trkpt lat="44.4110683547932" lon="9.425187369867695"><ele>797.75</ele><time>2026-04-25T17:02:58Z</time></trkpt><trkpt lat="44.411076937248055" lon="9.425360786224283"><ele>793.0</ele><time>2026-04-25T17:02:59Z</time></trkpt><trkpt lat="44.411102343347196" lon="9.425508138306093"><ele>793.0</ele><time>2026-04-25T17:03:00Z</time></trkpt><trkpt lat="44.41114727002385" lon="9.425633469685142"><ele>793.0</ele><time>2026-04-25T17:03:01Z</time></trkpt><trkpt lat="44.41122784462136" lon="9.425739539051847"><ele>793.0</ele><time>2026-04-25T17:03:02Z</time></trkpt><trkpt lat="44.411342743264214" lon="9.425844101656267"><ele>793.0</ele><time>2026-04-25T17:03:03Z</time></trkpt><trkpt lat="44.41146647980133" lon="9.425917191813353"><ele>798.8</ele><time>2026-04-25T17:03:04Z</time></trkpt><trkpt lat="44.41156204324688" lon="9.425957548339676"><ele>804.5999999999999</ele><time>2026-04-25T17:03:05Z</time></trkpt><trkpt lat="44.41161044697368" lon="9.42605704460941"><ele>810.4000000000001</ele><time>2026-04-25T17:03:06Z</time></trkpt><trkpt lat="44.41161582987292" lon="9.426183585476092"><ele>816.2</ele><time>2026-04-25T17:03:07Z</time></trkpt><trkpt lat="44.4116129202865" lon="9.426332565143493"><ele>822.0</ele><time>2026-04-25T17:03:08Z</time></trkpt><trkpt lat="44.411620809113096" lon="9.42650851398034"><ele>822.0</ele><time>2026-04-25T17:03:09Z</time></trkpt><trkpt lat="44.41160384732609" lon="9.426669253387393"><ele>822.0</ele><time>2026-04-25T17:03:10Z</time></trkpt><trkpt lat="44.411607067586935" lon="9.426789844091266"><ele>822.0</ele><time>2026-04-25T17:03:11Z</time></trkpt><trkpt lat="44.41164628705103" lon="9.426870159460796"><ele>822.0</ele><time>2026-04-25T17:03:12Z</time></trkpt><trkpt lat="44.41171206973803" lon="9.426912308259755"><ele>822.0</ele><time>2026-04-25T17:03:13Z</time></trkpt><trkpt lat="44.41179268764987" lon="9.42690567856964"><ele>822.0</ele><time>2026-04-25T17:03:14Z</time></trkpt><trkpt lat="44.41186369905378" lon="9.426860382496695"><ele>822.0</ele><time>2026-04-25T17:03:15Z</time></trkpt><trkpt lat="44.41191249974279" lon="9.426780443341602"><ele>822.0</ele><time>2026-04-25T17:03:16Z</time></trkpt><trkpt lat="44.411925446383975" lon="9.42666571049994"><ele>822.0</ele><time>2026-04-25T17:03:17Z</time></trkpt><trkpt lat="44.41188384891662" lon="9.426537741652988"><ele>822.0</ele><time>2026-04-25T17:03:18Z</time></trkpt><trkpt lat="44.41183113466067" lon="9.426426919644841"><ele>822.0</ele><time>2026-04-25T17:03:19Z</time></trkpt><trkpt lat="44.411806452405834" lon="9.426300998800935"><ele>822.0</ele><time>2026-04-25T17:03:20Z</time></trkpt><trkpt lat="44.41181431975284" lon="9.426185124042167"><ele>823.0</ele><time>2026-04-25T17:03:21Z</time></trkpt><trkpt lat="44.41185467742626" lon="9.426087812308383"><ele>824.0</ele><time>2026-04-25T17:03:22Z</time></trkpt><trkpt lat="44.41189080275254" lon="9.425976390536828"><ele>825.0</ele><time>2026-04-25T17:03:23Z</time></trkpt><trkpt lat="44.411905498345696" lon="9.425858708364297"><ele>826.0</ele><time>2026-04-25T17:03:24Z</time></trkpt><trkpt lat="44.411881285831775" lon="9.42573759421845"><ele>827.0</ele><time>2026-04-25T17:03:25Z</time></trkpt><trkpt lat="44.41181653744752" lon="9.425611238249108"><ele>827.8</ele><time>2026-04-25T17:03:26Z</time></trkpt><trkpt lat="44.41172452627068" lon="9.425478309018139"><ele>828.6</ele><time>2026-04-25T17:03:27Z</time></trkpt><trkpt lat="44.411629625713175" lon="9.425355509701463"><ele>829.4</ele><time>2026-04-25T17:03:28Z</time></trkpt><trkpt lat="44.4115796549384" lon="9.425248029927316"><ele>830.1999999999999</ele><time>2026-04-25T17:03:29Z</time></trkpt><trkpt lat="44.411564325724" lon="9.425135637433643"><ele>831.0</ele><time>2026-04-25T17:03:30Z</time></trkpt><trkpt lat="44.41157591528514" lon="9.425009346556395"><ele>831.0</ele><time>2026-04-25T17:03:31Z</time></trkpt><trkpt lat="44.4116000355996" lon="9.42490357971148"><ele>831.0</ele><time>2026-04-25T17:03:32Z</time></trkpt><trkpt lat="44.411646183509056" lon="9.424778630507998"><ele>831.0</ele><time>2026-04-25T17:03:33Z</time></trkpt><trkpt lat="44.411722881250824" lon="9.424712187675683"><ele>831.0</ele><time>2026-04-25T17:03:34Z</time></trkpt><trkpt lat="44.41182653686771" lon="9.424586800484773"><ele>831.0</ele><time>2026-04-25T17:03:35Z</time></trkpt><trkpt lat="44.4119340579685" lon="9.424454350920795"><ele>824.6666666666667</ele><time>2026-04-25T17:03:36Z</time></trkpt><trkpt lat="44.41204083389633" lon="9.42429619370826"><ele>818.3333333333334</ele><time>2026-04-25T17:03:37Z</time></trkpt><trkpt lat="44.41214936733853" lon="9.424070084214037"><ele>812.0</ele><time>2026-04-25T17:03:38Z</time></trkpt><trkpt lat="44.41224672243649" lon="9.423856896444716"><ele>826.0</ele><time>2026-04-25T17:03:39Z</time></trkpt><trkpt lat="44.412323089312196" lon="9.423663810210998"><ele>840.0</ele><time>2026-04-25T17:03:40Z</time></trkpt><trkpt lat="44.412370604757626" lon="9.423461648411442"><ele>854.0</ele><time>2026-04-25T17:03:41Z</time></trkpt><trkpt lat="44.412379585556224" lon="9.42324185168474"><ele>854.0</ele><time>2026-04-25T17:03:42Z</time></trkpt><trkpt lat="44.41238694897801" lon="9.42300450791519"><ele>854.0</ele><time>2026-04-25T17:03:43Z</time></trkpt><trkpt lat="44.41239293097678" lon="9.422760633365854"><ele>854.0</ele><time>2026-04-25T17:03:44Z</time></trkpt><trkpt lat="44.41237297299238" lon="9.42255816300225"><ele>852.8000000000001</ele><time>2026-04-25T17:03:45Z</time></trkpt><trkpt lat="44.41238499646192" lon="9.42237937932224"><ele>851.6000000000001</ele><time>2026-04-25T17:03:46Z</time></trkpt><trkpt lat="44.41236542443566" lon="9.422218370779275"><ele>850.4</ele><time>2026-04-25T17:03:47Z</time></trkpt><trkpt lat="44.41236713276229" lon="9.422092844707015"><ele>849.2</ele><time>2026-04-25T17:03:48Z</time></trkpt><trkpt lat="44.4123956728563" lon="9.421992349483087"><ele>848.0</ele><time>2026-04-25T17:03:49Z</time></trkpt><trkpt lat="44.41246633536315" lon="9.421967178158635"><ele>848.0</ele><time>2026-04-25T17:03:50Z</time></trkpt><trkpt lat="44.41256452484138" lon="9.422029173241507"><ele>848.0</ele><time>2026-04-25T17:03:52Z</time></trkpt><trkpt lat="44.412598508881196" lon="9.422107315191893"><ele>848.0</ele><time>2026-04-25T17:03:53Z</time></trkpt><trkpt lat="44.412593723051465" lon="9.42227288017319"><ele>848.0</ele><time>2026-04-25T17:03:55Z</time></trkpt><trkpt lat="44.41254135499758" lon="9.422362655916071"><ele>848.0</ele><time>2026-04-25T17:03:56Z</time></trkpt><trkpt lat="44.41248991614326" lon="9.422466280263514"><ele>848.0</ele><time>2026-04-25T17:03:57Z</time></trkpt><trkpt lat="44.41246897614018" lon="9.42261864012542"><ele>848.0</ele><time>2026-04-25T17:03:58Z</time></trkpt><trkpt lat="44.41250828716867" lon="9.422813302959211"><ele>848.0</ele><time>2026-04-25T17:03:59Z</time></trkpt><trkpt lat="44.41253473933553" lon="9.42303927173182"><ele>848.0</ele><time>2026-04-25T17:04:00Z</time></trkpt><trkpt lat="44.412533722125886" lon="9.423260952645464"><ele>849.5</ele><time>2026-04-25T17:04:01Z</time></trkpt><trkpt lat="44.41254196892594" lon="9.423470696542388"><ele>851.0</ele><time>2026-04-25T17:04:02Z</time></trkpt><trkpt lat="44.41251338126617" lon="9.423650463294456"><ele>852.5</ele><time>2026-04-25T17:04:03Z</time></trkpt><trkpt lat="44.41245557129941" lon="9.423829870507992"><ele>854.0</ele><time>2026-04-25T17:04:04Z</time></trkpt><trkpt lat="44.412386436668704" lon="9.424042471450182"><ele>856.25</ele><time>2026-04-25T17:04:05Z</time></trkpt><trkpt lat="44.412339085837246" lon="9.424242081355095"><ele>858.5</ele><time>2026-04-25T17:04:06Z</time></trkpt><trkpt lat="44.41232548818515" lon="9.424445295219348"><ele>860.75</ele><time>2026-04-25T17:04:06.999Z</time></trkpt><trkpt lat="44.412308362789474" lon="9.424619171461883"><ele>863.0</ele><time>2026-04-25T17:04:07.999Z</time></trkpt><trkpt lat="44.41231432219786" lon="9.424754354547336"><ele>863.0</ele><time>2026-04-25T17:04:08.999Z</time></trkpt><trkpt lat="44.4123433968075" lon="9.424853329283726"><ele>863.0</ele><time>2026-04-25T17:04:09.999Z</time></trkpt><trkpt lat="44.41241551069631" lon="9.42494504716214"><ele>863.0</ele><time>2026-04-25T17:04:10.999Z</time></trkpt><trkpt lat="44.41252926624937" lon="9.4250137370425"><ele>863.0</ele><time>2026-04-25T17:04:11.999Z</time></trkpt><trkpt lat="44.4126659724104" lon="9.425083906591363"><ele>863.0</ele><time>2026-04-25T17:04:12.999Z</time></trkpt><trkpt lat="44.412805831720206" lon="9.425169001564502"><ele>863.0</ele><time>2026-04-25T17:04:13.999Z</time></trkpt><trkpt lat="44.41290137785175" lon="9.425277886672296"><ele>863.0</ele><time>2026-04-25T17:04:14.999Z</time></trkpt><trkpt lat="44.41295695986074" lon="9.42537744120762"><ele>863.0</ele><time>2026-04-25T17:04:15.999Z</time></trkpt><trkpt lat="44.41294542405995" lon="9.425487417988942"><ele>863.0</ele><time>2026-04-25T17:04:16.999Z</time></trkpt><trkpt lat="44.41289810365446" lon="9.425596794576768"><ele>863.0</ele><time>2026-04-25T17:04:17.999Z</time></trkpt><trkpt lat="44.41284072394237" lon="9.425744740170186"><ele>863.0</ele><time>2026-04-25T17:04:18.999Z</time></trkpt><trkpt lat="44.41278324203927" lon="9.42593377867502"><ele>863.0</ele><time>2026-04-25T17:04:19.999Z</time></trkpt><trkpt lat="44.41275080484409" lon="9.426136609773181"><ele>863.0</ele><time>2026-04-25T17:04:20.999Z</time></trkpt><trkpt lat="44.41271586817344" lon="9.426330113115641"><ele>863.0</ele><time>2026-04-25T17:04:21.999Z</time></trkpt><trkpt lat="44.41271082576758" lon="9.426528273450035"><ele>863.0</ele><time>2026-04-25T17:04:22.999Z</time></trkpt><trkpt lat="44.41272392645623" lon="9.42673978797151"><ele>863.0</ele><time>2026-04-25T17:04:23.999Z</time></trkpt><trkpt lat="44.41276294972967" lon="9.426974030278625"><ele>863.0</ele><time>2026-04-25T17:04:24.999Z</time></trkpt><trkpt lat="44.41281721432801" lon="9.427184190767628"><ele>862.5</ele><time>2026-04-25T17:04:25.999Z</time></trkpt><trkpt lat="44.41288956245844" lon="9.427388387836078"><ele>862.0</ele><time>2026-04-25T17:04:26.999Z</time></trkpt><trkpt lat="44.412959213881074" lon="9.42755252781854"><ele>861.5</ele><time>2026-04-25T17:04:27.999Z</time></trkpt><trkpt lat="44.41298616402424" lon="9.427698421635627"><ele>861.0</ele><time>2026-04-25T17:04:28.999Z</time></trkpt><trkpt lat="44.41291185543918" lon="9.42783873293815"><ele>860.75</ele><time>2026-04-25T17:04:29.999Z</time></trkpt><trkpt lat="44.41290760605398" lon="9.427983247606663"><ele>860.5</ele><time>2026-04-25T17:04:30.999Z</time></trkpt><trkpt lat="44.412920257089" lon="9.428136150993907"><ele>860.25</ele><time>2026-04-25T17:04:31.999Z</time></trkpt><trkpt lat="44.412987272726255" lon="9.4283125283651"><ele>860.0</ele><time>2026-04-25T17:04:32.999Z</time></trkpt><trkpt lat="44.413074502231524" lon="9.428495454713078"><ele>870.5</ele><time>2026-04-25T17:04:33.999Z</time></trkpt><trkpt lat="44.413114042021924" lon="9.428688829136949"><ele>881.0</ele><time>2026-04-25T17:04:34.999Z</time></trkpt><trkpt lat="44.41312175785628" lon="9.428859548025075"><ele>891.5</ele><time>2026-04-25T17:04:35.999Z</time></trkpt><trkpt lat="44.41308356275478" lon="9.429026585307328"><ele>902.0</ele><time>2026-04-25T17:04:36.999Z</time></trkpt><trkpt lat="44.41303759347499" lon="9.429231826686411"><ele>904.6666666666667</ele><time>2026-04-25T17:04:37.999Z</time></trkpt><trkpt lat="44.412997495601225" lon="9.42945984181192"><ele>907.3333333333333</ele><time>2026-04-25T17:04:38.999Z</time></trkpt><trkpt lat="44.41294871672901" lon="9.429684627627044"><ele>910.0</ele><time>2026-04-25T17:04:39.999Z</time></trkpt><trkpt lat="44.41290983212885" lon="9.429869203456956"><ele>911.8</ele><time>2026-04-25T17:04:40.999Z</time></trkpt><trkpt lat="44.41288918451469" lon="9.430008293481476"><ele>913.6</ele><time>2026-04-25T17:04:41.999Z</time></trkpt><trkpt lat="44.41290268738694" lon="9.430125532256827"><ele>915.4000000000001</ele><time>2026-04-25T17:04:42.999Z</time></trkpt><trkpt lat="44.412951624851694" lon="9.430238222421373"><ele>917.2</ele><time>2026-04-25T17:04:43.999Z</time></trkpt><trkpt lat="44.413036385451235" lon="9.430353679296818"><ele>919.0</ele><time>2026-04-25T17:04:44.999Z</time></trkpt><trkpt lat="44.413127924777484" lon="9.430472101081584"><ele>918.6</ele><time>2026-04-25T17:04:45.999Z</time></trkpt><trkpt lat="44.413164727090916" lon="9.43063510539326"><ele>918.2</ele><time>2026-04-25T17:04:46.999Z</time></trkpt><trkpt lat="44.41319863730642" lon="9.430783405691955"><ele>917.8000000000001</ele><time>2026-04-25T17:04:47.999Z</time></trkpt><trkpt lat="44.41321981934887" lon="9.430924766006228"><ele>917.4000000000001</ele><time>2026-04-25T17:04:48.999Z</time></trkpt><trkpt lat="44.41321016605958" lon="9.43105101574582"><ele>917.0</ele><time>2026-04-25T17:04:49.999Z</time></trkpt><trkpt lat="44.4131472080379" lon="9.431163443146097"><ele>917.0</ele><time>2026-04-25T17:04:50.999Z</time></trkpt><trkpt lat="44.413066691817775" lon="9.431295469311076"><ele>917.0</ele><time>2026-04-25T17:04:51.999Z</time></trkpt><trkpt lat="44.4129960343205" lon="9.431467756608807"><ele>917.0</ele><time>2026-04-25T17:04:52.999Z</time></trkpt><trkpt lat="44.41293048838271" lon="9.431668577703885"><ele>917.0</ele><time>2026-04-25T17:04:53.999Z</time></trkpt><trkpt lat="44.412861395141704" lon="9.431902485622798"><ele>907.3333333333334</ele><time>2026-04-25T17:04:54.999Z</time></trkpt><trkpt lat="44.412803422033676" lon="9.432148825596835"><ele>897.6666666666667</ele><time>2026-04-25T17:04:55.999Z</time></trkpt><trkpt lat="44.41275915002619" lon="9.432393393340691"><ele>888.0</ele><time>2026-04-25T17:04:56.999Z</time></trkpt><trkpt lat="44.41268637865744" lon="9.432616124821608"><ele>888.0</ele><time>2026-04-25T17:04:57.999Z</time></trkpt><trkpt lat="44.41262794186398" lon="9.432808316322683"><ele>888.0</ele><time>2026-04-25T17:04:58.999Z</time></trkpt><trkpt lat="44.41259976199317" lon="9.432977967763305"><ele>888.0</ele><time>2026-04-25T17:04:59.999Z</time></trkpt><trkpt lat="44.412608769890355" lon="9.43313485839187"><ele>888.0</ele><time>2026-04-25T17:05:00.999Z</time></trkpt><trkpt lat="44.412641685849884" lon="9.433282342176858"><ele>893.25</ele><time>2026-04-25T17:05:02Z</time></trkpt><trkpt lat="44.41264075903523" lon="9.433420602057941"><ele>898.5</ele><time>2026-04-25T17:05:03Z</time></trkpt><trkpt lat="44.41254910709653" lon="9.433543210686365"><ele>903.75</ele><time>2026-04-25T17:05:04Z</time></trkpt><trkpt lat="44.41247567896073" lon="9.433716847517045"><ele>909.0</ele><time>2026-04-25T17:05:05Z</time></trkpt><trkpt lat="44.41239931696176" lon="9.433902912723537"><ele>914.3333333333333</ele><time>2026-04-25T17:05:06Z</time></trkpt><trkpt lat="44.41232391108185" lon="9.434070640364924"><ele>919.6666666666666</ele><time>2026-04-25T17:05:07Z</time></trkpt><trkpt lat="44.41227767352642" lon="9.434267261265582"><ele>925.0</ele><time>2026-04-25T17:05:08Z</time></trkpt><trkpt lat="44.41224492799828" lon="9.43451298681327"><ele>928.3333333333333</ele><time>2026-04-25T17:05:09Z</time></trkpt><trkpt lat="44.41218222976788" lon="9.434772579658034"><ele>931.6666666666667</ele><time>2026-04-25T17:05:10Z</time></trkpt><trkpt lat="44.412123395955014" lon="9.435025847873666"><ele>935.0</ele><time>2026-04-25T17:05:11Z</time></trkpt><trkpt lat="44.412076230205976" lon="9.43525045070519"><ele>924.0</ele><time>2026-04-25T17:05:12Z</time></trkpt><trkpt lat="44.4120230478518" lon="9.4354495193719"><ele>913.0</ele><time>2026-04-25T17:05:13Z</time></trkpt><trkpt lat="44.411987777146585" lon="9.43563882156258"><ele>902.0</ele><time>2026-04-25T17:05:14Z</time></trkpt><trkpt lat="44.411968674617015" lon="9.435813593439574"><ele>891.0</ele><time>2026-04-25T17:05:15Z</time></trkpt><trkpt lat="44.411972171764546" lon="9.435959383491412"><ele>891.0</ele><time>2026-04-25T17:05:16Z</time></trkpt><trkpt lat="44.41200928771646" lon="9.436087222652922"><ele>891.0</ele><time>2026-04-25T17:05:17Z</time></trkpt><trkpt lat="44.41208712421902" lon="9.436219843411882"><ele>891.0</ele><time>2026-04-25T17:05:18Z</time></trkpt><trkpt lat="44.41220101890245" lon="9.436354484825852"><ele>891.0</ele><time>2026-04-25T17:05:19Z</time></trkpt><trkpt lat="44.41233142945533" lon="9.43649679462336"><ele>900.75</ele><time>2026-04-25T17:05:20Z</time></trkpt><trkpt lat="44.412452828771926" lon="9.436659448189868"><ele>910.5</ele><time>2026-04-25T17:05:21Z</time></trkpt><trkpt lat="44.412554744692414" lon="9.43679787873102"><ele>920.25</ele><time>2026-04-25T17:05:22Z</time></trkpt><trkpt lat="44.41264301436431" lon="9.43691333723336"><ele>930.0</ele><time>2026-04-25T17:05:23Z</time></trkpt><trkpt lat="44.41274457920697" lon="9.436971219420347"><ele>930.0</ele><time>2026-04-25T17:05:24Z</time></trkpt><trkpt lat="44.41287657461137" lon="9.436990554979795"><ele>930.0</ele><time>2026-04-25T17:05:25Z</time></trkpt><trkpt lat="44.41302835835664" lon="9.436993103316677"><ele>930.0</ele><time>2026-04-25T17:05:26Z</time></trkpt><trkpt lat="44.41315351701979" lon="9.437019208616148"><ele>930.0</ele><time>2026-04-25T17:05:27Z</time></trkpt><trkpt lat="44.41322398137337" lon="9.437098089559528"><ele>930.25</ele><time>2026-04-25T17:05:28Z</time></trkpt><trkpt lat="44.41327657925449" lon="9.437230888054927"><ele>930.5</ele><time>2026-04-25T17:05:29Z</time></trkpt><trkpt lat="44.413376162803814" lon="9.437330937541608"><ele>930.75</ele><time>2026-04-25T17:05:30Z</time></trkpt><trkpt lat="44.413498435406666" lon="9.43736396331186"><ele>931.0</ele><time>2026-04-25T17:05:31Z</time></trkpt><trkpt lat="44.413620897983606" lon="9.437426749682814"><ele>931.0</ele><time>2026-04-25T17:05:32Z</time></trkpt><trkpt lat="44.41372101603462" lon="9.437552394610023"><ele>931.0</ele><time>2026-04-25T17:05:33Z</time></trkpt><trkpt lat="44.41380250312402" lon="9.437709500403118"><ele>931.0</ele><time>2026-04-25T17:05:34Z</time></trkpt><trkpt lat="44.413911313274156" lon="9.437824217387519"><ele>931.0</ele><time>2026-04-25T17:05:35Z</time></trkpt><trkpt lat="44.41404111951828" lon="9.437944727596383"><ele>930.75</ele><time>2026-04-25T17:05:36Z</time></trkpt><trkpt lat="44.414171747175985" lon="9.438038648972979"><ele>930.5</ele><time>2026-04-25T17:05:37Z</time></trkpt><trkpt lat="44.41429114589132" lon="9.438107213210976"><ele>930.25</ele><time>2026-04-25T17:05:38Z</time></trkpt><trkpt lat="44.41438612850575" lon="9.438161239468462"><ele>930.0</ele><time>2026-04-25T17:05:39Z</time></trkpt><trkpt lat="44.414491655211584" lon="9.438164262325406"><ele>930.0</ele><time>2026-04-25T17:05:40Z</time></trkpt><trkpt lat="44.41462103826151" lon="9.43810600397428"><ele>930.0</ele><time>2026-04-25T17:05:41Z</time></trkpt><trkpt lat="44.414751886910715" lon="9.438034370676075"><ele>930.0</ele><time>2026-04-25T17:05:42Z</time></trkpt><trkpt lat="44.41485992287557" lon="9.437994011087032"><ele>930.0</ele><time>2026-04-25T17:05:43Z</time></trkpt><trkpt lat="44.414944662229246" lon="9.438003837703622"><ele>934.8</ele><time>2026-04-25T17:05:44Z</time></trkpt><trkpt lat="44.415007456357124" lon="9.43806871488209"><ele>939.6</ele><time>2026-04-25T17:05:45Z</time></trkpt><trkpt lat="44.41503309198082" lon="9.438178842102275"><ele>944.4000000000001</ele><time>2026-04-25T17:05:46Z</time></trkpt><trkpt lat="44.41500822405591" lon="9.438318177776337"><ele>949.2</ele><time>2026-04-25T17:05:47Z</time></trkpt><trkpt lat="44.4149895473675" lon="9.438473867926099"><ele>954.0</ele><time>2026-04-25T17:05:48Z</time></trkpt><trkpt lat="44.41495438495761" lon="9.438653301026639"><ele>954.5</ele><time>2026-04-25T17:05:49Z</time></trkpt><trkpt lat="44.41489805634334" lon="9.43884310803752"><ele>955.0</ele><time>2026-04-25T17:05:50Z</time></trkpt><trkpt lat="44.41485134168383" lon="9.439024109534477"><ele>955.5</ele><time>2026-04-25T17:05:51Z</time></trkpt><trkpt lat="44.414806711590394" lon="9.439139359902526"><ele>956.0</ele><time>2026-04-25T17:05:52Z</time></trkpt><trkpt lat="44.41481026939175" lon="9.43927564799529"><ele>956.0</ele><time>2026-04-25T17:05:53Z</time></trkpt><trkpt lat="44.41482315902013" lon="9.439413491745418"><ele>956.0</ele><time>2026-04-25T17:05:54Z</time></trkpt><trkpt lat="44.4149018057039" lon="9.439539823517686"><ele>956.0</ele><time>2026-04-25T17:05:55Z</time></trkpt><trkpt lat="44.41497661138768" lon="9.439689024195632"><ele>956.0</ele><time>2026-04-25T17:05:56Z</time></trkpt><trkpt lat="44.41506721069235" lon="9.439816051129913"><ele>955.4</ele><time>2026-04-25T17:05:57Z</time></trkpt><trkpt lat="44.41513618245454" lon="9.439936121215448"><ele>954.8</ele><time>2026-04-25T17:05:58Z</time></trkpt><trkpt lat="44.41514606117918" lon="9.440064135722077"><ele>954.1999999999999</ele><time>2026-04-25T17:05:59Z</time></trkpt><trkpt lat="44.41509476050398" lon="9.440207429127431"><ele>953.5999999999999</ele><time>2026-04-25T17:06:00Z</time></trkpt><trkpt lat="44.41508929355392" lon="9.440383480659099"><ele>953.0</ele><time>2026-04-25T17:06:01Z</time></trkpt><trkpt lat="44.41508575557598" lon="9.440562049843164"><ele>952.75</ele><time>2026-04-25T17:06:02Z</time></trkpt><trkpt lat="44.41510815495632" lon="9.440707499454621"><ele>952.5</ele><time>2026-04-25T17:06:03Z</time></trkpt><trkpt lat="44.415161885447056" lon="9.440840595907986"><ele>952.25</ele><time>2026-04-25T17:06:04Z</time></trkpt><trkpt lat="44.41525186731025" lon="9.440971957330724"><ele>952.0</ele><time>2026-04-25T17:06:04.999Z</time></trkpt><trkpt lat="44.41535121193312" lon="9.441105105903796"><ele>952.0</ele><time>2026-04-25T17:06:05.999Z</time></trkpt><trkpt lat="44.415425664494" lon="9.441202171007792"><ele>952.0</ele><time>2026-04-25T17:06:06.999Z</time></trkpt><trkpt lat="44.41552894763981" lon="9.441261165193472"><ele>952.0</ele><time>2026-04-25T17:06:07.999Z</time></trkpt><trkpt lat="44.41565639176221" lon="9.441282334508335"><ele>952.0</ele><time>2026-04-25T17:06:08.999Z</time></trkpt><trkpt lat="44.415794872189714" lon="9.441292286756054"><ele>953.8</ele><time>2026-04-25T17:06:09.999Z</time></trkpt><trkpt lat="44.41590656118723" lon="9.441346267352573"><ele>955.6</ele><time>2026-04-25T17:06:10.999Z</time></trkpt><trkpt lat="44.415985044377" lon="9.441395907817249"><ele>957.3999999999999</ele><time>2026-04-25T17:06:11.999Z</time></trkpt><trkpt lat="44.416006719409914" lon="9.44152523830967"><ele>959.1999999999999</ele><time>2026-04-25T17:06:12.999Z</time></trkpt><trkpt lat="44.41601241883042" lon="9.441634281660141"><ele>961.0</ele><time>2026-04-25T17:06:13.999Z</time></trkpt><trkpt lat="44.41594775990106" lon="9.441733018507152"><ele>961.0</ele><time>2026-04-25T17:06:14.999Z</time></trkpt><trkpt lat="44.41588286309485" lon="9.44181045811277"><ele>960.9999999999999</ele><time>2026-04-25T17:06:15.999Z</time></trkpt><trkpt lat="44.415809655533465" lon="9.441901743738171"><ele>960.9999999999999</ele><time>2026-04-25T17:06:16.999Z</time></trkpt><trkpt lat="44.41570589247326" lon="9.441986997569865"><ele>961.0</ele><time>2026-04-25T17:06:17.999Z</time></trkpt><trkpt lat="44.415625824131624" lon="9.442138296429386"><ele>961.0</ele><time>2026-04-25T17:06:18.999Z</time></trkpt><trkpt lat="44.41556244716122" lon="9.442323957074063"><ele>961.5999999999999</ele><time>2026-04-25T17:06:19.999Z</time></trkpt><trkpt lat="44.415498596922596" lon="9.442483591347038"><ele>962.1999999999999</ele><time>2026-04-25T17:06:20.999Z</time></trkpt><trkpt lat="44.415444847383924" lon="9.442573236409762"><ele>962.8000000000001</ele><time>2026-04-25T17:06:21.999Z</time></trkpt><trkpt lat="44.41538973688802" lon="9.442626024685923"><ele>963.4000000000001</ele><time>2026-04-25T17:06:23.999Z</time></trkpt><trkpt lat="44.41531892748541" lon="9.4426915038201"><ele>964.0</ele><time>2026-04-25T17:06:25.999Z</time></trkpt><trkpt lat="44.41523816994868" lon="9.442758983058187"><ele>965.0</ele><time>2026-04-25T17:06:27.999Z</time></trkpt><trkpt lat="44.41513880063917" lon="9.442877014017656"><ele>966.0000000000001</ele><time>2026-04-25T17:06:29.999Z</time></trkpt><trkpt lat="44.41508719893741" lon="9.442947128231795"><ele>967.0000000000001</ele><time>2026-04-25T17:06:30.999Z</time></trkpt><trkpt lat="44.41500449358829" lon="9.443049465893324"><ele>968.0</ele><time>2026-04-25T17:06:32.999Z</time></trkpt><trkpt lat="44.41503172581245" lon="9.443161282874007"><ele>969.0</ele><time>2026-04-25T17:06:34.999Z</time></trkpt><trkpt lat="44.415109056651204" lon="9.443245379688896"><ele>967.0</ele><time>2026-04-25T17:11:38Z</time></trkpt><trkpt lat="44.415165033871" lon="9.44333632668684"><ele>965.0000000000001</ele><time>2026-04-25T17:11:40Z</time></trkpt><trkpt lat="44.415202313164656" lon="9.443442595766754"><ele>963.0000000000001</ele><time>2026-04-25T17:11:42Z</time></trkpt><trkpt lat="44.41519944388854" lon="9.443615105183772"><ele>961.0</ele><time>2026-04-25T17:11:44Z</time></trkpt><trkpt lat="44.41517622166241" lon="9.443725706837679"><ele>959.0</ele><time>2026-04-25T17:11:45Z</time></trkpt><trkpt lat="44.41513912464282" lon="9.443847366408292"><ele>957.4000000000001</ele><time>2026-04-25T17:11:46Z</time></trkpt><trkpt lat="44.415097522667565" lon="9.443974018944642"><ele>955.8000000000001</ele><time>2026-04-25T17:11:47Z</time></trkpt><trkpt lat="44.41505450669286" lon="9.444096049631295"><ele>954.1999999999999</ele><time>2026-04-25T17:11:48Z</time></trkpt><trkpt lat="44.41500788949322" lon="9.444217549661618"><ele>952.5999999999999</ele><time>2026-04-25T17:11:49Z</time></trkpt><trkpt lat="44.414961750511296" lon="9.44434014485215"><ele>951.0</ele><time>2026-04-25T17:11:50Z</time></trkpt><trkpt lat="44.414912763603596" lon="9.44445742275003"><ele>951.0</ele><time>2026-04-25T17:11:51Z</time></trkpt><trkpt lat="44.41485109642548" lon="9.444580383651498"><ele>951.0</ele><time>2026-04-25T17:11:52Z</time></trkpt><trkpt lat="44.41477175349397" lon="9.444705056350951"><ele>951.0</ele><time>2026-04-25T17:11:53Z</time></trkpt><trkpt lat="44.414679801454454" lon="9.444824181498747"><ele>951.0</ele><time>2026-04-25T17:11:54Z</time></trkpt><trkpt lat="44.41458090445422" lon="9.444935516435441"><ele>951.25</ele><time>2026-04-25T17:11:55Z</time></trkpt><trkpt lat="44.41446581495073" lon="9.445047632758417"><ele>951.5</ele><time>2026-04-25T17:11:56Z</time></trkpt><trkpt lat="44.414341109665834" lon="9.445157107732738"><ele>951.75</ele><time>2026-04-25T17:11:57Z</time></trkpt><trkpt lat="44.414224895390745" lon="9.44529007676617"><ele>952.0</ele><time>2026-04-25T17:11:58Z</time></trkpt><trkpt lat="44.41411641131222" lon="9.4454497404695"><ele>953.3333333333333</ele><time>2026-04-25T17:11:59Z</time></trkpt><trkpt lat="44.41402226835302" lon="9.4456270163891"><ele>954.6666666666667</ele><time>2026-04-25T17:12:00Z</time></trkpt><trkpt lat="44.41393384769849" lon="9.445799522976074"><ele>956.0</ele><time>2026-04-25T17:12:01Z</time></trkpt><trkpt lat="44.41384566392438" lon="9.445957490480735"><ele>953.5</ele><time>2026-04-25T17:12:02Z</time></trkpt><trkpt lat="44.413750901361" lon="9.446097220182676"><ele>951.0</ele><time>2026-04-25T17:12:03Z</time></trkpt><trkpt lat="44.4136548915983" lon="9.446208469589726"><ele>948.5</ele><time>2026-04-25T17:12:04Z</time></trkpt><trkpt lat="44.41356666464904" lon="9.446304925180291"><ele>946.0</ele><time>2026-04-25T17:12:05Z</time></trkpt><trkpt lat="44.413471384195674" lon="9.446390840655278"><ele>946.0</ele><time>2026-04-25T17:12:06Z</time></trkpt><trkpt lat="44.41336209489239" lon="9.446464303311394"><ele>946.0</ele><time>2026-04-25T17:12:07Z</time></trkpt><trkpt lat="44.41323576674335" lon="9.446531428654803"><ele>946.0</ele><time>2026-04-25T17:12:07.999Z</time></trkpt><trkpt lat="44.41309657321488" lon="9.446618794926579"><ele>946.0</ele><time>2026-04-25T17:12:08.999Z</time></trkpt><trkpt lat="44.41295092652808" lon="9.446714497831977"><ele>946.0</ele><time>2026-04-25T17:12:09.999Z</time></trkpt><trkpt lat="44.41279800182542" lon="9.446822945312425"><ele>946.0</ele><time>2026-04-25T17:12:10.999Z</time></trkpt><trkpt lat="44.41266481296858" lon="9.446975697145843"><ele>946.0</ele><time>2026-04-25T17:12:11.999Z</time></trkpt><trkpt lat="44.41252949209426" lon="9.447137283131546"><ele>945.75</ele><time>2026-04-25T17:12:12.999Z</time></trkpt><trkpt lat="44.41240550486596" lon="9.44727213167496"><ele>945.5</ele><time>2026-04-25T17:12:13.999Z</time></trkpt><trkpt lat="44.41229402381729" lon="9.44739835545205"><ele>945.25</ele><time>2026-04-25T17:12:14.999Z</time></trkpt><trkpt lat="44.41220090138866" lon="9.447543271160274"><ele>945.0</ele><time>2026-04-25T17:12:15.999Z</time></trkpt><trkpt lat="44.412118991306706" lon="9.447703038337272"><ele>946.6666666666667</ele><time>2026-04-25T17:12:16.999Z</time></trkpt><trkpt lat="44.41205421285464" lon="9.447889290624905"><ele>948.3333333333334</ele><time>2026-04-25T17:12:17.999Z</time></trkpt><trkpt lat="44.41200886658116" lon="9.44809866355693"><ele>950.0</ele><time>2026-04-25T17:12:18.999Z</time></trkpt><trkpt lat="44.41198861740065" lon="9.448332528805658"><ele>952.3333333333334</ele><time>2026-04-25T17:12:19.999Z</time></trkpt><trkpt lat="44.41198597354433" lon="9.448575211171644"><ele>954.6666666666667</ele><time>2026-04-25T17:12:20.999Z</time></trkpt><trkpt lat="44.411983970074886" lon="9.448823194353551"><ele>957.0</ele><time>2026-04-25T17:12:21.999Z</time></trkpt><trkpt lat="44.411971750058456" lon="9.449073676441714"><ele>958.5</ele><time>2026-04-25T17:12:22.999Z</time></trkpt><trkpt lat="44.41195549180202" lon="9.449295674688766"><ele>960.0</ele><time>2026-04-25T17:12:23.999Z</time></trkpt><trkpt lat="44.411945554451194" lon="9.449492884828999"><ele>961.5</ele><time>2026-04-25T17:12:24.999Z</time></trkpt><trkpt lat="44.411933858502856" lon="9.44967184534781"><ele>963.0</ele><time>2026-04-25T17:12:25.999Z</time></trkpt><trkpt lat="44.411942084218104" lon="9.44984113931756"><ele>965.5</ele><time>2026-04-25T17:12:26.999Z</time></trkpt><trkpt lat="44.4119860824253" lon="9.449993454941234"><ele>968.0</ele><time>2026-04-25T17:12:27.999Z</time></trkpt><trkpt lat="44.412062521822506" lon="9.450138970139434"><ele>970.5</ele><time>2026-04-25T17:12:28.999Z</time></trkpt><trkpt lat="44.41217383249723" lon="9.450277588275675"><ele>973.0</ele><time>2026-04-25T17:12:29.999Z</time></trkpt><trkpt lat="44.41228985098043" lon="9.450421957775937"><ele>971.0</ele><time>2026-04-25T17:12:30.999Z</time></trkpt><trkpt lat="44.41235067210373" lon="9.450589127386738"><ele>969.0</ele><time>2026-04-25T17:12:31.999Z</time></trkpt><trkpt lat="44.41237036983687" lon="9.450711137192037"><ele>967.0</ele><time>2026-04-25T17:12:32.999Z</time></trkpt><trkpt lat="44.41234608727067" lon="9.4508130770579"><ele>965.0</ele><time>2026-04-25T17:12:33.999Z</time></trkpt><trkpt lat="44.41230857317317" lon="9.450916256772524"><ele>963.0</ele><time>2026-04-25T17:12:34.999Z</time></trkpt><trkpt lat="44.412248074215654" lon="9.45098848901144"><ele>963.0</ele><time>2026-04-25T17:12:35.999Z</time></trkpt><trkpt lat="44.41216532195368" lon="9.451042937165742"><ele>963.0</ele><time>2026-04-25T17:12:36.999Z</time></trkpt><trkpt lat="44.41204648623654" lon="9.451078759069482"><ele>963.0</ele><time>2026-04-25T17:12:37.999Z</time></trkpt><trkpt lat="44.41190971573094" lon="9.45115003543642"><ele>963.0</ele><time>2026-04-25T17:12:38.999Z</time></trkpt><trkpt lat="44.411744220941415" lon="9.451190767313964"><ele>965.3333333333333</ele><time>2026-04-25T17:12:39.999Z</time></trkpt><trkpt lat="44.411576289308115" lon="9.451165540014406"><ele>967.6666666666666</ele><time>2026-04-25T17:12:40.999Z</time></trkpt><trkpt lat="44.41141904671223" lon="9.451156644701472"><ele>970.0</ele><time>2026-04-25T17:12:41.999Z</time></trkpt><trkpt lat="44.4112909862109" lon="9.451169909315716"><ele>970.8</ele><time>2026-04-25T17:12:42.999Z</time></trkpt><trkpt lat="44.411193409496725" lon="9.451182570602379"><ele>971.6</ele><time>2026-04-25T17:12:43.999Z</time></trkpt><trkpt lat="44.411118880282935" lon="9.451244834986678"><ele>972.4000000000001</ele><time>2026-04-25T17:12:44.999Z</time></trkpt><trkpt lat="44.41108342120654" lon="9.451368882175405"><ele>973.2</ele><time>2026-04-25T17:12:45.999Z</time></trkpt><trkpt lat="44.41105942411377" lon="9.451500327374893"><ele>974.0</ele><time>2026-04-25T17:12:46.999Z</time></trkpt><trkpt lat="44.41106101390751" lon="9.45166151467931"><ele>975.0</ele><time>2026-04-25T17:12:47.999Z</time></trkpt><trkpt lat="44.41109848181724" lon="9.45175643358316"><ele>976.0000000000001</ele><time>2026-04-25T17:12:48.999Z</time></trkpt><trkpt lat="44.41116064706894" lon="9.451855472485162"><ele>977.0000000000001</ele><time>2026-04-25T17:12:49.999Z</time></trkpt><trkpt lat="44.41124515810841" lon="9.451935776518189"><ele>978.0</ele><time>2026-04-25T17:12:50.999Z</time></trkpt><trkpt lat="44.41135487783753" lon="9.451984053198593"><ele>979.0</ele><time>2026-04-25T17:12:51.999Z</time></trkpt><trkpt lat="44.41148440519542" lon="9.452006220024609"><ele>978.0</ele><time>2026-04-25T17:12:52.999Z</time></trkpt><trkpt lat="44.41161120756658" lon="9.452043045997145"><ele>977.0000000000001</ele><time>2026-04-25T17:12:53.999Z</time></trkpt><trkpt lat="44.41170894278678" lon="9.452110231942447"><ele>976.0000000000001</ele><time>2026-04-25T17:12:54.999Z</time></trkpt><trkpt lat="44.41178464035844" lon="9.45220718213635"><ele>975.0</ele><time>2026-04-25T17:12:55.999Z</time></trkpt><trkpt lat="44.41182442240918" lon="9.452345898937576"><ele>974.0</ele><time>2026-04-25T17:12:56.999Z</time></trkpt><trkpt lat="44.41185281222256" lon="9.452486099754871"><ele>974.0</ele><time>2026-04-25T17:12:57.999Z</time></trkpt><trkpt lat="44.41185049563229" lon="9.45263219214468"><ele>974.0</ele><time>2026-04-25T17:12:58.999Z</time></trkpt><trkpt lat="44.41184608553307" lon="9.452807336153098"><ele>974.0</ele><time>2026-04-25T17:12:59.999Z</time></trkpt><trkpt lat="44.41184239428685" lon="9.452996294723887"><ele>974.0</ele><time>2026-04-25T17:13:00.999Z</time></trkpt><trkpt lat="44.41184836852575" lon="9.453201972639611"><ele>977.0</ele><time>2026-04-25T17:13:01.999Z</time></trkpt><trkpt lat="44.41184485500597" lon="9.453419678190972"><ele>980.0</ele><time>2026-04-25T17:13:02.999Z</time></trkpt><trkpt lat="44.41184302796743" lon="9.45364804177224"><ele>983.0</ele><time>2026-04-25T17:13:03.999Z</time></trkpt><trkpt lat="44.411852338813624" lon="9.453869813903319"><ele>984.6666666666667</ele><time>2026-04-25T17:13:04.999Z</time></trkpt><trkpt lat="44.41186171569096" lon="9.454104961793862"><ele>986.3333333333333</ele><time>2026-04-25T17:13:05.999Z</time></trkpt><trkpt lat="44.411924652208405" lon="9.454315819339179"><ele>988.0</ele><time>2026-04-25T17:13:06.999Z</time></trkpt><trkpt lat="44.41194021977786" lon="9.45450643233359"><ele>989.5</ele><time>2026-04-25T17:13:07.999Z</time></trkpt><trkpt lat="44.411942418997036" lon="9.454667464050845"><ele>991.0</ele><time>2026-04-25T17:13:08.999Z</time></trkpt><trkpt lat="44.41192020891797" lon="9.4548362842257"><ele>992.5</ele><time>2026-04-25T17:13:09.999Z</time></trkpt><trkpt lat="44.411890660526296" lon="9.455032709808693"><ele>994.0</ele><time>2026-04-25T17:13:10.999Z</time></trkpt><trkpt lat="44.411896925882765" lon="9.455224532466413"><ele>994.0</ele><time>2026-04-25T17:13:11.999Z</time></trkpt><trkpt lat="44.411878915148954" lon="9.455371432414733"><ele>994.0000000000001</ele><time>2026-04-25T17:13:12.999Z</time></trkpt><trkpt lat="44.41185317010633" lon="9.455490896050854"><ele>994.0000000000001</ele><time>2026-04-25T17:13:13.999Z</time></trkpt><trkpt lat="44.411788655045115" lon="9.455594414767775"><ele>994.0</ele><time>2026-04-25T17:13:14.999Z</time></trkpt><trkpt lat="44.41173385311113" lon="9.455717240488463"><ele>994.0</ele><time>2026-04-25T17:13:15.999Z</time></trkpt><trkpt lat="44.41171254670801" lon="9.455862174865329"><ele>995.0</ele><time>2026-04-25T17:13:16.999Z</time></trkpt><trkpt lat="44.41171978531643" lon="9.456024959608804"><ele>996.0</ele><time>2026-04-25T17:13:17.999Z</time></trkpt><trkpt lat="44.411760731626984" lon="9.456196036490052"><ele>997.0</ele><time>2026-04-25T17:13:18.999Z</time></trkpt><trkpt lat="44.41184012282615" lon="9.45635970478465"><ele>998.0</ele><time>2026-04-25T17:13:19.999Z</time></trkpt><trkpt lat="44.41192366997997" lon="9.456546907047214"><ele>1000.75</ele><time>2026-04-25T17:13:20.998Z</time></trkpt><trkpt lat="44.41197876806669" lon="9.456753150869211"><ele>1003.5</ele><time>2026-04-25T17:13:21.998Z</time></trkpt><trkpt lat="44.41205236790537" lon="9.456920893321831"><ele>1006.25</ele><time>2026-04-25T17:13:22.998Z</time></trkpt><trkpt lat="44.41211295114115" lon="9.457075026036414"><ele>1009.0</ele><time>2026-04-25T17:13:23.998Z</time></trkpt><trkpt lat="44.41214167298409" lon="9.457227174372445"><ele>1005.6</ele><time>2026-04-25T17:13:24.998Z</time></trkpt><trkpt lat="44.412176508789415" lon="9.457370380887678"><ele>1002.2</ele><time>2026-04-25T17:13:26Z</time></trkpt><trkpt lat="44.41220346823884" lon="9.45748947564246"><ele>998.8000000000001</ele><time>2026-04-25T17:13:27Z</time></trkpt><trkpt lat="44.412240086506024" lon="9.457580229149706"><ele>995.4000000000001</ele><time>2026-04-25T17:13:28Z</time></trkpt><trkpt lat="44.412318969847604" lon="9.457629257499214"><ele>992.0</ele><time>2026-04-25T17:13:29Z</time></trkpt><trkpt lat="44.4124440675955" lon="9.457588070860133"><ele>992.0</ele><time>2026-04-25T17:13:30Z</time></trkpt><trkpt lat="44.41256388386954" lon="9.457621003293536"><ele>992.0</ele><time>2026-04-25T17:13:31Z</time></trkpt><trkpt lat="44.41268166677236" lon="9.457679146810236"><ele>992.0</ele><time>2026-04-25T17:13:32Z</time></trkpt><trkpt lat="44.41280104623672" lon="9.45775848775353"><ele>992.0</ele><time>2026-04-25T17:13:33Z</time></trkpt><trkpt lat="44.41290507814303" lon="9.45783146218887"><ele>992.0</ele><time>2026-04-25T17:13:34Z</time></trkpt><trkpt lat="44.412968768581" lon="9.457907937325022"><ele>992.0</ele><time>2026-04-25T17:13:35Z</time></trkpt><trkpt lat="44.41299785043631" lon="9.457996844884308"><ele>992.0</ele><time>2026-04-25T17:13:36Z</time></trkpt><trkpt lat="44.41299769765997" lon="9.45810984226255"><ele>992.0</ele><time>2026-04-25T17:13:37Z</time></trkpt><trkpt lat="44.41297961675171" lon="9.4582592625488"><ele>992.0</ele><time>2026-04-25T17:13:38Z</time></trkpt><trkpt lat="44.412941204322124" lon="9.458437730276804"><ele>998.0</ele><time>2026-04-25T17:13:39Z</time></trkpt><trkpt lat="44.41291637548553" lon="9.458662320630195"><ele>1004.0</ele><time>2026-04-25T17:13:40Z</time></trkpt><trkpt lat="44.41290448346203" lon="9.458885606780814"><ele>1010.0</ele><time>2026-04-25T17:13:41Z</time></trkpt><trkpt lat="44.41290823460495" lon="9.459124984561717"><ele>1010.25</ele><time>2026-04-25T17:13:42Z</time></trkpt><trkpt lat="44.412888675076644" lon="9.459361229853938"><ele>1010.5</ele><time>2026-04-25T17:13:43Z</time></trkpt><trkpt lat="44.412897302172084" lon="9.459556720691916"><ele>1010.75</ele><time>2026-04-25T17:13:44Z</time></trkpt><trkpt lat="44.41290875926052" lon="9.45971293879433"><ele>1011.0</ele><time>2026-04-25T17:13:45Z</time></trkpt><trkpt lat="44.41290173865774" lon="9.459813554018263"><ele>1011.0</ele><time>2026-04-25T17:13:46Z</time></trkpt><trkpt lat="44.4128714583307" lon="9.459892719553052"><ele>1010.9999999999999</ele><time>2026-04-25T17:13:47Z</time></trkpt><trkpt lat="44.41278878931456" lon="9.45992967753472"><ele>1010.9999999999999</ele><time>2026-04-25T17:13:48Z</time></trkpt><trkpt lat="44.41268635153641" lon="9.45993646320366"><ele>1011.0</ele><time>2026-04-25T17:13:49Z</time></trkpt><trkpt lat="44.4125978319757" lon="9.459946128648186"><ele>1011.0</ele><time>2026-04-25T17:13:50Z</time></trkpt><trkpt lat="44.412540010399184" lon="9.460083506359684"><ele>1011.0</ele><time>2026-04-25T17:13:52Z</time></trkpt><trkpt lat="44.412590571260836" lon="9.460294233863591"><ele>1011.0</ele><time>2026-04-25T17:13:54Z</time></trkpt><trkpt lat="44.41268890095169" lon="9.460403898228217"><ele>1011.0</ele><time>2026-04-25T17:13:55Z</time></trkpt><trkpt lat="44.412781259462484" lon="9.460547549028133"><ele>1011.0</ele><time>2026-04-25T17:13:56Z</time></trkpt><trkpt lat="44.41288665386395" lon="9.460697279774628"><ele>1008.0</ele><time>2026-04-25T17:13:57Z</time></trkpt><trkpt lat="44.41297145233515" lon="9.460842959326197"><ele>1005.0</ele><time>2026-04-25T17:13:58Z</time></trkpt><trkpt lat="44.41302539677158" lon="9.460985289909019"><ele>1002.0</ele><time>2026-04-25T17:13:59Z</time></trkpt><trkpt lat="44.41305676723205" lon="9.461132038387108"><ele>999.0</ele><time>2026-04-25T17:14:00Z</time></trkpt><trkpt lat="44.41309158179507" lon="9.461257636736251"><ele>1003.6</ele><time>2026-04-25T17:14:01Z</time></trkpt><trkpt lat="44.41316837118328" lon="9.461358471057327"><ele>1008.2</ele><time>2026-04-25T17:14:02Z</time></trkpt><trkpt lat="44.41326098737855" lon="9.461428603378003"><ele>1012.8000000000001</ele><time>2026-04-25T17:14:03Z</time></trkpt><trkpt lat="44.413358377989574" lon="9.46148323347364"><ele>1017.4000000000001</ele><time>2026-04-25T17:14:04Z</time></trkpt><trkpt lat="44.41343561333835" lon="9.461556547584372"><ele>1022.0</ele><time>2026-04-25T17:14:04.999Z</time></trkpt><trkpt lat="44.41353732515975" lon="9.461663563020036"><ele>1022.0</ele><time>2026-04-25T17:14:05.999Z</time></trkpt><trkpt lat="44.41365355676151" lon="9.461828405444907"><ele>1022.0</ele><time>2026-04-25T17:14:06.999Z</time></trkpt><trkpt lat="44.41376409937135" lon="9.461982765441494"><ele>1022.0</ele><time>2026-04-25T17:14:07.999Z</time></trkpt><trkpt lat="44.41387000607365" lon="9.46209551560307"><ele>1017.8</ele><time>2026-04-25T17:14:08.999Z</time></trkpt><trkpt lat="44.413931159351435" lon="9.462205022459003"><ele>1013.6</ele><time>2026-04-25T17:14:09.999Z</time></trkpt><trkpt lat="44.413971773075794" lon="9.462304172536857"><ele>1009.3999999999999</ele><time>2026-04-25T17:14:10.999Z</time></trkpt><trkpt lat="44.41397294164533" lon="9.462414274243773"><ele>1005.1999999999999</ele><time>2026-04-25T17:14:11.999Z</time></trkpt><trkpt lat="44.413945985322144" lon="9.462540920968054"><ele>1001.0</ele><time>2026-04-25T17:14:12.999Z</time></trkpt><trkpt lat="44.41390607593988" lon="9.462704060554037"><ele>1001.0</ele><time>2026-04-25T17:14:13.999Z</time></trkpt><trkpt lat="44.41386904456355" lon="9.462895786774592"><ele>1001.0</ele><time>2026-04-25T17:14:14.999Z</time></trkpt><trkpt lat="44.41382614684946" lon="9.463101865649943"><ele>1001.0</ele><time>2026-04-25T17:14:15.999Z</time></trkpt><trkpt lat="44.41378570566283" lon="9.463292901411036"><ele>1001.0</ele><time>2026-04-25T17:14:16.999Z</time></trkpt><trkpt lat="44.413752276235826" lon="9.463501885777573"><ele>1010.0</ele><time>2026-04-25T17:14:17.999Z</time></trkpt><trkpt lat="44.41372109197518" lon="9.463717539645762"><ele>1019.0</ele><time>2026-04-25T17:14:18.999Z</time></trkpt><trkpt lat="44.41369565772801" lon="9.46389923574589"><ele>1028.0</ele><time>2026-04-25T17:14:19.999Z</time></trkpt><trkpt lat="44.41368411289589" lon="9.464046779690111"><ele>1037.0</ele><time>2026-04-25T17:14:20.999Z</time></trkpt><trkpt lat="44.41370015403876" lon="9.464183458386225"><ele>1037.0</ele><time>2026-04-25T17:14:21.999Z</time></trkpt><trkpt lat="44.413726474519265" lon="9.464309615203124"><ele>1037.0</ele><time>2026-04-25T17:14:22.999Z</time></trkpt><trkpt lat="44.41374016241091" lon="9.464423556793012"><ele>1037.0</ele><time>2026-04-25T17:14:23.999Z</time></trkpt><trkpt lat="44.413675104320966" lon="9.464531541997555"><ele>1037.0</ele><time>2026-04-25T17:14:25.999Z</time></trkpt><trkpt lat="44.41359886878038" lon="9.464533483455455"><ele>1037.0</ele><time>2026-04-25T17:14:26.999Z</time></trkpt><trkpt lat="44.41349862747957" lon="9.464500407933528"><ele>1037.0</ele><time>2026-04-25T17:14:27.999Z</time></trkpt><trkpt lat="44.413379410510004" lon="9.464469176357131"><ele>1037.0</ele><time>2026-04-25T17:14:28.999Z</time></trkpt><trkpt lat="44.4132486480493" lon="9.464475767098008"><ele>1037.0</ele><time>2026-04-25T17:14:29.999Z</time></trkpt><trkpt lat="44.413131356295345" lon="9.464509654841635"><ele>1037.0</ele><time>2026-04-25T17:14:30.999Z</time></trkpt><trkpt lat="44.41301789746022" lon="9.464576061724397"><ele>1040.6</ele><time>2026-04-25T17:14:31.999Z</time></trkpt><trkpt lat="44.412911113888875" lon="9.46467244015493"><ele>1044.2</ele><time>2026-04-25T17:14:32.999Z</time></trkpt><trkpt lat="44.412819769705536" lon="9.464757728587353"><ele>1047.8</ele><time>2026-04-25T17:14:33.999Z</time></trkpt><trkpt lat="44.4127686885224" lon="9.464826627468344"><ele>1051.4</ele><time>2026-04-25T17:14:34.999Z</time></trkpt><trkpt lat="44.41275704870898" lon="9.46491815743716"><ele>1055.0</ele><time>2026-04-25T17:14:35.999Z</time></trkpt><trkpt lat="44.41278680540591" lon="9.465019130134129"><ele>1055.0</ele><time>2026-04-25T17:14:36.999Z</time></trkpt><trkpt lat="44.41285189235644" lon="9.46511223914342"><ele>1055.0</ele><time>2026-04-25T17:14:37.999Z</time></trkpt><trkpt lat="44.4129497867129" lon="9.465197803879114"><ele>1055.0</ele><time>2026-04-25T17:14:38.999Z</time></trkpt><trkpt lat="44.41303347488418" lon="9.465328867913845"><ele>1055.0</ele><time>2026-04-25T17:14:39.999Z</time></trkpt><trkpt lat="44.41309208948536" lon="9.465466325354953"><ele>1055.0</ele><time>2026-04-25T17:14:40.999Z</time></trkpt><trkpt lat="44.413131882890674" lon="9.465644156566704"><ele>1051.2</ele><time>2026-04-25T17:14:41.999Z</time></trkpt><trkpt lat="44.413171279103196" lon="9.465808243564798"><ele>1047.4</ele><time>2026-04-25T17:14:42.999Z</time></trkpt><trkpt lat="44.413185856734316" lon="9.465950330750836"><ele>1043.6</ele><time>2026-04-25T17:14:43.999Z</time></trkpt><trkpt lat="44.41315168197442" lon="9.46608307526642"><ele>1039.8</ele><time>2026-04-25T17:14:44.999Z</time></trkpt><trkpt lat="44.41314550410832" lon="9.466208758449735"><ele>1036.0</ele><time>2026-04-25T17:14:45.999Z</time></trkpt><trkpt lat="44.413165185742265" lon="9.466355466453487"><ele>1036.0</ele><time>2026-04-25T17:14:46.999Z</time></trkpt><trkpt lat="44.413250356943486" lon="9.466497335526784"><ele>1036.0</ele><time>2026-04-25T17:14:47.999Z</time></trkpt><trkpt lat="44.41330479225719" lon="9.466654636357639"><ele>1036.0</ele><time>2026-04-25T17:14:48.999Z</time></trkpt><trkpt lat="44.41328484093492" lon="9.466828040211373"><ele>1036.0</ele><time>2026-04-25T17:14:49.999Z</time></trkpt><trkpt lat="44.41328977722183" lon="9.46702408651269"><ele>1039.0</ele><time>2026-04-25T17:14:50.999Z</time></trkpt><trkpt lat="44.41333458725571" lon="9.467215886927486"><ele>1042.0</ele><time>2026-04-25T17:14:51.999Z</time></trkpt><trkpt lat="44.4134005967572" lon="9.467404014539051"><ele>1045.0</ele><time>2026-04-25T17:14:52.999Z</time></trkpt><trkpt lat="44.41347088201015" lon="9.467614372484658"><ele>1045.0</ele><time>2026-04-25T17:14:53.999Z</time></trkpt><trkpt lat="44.41352551654912" lon="9.467834892551526"><ele>1045.0</ele><time>2026-04-25T17:14:54.999Z</time></trkpt><trkpt lat="44.41358581135072" lon="9.468032406650302"><ele>1045.0</ele><time>2026-04-25T17:14:55.999Z</time></trkpt><trkpt lat="44.41368268922924" lon="9.468197374663681"><ele>1049.5</ele><time>2026-04-25T17:14:56.999Z</time></trkpt><trkpt lat="44.41377981441918" lon="9.468333736406287"><ele>1054.0</ele><time>2026-04-25T17:14:57.999Z</time></trkpt><trkpt lat="44.41385641378788" lon="9.468467525052839"><ele>1058.5</ele><time>2026-04-25T17:14:58.999Z</time></trkpt><trkpt lat="44.41390831756619" lon="9.46861106601487"><ele>1063.0</ele><time>2026-04-25T17:14:59.999Z</time></trkpt><trkpt lat="44.41393566235474" lon="9.468775653571962"><ele>1053.5</ele><time>2026-04-25T17:15:00.999Z</time></trkpt><trkpt lat="44.41394310248979" lon="9.468970634425949"><ele>1044.0</ele><time>2026-04-25T17:15:01.999Z</time></trkpt><trkpt lat="44.413964680101" lon="9.469135375393233"><ele>1034.5</ele><time>2026-04-25T17:15:02.999Z</time></trkpt><trkpt lat="44.41397629591852" lon="9.469289089067251"><ele>1025.0</ele><time>2026-04-25T17:15:03.999Z</time></trkpt><trkpt lat="44.413957243675576" lon="9.469407576219988"><ele>1025.0</ele><time>2026-04-25T17:15:04.999Z</time></trkpt><trkpt lat="44.41389653311356" lon="9.46951045426872"><ele>1025.0</ele><time>2026-04-25T17:15:05.999Z</time></trkpt><trkpt lat="44.41379014191892" lon="9.469589922989996"><ele>1025.0</ele><time>2026-04-25T17:15:06.999Z</time></trkpt><trkpt lat="44.41366876373464" lon="9.469690611363628"><ele>1025.0</ele><time>2026-04-25T17:15:07.999Z</time></trkpt><trkpt lat="44.413543533627724" lon="9.469833609456893"><ele>1028.5</ele><time>2026-04-25T17:15:08.999Z</time></trkpt><trkpt lat="44.41342315202375" lon="9.469955683615334"><ele>1032.0</ele><time>2026-04-25T17:15:09.999Z</time></trkpt><trkpt lat="44.41330022945369" lon="9.470047819818785"><ele>1035.5</ele><time>2026-04-25T17:15:10.999Z</time></trkpt><trkpt lat="44.41317624993936" lon="9.470123793652833"><ele>1039.0</ele><time>2026-04-25T17:15:11.999Z</time></trkpt><trkpt lat="44.41304558003716" lon="9.47016816826942"><ele>1039.5</ele><time>2026-04-25T17:15:12.999Z</time></trkpt><trkpt lat="44.41291339474083" lon="9.470211648807648"><ele>1040.0</ele><time>2026-04-25T17:15:13.999Z</time></trkpt><trkpt lat="44.41279785170155" lon="9.470335739544577"><ele>1040.5</ele><time>2026-04-25T17:15:14.999Z</time></trkpt><trkpt lat="44.4126760076977" lon="9.470471972897043"><ele>1041.0</ele><time>2026-04-25T17:15:15.999Z</time></trkpt><trkpt lat="44.41254810857433" lon="9.470619278729108"><ele>1041.0</ele><time>2026-04-25T17:15:16.999Z</time></trkpt><trkpt lat="44.41244046567089" lon="9.470833207420608"><ele>1041.0</ele><time>2026-04-25T17:15:17.998Z</time></trkpt><trkpt lat="44.41233028542076" lon="9.471029438653364"><ele>1041.0</ele><time>2026-04-25T17:15:18.998Z</time></trkpt><trkpt lat="44.412211732769364" lon="9.471163739305757"><ele>1041.75</ele><time>2026-04-25T17:15:19.998Z</time></trkpt><trkpt lat="44.41208957373187" lon="9.471267193671228"><ele>1042.5</ele><time>2026-04-25T17:15:20.998Z</time></trkpt><trkpt lat="44.41196293572969" lon="9.471382064648516"><ele>1043.25</ele><time>2026-04-25T17:15:21.998Z</time></trkpt><trkpt lat="44.411851014722714" lon="9.471478208429824"><ele>1044.0</ele><time>2026-04-25T17:15:22.998Z</time></trkpt><trkpt lat="44.41174227384828" lon="9.471535317246785"><ele>1044.0</ele><time>2026-04-25T17:15:23.998Z</time></trkpt><trkpt lat="44.41160377866302" lon="9.471574208346698"><ele>1044.0</ele><time>2026-04-25T17:15:24.998Z</time></trkpt><trkpt lat="44.41144378401499" lon="9.47161995761669"><ele>1044.0</ele><time>2026-04-25T17:15:25.998Z</time></trkpt><trkpt lat="44.41128208728423" lon="9.47166064129723"><ele>1048.2</ele><time>2026-04-25T17:15:26.998Z</time></trkpt><trkpt lat="44.411150508800894" lon="9.4716978563518"><ele>1052.4</ele><time>2026-04-25T17:15:27.998Z</time></trkpt><trkpt lat="44.41104588833293" lon="9.47175365917337"><ele>1056.6</ele><time>2026-04-25T17:15:28.998Z</time></trkpt><trkpt lat="44.41096374966" lon="9.47179219850468"><ele>1060.8</ele><time>2026-04-25T17:15:29.998Z</time></trkpt><trkpt lat="44.41091512149412" lon="9.471853399248376"><ele>1065.0</ele><time>2026-04-25T17:15:30.998Z</time></trkpt><trkpt lat="44.41089630457183" lon="9.471947051997683"><ele>1065.0</ele><time>2026-04-25T17:15:32Z</time></trkpt><trkpt lat="44.41091705148087" lon="9.47204653549184"><ele>1065.0</ele><time>2026-04-25T17:15:33Z</time></trkpt><trkpt lat="44.410966308475395" lon="9.47213332444855"><ele>1065.0</ele><time>2026-04-25T17:15:34Z</time></trkpt><trkpt lat="44.41104463303157" lon="9.472196614811258"><ele>1065.0</ele><time>2026-04-25T17:15:35Z</time></trkpt><trkpt lat="44.411149908292465" lon="9.472252001078799"><ele>1065.0</ele><time>2026-04-25T17:15:36Z</time></trkpt><trkpt lat="44.41126984284499" lon="9.472334734963114"><ele>1060.0</ele><time>2026-04-25T17:15:37Z</time></trkpt><trkpt lat="44.411402398072504" lon="9.47241759337713"><ele>1055.0</ele><time>2026-04-25T17:15:38Z</time></trkpt><trkpt lat="44.411552060374525" lon="9.472510277952845"><ele>1050.0</ele><time>2026-04-25T17:15:39Z</time></trkpt><trkpt lat="44.41168200021095" lon="9.47258091868982"><ele>1045.0</ele><time>2026-04-25T17:15:40Z</time></trkpt><trkpt lat="44.41177710808474" lon="9.472674355032403"><ele>1045.0</ele><time>2026-04-25T17:15:41Z</time></trkpt><trkpt lat="44.41185088499587" lon="9.47276277645082"><ele>1045.0</ele><time>2026-04-25T17:15:42Z</time></trkpt><trkpt lat="44.411892249283184" lon="9.47286062591378"><ele>1045.0</ele><time>2026-04-25T17:15:43Z</time></trkpt><trkpt lat="44.41190449301877" lon="9.472985072929687"><ele>1045.0</ele><time>2026-04-25T17:15:44Z</time></trkpt><trkpt lat="44.41191961969497" lon="9.473164723950326"><ele>1045.0</ele><time>2026-04-25T17:15:45Z</time></trkpt><trkpt lat="44.41194108268661" lon="9.473361274107324"><ele>1048.25</ele><time>2026-04-25T17:15:46Z</time></trkpt><trkpt lat="44.411944330700074" lon="9.473563953383339"><ele>1051.5</ele><time>2026-04-25T17:15:47Z</time></trkpt><trkpt lat="44.41190377205898" lon="9.47375674607289"><ele>1054.75</ele><time>2026-04-25T17:15:48Z</time></trkpt><trkpt lat="44.411863960411495" lon="9.47396817361863"><ele>1058.0</ele><time>2026-04-25T17:15:49Z</time></trkpt><trkpt lat="44.41182382272984" lon="9.474159735684673"><ele>1058.0</ele><time>2026-04-25T17:15:50Z</time></trkpt><trkpt lat="44.411793814313995" lon="9.474343676062487"><ele>1058.0</ele><time>2026-04-25T17:15:51Z</time></trkpt><trkpt lat="44.41177051243405" lon="9.47448378484252"><ele>1058.0</ele><time>2026-04-25T17:15:52Z</time></trkpt><trkpt lat="44.41177201885084" lon="9.47459797884207"><ele>1058.0</ele><time>2026-04-25T17:15:53Z</time></trkpt><trkpt lat="44.41177622532749" lon="9.474702871500314"><ele>1058.0</ele><time>2026-04-25T17:15:54Z</time></trkpt><trkpt lat="44.4118422286703" lon="9.474802427902938"><ele>1059.75</ele><time>2026-04-25T17:15:55Z</time></trkpt><trkpt lat="44.41195569549953" lon="9.474832466791886"><ele>1061.5</ele><time>2026-04-25T17:15:56Z</time></trkpt><trkpt lat="44.41206073399981" lon="9.474849773200534"><ele>1063.25</ele><time>2026-04-25T17:15:57Z</time></trkpt><trkpt lat="44.41218322348049" lon="9.474833349675796"><ele>1065.0</ele><time>2026-04-25T17:15:58Z</time></trkpt><trkpt lat="44.41230948704768" lon="9.474790188991637"><ele>1060.6</ele><time>2026-04-25T17:15:59Z</time></trkpt><trkpt lat="44.41242202006241" lon="9.474758446507188"><ele>1056.2</ele><time>2026-04-25T17:16:00Z</time></trkpt><trkpt lat="44.41250973438213" lon="9.474776694991217"><ele>1051.8</ele><time>2026-04-25T17:16:01Z</time></trkpt><trkpt lat="44.41257377056169" lon="9.474844167506575"><ele>1047.4</ele><time>2026-04-25T17:16:02Z</time></trkpt><trkpt lat="44.41262282917931" lon="9.474936651220894"><ele>1043.0</ele><time>2026-04-25T17:16:03Z</time></trkpt><trkpt lat="44.41263954421089" lon="9.4750579753286"><ele>1043.0</ele><time>2026-04-25T17:16:04Z</time></trkpt><trkpt lat="44.412623649575046" lon="9.475199267704118"><ele>1043.0</ele><time>2026-04-25T17:16:05Z</time></trkpt><trkpt lat="44.41257954505696" lon="9.475354407577097"><ele>1043.0</ele><time>2026-04-25T17:16:06Z</time></trkpt><trkpt lat="44.41254760170379" lon="9.475498656345895"><ele>1043.0</ele><time>2026-04-25T17:16:07Z</time></trkpt><trkpt lat="44.41254068521154" lon="9.475631095705738"><ele>1043.0</ele><time>2026-04-25T17:16:08Z</time></trkpt><trkpt lat="44.41260642637079" lon="9.4757407422988"><ele>1045.25</ele><time>2026-04-25T17:16:08.999Z</time></trkpt><trkpt lat="44.412671609083205" lon="9.475852872274057"><ele>1047.5</ele><time>2026-04-25T17:16:09.999Z</time></trkpt><trkpt lat="44.4127946413624" lon="9.475914205001304"><ele>1049.75</ele><time>2026-04-25T17:16:10.999Z</time></trkpt><trkpt lat="44.41293969263281" lon="9.475981491312377"><ele>1052.0</ele><time>2026-04-25T17:16:11.999Z</time></trkpt><trkpt lat="44.41309532792011" lon="9.47608947715045"><ele>1047.3333333333335</ele><time>2026-04-25T17:16:12.999Z</time></trkpt><trkpt lat="44.413166115127716" lon="9.476148087857405"><ele>1042.6666666666667</ele><time>2026-04-25T17:16:13.999Z</time></trkpt><trkpt lat="44.413207007520924" lon="9.476224331150064"><ele>1038.0</ele><time>2026-04-25T17:16:14.999Z</time></trkpt><trkpt lat="44.4132326123113" lon="9.476318622100203"><ele>1033.3333333333333</ele><time>2026-04-25T17:16:15.999Z</time></trkpt><trkpt lat="44.41320733379411" lon="9.476428181725765"><ele>1028.6666666666665</ele><time>2026-04-25T17:16:16.999Z</time></trkpt><trkpt lat="44.41314158081674" lon="9.47654944571665"><ele>1024.0</ele><time>2026-04-25T17:16:17.999Z</time></trkpt><trkpt lat="44.41303779662655" lon="9.476680752216359"><ele>1032.0</ele><time>2026-04-25T17:16:18.999Z</time></trkpt><trkpt lat="44.4129159209194" lon="9.4768472899715"><ele>1040.0</ele><time>2026-04-25T17:16:19.999Z</time></trkpt><trkpt lat="44.412804928488015" lon="9.477006256917726"><ele>1048.0</ele><time>2026-04-25T17:16:20.999Z</time></trkpt><trkpt lat="44.41270649180523" lon="9.477145107189761"><ele>1048.0</ele><time>2026-04-25T17:16:21.999Z</time></trkpt><trkpt lat="44.41263245376575" lon="9.477284307943568"><ele>1048.0</ele><time>2026-04-25T17:16:22.999Z</time></trkpt><trkpt lat="44.41258825726739" lon="9.477430145826835"><ele>1048.0</ele><time>2026-04-25T17:16:23.999Z</time></trkpt><trkpt lat="44.412550915071876" lon="9.477581665054764"><ele>1048.0</ele><time>2026-04-25T17:16:24.999Z</time></trkpt><trkpt lat="44.4125712346776" lon="9.477754730640067"><ele>1048.0</ele><time>2026-04-25T17:16:25.999Z</time></trkpt><trkpt lat="44.41263175501444" lon="9.47791565052634"><ele>1048.0</ele><time>2026-04-25T17:16:26.999Z</time></trkpt><trkpt lat="44.41274065244613" lon="9.478042440324506"><ele>1048.0</ele><time>2026-04-25T17:16:27.999Z</time></trkpt><trkpt lat="44.41282557533147" lon="9.478186088079214"><ele>1048.0</ele><time>2026-04-25T17:16:28.999Z</time></trkpt><trkpt lat="44.412881553199895" lon="9.478316536801875"><ele>1047.4</ele><time>2026-04-25T17:16:29.999Z</time></trkpt><trkpt lat="44.41289683071477" lon="9.478436487687137"><ele>1046.8</ele><time>2026-04-25T17:16:30.999Z</time></trkpt><trkpt lat="44.41286033724011" lon="9.478558947075538"><ele>1046.2</ele><time>2026-04-25T17:16:31.999Z</time></trkpt><trkpt lat="44.41281543883048" lon="9.478721059467457"><ele>1045.6</ele><time>2026-04-25T17:16:32.999Z</time></trkpt><trkpt lat="44.41277567373916" lon="9.478913715299727"><ele>1045.0</ele><time>2026-04-25T17:16:33.999Z</time></trkpt><trkpt lat="44.41271821316535" lon="9.479107977312172"><ele>1042.75</ele><time>2026-04-25T17:16:34.999Z</time></trkpt><trkpt lat="44.412666139211055" lon="9.479299003899996"><ele>1040.5</ele><time>2026-04-25T17:16:35.999Z</time></trkpt><trkpt lat="44.412616055684666" lon="9.479486627538543"><ele>1038.25</ele><time>2026-04-25T17:16:36.999Z</time></trkpt><trkpt lat="44.412566241142926" lon="9.479670581336931"><ele>1036.0</ele><time>2026-04-25T17:16:37.999Z</time></trkpt><trkpt lat="44.412514001180405" lon="9.479866332028086"><ele>1031.6666666666665</ele><time>2026-04-25T17:16:38.999Z</time></trkpt><trkpt lat="44.41247212773495" lon="9.4800742560422"><ele>1027.3333333333333</ele><time>2026-04-25T17:16:39.999Z</time></trkpt><trkpt lat="44.41244204456025" lon="9.48028680143433"><ele>1023.0</ele><time>2026-04-25T17:16:40.999Z</time></trkpt><trkpt lat="44.41241614450363" lon="9.480483998576519"><ele>1021.5</ele><time>2026-04-25T17:16:41.999Z</time></trkpt><trkpt lat="44.41239544540284" lon="9.480659203654758"><ele>1020.0</ele><time>2026-04-25T17:16:42.999Z</time></trkpt><trkpt lat="44.412390714841884" lon="9.480804335231495"><ele>1018.5</ele><time>2026-04-25T17:16:43.999Z</time></trkpt><trkpt lat="44.41239801038955" lon="9.48095226717509"><ele>1017.0</ele><time>2026-04-25T17:16:44.999Z</time></trkpt><trkpt lat="44.41247994908981" lon="9.481085127874616"><ele>1017.0</ele><time>2026-04-25T17:16:45.999Z</time></trkpt><trkpt lat="44.41255865684826" lon="9.481224788057611"><ele>1017.0</ele><time>2026-04-25T17:16:46.999Z</time></trkpt><trkpt lat="44.41261659145968" lon="9.48139434854629"><ele>1017.0</ele><time>2026-04-25T17:16:47.999Z</time></trkpt><trkpt lat="44.412679852544855" lon="9.481537916992053"><ele>1017.0</ele><time>2026-04-25T17:16:48.999Z</time></trkpt><trkpt lat="44.412725827545366" lon="9.481662182158432"><ele>1017.4000000000001</ele><time>2026-04-25T17:16:49.999Z</time></trkpt><trkpt lat="44.41274123524962" lon="9.481786585612303"><ele>1017.8000000000001</ele><time>2026-04-25T17:16:50.999Z</time></trkpt><trkpt lat="44.41273118668715" lon="9.481911986510436"><ele>1018.2</ele><time>2026-04-25T17:16:51.999Z</time></trkpt><trkpt lat="44.41270502745109" lon="9.48204140203913"><ele>1018.6</ele><time>2026-04-25T17:16:52.999Z</time></trkpt><trkpt lat="44.41261131679169" lon="9.482136561499983"><ele>1019.0</ele><time>2026-04-25T17:16:53.999Z</time></trkpt><trkpt lat="44.412510050599714" lon="9.482275984318095"><ele>1013.0</ele><time>2026-04-25T17:16:54.999Z</time></trkpt><trkpt lat="44.41239351277921" lon="9.482450945530623"><ele>1007.0</ele><time>2026-04-25T17:16:55.999Z</time></trkpt><trkpt lat="44.412261731424685" lon="9.482637976542456"><ele>1001.0</ele><time>2026-04-25T17:16:56.999Z</time></trkpt><trkpt lat="44.41213013762252" lon="9.482823868808008"><ele>1004.0</ele><time>2026-04-25T17:16:57.999Z</time></trkpt><trkpt lat="44.411996424601796" lon="9.483002801199637"><ele>1007.0</ele><time>2026-04-25T17:16:58.999Z</time></trkpt><trkpt lat="44.411866541152115" lon="9.483180239728274"><ele>1010.0</ele><time>2026-04-25T17:16:59.999Z</time></trkpt><trkpt lat="44.411739599896244" lon="9.483344393459598"><ele>1010.0</ele><time>2026-04-25T17:17:00.999Z</time></trkpt><trkpt lat="44.41162513867494" lon="9.483477355880488"><ele>1010.0</ele><time>2026-04-25T17:17:01.999Z</time></trkpt><trkpt lat="44.41152946783243" lon="9.483578555455296"><ele>1010.0</ele><time>2026-04-25T17:17:02.999Z</time></trkpt><trkpt lat="44.41145220607826" lon="9.483675770713923"><ele>1010.0</ele><time>2026-04-25T17:17:03.999Z</time></trkpt><trkpt lat="44.411382276536386" lon="9.483791569519294"><ele>1009.25</ele><time>2026-04-25T17:17:04.999Z</time></trkpt><trkpt lat="44.41134173931647" lon="9.483946814910489"><ele>1008.5</ele><time>2026-04-25T17:17:05.999Z</time></trkpt><trkpt lat="44.41132354097801" lon="9.48412786400556"><ele>1007.75</ele><time>2026-04-25T17:17:06.999Z</time></trkpt><trkpt lat="44.411300831887495" lon="9.484301261989595"><ele>1007.0</ele><time>2026-04-25T17:17:07.999Z</time></trkpt><trkpt lat="44.41127524305205" lon="9.484428598353057"><ele>1007.0</ele><time>2026-04-25T17:17:08.999Z</time></trkpt><trkpt lat="44.41123760258709" lon="9.484528582999046"><ele>1007.0</ele><time>2026-04-25T17:17:09.999Z</time></trkpt><trkpt lat="44.4111879582477" lon="9.484623186531945"><ele>1007.0</ele><time>2026-04-25T17:17:10.999Z</time></trkpt><trkpt lat="44.411100517616916" lon="9.48466798173282"><ele>1007.0</ele><time>2026-04-25T17:17:11.999Z</time></trkpt><trkpt lat="44.410993826839956" lon="9.484657479186204"><ele>1007.0</ele><time>2026-04-25T17:17:12.999Z</time></trkpt><trkpt lat="44.41086971995797" lon="9.484665005749884"><ele>1003.6</ele><time>2026-04-25T17:17:13.999Z</time></trkpt><trkpt lat="44.41074766961993" lon="9.484649094142613"><ele>1000.2</ele><time>2026-04-25T17:17:14.999Z</time></trkpt><trkpt lat="44.410655082851704" lon="9.484659465756176"><ele>996.8</ele><time>2026-04-25T17:17:15.999Z</time></trkpt><trkpt lat="44.4105798272617" lon="9.484688744975081"><ele>993.4</ele><time>2026-04-25T17:17:16.999Z</time></trkpt><trkpt lat="44.41051501541655" lon="9.48479028603452"><ele>990.0</ele><time>2026-04-25T17:17:17.999Z</time></trkpt><trkpt lat="44.4104857270641" lon="9.484938715117245"><ele>990.0</ele><time>2026-04-25T17:17:18.999Z</time></trkpt><trkpt lat="44.41044494017533" lon="9.48511145395562"><ele>990.0</ele><time>2026-04-25T17:17:19.998Z</time></trkpt><trkpt lat="44.41039444963059" lon="9.485290638304885"><ele>990.0</ele><time>2026-04-25T17:17:20.998Z</time></trkpt><trkpt lat="44.41034276588455" lon="9.485450812231845"><ele>990.0</ele><time>2026-04-25T17:17:21.998Z</time></trkpt><trkpt lat="44.41030021783061" lon="9.485582603908593"><ele>985.5</ele><time>2026-04-25T17:17:22.998Z</time></trkpt><trkpt lat="44.4101844425692" lon="9.485645787035399"><ele>981.0</ele><time>2026-04-25T17:17:23.998Z</time></trkpt><trkpt lat="44.41007749698356" lon="9.485748113338552"><ele>976.5</ele><time>2026-04-25T17:17:24.998Z</time></trkpt><trkpt lat="44.40999096688801" lon="9.485833576242456"><ele>972.0</ele><time>2026-04-25T17:17:25.998Z</time></trkpt><trkpt lat="44.40994311711693" lon="9.48595266092244"><ele>972.0</ele><time>2026-04-25T17:17:26.998Z</time></trkpt><trkpt lat="44.409921784393795" lon="9.486123782333065"><ele>972.0</ele><time>2026-04-25T17:17:27.998Z</time></trkpt><trkpt lat="44.409915043325334" lon="9.486342436290723"><ele>972.0</ele><time>2026-04-25T17:17:28.998Z</time></trkpt><trkpt lat="44.40989632785215" lon="9.486577122370585"><ele>972.0</ele><time>2026-04-25T17:17:29.998Z</time></trkpt><trkpt lat="44.40988813535832" lon="9.486797317662557"><ele>969.0</ele><time>2026-04-25T17:17:30.998Z</time></trkpt><trkpt lat="44.40988191672738" lon="9.48699881407458"><ele>966.0</ele><time>2026-04-25T17:17:31.998Z</time></trkpt><trkpt lat="44.409871399877645" lon="9.48716841437419"><ele>963.0</ele><time>2026-04-25T17:17:32.998Z</time></trkpt><trkpt lat="44.40983982131772" lon="9.487281978409891"><ele>960.0</ele><time>2026-04-25T17:17:33.998Z</time></trkpt><trkpt lat="44.40978498026232" lon="9.487365856286187"><ele>957.0</ele><time>2026-04-25T17:17:34.998Z</time></trkpt><trkpt lat="44.4096877509673" lon="9.48740280593123"><ele>950.75</ele><time>2026-04-25T17:17:35.998Z</time></trkpt><trkpt lat="44.40957977097618" lon="9.487512581350124"><ele>944.5</ele><time>2026-04-25T17:17:37Z</time></trkpt><trkpt lat="44.40950028220516" lon="9.48764740321289"><ele>938.25</ele><time>2026-04-25T17:17:38Z</time></trkpt><trkpt lat="44.40944326626053" lon="9.487792846811532"><ele>932.0</ele><time>2026-04-25T17:17:39Z</time></trkpt><trkpt lat="44.40941841468178" lon="9.487986056322463"><ele>932.0</ele><time>2026-04-25T17:17:40Z</time></trkpt><trkpt lat="44.40939704281712" lon="9.4881934048358"><ele>932.0</ele><time>2026-04-25T17:17:41Z</time></trkpt><trkpt lat="44.40940654820046" lon="9.488411307623016"><ele>932.0</ele><time>2026-04-25T17:17:42Z</time></trkpt><trkpt lat="44.40942160843204" lon="9.488634514751249"><ele>936.0</ele><time>2026-04-25T17:17:43Z</time></trkpt><trkpt lat="44.40945207980177" lon="9.488878673520453"><ele>940.0</ele><time>2026-04-25T17:17:44Z</time></trkpt><trkpt lat="44.409497660655" lon="9.489125694317712"><ele>944.0</ele><time>2026-04-25T17:17:45Z</time></trkpt><trkpt lat="44.40952210923823" lon="9.489366204107306"><ele>944.0</ele><time>2026-04-25T17:17:46Z</time></trkpt><trkpt lat="44.409560833447244" lon="9.489582647014903"><ele>944.0</ele><time>2026-04-25T17:17:47Z</time></trkpt><trkpt lat="44.40961340698975" lon="9.489789583204853"><ele>944.0</ele><time>2026-04-25T17:17:48Z</time></trkpt><trkpt lat="44.409687694721" lon="9.48999483361514"><ele>942.3333333333334</ele><time>2026-04-25T17:17:49Z</time></trkpt><trkpt lat="44.40978813337963" lon="9.490200044153267"><ele>940.6666666666667</ele><time>2026-04-25T17:17:50Z</time></trkpt><trkpt lat="44.40990296076476" lon="9.490404007576"><ele>939.0</ele><time>2026-04-25T17:17:51Z</time></trkpt><trkpt lat="44.41001395241872" lon="9.490597719289504"><ele>939.0</ele><time>2026-04-25T17:17:52Z</time></trkpt><trkpt lat="44.41011327890809" lon="9.490796936087362"><ele>939.0</ele><time>2026-04-25T17:17:53Z</time></trkpt><trkpt lat="44.410185976827776" lon="9.491024191588842"><ele>939.0</ele><time>2026-04-25T17:17:54Z</time></trkpt><trkpt lat="44.41024590383692" lon="9.491261456744194"><ele>936.75</ele><time>2026-04-25T17:17:55Z</time></trkpt><trkpt lat="44.41031100248368" lon="9.491467599905167"><ele>934.5</ele><time>2026-04-25T17:17:56Z</time></trkpt><trkpt lat="44.410363524949595" lon="9.49164511547702"><ele>932.25</ele><time>2026-04-25T17:17:57Z</time></trkpt><trkpt lat="44.41044048515864" lon="9.491786712713624"><ele>930.0</ele><time>2026-04-25T17:17:58Z</time></trkpt><trkpt lat="44.41052674854179" lon="9.49191368084078"><ele>927.4</ele><time>2026-04-25T17:17:59Z</time></trkpt><trkpt lat="44.41057288490797" lon="9.492041789268631"><ele>924.8</ele><time>2026-04-25T17:18:00Z</time></trkpt><trkpt lat="44.410609086953734" lon="9.492153407761883"><ele>922.2</ele><time>2026-04-25T17:18:01Z</time></trkpt><trkpt lat="44.41060283828547" lon="9.492276873219868"><ele>919.6</ele><time>2026-04-25T17:18:02Z</time></trkpt><trkpt lat="44.41056677118044" lon="9.492393135305788"><ele>917.0</ele><time>2026-04-25T17:18:03Z</time></trkpt><trkpt lat="44.41051200076936" lon="9.492502349315666"><ele>916.4000000000001</ele><time>2026-04-25T17:18:04Z</time></trkpt><trkpt lat="44.41043454610422" lon="9.492580122367055"><ele>915.8000000000001</ele><time>2026-04-25T17:18:05Z</time></trkpt><trkpt lat="44.41036153309219" lon="9.492609576197259"><ele>915.2</ele><time>2026-04-25T17:18:06Z</time></trkpt><trkpt lat="44.41027050877886" lon="9.492603976758136"><ele>914.6</ele><time>2026-04-25T17:18:07Z</time></trkpt><trkpt lat="44.41018586730805" lon="9.49256660385539"><ele>914.0</ele><time>2026-04-25T17:18:08Z</time></trkpt><trkpt lat="44.41009951692531" lon="9.492471120619195"><ele>914.0</ele><time>2026-04-25T17:18:08.999Z</time></trkpt><trkpt lat="44.410004599330414" lon="9.4923201044831"><ele>914.0</ele><time>2026-04-25T17:18:09.999Z</time></trkpt><trkpt lat="44.40987633583596" lon="9.49217328070462"><ele>914.0</ele><time>2026-04-25T17:18:10.999Z</time></trkpt><trkpt lat="44.40974755397918" lon="9.492030058333217"><ele>915.75</ele><time>2026-04-25T17:18:11.999Z</time></trkpt><trkpt lat="44.40960490608681" lon="9.491927428658796"><ele>917.5</ele><time>2026-04-25T17:18:12.999Z</time></trkpt><trkpt lat="44.40948071479539" lon="9.491838809288605"><ele>919.25</ele><time>2026-04-25T17:18:13.999Z</time></trkpt><trkpt lat="44.40937240743561" lon="9.49178104747084"><ele>921.0</ele><time>2026-04-25T17:18:14.999Z</time></trkpt><trkpt lat="44.40926589227212" lon="9.491769412860611"><ele>921.0</ele><time>2026-04-25T17:18:15.999Z</time></trkpt><trkpt lat="44.40914225865498" lon="9.491807229945104"><ele>921.0</ele><time>2026-04-25T17:18:16.999Z</time></trkpt><trkpt lat="44.40902079105482" lon="9.491882074156036"><ele>921.0</ele><time>2026-04-25T17:18:17.999Z</time></trkpt><trkpt lat="44.40890176173482" lon="9.49193561743716"><ele>921.0</ele><time>2026-04-25T17:18:18.999Z</time></trkpt><trkpt lat="44.40880497090896" lon="9.491870118697088"><ele>918.0</ele><time>2026-04-25T17:18:19.999Z</time></trkpt><trkpt lat="44.4086912265035" lon="9.491798700428937"><ele>915.0</ele><time>2026-04-25T17:18:20.999Z</time></trkpt><trkpt lat="44.408574913925534" lon="9.491756268659092"><ele>912.0</ele><time>2026-04-25T17:18:21.999Z</time></trkpt><trkpt lat="44.408463156291596" lon="9.491749237480994"><ele>909.0</ele><time>2026-04-25T17:18:22.999Z</time></trkpt><trkpt lat="44.4083525638589" lon="9.491801807624997"><ele>909.0</ele><time>2026-04-25T17:18:23.999Z</time></trkpt><trkpt lat="44.40825246095168" lon="9.49190595900748"><ele>909.0</ele><time>2026-04-25T17:18:24.999Z</time></trkpt><trkpt lat="44.40815753661163" lon="9.49205093072347"><ele>909.0</ele><time>2026-04-25T17:18:25.999Z</time></trkpt><trkpt lat="44.40806758982421" lon="9.492204671337458"><ele>909.0</ele><time>2026-04-25T17:18:26.999Z</time></trkpt><trkpt lat="44.407977815783354" lon="9.49239467733483"><ele>903.75</ele><time>2026-04-25T17:18:27.999Z</time></trkpt><trkpt lat="44.407882619484006" lon="9.492594300725244"><ele>898.5</ele><time>2026-04-25T17:18:28.999Z</time></trkpt><trkpt lat="44.40779632617" lon="9.4927677992688"><ele>893.25</ele><time>2026-04-25T17:18:29.999Z</time></trkpt><trkpt lat="44.40773352608718" lon="9.492908518941368"><ele>888.0</ele><time>2026-04-25T17:18:30.999Z</time></trkpt><trkpt lat="44.407691062992114" lon="9.493036387259142"><ele>888.0</ele><time>2026-04-25T17:18:31.999Z</time></trkpt><trkpt lat="44.40768411606886" lon="9.493199125640812"><ele>888.0</ele><time>2026-04-25T17:18:32.999Z</time></trkpt><trkpt lat="44.407703038112594" lon="9.49338269120433"><ele>888.0</ele><time>2026-04-25T17:18:33.999Z</time></trkpt><trkpt lat="44.407691067640435" lon="9.493560752565886"><ele>888.0</ele><time>2026-04-25T17:18:34.999Z</time></trkpt><trkpt lat="44.40764306193175" lon="9.493724982779282"><ele>890.25</ele><time>2026-04-25T17:18:35.999Z</time></trkpt><trkpt lat="44.40756395212626" lon="9.49388197883355"><ele>892.5</ele><time>2026-04-25T17:18:36.999Z</time></trkpt><trkpt lat="44.407456210384986" lon="9.494032314190074"><ele>894.75</ele><time>2026-04-25T17:18:37.999Z</time></trkpt><trkpt lat="44.407310757544195" lon="9.494125940858488"><ele>897.0</ele><time>2026-04-25T17:18:38.999Z</time></trkpt><trkpt lat="44.407182594274815" lon="9.494226987662872"><ele>894.25</ele><time>2026-04-25T17:18:39.999Z</time></trkpt><trkpt lat="44.40706184011169" lon="9.494321356626813"><ele>891.5</ele><time>2026-04-25T17:18:40.999Z</time></trkpt><trkpt lat="44.40697265015363" lon="9.49442115963793"><ele>888.75</ele><time>2026-04-25T17:18:41.999Z</time></trkpt><trkpt lat="44.40687461220462" lon="9.494511605011391"><ele>886.0</ele><time>2026-04-25T17:18:42.999Z</time></trkpt><trkpt lat="44.40678060267039" lon="9.494652909018733"><ele>886.0</ele><time>2026-04-25T17:18:43.999Z</time></trkpt><trkpt lat="44.40668588051864" lon="9.494816318257577"><ele>886.0</ele><time>2026-04-25T17:18:44.999Z</time></trkpt><trkpt lat="44.406587806757344" lon="9.49499032770685"><ele>886.0</ele><time>2026-04-25T17:18:45.999Z</time></trkpt><trkpt lat="44.40649376296469" lon="9.495157894139009"><ele>886.0</ele><time>2026-04-25T17:18:46.999Z</time></trkpt><trkpt lat="44.406404062744244" lon="9.495318073324501"><ele>886.0</ele><time>2026-04-25T17:18:47.999Z</time></trkpt><trkpt lat="44.406326488383336" lon="9.495488887497347"><ele>886.0</ele><time>2026-04-25T17:18:48.999Z</time></trkpt><trkpt lat="44.40623632983496" lon="9.495642187576847"><ele>886.0</ele><time>2026-04-25T17:18:49.999Z</time></trkpt><trkpt lat="44.40615654270985" lon="9.49579389913658"><ele>881.0</ele><time>2026-04-25T17:18:50.999Z</time></trkpt><trkpt lat="44.40608487650851" lon="9.495941150341524"><ele>876.0</ele><time>2026-04-25T17:18:51.999Z</time></trkpt><trkpt lat="44.406028935325246" lon="9.496098573143557"><ele>871.0</ele><time>2026-04-25T17:18:52.999Z</time></trkpt><trkpt lat="44.405984322701144" lon="9.496256260508906"><ele>866.0</ele><time>2026-04-25T17:18:53.999Z</time></trkpt><trkpt lat="44.405954678162765" lon="9.496397962614001"><ele>865.8</ele><time>2026-04-25T17:18:54.999Z</time></trkpt><trkpt lat="44.40595052085675" lon="9.496520910116974"><ele>865.5999999999999</ele><time>2026-04-25T17:18:55.999Z</time></trkpt><trkpt lat="44.405980864214484" lon="9.49664699842826"><ele>865.4</ele><time>2026-04-25T17:18:56.999Z</time></trkpt><trkpt lat="44.40604902139273" lon="9.496783805886198"><ele>865.2</ele><time>2026-04-25T17:18:57.999Z</time></trkpt><trkpt lat="44.4061364523996" lon="9.496936733608022"><ele>865.0</ele><time>2026-04-25T17:18:58.999Z</time></trkpt><trkpt lat="44.40618989607447" lon="9.497119191967045"><ele>860.6666666666666</ele><time>2026-04-25T17:18:59.999Z</time></trkpt><trkpt lat="44.40622429843988" lon="9.497328769899958"><ele>856.3333333333333</ele><time>2026-04-25T17:19:00.999Z</time></trkpt><trkpt lat="44.40624760732695" lon="9.497578556018901"><ele>852.0</ele><time>2026-04-25T17:19:01.999Z</time></trkpt><trkpt lat="44.40629625440676" lon="9.49782137066072"><ele>862.0</ele><time>2026-04-25T17:19:02.999Z</time></trkpt><trkpt lat="44.40634631535126" lon="9.49806770266429"><ele>872.0</ele><time>2026-04-25T17:19:03.999Z</time></trkpt><trkpt lat="44.40639300225882" lon="9.49828706903161"><ele>882.0</ele><time>2026-04-25T17:19:04.999Z</time></trkpt><trkpt lat="44.406418843751396" lon="9.498463483747008"><ele>882.0</ele><time>2026-04-25T17:19:05.999Z</time></trkpt><trkpt lat="44.40645363643016" lon="9.498614904236932"><ele>882.0</ele><time>2026-04-25T17:19:06.999Z</time></trkpt><trkpt lat="44.40649880860097" lon="9.498728796364931"><ele>882.0</ele><time>2026-04-25T17:19:07.999Z</time></trkpt><trkpt lat="44.406507061660264" lon="9.498843124863798"><ele>882.0</ele><time>2026-04-25T17:19:08.999Z</time></trkpt><trkpt lat="44.40647603860875" lon="9.49893962340968"><ele>882.0</ele><time>2026-04-25T17:19:09.999Z</time></trkpt><trkpt lat="44.4064137961978" lon="9.498998578946434"><ele>882.0</ele><time>2026-04-25T17:19:10.999Z</time></trkpt><trkpt lat="44.40633084515" lon="9.499005691652126"><ele>874.6</ele><time>2026-04-25T17:19:11.999Z</time></trkpt><trkpt lat="44.406251049128464" lon="9.498974434430314"><ele>867.2</ele><time>2026-04-25T17:19:12.999Z</time></trkpt><trkpt lat="44.40618835414236" lon="9.498872254404993"><ele>859.8</ele><time>2026-04-25T17:19:13.999Z</time></trkpt><trkpt lat="44.406149305684536" lon="9.498749571447467"><ele>852.4</ele><time>2026-04-25T17:19:14.999Z</time></trkpt><trkpt lat="44.40614307037859" lon="9.498615880654553"><ele>845.0</ele><time>2026-04-25T17:19:15.999Z</time></trkpt><trkpt lat="44.406172255518186" lon="9.498460262309399"><ele>845.0</ele><time>2026-04-25T17:19:16.999Z</time></trkpt><trkpt lat="44.406215834794594" lon="9.498297446551861"><ele>845.0</ele><time>2026-04-25T17:19:17.999Z</time></trkpt><trkpt lat="44.40623356016786" lon="9.498133910874405"><ele>845.0</ele><time>2026-04-25T17:19:18.999Z</time></trkpt><trkpt lat="44.4062114992347" lon="9.497953093417562"><ele>845.0</ele><time>2026-04-25T17:19:19.998Z</time></trkpt><trkpt lat="44.40615177319986" lon="9.49775822870819"><ele>846.75</ele><time>2026-04-25T17:19:20.998Z</time></trkpt><trkpt lat="44.40608263072433" lon="9.497561678729417"><ele>848.5</ele><time>2026-04-25T17:19:21.998Z</time></trkpt><trkpt lat="44.40602147411917" lon="9.49737713995735"><ele>850.25</ele><time>2026-04-25T17:19:22.998Z</time></trkpt><trkpt lat="44.40594742646645" lon="9.497212122703525"><ele>852.0</ele><time>2026-04-25T17:19:23.998Z</time></trkpt><trkpt lat="44.40584611194624" lon="9.497078470691966"><ele>854.6</ele><time>2026-04-25T17:19:24.998Z</time></trkpt><trkpt lat="44.40574280840374" lon="9.496956459285144"><ele>857.2</ele><time>2026-04-25T17:19:25.998Z</time></trkpt><trkpt lat="44.4056556253699" lon="9.496844268304006"><ele>859.8</ele><time>2026-04-25T17:19:26.998Z</time></trkpt><trkpt lat="44.40559734691931" lon="9.496743945383244"><ele>862.4</ele><time>2026-04-25T17:19:27.998Z</time></trkpt><trkpt lat="44.40556960168169" lon="9.496627110558746"><ele>865.0</ele><time>2026-04-25T17:19:28.998Z</time></trkpt><trkpt lat="44.405556746806965" lon="9.496477211294525"><ele>865.0</ele><time>2026-04-25T17:19:29.998Z</time></trkpt><trkpt lat="44.40556816117921" lon="9.496307862793424"><ele>865.0</ele><time>2026-04-25T17:19:30.998Z</time></trkpt><trkpt lat="44.40558445982997" lon="9.496148402643115"><ele>865.0</ele><time>2026-04-25T17:19:31.998Z</time></trkpt><trkpt lat="44.40558332042751" lon="9.496026277834673"><ele>865.0</ele><time>2026-04-25T17:19:32.998Z</time></trkpt><trkpt lat="44.405560340147005" lon="9.495931110784776"><ele>865.0</ele><time>2026-04-25T17:19:33.998Z</time></trkpt><trkpt lat="44.40550350682735" lon="9.495863081554647"><ele>858.4</ele><time>2026-04-25T17:19:34.998Z</time></trkpt><trkpt lat="44.40542802451128" lon="9.495840655639078"><ele>851.8</ele><time>2026-04-25T17:19:35.998Z</time></trkpt><trkpt lat="44.40535506904481" lon="9.495863638245739"><ele>845.2</ele><time>2026-04-25T17:19:36.998Z</time></trkpt><trkpt lat="44.4052962135203" lon="9.495946320755763"><ele>838.6</ele><time>2026-04-25T17:19:37.998Z</time></trkpt><trkpt lat="44.40525325899388" lon="9.496076252606885"><ele>832.0</ele><time>2026-04-25T17:19:38.998Z</time></trkpt><trkpt lat="44.40522826857705" lon="9.496233750947734"><ele>833.0</ele><time>2026-04-25T17:19:39.998Z</time></trkpt><trkpt lat="44.405202213285" lon="9.496412236002124"><ele>834.0</ele><time>2026-04-25T17:19:40.998Z</time></trkpt><trkpt lat="44.40517318753803" lon="9.496589161938754"><ele>835.0</ele><time>2026-04-25T17:19:42Z</time></trkpt><trkpt lat="44.40515765949406" lon="9.496731239885273"><ele>836.0</ele><time>2026-04-25T17:19:43Z</time></trkpt><trkpt lat="44.405170336509684" lon="9.496846541817236"><ele>837.0</ele><time>2026-04-25T17:19:44Z</time></trkpt><trkpt lat="44.405238274488084" lon="9.496962265195398"><ele>840.75</ele><time>2026-04-25T17:19:45Z</time></trkpt><trkpt lat="44.40532482022553" lon="9.497103283312411"><ele>844.5</ele><time>2026-04-25T17:19:46Z</time></trkpt><trkpt lat="44.40539427561504" lon="9.497268062685375"><ele>848.25</ele><time>2026-04-25T17:19:47Z</time></trkpt><trkpt lat="44.4054626398439" lon="9.497446781713602"><ele>852.0</ele><time>2026-04-25T17:19:48Z</time></trkpt><trkpt lat="44.405529536534665" lon="9.497622453552165"><ele>852.0</ele><time>2026-04-25T17:19:49Z</time></trkpt><trkpt lat="44.405591466370254" lon="9.497778494809856"><ele>852.0</ele><time>2026-04-25T17:19:50Z</time></trkpt><trkpt lat="44.40562949288421" lon="9.497899079111457"><ele>852.0</ele><time>2026-04-25T17:19:51Z</time></trkpt><trkpt lat="44.405648685520916" lon="9.498022160702853"><ele>852.0</ele><time>2026-04-25T17:19:52Z</time></trkpt><trkpt lat="44.405644922448126" lon="9.49814911601917"><ele>852.0</ele><time>2026-04-25T17:19:53Z</time></trkpt><trkpt lat="44.405597726517115" lon="9.498263252358907"><ele>850.25</ele><time>2026-04-25T17:19:54Z</time></trkpt><trkpt lat="44.40551766760098" lon="9.498366482628786"><ele>848.5</ele><time>2026-04-25T17:19:55Z</time></trkpt><trkpt lat="44.40541106664435" lon="9.498500095198054"><ele>846.75</ele><time>2026-04-25T17:19:56Z</time></trkpt><trkpt lat="44.40531602879703" lon="9.49863550631732"><ele>845.0</ele><time>2026-04-25T17:19:57Z</time></trkpt><trkpt lat="44.40521991774244" lon="9.498756022827228"><ele>839.6</ele><time>2026-04-25T17:19:58Z</time></trkpt><trkpt lat="44.405143053431125" lon="9.49889270361645"><ele>834.2</ele><time>2026-04-25T17:19:59Z</time></trkpt><trkpt lat="44.40509071008205" lon="9.499030927416461"><ele>828.8</ele><time>2026-04-25T17:20:00Z</time></trkpt><trkpt lat="44.40506946866567" lon="9.4991534138169"><ele>823.4</ele><time>2026-04-25T17:20:01Z</time></trkpt><trkpt lat="44.40507830191581" lon="9.499281249658019"><ele>818.0</ele><time>2026-04-25T17:20:02Z</time></trkpt><trkpt lat="44.40512704211512" lon="9.499408293058474"><ele>818.0</ele><time>2026-04-25T17:20:03Z</time></trkpt><trkpt lat="44.405206524246424" lon="9.499528457132811"><ele>818.0</ele><time>2026-04-25T17:20:04Z</time></trkpt><trkpt lat="44.40532840422206" lon="9.499650488555309"><ele>818.0</ele><time>2026-04-25T17:20:05Z</time></trkpt><trkpt lat="44.405446505337274" lon="9.499798498426406"><ele>818.0</ele><time>2026-04-25T17:20:05.999Z</time></trkpt><trkpt lat="44.40553601812623" lon="9.4999850978686"><ele>819.0</ele><time>2026-04-25T17:20:06.999Z</time></trkpt><trkpt lat="44.405614368658625" lon="9.500149186903366"><ele>820.0</ele><time>2026-04-25T17:20:07.999Z</time></trkpt><trkpt lat="44.40569391518118" lon="9.500265838000782"><ele>821.0</ele><time>2026-04-25T17:20:08.999Z</time></trkpt><trkpt lat="44.40577265264651" lon="9.500375195705265"><ele>822.0</ele><time>2026-04-25T17:20:09.999Z</time></trkpt><trkpt lat="44.40588496100563" lon="9.500470493794177"><ele>820.5</ele><time>2026-04-25T17:20:10.999Z</time></trkpt><trkpt lat="44.4060320446349" lon="9.500543939961982"><ele>819.0</ele><time>2026-04-25T17:20:11.999Z</time></trkpt><trkpt lat="44.4061662577" lon="9.500640051794754"><ele>817.5</ele><time>2026-04-25T17:20:12.999Z</time></trkpt><trkpt lat="44.406280661775035" lon="9.500711429134391"><ele>816.0</ele><time>2026-04-25T17:20:13.999Z</time></trkpt><trkpt lat="44.40637516736145" lon="9.500759399139671"><ele>816.0</ele><time>2026-04-25T17:20:14.999Z</time></trkpt><trkpt lat="44.40642646812622" lon="9.500894520697116"><ele>816.0</ele><time>2026-04-25T17:20:15.999Z</time></trkpt><trkpt lat="44.40646429234284" lon="9.501060461701238"><ele>816.0</ele><time>2026-04-25T17:20:16.999Z</time></trkpt><trkpt lat="44.406531950110434" lon="9.501233878244497"><ele>816.0</ele><time>2026-04-25T17:20:17.999Z</time></trkpt><trkpt lat="44.40659049996675" lon="9.501422012389114"><ele>811.5</ele><time>2026-04-25T17:20:18.999Z</time></trkpt><trkpt lat="44.40666110777262" lon="9.501573475484397"><ele>807.0</ele><time>2026-04-25T17:20:19.999Z</time></trkpt><trkpt lat="44.406748856680025" lon="9.501696611550217"><ele>802.5</ele><time>2026-04-25T17:20:20.999Z</time></trkpt><trkpt lat="44.40685341183792" lon="9.501823525343529"><ele>798.0</ele><time>2026-04-25T17:20:21.999Z</time></trkpt><trkpt lat="44.40697531922737" lon="9.501959443626237"><ele>797.5</ele><time>2026-04-25T17:20:22.999Z</time></trkpt><trkpt lat="44.40709870026968" lon="9.502084999769885"><ele>797.0</ele><time>2026-04-25T17:20:23.999Z</time></trkpt><trkpt lat="44.407233880522405" lon="9.50219512736968"><ele>796.5</ele><time>2026-04-25T17:20:24.999Z</time></trkpt><trkpt lat="44.4073425705568" lon="9.502313993937522"><ele>796.0</ele><time>2026-04-25T17:20:25.999Z</time></trkpt><trkpt lat="44.40743752719658" lon="9.502383074333201"><ele>796.0</ele><time>2026-04-25T17:20:26.999Z</time></trkpt><trkpt lat="44.40749358328273" lon="9.502492502017686"><ele>796.0</ele><time>2026-04-25T17:20:27.999Z</time></trkpt><trkpt lat="44.40749487917808" lon="9.502638734699206"><ele>796.0</ele><time>2026-04-25T17:20:28.999Z</time></trkpt><trkpt lat="44.40747412803593" lon="9.502787880411748"><ele>796.0</ele><time>2026-04-25T17:20:29.999Z</time></trkpt><trkpt lat="44.40744481533108" lon="9.502962275428887"><ele>796.0</ele><time>2026-04-25T17:20:30.999Z</time></trkpt><trkpt lat="44.40743977071064" lon="9.50313954342693"><ele>793.1999999999999</ele><time>2026-04-25T17:20:31.999Z</time></trkpt><trkpt lat="44.40743418552577" lon="9.503288543056398"><ele>790.4</ele><time>2026-04-25T17:20:32.999Z</time></trkpt><trkpt lat="44.407466320847035" lon="9.50340139505327"><ele>787.6</ele><time>2026-04-25T17:20:33.999Z</time></trkpt><trkpt lat="44.40752821925596" lon="9.503501241033568"><ele>784.8</ele><time>2026-04-25T17:20:34.999Z</time></trkpt><trkpt lat="44.407634185162834" lon="9.503574875398328"><ele>782.0</ele><time>2026-04-25T17:20:35.999Z</time></trkpt><trkpt lat="44.407757116612345" lon="9.50363042335649"><ele>782.0</ele><time>2026-04-25T17:20:36.999Z</time></trkpt><trkpt lat="44.40790174281937" lon="9.503675322444503"><ele>782.0</ele><time>2026-04-25T17:20:37.999Z</time></trkpt><trkpt lat="44.40802150272394" lon="9.503753398594354"><ele>782.0</ele><time>2026-04-25T17:20:38.999Z</time></trkpt><trkpt lat="44.408119957497654" lon="9.503902031430737"><ele>782.0</ele><time>2026-04-25T17:20:39.999Z</time></trkpt><trkpt lat="44.40821264949253" lon="9.504088470278896"><ele>780.0</ele><time>2026-04-25T17:20:40.999Z</time></trkpt><trkpt lat="44.408308669477385" lon="9.50429029914075"><ele>778.0</ele><time>2026-04-25T17:20:41.999Z</time></trkpt><trkpt lat="44.40840406229905" lon="9.50447077322869"><ele>776.0</ele><time>2026-04-25T17:20:42.999Z</time></trkpt><trkpt lat="44.40849772955123" lon="9.504638952048849"><ele>772.0</ele><time>2026-04-25T17:20:43.999Z</time></trkpt><trkpt lat="44.4085948914267" lon="9.50479920476094"><ele>768.0</ele><time>2026-04-25T17:20:44.999Z</time></trkpt><trkpt lat="44.408677997768194" lon="9.504925923508802"><ele>764.0</ele><time>2026-04-25T17:20:45.999Z</time></trkpt><trkpt lat="44.4087310833832" lon="9.505061445861136"><ele>760.0</ele><time>2026-04-25T17:20:46.999Z</time></trkpt><trkpt lat="44.4087797136519" lon="9.505175084459047"><ele>760.0</ele><time>2026-04-25T17:20:47.999Z</time></trkpt><trkpt lat="44.40881146716208" lon="9.505304442317918"><ele>760.0</ele><time>2026-04-25T17:20:48.999Z</time></trkpt><trkpt lat="44.40885238437643" lon="9.505460956966209"><ele>760.0</ele><time>2026-04-25T17:20:49.999Z</time></trkpt><trkpt lat="44.40888456451601" lon="9.505634591281707"><ele>760.0</ele><time>2026-04-25T17:20:50.999Z</time></trkpt><trkpt lat="44.40892541263064" lon="9.505794784605238"><ele>760.0</ele><time>2026-04-25T17:20:51.999Z</time></trkpt><trkpt lat="44.408961254221566" lon="9.505946699753004"><ele>760.0</ele><time>2026-04-25T17:20:52.999Z</time></trkpt><trkpt lat="44.40898388813175" lon="9.50611618708911"><ele>760.0</ele><time>2026-04-25T17:20:53.999Z</time></trkpt><trkpt lat="44.40902370404537" lon="9.506263201824147"><ele>760.0</ele><time>2026-04-25T17:20:54.999Z</time></trkpt><trkpt lat="44.4090387511234" lon="9.506405447440457"><ele>760.0</ele><time>2026-04-25T17:20:55.999Z</time></trkpt><trkpt lat="44.40903665103816" lon="9.506559007419693"><ele>760.0</ele><time>2026-04-25T17:20:56.999Z</time></trkpt><trkpt lat="44.40901581921103" lon="9.506724964651111"><ele>760.0</ele><time>2026-04-25T17:20:57.999Z</time></trkpt><trkpt lat="44.40898922048713" lon="9.506890933196155"><ele>760.0</ele><time>2026-04-25T17:20:58.999Z</time></trkpt><trkpt lat="44.4089785558477" lon="9.507053143507715"><ele>760.0</ele><time>2026-04-25T17:20:59.999Z</time></trkpt><trkpt lat="44.40897954031406" lon="9.507217626361689"><ele>760.0</ele><time>2026-04-25T17:21:00.999Z</time></trkpt><trkpt lat="44.40898450336448" lon="9.50738808109685"><ele>760.0</ele><time>2026-04-25T17:21:01.999Z</time></trkpt><trkpt lat="44.4089949440309" lon="9.50755297637706"><ele>760.0</ele><time>2026-04-25T17:21:02.999Z</time></trkpt><trkpt lat="44.40899052547428" lon="9.507711183179971"><ele>760.0</ele><time>2026-04-25T17:21:03.999Z</time></trkpt><trkpt lat="44.40896628259305" lon="9.507866700577742"><ele>760.0</ele><time>2026-04-25T17:21:04.999Z</time></trkpt><trkpt lat="44.408901568491906" lon="9.507993161470665"><ele>760.0</ele><time>2026-04-25T17:21:05.999Z</time></trkpt><trkpt lat="44.40881907347631" lon="9.508157707301255"><ele>760.0</ele><time>2026-04-25T17:21:06.999Z</time></trkpt><trkpt lat="44.408747130067155" lon="9.508351527800913"><ele>754.25</ele><time>2026-04-25T17:21:07.999Z</time></trkpt><trkpt lat="44.40869426220851" lon="9.50854838846467"><ele>748.5</ele><time>2026-04-25T17:21:08.999Z</time></trkpt><trkpt lat="44.40864201675883" lon="9.508713733042311"><ele>742.75</ele><time>2026-04-25T17:21:09.999Z</time></trkpt><trkpt lat="44.40859489827156" lon="9.508852313836515"><ele>737.0</ele><time>2026-04-25T17:21:10.999Z</time></trkpt><trkpt lat="44.4085331080306" lon="9.508956084591757"><ele>737.0</ele><time>2026-04-25T17:21:11.999Z</time></trkpt><trkpt lat="44.40846030940374" lon="9.509039173230713"><ele>737.0</ele><time>2026-04-25T17:21:12.999Z</time></trkpt><trkpt lat="44.40835829806654" lon="9.509103691023121"><ele>737.0</ele><time>2026-04-25T17:21:13.999Z</time></trkpt><trkpt lat="44.4082554013702" lon="9.509201866547748"><ele>737.0</ele><time>2026-04-25T17:21:14.998Z</time></trkpt><trkpt lat="44.4081798318886" lon="9.50933200988227"><ele>737.0</ele><time>2026-04-25T17:21:15.998Z</time></trkpt><trkpt lat="44.40811735050422" lon="9.509446716837887"><ele>737.0</ele><time>2026-04-25T17:21:16.998Z</time></trkpt><trkpt lat="44.408060942777276" lon="9.5095604780583"><ele>737.0</ele><time>2026-04-25T17:21:17.998Z</time></trkpt><trkpt lat="44.408033334360404" lon="9.509659436119126"><ele>737.0</ele><time>2026-04-25T17:21:18.998Z</time></trkpt><trkpt lat="44.408040132554824" lon="9.509762864783925"><ele>737.0</ele><time>2026-04-25T17:21:19.998Z</time></trkpt><trkpt lat="44.40807554412949" lon="9.50986601257354"><ele>737.0</ele><time>2026-04-25T17:21:20.998Z</time></trkpt><trkpt lat="44.40813891837988" lon="9.509985547510125"><ele>737.0</ele><time>2026-04-25T17:21:21.998Z</time></trkpt><trkpt lat="44.408226138543746" lon="9.510098305179385"><ele>737.0</ele><time>2026-04-25T17:21:22.998Z</time></trkpt><trkpt lat="44.408326551841846" lon="9.510191729004744"><ele>737.0</ele><time>2026-04-25T17:21:23.998Z</time></trkpt><trkpt lat="44.40842852379096" lon="9.510246056137987"><ele>737.0</ele><time>2026-04-25T17:21:24.998Z</time></trkpt><trkpt lat="44.40853267798302" lon="9.510271500808193"><ele>737.0</ele><time>2026-04-25T17:21:25.998Z</time></trkpt><trkpt lat="44.40860820769766" lon="9.510328365974964"><ele>737.0</ele><time>2026-04-25T17:21:26.998Z</time></trkpt><trkpt lat="44.4086622714744" lon="9.510418514736955"><ele>737.0</ele><time>2026-04-25T17:21:27.998Z</time></trkpt><trkpt lat="44.40870523698736" lon="9.510538625925752"><ele>737.0</ele><time>2026-04-25T17:21:28.998Z</time></trkpt><trkpt lat="44.408673888487606" lon="9.510683420848531"><ele>737.0</ele><time>2026-04-25T17:21:29.998Z</time></trkpt><trkpt lat="44.40864506594573" lon="9.510839664480123"><ele>733.0</ele><time>2026-04-25T17:21:30.998Z</time></trkpt><trkpt lat="44.408635036622876" lon="9.510990474460973"><ele>729.0</ele><time>2026-04-25T17:21:31.998Z</time></trkpt><trkpt lat="44.40863831029316" lon="9.511149057715242"><ele>725.0</ele><time>2026-04-25T17:21:32.998Z</time></trkpt><trkpt lat="44.40867023335903" lon="9.511318337366825"><ele>721.0</ele><time>2026-04-25T17:21:33.998Z</time></trkpt><trkpt lat="44.40873699415326" lon="9.51150399750684"><ele>723.25</ele><time>2026-04-25T17:21:34.998Z</time></trkpt><trkpt lat="44.408804593222534" lon="9.511690677665886"><ele>725.5</ele><time>2026-04-25T17:21:35.998Z</time></trkpt><trkpt lat="44.408863724748564" lon="9.511864579290203"><ele>727.75</ele><time>2026-04-25T17:21:36.998Z</time></trkpt><trkpt lat="44.40892285768274" lon="9.512013393329534"><ele>730.0</ele><time>2026-04-25T17:21:37.998Z</time></trkpt><trkpt lat="44.40899048313654" lon="9.51213482563368"><ele>726.4</ele><time>2026-04-25T17:21:38.998Z</time></trkpt><trkpt lat="44.409072412465264" lon="9.512222151590974"><ele>722.8</ele><time>2026-04-25T17:21:39.998Z</time></trkpt><trkpt lat="44.40915472162087" lon="9.512293722054327"><ele>719.2</ele><time>2026-04-25T17:21:40.998Z</time></trkpt><trkpt lat="44.409266504745595" lon="9.512306243309858"><ele>715.6</ele><time>2026-04-25T17:21:41.998Z</time></trkpt><trkpt lat="44.40939192364922" lon="9.51232125530489"><ele>712.0</ele><time>2026-04-25T17:21:42.998Z</time></trkpt><trkpt lat="44.40953872863443" lon="9.512324488942498"><ele>712.5</ele><time>2026-04-25T17:21:43.998Z</time></trkpt><trkpt lat="44.40968796488769" lon="9.512324656955121"><ele>713.0</ele><time>2026-04-25T17:21:44.998Z</time></trkpt><trkpt lat="44.40983310592291" lon="9.512316293119717"><ele>713.5</ele><time>2026-04-25T17:21:45.998Z</time></trkpt><trkpt lat="44.40995197901611" lon="9.512333341920822"><ele>714.0</ele><time>2026-04-25T17:21:46.998Z</time></trkpt><trkpt lat="44.410047621417675" lon="9.5123592156575"><ele>714.0</ele><time>2026-04-25T17:21:48Z</time></trkpt><trkpt lat="44.41012688355662" lon="9.512416900802418"><ele>714.0</ele><time>2026-04-25T17:21:49Z</time></trkpt><trkpt lat="44.410187313928525" lon="9.512479817132027"><ele>714.0</ele><time>2026-04-25T17:21:50Z</time></trkpt><trkpt lat="44.41017011413828" lon="9.512610976323705"><ele>714.0</ele><time>2026-04-25T17:21:51Z</time></trkpt><trkpt lat="44.41015276457743" lon="9.512724307089337"><ele>714.0</ele><time>2026-04-25T17:21:52Z</time></trkpt><trkpt lat="44.41018226251112" lon="9.51285027262514"><ele>714.0</ele><time>2026-04-25T17:21:53Z</time></trkpt><trkpt lat="44.410207788794956" lon="9.512996052116252"><ele>710.0</ele><time>2026-04-25T17:21:54Z</time></trkpt><trkpt lat="44.410239010756975" lon="9.51314163240157"><ele>706.0</ele><time>2026-04-25T17:21:55Z</time></trkpt><trkpt lat="44.410253737422565" lon="9.51329256757581"><ele>702.0</ele><time>2026-04-25T17:21:56Z</time></trkpt><trkpt lat="44.410287198278795" lon="9.513457036235634"><ele>698.0</ele><time>2026-04-25T17:21:57Z</time></trkpt><trkpt lat="44.410338376901876" lon="9.513640066391648"><ele>694.5</ele><time>2026-04-25T17:21:58Z</time></trkpt><trkpt lat="44.41037149133565" lon="9.513827677891506"><ele>691.0</ele><time>2026-04-25T17:21:59Z</time></trkpt><trkpt lat="44.410413648381216" lon="9.51401720698849"><ele>687.5</ele><time>2026-04-25T17:22:00Z</time></trkpt><trkpt lat="44.41045162988495" lon="9.514209783786667"><ele>684.0</ele><time>2026-04-25T17:22:01Z</time></trkpt><trkpt lat="44.41048951358936" lon="9.514388156473567"><ele>689.25</ele><time>2026-04-25T17:22:02Z</time></trkpt><trkpt lat="44.410533092557216" lon="9.514556965574842"><ele>694.5</ele><time>2026-04-25T17:22:03Z</time></trkpt><trkpt lat="44.41059288995716" lon="9.514715024319727"><ele>699.75</ele><time>2026-04-25T17:22:04Z</time></trkpt><trkpt lat="44.4106656861102" lon="9.514854686406116"><ele>705.0</ele><time>2026-04-25T17:22:05Z</time></trkpt><trkpt lat="44.41072883434106" lon="9.514973472189865"><ele>705.0</ele><time>2026-04-25T17:22:06Z</time></trkpt><trkpt lat="44.41076628225916" lon="9.515084188731752"><ele>705.0</ele><time>2026-04-25T17:22:07Z</time></trkpt><trkpt lat="44.41075864512653" lon="9.515190488261117"><ele>705.0</ele><time>2026-04-25T17:22:08Z</time></trkpt><trkpt lat="44.41072291199793" lon="9.515280597383025"><ele>705.0</ele><time>2026-04-25T17:22:08.999Z</time></trkpt><trkpt lat="44.410644151210995" lon="9.515333729425649"><ele>705.0</ele><time>2026-04-25T17:22:09.999Z</time></trkpt><trkpt lat="44.410536111726586" lon="9.515341331313524"><ele>705.0</ele><time>2026-04-25T17:22:10.999Z</time></trkpt><trkpt lat="44.410407425755444" lon="9.515325394644007"><ele>700.25</ele><time>2026-04-25T17:22:11.999Z</time></trkpt><trkpt lat="44.41026678662323" lon="9.515315353424407"><ele>695.5</ele><time>2026-04-25T17:22:12.999Z</time></trkpt><trkpt lat="44.41013610623719" lon="9.51531210499251"><ele>690.75</ele><time>2026-04-25T17:22:13.999Z</time></trkpt><trkpt lat="44.41001536391441" lon="9.515292839962644"><ele>686.0</ele><time>2026-04-25T17:22:14.999Z</time></trkpt><trkpt lat="44.40989888800717" lon="9.515283112767095"><ele>686.0</ele><time>2026-04-25T17:22:15.999Z</time></trkpt><trkpt lat="44.409787155031076" lon="9.515310437069232"><ele>686.0</ele><time>2026-04-25T17:22:16.999Z</time></trkpt><trkpt lat="44.40967807986374" lon="9.515367156834367"><ele>686.0</ele><time>2026-04-25T17:22:17.999Z</time></trkpt><trkpt lat="44.409586135318804" lon="9.515444778565332"><ele>686.0</ele><time>2026-04-25T17:22:18.999Z</time></trkpt><trkpt lat="44.40951160790162" lon="9.51553092163413"><ele>686.0</ele><time>2026-04-25T17:22:19.999Z</time></trkpt><trkpt lat="44.409447491459396" lon="9.515617235014144"><ele>684.25</ele><time>2026-04-25T17:22:20.999Z</time></trkpt><trkpt lat="44.40940276771671" lon="9.51571953083365"><ele>682.5</ele><time>2026-04-25T17:22:21.999Z</time></trkpt><trkpt lat="44.40938022447675" lon="9.515858683925558"><ele>680.75</ele><time>2026-04-25T17:22:22.999Z</time></trkpt><trkpt lat="44.409379665284206" lon="9.516051278253995"><ele>679.0</ele><time>2026-04-25T17:22:23.999Z</time></trkpt><trkpt lat="44.409371269908576" lon="9.516268971691533"><ele>679.0</ele><time>2026-04-25T17:22:24.999Z</time></trkpt><trkpt lat="44.40935337358088" lon="9.516509319804774"><ele>679.0</ele><time>2026-04-25T17:22:25.999Z</time></trkpt><trkpt lat="44.409330032307736" lon="9.516727006925741"><ele>679.0</ele><time>2026-04-25T17:22:26.999Z</time></trkpt><trkpt lat="44.40931383654368" lon="9.516916306021534"><ele>678.0</ele><time>2026-04-25T17:22:27.999Z</time></trkpt><trkpt lat="44.40931163568533" lon="9.517071761675563"><ele>677.0</ele><time>2026-04-25T17:22:28.999Z</time></trkpt><trkpt lat="44.409336493956765" lon="9.517198576798028"><ele>676.0</ele><time>2026-04-25T17:22:29.999Z</time></trkpt><trkpt lat="44.40938821372569" lon="9.517321397182858"><ele>675.0</ele><time>2026-04-25T17:22:30.999Z</time></trkpt><trkpt lat="44.40947787187562" lon="9.517434888703852"><ele>674.0</ele><time>2026-04-25T17:22:31.999Z</time></trkpt><trkpt lat="44.40957165876323" lon="9.517557546255235"><ele>674.0</ele><time>2026-04-25T17:22:32.999Z</time></trkpt><trkpt lat="44.40963659415755" lon="9.51768789663014"><ele>674.0</ele><time>2026-04-25T17:22:33.999Z</time></trkpt><trkpt lat="44.40966721861759" lon="9.517825188567526"><ele>674.0</ele><time>2026-04-25T17:22:34.999Z</time></trkpt><trkpt lat="44.40966749063452" lon="9.517970447421083"><ele>674.0</ele><time>2026-04-25T17:22:35.999Z</time></trkpt><trkpt lat="44.40962874657629" lon="9.5181314784303"><ele>674.0</ele><time>2026-04-25T17:22:36.999Z</time></trkpt><trkpt lat="44.40960444474061" lon="9.518324323392607"><ele>672.2</ele><time>2026-04-25T17:22:37.999Z</time></trkpt><trkpt lat="44.40955989688486" lon="9.51850443041256"><ele>670.4000000000001</ele><time>2026-04-25T17:22:38.999Z</time></trkpt><trkpt lat="44.40953256634302" lon="9.518662200808686"><ele>668.6</ele><time>2026-04-25T17:22:39.999Z</time></trkpt><trkpt lat="44.40953117408334" lon="9.518808541165832"><ele>666.8</ele><time>2026-04-25T17:22:40.999Z</time></trkpt><trkpt lat="44.40954984593615" lon="9.518935495927824"><ele>665.0</ele><time>2026-04-25T17:22:41.999Z</time></trkpt><trkpt lat="44.40959804027627" lon="9.519056955494605"><ele>670.0</ele><time>2026-04-25T17:22:42.999Z</time></trkpt><trkpt lat="44.40967996781548" lon="9.519196937200737"><ele>675.0</ele><time>2026-04-25T17:22:43.999Z</time></trkpt><trkpt lat="44.409785021790064" lon="9.51935365266261"><ele>680.0</ele><time>2026-04-25T17:22:44.999Z</time></trkpt><trkpt lat="44.40989324691266" lon="9.519522761032858"><ele>685.0</ele><time>2026-04-25T17:22:45.999Z</time></trkpt><trkpt lat="44.409991617208384" lon="9.51967656220923"><ele>685.0</ele><time>2026-04-25T17:22:46.999Z</time></trkpt><trkpt lat="44.4100789784146" lon="9.519815632282555"><ele>685.0</ele><time>2026-04-25T17:22:47.999Z</time></trkpt><trkpt lat="44.410137734603445" lon="9.519948341970323"><ele>685.0</ele><time>2026-04-25T17:22:48.999Z</time></trkpt><trkpt lat="44.41019045992486" lon="9.52002089900161"><ele>685.0</ele><time>2026-04-25T17:22:49.999Z</time></trkpt><trkpt lat="44.4101998275221" lon="9.520110032970223"><ele>685.0</ele><time>2026-04-25T17:22:50.999Z</time></trkpt><trkpt lat="44.4101734131159" lon="9.520204596015002"><ele>685.0</ele><time>2026-04-25T17:22:51.999Z</time></trkpt><trkpt lat="44.41009510852508" lon="9.520264511217349"><ele>685.0</ele><time>2026-04-25T17:22:52.999Z</time></trkpt><trkpt lat="44.410017930109916" lon="9.520282653273743"><ele>685.0</ele><time>2026-04-25T17:22:53.999Z</time></trkpt><trkpt lat="44.40993092213016" lon="9.520293235629971"><ele>685.0</ele><time>2026-04-25T17:22:54.999Z</time></trkpt><trkpt lat="44.409831395229446" lon="9.520351280242714"><ele>685.0</ele><time>2026-04-25T17:22:55.999Z</time></trkpt><trkpt lat="44.40971961115185" lon="9.520434945110916"><ele>685.0</ele><time>2026-04-25T17:22:56.999Z</time></trkpt><trkpt lat="44.40959755110397" lon="9.520540332129737"><ele>685.0</ele><time>2026-04-25T17:22:57.999Z</time></trkpt><trkpt lat="44.40947911896544" lon="9.520662981932707"><ele>685.0</ele><time>2026-04-25T17:22:58.999Z</time></trkpt><trkpt lat="44.409360703201564" lon="9.520777789808047"><ele>685.0</ele><time>2026-04-25T17:22:59.999Z</time></trkpt><trkpt lat="44.409248056311675" lon="9.52088790120359"><ele>685.0</ele><time>2026-04-25T17:23:00.999Z</time></trkpt><trkpt lat="44.409131959932026" lon="9.521014060989913"><ele>685.0</ele><time>2026-04-25T17:23:01.999Z</time></trkpt><trkpt lat="44.40901604271795" lon="9.521159458763094"><ele>685.0</ele><time>2026-04-25T17:23:02.999Z</time></trkpt><trkpt lat="44.40888969553012" lon="9.521315811011632"><ele>682.6666666666667</ele><time>2026-04-25T17:23:03.999Z</time></trkpt><trkpt lat="44.40876977584214" lon="9.521468335653944"><ele>680.3333333333334</ele><time>2026-04-25T17:23:04.999Z</time></trkpt><trkpt lat="44.40865447150841" lon="9.521612456045498"><ele>678.0</ele><time>2026-04-25T17:23:05.999Z</time></trkpt><trkpt lat="44.408539675765596" lon="9.521734607606193"><ele>678.0</ele><time>2026-04-25T17:23:06.999Z</time></trkpt><trkpt lat="44.4084103369875" lon="9.521841313718664"><ele>678.0</ele><time>2026-04-25T17:23:07.999Z</time></trkpt><trkpt lat="44.408271728239384" lon="9.521940615215417"><ele>678.0</ele><time>2026-04-25T17:23:08.999Z</time></trkpt><trkpt lat="44.408138953251516" lon="9.52203787210897"><ele>680.75</ele><time>2026-04-25T17:23:09.999Z</time></trkpt><trkpt lat="44.40801347736214" lon="9.52213288476466"><ele>683.5</ele><time>2026-04-25T17:23:10.999Z</time></trkpt><trkpt lat="44.40789624006611" lon="9.522232510993131"><ele>686.25</ele><time>2026-04-25T17:23:11.999Z</time></trkpt><trkpt lat="44.4077898731208" lon="9.522322215351135"><ele>689.0</ele><time>2026-04-25T17:23:12.999Z</time></trkpt><trkpt lat="44.407710343609246" lon="9.522415062606427"><ele>685.4000000000001</ele><time>2026-04-25T17:23:13.999Z</time></trkpt><trkpt lat="44.40766076366984" lon="9.522532069622914"><ele>681.8</ele><time>2026-04-25T17:23:14.999Z</time></trkpt><trkpt lat="44.40763943988203" lon="9.522667485848277"><ele>678.2</ele><time>2026-04-25T17:23:15.999Z</time></trkpt><trkpt lat="44.40765331126354" lon="9.522826660078495"><ele>674.5999999999999</ele><time>2026-04-25T17:23:16.999Z</time></trkpt><trkpt lat="44.407696390102885" lon="9.52301024815173"><ele>671.0</ele><time>2026-04-25T17:23:17.999Z</time></trkpt><trkpt lat="44.407743126793946" lon="9.523207592355877"><ele>671.0</ele><time>2026-04-25T17:23:18.999Z</time></trkpt><trkpt lat="44.40777967164895" lon="9.523395529602785"><ele>671.0</ele><time>2026-04-25T17:23:19.999Z</time></trkpt><trkpt lat="44.4077816108854" lon="9.523572567144987"><ele>671.0</ele><time>2026-04-25T17:23:20.999Z</time></trkpt><trkpt lat="44.40777084407175" lon="9.523716011846968"><ele>671.0</ele><time>2026-04-25T17:23:21.998Z</time></trkpt><trkpt lat="44.40773849066117" lon="9.523861175721866"><ele>671.0</ele><time>2026-04-25T17:23:22.998Z</time></trkpt><trkpt lat="44.407658865344466" lon="9.524002804345688"><ele>671.0</ele><time>2026-04-25T17:23:23.998Z</time></trkpt><trkpt lat="44.407630859723085" lon="9.524183226435815"><ele>671.0</ele><time>2026-04-25T17:23:24.998Z</time></trkpt><trkpt lat="44.407589588093416" lon="9.52434885549436"><ele>671.0</ele><time>2026-04-25T17:23:25.998Z</time></trkpt><trkpt lat="44.40738664820365" lon="9.524422662462113"><ele>671.0</ele><time>2026-04-25T17:23:26.998Z</time></trkpt><trkpt lat="44.40735152386739" lon="9.524562085374958"><ele>671.0</ele><time>2026-04-25T17:23:27.998Z</time></trkpt><trkpt lat="44.407359241078524" lon="9.524705346761762"><ele>671.0</ele><time>2026-04-25T17:23:28.998Z</time></trkpt><trkpt lat="44.40739545569224" lon="9.524847775315068"><ele>671.0</ele><time>2026-04-25T17:23:29.998Z</time></trkpt><trkpt lat="44.407457678547196" lon="9.524991583699618"><ele>671.0</ele><time>2026-04-25T17:23:30.998Z</time></trkpt><trkpt lat="44.407542080114396" lon="9.52513747815837"><ele>670.0</ele><time>2026-04-25T17:23:31.998Z</time></trkpt><trkpt lat="44.407654428860745" lon="9.525286202141622"><ele>669.0</ele><time>2026-04-25T17:23:32.998Z</time></trkpt><trkpt lat="44.407756900093645" lon="9.52544200225065"><ele>668.0</ele><time>2026-04-25T17:23:33.998Z</time></trkpt><trkpt lat="44.40783420722845" lon="9.525596625704281"><ele>667.0</ele><time>2026-04-25T17:23:34.998Z</time></trkpt><trkpt lat="44.40788148462782" lon="9.525776247191049"><ele>665.25</ele><time>2026-04-25T17:23:35.998Z</time></trkpt><trkpt lat="44.40791077766805" lon="9.525985525317106"><ele>663.5</ele><time>2026-04-25T17:23:36.998Z</time></trkpt><trkpt lat="44.40792843662031" lon="9.526197509248416"><ele>661.75</ele><time>2026-04-25T17:23:37.998Z</time></trkpt><trkpt lat="44.40794131328119" lon="9.52638847875459"><ele>660.0</ele><time>2026-04-25T17:23:38.998Z</time></trkpt><trkpt lat="44.407919924340774" lon="9.526580231344253"><ele>658.3333333333334</ele><time>2026-04-25T17:23:39.998Z</time></trkpt><trkpt lat="44.40787023279552" lon="9.526787535912968"><ele>656.6666666666667</ele><time>2026-04-25T17:23:40.998Z</time></trkpt><trkpt lat="44.40782254798335" lon="9.527008838177965"><ele>655.0</ele><time>2026-04-25T17:23:41.998Z</time></trkpt><trkpt lat="44.4077785736533" lon="9.527232471284696"><ele>655.0</ele><time>2026-04-25T17:23:42.998Z</time></trkpt><trkpt lat="44.40774336934489" lon="9.527440963009928"><ele>655.0</ele><time>2026-04-25T17:23:43.998Z</time></trkpt><trkpt lat="44.40770687011456" lon="9.52764641818845"><ele>655.0</ele><time>2026-04-25T17:23:44.998Z</time></trkpt><trkpt lat="44.407669333503286" lon="9.5278440075864"><ele>656.75</ele><time>2026-04-25T17:23:45.998Z</time></trkpt><trkpt lat="44.40761965459405" lon="9.528025304141329"><ele>658.5</ele><time>2026-04-25T17:23:46.998Z</time></trkpt><trkpt lat="44.40754414615842" lon="9.528181209731978"><ele>660.25</ele><time>2026-04-25T17:23:47.998Z</time></trkpt><trkpt lat="44.40745514277248" lon="9.528324663827533"><ele>662.0</ele><time>2026-04-25T17:23:48.998Z</time></trkpt><trkpt lat="44.40736016374678" lon="9.528437308380955"><ele>662.0</ele><time>2026-04-25T17:23:49.998Z</time></trkpt><trkpt lat="44.40724638185578" lon="9.528520001589937"><ele>662.0</ele><time>2026-04-25T17:23:50.998Z</time></trkpt><trkpt lat="44.407112270283854" lon="9.528598863392936"><ele>662.0</ele><time>2026-04-25T17:23:51.998Z</time></trkpt><trkpt lat="44.40697087689388" lon="9.528668702603234"><ele>662.0</ele><time>2026-04-25T17:23:52.998Z</time></trkpt><trkpt lat="44.406834512173134" lon="9.528740206909537"><ele>660.25</ele><time>2026-04-25T17:23:54Z</time></trkpt><trkpt lat="44.4067122542793" lon="9.528799303102948"><ele>658.5</ele><time>2026-04-25T17:23:55Z</time></trkpt><trkpt lat="44.4066103555923" lon="9.528862482313482"><ele>656.75</ele><time>2026-04-25T17:23:56Z</time></trkpt><trkpt lat="44.406522050100804" lon="9.528957056715619"><ele>655.0</ele><time>2026-04-25T17:23:57Z</time></trkpt><trkpt lat="44.40646085517705" lon="9.529074704971334"><ele>655.0</ele><time>2026-04-25T17:23:58Z</time></trkpt><trkpt lat="44.40643173296324" lon="9.529217485996478"><ele>655.0</ele><time>2026-04-25T17:23:59Z</time></trkpt><trkpt lat="44.40642991599443" lon="9.52940606772753"><ele>655.0</ele><time>2026-04-25T17:24:00Z</time></trkpt><trkpt lat="44.40644324053461" lon="9.529620417024251"><ele>655.0</ele><time>2026-04-25T17:24:01Z</time></trkpt><trkpt lat="44.406451742377534" lon="9.529828104545466"><ele>656.0</ele><time>2026-04-25T17:24:02Z</time></trkpt><trkpt lat="44.40638892062671" lon="9.530000105430906"><ele>657.0</ele><time>2026-04-25T17:24:03Z</time></trkpt><trkpt lat="44.4063480377979" lon="9.530208674158656"><ele>658.0</ele><time>2026-04-25T17:24:04Z</time></trkpt><trkpt lat="44.4062976446946" lon="9.53040560190673"><ele>659.0</ele><time>2026-04-25T17:24:05Z</time></trkpt><trkpt lat="44.40625903790272" lon="9.530588781461962"><ele>653.6666666666666</ele><time>2026-04-25T17:24:06Z</time></trkpt><trkpt lat="44.4062412141895" lon="9.53079226114757"><ele>648.3333333333334</ele><time>2026-04-25T17:24:07Z</time></trkpt><trkpt lat="44.406226221549446" lon="9.531011076063997"><ele>643.0</ele><time>2026-04-25T17:24:08Z</time></trkpt><trkpt lat="44.40620690154332" lon="9.531238437462864"><ele>643.0</ele><time>2026-04-25T17:24:09Z</time></trkpt><trkpt lat="44.40617427191534" lon="9.531452379186794"><ele>643.0</ele><time>2026-04-25T17:24:09.999Z</time></trkpt><trkpt lat="44.40614602004142" lon="9.531658059047802"><ele>643.0</ele><time>2026-04-25T17:24:10.999Z</time></trkpt><trkpt lat="44.406121109524456" lon="9.531851203152494"><ele>643.0</ele><time>2026-04-25T17:24:11.999Z</time></trkpt><trkpt lat="44.406090047503184" lon="9.53203447154601"><ele>645.3333333333334</ele><time>2026-04-25T17:24:12.999Z</time></trkpt><trkpt lat="44.406040261756246" lon="9.532210529745793"><ele>647.6666666666666</ele><time>2026-04-25T17:24:13.999Z</time></trkpt><trkpt lat="44.4059504359345" lon="9.53238207654331"><ele>650.0</ele><time>2026-04-25T17:24:14.999Z</time></trkpt><trkpt lat="44.405826632664" lon="9.53255712815091"><ele>650.0</ele><time>2026-04-25T17:24:15.999Z</time></trkpt><trkpt lat="44.405678391711454" lon="9.5327141327602"><ele>650.0</ele><time>2026-04-25T17:24:16.999Z</time></trkpt><trkpt lat="44.40553147797409" lon="9.532851558774118"><ele>650.0</ele><time>2026-04-25T17:24:17.999Z</time></trkpt><trkpt lat="44.405390262026884" lon="9.532955178905173"><ele>649.25</ele><time>2026-04-25T17:24:18.999Z</time></trkpt><trkpt lat="44.40525556344944" lon="9.533046783178428"><ele>648.5</ele><time>2026-04-25T17:24:19.999Z</time></trkpt><trkpt lat="44.40513111980926" lon="9.53313491031303"><ele>647.75</ele><time>2026-04-25T17:24:20.999Z</time></trkpt><trkpt lat="44.405022489936954" lon="9.533232876105462"><ele>647.0</ele><time>2026-04-25T17:24:21.999Z</time></trkpt><trkpt lat="44.404918753280775" lon="9.533316892202697"><ele>647.0</ele><time>2026-04-25T17:24:22.999Z</time></trkpt><trkpt lat="44.40481949328002" lon="9.53335877106135"><ele>647.0</ele><time>2026-04-25T17:24:23.999Z</time></trkpt><trkpt lat="44.40471508985278" lon="9.533361085741978"><ele>647.0</ele><time>2026-04-25T17:24:24.999Z</time></trkpt><trkpt lat="44.40459930978636" lon="9.533313688603124"><ele>647.0</ele><time>2026-04-25T17:24:25.999Z</time></trkpt><trkpt lat="44.40449054331385" lon="9.53324864272661"><ele>647.0</ele><time>2026-04-25T17:24:26.999Z</time></trkpt><trkpt lat="44.404383452453374" lon="9.53322707120101"><ele>644.4</ele><time>2026-04-25T17:24:27.999Z</time></trkpt><trkpt lat="44.4042927020569" lon="9.533235287126892"><ele>641.8000000000001</ele><time>2026-04-25T17:24:28.999Z</time></trkpt><trkpt lat="44.40419328735279" lon="9.53328072542025"><ele>639.2</ele><time>2026-04-25T17:24:29.999Z</time></trkpt><trkpt lat="44.40410259393324" lon="9.533349004616102"><ele>636.6</ele><time>2026-04-25T17:24:30.999Z</time></trkpt><trkpt lat="44.404032418697646" lon="9.533453033940981"><ele>634.0</ele><time>2026-04-25T17:24:31.999Z</time></trkpt><trkpt lat="44.40397290610962" lon="9.533592253773264"><ele>637.3333333333334</ele><time>2026-04-25T17:24:32.999Z</time></trkpt><trkpt lat="44.40391909696179" lon="9.533786634264551"><ele>640.6666666666666</ele><time>2026-04-25T17:24:33.999Z</time></trkpt><trkpt lat="44.403868561755154" lon="9.53401362373455"><ele>644.0</ele><time>2026-04-25T17:24:34.999Z</time></trkpt><trkpt lat="44.40382112358736" lon="9.53426011074826"><ele>641.25</ele><time>2026-04-25T17:24:35.999Z</time></trkpt><trkpt lat="44.403766889901206" lon="9.534473236396815"><ele>638.5</ele><time>2026-04-25T17:24:36.999Z</time></trkpt><trkpt lat="44.40371005764122" lon="9.534630186498786"><ele>635.75</ele><time>2026-04-25T17:24:37.999Z</time></trkpt><trkpt lat="44.403638746098515" lon="9.534745726403294"><ele>633.0</ele><time>2026-04-25T17:24:38.999Z</time></trkpt><trkpt lat="44.40353180257578" lon="9.534838252705844"><ele>633.0</ele><time>2026-04-25T17:24:39.999Z</time></trkpt><trkpt lat="44.40340282059893" lon="9.534904064765312"><ele>633.0</ele><time>2026-04-25T17:24:40.999Z</time></trkpt><trkpt lat="44.40327010692011" lon="9.534932718532271"><ele>633.0</ele><time>2026-04-25T17:24:41.999Z</time></trkpt><trkpt lat="44.40315425114166" lon="9.534937302844936"><ele>633.0</ele><time>2026-04-25T17:24:42.999Z</time></trkpt><trkpt lat="44.40308086282356" lon="9.535007772467585"><ele>633.0</ele><time>2026-04-25T17:24:43.999Z</time></trkpt><trkpt lat="44.4030049467675" lon="9.535089675892849"><ele>633.0</ele><time>2026-04-25T17:24:44.999Z</time></trkpt><trkpt lat="44.40293247255008" lon="9.53522796280532"><ele>633.0</ele><time>2026-04-25T17:24:45.999Z</time></trkpt><trkpt lat="44.402860541853194" lon="9.535377900111245"><ele>633.0</ele><time>2026-04-25T17:24:46.999Z</time></trkpt><trkpt lat="44.40280557783982" lon="9.535544555725364"><ele>628.25</ele><time>2026-04-25T17:24:47.999Z</time></trkpt><trkpt lat="44.402762315178705" lon="9.535752961262613"><ele>623.5</ele><time>2026-04-25T17:24:48.999Z</time></trkpt><trkpt lat="44.40271597356549" lon="9.53595071240933"><ele>618.75</ele><time>2026-04-25T17:24:49.999Z</time></trkpt><trkpt lat="44.40267725255369" lon="9.536105873261636"><ele>614.0</ele><time>2026-04-25T17:24:50.999Z</time></trkpt><trkpt lat="44.402653898851746" lon="9.536235346324721"><ele>613.75</ele><time>2026-04-25T17:24:51.999Z</time></trkpt><trkpt lat="44.402658819072876" lon="9.536376478679863"><ele>613.5</ele><time>2026-04-25T17:24:52.999Z</time></trkpt><trkpt lat="44.40269140360985" lon="9.536554056559254"><ele>613.25</ele><time>2026-04-25T17:24:53.999Z</time></trkpt><trkpt lat="44.40271476230932" lon="9.536752477680599"><ele>613.0</ele><time>2026-04-25T17:24:54.999Z</time></trkpt><trkpt lat="44.402672288858454" lon="9.536951670474437"><ele>612.0</ele><time>2026-04-25T17:24:55.999Z</time></trkpt><trkpt lat="44.402667817414155" lon="9.537203120344456"><ele>611.0</ele><time>2026-04-25T17:24:56.999Z</time></trkpt><trkpt lat="44.40263129639752" lon="9.53745920893903"><ele>610.0</ele><time>2026-04-25T17:24:57.999Z</time></trkpt><trkpt lat="44.402589655174346" lon="9.5377071634454"><ele>611.6666666666667</ele><time>2026-04-25T17:24:58.999Z</time></trkpt><trkpt lat="44.40254786147909" lon="9.537952530500059"><ele>613.3333333333334</ele><time>2026-04-25T17:24:59.999Z</time></trkpt><trkpt lat="44.40248962766818" lon="9.538170968344856"><ele>615.0</ele><time>2026-04-25T17:25:00.999Z</time></trkpt><trkpt lat="44.40246338897676" lon="9.538395800573706"><ele>615.0</ele><time>2026-04-25T17:25:01.999Z</time></trkpt><trkpt lat="44.402433270354535" lon="9.538619256889408"><ele>615.0</ele><time>2026-04-25T17:25:02.999Z</time></trkpt><trkpt lat="44.40239148165868" lon="9.53881690729107"><ele>615.0</ele><time>2026-04-25T17:25:03.999Z</time></trkpt><trkpt lat="44.402371330966915" lon="9.538979679206264"><ele>615.0</ele><time>2026-04-25T17:25:04.999Z</time></trkpt><trkpt lat="44.402334211900374" lon="9.539133517522782"><ele>615.25</ele><time>2026-04-25T17:25:05.999Z</time></trkpt><trkpt lat="44.40233071590779" lon="9.53929411279061"><ele>615.5</ele><time>2026-04-25T17:25:06.999Z</time></trkpt><trkpt lat="44.402311527255904" lon="9.539450922826255"><ele>615.75</ele><time>2026-04-25T17:25:07.999Z</time></trkpt><trkpt lat="44.40226391939644" lon="9.539596095780459"><ele>616.0</ele><time>2026-04-25T17:25:08.999Z</time></trkpt><trkpt lat="44.402225031418816" lon="9.539740617174525"><ele>616.75</ele><time>2026-04-25T17:25:09.999Z</time></trkpt><trkpt lat="44.40218738802606" lon="9.539885479177952"><ele>617.5</ele><time>2026-04-25T17:25:10.999Z</time></trkpt><trkpt lat="44.40214572400494" lon="9.540038152010082"><ele>618.25</ele><time>2026-04-25T17:25:11.999Z</time></trkpt><trkpt lat="44.40210197423763" lon="9.540213319148242"><ele>619.0</ele><time>2026-04-25T17:25:12.999Z</time></trkpt><trkpt lat="44.402032239423605" lon="9.540380036040357"><ele>615.5</ele><time>2026-04-25T17:25:13.999Z</time></trkpt><trkpt lat="44.401944305395304" lon="9.540535342889383"><ele>612.0</ele><time>2026-04-25T17:25:14.999Z</time></trkpt><trkpt lat="44.401845169182" lon="9.540665295820464"><ele>608.5</ele><time>2026-04-25T17:25:15.999Z</time></trkpt><trkpt lat="44.40174702952864" lon="9.540792798984368"><ele>605.0</ele><time>2026-04-25T17:25:16.999Z</time></trkpt><trkpt lat="44.40165560685824" lon="9.540906533042415"><ele>605.0</ele><time>2026-04-25T17:25:17.999Z</time></trkpt><trkpt lat="44.4015668289374" lon="9.541000787440096"><ele>605.0</ele><time>2026-04-25T17:25:18.999Z</time></trkpt><trkpt lat="44.401484522685045" lon="9.541091712019767"><ele>605.0</ele><time>2026-04-25T17:25:19.999Z</time></trkpt><trkpt lat="44.40141595537833" lon="9.541188774406184"><ele>605.0</ele><time>2026-04-25T17:25:20.999Z</time></trkpt><trkpt lat="44.40136972321388" lon="9.541304810357108"><ele>605.0</ele><time>2026-04-25T17:25:21.999Z</time></trkpt><trkpt lat="44.401341023378464" lon="9.541452450431935"><ele>602.0</ele><time>2026-04-25T17:25:22.998Z</time></trkpt><trkpt lat="44.4013151086176" lon="9.541634804154862"><ele>599.0</ele><time>2026-04-25T17:25:23.998Z</time></trkpt><trkpt lat="44.40128370265459" lon="9.541842385110588"><ele>596.0</ele><time>2026-04-25T17:25:24.998Z</time></trkpt><trkpt lat="44.4012395859834" lon="9.542026691072728"><ele>593.0</ele><time>2026-04-25T17:25:25.998Z</time></trkpt><trkpt lat="44.401211555528846" lon="9.54220975415308"><ele>593.0</ele><time>2026-04-25T17:25:26.998Z</time></trkpt><trkpt lat="44.40118429894992" lon="9.542385672324773"><ele>593.0</ele><time>2026-04-25T17:25:27.998Z</time></trkpt><trkpt lat="44.401161153740766" lon="9.542550105034088"><ele>593.0</ele><time>2026-04-25T17:25:28.998Z</time></trkpt><trkpt lat="44.40111127699316" lon="9.542675439378243"><ele>593.0</ele><time>2026-04-25T17:25:29.998Z</time></trkpt><trkpt lat="44.401027634879924" lon="9.542744973953317"><ele>593.0</ele><time>2026-04-25T17:25:30.998Z</time></trkpt><trkpt lat="44.40093298782215" lon="9.542810209677205"><ele>593.0</ele><time>2026-04-25T17:25:31.998Z</time></trkpt><trkpt lat="44.40080919065652" lon="9.542789252833963"><ele>593.0</ele><time>2026-04-25T17:25:32.998Z</time></trkpt><trkpt lat="44.400668525564534" lon="9.542806006948165"><ele>593.0</ele><time>2026-04-25T17:25:33.998Z</time></trkpt><trkpt lat="44.400536580028785" lon="9.542817264570136"><ele>593.0</ele><time>2026-04-25T17:25:34.998Z</time></trkpt><trkpt lat="44.40042267781329" lon="9.542853529513193"><ele>593.4</ele><time>2026-04-25T17:25:35.998Z</time></trkpt><trkpt lat="44.400329677197" lon="9.542908337975057"><ele>593.8</ele><time>2026-04-25T17:25:36.998Z</time></trkpt><trkpt lat="44.40024909978726" lon="9.542988542755856"><ele>594.2</ele><time>2026-04-25T17:25:37.998Z</time></trkpt><trkpt lat="44.40017363537577" lon="9.543099184285708"><ele>594.6</ele><time>2026-04-25T17:25:38.998Z</time></trkpt><trkpt lat="44.40009453027679" lon="9.543228743210967"><ele>595.0</ele><time>2026-04-25T17:25:39.998Z</time></trkpt><trkpt lat="44.399972115689096" lon="9.54328175471783"><ele>595.0</ele><time>2026-04-25T17:25:40.998Z</time></trkpt><trkpt lat="44.39984229026924" lon="9.543337869562599"><ele>595.0</ele><time>2026-04-25T17:25:41.998Z</time></trkpt><trkpt lat="44.3997385999301" lon="9.543447681773443"><ele>595.0</ele><time>2026-04-25T17:25:42.998Z</time></trkpt><trkpt lat="44.39963243013821" lon="9.543544898899592"><ele>595.0</ele><time>2026-04-25T17:25:43.998Z</time></trkpt><trkpt lat="44.3995172641254" lon="9.543639056962416"><ele>593.0</ele><time>2026-04-25T17:25:44.998Z</time></trkpt><trkpt lat="44.399392907159985" lon="9.543694938048091"><ele>591.0</ele><time>2026-04-25T17:25:45.998Z</time></trkpt><trkpt lat="44.39928391784595" lon="9.543807988474748"><ele>589.0</ele><time>2026-04-25T17:25:46.998Z</time></trkpt><trkpt lat="44.39918545981066" lon="9.543919465600569"><ele>587.0</ele><time>2026-04-25T17:25:47.998Z</time></trkpt><trkpt lat="44.39908465402709" lon="9.544003497793154"><ele>587.0</ele><time>2026-04-25T17:25:48.998Z</time></trkpt><trkpt lat="44.39898361827649" lon="9.54402792952238"><ele>587.0</ele><time>2026-04-25T17:25:49.998Z</time></trkpt><trkpt lat="44.39887809020411" lon="9.544040581224317"><ele>587.0</ele><time>2026-04-25T17:25:50.998Z</time></trkpt><trkpt lat="44.398792580802045" lon="9.544058850601342"><ele>587.0</ele><time>2026-04-25T17:25:51.998Z</time></trkpt><trkpt lat="44.39872144918007" lon="9.544093415022761"><ele>587.0</ele><time>2026-04-25T17:25:52.998Z</time></trkpt><trkpt lat="44.3986887540499" lon="9.544182648487588"><ele>587.0</ele><time>2026-04-25T17:25:53.998Z</time></trkpt><trkpt lat="44.3986531603572" lon="9.544273163584284"><ele>586.2</ele><time>2026-04-25T17:25:54.998Z</time></trkpt><trkpt lat="44.39865043136863" lon="9.544411054354223"><ele>585.4000000000001</ele><time>2026-04-25T17:25:55.998Z</time></trkpt><trkpt lat="44.39861576176538" lon="9.544529677661929"><ele>584.5999999999999</ele><time>2026-04-25T17:25:56.998Z</time></trkpt><trkpt lat="44.398541340613306" lon="9.544585274553182"><ele>583.8</ele><time>2026-04-25T17:25:57.998Z</time></trkpt><trkpt lat="44.39843929986795" lon="9.544640801447192"><ele>583.0</ele><time>2026-04-25T17:25:58.998Z</time></trkpt><trkpt lat="44.39832733822301" lon="9.544699208586795"><ele>583.0</ele><time>2026-04-25T17:25:59.999Z</time></trkpt><trkpt lat="44.39822998944951" lon="9.54477972047198"><ele>583.0</ele><time>2026-04-25T17:26:00.999Z</time></trkpt><trkpt lat="44.39813105408048" lon="9.544849020630958"><ele>583.0</ele><time>2026-04-25T17:26:01.999Z</time></trkpt><trkpt lat="44.39804652871781" lon="9.544932216837744"><ele>583.0</ele><time>2026-04-25T17:26:02.999Z</time></trkpt><trkpt lat="44.39797640473606" lon="9.545019953125976"><ele>583.0</ele><time>2026-04-25T17:26:03.999Z</time></trkpt><trkpt lat="44.39792424888451" lon="9.54513499014872"><ele>582.6</ele><time>2026-04-25T17:26:04.999Z</time></trkpt><trkpt lat="44.39789747701392" lon="9.545286763844267"><ele>582.1999999999999</ele><time>2026-04-25T17:26:05.999Z</time></trkpt><trkpt lat="44.39786778427412" lon="9.545429320212858"><ele>581.8</ele><time>2026-04-25T17:26:06.999Z</time></trkpt><trkpt lat="44.39779555774487" lon="9.54551059015682"><ele>581.4</ele><time>2026-04-25T17:26:07.999Z</time></trkpt><trkpt lat="44.39771827123333" lon="9.545576145676048"><ele>581.0</ele><time>2026-04-25T17:26:08.999Z</time></trkpt><trkpt lat="44.39768013492163" lon="9.54566785252651"><ele>581.0</ele><time>2026-04-25T17:26:09.999Z</time></trkpt><trkpt lat="44.397633093490946" lon="9.54573791645414"><ele>581.0</ele><time>2026-04-25T17:26:10.999Z</time></trkpt><trkpt lat="44.39739908182367" lon="9.545634849972759"><ele>581.0</ele><time>2026-04-25T17:26:11.999Z</time></trkpt><trkpt lat="44.397293155819284" lon="9.54570256500032"><ele>581.0</ele><time>2026-04-25T17:26:12.999Z</time></trkpt><trkpt lat="44.397203797719854" lon="9.545750312046087"><ele>581.2</ele><time>2026-04-25T17:26:13.999Z</time></trkpt><trkpt lat="44.39711823431678" lon="9.545741671582933"><ele>581.4000000000001</ele><time>2026-04-25T17:26:14.999Z</time></trkpt><trkpt lat="44.397025081099436" lon="9.545651886967079"><ele>581.6</ele><time>2026-04-25T17:26:15.999Z</time></trkpt><trkpt lat="44.39693558810922" lon="9.545535929627562"><ele>581.8000000000001</ele><time>2026-04-25T17:26:16.999Z</time></trkpt><trkpt lat="44.396847733357966" lon="9.545439496153133"><ele>582.0</ele><time>2026-04-25T17:26:17.999Z</time></trkpt><trkpt lat="44.396730157774364" lon="9.5453690254374"><ele>576.25</ele><time>2026-04-25T17:26:18.999Z</time></trkpt><trkpt lat="44.39659421108193" lon="9.545315630609785"><ele>570.5</ele><time>2026-04-25T17:26:19.999Z</time></trkpt><trkpt lat="44.39646188333778" lon="9.545289205884188"><ele>564.75</ele><time>2026-04-25T17:26:20.999Z</time></trkpt><trkpt lat="44.396342446630904" lon="9.54528163979355"><ele>559.0</ele><time>2026-04-25T17:26:21.999Z</time></trkpt><trkpt lat="44.396233305694686" lon="9.545281468571517"><ele>559.4</ele><time>2026-04-25T17:26:22.999Z</time></trkpt><trkpt lat="44.39614379923684" lon="9.545292048908804"><ele>559.8</ele><time>2026-04-25T17:26:23.999Z</time></trkpt><trkpt lat="44.39606930547297" lon="9.545329159905414"><ele>560.2</ele><time>2026-04-25T17:26:24.999Z</time></trkpt><trkpt lat="44.39600576735171" lon="9.545406040967684"><ele>560.6</ele><time>2026-04-25T17:26:25.999Z</time></trkpt><trkpt lat="44.39595800772965" lon="9.545524858042121"><ele>561.0</ele><time>2026-04-25T17:26:26.999Z</time></trkpt><trkpt lat="44.39591400795153" lon="9.545683396787142"><ele>561.0</ele><time>2026-04-25T17:26:27.999Z</time></trkpt><trkpt lat="44.39586699409268" lon="9.54585750235589"><ele>561.0</ele><time>2026-04-25T17:26:28.999Z</time></trkpt><trkpt lat="44.395810218681056" lon="9.546011672479125"><ele>561.0</ele><time>2026-04-25T17:26:29.999Z</time></trkpt><trkpt lat="44.395737145753124" lon="9.546134660040758"><ele>561.0</ele><time>2026-04-25T17:26:30.999Z</time></trkpt><trkpt lat="44.39562786945486" lon="9.546227669681265"><ele>560.0</ele><time>2026-04-25T17:26:31.999Z</time></trkpt><trkpt lat="44.395505833577474" lon="9.546302806500567"><ele>559.0</ele><time>2026-04-25T17:26:32.999Z</time></trkpt><trkpt lat="44.39538306676062" lon="9.546332050988491"><ele>558.0</ele><time>2026-04-25T17:26:33.999Z</time></trkpt><trkpt lat="44.39527173114889" lon="9.546337997256177"><ele>557.0</ele><time>2026-04-25T17:26:34.999Z</time></trkpt><trkpt lat="44.3951776195643" lon="9.54637024370909"><ele>557.0</ele><time>2026-04-25T17:26:35.999Z</time></trkpt><trkpt lat="44.3951056321067" lon="9.54646568303934"><ele>557.0</ele><time>2026-04-25T17:26:36.999Z</time></trkpt><trkpt lat="44.39502999300711" lon="9.546572107503495"><ele>557.0</ele><time>2026-04-25T17:26:37.999Z</time></trkpt><trkpt lat="44.394935274051754" lon="9.546630224801543"><ele>557.0</ele><time>2026-04-25T17:26:38.999Z</time></trkpt><trkpt lat="44.3948348006824" lon="9.546642898180737"><ele>557.0</ele><time>2026-04-25T17:26:39.999Z</time></trkpt><trkpt lat="44.394754724458856" lon="9.546699807478495"><ele>557.0</ele><time>2026-04-25T17:26:40.999Z</time></trkpt><trkpt lat="44.39467843153935" lon="9.546817411773045"><ele>557.0</ele><time>2026-04-25T17:26:41.999Z</time></trkpt><trkpt lat="44.394622274515726" lon="9.546958820581006"><ele>557.0</ele><time>2026-04-25T17:26:42.999Z</time></trkpt><trkpt lat="44.39457006623043" lon="9.547074357182002"><ele>557.0</ele><time>2026-04-25T17:26:43.999Z</time></trkpt><trkpt lat="44.394506484832334" lon="9.547115216786953"><ele>557.0</ele><time>2026-04-25T17:26:44.999Z</time></trkpt><trkpt lat="44.394422106609284" lon="9.547079107805947"><ele>553.25</ele><time>2026-04-25T17:26:45.999Z</time></trkpt><trkpt lat="44.39434473377499" lon="9.547003662057472"><ele>549.5</ele><time>2026-04-25T17:26:46.999Z</time></trkpt><trkpt lat="44.3942559687135" lon="9.54692685215093"><ele>545.75</ele><time>2026-04-25T17:26:47.999Z</time></trkpt><trkpt lat="44.39413392942375" lon="9.546891116594768"><ele>542.0</ele><time>2026-04-25T17:26:48.999Z</time></trkpt><trkpt lat="44.39399807961293" lon="9.546893642184326"><ele>542.0</ele><time>2026-04-25T17:26:49.999Z</time></trkpt><trkpt lat="44.393881239404415" lon="9.546900358078387"><ele>542.0</ele><time>2026-04-25T17:26:50.999Z</time></trkpt><trkpt lat="44.393796659847034" lon="9.54691261992718"><ele>542.0</ele><time>2026-04-25T17:26:51.999Z</time></trkpt><trkpt lat="44.39372637359904" lon="9.546957896902446"><ele>542.0</ele><time>2026-04-25T17:26:52.999Z</time></trkpt><trkpt lat="44.39366177105404" lon="9.547067361761938"><ele>542.0</ele><time>2026-04-25T17:26:53.999Z</time></trkpt><trkpt lat="44.393603889717234" lon="9.547222202716934"><ele>543.25</ele><time>2026-04-25T17:26:54.999Z</time></trkpt><trkpt lat="44.39352278878027" lon="9.547341395486237"><ele>544.5</ele><time>2026-04-25T17:26:55.999Z</time></trkpt><trkpt lat="44.39341783809157" lon="9.547390313756448"><ele>545.75</ele><time>2026-04-25T17:26:56.999Z</time></trkpt><trkpt lat="44.393290595277975" lon="9.54738908720079"><ele>547.0</ele><time>2026-04-25T17:26:57.999Z</time></trkpt><trkpt lat="44.393147765788626" lon="9.547353635331122"><ele>546.0</ele><time>2026-04-25T17:26:58.999Z</time></trkpt><trkpt lat="44.392978161571804" lon="9.547307676220944"><ele>545.0</ele><time>2026-04-25T17:26:59.999Z</time></trkpt><trkpt lat="44.392790585159624" lon="9.547286035618091"><ele>544.0</ele><time>2026-04-25T17:27:00.999Z</time></trkpt><trkpt lat="44.392601836615555" lon="9.54728233330011"><ele>544.0</ele><time>2026-04-25T17:27:01.999Z</time></trkpt><trkpt lat="44.39242261619866" lon="9.547272820092484"><ele>544.0</ele><time>2026-04-25T17:27:02.999Z</time></trkpt><trkpt lat="44.39225474554166" lon="9.547255567898123"><ele>544.0</ele><time>2026-04-25T17:27:03.999Z</time></trkpt><trkpt lat="44.39211355313142" lon="9.547219479517292"><ele>541.6</ele><time>2026-04-25T17:27:04.999Z</time></trkpt><trkpt lat="44.39199054230545" lon="9.547188779408067"><ele>539.2</ele><time>2026-04-25T17:27:05.999Z</time></trkpt><trkpt lat="44.39189753914639" lon="9.547181825718091"><ele>536.8000000000001</ele><time>2026-04-25T17:27:06.999Z</time></trkpt><trkpt lat="44.39181064977441" lon="9.547211429179582"><ele>534.4</ele><time>2026-04-25T17:27:07.999Z</time></trkpt><trkpt lat="44.39174012359482" lon="9.547286764205985"><ele>532.0</ele><time>2026-04-25T17:27:08.999Z</time></trkpt><trkpt lat="44.39170142994322" lon="9.547392076050947"><ele>532.0</ele><time>2026-04-25T17:27:09.999Z</time></trkpt><trkpt lat="44.391701666565524" lon="9.547510978118067"><ele>532.0</ele><time>2026-04-25T17:27:10.999Z</time></trkpt><trkpt lat="44.39173439656302" lon="9.547637365443515"><ele>532.0</ele><time>2026-04-25T17:27:11.999Z</time></trkpt><trkpt lat="44.39178500058777" lon="9.54775320634602"><ele>532.0</ele><time>2026-04-25T17:27:12.999Z</time></trkpt><trkpt lat="44.39188348286028" lon="9.547870518496627"><ele>532.0</ele><time>2026-04-25T17:27:13.999Z</time></trkpt><trkpt lat="44.392005778914644" lon="9.54801844092244"><ele>533.25</ele><time>2026-04-25T17:27:14.999Z</time></trkpt><trkpt lat="44.392117368841085" lon="9.54815344653452"><ele>534.5</ele><time>2026-04-25T17:27:15.999Z</time></trkpt><trkpt lat="44.39222414091573" lon="9.548284791666966"><ele>535.75</ele><time>2026-04-25T17:27:16.999Z</time></trkpt><trkpt lat="44.39229602923267" lon="9.548406231909802"><ele>537.0</ele><time>2026-04-25T17:27:17.999Z</time></trkpt><trkpt lat="44.39234287109119" lon="9.548538034810688"><ele>537.0</ele><time>2026-04-25T17:27:18.999Z</time></trkpt><trkpt lat="44.392357353936816" lon="9.548706433714516"><ele>537.0</ele><time>2026-04-25T17:27:19.999Z</time></trkpt><trkpt lat="44.39236819464578" lon="9.548885570965185"><ele>537.0</ele><time>2026-04-25T17:27:20.999Z</time></trkpt><trkpt lat="44.39239929877227" lon="9.549073975780265"><ele>537.0</ele><time>2026-04-25T17:27:21.999Z</time></trkpt><trkpt lat="44.39242207900664" lon="9.54927317285118"><ele>534.75</ele><time>2026-04-25T17:27:22.999Z</time></trkpt><trkpt lat="44.3924241334253" lon="9.54947599598571"><ele>532.5</ele><time>2026-04-25T17:27:23.999Z</time></trkpt><trkpt lat="44.39241132289855" lon="9.54965118108278"><ele>530.25</ele><time>2026-04-25T17:27:24.999Z</time></trkpt><trkpt lat="44.392385305398015" lon="9.549782130092654"><ele>528.0</ele><time>2026-04-25T17:27:25.998Z</time></trkpt><trkpt lat="44.39237427990686" lon="9.54989669726252"><ele>526.5</ele><time>2026-04-25T17:27:26.998Z</time></trkpt><trkpt lat="44.39239990688159" lon="9.55004356491912"><ele>525.0</ele><time>2026-04-25T17:27:27.998Z</time></trkpt><trkpt lat="44.39243375173096" lon="9.550223261111281"><ele>523.5</ele><time>2026-04-25T17:27:28.998Z</time></trkpt><trkpt lat="44.39244718205902" lon="9.55043397301863"><ele>522.0</ele><time>2026-04-25T17:27:29.998Z</time></trkpt><trkpt lat="44.39245593374526" lon="9.550638556051707"><ele>521.25</ele><time>2026-04-25T17:27:30.998Z</time></trkpt><trkpt lat="44.39246457794613" lon="9.550832222971781"><ele>520.5</ele><time>2026-04-25T17:27:31.998Z</time></trkpt><trkpt lat="44.39245593328996" lon="9.5510193693182"><ele>519.75</ele><time>2026-04-25T17:27:32.998Z</time></trkpt><trkpt lat="44.392452718261346" lon="9.55118091121091"><ele>519.0</ele><time>2026-04-25T17:27:33.998Z</time></trkpt><trkpt lat="44.39246615699516" lon="9.551336967162316"><ele>518.25</ele><time>2026-04-25T17:27:34.998Z</time></trkpt><trkpt lat="44.392494682434794" lon="9.551507414788544"><ele>517.5</ele><time>2026-04-25T17:27:35.998Z</time></trkpt><trkpt lat="44.39254228830767" lon="9.551679881207646"><ele>516.75</ele><time>2026-04-25T17:27:36.998Z</time></trkpt><trkpt lat="44.39258687403432" lon="9.551864729763118"><ele>516.0</ele><time>2026-04-25T17:27:37.998Z</time></trkpt><trkpt lat="44.39265175523834" lon="9.55202885980241"><ele>515.0</ele><time>2026-04-25T17:27:38.998Z</time></trkpt><trkpt lat="44.39272992713631" lon="9.552178261617657"><ele>514.0</ele><time>2026-04-25T17:27:39.998Z</time></trkpt><trkpt lat="44.39281884650003" lon="9.55229428010829"><ele>513.0</ele><time>2026-04-25T17:27:40.998Z</time></trkpt><trkpt lat="44.392875967335335" lon="9.552386136099697"><ele>512.0</ele><time>2026-04-25T17:27:41.998Z</time></trkpt><trkpt lat="44.39288262477" lon="9.552512053061202"><ele>511.0</ele><time>2026-04-25T17:27:42.998Z</time></trkpt><trkpt lat="44.39284849364211" lon="9.552631587367303"><ele>511.0</ele><time>2026-04-25T17:27:43.998Z</time></trkpt><trkpt lat="44.39286272721726" lon="9.552767428429695"><ele>511.0</ele><time>2026-04-25T17:27:44.998Z</time></trkpt><trkpt lat="44.392932010445286" lon="9.552927060459822"><ele>511.0</ele><time>2026-04-25T17:27:45.998Z</time></trkpt><trkpt lat="44.39301605737976" lon="9.55308998381845"><ele>511.0</ele><time>2026-04-25T17:27:46.998Z</time></trkpt><trkpt lat="44.39307392870142" lon="9.553257937300732"><ele>512.2</ele><time>2026-04-25T17:27:47.998Z</time></trkpt><trkpt lat="44.39314014224632" lon="9.553387599965097"><ele>513.4000000000001</ele><time>2026-04-25T17:27:48.998Z</time></trkpt><trkpt lat="44.39319598906671" lon="9.55347731543763"><ele>514.6</ele><time>2026-04-25T17:27:49.998Z</time></trkpt><trkpt lat="44.393192029900476" lon="9.553595322156777"><ele>515.8000000000001</ele><time>2026-04-25T17:27:50.998Z</time></trkpt><trkpt lat="44.39312823962464" lon="9.553686375947217"><ele>517.0</ele><time>2026-04-25T17:27:51.998Z</time></trkpt><trkpt lat="44.39307923617091" lon="9.553803023277716"><ele>514.0</ele><time>2026-04-25T17:27:52.998Z</time></trkpt><trkpt lat="44.39300506579154" lon="9.553913299517582"><ele>511.0</ele><time>2026-04-25T17:27:53.998Z</time></trkpt><trkpt lat="44.3929208149299" lon="9.554001581023513"><ele>508.0</ele><time>2026-04-25T17:27:54.998Z</time></trkpt><trkpt lat="44.3928092250524" lon="9.554059163463107"><ele>505.0</ele><time>2026-04-25T17:27:55.998Z</time></trkpt><trkpt lat="44.39268054691165" lon="9.554103021710608"><ele>505.0</ele><time>2026-04-25T17:27:56.998Z</time></trkpt><trkpt lat="44.39254809808577" lon="9.55415791398385"><ele>505.0</ele><time>2026-04-25T17:27:57.998Z</time></trkpt><trkpt lat="44.392450869698244" lon="9.554275204022689"><ele>505.0</ele><time>2026-04-25T17:27:58.998Z</time></trkpt><trkpt lat="44.39235714109697" lon="9.554345366482337"><ele>505.0</ele><time>2026-04-25T17:27:59.998Z</time></trkpt><trkpt lat="44.39228384739319" lon="9.554397158766136"><ele>505.0</ele><time>2026-04-25T17:28:00.998Z</time></trkpt><trkpt lat="44.392219351814276" lon="9.554478999135647"><ele>505.0</ele><time>2026-04-25T17:28:01.998Z</time></trkpt><trkpt lat="44.39219806177643" lon="9.55464485820629"><ele>505.0</ele><time>2026-04-25T17:28:02.998Z</time></trkpt><trkpt lat="44.39215414018796" lon="9.554825375027704"><ele>505.0</ele><time>2026-04-25T17:28:03.998Z</time></trkpt><trkpt lat="44.39217153882492" lon="9.555004047165554"><ele>501.0</ele><time>2026-04-25T17:28:04.998Z</time></trkpt><trkpt lat="44.39215617754445" lon="9.555166576847805"><ele>497.0</ele><time>2026-04-25T17:28:05.999Z</time></trkpt><trkpt lat="44.39207048710659" lon="9.555296639454737"><ele>493.0</ele><time>2026-04-25T17:28:06.999Z</time></trkpt><trkpt lat="44.39201382929073" lon="9.555452812978011"><ele>489.0</ele><time>2026-04-25T17:28:07.999Z</time></trkpt><trkpt lat="44.391992262201704" lon="9.555591070423038"><ele>489.0</ele><time>2026-04-25T17:28:08.999Z</time></trkpt><trkpt lat="44.3919697099677" lon="9.555689937105125"><ele>489.0</ele><time>2026-04-25T17:28:09.999Z</time></trkpt><trkpt lat="44.39189629482036" lon="9.55572097348404"><ele>489.0</ele><time>2026-04-25T17:28:10.999Z</time></trkpt><trkpt lat="44.391808851190866" lon="9.555701499363352"><ele>489.0</ele><time>2026-04-25T17:28:11.999Z</time></trkpt><trkpt lat="44.39170955936002" lon="9.555654345856935"><ele>489.0</ele><time>2026-04-25T17:28:12.999Z</time></trkpt><trkpt lat="44.39161848755653" lon="9.555631503334917"><ele>489.0</ele><time>2026-04-25T17:28:13.999Z</time></trkpt><trkpt lat="44.39154575635547" lon="9.555622056249915"><ele>489.0</ele><time>2026-04-25T17:28:14.999Z</time></trkpt><trkpt lat="44.39148732565021" lon="9.555686899017852"><ele>489.0</ele><time>2026-04-25T17:28:15.999Z</time></trkpt><trkpt lat="44.391476896200764" lon="9.555806005501017"><ele>489.0</ele><time>2026-04-25T17:28:16.999Z</time></trkpt><trkpt lat="44.391519134293304" lon="9.55592124087273"><ele>489.0</ele><time>2026-04-25T17:28:17.999Z</time></trkpt><trkpt lat="44.39160437521669" lon="9.556032263503072"><ele>489.0</ele><time>2026-04-25T17:28:18.999Z</time></trkpt><trkpt lat="44.391652165129884" lon="9.556171902317436"><ele>490.0</ele><time>2026-04-25T17:28:19.999Z</time></trkpt><trkpt lat="44.391676486846706" lon="9.556293867614922"><ele>491.0</ele><time>2026-04-25T17:28:20.999Z</time></trkpt><trkpt lat="44.39169286022883" lon="9.55645587513834"><ele>492.0</ele><time>2026-04-25T17:28:21.999Z</time></trkpt><trkpt lat="44.39168765258507" lon="9.556564080810043"><ele>493.0</ele><time>2026-04-25T17:28:22.999Z</time></trkpt><trkpt lat="44.39161280341987" lon="9.55663847331042"><ele>494.0</ele><time>2026-04-25T17:28:23.999Z</time></trkpt><trkpt lat="44.39151720113736" lon="9.556741095109095"><ele>494.0</ele><time>2026-04-25T17:28:24.999Z</time></trkpt><trkpt lat="44.39142815145953" lon="9.55689285647593"><ele>494.0</ele><time>2026-04-25T17:28:25.999Z</time></trkpt><trkpt lat="44.39133451809366" lon="9.556989462742038"><ele>494.0</ele><time>2026-04-25T17:28:26.999Z</time></trkpt><trkpt lat="44.39121924220427" lon="9.557038275564707"><ele>494.0</ele><time>2026-04-25T17:28:27.999Z</time></trkpt><trkpt lat="44.39109294134934" lon="9.55704746560214"><ele>491.0</ele><time>2026-04-25T17:28:28.999Z</time></trkpt><trkpt lat="44.39096941454692" lon="9.557065017886096"><ele>488.0</ele><time>2026-04-25T17:28:29.999Z</time></trkpt><trkpt lat="44.39085351215795" lon="9.557089824120343"><ele>485.0</ele><time>2026-04-25T17:28:30.999Z</time></trkpt><trkpt lat="44.39075390415902" lon="9.557120611769923"><ele>482.0</ele><time>2026-04-25T17:28:31.999Z</time></trkpt><trkpt lat="44.39067674322011" lon="9.557161757503183"><ele>479.0</ele><time>2026-04-25T17:28:32.999Z</time></trkpt><trkpt lat="44.39062377166031" lon="9.557232141680693"><ele>478.99999999999994</ele><time>2026-04-25T17:28:33.999Z</time></trkpt><trkpt lat="44.39059736127416" lon="9.557328620543807"><ele>479.0</ele><time>2026-04-25T17:28:34.999Z</time></trkpt><trkpt lat="44.39060525713431" lon="9.55743123198502"><ele>479.0</ele><time>2026-04-25T17:28:35.999Z</time></trkpt><trkpt lat="44.39063578175947" lon="9.557539545516331"><ele>479.0</ele><time>2026-04-25T17:28:36.999Z</time></trkpt><trkpt lat="44.390695568191035" lon="9.557646771560652"><ele>478.99999999999994</ele><time>2026-04-25T17:28:37.999Z</time></trkpt><trkpt lat="44.390765899617485" lon="9.557760814577641"><ele>479.0</ele><time>2026-04-25T17:28:38.999Z</time></trkpt><trkpt lat="44.39079485658752" lon="9.55789870945373"><ele>479.4</ele><time>2026-04-25T17:28:39.999Z</time></trkpt><trkpt lat="44.39080802359641" lon="9.558002173745884"><ele>479.79999999999995</ele><time>2026-04-25T17:28:40.999Z</time></trkpt><trkpt lat="44.390703781342474" lon="9.558103691539733"><ele>480.20000000000005</ele><time>2026-04-25T17:28:42.999Z</time></trkpt><trkpt lat="44.39062018901762" lon="9.558109346177192"><ele>480.6</ele><time>2026-04-25T17:28:43.999Z</time></trkpt><trkpt lat="44.390500384833196" lon="9.558149114379853"><ele>481.0</ele><time>2026-04-25T17:28:44.999Z</time></trkpt><trkpt lat="44.39042253317174" lon="9.558202063633619"><ele>474.20000000000005</ele><time>2026-04-25T17:28:45.999Z</time></trkpt><trkpt lat="44.39037812423463" lon="9.558299246324557"><ele>467.40000000000003</ele><time>2026-04-25T17:28:46.999Z</time></trkpt><trkpt lat="44.39035463121852" lon="9.558406828317345"><ele>460.6</ele><time>2026-04-25T17:28:47.999Z</time></trkpt><trkpt lat="44.39035977590689" lon="9.558521294126296"><ele>453.8</ele><time>2026-04-25T17:28:48.999Z</time></trkpt><trkpt lat="44.39040005346417" lon="9.558655238508209"><ele>447.0</ele><time>2026-04-25T17:28:49.999Z</time></trkpt><trkpt lat="44.39044453345871" lon="9.558789902742578"><ele>447.0</ele><time>2026-04-25T17:28:50.999Z</time></trkpt><trkpt lat="44.39049230758295" lon="9.558902908200338"><ele>447.0</ele><time>2026-04-25T17:28:51.999Z</time></trkpt><trkpt lat="44.39055424104458" lon="9.558981949632836"><ele>447.0</ele><time>2026-04-25T17:28:52.999Z</time></trkpt><trkpt lat="44.3906267468259" lon="9.5590357962939"><ele>447.0</ele><time>2026-04-25T17:28:53.999Z</time></trkpt><trkpt lat="44.39064635000887" lon="9.559181609564597"><ele>447.0</ele><time>2026-04-25T17:28:55.999Z</time></trkpt><trkpt lat="44.39058877648153" lon="9.559228268444082"><ele>447.0</ele><time>2026-04-25T17:28:56.999Z</time></trkpt><trkpt lat="44.39051490149267" lon="9.559236571351024"><ele>447.0</ele><time>2026-04-25T17:28:57.999Z</time></trkpt><trkpt lat="44.39041680154247" lon="9.559184114092167"><ele>447.00000000000006</ele><time>2026-04-25T17:28:58.999Z</time></trkpt><trkpt lat="44.39030135565667" lon="9.559165942234765"><ele>447.00000000000006</ele><time>2026-04-25T17:28:59.999Z</time></trkpt><trkpt lat="44.39019133951038" lon="9.559136766427297"><ele>447.0</ele><time>2026-04-25T17:29:00.999Z</time></trkpt><trkpt lat="44.39008535626778" lon="9.559130856390066"><ele>447.0</ele><time>2026-04-25T17:29:01.999Z</time></trkpt><trkpt lat="44.38998905083769" lon="9.559136415217273"><ele>447.0</ele><time>2026-04-25T17:29:02.999Z</time></trkpt><trkpt lat="44.38990525499863" lon="9.559151563688664"><ele>447.0</ele><time>2026-04-25T17:29:03.999Z</time></trkpt><trkpt lat="44.389845905298415" lon="9.55919566766877"><ele>447.0</ele><time>2026-04-25T17:29:04.999Z</time></trkpt><trkpt lat="44.389807119716494" lon="9.559273317093359"><ele>447.0</ele><time>2026-04-25T17:29:05.999Z</time></trkpt><trkpt lat="44.38977002139434" lon="9.559359848355871"><ele>447.0</ele><time>2026-04-25T17:29:06.999Z</time></trkpt><trkpt lat="44.389784252492355" lon="9.559474067448601"><ele>447.0</ele><time>2026-04-25T17:29:07.999Z</time></trkpt><trkpt lat="44.3898330067302" lon="9.559581255171556"><ele>446.8</ele><time>2026-04-25T17:29:08.999Z</time></trkpt><trkpt lat="44.38988431021399" lon="9.55967206251437"><ele>446.6</ele><time>2026-04-25T17:29:09.999Z</time></trkpt><trkpt lat="44.389882164956944" lon="9.559832108804434"><ele>446.40000000000003</ele><time>2026-04-25T17:29:11.999Z</time></trkpt><trkpt lat="44.38981496624244" lon="9.559887695964559"><ele>446.20000000000005</ele><time>2026-04-25T17:29:12.999Z</time></trkpt><trkpt lat="44.38977299813556" lon="9.559966950809198"><ele>446.0</ele><time>2026-04-25T17:29:13.999Z</time></trkpt><trkpt lat="44.38975645247466" lon="9.560119380591964"><ele>445.99999999999994</ele><time>2026-04-25T17:29:15.999Z</time></trkpt><trkpt lat="44.38980543520731" lon="9.560204101092667"><ele>446.0</ele><time>2026-04-25T17:29:16.999Z</time></trkpt><trkpt lat="44.38988527695581" lon="9.560209216304237"><ele>446.0</ele><time>2026-04-25T17:29:17.999Z</time></trkpt><trkpt lat="44.38996795202646" lon="9.560202122665455"><ele>446.0</ele><time>2026-04-25T17:29:18.999Z</time></trkpt><trkpt lat="44.390043352947956" lon="9.560229485602095"><ele>445.99999999999994</ele><time>2026-04-25T17:29:19.999Z</time></trkpt><trkpt lat="44.390130939658405" lon="9.560319615313098"><ele>446.0</ele><time>2026-04-25T17:29:21.999Z</time></trkpt><trkpt lat="44.39011978544275" lon="9.560423900314577"><ele>446.16666666666663</ele><time>2026-04-25T17:29:22.999Z</time></trkpt><trkpt lat="44.390043006260605" lon="9.560531701281228"><ele>446.3333333333333</ele><time>2026-04-25T17:29:23.999Z</time></trkpt><trkpt lat="44.390024657071095" lon="9.560640142973805"><ele>446.5</ele><time>2026-04-25T17:29:24.999Z</time></trkpt><trkpt lat="44.38998790435098" lon="9.560711770190702"><ele>446.66666666666663</ele><time>2026-04-25T17:29:25.999Z</time></trkpt><trkpt lat="44.389921947694944" lon="9.560764108255912"><ele>446.8333333333333</ele><time>2026-04-25T17:29:26.999Z</time></trkpt><trkpt lat="44.389803308931064" lon="9.56074624693735"><ele>447.0</ele><time>2026-04-25T17:29:27.998Z</time></trkpt><trkpt lat="44.38967185303492" lon="9.560786108371131"><ele>440.8</ele><time>2026-04-25T17:29:28.998Z</time></trkpt><trkpt lat="44.38955099307402" lon="9.560796236999778"><ele>434.6</ele><time>2026-04-25T17:29:29.998Z</time></trkpt><trkpt lat="44.38946369432176" lon="9.560795360149898"><ele>428.40000000000003</ele><time>2026-04-25T17:29:30.998Z</time></trkpt><trkpt lat="44.389354576850195" lon="9.560821734742765"><ele>422.20000000000005</ele><time>2026-04-25T17:29:32.998Z</time></trkpt><trkpt lat="44.38930133280121" lon="9.560889116301004"><ele>416.0</ele><time>2026-04-25T17:29:33.998Z</time></trkpt><trkpt lat="44.38925670207632" lon="9.560983154885031"><ele>415.99999999999994</ele><time>2026-04-25T17:29:34.998Z</time></trkpt><trkpt lat="44.38922836719859" lon="9.561090899937804"><ele>416.0</ele><time>2026-04-25T17:29:35.998Z</time></trkpt><trkpt lat="44.38921343867756" lon="9.561192146382046"><ele>416.0</ele><time>2026-04-25T17:29:36.998Z</time></trkpt><trkpt lat="44.389225802125175" lon="9.561298694049945"><ele>416.0</ele><time>2026-04-25T17:29:37.998Z</time></trkpt><trkpt lat="44.38926330370331" lon="9.561429383848921"><ele>415.99999999999994</ele><time>2026-04-25T17:29:38.998Z</time></trkpt><trkpt lat="44.38931038036748" lon="9.561561723074826"><ele>416.0</ele><time>2026-04-25T17:29:39.998Z</time></trkpt><trkpt lat="44.389317398806476" lon="9.561671440353143"><ele>417.8</ele><time>2026-04-25T17:29:40.998Z</time></trkpt><trkpt lat="44.38926138651608" lon="9.561803661445841"><ele>419.6</ele><time>2026-04-25T17:29:42.998Z</time></trkpt><trkpt lat="44.38917117645483" lon="9.56182319515685"><ele>421.4</ele><time>2026-04-25T17:29:43.998Z</time></trkpt><trkpt lat="44.38908905004883" lon="9.561890439448261"><ele>423.2</ele><time>2026-04-25T17:29:44.998Z</time></trkpt><trkpt lat="44.38901908300734" lon="9.561967260256111"><ele>425.0</ele><time>2026-04-25T17:29:45.998Z</time></trkpt><trkpt lat="44.388969388813244" lon="9.562095184364235"><ele>428.0</ele><time>2026-04-25T17:29:46.998Z</time></trkpt><trkpt lat="44.38889565908857" lon="9.562232361083275"><ele>431.0</ele><time>2026-04-25T17:29:47.998Z</time></trkpt><trkpt lat="44.388814065220586" lon="9.562344019165778"><ele>434.0</ele><time>2026-04-25T17:29:48.998Z</time></trkpt><trkpt lat="44.38874877895845" lon="9.562463296799944"><ele>437.0</ele><time>2026-04-25T17:29:49.998Z</time></trkpt><trkpt lat="44.388699814514595" lon="9.562623415667202"><ele>430.25</ele><time>2026-04-25T17:29:50.998Z</time></trkpt><trkpt lat="44.38866461510376" lon="9.562804331777413"><ele>423.5</ele><time>2026-04-25T17:29:51.998Z</time></trkpt><trkpt lat="44.38860381578699" lon="9.562951346780892"><ele>416.75</ele><time>2026-04-25T17:29:52.998Z</time></trkpt><trkpt lat="44.38856437623493" lon="9.563091664673655"><ele>410.0</ele><time>2026-04-25T17:29:53.998Z</time></trkpt><trkpt lat="44.38848399313106" lon="9.563200383019598"><ele>410.0</ele><time>2026-04-25T17:29:54.998Z</time></trkpt><trkpt lat="44.38838433535948" lon="9.563278713043124"><ele>410.0</ele><time>2026-04-25T17:29:55.998Z</time></trkpt><trkpt lat="44.388305428082205" lon="9.563340772928"><ele>410.0</ele><time>2026-04-25T17:29:56.998Z</time></trkpt><trkpt lat="44.388254268803195" lon="9.563421042571985"><ele>410.0</ele><time>2026-04-25T17:29:57.998Z</time></trkpt><trkpt lat="44.38822092279002" lon="9.563551391394645"><ele>410.0</ele><time>2026-04-25T17:29:58.998Z</time></trkpt><trkpt lat="44.388185809845005" lon="9.563727149811397"><ele>411.75</ele><time>2026-04-25T17:29:59.998Z</time></trkpt><trkpt lat="44.3881241703818" lon="9.563896124861076"><ele>413.5</ele><time>2026-04-25T17:30:00.998Z</time></trkpt><trkpt lat="44.38810157432007" lon="9.564068921559459"><ele>415.25</ele><time>2026-04-25T17:30:01.998Z</time></trkpt><trkpt lat="44.38807013677932" lon="9.564222435674782"><ele>417.0</ele><time>2026-04-25T17:30:02.998Z</time></trkpt><trkpt lat="44.38803091254195" lon="9.564369633650442"><ele>414.0</ele><time>2026-04-25T17:30:03.998Z</time></trkpt><trkpt lat="44.38794380402839" lon="9.564490946413713"><ele>411.0</ele><time>2026-04-25T17:30:04.998Z</time></trkpt><trkpt lat="44.38784395112922" lon="9.564629053013931"><ele>408.0</ele><time>2026-04-25T17:30:05.998Z</time></trkpt><trkpt lat="44.38775253801762" lon="9.564791836740167"><ele>405.0</ele><time>2026-04-25T17:30:06.998Z</time></trkpt><trkpt lat="44.387640278568114" lon="9.564932074213436"><ele>405.0</ele><time>2026-04-25T17:30:07.998Z</time></trkpt><trkpt lat="44.387502030960235" lon="9.565017240866514"><ele>405.0</ele><time>2026-04-25T17:30:08.998Z</time></trkpt><trkpt lat="44.38738804424008" lon="9.565211443532087"><ele>405.0</ele><time>2026-04-25T17:30:09.998Z</time></trkpt><trkpt lat="44.38725595124404" lon="9.565326640310117"><ele>404.5</ele><time>2026-04-25T17:30:10.998Z</time></trkpt><trkpt lat="44.38712399298419" lon="9.565390874548296"><ele>404.0</ele><time>2026-04-25T17:30:11.999Z</time></trkpt><trkpt lat="44.386986934606014" lon="9.56546412171422"><ele>403.5</ele><time>2026-04-25T17:30:12.999Z</time></trkpt><trkpt lat="44.386864893662725" lon="9.565564196657466"><ele>403.0</ele><time>2026-04-25T17:30:13.999Z</time></trkpt><trkpt lat="44.38675535198543" lon="9.565668511375412"><ele>403.0</ele><time>2026-04-25T17:30:14.999Z</time></trkpt><trkpt lat="44.38665246201659" lon="9.565779328667427"><ele>403.0</ele><time>2026-04-25T17:30:15.999Z</time></trkpt><trkpt lat="44.386550701614105" lon="9.565910452093247"><ele>403.0</ele><time>2026-04-25T17:30:16.999Z</time></trkpt><trkpt lat="44.386438713873694" lon="9.566041605405317"><ele>403.0</ele><time>2026-04-25T17:30:17.999Z</time></trkpt><trkpt lat="44.38631362977536" lon="9.566161323241944"><ele>403.0</ele><time>2026-04-25T17:30:18.999Z</time></trkpt><trkpt lat="44.386184675631945" lon="9.566275319944337"><ele>403.0</ele><time>2026-04-25T17:30:19.999Z</time></trkpt><trkpt lat="44.38605327042356" lon="9.566388781641477"><ele>403.0</ele><time>2026-04-25T17:30:20.999Z</time></trkpt><trkpt lat="44.38591125052502" lon="9.566492226772237"><ele>403.0</ele><time>2026-04-25T17:30:21.999Z</time></trkpt><trkpt lat="44.385780751711614" lon="9.56658656274972"><ele>403.0</ele><time>2026-04-25T17:30:22.999Z</time></trkpt><trkpt lat="44.38565341636509" lon="9.566679579870684"><ele>403.0</ele><time>2026-04-25T17:30:23.999Z</time></trkpt><trkpt lat="44.385529301503944" lon="9.566773551351092"><ele>403.0</ele><time>2026-04-25T17:30:24.999Z</time></trkpt><trkpt lat="44.38540732850203" lon="9.56687512684208"><ele>400.5</ele><time>2026-04-25T17:30:25.999Z</time></trkpt><trkpt lat="44.38530033314649" lon="9.566982595339002"><ele>398.0</ele><time>2026-04-25T17:30:26.999Z</time></trkpt><trkpt lat="44.385198866092296" lon="9.567083139317276"><ele>395.5</ele><time>2026-04-25T17:30:27.999Z</time></trkpt><trkpt lat="44.385114669182336" lon="9.567189904614757"><ele>393.0</ele><time>2026-04-25T17:30:28.999Z</time></trkpt><trkpt lat="44.38505899749702" lon="9.567313676048679"><ele>393.0</ele><time>2026-04-25T17:30:29.999Z</time></trkpt><trkpt lat="44.38501776425422" lon="9.567463821078082"><ele>393.0</ele><time>2026-04-25T17:30:30.999Z</time></trkpt><trkpt lat="44.38499300959885" lon="9.56766015067714"><ele>393.0</ele><time>2026-04-25T17:30:31.999Z</time></trkpt><trkpt lat="44.384966856281125" lon="9.567891272248565"><ele>393.0</ele><time>2026-04-25T17:30:32.999Z</time></trkpt><trkpt lat="44.38493253299056" lon="9.568142141039736"><ele>394.0</ele><time>2026-04-25T17:30:33.999Z</time></trkpt><trkpt lat="44.384901763287075" lon="9.568407684311554"><ele>395.0</ele><time>2026-04-25T17:30:34.999Z</time></trkpt><trkpt lat="44.38488008707092" lon="9.568664371509179"><ele>396.0</ele><time>2026-04-25T17:30:35.999Z</time></trkpt><trkpt lat="44.38486127877695" lon="9.568915932395225"><ele>396.0</ele><time>2026-04-25T17:30:36.999Z</time></trkpt><trkpt lat="44.38484353931439" lon="9.569157805912544"><ele>396.0</ele><time>2026-04-25T17:30:37.999Z</time></trkpt><trkpt lat="44.38481987471377" lon="9.569394019804442"><ele>396.0</ele><time>2026-04-25T17:30:38.999Z</time></trkpt><trkpt lat="44.38479776564778" lon="9.569625565902408"><ele>395.0</ele><time>2026-04-25T17:30:39.999Z</time></trkpt><trkpt lat="44.3847876413381" lon="9.569845175422262"><ele>394.0</ele><time>2026-04-25T17:30:40.999Z</time></trkpt><trkpt lat="44.38478913282377" lon="9.570038000767084"><ele>393.0</ele><time>2026-04-25T17:30:41.999Z</time></trkpt><trkpt lat="44.38479842511065" lon="9.570198813768126"><ele>392.0</ele><time>2026-04-25T17:30:42.999Z</time></trkpt><trkpt lat="44.38482913643114" lon="9.570331907042348"><ele>391.0</ele><time>2026-04-25T17:30:43.999Z</time></trkpt><trkpt lat="44.38488499462139" lon="9.570456424550693"><ele>390.0</ele><time>2026-04-25T17:30:44.999Z</time></trkpt><trkpt lat="44.38497899452575" lon="9.570593411952908"><ele>389.0</ele><time>2026-04-25T17:30:45.999Z</time></trkpt><trkpt lat="44.385082584743955" lon="9.570745542212151"><ele>388.0</ele><time>2026-04-25T17:30:46.999Z</time></trkpt><trkpt lat="44.38517061877319" lon="9.570937886281808"><ele>388.0</ele><time>2026-04-25T17:30:47.999Z</time></trkpt><trkpt lat="44.38521507158904" lon="9.571186530003857"><ele>388.0</ele><time>2026-04-25T17:30:48.999Z</time></trkpt><trkpt lat="44.38526933195981" lon="9.571447984931416"><ele>388.0</ele><time>2026-04-25T17:30:49.999Z</time></trkpt><trkpt lat="44.385335884621284" lon="9.571693490219769"><ele>387.0</ele><time>2026-04-25T17:30:50.999Z</time></trkpt><trkpt lat="44.38536897282371" lon="9.5719425190364"><ele>386.0</ele><time>2026-04-25T17:30:51.999Z</time></trkpt><trkpt lat="44.38542244837931" lon="9.572173025242254"><ele>385.0</ele><time>2026-04-25T17:30:52.999Z</time></trkpt><trkpt lat="44.38544492637141" lon="9.572396542262357"><ele>384.0</ele><time>2026-04-25T17:30:53.999Z</time></trkpt><trkpt lat="44.385435109935045" lon="9.572597084612985"><ele>383.0</ele><time>2026-04-25T17:30:54.999Z</time></trkpt><trkpt lat="44.38545941262936" lon="9.572781065096514"><ele>382.0</ele><time>2026-04-25T17:30:55.999Z</time></trkpt><trkpt lat="44.385481566055624" lon="9.572962400680197"><ele>381.0</ele><time>2026-04-25T17:30:56.999Z</time></trkpt><trkpt lat="44.385495630601575" lon="9.573126648959349"><ele>381.4</ele><time>2026-04-25T17:30:57.999Z</time></trkpt><trkpt lat="44.385537054326676" lon="9.573274671627448"><ele>381.8</ele><time>2026-04-25T17:30:58.999Z</time></trkpt><trkpt lat="44.38557878499069" lon="9.573419003578088"><ele>382.2</ele><time>2026-04-25T17:30:59.999Z</time></trkpt><trkpt lat="44.38562095501345" lon="9.573553868615692"><ele>382.59999999999997</ele><time>2026-04-25T17:31:00.999Z</time></trkpt><trkpt lat="44.38567273732903" lon="9.573664938407935"><ele>383.0</ele><time>2026-04-25T17:31:01.999Z</time></trkpt><trkpt lat="44.38570382466888" lon="9.573773271922926"><ele>383.0</ele><time>2026-04-25T17:31:02.999Z</time></trkpt><trkpt lat="44.385733666617156" lon="9.573869493420835"><ele>383.0</ele><time>2026-04-25T17:31:03.999Z</time></trkpt><trkpt lat="44.38576017195143" lon="9.573959873292333"><ele>383.0</ele><time>2026-04-25T17:31:04.999Z</time></trkpt><trkpt lat="44.38578667790531" lon="9.5740535219499"><ele>383.0</ele><time>2026-04-25T17:31:05.999Z</time></trkpt><trkpt lat="44.38581330634839" lon="9.574149154870518"><ele>383.0</ele><time>2026-04-25T17:31:06.999Z</time></trkpt><trkpt lat="44.38582731382988" lon="9.574263212374163"><ele>383.0</ele><time>2026-04-25T17:31:07.999Z</time></trkpt><trkpt lat="44.38582763176145" lon="9.574376358758624"><ele>383.0</ele><time>2026-04-25T17:31:08.999Z</time></trkpt><trkpt lat="44.385815457825714" lon="9.574503058928567"><ele>383.0</ele><time>2026-04-25T17:31:09.999Z</time></trkpt><trkpt lat="44.38577842452485" lon="9.574634415186479"><ele>383.0</ele><time>2026-04-25T17:31:10.999Z</time></trkpt><trkpt lat="44.385698772572994" lon="9.574750275649883"><ele>383.0</ele><time>2026-04-25T17:31:11.999Z</time></trkpt><trkpt lat="44.38562059809116" lon="9.574899547652157"><ele>383.0</ele><time>2026-04-25T17:31:12.999Z</time></trkpt><trkpt lat="44.385520215746965" lon="9.575045104101696"><ele>382.5</ele><time>2026-04-25T17:31:13.999Z</time></trkpt><trkpt lat="44.38543124388454" lon="9.57518665106485"><ele>382.0</ele><time>2026-04-25T17:31:14.999Z</time></trkpt><trkpt lat="44.38534773398433" lon="9.575316503313745"><ele>381.5</ele><time>2026-04-25T17:31:15.999Z</time></trkpt><trkpt lat="44.38528797986494" lon="9.575445695481607"><ele>381.0</ele><time>2026-04-25T17:31:16.999Z</time></trkpt><trkpt lat="44.38522902248523" lon="9.575576809473636"><ele>381.0</ele><time>2026-04-25T17:31:17.999Z</time></trkpt><trkpt lat="44.38521656128932" lon="9.575731709846623"><ele>381.0</ele><time>2026-04-25T17:31:18.999Z</time></trkpt><trkpt lat="44.38525167092976" lon="9.575892228384557"><ele>381.0</ele><time>2026-04-25T17:31:19.999Z</time></trkpt><trkpt lat="44.3853011260426" lon="9.576051132063396"><ele>381.0</ele><time>2026-04-25T17:31:20.999Z</time></trkpt><trkpt lat="44.38536366540253" lon="9.576224132558163"><ele>379.6666666666667</ele><time>2026-04-25T17:31:21.999Z</time></trkpt><trkpt lat="44.38543689123422" lon="9.576425373646646"><ele>378.33333333333337</ele><time>2026-04-25T17:31:22.999Z</time></trkpt><trkpt lat="44.385519325231606" lon="9.576651693139858"><ele>377.0</ele><time>2026-04-25T17:31:23.999Z</time></trkpt><trkpt lat="44.385612353192755" lon="9.576894456191704"><ele>380.33333333333337</ele><time>2026-04-25T17:31:24.999Z</time></trkpt><trkpt lat="44.385697887036706" lon="9.577124907051545"><ele>383.6666666666667</ele><time>2026-04-25T17:31:25.999Z</time></trkpt><trkpt lat="44.38576523763404" lon="9.577350941591392"><ele>387.0</ele><time>2026-04-25T17:31:26.999Z</time></trkpt><trkpt lat="44.3858158661778" lon="9.57757471120224"><ele>387.0</ele><time>2026-04-25T17:31:27.999Z</time></trkpt><trkpt lat="44.38586553848623" lon="9.577816151041812"><ele>387.0</ele><time>2026-04-25T17:31:28.999Z</time></trkpt><trkpt lat="44.385887722275406" lon="9.578072186636822"><ele>387.0</ele><time>2026-04-25T17:31:29.999Z</time></trkpt><trkpt lat="44.38588998883297" lon="9.578366597295862"><ele>386.0</ele><time>2026-04-25T17:31:30.999Z</time></trkpt><trkpt lat="44.38590505000902" lon="9.57865623535884"><ele>385.0</ele><time>2026-04-25T17:31:31.999Z</time></trkpt><trkpt lat="44.38591684771958" lon="9.578922710580475"><ele>384.0</ele><time>2026-04-25T17:31:32.999Z</time></trkpt><trkpt lat="44.38592705232042" lon="9.57918023458564"><ele>383.6666666666667</ele><time>2026-04-25T17:31:33.999Z</time></trkpt><trkpt lat="44.38594883517702" lon="9.579429793805188"><ele>383.33333333333337</ele><time>2026-04-25T17:31:34.999Z</time></trkpt><trkpt lat="44.38597742584578" lon="9.579681886868084"><ele>383.0</ele><time>2026-04-25T17:31:35.999Z</time></trkpt><trkpt lat="44.38600969634339" lon="9.579921056795227"><ele>381.33333333333337</ele><time>2026-04-25T17:31:36.999Z</time></trkpt><trkpt lat="44.38603866318735" lon="9.580150234524945"><ele>379.6666666666667</ele><time>2026-04-25T17:31:37.999Z</time></trkpt><trkpt lat="44.386060009527604" lon="9.580386523944954"><ele>378.0</ele><time>2026-04-25T17:31:38.999Z</time></trkpt><trkpt lat="44.38607303781501" lon="9.580626465029304"><ele>376.0</ele><time>2026-04-25T17:31:39.999Z</time></trkpt><trkpt lat="44.3860746053956" lon="9.580887469260402"><ele>374.0</ele><time>2026-04-25T17:31:40.999Z</time></trkpt><trkpt lat="44.38606824406555" lon="9.58116482389634"><ele>372.0</ele><time>2026-04-25T17:31:41.999Z</time></trkpt><trkpt lat="44.38606317828491" lon="9.581455640124489"><ele>370.6666666666667</ele><time>2026-04-25T17:31:42.999Z</time></trkpt><trkpt lat="44.38605793922971" lon="9.581756403859169"><ele>369.33333333333337</ele><time>2026-04-25T17:31:43.999Z</time></trkpt><trkpt lat="44.38605255280232" lon="9.582058221719405"><ele>368.0</ele><time>2026-04-25T17:31:44.999Z</time></trkpt><trkpt lat="44.38604749850896" lon="9.582340898750973"><ele>368.0</ele><time>2026-04-25T17:31:45.999Z</time></trkpt><trkpt lat="44.38604273787368" lon="9.582607151998104"><ele>368.0</ele><time>2026-04-25T17:31:46.999Z</time></trkpt><trkpt lat="44.38606466638309" lon="9.582875749995276"><ele>368.0</ele><time>2026-04-25T17:31:47.999Z</time></trkpt><trkpt lat="44.38605416980104" lon="9.583086605017813"><ele>368.5</ele><time>2026-04-25T17:31:48.999Z</time></trkpt><trkpt lat="44.386036504672376" lon="9.583283443605573"><ele>369.0</ele><time>2026-04-25T17:31:49.999Z</time></trkpt><trkpt lat="44.38600178117809" lon="9.583451807219246"><ele>369.5</ele><time>2026-04-25T17:31:50.999Z</time></trkpt><trkpt lat="44.385944374209394" lon="9.583607758590597"><ele>370.0</ele><time>2026-04-25T17:31:51.999Z</time></trkpt><trkpt lat="44.38584841380388" lon="9.583690885795367"><ele>371.3333333333333</ele><time>2026-04-25T17:31:52.999Z</time></trkpt><trkpt lat="44.38579010601752" lon="9.583809683006649"><ele>372.66666666666663</ele><time>2026-04-25T17:31:53.999Z</time></trkpt><trkpt lat="44.38574774326136" lon="9.583931210979692"><ele>374.0</ele><time>2026-04-25T17:31:54.999Z</time></trkpt><trkpt lat="44.38569545257867" lon="9.584032949130325"><ele>375.3333333333333</ele><time>2026-04-25T17:31:55.999Z</time></trkpt><trkpt lat="44.38564702748401" lon="9.58412737620795"><ele>376.6666666666667</ele><time>2026-04-25T17:31:56.999Z</time></trkpt><trkpt lat="44.38560036796593" lon="9.58421059912674"><ele>378.0</ele><time>2026-04-25T17:31:57.999Z</time></trkpt><trkpt lat="44.3855371002523" lon="9.584320124441414"><ele>376.59999999999997</ele><time>2026-04-25T17:31:59.999Z</time></trkpt><trkpt lat="44.385483988119226" lon="9.584422605235108"><ele>375.2</ele><time>2026-04-25T17:32:01.999Z</time></trkpt><trkpt lat="44.38544652098921" lon="9.584500924407248"><ele>373.8</ele><time>2026-04-25T17:32:02.999Z</time></trkpt><trkpt lat="44.38539141532343" lon="9.584612969593309"><ele>372.4</ele><time>2026-04-25T17:32:03.999Z</time></trkpt><trkpt lat="44.38531910392285" lon="9.584745242280952"><ele>371.0</ele><time>2026-04-25T17:32:04.999Z</time></trkpt><trkpt lat="44.3852256601605" lon="9.584877299225743"><ele>371.0</ele><time>2026-04-25T17:32:05.999Z</time></trkpt><trkpt lat="44.38513346715182" lon="9.584985106426153"><ele>371.0</ele><time>2026-04-25T17:32:06.999Z</time></trkpt><trkpt lat="44.38503969011248" lon="9.585090724133549"><ele>371.0</ele><time>2026-04-25T17:32:07.999Z</time></trkpt><trkpt lat="44.384940839059965" lon="9.585207965939777"><ele>371.0</ele><time>2026-04-25T17:32:08.999Z</time></trkpt><trkpt lat="44.38482446722271" lon="9.58534871567154"><ele>371.0</ele><time>2026-04-25T17:32:09.999Z</time></trkpt><trkpt lat="44.38470269130468" lon="9.585498718383725"><ele>371.0</ele><time>2026-04-25T17:32:10.999Z</time></trkpt><trkpt lat="44.38459220367958" lon="9.58563830533336"><ele>371.0</ele><time>2026-04-25T17:32:11.999Z</time></trkpt><trkpt lat="44.38447732797012" lon="9.585775701689304"><ele>371.0</ele><time>2026-04-25T17:32:12.999Z</time></trkpt><trkpt lat="44.38435676042695" lon="9.585923637984166"><ele>371.0</ele><time>2026-04-25T17:32:13.999Z</time></trkpt><trkpt lat="44.38424303309284" lon="9.586104052623053"><ele>371.0</ele><time>2026-04-25T17:32:14.999Z</time></trkpt><trkpt lat="44.3841296577656" lon="9.58629128247965"><ele>369.0</ele><time>2026-04-25T17:32:15.999Z</time></trkpt><trkpt lat="44.384022941648794" lon="9.586457706071524"><ele>367.0</ele><time>2026-04-25T17:32:17Z</time></trkpt><trkpt lat="44.383893329673704" lon="9.58656741423536"><ele>365.0</ele><time>2026-04-25T17:32:18Z</time></trkpt><trkpt lat="44.38374788463194" lon="9.58668649050428"><ele>365.0</ele><time>2026-04-25T17:32:19Z</time></trkpt><trkpt lat="44.383587373244524" lon="9.586817979657406"><ele>365.0</ele><time>2026-04-25T17:32:20Z</time></trkpt><trkpt lat="44.383414425327" lon="9.586942302366463"><ele>365.0</ele><time>2026-04-25T17:32:21Z</time></trkpt><trkpt lat="44.383241215961014" lon="9.587076422435272"><ele>364.6666666666667</ele><time>2026-04-25T17:32:22Z</time></trkpt><trkpt lat="44.38307836511923" lon="9.58719880331286"><ele>364.3333333333333</ele><time>2026-04-25T17:32:23Z</time></trkpt><trkpt lat="44.38292735815351" lon="9.587312150911792"><ele>364.0</ele><time>2026-04-25T17:32:24Z</time></trkpt><trkpt lat="44.38277793115071" lon="9.587431487278149"><ele>364.0</ele><time>2026-04-25T17:32:25Z</time></trkpt><trkpt lat="44.38263478646858" lon="9.587542549341938"><ele>364.0</ele><time>2026-04-25T17:32:26Z</time></trkpt><trkpt lat="44.38248500008009" lon="9.58764086675864"><ele>364.0</ele><time>2026-04-25T17:32:27Z</time></trkpt><trkpt lat="44.38231483538942" lon="9.587727026121852"><ele>365.3333333333333</ele><time>2026-04-25T17:32:28Z</time></trkpt><trkpt lat="44.38213449851021" lon="9.587811648973773"><ele>366.6666666666667</ele><time>2026-04-25T17:32:29Z</time></trkpt><trkpt lat="44.38195548291674" lon="9.587895720412757"><ele>368.0</ele><time>2026-04-25T17:32:30Z</time></trkpt><trkpt lat="44.38177858532413" lon="9.587991078669257"><ele>368.0</ele><time>2026-04-25T17:32:31Z</time></trkpt><trkpt lat="44.381599698318134" lon="9.588086735743437"><ele>368.0</ele><time>2026-04-25T17:32:32Z</time></trkpt><trkpt lat="44.38142366190438" lon="9.588171535877086"><ele>368.0</ele><time>2026-04-25T17:32:33Z</time></trkpt><trkpt lat="44.381264104046345" lon="9.588242217305396"><ele>364.33333333333337</ele><time>2026-04-25T17:32:34Z</time></trkpt><trkpt lat="44.38110610078147" lon="9.588297153009961"><ele>360.6666666666667</ele><time>2026-04-25T17:32:35Z</time></trkpt><trkpt lat="44.380960440881736" lon="9.588358444675753"><ele>357.0</ele><time>2026-04-25T17:32:36Z</time></trkpt><trkpt lat="44.3808095538622" lon="9.588423813127847"><ele>357.0</ele><time>2026-04-25T17:32:37Z</time></trkpt><trkpt lat="44.38065740389381" lon="9.588512311780434"><ele>357.0</ele><time>2026-04-25T17:32:38Z</time></trkpt><trkpt lat="44.38049438724934" lon="9.588605188276716"><ele>357.0</ele><time>2026-04-25T17:32:39Z</time></trkpt><trkpt lat="44.38032596002445" lon="9.588701639655387"><ele>356.6666666666667</ele><time>2026-04-25T17:32:40Z</time></trkpt><trkpt lat="44.380165898884066" lon="9.588805861097486"><ele>356.33333333333337</ele><time>2026-04-25T17:32:41Z</time></trkpt><trkpt lat="44.38001630756928" lon="9.588911277246302"><ele>356.0</ele><time>2026-04-25T17:32:42Z</time></trkpt><trkpt lat="44.37987341999972" lon="9.589012800978182"><ele>356.0</ele><time>2026-04-25T17:32:43Z</time></trkpt><trkpt lat="44.37973942841116" lon="9.589117561129079"><ele>356.0</ele><time>2026-04-25T17:32:44Z</time></trkpt><trkpt lat="44.379613563758625" lon="9.589241510171801"><ele>356.0</ele><time>2026-04-25T17:32:45Z</time></trkpt><trkpt lat="44.37948552294612" lon="9.589372457106446"><ele>356.0</ele><time>2026-04-25T17:32:46Z</time></trkpt><trkpt lat="44.37935443242947" lon="9.589508389716128"><ele>356.0</ele><time>2026-04-25T17:32:47Z</time></trkpt><trkpt lat="44.37922150999365" lon="9.589657514768692"><ele>356.0</ele><time>2026-04-25T17:32:48Z</time></trkpt><trkpt lat="44.379081719092234" lon="9.589808208980523"><ele>356.0</ele><time>2026-04-25T17:32:49Z</time></trkpt><trkpt lat="44.37895152875692" lon="9.589971438697939"><ele>356.0</ele><time>2026-04-25T17:32:50Z</time></trkpt><trkpt lat="44.378830637290655" lon="9.590126495770178"><ele>356.0</ele><time>2026-04-25T17:32:51Z</time></trkpt><trkpt lat="44.37871528623042" lon="9.590273477173387"><ele>355.0</ele><time>2026-04-25T17:32:52Z</time></trkpt><trkpt lat="44.37859620045219" lon="9.590416885867597"><ele>354.0</ele><time>2026-04-25T17:32:53Z</time></trkpt><trkpt lat="44.378479089262086" lon="9.590551114874822"><ele>353.0</ele><time>2026-04-25T17:32:54Z</time></trkpt><trkpt lat="44.37836242503916" lon="9.590676191316867"><ele>353.0</ele><time>2026-04-25T17:32:55Z</time></trkpt><trkpt lat="44.37825303093375" lon="9.590790586109271"><ele>353.0</ele><time>2026-04-25T17:32:56Z</time></trkpt><trkpt lat="44.37814639096615" lon="9.59090178469038"><ele>353.0</ele><time>2026-04-25T17:32:57Z</time></trkpt><trkpt lat="44.378045500835974" lon="9.591007383552972"><ele>353.0</ele><time>2026-04-25T17:32:58Z</time></trkpt><trkpt lat="44.3779493187471" lon="9.591112756244108"><ele>353.75</ele><time>2026-04-25T17:32:59Z</time></trkpt><trkpt lat="44.37785030928887" lon="9.591202836660162"><ele>354.5</ele><time>2026-04-25T17:33:00Z</time></trkpt><trkpt lat="44.37776590599521" lon="9.591308152206809"><ele>355.25</ele><time>2026-04-25T17:33:01Z</time></trkpt><trkpt lat="44.377685491064355" lon="9.591418194685186"><ele>356.0</ele><time>2026-04-25T17:33:02Z</time></trkpt><trkpt lat="44.37761619613246" lon="9.591539278295876"><ele>356.0</ele><time>2026-04-25T17:33:03Z</time></trkpt><trkpt lat="44.3775365361202" lon="9.591647932392059"><ele>356.0</ele><time>2026-04-25T17:33:04Z</time></trkpt><trkpt lat="44.3774649943965" lon="9.591754679964732"><ele>356.0</ele><time>2026-04-25T17:33:05Z</time></trkpt><trkpt lat="44.37740098578465" lon="9.59186181098884"><ele>356.0</ele><time>2026-04-25T17:33:06Z</time></trkpt><trkpt lat="44.37734906206227" lon="9.591971892480426"><ele>356.0</ele><time>2026-04-25T17:33:07Z</time></trkpt><trkpt lat="44.37730400160653" lon="9.592085245457573"><ele>356.0</ele><time>2026-04-25T17:33:08Z</time></trkpt><trkpt lat="44.377237415867484" lon="9.592166701077891"><ele>356.0</ele><time>2026-04-25T17:33:09Z</time></trkpt><trkpt lat="44.37717905035451" lon="9.592245915522902"><ele>356.0</ele><time>2026-04-25T17:33:10Z</time></trkpt><trkpt lat="44.37711472045774" lon="9.592310183345429"><ele>356.0</ele><time>2026-04-25T17:33:11Z</time></trkpt><trkpt lat="44.377045772111444" lon="9.5924003502953"><ele>356.0</ele><time>2026-04-25T17:33:12Z</time></trkpt><trkpt lat="44.37696699277458" lon="9.592476877062786"><ele>356.0</ele><time>2026-04-25T17:33:13Z</time></trkpt><trkpt lat="44.37688560608171" lon="9.592547942002334"><ele>356.0</ele><time>2026-04-25T17:33:14Z</time></trkpt><trkpt lat="44.37680715838963" lon="9.592617050818605"><ele>356.0</ele><time>2026-04-25T17:33:15Z</time></trkpt><trkpt lat="44.37673050954883" lon="9.59269035100916"><ele>356.0</ele><time>2026-04-25T17:33:16Z</time></trkpt><trkpt lat="44.376664875211965" lon="9.592776096835468"><ele>356.0</ele><time>2026-04-25T17:33:17Z</time></trkpt><trkpt lat="44.376608474071176" lon="9.592876406790527"><ele>356.0</ele><time>2026-04-25T17:33:18Z</time></trkpt><trkpt lat="44.37654446539069" lon="9.59299331890424"><ele>356.33333333333337</ele><time>2026-04-25T17:33:19Z</time></trkpt><trkpt lat="44.376475317911144" lon="9.593088958569822"><ele>356.6666666666667</ele><time>2026-04-25T17:33:20Z</time></trkpt><trkpt lat="44.37639264645914" lon="9.593168068003958"><ele>357.0</ele><time>2026-04-25T17:33:21Z</time></trkpt><trkpt lat="44.37631731243813" lon="9.593226843397495"><ele>357.3333333333333</ele><time>2026-04-25T17:33:22Z</time></trkpt><trkpt lat="44.376243248075895" lon="9.593282489824427"><ele>357.66666666666663</ele><time>2026-04-25T17:33:23Z</time></trkpt><trkpt lat="44.37617158213577" lon="9.593323089992975"><ele>358.0</ele><time>2026-04-25T17:33:24Z</time></trkpt><trkpt lat="44.376100147587074" lon="9.593350085874052"><ele>357.2</ele><time>2026-04-25T17:33:25Z</time></trkpt><trkpt lat="44.37603508035479" lon="9.593371690143114"><ele>356.4</ele><time>2026-04-25T17:33:26Z</time></trkpt><trkpt lat="44.37591763023168" lon="9.593349577869096"><ele>355.59999999999997</ele><time>2026-04-25T17:33:28Z</time></trkpt><trkpt lat="44.37580954521425" lon="9.593277164865528"><ele>354.79999999999995</ele><time>2026-04-25T17:33:30Z</time></trkpt><trkpt lat="44.37570490572904" lon="9.593182128099066"><ele>354.0</ele><time>2026-04-25T17:33:32Z</time></trkpt><trkpt lat="44.375648615617855" lon="9.593114426333146"><ele>354.0</ele><time>2026-04-25T17:33:33Z</time></trkpt><trkpt lat="44.375581688034124" lon="9.593040927370893"><ele>354.0</ele><time>2026-04-25T17:33:34Z</time></trkpt><trkpt lat="44.375510838975465" lon="9.592975320004282"><ele>354.0</ele><time>2026-04-25T17:33:35Z</time></trkpt><trkpt lat="44.37544418625145" lon="9.592924691601016"><ele>354.0</ele><time>2026-04-25T17:33:36Z</time></trkpt><trkpt lat="44.37538212640265" lon="9.59288927651156"><ele>354.0</ele><time>2026-04-25T17:33:37Z</time></trkpt><trkpt lat="44.375263408283764" lon="9.59289267552041"><ele>354.0</ele><time>2026-04-25T17:33:39Z</time></trkpt><trkpt lat="44.37519408180059" lon="9.592932160600208"><ele>353.5</ele><time>2026-04-25T17:33:40Z</time></trkpt><trkpt lat="44.375121088435826" lon="9.592997276735087"><ele>353.0</ele><time>2026-04-25T17:33:41Z</time></trkpt><trkpt lat="44.375054224891635" lon="9.593056551938457"><ele>352.5</ele><time>2026-04-25T17:33:42Z</time></trkpt><trkpt lat="44.374995468072996" lon="9.593114249570135"><ele>352.0</ele><time>2026-04-25T17:33:43Z</time></trkpt><trkpt lat="44.37494050119054" lon="9.593166927239366"><ele>351.5</ele><time>2026-04-25T17:33:43.999Z</time></trkpt><trkpt lat="44.374882482259636" lon="9.593224513587234"><ele>351.0</ele><time>2026-04-25T17:33:44.999Z</time></trkpt><trkpt lat="44.37481433492363" lon="9.593287335267329"><ele>351.0</ele><time>2026-04-25T17:33:45.999Z</time></trkpt><trkpt lat="44.374739452456375" lon="9.593353053822687"><ele>351.0</ele><time>2026-04-25T17:33:46.999Z</time></trkpt><trkpt lat="44.374677683225784" lon="9.593422392311728"><ele>351.0</ele><time>2026-04-25T17:33:47.999Z</time></trkpt><trkpt lat="44.37460937759465" lon="9.593483237870357"><ele>351.0</ele><time>2026-04-25T17:33:48.999Z</time></trkpt><trkpt lat="44.374538342799816" lon="9.59356197534491"><ele>351.0</ele><time>2026-04-25T17:33:49.999Z</time></trkpt><trkpt lat="44.37443475071659" lon="9.59366905303932"><ele>350.0</ele><time>2026-04-25T17:33:50.999Z</time></trkpt><trkpt lat="44.37432770948699" lon="9.593813281336516"><ele>349.0</ele><time>2026-04-25T17:33:51.999Z</time></trkpt><trkpt lat="44.374199464460474" lon="9.593986799345226"><ele>348.0</ele><time>2026-04-25T17:33:52.999Z</time></trkpt><trkpt lat="44.37408662556571" lon="9.594171488654835"><ele>348.0</ele><time>2026-04-25T17:33:53.999Z</time></trkpt><trkpt lat="44.373964159847034" lon="9.594344700848769"><ele>348.0</ele><time>2026-04-25T17:33:54.999Z</time></trkpt><trkpt lat="44.37384401258489" lon="9.594531203927241"><ele>348.0</ele><time>2026-04-25T17:33:55.999Z</time></trkpt><trkpt lat="44.37372896227534" lon="9.594698705263484"><ele>347.6666666666667</ele><time>2026-04-25T17:33:56.999Z</time></trkpt><trkpt lat="44.37362093178482" lon="9.594893255523274"><ele>347.33333333333337</ele><time>2026-04-25T17:33:57.999Z</time></trkpt><trkpt lat="44.373499004426854" lon="9.595030585865159"><ele>347.0</ele><time>2026-04-25T17:33:58.999Z</time></trkpt><trkpt lat="44.37338442541287" lon="9.595189469657797"><ele>347.0</ele><time>2026-04-25T17:33:59.999Z</time></trkpt><trkpt lat="44.37323823631334" lon="9.595313469345685"><ele>347.0</ele><time>2026-04-25T17:34:00.999Z</time></trkpt><trkpt lat="44.37309832754845" lon="9.59541752872185"><ele>347.0</ele><time>2026-04-25T17:34:01.999Z</time></trkpt><trkpt lat="44.37295269794643" lon="9.595503379483427"><ele>349.33333333333337</ele><time>2026-04-25T17:34:02.999Z</time></trkpt><trkpt lat="44.3727957030177" lon="9.595570390904335"><ele>351.6666666666667</ele><time>2026-04-25T17:34:03.999Z</time></trkpt><trkpt lat="44.372626635955335" lon="9.59562761906195"><ele>354.0</ele><time>2026-04-25T17:34:04.999Z</time></trkpt><trkpt lat="44.3724513816909" lon="9.595676749090789"><ele>354.0</ele><time>2026-04-25T17:34:05.999Z</time></trkpt><trkpt lat="44.372267558280726" lon="9.59571230115991"><ele>354.0</ele><time>2026-04-25T17:34:06.999Z</time></trkpt><trkpt lat="44.37207381169376" lon="9.595733922366852"><ele>354.0</ele><time>2026-04-25T17:34:07.999Z</time></trkpt><trkpt lat="44.3718847361998" lon="9.595755479824335"><ele>352.6666666666667</ele><time>2026-04-25T17:34:08.999Z</time></trkpt><trkpt lat="44.371706523130904" lon="9.595781790455291"><ele>351.33333333333337</ele><time>2026-04-25T17:34:09.999Z</time></trkpt><trkpt lat="44.37154903746624" lon="9.595812104668804"><ele>350.0</ele><time>2026-04-25T17:34:10.999Z</time></trkpt><trkpt lat="44.37140116713695" lon="9.595831600240519"><ele>349.0</ele><time>2026-04-25T17:34:11.999Z</time></trkpt><trkpt lat="44.3712674353816" lon="9.595837247208076"><ele>348.0</ele><time>2026-04-25T17:34:12.999Z</time></trkpt><trkpt lat="44.37115976238662" lon="9.595835475466604"><ele>347.0</ele><time>2026-04-25T17:34:13.999Z</time></trkpt><trkpt lat="44.371078279002326" lon="9.595797613970257"><ele>346.0</ele><time>2026-04-25T17:34:14.999Z</time></trkpt><trkpt lat="44.37100915614057" lon="9.595704167854914"><ele>345.0</ele><time>2026-04-25T17:34:15.999Z</time></trkpt><trkpt lat="44.37095200033237" lon="9.595552185526412"><ele>345.0</ele><time>2026-04-25T17:34:16.999Z</time></trkpt><trkpt lat="44.370904697447" lon="9.595359074375866"><ele>345.0</ele><time>2026-04-25T17:34:17.999Z</time></trkpt><trkpt lat="44.370858616902154" lon="9.595158341369347"><ele>345.0</ele><time>2026-04-25T17:34:18.999Z</time></trkpt><trkpt lat="44.37081273800185" lon="9.594980862474289"><ele>345.0</ele><time>2026-04-25T17:34:19.999Z</time></trkpt><trkpt lat="44.370764046961924" lon="9.594840700334402"><ele>345.0</ele><time>2026-04-25T17:34:20.999Z</time></trkpt><trkpt lat="44.370700294975215" lon="9.594729434715315"><ele>345.0</ele><time>2026-04-25T17:34:21.999Z</time></trkpt><trkpt lat="44.37061989850162" lon="9.594657671826365"><ele>345.0</ele><time>2026-04-25T17:34:23Z</time></trkpt><trkpt lat="44.37052125199743" lon="9.594627445265084"><ele>345.0</ele><time>2026-04-25T17:34:24Z</time></trkpt><trkpt lat="44.37041241280579" lon="9.594657713747448"><ele>345.0</ele><time>2026-04-25T17:34:25Z</time></trkpt><trkpt lat="44.37029869382054" lon="9.594724440795494"><ele>345.0</ele><time>2026-04-25T17:34:26Z</time></trkpt><trkpt lat="44.37017148906102" lon="9.594834136259738"><ele>345.0</ele><time>2026-04-25T17:34:27Z</time></trkpt><trkpt lat="44.370025086194" lon="9.594953596647146"><ele>345.0</ele><time>2026-04-25T17:34:28Z</time></trkpt><trkpt lat="44.3698303839665" lon="9.595049930553099"><ele>350.6666666666667</ele><time>2026-04-25T17:34:29Z</time></trkpt><trkpt lat="44.36962150310069" lon="9.595126023798903"><ele>356.33333333333337</ele><time>2026-04-25T17:34:30Z</time></trkpt><trkpt lat="44.36943197571775" lon="9.595219681975191"><ele>362.0</ele><time>2026-04-25T17:34:31Z</time></trkpt><trkpt lat="44.36927984768315" lon="9.595308367426602"><ele>362.0</ele><time>2026-04-25T17:34:32Z</time></trkpt><trkpt lat="44.3691584942596" lon="9.595380074004956"><ele>362.0</ele><time>2026-04-25T17:34:33Z</time></trkpt><trkpt lat="44.369059143720065" lon="9.595407931521569"><ele>362.0</ele><time>2026-04-25T17:34:34Z</time></trkpt><trkpt lat="44.36896872568743" lon="9.595379609773453"><ele>362.0</ele><time>2026-04-25T17:34:35Z</time></trkpt><trkpt lat="44.36887045143598" lon="9.595294213902282"><ele>362.0</ele><time>2026-04-25T17:34:36Z</time></trkpt><trkpt lat="44.36876609877518" lon="9.595173640761555"><ele>359.0</ele><time>2026-04-25T17:34:37Z</time></trkpt><trkpt lat="44.36863748412875" lon="9.595045696005373"><ele>356.0</ele><time>2026-04-25T17:34:38Z</time></trkpt><trkpt lat="44.368474682678965" lon="9.59492888032542"><ele>353.0</ele><time>2026-04-25T17:34:39Z</time></trkpt><trkpt lat="44.368314251431734" lon="9.594818539676913"><ele>353.0</ele><time>2026-04-25T17:34:40Z</time></trkpt><trkpt lat="44.368165608267205" lon="9.594698219473973"><ele>353.0</ele><time>2026-04-25T17:34:41Z</time></trkpt><trkpt lat="44.36802563638866" lon="9.59459281078989"><ele>353.0</ele><time>2026-04-25T17:34:42Z</time></trkpt><trkpt lat="44.36789044098741" lon="9.59451806854417"><ele>350.75</ele><time>2026-04-25T17:34:43Z</time></trkpt><trkpt lat="44.367751889198054" lon="9.594476694986332"><ele>348.5</ele><time>2026-04-25T17:34:44Z</time></trkpt><trkpt lat="44.36760138905302" lon="9.594471292788597"><ele>346.25</ele><time>2026-04-25T17:34:45Z</time></trkpt><trkpt lat="44.367453979503885" lon="9.594499889195262"><ele>344.0</ele><time>2026-04-25T17:34:46Z</time></trkpt><trkpt lat="44.36731958242492" lon="9.594539545116064"><ele>344.0</ele><time>2026-04-25T17:34:47Z</time></trkpt><trkpt lat="44.3671944920003" lon="9.594555673974545"><ele>344.0</ele><time>2026-04-25T17:34:48Z</time></trkpt><trkpt lat="44.367073558883035" lon="9.59454870330669"><ele>344.0</ele><time>2026-04-25T17:34:49Z</time></trkpt><trkpt lat="44.3669578978399" lon="9.59452283911022"><ele>344.0</ele><time>2026-04-25T17:34:50Z</time></trkpt><trkpt lat="44.366856222572984" lon="9.594486262103551"><ele>347.4</ele><time>2026-04-25T17:34:51Z</time></trkpt><trkpt lat="44.36675837482418" lon="9.594425085871697"><ele>350.79999999999995</ele><time>2026-04-25T17:34:52Z</time></trkpt><trkpt lat="44.36666752455752" lon="9.59432852031806"><ele>354.20000000000005</ele><time>2026-04-25T17:34:53Z</time></trkpt><trkpt lat="44.36657243267652" lon="9.594248858367044"><ele>357.6</ele><time>2026-04-25T17:34:54Z</time></trkpt><trkpt lat="44.36647492649755" lon="9.594210655432345"><ele>361.0</ele><time>2026-04-25T17:34:55Z</time></trkpt><trkpt lat="44.36638176777264" lon="9.594210562083777"><ele>364.66666666666663</ele><time>2026-04-25T17:34:56Z</time></trkpt><trkpt lat="44.3661989067872" lon="9.594334497199368"><ele>368.3333333333333</ele><time>2026-04-25T17:34:57Z</time></trkpt><trkpt lat="44.366038303982684" lon="9.594399858644621"><ele>372.0</ele><time>2026-04-25T17:34:58Z</time></trkpt><trkpt lat="44.365886068655605" lon="9.59444281542904"><ele>372.0</ele><time>2026-04-25T17:34:59Z</time></trkpt><trkpt lat="44.36573830217529" lon="9.594478414127265"><ele>372.0</ele><time>2026-04-25T17:35:00Z</time></trkpt><trkpt lat="44.36559511872704" lon="9.594547655489055"><ele>372.0</ele><time>2026-04-25T17:35:01Z</time></trkpt><trkpt lat="44.36546466472178" lon="9.59462820502784"><ele>372.0</ele><time>2026-04-25T17:35:02Z</time></trkpt><trkpt lat="44.3653601897191" lon="9.59474672493613"><ele>371.5</ele><time>2026-04-25T17:35:03Z</time></trkpt><trkpt lat="44.36527314226168" lon="9.594914145179121"><ele>371.0</ele><time>2026-04-25T17:35:04Z</time></trkpt><trkpt lat="44.36520365000459" lon="9.59511015544881"><ele>370.5</ele><time>2026-04-25T17:35:05Z</time></trkpt><trkpt lat="44.36513965441175" lon="9.595275967678301"><ele>370.0</ele><time>2026-04-25T17:35:06Z</time></trkpt><trkpt lat="44.36507102763736" lon="9.595406867040195"><ele>367.2</ele><time>2026-04-25T17:35:07Z</time></trkpt><trkpt lat="44.364985624379806" lon="9.59549307950113"><ele>364.4</ele><time>2026-04-25T17:35:08Z</time></trkpt><trkpt lat="44.364891725524444" lon="9.595516911140352"><ele>361.6</ele><time>2026-04-25T17:35:09Z</time></trkpt><trkpt lat="44.364791332463525" lon="9.595446491334876"><ele>358.8</ele><time>2026-04-25T17:35:10Z</time></trkpt><trkpt lat="44.364692699050046" lon="9.59534971560453"><ele>356.0</ele><time>2026-04-25T17:35:11Z</time></trkpt><trkpt lat="44.3645748399019" lon="9.595225185670534"><ele>356.0</ele><time>2026-04-25T17:35:12Z</time></trkpt><trkpt lat="44.364424462950026" lon="9.59511011372136"><ele>356.0</ele><time>2026-04-25T17:35:13Z</time></trkpt><trkpt lat="44.36428444035768" lon="9.594960446321782"><ele>356.0</ele><time>2026-04-25T17:35:14Z</time></trkpt><trkpt lat="44.36416358894523" lon="9.594830353944142"><ele>356.0</ele><time>2026-04-25T17:35:15Z</time></trkpt><trkpt lat="44.3640282064887" lon="9.594744834863778"><ele>356.0</ele><time>2026-04-25T17:35:16Z</time></trkpt><trkpt lat="44.36386657314773" lon="9.594697214905592"><ele>356.0</ele><time>2026-04-25T17:35:17Z</time></trkpt><trkpt lat="44.36369614970798" lon="9.594677588968617"><ele>358.33333333333337</ele><time>2026-04-25T17:35:18Z</time></trkpt><trkpt lat="44.36355074630518" lon="9.594603975017643"><ele>360.6666666666667</ele><time>2026-04-25T17:35:19Z</time></trkpt><trkpt lat="44.36341141452235" lon="9.594504956340993"><ele>363.0</ele><time>2026-04-25T17:35:20Z</time></trkpt><trkpt lat="44.36325651723068" lon="9.594395906959607"><ele>363.0</ele><time>2026-04-25T17:35:21Z</time></trkpt><trkpt lat="44.36309560776462" lon="9.594262508538497"><ele>363.0</ele><time>2026-04-25T17:35:22Z</time></trkpt><trkpt lat="44.3629159508613" lon="9.594137198892073"><ele>363.0</ele><time>2026-04-25T17:35:23Z</time></trkpt><trkpt lat="44.362751614953325" lon="9.59402298601974"><ele>359.6666666666667</ele><time>2026-04-25T17:35:24Z</time></trkpt><trkpt lat="44.3625924130723" lon="9.593929402307925"><ele>356.33333333333337</ele><time>2026-04-25T17:35:25Z</time></trkpt><trkpt lat="44.36243401593407" lon="9.593840385421625"><ele>353.0</ele><time>2026-04-25T17:35:26Z</time></trkpt><trkpt lat="44.362269926152265" lon="9.593763557625575"><ele>354.6666666666667</ele><time>2026-04-25T17:35:27Z</time></trkpt><trkpt lat="44.36209961863762" lon="9.59370351916866"><ele>356.3333333333333</ele><time>2026-04-25T17:35:28Z</time></trkpt><trkpt lat="44.361919577019314" lon="9.593644597251764"><ele>358.0</ele><time>2026-04-25T17:35:29Z</time></trkpt><trkpt lat="44.36173115369204" lon="9.59358972012551"><ele>358.0</ele><time>2026-04-25T17:35:30Z</time></trkpt><trkpt lat="44.36154871073893" lon="9.593543359744025"><ele>358.0</ele><time>2026-04-25T17:35:31Z</time></trkpt><trkpt lat="44.361366525334354" lon="9.59351958256248"><ele>358.0</ele><time>2026-04-25T17:35:32Z</time></trkpt><trkpt lat="44.36117137162802" lon="9.593521885113217"><ele>352.0</ele><time>2026-04-25T17:35:33Z</time></trkpt><trkpt lat="44.3609588280032" lon="9.59354354775381"><ele>346.0</ele><time>2026-04-25T17:35:34Z</time></trkpt><trkpt lat="44.360729828157446" lon="9.593579148625366"><ele>340.0</ele><time>2026-04-25T17:35:35Z</time></trkpt><trkpt lat="44.36048578489522" lon="9.593614658140197"><ele>339.5</ele><time>2026-04-25T17:35:36Z</time></trkpt><trkpt lat="44.360258539987065" lon="9.593643647975368"><ele>339.0</ele><time>2026-04-25T17:35:37Z</time></trkpt><trkpt lat="44.36003709545647" lon="9.59367013278733"><ele>335.6666666666667</ele><time>2026-04-25T17:35:38Z</time></trkpt><trkpt lat="44.35982631477813" lon="9.593692698406741"><ele>332.33333333333337</ele><time>2026-04-25T17:35:39Z</time></trkpt><trkpt lat="44.35961787199737" lon="9.593720258985638"><ele>329.0</ele><time>2026-04-25T17:35:40Z</time></trkpt><trkpt lat="44.35941465928999" lon="9.59374645593577"><ele>329.0</ele><time>2026-04-25T17:35:41Z</time></trkpt><trkpt lat="44.359214829149344" lon="9.59375858229426"><ele>329.0</ele><time>2026-04-25T17:35:42Z</time></trkpt><trkpt lat="44.35901268456218" lon="9.593751877748524"><ele>329.0</ele><time>2026-04-25T17:35:43Z</time></trkpt><trkpt lat="44.35881378462988" lon="9.593715418175845"><ele>327.0</ele><time>2026-04-25T17:35:44Z</time></trkpt><trkpt lat="44.35860690606736" lon="9.59367331930815"><ele>325.0</ele><time>2026-04-25T17:35:45Z</time></trkpt><trkpt lat="44.3584026079168" lon="9.593639347534532"><ele>323.0</ele><time>2026-04-25T17:35:46Z</time></trkpt><trkpt lat="44.35820199248706" lon="9.593618863301327"><ele>329.0</ele><time>2026-04-25T17:35:47Z</time></trkpt><trkpt lat="44.35799790712557" lon="9.59361054058104"><ele>335.0</ele><time>2026-04-25T17:35:48Z</time></trkpt><trkpt lat="44.35778680841715" lon="9.593618025807787"><ele>341.0</ele><time>2026-04-25T17:35:49Z</time></trkpt><trkpt lat="44.357571109759796" lon="9.593636172059673"><ele>341.0</ele><time>2026-04-25T17:35:50Z</time></trkpt><trkpt lat="44.35735513212261" lon="9.593662662218495"><ele>341.0</ele><time>2026-04-25T17:35:51Z</time></trkpt><trkpt lat="44.35713710240685" lon="9.593696104561785"><ele>341.0</ele><time>2026-04-25T17:35:52Z</time></trkpt><trkpt lat="44.356916048537954" lon="9.593721649711329"><ele>335.6666666666667</ele><time>2026-04-25T17:35:53Z</time></trkpt><trkpt lat="44.35670469312615" lon="9.593745646802667"><ele>330.3333333333333</ele><time>2026-04-25T17:35:54Z</time></trkpt><trkpt lat="44.35650843374729" lon="9.593766951182186"><ele>325.0</ele><time>2026-04-25T17:35:55Z</time></trkpt><trkpt lat="44.35632571738432" lon="9.593780187154358"><ele>325.0</ele><time>2026-04-25T17:35:56Z</time></trkpt><trkpt lat="44.356153339913746" lon="9.593776994693009"><ele>325.0</ele><time>2026-04-25T17:35:57Z</time></trkpt><trkpt lat="44.35599332393774" lon="9.593768251146532"><ele>325.0</ele><time>2026-04-25T17:35:58Z</time></trkpt><trkpt lat="44.35583810472978" lon="9.59378306963944"><ele>325.0</ele><time>2026-04-25T17:35:59Z</time></trkpt><trkpt lat="44.35569548138223" lon="9.593831065797831"><ele>325.0</ele><time>2026-04-25T17:36:00Z</time></trkpt><trkpt lat="44.35556944755568" lon="9.593911915919737"><ele>325.0</ele><time>2026-04-25T17:36:01Z</time></trkpt><trkpt lat="44.355447476060135" lon="9.594005587841758"><ele>325.0</ele><time>2026-04-25T17:36:02Z</time></trkpt><trkpt lat="44.355335570276075" lon="9.594121418867843"><ele>328.3333333333333</ele><time>2026-04-25T17:36:03Z</time></trkpt><trkpt lat="44.35521661109188" lon="9.594226617190781"><ele>331.6666666666667</ele><time>2026-04-25T17:36:04Z</time></trkpt><trkpt lat="44.355077893683735" lon="9.594290806628745"><ele>335.0</ele><time>2026-04-25T17:36:05Z</time></trkpt><trkpt lat="44.354910571039824" lon="9.594320015893851"><ele>335.0</ele><time>2026-04-25T17:36:06Z</time></trkpt><trkpt lat="44.354734310971786" lon="9.594375608178597"><ele>335.0</ele><time>2026-04-25T17:36:06.999Z</time></trkpt><trkpt lat="44.35454777653754" lon="9.59447293854229"><ele>335.0</ele><time>2026-04-25T17:36:07.999Z</time></trkpt><trkpt lat="44.35436289739788" lon="9.594567712704396"><ele>329.6666666666667</ele><time>2026-04-25T17:36:08.999Z</time></trkpt><trkpt lat="44.3541699606378" lon="9.594636242567164"><ele>324.3333333333333</ele><time>2026-04-25T17:36:09.999Z</time></trkpt><trkpt lat="44.35399070893542" lon="9.594708104819766"><ele>319.0</ele><time>2026-04-25T17:36:10.999Z</time></trkpt><trkpt lat="44.35381974992223" lon="9.594787557553365"><ele>319.0</ele><time>2026-04-25T17:36:11.999Z</time></trkpt><trkpt lat="44.35366623283427" lon="9.594862936317083"><ele>319.0</ele><time>2026-04-25T17:36:12.999Z</time></trkpt><trkpt lat="44.353524711373765" lon="9.594934824334782"><ele>319.0</ele><time>2026-04-25T17:36:13.999Z</time></trkpt><trkpt lat="44.35339373652251" lon="9.595009264494488"><ele>319.0</ele><time>2026-04-25T17:36:14.999Z</time></trkpt><trkpt lat="44.35326184950267" lon="9.595063834297397"><ele>319.0</ele><time>2026-04-25T17:36:15.999Z</time></trkpt><trkpt lat="44.35312851146315" lon="9.595087007425073"><ele>319.0</ele><time>2026-04-25T17:36:16.999Z</time></trkpt><trkpt lat="44.35298667256202" lon="9.595073423786758"><ele>319.0</ele><time>2026-04-25T17:36:17.999Z</time></trkpt><trkpt lat="44.35283468619353" lon="9.595021686041834"><ele>319.25</ele><time>2026-04-25T17:36:18.999Z</time></trkpt><trkpt lat="44.35268086731169" lon="9.59502228605398"><ele>319.5</ele><time>2026-04-25T17:36:19.999Z</time></trkpt><trkpt lat="44.35254235861485" lon="9.595013056602868"><ele>319.75</ele><time>2026-04-25T17:36:20.999Z</time></trkpt><trkpt lat="44.35241575986456" lon="9.595004579254313"><ele>320.0</ele><time>2026-04-25T17:36:21.999Z</time></trkpt><trkpt lat="44.35230765080093" lon="9.594987520073653"><ele>320.0</ele><time>2026-04-25T17:36:22.999Z</time></trkpt><trkpt lat="44.35222594858888" lon="9.59499735502379"><ele>320.0</ele><time>2026-04-25T17:36:23.999Z</time></trkpt><trkpt lat="44.35216783019148" lon="9.595065656045918"><ele>320.0</ele><time>2026-04-25T17:36:24.999Z</time></trkpt><trkpt lat="44.352135290980826" lon="9.595185869522524"><ele>320.0</ele><time>2026-04-25T17:36:25.999Z</time></trkpt><trkpt lat="44.35211712929857" lon="9.595344009496198"><ele>320.0</ele><time>2026-04-25T17:36:26.999Z</time></trkpt><trkpt lat="44.352082100548316" lon="9.595511854144847"><ele>320.0</ele><time>2026-04-25T17:36:27.999Z</time></trkpt><trkpt lat="44.35204485474612" lon="9.595657568223693"><ele>320.0</ele><time>2026-04-25T17:36:29.001Z</time></trkpt><trkpt lat="44.351950943431234" lon="9.595751586252318"><ele>320.0</ele><time>2026-04-25T17:36:30.001Z</time></trkpt><trkpt lat="44.35184188023297" lon="9.595835519625261"><ele>320.0</ele><time>2026-04-25T17:36:31.001Z</time></trkpt><trkpt lat="44.35173552277374" lon="9.595904354372925"><ele>320.0</ele><time>2026-04-25T17:36:32.001Z</time></trkpt><trkpt lat="44.35162263082171" lon="9.595921042352556"><ele>320.0</ele><time>2026-04-25T17:36:33.001Z</time></trkpt><trkpt lat="44.351506765769486" lon="9.595903246840516"><ele>320.0</ele><time>2026-04-25T17:36:34.001Z</time></trkpt><trkpt lat="44.35138539847599" lon="9.595842965629528"><ele>320.0</ele><time>2026-04-25T17:36:35.001Z</time></trkpt><trkpt lat="44.35125710590436" lon="9.595759317599267"><ele>317.6666666666667</ele><time>2026-04-25T17:36:36.001Z</time></trkpt><trkpt lat="44.351128182099934" lon="9.595626782486447"><ele>315.3333333333333</ele><time>2026-04-25T17:36:37.001Z</time></trkpt><trkpt lat="44.350978089217584" lon="9.59551092021065"><ele>313.0</ele><time>2026-04-25T17:36:38.001Z</time></trkpt><trkpt lat="44.35085053067124" lon="9.595367648394214"><ele>315.3333333333333</ele><time>2026-04-25T17:36:39.001Z</time></trkpt><trkpt lat="44.3507153827903" lon="9.595233768513246"><ele>317.6666666666667</ele><time>2026-04-25T17:36:40.001Z</time></trkpt><trkpt lat="44.35057635650664" lon="9.595117093528906"><ele>320.0</ele><time>2026-04-25T17:36:41.001Z</time></trkpt><trkpt lat="44.35043661447068" lon="9.59502853160305"><ele>320.0</ele><time>2026-04-25T17:36:42.001Z</time></trkpt><trkpt lat="44.35028220466096" lon="9.594968763254238"><ele>320.0</ele><time>2026-04-25T17:36:43.001Z</time></trkpt><trkpt lat="44.35010632853493" lon="9.594936938780556"><ele>320.0</ele><time>2026-04-25T17:36:44.001Z</time></trkpt><trkpt lat="44.34993713270973" lon="9.594920872818749"><ele>320.0</ele><time>2026-04-25T17:36:45.001Z</time></trkpt><trkpt lat="44.34978632920762" lon="9.59489613637311"><ele>320.0</ele><time>2026-04-25T17:36:46.001Z</time></trkpt><trkpt lat="44.349651462762424" lon="9.594838635645685"><ele>320.0</ele><time>2026-04-25T17:36:47.001Z</time></trkpt><trkpt lat="44.34953326178778" lon="9.594755323692187"><ele>320.0</ele><time>2026-04-25T17:36:48.001Z</time></trkpt><trkpt lat="44.349425490302494" lon="9.594644039990929"><ele>319.6666666666667</ele><time>2026-04-25T17:36:49Z</time></trkpt><trkpt lat="44.349327765934795" lon="9.594507908567047"><ele>319.3333333333333</ele><time>2026-04-25T17:36:50Z</time></trkpt><trkpt lat="44.34923873344522" lon="9.594338664726239"><ele>319.0</ele><time>2026-04-25T17:36:51Z</time></trkpt><trkpt lat="44.349154987118624" lon="9.594142305137071"><ele>319.0</ele><time>2026-04-25T17:36:52Z</time></trkpt><trkpt lat="44.34907864648679" lon="9.593912706666831"><ele>319.0</ele><time>2026-04-25T17:36:53Z</time></trkpt><trkpt lat="44.34899508593534" lon="9.593675947091715"><ele>319.0</ele><time>2026-04-25T17:36:54Z</time></trkpt><trkpt lat="44.34889239216697" lon="9.59344183214636"><ele>315.0</ele><time>2026-04-25T17:36:55Z</time></trkpt><trkpt lat="44.34878206737315" lon="9.593232340304057"><ele>311.0</ele><time>2026-04-25T17:36:56Z</time></trkpt><trkpt lat="44.34867220151023" lon="9.59304183768753"><ele>307.0</ele><time>2026-04-25T17:36:57Z</time></trkpt><trkpt lat="44.34855462598222" lon="9.5928617031575"><ele>311.66666666666663</ele><time>2026-04-25T17:36:58Z</time></trkpt><trkpt lat="44.348427580484326" lon="9.592713735978814"><ele>316.3333333333333</ele><time>2026-04-25T17:36:59Z</time></trkpt><trkpt lat="44.348287512139706" lon="9.592589745355726"><ele>321.0</ele><time>2026-04-25T17:37:00Z</time></trkpt><trkpt lat="44.348135395420314" lon="9.59248937688571"><ele>318.3333333333333</ele><time>2026-04-25T17:37:01Z</time></trkpt><trkpt lat="44.34797741782876" lon="9.592413362468283"><ele>315.66666666666663</ele><time>2026-04-25T17:37:02Z</time></trkpt><trkpt lat="44.34781680319444" lon="9.592368072599381"><ele>313.0</ele><time>2026-04-25T17:37:03Z</time></trkpt><trkpt lat="44.34766427958203" lon="9.592278756874649"><ele>313.0</ele><time>2026-04-25T17:37:04Z</time></trkpt><trkpt lat="44.3474804588195" lon="9.592298005823956"><ele>313.0</ele><time>2026-04-25T17:37:05Z</time></trkpt><trkpt lat="44.34732085135694" lon="9.592267242192548"><ele>313.0</ele><time>2026-04-25T17:37:06Z</time></trkpt><trkpt lat="44.34718302618861" lon="9.59224908196301"><ele>312.5</ele><time>2026-04-25T17:37:07Z</time></trkpt><trkpt lat="44.34705175685516" lon="9.592260736593389"><ele>312.0</ele><time>2026-04-25T17:37:08Z</time></trkpt><trkpt lat="44.346919951081134" lon="9.592313905691187"><ele>311.5</ele><time>2026-04-25T17:37:09Z</time></trkpt><trkpt lat="44.346774347733565" lon="9.592417584797545"><ele>311.0</ele><time>2026-04-25T17:37:10Z</time></trkpt><trkpt lat="44.34661903985863" lon="9.592539157492322"><ele>311.0</ele><time>2026-04-25T17:37:11Z</time></trkpt><trkpt lat="44.34645297285441" lon="9.592675653712298"><ele>311.0</ele><time>2026-04-25T17:37:12Z</time></trkpt><trkpt lat="44.34628813110063" lon="9.592809760296964"><ele>311.0</ele><time>2026-04-25T17:37:13Z</time></trkpt><trkpt lat="44.34613418835669" lon="9.592918898529991"><ele>308.5</ele><time>2026-04-25T17:37:14Z</time></trkpt><trkpt lat="44.34599336467355" lon="9.592995127611367"><ele>306.0</ele><time>2026-04-25T17:37:15Z</time></trkpt><trkpt lat="44.345872610477734" lon="9.593052093244971"><ele>303.5</ele><time>2026-04-25T17:37:16Z</time></trkpt><trkpt lat="44.34576600567601" lon="9.593088599607722"><ele>301.0</ele><time>2026-04-25T17:37:17Z</time></trkpt><trkpt lat="44.34564998335854" lon="9.593087895363919"><ele>300.25</ele><time>2026-04-25T17:37:18Z</time></trkpt><trkpt lat="44.34552680157344" lon="9.59305762942536"><ele>299.5</ele><time>2026-04-25T17:37:19Z</time></trkpt><trkpt lat="44.34540553340927" lon="9.593036168633583"><ele>298.75</ele><time>2026-04-25T17:37:20Z</time></trkpt><trkpt lat="44.34529780945252" lon="9.593014344362986"><ele>298.0</ele><time>2026-04-25T17:37:21Z</time></trkpt><trkpt lat="44.34521109809996" lon="9.592954001425095"><ele>298.0</ele><time>2026-04-25T17:37:22Z</time></trkpt><trkpt lat="44.345138140777074" lon="9.592846652830298"><ele>298.0</ele><time>2026-04-25T17:37:23Z</time></trkpt><trkpt lat="44.34506465407728" lon="9.592697454207176"><ele>298.0</ele><time>2026-04-25T17:37:24Z</time></trkpt><trkpt lat="44.3449713928995" lon="9.592530941945613"><ele>298.0</ele><time>2026-04-25T17:37:25Z</time></trkpt><trkpt lat="44.34487102175909" lon="9.592348555243328"><ele>297.3333333333333</ele><time>2026-04-25T17:37:26Z</time></trkpt><trkpt lat="44.344774259778426" lon="9.592175256038002"><ele>296.6666666666667</ele><time>2026-04-25T17:37:27Z</time></trkpt><trkpt lat="44.34468108888623" lon="9.592002996124974"><ele>296.0</ele><time>2026-04-25T17:37:28Z</time></trkpt><trkpt lat="44.34458834520605" lon="9.591809889427328"><ele>296.0</ele><time>2026-04-25T17:37:29Z</time></trkpt><trkpt lat="44.34450010335625" lon="9.5915823698872"><ele>296.0</ele><time>2026-04-25T17:37:30Z</time></trkpt><trkpt lat="44.3444153718897" lon="9.591323205602384"><ele>296.0</ele><time>2026-04-25T17:37:31Z</time></trkpt><trkpt lat="44.34433512511087" lon="9.59107230268245"><ele>296.33333333333337</ele><time>2026-04-25T17:37:32Z</time></trkpt><trkpt lat="44.34425995357606" lon="9.59084112995005"><ele>296.6666666666667</ele><time>2026-04-25T17:37:33Z</time></trkpt><trkpt lat="44.34419060236436" lon="9.590624860474179"><ele>297.0</ele><time>2026-04-25T17:37:34Z</time></trkpt><trkpt lat="44.3441203485424" lon="9.590429794778824"><ele>299.4</ele><time>2026-04-25T17:37:35Z</time></trkpt><trkpt lat="44.34405672308952" lon="9.590266995609252"><ele>301.79999999999995</ele><time>2026-04-25T17:37:36Z</time></trkpt><trkpt lat="44.34399398455996" lon="9.59014628606588"><ele>304.2</ele><time>2026-04-25T17:37:37Z</time></trkpt><trkpt lat="44.34391539570243" lon="9.59007940494652"><ele>306.59999999999997</ele><time>2026-04-25T17:37:38Z</time></trkpt><trkpt lat="44.343817277869114" lon="9.590048579555033"><ele>309.0</ele><time>2026-04-25T17:37:39Z</time></trkpt><trkpt lat="44.343680196244485" lon="9.59007388600511"><ele>309.75</ele><time>2026-04-25T17:37:40Z</time></trkpt><trkpt lat="44.34353126622602" lon="9.590067378348726"><ele>310.5</ele><time>2026-04-25T17:37:41Z</time></trkpt><trkpt lat="44.343397195180636" lon="9.59004617612323"><ele>311.25</ele><time>2026-04-25T17:37:42Z</time></trkpt><trkpt lat="44.343266372820345" lon="9.590055686551235"><ele>312.0</ele><time>2026-04-25T17:37:43Z</time></trkpt><trkpt lat="44.34313769754852" lon="9.590115593227717"><ele>313.0</ele><time>2026-04-25T17:37:44Z</time></trkpt><trkpt lat="44.343005441415464" lon="9.590204163834022"><ele>314.0</ele><time>2026-04-25T17:37:45Z</time></trkpt><trkpt lat="44.342856033951016" lon="9.590255025053306"><ele>315.0</ele><time>2026-04-25T17:37:46Z</time></trkpt><trkpt lat="44.34272553930173" lon="9.590315991037786"><ele>316.0</ele><time>2026-04-25T17:37:47Z</time></trkpt><trkpt lat="44.342598178388315" lon="9.590322308795198"><ele>316.0</ele><time>2026-04-25T17:37:48Z</time></trkpt><trkpt lat="44.34246681214113" lon="9.590314424056944"><ele>316.0</ele><time>2026-04-25T17:37:49Z</time></trkpt><trkpt lat="44.34232755124522" lon="9.590298369489167"><ele>316.0</ele><time>2026-04-25T17:37:50Z</time></trkpt><trkpt lat="44.34217932291366" lon="9.59026775129132"><ele>316.0</ele><time>2026-04-25T17:37:51Z</time></trkpt><trkpt lat="44.342024376792004" lon="9.590248431435468"><ele>313.66666666666663</ele><time>2026-04-25T17:37:52Z</time></trkpt><trkpt lat="44.3418613647801" lon="9.590251999882618"><ele>311.3333333333333</ele><time>2026-04-25T17:37:53Z</time></trkpt><trkpt lat="44.34169419294231" lon="9.590262507418519"><ele>309.0</ele><time>2026-04-25T17:37:54Z</time></trkpt><trkpt lat="44.3415329611916" lon="9.590270794550127"><ele>308.0</ele><time>2026-04-25T17:37:55Z</time></trkpt><trkpt lat="44.34137565058802" lon="9.59027822509141"><ele>307.0</ele><time>2026-04-25T17:37:56Z</time></trkpt><trkpt lat="44.34122306676585" lon="9.590287943648097"><ele>306.0</ele><time>2026-04-25T17:37:57Z</time></trkpt><trkpt lat="44.341072840261425" lon="9.590299039144817"><ele>306.0</ele><time>2026-04-25T17:37:58Z</time></trkpt><trkpt lat="44.340923157086856" lon="9.59030754705785"><ele>306.0</ele><time>2026-04-25T17:37:59Z</time></trkpt><trkpt lat="44.34076474038239" lon="9.590320272085645"><ele>306.0</ele><time>2026-04-25T17:38:00Z</time></trkpt><trkpt lat="44.34060047909532" lon="9.59033274796909"><ele>307.6666666666667</ele><time>2026-04-25T17:38:01Z</time></trkpt><trkpt lat="44.34042734615495" lon="9.590341175713005"><ele>309.33333333333337</ele><time>2026-04-25T17:38:02Z</time></trkpt><trkpt lat="44.34024780232373" lon="9.590356165215166"><ele>311.0</ele><time>2026-04-25T17:38:03Z</time></trkpt><trkpt lat="44.34005892677777" lon="9.590373538758097"><ele>305.6666666666667</ele><time>2026-04-25T17:38:04Z</time></trkpt><trkpt lat="44.33986912757247" lon="9.5903875158882"><ele>300.3333333333333</ele><time>2026-04-25T17:38:05Z</time></trkpt><trkpt lat="44.33968734572034" lon="9.590399803453478"><ele>295.0</ele><time>2026-04-25T17:38:06Z</time></trkpt><trkpt lat="44.33951368386215" lon="9.590410532266404"><ele>294.3333333333333</ele><time>2026-04-25T17:38:07Z</time></trkpt><trkpt lat="44.33934655814977" lon="9.590413732958721"><ele>293.6666666666667</ele><time>2026-04-25T17:38:08Z</time></trkpt><trkpt lat="44.339185140481376" lon="9.590422132623573"><ele>293.0</ele><time>2026-04-25T17:38:09Z</time></trkpt><trkpt lat="44.33902461190985" lon="9.590423788270032"><ele>294.6666666666667</ele><time>2026-04-25T17:38:09.999Z</time></trkpt><trkpt lat="44.338856992813355" lon="9.5903974668039"><ele>296.3333333333333</ele><time>2026-04-25T17:38:10.999Z</time></trkpt><trkpt lat="44.33868193317227" lon="9.59033840318274"><ele>298.0</ele><time>2026-04-25T17:38:11.999Z</time></trkpt><trkpt lat="44.33851929759459" lon="9.590261445343591"><ele>298.0</ele><time>2026-04-25T17:38:12.999Z</time></trkpt><trkpt lat="44.33836588448217" lon="9.590178721487726"><ele>298.0</ele><time>2026-04-25T17:38:13.999Z</time></trkpt><trkpt lat="44.338213267050406" lon="9.590095069748793"><ele>298.0</ele><time>2026-04-25T17:38:14.999Z</time></trkpt><trkpt lat="44.33805785314329" lon="9.590008122064054"><ele>295.3333333333333</ele><time>2026-04-25T17:38:15.999Z</time></trkpt><trkpt lat="44.337874761816536" lon="9.590036134438913"><ele>292.6666666666667</ele><time>2026-04-25T17:38:16.999Z</time></trkpt><trkpt lat="44.33769679308908" lon="9.589964068564491"><ele>290.0</ele><time>2026-04-25T17:38:17.999Z</time></trkpt><trkpt lat="44.337510207508764" lon="9.589884664934745"><ele>290.0</ele><time>2026-04-25T17:38:18.999Z</time></trkpt><trkpt lat="44.33734017731141" lon="9.5898158531281"><ele>290.0</ele><time>2026-04-25T17:38:19.999Z</time></trkpt><trkpt lat="44.33718215991889" lon="9.589743340176659"><ele>290.0</ele><time>2026-04-25T17:38:20.999Z</time></trkpt><trkpt lat="44.33703086587178" lon="9.589688809547425"><ele>289.5</ele><time>2026-04-25T17:38:21.999Z</time></trkpt><trkpt lat="44.33688455917476" lon="9.589646359029215"><ele>289.0</ele><time>2026-04-25T17:38:22.999Z</time></trkpt><trkpt lat="44.33673932582782" lon="9.58961553916653"><ele>288.5</ele><time>2026-04-25T17:38:23.999Z</time></trkpt><trkpt lat="44.33658786090162" lon="9.589585851227172"><ele>288.0</ele><time>2026-04-25T17:38:24.999Z</time></trkpt><trkpt lat="44.336437141452066" lon="9.589553106717243"><ele>287.25</ele><time>2026-04-25T17:38:25.999Z</time></trkpt><trkpt lat="44.33629725434397" lon="9.589519798247492"><ele>286.5</ele><time>2026-04-25T17:38:26.999Z</time></trkpt><trkpt lat="44.33617284479702" lon="9.589491902582262"><ele>285.75</ele><time>2026-04-25T17:38:27.999Z</time></trkpt><trkpt lat="44.336047540550794" lon="9.589459337054903"><ele>285.0</ele><time>2026-04-25T17:38:28.999Z</time></trkpt><trkpt lat="44.33590489730368" lon="9.589417261742229"><ele>285.0</ele><time>2026-04-25T17:38:29.999Z</time></trkpt><trkpt lat="44.335773223187374" lon="9.589370733520196"><ele>285.0</ele><time>2026-04-25T17:38:30.999Z</time></trkpt><trkpt lat="44.3356567310887" lon="9.589349683161279"><ele>285.0</ele><time>2026-04-25T17:38:31.999Z</time></trkpt><trkpt lat="44.33553974514611" lon="9.589369979188513"><ele>285.0</ele><time>2026-04-25T17:38:32.999Z</time></trkpt><trkpt lat="44.33541872067395" lon="9.589417584244861"><ele>285.3333333333333</ele><time>2026-04-25T17:38:33.999Z</time></trkpt><trkpt lat="44.335277134518165" lon="9.589486866969164"><ele>285.66666666666663</ele><time>2026-04-25T17:38:35.001Z</time></trkpt><trkpt lat="44.33512142394689" lon="9.589499735089985"><ele>286.0</ele><time>2026-04-25T17:38:36.001Z</time></trkpt><trkpt lat="44.334959771822845" lon="9.589522644954515"><ele>286.5</ele><time>2026-04-25T17:38:37.001Z</time></trkpt><trkpt lat="44.334814458629225" lon="9.589561469054514"><ele>287.0</ele><time>2026-04-25T17:38:38.001Z</time></trkpt><trkpt lat="44.334674477805706" lon="9.589586696632868"><ele>287.5</ele><time>2026-04-25T17:38:39.001Z</time></trkpt><trkpt lat="44.33452713158366" lon="9.589609872235204"><ele>288.0</ele><time>2026-04-25T17:38:40.001Z</time></trkpt><trkpt lat="44.33437602641732" lon="9.589629316074356"><ele>288.25</ele><time>2026-04-25T17:38:41.001Z</time></trkpt><trkpt lat="44.334228972413364" lon="9.589650244822915"><ele>288.5</ele><time>2026-04-25T17:38:42.001Z</time></trkpt><trkpt lat="44.33410414673796" lon="9.589667824888494"><ele>288.75</ele><time>2026-04-25T17:38:43.001Z</time></trkpt><trkpt lat="44.33399723719206" lon="9.589680302528993"><ele>289.0</ele><time>2026-04-25T17:38:44.001Z</time></trkpt><trkpt lat="44.33390862879283" lon="9.589700232164484"><ele>290.0</ele><time>2026-04-25T17:38:45.001Z</time></trkpt><trkpt lat="44.33384206880052" lon="9.58970053830857"><ele>291.0</ele><time>2026-04-25T17:38:46.001Z</time></trkpt><trkpt lat="44.33378592031526" lon="9.58965981676465"><ele>292.0</ele><time>2026-04-25T17:38:48.001Z</time></trkpt><trkpt lat="44.33371705915729" lon="9.589680543456534"><ele>293.0</ele><time>2026-04-25T17:38:50.001Z</time></trkpt><trkpt lat="44.333644711467706" lon="9.589748821869696"><ele>294.0</ele><time>2026-04-25T17:38:51.001Z</time></trkpt><trkpt lat="44.333551967487224" lon="9.589842782058794"><ele>295.0</ele><time>2026-04-25T17:38:52.001Z</time></trkpt><trkpt lat="44.33345952120415" lon="9.589948928796423"><ele>295.0</ele><time>2026-04-25T17:38:53.001Z</time></trkpt><trkpt lat="44.3333563203135" lon="9.590067403537933"><ele>295.0</ele><time>2026-04-25T17:38:54.001Z</time></trkpt><trkpt lat="44.33324114468105" lon="9.590188382115716"><ele>295.0</ele><time>2026-04-25T17:38:55.001Z</time></trkpt><trkpt lat="44.3331253521587" lon="9.590269776067137"><ele>295.0</ele><time>2026-04-25T17:38:56Z</time></trkpt><trkpt lat="44.333021108596114" lon="9.590358049186039"><ele>294.25</ele><time>2026-04-25T17:38:57Z</time></trkpt><trkpt lat="44.33288242082494" lon="9.590383795820015"><ele>293.5</ele><time>2026-04-25T17:38:58Z</time></trkpt><trkpt lat="44.332727286965" lon="9.590435949027395"><ele>292.75</ele><time>2026-04-25T17:38:59Z</time></trkpt><trkpt lat="44.332586872766626" lon="9.59046539852767"><ele>292.0</ele><time>2026-04-25T17:39:00Z</time></trkpt><trkpt lat="44.33246805320598" lon="9.590512863224431"><ele>292.0</ele><time>2026-04-25T17:39:01Z</time></trkpt><trkpt lat="44.33236954089637" lon="9.5905986103469"><ele>292.0</ele><time>2026-04-25T17:39:02Z</time></trkpt><trkpt lat="44.332287768136005" lon="9.590725528765798"><ele>292.0</ele><time>2026-04-25T17:39:03Z</time></trkpt><trkpt lat="44.33221643773469" lon="9.590891065298093"><ele>292.0</ele><time>2026-04-25T17:39:04Z</time></trkpt><trkpt lat="44.33214741350246" lon="9.591099933566579"><ele>295.66666666666663</ele><time>2026-04-25T17:39:05Z</time></trkpt><trkpt lat="44.33207632468988" lon="9.591323946846892"><ele>299.3333333333333</ele><time>2026-04-25T17:39:06Z</time></trkpt><trkpt lat="44.33199745001015" lon="9.591570600847401"><ele>303.0</ele><time>2026-04-25T17:39:07Z</time></trkpt><trkpt lat="44.33190178494579" lon="9.591801331681168"><ele>299.6666666666667</ele><time>2026-04-25T17:39:08Z</time></trkpt><trkpt lat="44.3318213745697" lon="9.592036059901107"><ele>296.33333333333337</ele><time>2026-04-25T17:39:09Z</time></trkpt><trkpt lat="44.33175768133518" lon="9.592274293287147"><ele>293.0</ele><time>2026-04-25T17:39:10Z</time></trkpt><trkpt lat="44.331670395630006" lon="9.59247545138637"><ele>293.0</ele><time>2026-04-25T17:39:11Z</time></trkpt><trkpt lat="44.33160117604425" lon="9.592669859650341"><ele>293.0</ele><time>2026-04-25T17:39:12Z</time></trkpt><trkpt lat="44.3315215446162" lon="9.592847573459148"><ele>293.0</ele><time>2026-04-25T17:39:13Z</time></trkpt><trkpt lat="44.331424297901414" lon="9.59300019566645"><ele>293.6666666666667</ele><time>2026-04-25T17:39:14Z</time></trkpt><trkpt lat="44.33131047633914" lon="9.593131365252468"><ele>294.3333333333333</ele><time>2026-04-25T17:39:15Z</time></trkpt><trkpt lat="44.33118297845028" lon="9.593279430332867"><ele>295.0</ele><time>2026-04-25T17:39:16Z</time></trkpt><trkpt lat="44.33102945621477" lon="9.59339075655586"><ele>295.0</ele><time>2026-04-25T17:39:17Z</time></trkpt><trkpt lat="44.33089168524821" lon="9.593503526892313"><ele>295.0</ele><time>2026-04-25T17:39:18Z</time></trkpt><trkpt lat="44.33076742909388" lon="9.593609123531433"><ele>295.0</ele><time>2026-04-25T17:39:19Z</time></trkpt><trkpt lat="44.33065403213593" lon="9.593718714139955"><ele>295.0</ele><time>2026-04-25T17:39:20Z</time></trkpt><trkpt lat="44.33055449686324" lon="9.593853032309566"><ele>296.5</ele><time>2026-04-25T17:39:21Z</time></trkpt><trkpt lat="44.33046989362149" lon="9.594017439622034"><ele>298.0</ele><time>2026-04-25T17:39:22Z</time></trkpt><trkpt lat="44.330398246536504" lon="9.59420122876696"><ele>299.5</ele><time>2026-04-25T17:39:23Z</time></trkpt><trkpt lat="44.33035159963005" lon="9.594406113230152"><ele>301.0</ele><time>2026-04-25T17:39:24Z</time></trkpt><trkpt lat="44.33033064515152" lon="9.594640178663468"><ele>301.0</ele><time>2026-04-25T17:39:25Z</time></trkpt><trkpt lat="44.330323925153756" lon="9.594894146573841"><ele>301.0</ele><time>2026-04-25T17:39:26Z</time></trkpt><trkpt lat="44.330330872352896" lon="9.595170703981278"><ele>301.0</ele><time>2026-04-25T17:39:27Z</time></trkpt><trkpt lat="44.33033260022143" lon="9.595441995087763"><ele>300.0</ele><time>2026-04-25T17:39:28Z</time></trkpt><trkpt lat="44.33033162656091" lon="9.595694337878319"><ele>299.0</ele><time>2026-04-25T17:39:29Z</time></trkpt><trkpt lat="44.33031352425908" lon="9.59593498241285"><ele>298.0</ele><time>2026-04-25T17:39:30Z</time></trkpt><trkpt lat="44.33031070300805" lon="9.59616934402099"><ele>295.0</ele><time>2026-04-25T17:39:31Z</time></trkpt><trkpt lat="44.33030212392428" lon="9.596389581318068"><ele>292.0</ele><time>2026-04-25T17:39:32Z</time></trkpt><trkpt lat="44.330292158155075" lon="9.596606638192634"><ele>289.0</ele><time>2026-04-25T17:39:33Z</time></trkpt><trkpt lat="44.330274645974434" lon="9.596822907132744"><ele>288.0</ele><time>2026-04-25T17:39:34Z</time></trkpt><trkpt lat="44.330242948614874" lon="9.597037977768682"><ele>287.0</ele><time>2026-04-25T17:39:35Z</time></trkpt><trkpt lat="44.330197898782096" lon="9.597253081027112"><ele>286.0</ele><time>2026-04-25T17:39:36Z</time></trkpt><trkpt lat="44.33015576440497" lon="9.597473584847544"><ele>286.0</ele><time>2026-04-25T17:39:37Z</time></trkpt><trkpt lat="44.33008519378193" lon="9.597690742460726"><ele>286.0</ele><time>2026-04-25T17:39:38Z</time></trkpt><trkpt lat="44.329986292159816" lon="9.597895678937824"><ele>286.0</ele><time>2026-04-25T17:39:39Z</time></trkpt><trkpt lat="44.32988370286498" lon="9.59811074805463"><ele>288.0</ele><time>2026-04-25T17:39:40Z</time></trkpt><trkpt lat="44.32977304531214" lon="9.598328402621398"><ele>290.0</ele><time>2026-04-25T17:39:41Z</time></trkpt><trkpt lat="44.329658715061676" lon="9.59855329252019"><ele>292.0</ele><time>2026-04-25T17:39:42Z</time></trkpt><trkpt lat="44.329545922254724" lon="9.598775158239002"><ele>293.66666666666663</ele><time>2026-04-25T17:39:43Z</time></trkpt><trkpt lat="44.32944161822503" lon="9.599008513865"><ele>295.3333333333333</ele><time>2026-04-25T17:39:44Z</time></trkpt><trkpt lat="44.32932807693386" lon="9.599224566132122"><ele>297.0</ele><time>2026-04-25T17:39:45Z</time></trkpt><trkpt lat="44.329221960051434" lon="9.59943742912572"><ele>297.3333333333333</ele><time>2026-04-25T17:39:46Z</time></trkpt><trkpt lat="44.329112573618445" lon="9.599643017719876"><ele>297.66666666666663</ele><time>2026-04-25T17:39:47Z</time></trkpt><trkpt lat="44.32899426588594" lon="9.59984035987921"><ele>298.0</ele><time>2026-04-25T17:39:48Z</time></trkpt><trkpt lat="44.32890251584217" lon="9.60005239366547"><ele>303.66666666666663</ele><time>2026-04-25T17:39:49Z</time></trkpt><trkpt lat="44.328808712657136" lon="9.600237145165005"><ele>309.3333333333333</ele><time>2026-04-25T17:39:50Z</time></trkpt><trkpt lat="44.32872247427469" lon="9.60041795556541"><ele>315.0</ele><time>2026-04-25T17:39:51Z</time></trkpt><trkpt lat="44.32864542863706" lon="9.600614697694594"><ele>315.0</ele><time>2026-04-25T17:39:52Z</time></trkpt><trkpt lat="44.3285856016687" lon="9.600828531533907"><ele>315.0</ele><time>2026-04-25T17:39:53Z</time></trkpt><trkpt lat="44.32853864780848" lon="9.601058286198642"><ele>315.0</ele><time>2026-04-25T17:39:54Z</time></trkpt><trkpt lat="44.328508680681956" lon="9.601301674868845"><ele>316.6666666666667</ele><time>2026-04-25T17:39:55Z</time></trkpt><trkpt lat="44.32849301828575" lon="9.60155563186472"><ele>318.33333333333337</ele><time>2026-04-25T17:39:56Z</time></trkpt><trkpt lat="44.32848692247633" lon="9.601790707026005"><ele>320.0</ele><time>2026-04-25T17:39:57Z</time></trkpt><trkpt lat="44.3284643485558" lon="9.602005780473002"><ele>321.6666666666667</ele><time>2026-04-25T17:39:58Z</time></trkpt><trkpt lat="44.32845591263574" lon="9.602227355293028"><ele>323.3333333333333</ele><time>2026-04-25T17:39:59Z</time></trkpt><trkpt lat="44.32844641001029" lon="9.602467955260984"><ele>325.0</ele><time>2026-04-25T17:40:00Z</time></trkpt><trkpt lat="44.328435189678295" lon="9.602726227487288"><ele>326.0</ele><time>2026-04-25T17:40:01Z</time></trkpt><trkpt lat="44.32843743092546" lon="9.602991309229964"><ele>327.0</ele><time>2026-04-25T17:40:02Z</time></trkpt><trkpt lat="44.32842465815636" lon="9.603246171246784"><ele>328.0</ele><time>2026-04-25T17:40:03Z</time></trkpt><trkpt lat="44.32841230086428" lon="9.603487890024859"><ele>326.66666666666663</ele><time>2026-04-25T17:40:04Z</time></trkpt><trkpt lat="44.32840353442602" lon="9.60371708659983"><ele>325.3333333333333</ele><time>2026-04-25T17:40:05Z</time></trkpt><trkpt lat="44.32839654899881" lon="9.603937033475926"><ele>324.0</ele><time>2026-04-25T17:40:06Z</time></trkpt><trkpt lat="44.32838921100976" lon="9.604151546301988"><ele>324.0</ele><time>2026-04-25T17:40:07Z</time></trkpt><trkpt lat="44.32837414050598" lon="9.604365795265732"><ele>324.0</ele><time>2026-04-25T17:40:08Z</time></trkpt><trkpt lat="44.328328227478536" lon="9.604568422238957"><ele>324.0</ele><time>2026-04-25T17:40:09Z</time></trkpt><trkpt lat="44.328288220353066" lon="9.604772205393392"><ele>321.0</ele><time>2026-04-25T17:40:10Z</time></trkpt><trkpt lat="44.32824788353869" lon="9.604980798194005"><ele>318.0</ele><time>2026-04-25T17:40:11Z</time></trkpt><trkpt lat="44.328166671867216" lon="9.605171846636503"><ele>315.0</ele><time>2026-04-25T17:40:12Z</time></trkpt><trkpt lat="44.328065301354016" lon="9.605361741565023"><ele>318.6666666666667</ele><time>2026-04-25T17:40:13Z</time></trkpt><trkpt lat="44.327927483288896" lon="9.605533974947296"><ele>322.33333333333337</ele><time>2026-04-25T17:40:13.999Z</time></trkpt><trkpt lat="44.32779529665783" lon="9.605731096343847"><ele>326.0</ele><time>2026-04-25T17:40:14.999Z</time></trkpt><trkpt lat="44.327658266839435" lon="9.605910332541349"><ele>326.0</ele><time>2026-04-25T17:40:15.999Z</time></trkpt><trkpt lat="44.327543136143966" lon="9.606082556935174"><ele>326.0</ele><time>2026-04-25T17:40:16.999Z</time></trkpt><trkpt lat="44.32743370996651" lon="9.606267038412238"><ele>326.0</ele><time>2026-04-25T17:40:17.999Z</time></trkpt><trkpt lat="44.327344245201175" lon="9.606464872664457"><ele>326.6666666666667</ele><time>2026-04-25T17:40:18.999Z</time></trkpt><trkpt lat="44.32726863634303" lon="9.606677118529722"><ele>327.3333333333333</ele><time>2026-04-25T17:40:19.999Z</time></trkpt><trkpt lat="44.32720811687684" lon="9.606898369225869"><ele>328.0</ele><time>2026-04-25T17:40:20.999Z</time></trkpt><trkpt lat="44.32715482372671" lon="9.60714346974501"><ele>328.0</ele><time>2026-04-25T17:40:21.999Z</time></trkpt><trkpt lat="44.327120126584056" lon="9.607413438091763"><ele>328.0</ele><time>2026-04-25T17:40:22.999Z</time></trkpt><trkpt lat="44.3270785146078" lon="9.607686566624446"><ele>328.0</ele><time>2026-04-25T17:40:23.999Z</time></trkpt><trkpt lat="44.327053329484045" lon="9.60793492325973"><ele>323.3333333333333</ele><time>2026-04-25T17:40:24.999Z</time></trkpt><trkpt lat="44.32701668602862" lon="9.608171812642633"><ele>318.6666666666667</ele><time>2026-04-25T17:40:25.999Z</time></trkpt><trkpt lat="44.32695989747681" lon="9.608401109108438"><ele>314.0</ele><time>2026-04-25T17:40:26.999Z</time></trkpt><trkpt lat="44.32687881559089" lon="9.608638860532492"><ele>309.0</ele><time>2026-04-25T17:40:27.999Z</time></trkpt><trkpt lat="44.32678015594387" lon="9.608889226223676"><ele>304.0</ele><time>2026-04-25T17:40:28.999Z</time></trkpt><trkpt lat="44.32668384841151" lon="9.609150703590748"><ele>299.0</ele><time>2026-04-25T17:40:29.999Z</time></trkpt><trkpt lat="44.3265861510783" lon="9.609390739021626"><ele>301.33333333333337</ele><time>2026-04-25T17:40:30.999Z</time></trkpt><trkpt lat="44.326478452724444" lon="9.609610217888367"><ele>303.6666666666667</ele><time>2026-04-25T17:40:31.999Z</time></trkpt><trkpt lat="44.32639330871635" lon="9.609816983372275"><ele>306.0</ele><time>2026-04-25T17:40:32.999Z</time></trkpt><trkpt lat="44.326309308708495" lon="9.610005398436988"><ele>306.0</ele><time>2026-04-25T17:40:33.999Z</time></trkpt><trkpt lat="44.32621178311962" lon="9.610186956186983"><ele>306.0</ele><time>2026-04-25T17:40:34.999Z</time></trkpt><trkpt lat="44.32609224700728" lon="9.610359025386941"><ele>306.0</ele><time>2026-04-25T17:40:35.999Z</time></trkpt><trkpt lat="44.3259536014746" lon="9.610526355630075"><ele>304.0</ele><time>2026-04-25T17:40:36.999Z</time></trkpt><trkpt lat="44.325806915707595" lon="9.610688471424165"><ele>302.0</ele><time>2026-04-25T17:40:37.999Z</time></trkpt><trkpt lat="44.32562539127453" lon="9.610813380814772"><ele>300.0</ele><time>2026-04-25T17:40:38.999Z</time></trkpt><trkpt lat="44.32542867195401" lon="9.610933404267719"><ele>300.0</ele><time>2026-04-25T17:40:39.999Z</time></trkpt><trkpt lat="44.325246688447784" lon="9.611082548547783"><ele>300.0</ele><time>2026-04-25T17:40:41.001Z</time></trkpt><trkpt lat="44.32507055692748" lon="9.611243990279513"><ele>300.0</ele><time>2026-04-25T17:40:42.001Z</time></trkpt><trkpt lat="44.32489788976648" lon="9.611400007145468"><ele>299.6666666666667</ele><time>2026-04-25T17:40:43.001Z</time></trkpt><trkpt lat="44.3247338924163" lon="9.61154908972862"><ele>299.33333333333337</ele><time>2026-04-25T17:40:44.001Z</time></trkpt><trkpt lat="44.324573539010125" lon="9.61169657382057"><ele>299.0</ele><time>2026-04-25T17:40:45.001Z</time></trkpt><trkpt lat="44.32441972132707" lon="9.611838153804898"><ele>299.0</ele><time>2026-04-25T17:40:46.001Z</time></trkpt><trkpt lat="44.32426969686152" lon="9.611975823670207"><ele>299.0</ele><time>2026-04-25T17:40:47.001Z</time></trkpt><trkpt lat="44.32411721330411" lon="9.612121416192492"><ele>299.0</ele><time>2026-04-25T17:40:48.001Z</time></trkpt><trkpt lat="44.3239549546617" lon="9.61228994737474"><ele>301.0</ele><time>2026-04-25T17:40:49.001Z</time></trkpt><trkpt lat="44.32378687135586" lon="9.61248760755182"><ele>303.0</ele><time>2026-04-25T17:40:50.001Z</time></trkpt><trkpt lat="44.32364368364386" lon="9.612674004725498"><ele>305.0</ele><time>2026-04-25T17:40:51.001Z</time></trkpt><trkpt lat="44.323503161755255" lon="9.612863962242786"><ele>296.33333333333337</ele><time>2026-04-25T17:40:52.001Z</time></trkpt><trkpt lat="44.323371899319625" lon="9.613045663642852"><ele>287.6666666666667</ele><time>2026-04-25T17:40:53.001Z</time></trkpt><trkpt lat="44.32325256737002" lon="9.613213801527094"><ele>279.0</ele><time>2026-04-25T17:40:54.001Z</time></trkpt><trkpt lat="44.32315051419337" lon="9.613366332094103"><ele>282.5</ele><time>2026-04-25T17:40:55Z</time></trkpt><trkpt lat="44.32305937816729" lon="9.6134971413304"><ele>286.0</ele><time>2026-04-25T17:40:56Z</time></trkpt><trkpt lat="44.32299912949544" lon="9.613665430553594"><ele>289.5</ele><time>2026-04-25T17:40:57Z</time></trkpt><trkpt lat="44.32296982729664" lon="9.613839920848246"><ele>293.0</ele><time>2026-04-25T17:40:58Z</time></trkpt><trkpt lat="44.3229722335067" lon="9.614017320475817"><ele>293.0</ele><time>2026-04-25T17:40:59Z</time></trkpt><trkpt lat="44.32302567320883" lon="9.614186173927052"><ele>293.0</ele><time>2026-04-25T17:41:00Z</time></trkpt><trkpt lat="44.32308555807307" lon="9.614361791687672"><ele>293.0</ele><time>2026-04-25T17:41:01Z</time></trkpt><trkpt lat="44.323169858116174" lon="9.6145476991375"><ele>293.0</ele><time>2026-04-25T17:41:02Z</time></trkpt><trkpt lat="44.323240949369065" lon="9.614763453033722"><ele>282.0</ele><time>2026-04-25T17:41:03Z</time></trkpt><trkpt lat="44.32333220483773" lon="9.614962855553957"><ele>271.0</ele><time>2026-04-25T17:41:04Z</time></trkpt><trkpt lat="44.32341184304713" lon="9.615167152778637"><ele>260.0</ele><time>2026-04-25T17:41:05Z</time></trkpt><trkpt lat="44.32349635298403" lon="9.615370503022781"><ele>260.0</ele><time>2026-04-25T17:41:06Z</time></trkpt><trkpt lat="44.32356338130949" lon="9.615557916966019"><ele>260.0</ele><time>2026-04-25T17:41:07Z</time></trkpt><trkpt lat="44.323632947506916" lon="9.615723374573388"><ele>260.0</ele><time>2026-04-25T17:41:08Z</time></trkpt><trkpt lat="44.323689186030364" lon="9.615872015231025"><ele>260.0</ele><time>2026-04-25T17:41:09Z</time></trkpt><trkpt lat="44.3237336585333" lon="9.615993114132461"><ele>260.0</ele><time>2026-04-25T17:41:10Z</time></trkpt><trkpt lat="44.32375278751228" lon="9.616114571812277"><ele>260.0</ele><time>2026-04-25T17:41:11Z</time></trkpt><trkpt lat="44.323766496825236" lon="9.616232369368321"><ele>260.0</ele><time>2026-04-25T17:41:12Z</time></trkpt><trkpt lat="44.32374662623245" lon="9.616353593975548"><ele>260.0</ele><time>2026-04-25T17:41:13Z</time></trkpt><trkpt lat="44.32369831316548" lon="9.616461706926785"><ele>260.0</ele><time>2026-04-25T17:41:14Z</time></trkpt><trkpt lat="44.32362382683691" lon="9.616583356175308"><ele>262.5</ele><time>2026-04-25T17:41:15Z</time></trkpt><trkpt lat="44.32352387404736" lon="9.616724749388185"><ele>265.0</ele><time>2026-04-25T17:41:16Z</time></trkpt><trkpt lat="44.323415872211534" lon="9.616854204978358"><ele>267.5</ele><time>2026-04-25T17:41:17Z</time></trkpt><trkpt lat="44.32329399023571" lon="9.616969247567127"><ele>270.0</ele><time>2026-04-25T17:41:18Z</time></trkpt><trkpt lat="44.323158562815884" lon="9.617056882099204"><ele>270.25</ele><time>2026-04-25T17:41:19Z</time></trkpt><trkpt lat="44.32301903714797" lon="9.617133574793726"><ele>270.5</ele><time>2026-04-25T17:41:20Z</time></trkpt><trkpt lat="44.32288118396009" lon="9.617192240555594"><ele>270.75</ele><time>2026-04-25T17:41:21Z</time></trkpt><trkpt lat="44.32274535470005" lon="9.617275098469412"><ele>271.0</ele><time>2026-04-25T17:41:22Z</time></trkpt><trkpt lat="44.322619447180315" lon="9.617357345404901"><ele>271.0</ele><time>2026-04-25T17:41:23Z</time></trkpt><trkpt lat="44.3224927979691" lon="9.617457008918498"><ele>271.0</ele><time>2026-04-25T17:41:24Z</time></trkpt><trkpt lat="44.32237369647897" lon="9.61758921645634"><ele>271.0</ele><time>2026-04-25T17:41:25Z</time></trkpt><trkpt lat="44.322231606683594" lon="9.617697175178277"><ele>267.3333333333333</ele><time>2026-04-25T17:41:26Z</time></trkpt><trkpt lat="44.322101369956684" lon="9.617795207110829"><ele>263.6666666666667</ele><time>2026-04-25T17:41:27Z</time></trkpt><trkpt lat="44.32196415334366" lon="9.617882740772961"><ele>260.0</ele><time>2026-04-25T17:41:28Z</time></trkpt><trkpt lat="44.32181106905018" lon="9.617962580879754"><ele>267.6666666666667</ele><time>2026-04-25T17:41:29Z</time></trkpt><trkpt lat="44.32167077422483" lon="9.618027560967134"><ele>275.3333333333333</ele><time>2026-04-25T17:41:30Z</time></trkpt><trkpt lat="44.32153729763643" lon="9.618109744160991"><ele>283.0</ele><time>2026-04-25T17:41:31Z</time></trkpt><trkpt lat="44.32140483340364" lon="9.618230863174855"><ele>276.66666666666663</ele><time>2026-04-25T17:41:32Z</time></trkpt><trkpt lat="44.32127412272948" lon="9.618370407410984"><ele>270.3333333333333</ele><time>2026-04-25T17:41:33Z</time></trkpt><trkpt lat="44.321145143929336" lon="9.618478096676984"><ele>264.0</ele><time>2026-04-25T17:41:34Z</time></trkpt><trkpt lat="44.321028354805684" lon="9.618591142277419"><ele>267.25</ele><time>2026-04-25T17:41:35Z</time></trkpt><trkpt lat="44.32092200498777" lon="9.618730120725742"><ele>270.5</ele><time>2026-04-25T17:41:36Z</time></trkpt><trkpt lat="44.32079424259493" lon="9.618843115726053"><ele>273.75</ele><time>2026-04-25T17:41:37Z</time></trkpt><trkpt lat="44.32067034945081" lon="9.618951869823118"><ele>277.0</ele><time>2026-04-25T17:41:38Z</time></trkpt><trkpt lat="44.32054991566794" lon="9.619049421922414"><ele>277.0</ele><time>2026-04-25T17:41:39Z</time></trkpt><trkpt lat="44.32041444521292" lon="9.619101138629988"><ele>277.0</ele><time>2026-04-25T17:41:40Z</time></trkpt><trkpt lat="44.320284281014125" lon="9.619130572301604"><ele>277.0</ele><time>2026-04-25T17:41:41Z</time></trkpt><trkpt lat="44.320154796785225" lon="9.61915720596893"><ele>277.0</ele><time>2026-04-25T17:41:42Z</time></trkpt><trkpt lat="44.32002353412918" lon="9.619213220062443"><ele>277.0</ele><time>2026-04-25T17:41:43Z</time></trkpt><trkpt lat="44.31988136732244" lon="9.61927608058824"><ele>277.0</ele><time>2026-04-25T17:41:44Z</time></trkpt><trkpt lat="44.3197446450347" lon="9.619373978517235"><ele>277.0</ele><time>2026-04-25T17:41:45Z</time></trkpt><trkpt lat="44.31961538736247" lon="9.619490703779666"><ele>280.3333333333333</ele><time>2026-04-25T17:41:46Z</time></trkpt><trkpt lat="44.31947753391375" lon="9.619582967300037"><ele>283.6666666666667</ele><time>2026-04-25T17:41:47Z</time></trkpt><trkpt lat="44.31933738972459" lon="9.619679537791493"><ele>287.0</ele><time>2026-04-25T17:41:48Z</time></trkpt><trkpt lat="44.319195951194715" lon="9.619778409322574"><ele>287.0</ele><time>2026-04-25T17:41:49Z</time></trkpt><trkpt lat="44.31905304545858" lon="9.61988535071018"><ele>287.0</ele><time>2026-04-25T17:41:50Z</time></trkpt><trkpt lat="44.31890883637616" lon="9.619997244911445"><ele>287.0</ele><time>2026-04-25T17:41:51Z</time></trkpt><trkpt lat="44.31875481564351" lon="9.620102887618625"><ele>290.6666666666667</ele><time>2026-04-25T17:41:52Z</time></trkpt><trkpt lat="44.31862638335464" lon="9.620259867076793"><ele>294.3333333333333</ele><time>2026-04-25T17:41:53Z</time></trkpt><trkpt lat="44.3184937291235" lon="9.620399636243834"><ele>298.0</ele><time>2026-04-25T17:41:54Z</time></trkpt><trkpt lat="44.3183575825169" lon="9.620526502496608"><ele>298.0</ele><time>2026-04-25T17:41:55Z</time></trkpt><trkpt lat="44.31821067199372" lon="9.62063095314573"><ele>298.0</ele><time>2026-04-25T17:41:56Z</time></trkpt><trkpt lat="44.31805954628292" lon="9.620729070691429"><ele>298.0</ele><time>2026-04-25T17:41:57Z</time></trkpt><trkpt lat="44.31790282559621" lon="9.620834957481108"><ele>288.66666666666663</ele><time>2026-04-25T17:41:58Z</time></trkpt><trkpt lat="44.31775251853606" lon="9.620941921636575"><ele>279.3333333333333</ele><time>2026-04-25T17:41:59Z</time></trkpt><trkpt lat="44.317604467191394" lon="9.621043811202068"><ele>270.0</ele><time>2026-04-25T17:42:00Z</time></trkpt><trkpt lat="44.317469542502764" lon="9.621136702782897"><ele>269.0</ele><time>2026-04-25T17:42:01Z</time></trkpt><trkpt lat="44.31734045580701" lon="9.62124141427312"><ele>268.0</ele><time>2026-04-25T17:42:02Z</time></trkpt><trkpt lat="44.31721707335099" lon="9.621369342422804"><ele>267.0</ele><time>2026-04-25T17:42:02.999Z</time></trkpt><trkpt lat="44.317102634836765" lon="9.621532876738947"><ele>267.0</ele><time>2026-04-25T17:42:03.999Z</time></trkpt><trkpt lat="44.3170023645127" lon="9.621722148702682"><ele>267.0</ele><time>2026-04-25T17:42:04.999Z</time></trkpt><trkpt lat="44.316901586549086" lon="9.62194394144186"><ele>267.0</ele><time>2026-04-25T17:42:05.999Z</time></trkpt><trkpt lat="44.316796979352" lon="9.622174370484572"><ele>271.0</ele><time>2026-04-25T17:42:06.999Z</time></trkpt><trkpt lat="44.31670485720948" lon="9.622396612394606"><ele>275.0</ele><time>2026-04-25T17:42:07.999Z</time></trkpt><trkpt lat="44.316615628512054" lon="9.622609203664123"><ele>279.0</ele><time>2026-04-25T17:42:08.999Z</time></trkpt><trkpt lat="44.31652322994389" lon="9.622813089490771"><ele>276.3333333333333</ele><time>2026-04-25T17:42:09.999Z</time></trkpt><trkpt lat="44.31643616224846" lon="9.623016901625439"><ele>273.66666666666663</ele><time>2026-04-25T17:42:10.999Z</time></trkpt><trkpt lat="44.31635473468774" lon="9.623231167725526"><ele>271.0</ele><time>2026-04-25T17:42:11.999Z</time></trkpt><trkpt lat="44.316282622671864" lon="9.623457935639644"><ele>271.3333333333333</ele><time>2026-04-25T17:42:12.999Z</time></trkpt><trkpt lat="44.31622175806654" lon="9.623702989379348"><ele>271.6666666666667</ele><time>2026-04-25T17:42:13.999Z</time></trkpt><trkpt lat="44.316161827341034" lon="9.62395717177237"><ele>272.0</ele><time>2026-04-25T17:42:14.999Z</time></trkpt><trkpt lat="44.31610202015432" lon="9.624199248526214"><ele>272.0</ele><time>2026-04-25T17:42:15.999Z</time></trkpt><trkpt lat="44.31605000346922" lon="9.62442908907278"><ele>272.0</ele><time>2026-04-25T17:42:16.999Z</time></trkpt><trkpt lat="44.3159850006096" lon="9.624647274700479"><ele>272.0</ele><time>2026-04-25T17:42:17.999Z</time></trkpt><trkpt lat="44.31589985310276" lon="9.624856618582974"><ele>272.6666666666667</ele><time>2026-04-25T17:42:18.999Z</time></trkpt><trkpt lat="44.31580972147387" lon="9.6250647243984"><ele>273.3333333333333</ele><time>2026-04-25T17:42:19.999Z</time></trkpt><trkpt lat="44.31573005532533" lon="9.625258794750158"><ele>274.0</ele><time>2026-04-25T17:42:20.999Z</time></trkpt><trkpt lat="44.31564755137794" lon="9.625444426087288"><ele>273.3333333333333</ele><time>2026-04-25T17:42:21.999Z</time></trkpt><trkpt lat="44.315531198206756" lon="9.62558740291803"><ele>272.6666666666667</ele><time>2026-04-25T17:42:22.999Z</time></trkpt><trkpt lat="44.31542549038145" lon="9.625750968850582"><ele>272.0</ele><time>2026-04-25T17:42:23.999Z</time></trkpt><trkpt lat="44.3152989770766" lon="9.625887686788529"><ele>272.0</ele><time>2026-04-25T17:42:24.999Z</time></trkpt><trkpt lat="44.31518257797679" lon="9.62601936252187"><ele>272.0</ele><time>2026-04-25T17:42:25.999Z</time></trkpt><trkpt lat="44.31507338825949" lon="9.626150272535693"><ele>272.0</ele><time>2026-04-25T17:42:26.999Z</time></trkpt><trkpt lat="44.31496785151835" lon="9.626279593595134"><ele>272.0</ele><time>2026-04-25T17:42:27.999Z</time></trkpt><trkpt lat="44.31486785793438" lon="9.626405886141834"><ele>271.25</ele><time>2026-04-25T17:42:28.999Z</time></trkpt><trkpt lat="44.31477004500173" lon="9.626533883857572"><ele>270.5</ele><time>2026-04-25T17:42:29.999Z</time></trkpt><trkpt lat="44.31467682179523" lon="9.626672012054398"><ele>269.75</ele><time>2026-04-25T17:42:30.999Z</time></trkpt><trkpt lat="44.31458638633195" lon="9.626821904107226"><ele>269.0</ele><time>2026-04-25T17:42:31.999Z</time></trkpt><trkpt lat="44.31449747652913" lon="9.626988701078952"><ele>269.0</ele><time>2026-04-25T17:42:32.999Z</time></trkpt><trkpt lat="44.314416130576916" lon="9.627169478159821"><ele>269.0</ele><time>2026-04-25T17:42:33.999Z</time></trkpt><trkpt lat="44.31434451334285" lon="9.627373062046647"><ele>269.0</ele><time>2026-04-25T17:42:34.999Z</time></trkpt><trkpt lat="44.31428194786866" lon="9.627591791166795"><ele>270.33333333333337</ele><time>2026-04-25T17:42:35.999Z</time></trkpt><trkpt lat="44.31422401928297" lon="9.627821813806282"><ele>271.6666666666667</ele><time>2026-04-25T17:42:36.999Z</time></trkpt><trkpt lat="44.31417074508631" lon="9.628052624581594"><ele>273.0</ele><time>2026-04-25T17:42:37.999Z</time></trkpt><trkpt lat="44.314122910163405" lon="9.628275251640394"><ele>273.0</ele><time>2026-04-25T17:42:38.999Z</time></trkpt><trkpt lat="44.3140751733289" lon="9.6284861115068"><ele>273.0</ele><time>2026-04-25T17:42:39.999Z</time></trkpt><trkpt lat="44.31400929010343" lon="9.628684624614634"><ele>273.0</ele><time>2026-04-25T17:42:40.999Z</time></trkpt><trkpt lat="44.31396885574373" lon="9.628893433359845"><ele>268.0</ele><time>2026-04-25T17:42:41.999Z</time></trkpt><trkpt lat="44.313895354804515" lon="9.629091349217523"><ele>263.0</ele><time>2026-04-25T17:42:42.999Z</time></trkpt><trkpt lat="44.31381194568783" lon="9.629283742390532"><ele>258.0</ele><time>2026-04-25T17:42:43.999Z</time></trkpt><trkpt lat="44.313718855578365" lon="9.629469379726462"><ele>261.3333333333333</ele><time>2026-04-25T17:42:44.999Z</time></trkpt><trkpt lat="44.31362443516813" lon="9.629647421321533"><ele>264.66666666666663</ele><time>2026-04-25T17:42:45.999Z</time></trkpt><trkpt lat="44.3135343032952" lon="9.629823282932922"><ele>268.0</ele><time>2026-04-25T17:42:47Z</time></trkpt><trkpt lat="44.3134452209628" lon="9.629988291694927"><ele>268.0</ele><time>2026-04-25T17:42:48Z</time></trkpt><trkpt lat="44.31336161801773" lon="9.630147109832837"><ele>268.0</ele><time>2026-04-25T17:42:49Z</time></trkpt><trkpt lat="44.3132796126512" lon="9.630298790581474"><ele>268.0</ele><time>2026-04-25T17:42:50Z</time></trkpt><trkpt lat="44.31319672808016" lon="9.630437404159522"><ele>268.0</ele><time>2026-04-25T17:42:51Z</time></trkpt><trkpt lat="44.31310953026529" lon="9.630564807836599"><ele>266.0</ele><time>2026-04-25T17:42:52Z</time></trkpt><trkpt lat="44.31301139647325" lon="9.630686783002743"><ele>264.0</ele><time>2026-04-25T17:42:53Z</time></trkpt><trkpt lat="44.31290607526839" lon="9.63080602690362"><ele>262.0</ele><time>2026-04-25T17:42:54Z</time></trkpt><trkpt lat="44.31278924759756" lon="9.63092021208034"><ele>260.0</ele><time>2026-04-25T17:42:55Z</time></trkpt><trkpt lat="44.31266827961819" lon="9.631029834185895"><ele>260.0</ele><time>2026-04-25T17:42:56Z</time></trkpt><trkpt lat="44.312559378652935" lon="9.631129223264443"><ele>260.0</ele><time>2026-04-25T17:42:57Z</time></trkpt><trkpt lat="44.31246188300499" lon="9.631227575071346"><ele>260.0</ele><time>2026-04-25T17:42:58Z</time></trkpt><trkpt lat="44.312368987053254" lon="9.631324914399721"><ele>260.0</ele><time>2026-04-25T17:42:59Z</time></trkpt><trkpt lat="44.31227934158848" lon="9.6314273638198"><ele>260.2</ele><time>2026-04-25T17:43:00Z</time></trkpt><trkpt lat="44.312204678133185" lon="9.631545390820614"><ele>260.4</ele><time>2026-04-25T17:43:01Z</time></trkpt><trkpt lat="44.312141324202386" lon="9.631674814526821"><ele>260.6</ele><time>2026-04-25T17:43:02Z</time></trkpt><trkpt lat="44.31208299563748" lon="9.631806903645517"><ele>260.8</ele><time>2026-04-25T17:43:03Z</time></trkpt><trkpt lat="44.31202368822395" lon="9.631940157855063"><ele>261.0</ele><time>2026-04-25T17:43:04Z</time></trkpt><trkpt lat="44.31196349894626" lon="9.632076460771474"><ele>261.0</ele><time>2026-04-25T17:43:05Z</time></trkpt><trkpt lat="44.31189692030765" lon="9.632220966419807"><ele>261.0</ele><time>2026-04-25T17:43:06Z</time></trkpt><trkpt lat="44.31182765271208" lon="9.632379204983726"><ele>261.0</ele><time>2026-04-25T17:43:07Z</time></trkpt><trkpt lat="44.31174954703315" lon="9.63254515157498"><ele>261.0</ele><time>2026-04-25T17:43:08Z</time></trkpt><trkpt lat="44.31165800307066" lon="9.632712837835356"><ele>258.6666666666667</ele><time>2026-04-25T17:43:09Z</time></trkpt><trkpt lat="44.311549973947656" lon="9.63286091916711"><ele>256.33333333333337</ele><time>2026-04-25T17:43:10Z</time></trkpt><trkpt lat="44.31142944809368" lon="9.632990980342814"><ele>254.0</ele><time>2026-04-25T17:43:11Z</time></trkpt><trkpt lat="44.31130481481193" lon="9.633098088874053"><ele>254.0</ele><time>2026-04-25T17:43:12Z</time></trkpt><trkpt lat="44.31119106035632" lon="9.633205509498469"><ele>254.0</ele><time>2026-04-25T17:43:13Z</time></trkpt><trkpt lat="44.31109525576435" lon="9.633309605242443"><ele>254.0</ele><time>2026-04-25T17:43:14Z</time></trkpt><trkpt lat="44.31100848006991" lon="9.63343625920047"><ele>254.0</ele><time>2026-04-25T17:43:15Z</time></trkpt><trkpt lat="44.310924287669714" lon="9.633578962284469"><ele>256.0</ele><time>2026-04-25T17:43:16Z</time></trkpt><trkpt lat="44.31084375156297" lon="9.633748636924013"><ele>258.0</ele><time>2026-04-25T17:43:17Z</time></trkpt><trkpt lat="44.31077475681665" lon="9.633928547298165"><ele>260.0</ele><time>2026-04-25T17:43:18Z</time></trkpt><trkpt lat="44.31072324904768" lon="9.634109061422356"><ele>262.0</ele><time>2026-04-25T17:43:19Z</time></trkpt><trkpt lat="44.31067375988446" lon="9.634292881592335"><ele>258.0</ele><time>2026-04-25T17:43:20Z</time></trkpt><trkpt lat="44.31061547508863" lon="9.634482330256372"><ele>254.0</ele><time>2026-04-25T17:43:21Z</time></trkpt><trkpt lat="44.310539913288494" lon="9.634669900563425"><ele>250.0</ele><time>2026-04-25T17:43:22Z</time></trkpt><trkpt lat="44.310446682835774" lon="9.634857937571057"><ele>250.0</ele><time>2026-04-25T17:43:23Z</time></trkpt><trkpt lat="44.310343724234166" lon="9.635046614762864"><ele>250.0</ele><time>2026-04-25T17:43:24Z</time></trkpt><trkpt lat="44.3102423329256" lon="9.635221004520268"><ele>250.0</ele><time>2026-04-25T17:43:25Z</time></trkpt><trkpt lat="44.31014622766308" lon="9.635390973511964"><ele>252.25</ele><time>2026-04-25T17:43:26Z</time></trkpt><trkpt lat="44.310056517238614" lon="9.635555506703772"><ele>254.5</ele><time>2026-04-25T17:43:27Z</time></trkpt><trkpt lat="44.309968254095885" lon="9.635717621800218"><ele>256.75</ele><time>2026-04-25T17:43:28Z</time></trkpt><trkpt lat="44.30988230591792" lon="9.635868574116474"><ele>259.0</ele><time>2026-04-25T17:43:29Z</time></trkpt><trkpt lat="44.30979410575585" lon="9.63601870070385"><ele>258.0</ele><time>2026-04-25T17:43:30Z</time></trkpt><trkpt lat="44.30970031542473" lon="9.636168260264567"><ele>257.0</ele><time>2026-04-25T17:43:31Z</time></trkpt><trkpt lat="44.30959323853632" lon="9.636320266617794"><ele>256.0</ele><time>2026-04-25T17:43:32Z</time></trkpt><trkpt lat="44.30947490543997" lon="9.636464410390426"><ele>256.0</ele><time>2026-04-25T17:43:33Z</time></trkpt><trkpt lat="44.30935489936325" lon="9.63659052411531"><ele>256.0</ele><time>2026-04-25T17:43:34Z</time></trkpt><trkpt lat="44.309235854748785" lon="9.63669561636791"><ele>256.0</ele><time>2026-04-25T17:43:35Z</time></trkpt><trkpt lat="44.30911128675607" lon="9.636793560668627"><ele>256.0</ele><time>2026-04-25T17:43:36Z</time></trkpt><trkpt lat="44.30897775793831" lon="9.636891121198456"><ele>255.33333333333331</ele><time>2026-04-25T17:43:37Z</time></trkpt><trkpt lat="44.308838042772784" lon="9.636980670608446"><ele>254.66666666666669</ele><time>2026-04-25T17:43:38Z</time></trkpt><trkpt lat="44.30869447545224" lon="9.637075816591228"><ele>254.0</ele><time>2026-04-25T17:43:39Z</time></trkpt><trkpt lat="44.30854920264167" lon="9.637172031713774"><ele>254.0</ele><time>2026-04-25T17:43:40Z</time></trkpt><trkpt lat="44.30839058789716" lon="9.637280439658971"><ele>254.0</ele><time>2026-04-25T17:43:41Z</time></trkpt><trkpt lat="44.3082194701808" lon="9.637400865754293"><ele>254.0</ele><time>2026-04-25T17:43:42Z</time></trkpt><trkpt lat="44.30804457167684" lon="9.63750850197173"><ele>254.33333333333334</ele><time>2026-04-25T17:43:43Z</time></trkpt><trkpt lat="44.30788049030769" lon="9.637610894871319"><ele>254.66666666666669</ele><time>2026-04-25T17:43:44Z</time></trkpt><trkpt lat="44.30770780618975" lon="9.637727595850109"><ele>255.0</ele><time>2026-04-25T17:43:45Z</time></trkpt><trkpt lat="44.30751815856914" lon="9.63784574948943"><ele>255.0</ele><time>2026-04-25T17:43:46Z</time></trkpt><trkpt lat="44.3073287726483" lon="9.637941366120893"><ele>255.0</ele><time>2026-04-25T17:43:47Z</time></trkpt><trkpt lat="44.30715175807341" lon="9.638019549408375"><ele>255.0</ele><time>2026-04-25T17:43:48Z</time></trkpt><trkpt lat="44.30697705912879" lon="9.63808817602186"><ele>252.33333333333331</ele><time>2026-04-25T17:43:49Z</time></trkpt><trkpt lat="44.30680114782922" lon="9.638137631423508"><ele>249.66666666666666</ele><time>2026-04-25T17:43:50Z</time></trkpt><trkpt lat="44.30662677139166" lon="9.638175774628829"><ele>247.0</ele><time>2026-04-25T17:43:51Z</time></trkpt><trkpt lat="44.3064500034443" lon="9.638206855272959"><ele>245.33333333333331</ele><time>2026-04-25T17:43:52Z</time></trkpt><trkpt lat="44.306276705314744" lon="9.638217139796156"><ele>243.66666666666669</ele><time>2026-04-25T17:43:53Z</time></trkpt><trkpt lat="44.30609917563044" lon="9.638226297237956"><ele>242.0</ele><time>2026-04-25T17:43:54Z</time></trkpt><trkpt lat="44.30592474457211" lon="9.638237958063026"><ele>242.0</ele><time>2026-04-25T17:43:55Z</time></trkpt><trkpt lat="44.30575672852788" lon="9.638252172050956"><ele>242.0</ele><time>2026-04-25T17:43:56Z</time></trkpt><trkpt lat="44.30559356599503" lon="9.638264279762543"><ele>242.0</ele><time>2026-04-25T17:43:57Z</time></trkpt><trkpt lat="44.305439295307934" lon="9.638284067039807"><ele>240.66666666666669</ele><time>2026-04-25T17:43:58Z</time></trkpt><trkpt lat="44.30528433935617" lon="9.638314113034383"><ele>239.33333333333331</ele><time>2026-04-25T17:43:59Z</time></trkpt><trkpt lat="44.30513224515014" lon="9.638344704858051"><ele>238.0</ele><time>2026-04-25T17:44:00Z</time></trkpt><trkpt lat="44.30498113637124" lon="9.638375191320419"><ele>238.0</ele><time>2026-04-25T17:44:01Z</time></trkpt><trkpt lat="44.30483590871894" lon="9.638401836506192"><ele>238.0</ele><time>2026-04-25T17:44:02Z</time></trkpt><trkpt lat="44.304697310202" lon="9.638431524606926"><ele>238.0</ele><time>2026-04-25T17:44:03Z</time></trkpt><trkpt lat="44.304566060261685" lon="9.638460084852547"><ele>238.0</ele><time>2026-04-25T17:44:04Z</time></trkpt><trkpt lat="44.30444065209258" lon="9.638490735721613"><ele>238.25</ele><time>2026-04-25T17:44:05Z</time></trkpt><trkpt lat="44.30431766603673" lon="9.638530776306906"><ele>238.5</ele><time>2026-04-25T17:44:06Z</time></trkpt><trkpt lat="44.30419608527149" lon="9.638594944745064"><ele>238.75</ele><time>2026-04-25T17:44:07Z</time></trkpt><trkpt lat="44.304071195473746" lon="9.638681715386841"><ele>239.0</ele><time>2026-04-25T17:44:08Z</time></trkpt><trkpt lat="44.3039442763908" lon="9.638809635528853"><ele>239.0</ele><time>2026-04-25T17:44:09Z</time></trkpt><trkpt lat="44.30382379424926" lon="9.638967220495784"><ele>239.0</ele><time>2026-04-25T17:44:09.999Z</time></trkpt><trkpt lat="44.303714777218026" lon="9.639127342102809"><ele>239.0</ele><time>2026-04-25T17:44:10.999Z</time></trkpt><trkpt lat="44.30359570252289" lon="9.639273688127421"><ele>239.0</ele><time>2026-04-25T17:44:11.999Z</time></trkpt><trkpt lat="44.30346955048512" lon="9.639402582546335"><ele>239.0</ele><time>2026-04-25T17:44:12.999Z</time></trkpt><trkpt lat="44.3033392793907" lon="9.639519390174257"><ele>239.0</ele><time>2026-04-25T17:44:13.999Z</time></trkpt><trkpt lat="44.30319845964738" lon="9.63962465870996"><ele>241.0</ele><time>2026-04-25T17:44:14.999Z</time></trkpt><trkpt lat="44.30304705052257" lon="9.639708666915913"><ele>243.0</ele><time>2026-04-25T17:44:15.999Z</time></trkpt><trkpt lat="44.30288933446777" lon="9.639780073524815"><ele>245.0</ele><time>2026-04-25T17:44:16.999Z</time></trkpt><trkpt lat="44.30272465820545" lon="9.63985660094895"><ele>245.0</ele><time>2026-04-25T17:44:17.999Z</time></trkpt><trkpt lat="44.302545992329556" lon="9.63994688856616"><ele>245.0</ele><time>2026-04-25T17:44:18.999Z</time></trkpt><trkpt lat="44.30233987937897" lon="9.640017018118122"><ele>245.0</ele><time>2026-04-25T17:44:19.999Z</time></trkpt><trkpt lat="44.302144774174444" lon="9.640102448920095"><ele>242.5</ele><time>2026-04-25T17:44:20.999Z</time></trkpt><trkpt lat="44.301908343090574" lon="9.640203671104544"><ele>240.0</ele><time>2026-04-25T17:44:21.999Z</time></trkpt><trkpt lat="44.30168522482595" lon="9.64029837957929"><ele>243.0</ele><time>2026-04-25T17:44:22.999Z</time></trkpt><trkpt lat="44.30148363399084" lon="9.640402902514777"><ele>246.0</ele><time>2026-04-25T17:44:23.999Z</time></trkpt><trkpt lat="44.30129922993341" lon="9.640480079249496"><ele>249.0</ele><time>2026-04-25T17:44:24.999Z</time></trkpt><trkpt lat="44.30112269353856" lon="9.64055173990955"><ele>249.0</ele><time>2026-04-25T17:44:25.999Z</time></trkpt><trkpt lat="44.30096035206055" lon="9.640621223382542"><ele>249.0</ele><time>2026-04-25T17:44:26.999Z</time></trkpt><trkpt lat="44.30080390051225" lon="9.640683992902488"><ele>249.0</ele><time>2026-04-25T17:44:27.999Z</time></trkpt><trkpt lat="44.30065273784975" lon="9.640745511917336"><ele>248.0</ele><time>2026-04-25T17:44:28.999Z</time></trkpt><trkpt lat="44.30051768538325" lon="9.640823520329864"><ele>247.0</ele><time>2026-04-25T17:44:29.999Z</time></trkpt><trkpt lat="44.300392813615595" lon="9.640924066926242"><ele>246.0</ele><time>2026-04-25T17:44:30.999Z</time></trkpt><trkpt lat="44.30027836878331" lon="9.641043915753576"><ele>245.0</ele><time>2026-04-25T17:44:31.999Z</time></trkpt><trkpt lat="44.30017540308256" lon="9.641187870434521"><ele>245.0</ele><time>2026-04-25T17:44:32.999Z</time></trkpt><trkpt lat="44.30008849328168" lon="9.641369180443085"><ele>245.0</ele><time>2026-04-25T17:44:33.999Z</time></trkpt><trkpt lat="44.30001602553624" lon="9.641557591896055"><ele>245.0</ele><time>2026-04-25T17:44:34.999Z</time></trkpt><trkpt lat="44.29996015429264" lon="9.641769585816697"><ele>246.0</ele><time>2026-04-25T17:44:35.999Z</time></trkpt><trkpt lat="44.299919852576956" lon="9.641992810098614"><ele>247.0</ele><time>2026-04-25T17:44:36.999Z</time></trkpt><trkpt lat="44.299908350237885" lon="9.6422405735689"><ele>248.0</ele><time>2026-04-25T17:44:37.999Z</time></trkpt><trkpt lat="44.299921404561516" lon="9.642522523324384"><ele>247.66666666666669</ele><time>2026-04-25T17:44:38.999Z</time></trkpt><trkpt lat="44.299952670159534" lon="9.64283669405416"><ele>247.33333333333331</ele><time>2026-04-25T17:44:39.999Z</time></trkpt><trkpt lat="44.299978076757114" lon="9.643140204463192"><ele>247.0</ele><time>2026-04-25T17:44:40.999Z</time></trkpt><trkpt lat="44.29996303843482" lon="9.643408896357608"><ele>249.33333333333331</ele><time>2026-04-25T17:44:41.999Z</time></trkpt><trkpt lat="44.29994164238755" lon="9.643659512213983"><ele>251.66666666666669</ele><time>2026-04-25T17:44:42.999Z</time></trkpt><trkpt lat="44.299896113810675" lon="9.64389882057384"><ele>254.0</ele><time>2026-04-25T17:44:43.999Z</time></trkpt><trkpt lat="44.29982606094495" lon="9.644132512764692"><ele>245.66666666666669</ele><time>2026-04-25T17:44:44.999Z</time></trkpt><trkpt lat="44.299730357369214" lon="9.644370211733692"><ele>237.33333333333331</ele><time>2026-04-25T17:44:45.999Z</time></trkpt><trkpt lat="44.29965170325783" lon="9.644597213876557"><ele>229.0</ele><time>2026-04-25T17:44:46.999Z</time></trkpt><trkpt lat="44.299587079253016" lon="9.644842596854584"><ele>229.0</ele><time>2026-04-25T17:44:47.999Z</time></trkpt><trkpt lat="44.299527593622045" lon="9.645112708411745"><ele>229.0</ele><time>2026-04-25T17:44:48.999Z</time></trkpt><trkpt lat="44.299477844579215" lon="9.64540534994905"><ele>229.0</ele><time>2026-04-25T17:44:49.999Z</time></trkpt><trkpt lat="44.29943186116564" lon="9.645712612494425"><ele>230.33333333333331</ele><time>2026-04-25T17:44:50.999Z</time></trkpt><trkpt lat="44.29938397840953" lon="9.646021852582392"><ele>231.66666666666669</ele><time>2026-04-25T17:44:51.999Z</time></trkpt><trkpt lat="44.29933717806177" lon="9.646311090751706"><ele>233.0</ele><time>2026-04-25T17:44:53Z</time></trkpt><trkpt lat="44.2993023517538" lon="9.6465695240382"><ele>234.0</ele><time>2026-04-25T17:44:54Z</time></trkpt><trkpt lat="44.299279925524736" lon="9.646869750386704"><ele>235.0</ele><time>2026-04-25T17:44:55Z</time></trkpt><trkpt lat="44.29926959162042" lon="9.647143267644822"><ele>236.0</ele><time>2026-04-25T17:44:56Z</time></trkpt><trkpt lat="44.29926976291756" lon="9.647412961104147"><ele>236.0</ele><time>2026-04-25T17:44:57Z</time></trkpt><trkpt lat="44.299272791664855" lon="9.647681436139298"><ele>236.0</ele><time>2026-04-25T17:44:58Z</time></trkpt><trkpt lat="44.299270242781965" lon="9.64795744331451"><ele>236.0</ele><time>2026-04-25T17:44:59Z</time></trkpt><trkpt lat="44.29927014330412" lon="9.6482400947864"><ele>235.0</ele><time>2026-04-25T17:45:00Z</time></trkpt><trkpt lat="44.299270707422544" lon="9.648534802093089"><ele>234.0</ele><time>2026-04-25T17:45:01Z</time></trkpt><trkpt lat="44.299270672013385" lon="9.648845920047243"><ele>233.0</ele><time>2026-04-25T17:45:02Z</time></trkpt><trkpt lat="44.29924989435754" lon="9.649163081363941"><ele>235.0</ele><time>2026-04-25T17:45:03Z</time></trkpt><trkpt lat="44.299245005305394" lon="9.649493480415433"><ele>237.0</ele><time>2026-04-25T17:45:04Z</time></trkpt><trkpt lat="44.29924127761279" lon="9.649820022858869"><ele>237.0</ele><time>2026-04-25T17:45:05Z</time></trkpt><trkpt lat="44.29923836837325" lon="9.65012549272155"><ele>237.0</ele><time>2026-04-25T17:45:06Z</time></trkpt><trkpt lat="44.299237289804594" lon="9.65043981646615"><ele>237.0</ele><time>2026-04-25T17:45:07Z</time></trkpt><trkpt lat="44.299252406462735" lon="9.650757024539706"><ele>238.0</ele><time>2026-04-25T17:45:08Z</time></trkpt><trkpt lat="44.29923675004251" lon="9.65107822663562"><ele>239.0</ele><time>2026-04-25T17:45:09Z</time></trkpt><trkpt lat="44.29923928049997" lon="9.651387443593281"><ele>239.0</ele><time>2026-04-25T17:45:10Z</time></trkpt><trkpt lat="44.29923661724034" lon="9.651673238757253"><ele>239.0</ele><time>2026-04-25T17:45:11Z</time></trkpt><trkpt lat="44.299231562543056" lon="9.651940116945516"><ele>239.0</ele><time>2026-04-25T17:45:12Z</time></trkpt><trkpt lat="44.29922149761609" lon="9.652198725161522"><ele>239.66666666666669</ele><time>2026-04-25T17:45:13Z</time></trkpt><trkpt lat="44.29920361398194" lon="9.652474755502514"><ele>240.33333333333331</ele><time>2026-04-25T17:45:14Z</time></trkpt><trkpt lat="44.29917692698295" lon="9.65275936285954"><ele>241.0</ele><time>2026-04-25T17:45:15Z</time></trkpt><trkpt lat="44.29913560743064" lon="9.653046768632736"><ele>242.5</ele><time>2026-04-25T17:45:16Z</time></trkpt><trkpt lat="44.29908149831569" lon="9.653341509460203"><ele>244.0</ele><time>2026-04-25T17:45:17Z</time></trkpt><trkpt lat="44.29902570904933" lon="9.653663970827964"><ele>249.0</ele><time>2026-04-25T17:45:18Z</time></trkpt><trkpt lat="44.298941469748904" lon="9.653971663844123"><ele>254.0</ele><time>2026-04-25T17:45:19Z</time></trkpt><trkpt lat="44.2988535462354" lon="9.654286230521942"><ele>272.0</ele><time>2026-04-25T17:45:20Z</time></trkpt><trkpt lat="44.29874593256513" lon="9.654602294933566"><ele>290.0</ele><time>2026-04-25T17:45:21Z</time></trkpt><trkpt lat="44.29863756354515" lon="9.654925536229214"><ele>290.0</ele><time>2026-04-25T17:45:22Z</time></trkpt><trkpt lat="44.29856554944436" lon="9.655267440978074"><ele>290.0</ele><time>2026-04-25T17:45:23Z</time></trkpt><trkpt lat="44.29847989834587" lon="9.655608484198009"><ele>294.5</ele><time>2026-04-25T17:45:24Z</time></trkpt><trkpt lat="44.298397803950344" lon="9.655933439037238"><ele>299.0</ele><time>2026-04-25T17:45:25Z</time></trkpt><trkpt lat="44.29830925277138" lon="9.656292239033501"><ele>299.0</ele><time>2026-04-25T17:45:26.068Z</time></trkpt><trkpt lat="44.29822615329476" lon="9.656630941582456"><ele>299.0</ele><time>2026-04-25T17:45:27.06Z</time></trkpt><trkpt lat="44.2982015" lon="9.6569824"><ele>261.0</ele><time>2026-04-25T17:45:30.191Z</time></trkpt><trkpt lat="44.29652048023619" lon="9.663398124828428"><ele>261.3333333333333</ele><time>2026-04-25T17:45:49Z</time></trkpt><trkpt lat="44.296414977570656" lon="9.663600388142129"><ele>261.66666666666663</ele><time>2026-04-25T17:45:50Z</time></trkpt><trkpt lat="44.29627591352189" lon="9.66377556231064"><ele>262.0</ele><time>2026-04-25T17:45:51Z</time></trkpt><trkpt lat="44.296118946249095" lon="9.663912987335458"><ele>260.66666666666663</ele><time>2026-04-25T17:45:52Z</time></trkpt><trkpt lat="44.295972796300845" lon="9.664037877359588"><ele>259.3333333333333</ele><time>2026-04-25T17:45:53Z</time></trkpt><trkpt lat="44.29580257300772" lon="9.664131452261044"><ele>258.0</ele><time>2026-04-25T17:45:54Z</time></trkpt><trkpt lat="44.29559137602144" lon="9.664211715650946"><ele>254.66666666666669</ele><time>2026-04-25T17:45:55Z</time></trkpt><trkpt lat="44.29538117378892" lon="9.664274639649399"><ele>251.33333333333334</ele><time>2026-04-25T17:45:56Z</time></trkpt><trkpt lat="44.29517103734078" lon="9.664342672229752"><ele>248.0</ele><time>2026-04-25T17:45:57Z</time></trkpt><trkpt lat="44.29493206915123" lon="9.664416735123789"><ele>244.5</ele><time>2026-04-25T17:45:58Z</time></trkpt><trkpt lat="44.29470586315018" lon="9.664492010092467"><ele>241.0</ele><time>2026-04-25T17:45:59Z</time></trkpt><trkpt lat="44.29446803946164" lon="9.664566365829227"><ele>241.0</ele><time>2026-04-25T17:46:00Z</time></trkpt><trkpt lat="44.294223997512034" lon="9.664649048126844"><ele>241.0</ele><time>2026-04-25T17:46:01Z</time></trkpt><trkpt lat="44.293982601709764" lon="9.664722092167889"><ele>240.0</ele><time>2026-04-25T17:46:02Z</time></trkpt><trkpt lat="44.29374850137465" lon="9.664799979380835"><ele>239.0</ele><time>2026-04-25T17:46:03Z</time></trkpt><trkpt lat="44.293527411039996" lon="9.664873260443283"><ele>239.0</ele><time>2026-04-25T17:46:04Z</time></trkpt><trkpt lat="44.29330715791066" lon="9.664942292406105"><ele>239.0</ele><time>2026-04-25T17:46:05Z</time></trkpt><trkpt lat="44.29308862721599" lon="9.665011190115179"><ele>235.5</ele><time>2026-04-25T17:46:06Z</time></trkpt><trkpt lat="44.2928698089065" lon="9.665076551088015"><ele>232.0</ele><time>2026-04-25T17:46:07Z</time></trkpt><trkpt lat="44.292644531430064" lon="9.665130521925798"><ele>232.0</ele><time>2026-04-25T17:46:08Z</time></trkpt><trkpt lat="44.29241199095331" lon="9.665172854487098"><ele>232.0</ele><time>2026-04-25T17:46:09Z</time></trkpt><trkpt lat="44.29217719855659" lon="9.665211720169957"><ele>231.0</ele><time>2026-04-25T17:46:10Z</time></trkpt><trkpt lat="44.291940244049314" lon="9.66524548310325"><ele>230.0</ele><time>2026-04-25T17:46:11Z</time></trkpt><trkpt lat="44.29170202706157" lon="9.665267088393364"><ele>230.0</ele><time>2026-04-25T17:46:12Z</time></trkpt><trkpt lat="44.29145047435401" lon="9.665274319361554"><ele>230.0</ele><time>2026-04-25T17:46:13Z</time></trkpt><trkpt lat="44.29119065318209" lon="9.665269561629918"><ele>229.0</ele><time>2026-04-25T17:46:13.999Z</time></trkpt><trkpt lat="44.29093059491257" lon="9.665256274186556"><ele>228.0</ele><time>2026-04-25T17:46:14.999Z</time></trkpt><trkpt lat="44.290682477104106" lon="9.66524042950794"><ele>228.0</ele><time>2026-04-25T17:46:15.999Z</time></trkpt><trkpt lat="44.29044508696367" lon="9.665227747112027"><ele>228.0</ele><time>2026-04-25T17:46:16.999Z</time></trkpt><trkpt lat="44.290202210562676" lon="9.66521775685813"><ele>228.0</ele><time>2026-04-25T17:46:17.999Z</time></trkpt><trkpt lat="44.289955238821385" lon="9.665199897788742"><ele>228.0</ele><time>2026-04-25T17:46:18.999Z</time></trkpt><trkpt lat="44.28970058580827" lon="9.665180188198677"><ele>226.0</ele><time>2026-04-25T17:46:19.999Z</time></trkpt><trkpt lat="44.28944564060208" lon="9.665162455409508"><ele>224.0</ele><time>2026-04-25T17:46:20.999Z</time></trkpt><trkpt lat="44.28920305001943" lon="9.665147674694131"><ele>224.0</ele><time>2026-04-25T17:46:21.999Z</time></trkpt><trkpt lat="44.28897152502054" lon="9.665131506419176"><ele>224.0</ele><time>2026-04-25T17:46:22.999Z</time></trkpt><trkpt lat="44.28874769858816" lon="9.665114742675666"><ele>223.0</ele><time>2026-04-25T17:46:23.999Z</time></trkpt><trkpt lat="44.28852831451958" lon="9.665099166203692"><ele>222.0</ele><time>2026-04-25T17:46:24.999Z</time></trkpt><trkpt lat="44.288309690254884" lon="9.665081098990902"><ele>221.0</ele><time>2026-04-25T17:46:25.999Z</time></trkpt><trkpt lat="44.2880883700936" lon="9.665052821449844"><ele>219.5</ele><time>2026-04-25T17:46:26.999Z</time></trkpt><trkpt lat="44.28785443228807" lon="9.665017274583887"><ele>218.0</ele><time>2026-04-25T17:46:27.999Z</time></trkpt><trkpt lat="44.2876157904374" lon="9.66497463329792"><ele>218.0</ele><time>2026-04-25T17:46:28.999Z</time></trkpt><trkpt lat="44.28738046110945" lon="9.664924550484844"><ele>218.0</ele><time>2026-04-25T17:46:29.999Z</time></trkpt><trkpt lat="44.28715885888784" lon="9.664863976575946"><ele>217.0</ele><time>2026-04-25T17:46:30.999Z</time></trkpt><trkpt lat="44.286937803708554" lon="9.664797999806423"><ele>216.0</ele><time>2026-04-25T17:46:31.999Z</time></trkpt><trkpt lat="44.286712801656336" lon="9.66472131553184"><ele>216.0</ele><time>2026-04-25T17:46:32.999Z</time></trkpt><trkpt lat="44.28648169120775" lon="9.664641030294565"><ele>216.0</ele><time>2026-04-25T17:46:33.999Z</time></trkpt><trkpt lat="44.28624578187357" lon="9.664562829067334"><ele>215.0</ele><time>2026-04-25T17:46:34.999Z</time></trkpt><trkpt lat="44.28601655336975" lon="9.664490432117168"><ele>214.0</ele><time>2026-04-25T17:46:35.999Z</time></trkpt><trkpt lat="44.285796636441276" lon="9.6644178164723"><ele>212.33333333333331</ele><time>2026-04-25T17:46:36.999Z</time></trkpt><trkpt lat="44.285581934046604" lon="9.664344389510457"><ele>210.66666666666669</ele><time>2026-04-25T17:46:37.999Z</time></trkpt><trkpt lat="44.285375636725" lon="9.664274964628635"><ele>209.0</ele><time>2026-04-25T17:46:38.999Z</time></trkpt><trkpt lat="44.285166328607446" lon="9.664206330684733"><ele>209.0</ele><time>2026-04-25T17:46:39.999Z</time></trkpt><trkpt lat="44.28494503534457" lon="9.66414695636797"><ele>209.0</ele><time>2026-04-25T17:46:40.999Z</time></trkpt><trkpt lat="44.28471195494386" lon="9.66410053127249"><ele>207.0</ele><time>2026-04-25T17:46:41.999Z</time></trkpt><trkpt lat="44.28446344860827" lon="9.664069980717484"><ele>205.0</ele><time>2026-04-25T17:46:42.999Z</time></trkpt><trkpt lat="44.284205630088294" lon="9.664045146594319"><ele>205.0</ele><time>2026-04-25T17:46:43.999Z</time></trkpt><trkpt lat="44.28395355749381" lon="9.664020457483804"><ele>205.0</ele><time>2026-04-25T17:46:44.999Z</time></trkpt><trkpt lat="44.28373298234094" lon="9.663997871131984"><ele>204.0</ele><time>2026-04-25T17:46:45.999Z</time></trkpt><trkpt lat="44.2835393670533" lon="9.663980166622277"><ele>203.0</ele><time>2026-04-25T17:46:46.999Z</time></trkpt><trkpt lat="44.28336554038534" lon="9.66394041622099"><ele>202.0</ele><time>2026-04-25T17:46:47.999Z</time></trkpt><trkpt lat="44.2831836972594" lon="9.663933254920886"><ele>202.33333333333331</ele><time>2026-04-25T17:46:48.999Z</time></trkpt><trkpt lat="44.28301438511663" lon="9.663900587552892"><ele>202.66666666666669</ele><time>2026-04-25T17:46:49.999Z</time></trkpt><trkpt lat="44.282847791413" lon="9.663824950425045"><ele>203.0</ele><time>2026-04-25T17:46:50.999Z</time></trkpt><trkpt lat="44.28266874024085" lon="9.663778637239764"><ele>203.0</ele><time>2026-04-25T17:46:51.999Z</time></trkpt><trkpt lat="44.28247620704173" lon="9.663710103690814"><ele>203.0</ele><time>2026-04-25T17:46:52.999Z</time></trkpt><trkpt lat="44.28227575284907" lon="9.663610293130521"><ele>203.0</ele><time>2026-04-25T17:46:53.999Z</time></trkpt><trkpt lat="44.28206022722973" lon="9.663527783071153"><ele>202.5</ele><time>2026-04-25T17:46:54.999Z</time></trkpt><trkpt lat="44.28183957439066" lon="9.663443734662016"><ele>202.0</ele><time>2026-04-25T17:46:55.999Z</time></trkpt><trkpt lat="44.2816162007099" lon="9.663377720576605"><ele>203.66666666666666</ele><time>2026-04-25T17:46:56.999Z</time></trkpt><trkpt lat="44.28140617885135" lon="9.663288858255632"><ele>205.33333333333331</ele><time>2026-04-25T17:46:57.999Z</time></trkpt><trkpt lat="44.281201637127396" lon="9.663207379896802"><ele>207.0</ele><time>2026-04-25T17:46:59Z</time></trkpt><trkpt lat="44.28101087149923" lon="9.66313169313898"><ele>207.0</ele><time>2026-04-25T17:47:00Z</time></trkpt><trkpt lat="44.2808352955447" lon="9.663061155879003"><ele>207.0</ele><time>2026-04-25T17:47:01Z</time></trkpt><trkpt lat="44.28066330387337" lon="9.662994033692344"><ele>207.0</ele><time>2026-04-25T17:47:02Z</time></trkpt><trkpt lat="44.280496149211025" lon="9.662930855215821"><ele>209.0</ele><time>2026-04-25T17:47:03Z</time></trkpt><trkpt lat="44.28033614326042" lon="9.662869652939442"><ele>211.0</ele><time>2026-04-25T17:47:04Z</time></trkpt><trkpt lat="44.2801811584862" lon="9.662810973413107"><ele>213.0</ele><time>2026-04-25T17:47:05Z</time></trkpt><trkpt lat="44.280028568847285" lon="9.662760548807121"><ele>207.25</ele><time>2026-04-25T17:47:06Z</time></trkpt><trkpt lat="44.27988231230841" lon="9.662707532128234"><ele>201.5</ele><time>2026-04-25T17:47:07Z</time></trkpt><trkpt lat="44.2797407254797" lon="9.662651354587602"><ele>195.75</ele><time>2026-04-25T17:47:08Z</time></trkpt><trkpt lat="44.27960786815988" lon="9.662594409107626"><ele>190.0</ele><time>2026-04-25T17:47:09Z</time></trkpt><trkpt lat="44.27947690833507" lon="9.66254452668627"><ele>188.25</ele><time>2026-04-25T17:47:10Z</time></trkpt><trkpt lat="44.27934129425116" lon="9.662496235869861"><ele>186.5</ele><time>2026-04-25T17:47:11Z</time></trkpt><trkpt lat="44.279196145530484" lon="9.662444504241261"><ele>184.75</ele><time>2026-04-25T17:47:12Z</time></trkpt><trkpt lat="44.27904678916745" lon="9.662385350889021"><ele>183.0</ele><time>2026-04-25T17:47:13Z</time></trkpt><trkpt lat="44.27889563053607" lon="9.662324229175994"><ele>183.0</ele><time>2026-04-25T17:47:14Z</time></trkpt><trkpt lat="44.27874173164131" lon="9.662269395289877"><ele>183.0</ele><time>2026-04-25T17:47:15Z</time></trkpt><trkpt lat="44.27858908196863" lon="9.662209235702967"><ele>183.0</ele><time>2026-04-25T17:47:16Z</time></trkpt><trkpt lat="44.278445173656124" lon="9.662147135563334"><ele>183.0</ele><time>2026-04-25T17:47:17Z</time></trkpt><trkpt lat="44.278303283988535" lon="9.662080825324797"><ele>183.0</ele><time>2026-04-25T17:47:18Z</time></trkpt><trkpt lat="44.27816680449196" lon="9.662005974372681"><ele>183.0</ele><time>2026-04-25T17:47:19Z</time></trkpt><trkpt lat="44.27804291234756" lon="9.661919466791483"><ele>183.0</ele><time>2026-04-25T17:47:20Z</time></trkpt><trkpt lat="44.277918869417185" lon="9.661824721019032"><ele>183.5</ele><time>2026-04-25T17:47:21Z</time></trkpt><trkpt lat="44.27779283522442" lon="9.661722065541923"><ele>184.0</ele><time>2026-04-25T17:47:22Z</time></trkpt><trkpt lat="44.27767018675113" lon="9.661612822520961"><ele>184.5</ele><time>2026-04-25T17:47:23Z</time></trkpt><trkpt lat="44.27754809891479" lon="9.661495819381816"><ele>185.0</ele><time>2026-04-25T17:47:24Z</time></trkpt><trkpt lat="44.27742300995675" lon="9.661377605872152"><ele>185.0</ele><time>2026-04-25T17:47:25Z</time></trkpt><trkpt lat="44.27730541271042" lon="9.661263606594005"><ele>185.0</ele><time>2026-04-25T17:47:26Z</time></trkpt><trkpt lat="44.27719026563035" lon="9.661149220078805"><ele>185.0</ele><time>2026-04-25T17:47:27Z</time></trkpt><trkpt lat="44.277062523090855" lon="9.66102456748387"><ele>185.0</ele><time>2026-04-25T17:47:28Z</time></trkpt><trkpt lat="44.27692676346923" lon="9.660896962821319"><ele>185.0</ele><time>2026-04-25T17:47:29Z</time></trkpt><trkpt lat="44.27678896317077" lon="9.66075994497282"><ele>185.0</ele><time>2026-04-25T17:47:30Z</time></trkpt><trkpt lat="44.276653579801305" lon="9.660616460136891"><ele>185.0</ele><time>2026-04-25T17:47:31Z</time></trkpt><trkpt lat="44.276511701389595" lon="9.660473061017791"><ele>182.66666666666666</ele><time>2026-04-25T17:47:32Z</time></trkpt><trkpt lat="44.27637313836348" lon="9.660345187116123"><ele>180.33333333333334</ele><time>2026-04-25T17:47:33Z</time></trkpt><trkpt lat="44.27623070904533" lon="9.66023335780413"><ele>178.0</ele><time>2026-04-25T17:47:34Z</time></trkpt><trkpt lat="44.276078074049636" lon="9.660135815004962"><ele>178.0</ele><time>2026-04-25T17:47:35Z</time></trkpt><trkpt lat="44.27591225999223" lon="9.66002891054678"><ele>178.0</ele><time>2026-04-25T17:47:36Z</time></trkpt><trkpt lat="44.27572063215833" lon="9.65997246515835"><ele>178.0</ele><time>2026-04-25T17:47:37Z</time></trkpt><trkpt lat="44.275526110170944" lon="9.659895785336051"><ele>178.0</ele><time>2026-04-25T17:47:38Z</time></trkpt><trkpt lat="44.27532421672808" lon="9.659808489249436"><ele>178.0</ele><time>2026-04-25T17:47:39Z</time></trkpt><trkpt lat="44.275131509639415" lon="9.659725128578494"><ele>178.0</ele><time>2026-04-25T17:47:40Z</time></trkpt><trkpt lat="44.27494776559429" lon="9.659653597823564"><ele>178.0</ele><time>2026-04-25T17:47:41Z</time></trkpt><trkpt lat="44.27479055246253" lon="9.659590375462423"><ele>178.0</ele><time>2026-04-25T17:47:42Z</time></trkpt><trkpt lat="44.27465026206581" lon="9.659531220375149"><ele>178.0</ele><time>2026-04-25T17:47:43Z</time></trkpt><trkpt lat="44.27452432934402" lon="9.65947382117385"><ele>178.0</ele><time>2026-04-25T17:47:44Z</time></trkpt><trkpt lat="44.27440448604316" lon="9.659409020195195"><ele>177.5</ele><time>2026-04-25T17:47:45Z</time></trkpt><trkpt lat="44.27428704476246" lon="9.659339788068266"><ele>177.0</ele><time>2026-04-25T17:47:46Z</time></trkpt><trkpt lat="44.274132439240276" lon="9.659309659620392"><ele>176.5</ele><time>2026-04-25T17:47:47Z</time></trkpt><trkpt lat="44.274015552919955" lon="9.65923844492565"><ele>176.0</ele><time>2026-04-25T17:47:48Z</time></trkpt><trkpt lat="44.27389734600478" lon="9.659152686808326"><ele>178.5</ele><time>2026-04-25T17:47:49Z</time></trkpt><trkpt lat="44.27378486898581" lon="9.659047521503405"><ele>181.0</ele><time>2026-04-25T17:47:50Z</time></trkpt><trkpt lat="44.27367732579625" lon="9.658914689476056"><ele>183.5</ele><time>2026-04-25T17:47:51Z</time></trkpt><trkpt lat="44.27356674933261" lon="9.658758484784594"><ele>186.0</ele><time>2026-04-25T17:47:52Z</time></trkpt><trkpt lat="44.27347313636773" lon="9.658553814494734"><ele>186.0</ele><time>2026-04-25T17:47:53Z</time></trkpt><trkpt lat="44.27338565652531" lon="9.658333426903006"><ele>186.0</ele><time>2026-04-25T17:47:54Z</time></trkpt><trkpt lat="44.27330458106725" lon="9.658120811940485"><ele>186.0</ele><time>2026-04-25T17:47:55Z</time></trkpt><trkpt lat="44.27322264790199" lon="9.657932252329633"><ele>187.33333333333334</ele><time>2026-04-25T17:47:56Z</time></trkpt><trkpt lat="44.27314909164635" lon="9.657751165162708"><ele>188.66666666666669</ele><time>2026-04-25T17:47:57Z</time></trkpt><trkpt lat="44.27305632920845" lon="9.657582087558588"><ele>190.0</ele><time>2026-04-25T17:47:58Z</time></trkpt><trkpt lat="44.27293394596351" lon="9.657412284045126"><ele>190.0</ele><time>2026-04-25T17:47:59Z</time></trkpt><trkpt lat="44.27279276203889" lon="9.657237070330778"><ele>190.0</ele><time>2026-04-25T17:48:00Z</time></trkpt><trkpt lat="44.272662617325786" lon="9.657071515885644"><ele>190.0</ele><time>2026-04-25T17:48:01Z</time></trkpt><trkpt lat="44.27253412369506" lon="9.656925092870903"><ele>186.0</ele><time>2026-04-25T17:48:02Z</time></trkpt><trkpt lat="44.27240840378283" lon="9.656789743595331"><ele>182.0</ele><time>2026-04-25T17:48:03Z</time></trkpt><trkpt lat="44.27227568309802" lon="9.65667304957653"><ele>178.0</ele><time>2026-04-25T17:48:04Z</time></trkpt><trkpt lat="44.27213744815566" lon="9.656582952174427"><ele>178.0</ele><time>2026-04-25T17:48:05Z</time></trkpt><trkpt lat="44.27198718845925" lon="9.6565118044404"><ele>178.0</ele><time>2026-04-25T17:48:06Z</time></trkpt><trkpt lat="44.27182181922752" lon="9.656454439983074"><ele>178.0</ele><time>2026-04-25T17:48:07Z</time></trkpt><trkpt lat="44.27164627549675" lon="9.656411999012587"><ele>178.0</ele><time>2026-04-25T17:48:08Z</time></trkpt><trkpt lat="44.27145944673597" lon="9.656389832883168"><ele>178.0</ele><time>2026-04-25T17:48:09Z</time></trkpt><trkpt lat="44.27123652047836" lon="9.656417452345984"><ele>178.0</ele><time>2026-04-25T17:48:10Z</time></trkpt><trkpt lat="44.27101822334442" lon="9.656450623744727"><ele>179.0</ele><time>2026-04-25T17:48:11Z</time></trkpt><trkpt lat="44.270799486914434" lon="9.656483497831392"><ele>180.0</ele><time>2026-04-25T17:48:12Z</time></trkpt><trkpt lat="44.27059731246748" lon="9.656498420096694"><ele>181.0</ele><time>2026-04-25T17:48:12.999Z</time></trkpt><trkpt lat="44.27040550243386" lon="9.65650864794732"><ele>181.0</ele><time>2026-04-25T17:48:13.999Z</time></trkpt><trkpt lat="44.2702287408842" lon="9.656521066197358"><ele>181.0</ele><time>2026-04-25T17:48:14.999Z</time></trkpt><trkpt lat="44.270065346795604" lon="9.656537177055833"><ele>181.0</ele><time>2026-04-25T17:48:15.999Z</time></trkpt><trkpt lat="44.26991276748863" lon="9.656551216977656"><ele>178.5</ele><time>2026-04-25T17:48:16.999Z</time></trkpt><trkpt lat="44.26976447783823" lon="9.656577073282772"><ele>176.0</ele><time>2026-04-25T17:48:17.999Z</time></trkpt><trkpt lat="44.269617493527235" lon="9.656640497168715"><ele>173.5</ele><time>2026-04-25T17:48:18.999Z</time></trkpt><trkpt lat="44.26948591947108" lon="9.65672393614543"><ele>171.0</ele><time>2026-04-25T17:48:19.999Z</time></trkpt><trkpt lat="44.26936546224834" lon="9.65683118756225"><ele>172.66666666666666</ele><time>2026-04-25T17:48:20.999Z</time></trkpt><trkpt lat="44.269259582913605" lon="9.65697584840077"><ele>174.33333333333331</ele><time>2026-04-25T17:48:21.999Z</time></trkpt><trkpt lat="44.269168322812476" lon="9.657145320827675"><ele>176.0</ele><time>2026-04-25T17:48:22.999Z</time></trkpt><trkpt lat="44.269095986800885" lon="9.657329348812738"><ele>176.0</ele><time>2026-04-25T17:48:23.999Z</time></trkpt><trkpt lat="44.26904811359765" lon="9.657537558096694"><ele>176.0</ele><time>2026-04-25T17:48:24.999Z</time></trkpt><trkpt lat="44.269018043034194" lon="9.657777426768769"><ele>176.0</ele><time>2026-04-25T17:48:25.999Z</time></trkpt><trkpt lat="44.26899511930856" lon="9.658050130701863"><ele>177.66666666666666</ele><time>2026-04-25T17:48:26.999Z</time></trkpt><trkpt lat="44.26897197155913" lon="9.658342539841072"><ele>179.33333333333334</ele><time>2026-04-25T17:48:27.999Z</time></trkpt><trkpt lat="44.26894804943921" lon="9.658612382827558"><ele>181.0</ele><time>2026-04-25T17:48:28.999Z</time></trkpt><trkpt lat="44.26892090081395" lon="9.658866825461157"><ele>176.0</ele><time>2026-04-25T17:48:29.999Z</time></trkpt><trkpt lat="44.26889598077956" lon="9.659113102962026"><ele>171.0</ele><time>2026-04-25T17:48:30.999Z</time></trkpt><trkpt lat="44.2688554183894" lon="9.659350750576806"><ele>166.0</ele><time>2026-04-25T17:48:31.999Z</time></trkpt><trkpt lat="44.268831897612316" lon="9.659586075985658"><ele>165.66666666666669</ele><time>2026-04-25T17:48:32.999Z</time></trkpt><trkpt lat="44.26882265543104" lon="9.659813918590133"><ele>165.33333333333334</ele><time>2026-04-25T17:48:33.999Z</time></trkpt><trkpt lat="44.26880003424101" lon="9.660038094699713"><ele>165.0</ele><time>2026-04-25T17:48:34.999Z</time></trkpt><trkpt lat="44.26877517535665" lon="9.660278684454367"><ele>165.33333333333334</ele><time>2026-04-25T17:48:35.999Z</time></trkpt><trkpt lat="44.268745285350555" lon="9.660529159071514"><ele>165.66666666666669</ele><time>2026-04-25T17:48:36.999Z</time></trkpt><trkpt lat="44.26872440432038" lon="9.660789297671347"><ele>166.0</ele><time>2026-04-25T17:48:37.999Z</time></trkpt><trkpt lat="44.268688634976115" lon="9.66104647154604"><ele>169.66666666666669</ele><time>2026-04-25T17:48:38.999Z</time></trkpt><trkpt lat="44.26863054628039" lon="9.66129964639473"><ele>173.33333333333334</ele><time>2026-04-25T17:48:39.999Z</time></trkpt><trkpt lat="44.26854912384054" lon="9.661537765387855"><ele>177.0</ele><time>2026-04-25T17:48:40.999Z</time></trkpt><trkpt lat="44.268435731819594" lon="9.66174130349784"><ele>177.0</ele><time>2026-04-25T17:48:41.999Z</time></trkpt><trkpt lat="44.26832893472514" lon="9.661932688051412"><ele>177.0</ele><time>2026-04-25T17:48:42.999Z</time></trkpt><trkpt lat="44.268209680504135" lon="9.662095234150238"><ele>177.0</ele><time>2026-04-25T17:48:43.999Z</time></trkpt><trkpt lat="44.26808007878382" lon="9.662245650495953"><ele>174.33333333333334</ele><time>2026-04-25T17:48:44.999Z</time></trkpt><trkpt lat="44.267964090085705" lon="9.662395511495845"><ele>171.66666666666669</ele><time>2026-04-25T17:48:45.999Z</time></trkpt><trkpt lat="44.26784336253084" lon="9.662514521542194"><ele>169.0</ele><time>2026-04-25T17:48:46.999Z</time></trkpt><trkpt lat="44.26773282059817" lon="9.6626428473485"><ele>174.25</ele><time>2026-04-25T17:48:47.999Z</time></trkpt><trkpt lat="44.267638715075094" lon="9.662789648549488"><ele>179.5</ele><time>2026-04-25T17:48:48.999Z</time></trkpt><trkpt lat="44.26756004472139" lon="9.662942473452052"><ele>184.75</ele><time>2026-04-25T17:48:49.999Z</time></trkpt><trkpt lat="44.26747287688078" lon="9.66308355912588"><ele>190.0</ele><time>2026-04-25T17:48:50.999Z</time></trkpt><trkpt lat="44.267399014796084" lon="9.663240856089281"><ele>190.0</ele><time>2026-04-25T17:48:51.999Z</time></trkpt><trkpt lat="44.26732356066957" lon="9.663403417312468"><ele>190.0</ele><time>2026-04-25T17:48:52.999Z</time></trkpt><trkpt lat="44.267245142568676" lon="9.663574142623787"><ele>190.0</ele><time>2026-04-25T17:48:53.999Z</time></trkpt><trkpt lat="44.26717814517854" lon="9.663762614352208"><ele>190.0</ele><time>2026-04-25T17:48:54.999Z</time></trkpt><trkpt lat="44.26708107198589" lon="9.663930090228074"><ele>186.33333333333334</ele><time>2026-04-25T17:48:55.999Z</time></trkpt><trkpt lat="44.267008471094506" lon="9.664125139622913"><ele>182.66666666666666</ele><time>2026-04-25T17:48:56.999Z</time></trkpt><trkpt lat="44.266926648103286" lon="9.664310546298083"><ele>179.0</ele><time>2026-04-25T17:48:57.999Z</time></trkpt><trkpt lat="44.266851219515544" lon="9.664497456461017"><ele>179.0</ele><time>2026-04-25T17:48:58.999Z</time></trkpt><trkpt lat="44.266789846958574" lon="9.664689863503991"><ele>179.0</ele><time>2026-04-25T17:48:59.999Z</time></trkpt><trkpt lat="44.26673474761093" lon="9.664889399817259"><ele>179.0</ele><time>2026-04-25T17:49:00.999Z</time></trkpt><trkpt lat="44.266689429858594" lon="9.66509233311453"><ele>179.66666666666666</ele><time>2026-04-25T17:49:01.999Z</time></trkpt><trkpt lat="44.26663630254464" lon="9.665295839359622"><ele>180.33333333333334</ele><time>2026-04-25T17:49:02.999Z</time></trkpt><trkpt lat="44.26660515278504" lon="9.665514377625467"><ele>181.0</ele><time>2026-04-25T17:49:03.999Z</time></trkpt><trkpt lat="44.266582134885454" lon="9.665727376297973"><ele>181.0</ele><time>2026-04-25T17:49:05Z</time></trkpt><trkpt lat="44.26656058900081" lon="9.665926179666643"><ele>181.0</ele><time>2026-04-25T17:49:06Z</time></trkpt><trkpt lat="44.26652780850387" lon="9.666118188669838"><ele>181.0</ele><time>2026-04-25T17:49:07Z</time></trkpt><trkpt lat="44.26647619707901" lon="9.666309694363001"><ele>181.0</ele><time>2026-04-25T17:49:08Z</time></trkpt><trkpt lat="44.26640601760949" lon="9.666495890887541"><ele>179.66666666666669</ele><time>2026-04-25T17:49:09Z</time></trkpt><trkpt lat="44.26632701008397" lon="9.666682600862046"><ele>178.33333333333334</ele><time>2026-04-25T17:49:10Z</time></trkpt><trkpt lat="44.266217699122656" lon="9.666848633920683"><ele>177.0</ele><time>2026-04-25T17:49:11Z</time></trkpt><trkpt lat="44.26610513561429" lon="9.666996934884292"><ele>177.0</ele><time>2026-04-25T17:49:12Z</time></trkpt><trkpt lat="44.26599291038862" lon="9.667141864855841"><ele>177.0</ele><time>2026-04-25T17:49:13Z</time></trkpt><trkpt lat="44.26588114453236" lon="9.667264818329862"><ele>177.0</ele><time>2026-04-25T17:49:14Z</time></trkpt><trkpt lat="44.265764838976565" lon="9.667369267799288"><ele>177.0</ele><time>2026-04-25T17:49:15Z</time></trkpt><trkpt lat="44.26564060053275" lon="9.667454209396759"><ele>176.5</ele><time>2026-04-25T17:49:16Z</time></trkpt><trkpt lat="44.26551655031039" lon="9.667525209960075"><ele>176.0</ele><time>2026-04-25T17:49:17Z</time></trkpt><trkpt lat="44.265408087177136" lon="9.667615606821355"><ele>175.5</ele><time>2026-04-25T17:49:18Z</time></trkpt><trkpt lat="44.26530175232446" lon="9.66768688758027"><ele>175.0</ele><time>2026-04-25T17:49:19Z</time></trkpt><trkpt lat="44.2651697057717" lon="9.66771673805101"><ele>175.0</ele><time>2026-04-25T17:49:20Z</time></trkpt><trkpt lat="44.26502541241222" lon="9.667713275473188"><ele>175.0</ele><time>2026-04-25T17:49:21Z</time></trkpt><trkpt lat="44.26487323656147" lon="9.667702893667318"><ele>175.0</ele><time>2026-04-25T17:49:22Z</time></trkpt><trkpt lat="44.26473216011162" lon="9.66767326566551"><ele>175.0</ele><time>2026-04-25T17:49:23Z</time></trkpt><trkpt lat="44.264592408675455" lon="9.667611166018805"><ele>181.66666666666669</ele><time>2026-04-25T17:49:24Z</time></trkpt><trkpt lat="44.26445127663518" lon="9.667518390943881"><ele>188.33333333333334</ele><time>2026-04-25T17:49:25Z</time></trkpt><trkpt lat="44.264315375078425" lon="9.66740992912757"><ele>195.0</ele><time>2026-04-25T17:49:26Z</time></trkpt><trkpt lat="44.264189430696156" lon="9.667280057020301"><ele>195.0</ele><time>2026-04-25T17:49:27Z</time></trkpt><trkpt lat="44.26407897048896" lon="9.667136113230887"><ele>195.0</ele><time>2026-04-25T17:49:28Z</time></trkpt><trkpt lat="44.26398553280532" lon="9.666970285216621"><ele>195.0</ele><time>2026-04-25T17:49:29Z</time></trkpt><trkpt lat="44.26390745432569" lon="9.666794665931755"><ele>192.5</ele><time>2026-04-25T17:49:30Z</time></trkpt><trkpt lat="44.263840767926865" lon="9.666615174395963"><ele>190.0</ele><time>2026-04-25T17:49:31Z</time></trkpt><trkpt lat="44.26378087369348" lon="9.666434012058682"><ele>187.5</ele><time>2026-04-25T17:49:32Z</time></trkpt><trkpt lat="44.2637182612649" lon="9.666249953381177"><ele>185.0</ele><time>2026-04-25T17:49:33Z</time></trkpt><trkpt lat="44.2636530178196" lon="9.666071769283135"><ele>185.0</ele><time>2026-04-25T17:49:34Z</time></trkpt><trkpt lat="44.26358304383536" lon="9.66589633088318"><ele>185.0</ele><time>2026-04-25T17:49:35Z</time></trkpt><trkpt lat="44.26350526877362" lon="9.665730182148893"><ele>185.0</ele><time>2026-04-25T17:49:36Z</time></trkpt><trkpt lat="44.26341872355147" lon="9.665573336382739"><ele>185.0</ele><time>2026-04-25T17:49:37Z</time></trkpt><trkpt lat="44.26332210938072" lon="9.665433740411688"><ele>185.0</ele><time>2026-04-25T17:49:38Z</time></trkpt><trkpt lat="44.26320529220471" lon="9.665306014251529"><ele>185.0</ele><time>2026-04-25T17:49:39Z</time></trkpt><trkpt lat="44.26307021931073" lon="9.665193368915011"><ele>185.0</ele><time>2026-04-25T17:49:40Z</time></trkpt><trkpt lat="44.26292349549774" lon="9.665098503519358"><ele>182.33333333333331</ele><time>2026-04-25T17:49:41Z</time></trkpt><trkpt lat="44.26276233251105" lon="9.6650302127802"><ele>179.66666666666666</ele><time>2026-04-25T17:49:42Z</time></trkpt><trkpt lat="44.26259191335297" lon="9.664975951444488"><ele>177.0</ele><time>2026-04-25T17:49:43Z</time></trkpt><trkpt lat="44.262429721678146" lon="9.66493577916945"><ele>177.0</ele><time>2026-04-25T17:49:44Z</time></trkpt><trkpt lat="44.26227713241306" lon="9.664891424463432"><ele>177.0</ele><time>2026-04-25T17:49:45Z</time></trkpt><trkpt lat="44.26212305789887" lon="9.664837987869829"><ele>177.0</ele><time>2026-04-25T17:49:46Z</time></trkpt><trkpt lat="44.26197476692151" lon="9.664801998370818"><ele>177.0</ele><time>2026-04-25T17:49:47Z</time></trkpt><trkpt lat="44.261823729733464" lon="9.664784099127539"><ele>177.0</ele><time>2026-04-25T17:49:48Z</time></trkpt><trkpt lat="44.261675096172716" lon="9.664794178219216"><ele>177.0</ele><time>2026-04-25T17:49:49Z</time></trkpt><trkpt lat="44.26152992537063" lon="9.664824176070375"><ele>177.0</ele><time>2026-04-25T17:49:50Z</time></trkpt><trkpt lat="44.261376012477086" lon="9.664866606825633"><ele>174.33333333333334</ele><time>2026-04-25T17:49:51Z</time></trkpt><trkpt lat="44.26122093907866" lon="9.664922681444693"><ele>171.66666666666669</ele><time>2026-04-25T17:49:52Z</time></trkpt><trkpt lat="44.26106900798717" lon="9.664980206280568"><ele>169.0</ele><time>2026-04-25T17:49:53Z</time></trkpt><trkpt lat="44.26092127088841" lon="9.665035637236189"><ele>169.0</ele><time>2026-04-25T17:49:54Z</time></trkpt><trkpt lat="44.26077965782316" lon="9.665096997637525"><ele>169.0</ele><time>2026-04-25T17:49:55Z</time></trkpt><trkpt lat="44.260644826195445" lon="9.665177004313106"><ele>169.0</ele><time>2026-04-25T17:49:56Z</time></trkpt><trkpt lat="44.26051561389761" lon="9.665277684815027"><ele>169.0</ele><time>2026-04-25T17:49:57Z</time></trkpt><trkpt lat="44.26040068815471" lon="9.665394288111147"><ele>170.0</ele><time>2026-04-25T17:49:58Z</time></trkpt><trkpt lat="44.2602891287065" lon="9.665532740007613"><ele>171.0</ele><time>2026-04-25T17:49:59Z</time></trkpt><trkpt lat="44.26015163030567" lon="9.665663587153569"><ele>172.0</ele><time>2026-04-25T17:50:00Z</time></trkpt><trkpt lat="44.26001158433421" lon="9.66582922315425"><ele>172.0</ele><time>2026-04-25T17:50:01Z</time></trkpt><trkpt lat="44.25986892405944" lon="9.666009756821634"><ele>172.0</ele><time>2026-04-25T17:50:02Z</time></trkpt><trkpt lat="44.25971904697171" lon="9.666177934046239"><ele>172.0</ele><time>2026-04-25T17:50:03Z</time></trkpt><trkpt lat="44.259572007301436" lon="9.666367375948782"><ele>169.33333333333334</ele><time>2026-04-25T17:50:04Z</time></trkpt><trkpt lat="44.259426831327644" lon="9.666565726965098"><ele>166.66666666666666</ele><time>2026-04-25T17:50:05Z</time></trkpt><trkpt lat="44.259290468060335" lon="9.666752142739133"><ele>164.0</ele><time>2026-04-25T17:50:06Z</time></trkpt><trkpt lat="44.25916522434038" lon="9.666928867275008"><ele>164.0</ele><time>2026-04-25T17:50:07Z</time></trkpt><trkpt lat="44.259048959834615" lon="9.667110591367177"><ele>164.0</ele><time>2026-04-25T17:50:08Z</time></trkpt><trkpt lat="44.258944710930976" lon="9.667304691842077"><ele>164.0</ele><time>2026-04-25T17:50:09Z</time></trkpt><trkpt lat="44.258858872280875" lon="9.667534120860015"><ele>162.33333333333331</ele><time>2026-04-25T17:50:10Z</time></trkpt><trkpt lat="44.258790141082585" lon="9.667794789022059"><ele>160.66666666666666</ele><time>2026-04-25T17:50:11Z</time></trkpt><trkpt lat="44.258734308951574" lon="9.668079767703908"><ele>159.0</ele><time>2026-04-25T17:50:12Z</time></trkpt><trkpt lat="44.25868396357762" lon="9.668384190458926"><ele>159.33333333333334</ele><time>2026-04-25T17:50:13Z</time></trkpt><trkpt lat="44.25860436234252" lon="9.668677378562528"><ele>159.66666666666669</ele><time>2026-04-25T17:50:14Z</time></trkpt><trkpt lat="44.25853831871422" lon="9.668961531327597"><ele>160.0</ele><time>2026-04-25T17:50:15Z</time></trkpt><trkpt lat="44.258480975168524" lon="9.669237872784434"><ele>165.33333333333334</ele><time>2026-04-25T17:50:16Z</time></trkpt><trkpt lat="44.25841177923775" lon="9.669479021846742"><ele>170.66666666666666</ele><time>2026-04-25T17:50:17Z</time></trkpt><trkpt lat="44.25834761108544" lon="9.66969787011381"><ele>176.0</ele><time>2026-04-25T17:50:17.999Z</time></trkpt><trkpt lat="44.25829255563157" lon="9.669908582286562"><ele>176.0</ele><time>2026-04-25T17:50:18.999Z</time></trkpt><trkpt lat="44.25823123265571" lon="9.670075703788106"><ele>176.0</ele><time>2026-04-25T17:50:19.999Z</time></trkpt><trkpt lat="44.25819950258965" lon="9.670246493510923"><ele>176.0</ele><time>2026-04-25T17:50:20.999Z</time></trkpt><trkpt lat="44.25816095399232" lon="9.670388180811878"><ele>176.0</ele><time>2026-04-25T17:50:21.999Z</time></trkpt><trkpt lat="44.258110854946054" lon="9.670500365752526"><ele>173.0</ele><time>2026-04-25T17:50:22.999Z</time></trkpt><trkpt lat="44.25807898875883" lon="9.670604522515935"><ele>170.0</ele><time>2026-04-25T17:50:23.999Z</time></trkpt><trkpt lat="44.25804792705123" lon="9.670700850227393"><ele>167.0</ele><time>2026-04-25T17:50:24.999Z</time></trkpt><trkpt lat="44.25799283931602" lon="9.670837456662266"><ele>164.0</ele><time>2026-04-25T17:50:26.999Z</time></trkpt><trkpt lat="44.257941949513345" lon="9.670940186954876"><ele>161.0</ele><time>2026-04-25T17:50:28.999Z</time></trkpt><trkpt lat="44.25789377993836" lon="9.671025274583586"><ele>158.0</ele><time>2026-04-25T17:50:30.999Z</time></trkpt><trkpt lat="44.25784714083125" lon="9.671099754642556"><ele>161.33333333333331</ele><time>2026-04-25T17:50:33.999Z</time></trkpt><trkpt lat="44.25780810780761" lon="9.671192221798501"><ele>164.66666666666666</ele><time>2026-04-25T17:50:35.999Z</time></trkpt><trkpt lat="44.257742857820034" lon="9.671273221765908"><ele>168.0</ele><time>2026-04-25T17:50:37.999Z</time></trkpt><trkpt lat="44.25766679254519" lon="9.671349981020393"><ele>171.33333333333334</ele><time>2026-04-25T17:50:39.999Z</time></trkpt><trkpt lat="44.25757085554114" lon="9.671445042070227"><ele>174.66666666666669</ele><time>2026-04-25T17:50:41.999Z</time></trkpt><trkpt lat="44.257511641349375" lon="9.671505483565769"><ele>178.0</ele><time>2026-04-25T17:50:42.999Z</time></trkpt><trkpt lat="44.25743308277139" lon="9.671581237528049"><ele>178.0</ele><time>2026-04-25T17:50:43.999Z</time></trkpt><trkpt lat="44.2573512219153" lon="9.671670411060953"><ele>178.0</ele><time>2026-04-25T17:50:44.999Z</time></trkpt><trkpt lat="44.25726859607319" lon="9.671751746994186"><ele>178.0</ele><time>2026-04-25T17:50:45.999Z</time></trkpt><trkpt lat="44.257179370549466" lon="9.67183826661673"><ele>178.0</ele><time>2026-04-25T17:50:46.999Z</time></trkpt><trkpt lat="44.257075486939556" lon="9.67191278305903"><ele>178.0</ele><time>2026-04-25T17:50:47.999Z</time></trkpt><trkpt lat="44.25697606025093" lon="9.672008990512872"><ele>176.5</ele><time>2026-04-25T17:50:48.999Z</time></trkpt><trkpt lat="44.2568781466275" lon="9.672107122055191"><ele>175.0</ele><time>2026-04-25T17:50:49.999Z</time></trkpt><trkpt lat="44.256790347290504" lon="9.672218725325406"><ele>173.5</ele><time>2026-04-25T17:50:50.999Z</time></trkpt><trkpt lat="44.256692260186114" lon="9.6723165726613"><ele>172.0</ele><time>2026-04-25T17:50:51.999Z</time></trkpt><trkpt lat="44.25659205669431" lon="9.672416844978049"><ele>172.0</ele><time>2026-04-25T17:50:52.999Z</time></trkpt><trkpt lat="44.2564851416966" lon="9.672524498602368"><ele>172.0</ele><time>2026-04-25T17:50:53.999Z</time></trkpt><trkpt lat="44.25636399328545" lon="9.672638288429791"><ele>172.0</ele><time>2026-04-25T17:50:54.999Z</time></trkpt><trkpt lat="44.256238870814016" lon="9.672748499716208"><ele>172.0</ele><time>2026-04-25T17:50:55.999Z</time></trkpt><trkpt lat="44.25610784040614" lon="9.6728540970597"><ele>171.0</ele><time>2026-04-25T17:50:56.999Z</time></trkpt><trkpt lat="44.25597121241633" lon="9.672948574276822"><ele>170.0</ele><time>2026-04-25T17:50:57.999Z</time></trkpt><trkpt lat="44.25583846200024" lon="9.673029881757591"><ele>169.0</ele><time>2026-04-25T17:50:58.999Z</time></trkpt><trkpt lat="44.25570299230562" lon="9.673100965499147"><ele>168.0</ele><time>2026-04-25T17:50:59.999Z</time></trkpt><trkpt lat="44.25556204572084" lon="9.67316489831011"><ele>166.0</ele><time>2026-04-25T17:51:00.999Z</time></trkpt><trkpt lat="44.25541377571781" lon="9.673217792663268"><ele>164.0</ele><time>2026-04-25T17:51:01.999Z</time></trkpt><trkpt lat="44.255256453285945" lon="9.67325595041303"><ele>162.0</ele><time>2026-04-25T17:51:02.999Z</time></trkpt><trkpt lat="44.25509297512525" lon="9.673287857123974"><ele>162.0</ele><time>2026-04-25T17:51:03.999Z</time></trkpt><trkpt lat="44.254919302558136" lon="9.673308469194646"><ele>162.0</ele><time>2026-04-25T17:51:04.999Z</time></trkpt><trkpt lat="44.25474097009928" lon="9.673323021552108"><ele>162.0</ele><time>2026-04-25T17:51:05.999Z</time></trkpt><trkpt lat="44.25456963179087" lon="9.673335812963575"><ele>159.33333333333334</ele><time>2026-04-25T17:51:06.999Z</time></trkpt><trkpt lat="44.25440069637017" lon="9.67334696002823"><ele>156.66666666666669</ele><time>2026-04-25T17:51:07.999Z</time></trkpt><trkpt lat="44.25423746055378" lon="9.6733562342435"><ele>154.0</ele><time>2026-04-25T17:51:08.999Z</time></trkpt><trkpt lat="44.25407285493105" lon="9.673371165256068"><ele>152.66666666666669</ele><time>2026-04-25T17:51:09.999Z</time></trkpt><trkpt lat="44.25390157139227" lon="9.673377192263704"><ele>151.33333333333334</ele><time>2026-04-25T17:51:11Z</time></trkpt><trkpt lat="44.25373700702076" lon="9.673379916502851"><ele>150.0</ele><time>2026-04-25T17:51:12Z</time></trkpt><trkpt lat="44.25356806820415" lon="9.673387392253948"><ele>150.0</ele><time>2026-04-25T17:51:13Z</time></trkpt><trkpt lat="44.253411314656596" lon="9.673399045326962"><ele>150.0</ele><time>2026-04-25T17:51:14Z</time></trkpt><trkpt lat="44.25326187072126" lon="9.673408624752746"><ele>150.0</ele><time>2026-04-25T17:51:15Z</time></trkpt><trkpt lat="44.25310735021744" lon="9.673420164246675"><ele>149.0</ele><time>2026-04-25T17:51:16Z</time></trkpt><trkpt lat="44.252950096772665" lon="9.673444360366231"><ele>148.0</ele><time>2026-04-25T17:51:17Z</time></trkpt><trkpt lat="44.25278658748401" lon="9.67348045269147"><ele>147.0</ele><time>2026-04-25T17:51:18Z</time></trkpt><trkpt lat="44.25261511542691" lon="9.673548362112987"><ele>150.66666666666666</ele><time>2026-04-25T17:51:19Z</time></trkpt><trkpt lat="44.25243946572505" lon="9.673612187731077"><ele>154.33333333333331</ele><time>2026-04-25T17:51:20Z</time></trkpt><trkpt lat="44.25227879092624" lon="9.673696594078606"><ele>158.0</ele><time>2026-04-25T17:51:21Z</time></trkpt><trkpt lat="44.25211955116155" lon="9.67378727849549"><ele>165.66666666666666</ele><time>2026-04-25T17:51:22Z</time></trkpt><trkpt lat="44.25196153296084" lon="9.67389691450649"><ele>173.33333333333334</ele><time>2026-04-25T17:51:23Z</time></trkpt><trkpt lat="44.251811592165794" lon="9.67402690575222"><ele>181.0</ele><time>2026-04-25T17:51:24Z</time></trkpt><trkpt lat="44.25168430544905" lon="9.674166066808121"><ele>181.0</ele><time>2026-04-25T17:51:25Z</time></trkpt><trkpt lat="44.25153986275925" lon="9.674290908446999"><ele>181.0</ele><time>2026-04-25T17:51:26Z</time></trkpt><trkpt lat="44.25140035884913" lon="9.674436727053317"><ele>181.0</ele><time>2026-04-25T17:51:27Z</time></trkpt><trkpt lat="44.25129103418784" lon="9.67460757186105"><ele>209.5</ele><time>2026-04-25T17:51:28Z</time></trkpt><trkpt lat="44.25108359921524" lon="9.674961158831211"><ele>238.0</ele><time>2026-04-25T17:51:30.071Z</time></trkpt><trkpt lat="44.251006799458324" lon="9.675129995067268"><ele>235.5</ele><time>2026-04-25T17:51:31.059Z</time></trkpt><trkpt lat="44.25093075969221" lon="9.675307568440003"><ele>233.0</ele><time>2026-04-25T17:51:32.057Z</time></trkpt><trkpt lat="44.25038952694179" lon="9.678137989236316"><ele>202.33333333333334</ele><time>2026-04-25T17:51:41Z</time></trkpt><trkpt lat="44.25034501633713" lon="9.678423213910898"><ele>171.66666666666669</ele><time>2026-04-25T17:51:42Z</time></trkpt><trkpt lat="44.25032222456611" lon="9.678731175447089"><ele>141.0</ele><time>2026-04-25T17:51:43Z</time></trkpt><trkpt lat="44.250278529410494" lon="9.679029434748566"><ele>140.0</ele><time>2026-04-25T17:51:44Z</time></trkpt><trkpt lat="44.25023904561338" lon="9.679337357471491"><ele>139.0</ele><time>2026-04-25T17:51:45Z</time></trkpt><trkpt lat="44.250183877649675" lon="9.679624650795162"><ele>138.0</ele><time>2026-04-25T17:51:46Z</time></trkpt><trkpt lat="44.25015855725863" lon="9.679890677129373"><ele>138.0</ele><time>2026-04-25T17:51:47Z</time></trkpt><trkpt lat="44.25010429224239" lon="9.680130487245375"><ele>138.0</ele><time>2026-04-25T17:51:48Z</time></trkpt><trkpt lat="44.25006921454809" lon="9.68033418452131"><ele>138.0</ele><time>2026-04-25T17:51:49Z</time></trkpt><trkpt lat="44.25004432052964" lon="9.680542091139994"><ele>139.0</ele><time>2026-04-25T17:51:50Z</time></trkpt><trkpt lat="44.24997262239673" lon="9.68072086190378"><ele>140.0</ele><time>2026-04-25T17:51:51Z</time></trkpt><trkpt lat="44.24988705434254" lon="9.680893895217158"><ele>141.0</ele><time>2026-04-25T17:51:52Z</time></trkpt><trkpt lat="44.249786367017" lon="9.681059003656186"><ele>144.33333333333334</ele><time>2026-04-25T17:51:53Z</time></trkpt><trkpt lat="44.249667303122415" lon="9.681221605500077"><ele>147.66666666666669</ele><time>2026-04-25T17:51:54Z</time></trkpt><trkpt lat="44.249529752434746" lon="9.681375857843351"><ele>151.0</ele><time>2026-04-25T17:51:55Z</time></trkpt><trkpt lat="44.2493876922447" lon="9.681532441701462"><ele>151.0</ele><time>2026-04-25T17:51:56Z</time></trkpt><trkpt lat="44.24922818875687" lon="9.681711194834822"><ele>151.0</ele><time>2026-04-25T17:51:57Z</time></trkpt><trkpt lat="44.24906753938307" lon="9.681888528131864"><ele>151.0</ele><time>2026-04-25T17:51:58Z</time></trkpt><trkpt lat="44.248909674972865" lon="9.682058922361474"><ele>149.66666666666669</ele><time>2026-04-25T17:51:59Z</time></trkpt><trkpt lat="44.24876028436576" lon="9.682211460658204"><ele>148.33333333333334</ele><time>2026-04-25T17:52:00Z</time></trkpt><trkpt lat="44.248615407764014" lon="9.682348859791848"><ele>147.0</ele><time>2026-04-25T17:52:01Z</time></trkpt><trkpt lat="44.248461061627204" lon="9.682450897205499"><ele>147.0</ele><time>2026-04-25T17:52:02Z</time></trkpt><trkpt lat="44.24831504869883" lon="9.682584517968863"><ele>147.0</ele><time>2026-04-25T17:52:03Z</time></trkpt><trkpt lat="44.24814479042583" lon="9.682685512163"><ele>147.0</ele><time>2026-04-25T17:52:04Z</time></trkpt><trkpt lat="44.24796792122191" lon="9.682777038147874"><ele>146.0</ele><time>2026-04-25T17:52:05Z</time></trkpt><trkpt lat="44.24778307200202" lon="9.682866709778299"><ele>145.0</ele><time>2026-04-25T17:52:06Z</time></trkpt><trkpt lat="44.24760060224168" lon="9.682941381660346"><ele>144.0</ele><time>2026-04-25T17:52:07Z</time></trkpt><trkpt lat="44.24743210917155" lon="9.683007341512303"><ele>145.33333333333334</ele><time>2026-04-25T17:52:08Z</time></trkpt><trkpt lat="44.24727415402083" lon="9.683066861763319"><ele>146.66666666666669</ele><time>2026-04-25T17:52:09Z</time></trkpt><trkpt lat="44.24712177622103" lon="9.683127385821793"><ele>148.0</ele><time>2026-04-25T17:52:10Z</time></trkpt><trkpt lat="44.24697588256912" lon="9.683183110578172"><ele>148.0</ele><time>2026-04-25T17:52:11Z</time></trkpt><trkpt lat="44.24682627853438" lon="9.683227412621848"><ele>148.0</ele><time>2026-04-25T17:52:12Z</time></trkpt><trkpt lat="44.246684276595715" lon="9.683253984626816"><ele>148.0</ele><time>2026-04-25T17:52:13Z</time></trkpt><trkpt lat="44.24654988194718" lon="9.683266292297793"><ele>148.0</ele><time>2026-04-25T17:52:14Z</time></trkpt><trkpt lat="44.246427484078566" lon="9.683259409824355"><ele>145.8</ele><time>2026-04-25T17:52:14.999Z</time></trkpt><trkpt lat="44.246313225770585" lon="9.68322844664673"><ele>143.60000000000002</ele><time>2026-04-25T17:52:15.999Z</time></trkpt><trkpt lat="44.24621014442292" lon="9.68318114410563"><ele>141.39999999999998</ele><time>2026-04-25T17:52:16.999Z</time></trkpt><trkpt lat="44.24611356039867" lon="9.683130658937086"><ele>139.2</ele><time>2026-04-25T17:52:17.999Z</time></trkpt><trkpt lat="44.2460353918749" lon="9.683099940815964"><ele>137.0</ele><time>2026-04-25T17:52:18.999Z</time></trkpt><trkpt lat="44.24596630997823" lon="9.683106290225622"><ele>137.0</ele><time>2026-04-25T17:52:19.999Z</time></trkpt><trkpt lat="44.24589716308126" lon="9.683195839469446"><ele>137.0</ele><time>2026-04-25T17:52:21.999Z</time></trkpt><trkpt lat="44.245913336095114" lon="9.683377724831384"><ele>137.0</ele><time>2026-04-25T17:52:23.999Z</time></trkpt><trkpt lat="44.24589173061332" lon="9.683540857929774"><ele>137.0</ele><time>2026-04-25T17:52:24.999Z</time></trkpt><trkpt lat="44.24592309765987" lon="9.68373872067126"><ele>135.66666666666666</ele><time>2026-04-25T17:52:25.999Z</time></trkpt><trkpt lat="44.24595959164061" lon="9.683960840218964"><ele>134.33333333333334</ele><time>2026-04-25T17:52:26.999Z</time></trkpt><trkpt lat="44.24596654431584" lon="9.684200814018524"><ele>133.0</ele><time>2026-04-25T17:52:27.999Z</time></trkpt><trkpt lat="44.245989868415755" lon="9.684480217681097"><ele>132.0</ele><time>2026-04-25T17:52:28.999Z</time></trkpt><trkpt lat="44.24601461645205" lon="9.684776679044743"><ele>131.0</ele><time>2026-04-25T17:52:29.999Z</time></trkpt><trkpt lat="44.246038384910555" lon="9.685061405890494"><ele>130.0</ele><time>2026-04-25T17:52:30.999Z</time></trkpt><trkpt lat="44.246077947605094" lon="9.685336959278313"><ele>130.0</ele><time>2026-04-25T17:52:31.999Z</time></trkpt><trkpt lat="44.246099158193786" lon="9.68559473967667"><ele>130.0</ele><time>2026-04-25T17:52:32.999Z</time></trkpt><trkpt lat="44.24610431011612" lon="9.685845471492529"><ele>130.0</ele><time>2026-04-25T17:52:33.999Z</time></trkpt><trkpt lat="44.246125842586295" lon="9.686091771966744"><ele>131.33333333333334</ele><time>2026-04-25T17:52:34.999Z</time></trkpt><trkpt lat="44.24614663638775" lon="9.686336965481907"><ele>132.66666666666666</ele><time>2026-04-25T17:52:35.999Z</time></trkpt><trkpt lat="44.246177255115896" lon="9.686548929770508"><ele>134.0</ele><time>2026-04-25T17:52:36.999Z</time></trkpt><trkpt lat="44.24620004542809" lon="9.686758163582653"><ele>133.66666666666666</ele><time>2026-04-25T17:52:37.999Z</time></trkpt><trkpt lat="44.246243004215955" lon="9.686953414759522"><ele>133.33333333333334</ele><time>2026-04-25T17:52:38.999Z</time></trkpt><trkpt lat="44.24630627819822" lon="9.687145979584635"><ele>133.0</ele><time>2026-04-25T17:52:39.999Z</time></trkpt><trkpt lat="44.24638790734427" lon="9.687357893708846"><ele>133.66666666666669</ele><time>2026-04-25T17:52:40.999Z</time></trkpt><trkpt lat="44.24648334894947" lon="9.687573616124958"><ele>134.33333333333334</ele><time>2026-04-25T17:52:41.999Z</time></trkpt><trkpt lat="44.24657355762688" lon="9.687770433192721"><ele>135.0</ele><time>2026-04-25T17:52:42.999Z</time></trkpt><trkpt lat="44.246664844570205" lon="9.687938614936344"><ele>135.0</ele><time>2026-04-25T17:52:43.999Z</time></trkpt><trkpt lat="44.24676819184291" lon="9.688083845774614"><ele>135.0</ele><time>2026-04-25T17:52:44.999Z</time></trkpt><trkpt lat="44.246883584554546" lon="9.688206138459178"><ele>135.0</ele><time>2026-04-25T17:52:45.999Z</time></trkpt><trkpt lat="44.24700843516897" lon="9.688312103498044"><ele>135.0</ele><time>2026-04-25T17:52:46.999Z</time></trkpt><trkpt lat="44.2471156440254" lon="9.688426909679313"><ele>135.0</ele><time>2026-04-25T17:52:47.999Z</time></trkpt><trkpt lat="44.24718830931164" lon="9.688549255132347"><ele>135.0</ele><time>2026-04-25T17:52:48.999Z</time></trkpt><trkpt lat="44.247236797593835" lon="9.68868888300931"><ele>135.0</ele><time>2026-04-25T17:52:49.999Z</time></trkpt><trkpt lat="44.24728424645613" lon="9.688867488384593"><ele>135.0</ele><time>2026-04-25T17:52:50.999Z</time></trkpt><trkpt lat="44.24733714729847" lon="9.689069176952898"><ele>136.0</ele><time>2026-04-25T17:52:51.999Z</time></trkpt><trkpt lat="44.24737598853218" lon="9.689258768010616"><ele>137.0</ele><time>2026-04-25T17:52:52.999Z</time></trkpt><trkpt lat="44.24738853348563" lon="9.689462118496886"><ele>138.0</ele><time>2026-04-25T17:52:53.999Z</time></trkpt><trkpt lat="44.24739439813042" lon="9.689705486460317"><ele>138.0</ele><time>2026-04-25T17:52:54.999Z</time></trkpt><trkpt lat="44.247429593740854" lon="9.689954549783005"><ele>138.0</ele><time>2026-04-25T17:52:55.999Z</time></trkpt><trkpt lat="44.2474781496874" lon="9.69020756341526"><ele>138.0</ele><time>2026-04-25T17:52:56.999Z</time></trkpt><trkpt lat="44.24750565138851" lon="9.69043330899593"><ele>142.0</ele><time>2026-04-25T17:52:57.999Z</time></trkpt><trkpt lat="44.24750703983271" lon="9.690648058731005"><ele>146.0</ele><time>2026-04-25T17:52:58.999Z</time></trkpt><trkpt lat="44.24750046680905" lon="9.69086961990411"><ele>150.0</ele><time>2026-04-25T17:52:59.999Z</time></trkpt><trkpt lat="44.24748222441752" lon="9.691051188692715"><ele>154.0</ele><time>2026-04-25T17:53:00.999Z</time></trkpt><trkpt lat="44.24744288621117" lon="9.691212064730495"><ele>156.66666666666669</ele><time>2026-04-25T17:53:01.999Z</time></trkpt><trkpt lat="44.24736208262102" lon="9.691351675844643"><ele>159.33333333333334</ele><time>2026-04-25T17:53:02.999Z</time></trkpt><trkpt lat="44.24726306349465" lon="9.691521287722697"><ele>162.0</ele><time>2026-04-25T17:53:03.999Z</time></trkpt><trkpt lat="44.2471605919044" lon="9.69171856756071"><ele>155.33333333333334</ele><time>2026-04-25T17:53:04.999Z</time></trkpt><trkpt lat="44.24704092346577" lon="9.691926667080097"><ele>148.66666666666669</ele><time>2026-04-25T17:53:05.999Z</time></trkpt><trkpt lat="44.246911623742506" lon="9.692145137879576"><ele>142.0</ele><time>2026-04-25T17:53:06.999Z</time></trkpt><trkpt lat="44.24678295087357" lon="9.692353995936005"><ele>142.0</ele><time>2026-04-25T17:53:07.999Z</time></trkpt><trkpt lat="44.246653769363775" lon="9.692564244515447"><ele>142.0</ele><time>2026-04-25T17:53:08.999Z</time></trkpt><trkpt lat="44.24652849125165" lon="9.69277179554725"><ele>142.0</ele><time>2026-04-25T17:53:09.999Z</time></trkpt><trkpt lat="44.24641041453888" lon="9.692964774450546"><ele>137.66666666666669</ele><time>2026-04-25T17:53:10.999Z</time></trkpt><trkpt lat="44.24629944519042" lon="9.693151840790456"><ele>133.33333333333334</ele><time>2026-04-25T17:53:11.999Z</time></trkpt><trkpt lat="44.24619129798918" lon="9.693331494120255"><ele>129.0</ele><time>2026-04-25T17:53:12.999Z</time></trkpt><trkpt lat="44.246086002231976" lon="9.693502464418026"><ele>133.5</ele><time>2026-04-25T17:53:13.999Z</time></trkpt><trkpt lat="44.24598829974896" lon="9.69366797945856"><ele>138.0</ele><time>2026-04-25T17:53:14.999Z</time></trkpt><trkpt lat="44.24589085527768" lon="9.693827375729803"><ele>142.5</ele><time>2026-04-25T17:53:15.999Z</time></trkpt><trkpt lat="44.24578631294387" lon="9.69396738238352"><ele>147.0</ele><time>2026-04-25T17:53:17Z</time></trkpt><trkpt lat="44.24565422835724" lon="9.694062711765408"><ele>140.0</ele><time>2026-04-25T17:53:18Z</time></trkpt><trkpt lat="44.245513314987775" lon="9.694155662665157"><ele>133.0</ele><time>2026-04-25T17:53:19Z</time></trkpt><trkpt lat="44.24535744551581" lon="9.69425099817871"><ele>126.0</ele><time>2026-04-25T17:53:20Z</time></trkpt><trkpt lat="44.24519815568747" lon="9.694370732414663"><ele>128.66666666666666</ele><time>2026-04-25T17:53:21Z</time></trkpt><trkpt lat="44.24502207760946" lon="9.694476625424263"><ele>131.33333333333331</ele><time>2026-04-25T17:53:22Z</time></trkpt><trkpt lat="44.24484132972685" lon="9.694582716699918"><ele>134.0</ele><time>2026-04-25T17:53:23Z</time></trkpt><trkpt lat="44.244668451040134" lon="9.694687456997244"><ele>134.0</ele><time>2026-04-25T17:53:24Z</time></trkpt><trkpt lat="44.24450509421298" lon="9.694787020010127"><ele>134.0</ele><time>2026-04-25T17:53:25Z</time></trkpt><trkpt lat="44.24434365558465" lon="9.69488165690943"><ele>134.0</ele><time>2026-04-25T17:53:26Z</time></trkpt><trkpt lat="44.24418189446627" lon="9.694976021967747"><ele>134.0</ele><time>2026-04-25T17:53:27Z</time></trkpt><trkpt lat="44.24402242654669" lon="9.695069961456761"><ele>134.0</ele><time>2026-04-25T17:53:28Z</time></trkpt><trkpt lat="44.24386078489228" lon="9.695160210554146"><ele>134.0</ele><time>2026-04-25T17:53:29Z</time></trkpt><trkpt lat="44.24370482018004" lon="9.695251449577244"><ele>135.0</ele><time>2026-04-25T17:53:30Z</time></trkpt><trkpt lat="44.24356255937823" lon="9.695337537750394"><ele>136.0</ele><time>2026-04-25T17:53:31Z</time></trkpt><trkpt lat="44.243437414933105" lon="9.695422215898583"><ele>137.0</ele><time>2026-04-25T17:53:32Z</time></trkpt><trkpt lat="44.24332997846979" lon="9.695527015814536"><ele>138.0</ele><time>2026-04-25T17:53:33Z</time></trkpt><trkpt lat="44.24324081536992" lon="9.695659591811081"><ele>138.0</ele><time>2026-04-25T17:53:34Z</time></trkpt><trkpt lat="44.24318794098696" lon="9.695812434559803"><ele>138.0</ele><time>2026-04-25T17:53:35Z</time></trkpt><trkpt lat="44.243158295181686" lon="9.695975275420166"><ele>138.0</ele><time>2026-04-25T17:53:36Z</time></trkpt><trkpt lat="44.243164901470095" lon="9.696160503971143"><ele>138.0</ele><time>2026-04-25T17:53:37Z</time></trkpt><trkpt lat="44.24319422002717" lon="9.69635573114625"><ele>139.33333333333334</ele><time>2026-04-25T17:53:38Z</time></trkpt><trkpt lat="44.24324339219365" lon="9.696565149637802"><ele>140.66666666666669</ele><time>2026-04-25T17:53:39Z</time></trkpt><trkpt lat="44.24327013802264" lon="9.69680108361923"><ele>142.0</ele><time>2026-04-25T17:53:40Z</time></trkpt><trkpt lat="44.24330280821245" lon="9.6970515050275"><ele>142.33333333333334</ele><time>2026-04-25T17:53:41Z</time></trkpt><trkpt lat="44.24334952330408" lon="9.69731279846462"><ele>142.66666666666666</ele><time>2026-04-25T17:53:42Z</time></trkpt><trkpt lat="44.243376405764764" lon="9.697569838537513"><ele>143.0</ele><time>2026-04-25T17:53:43Z</time></trkpt><trkpt lat="44.24340407891852" lon="9.69783105947687"><ele>143.0</ele><time>2026-04-25T17:53:44Z</time></trkpt><trkpt lat="44.243431244227445" lon="9.698088863382587"><ele>143.0</ele><time>2026-04-25T17:53:45Z</time></trkpt><trkpt lat="44.24346026082054" lon="9.698345876342927"><ele>143.0</ele><time>2026-04-25T17:53:46Z</time></trkpt><trkpt lat="44.243491453122786" lon="9.698613683054793"><ele>147.33333333333331</ele><time>2026-04-25T17:53:47Z</time></trkpt><trkpt lat="44.24353546259447" lon="9.698878048280367"><ele>151.66666666666666</ele><time>2026-04-25T17:53:48Z</time></trkpt><trkpt lat="44.2435563110092" lon="9.699134128219544"><ele>156.0</ele><time>2026-04-25T17:53:49Z</time></trkpt><trkpt lat="44.243607034115215" lon="9.69937328638789"><ele>152.0</ele><time>2026-04-25T17:53:50Z</time></trkpt><trkpt lat="44.24363695132062" lon="9.699610942265464"><ele>148.0</ele><time>2026-04-25T17:53:51Z</time></trkpt><trkpt lat="44.24367598712425" lon="9.699835725493582"><ele>144.0</ele><time>2026-04-25T17:53:52Z</time></trkpt><trkpt lat="44.24372562595302" lon="9.700048624874027"><ele>144.66666666666666</ele><time>2026-04-25T17:53:53Z</time></trkpt><trkpt lat="44.24378848049349" lon="9.700255258743942"><ele>145.33333333333331</ele><time>2026-04-25T17:53:54Z</time></trkpt><trkpt lat="44.243871294463766" lon="9.700458500035156"><ele>146.0</ele><time>2026-04-25T17:53:55Z</time></trkpt><trkpt lat="44.243964418404566" lon="9.700659435465505"><ele>146.0</ele><time>2026-04-25T17:53:56Z</time></trkpt><trkpt lat="44.24407346017602" lon="9.700854109964224"><ele>146.0</ele><time>2026-04-25T17:53:57Z</time></trkpt><trkpt lat="44.244192479392424" lon="9.701035393044448"><ele>146.0</ele><time>2026-04-25T17:53:58Z</time></trkpt><trkpt lat="44.24433117494975" lon="9.701202962978327"><ele>140.33333333333331</ele><time>2026-04-25T17:53:59Z</time></trkpt><trkpt lat="44.24447026846784" lon="9.701396274871364"><ele>134.66666666666666</ele><time>2026-04-25T17:54:00Z</time></trkpt><trkpt lat="44.244629309014925" lon="9.70156790958388"><ele>129.0</ele><time>2026-04-25T17:54:01Z</time></trkpt><trkpt lat="44.244728164415136" lon="9.70170463322417"><ele>133.33333333333334</ele><time>2026-04-25T17:54:02Z</time></trkpt><trkpt lat="44.24484607775063" lon="9.701873374636149"><ele>137.66666666666669</ele><time>2026-04-25T17:54:03Z</time></trkpt><trkpt lat="44.24495761658647" lon="9.702038528598267"><ele>142.0</ele><time>2026-04-25T17:54:04Z</time></trkpt><trkpt lat="44.24505803054514" lon="9.702229721726132"><ele>142.0</ele><time>2026-04-25T17:54:05Z</time></trkpt><trkpt lat="44.24511768251881" lon="9.702455593530633"><ele>142.0</ele><time>2026-04-25T17:54:06Z</time></trkpt><trkpt lat="44.2451797970767" lon="9.702677346605693"><ele>142.0</ele><time>2026-04-25T17:54:07Z</time></trkpt><trkpt lat="44.245228491480646" lon="9.702907955099652"><ele>143.0</ele><time>2026-04-25T17:54:08Z</time></trkpt><trkpt lat="44.24525809732628" lon="9.703145649811056"><ele>144.0</ele><time>2026-04-25T17:54:09Z</time></trkpt><trkpt lat="44.245265922425766" lon="9.703392676426404"><ele>145.0</ele><time>2026-04-25T17:54:10Z</time></trkpt><trkpt lat="44.24525527383251" lon="9.703632828560375"><ele>145.0</ele><time>2026-04-25T17:54:11Z</time></trkpt><trkpt lat="44.24522603563912" lon="9.70387451234582"><ele>145.0</ele><time>2026-04-25T17:54:12Z</time></trkpt><trkpt lat="44.24516954903822" lon="9.704104713395184"><ele>145.0</ele><time>2026-04-25T17:54:13Z</time></trkpt><trkpt lat="44.245105919534254" lon="9.704324279964366"><ele>155.0</ele><time>2026-04-25T17:54:14Z</time></trkpt><trkpt lat="44.245028927965095" lon="9.704520398969159"><ele>165.0</ele><time>2026-04-25T17:54:15Z</time></trkpt><trkpt lat="44.24494181785012" lon="9.704695371348791"><ele>175.0</ele><time>2026-04-25T17:54:16Z</time></trkpt><trkpt lat="44.244832151393304" lon="9.704866849227287"><ele>172.75</ele><time>2026-04-25T17:54:17Z</time></trkpt><trkpt lat="44.24471757460977" lon="9.705015385009668"><ele>170.5</ele><time>2026-04-25T17:54:18Z</time></trkpt><trkpt lat="44.24460604039448" lon="9.705140758044037"><ele>168.25</ele><time>2026-04-25T17:54:18.999Z</time></trkpt><trkpt lat="44.2444899243607" lon="9.705252963258294"><ele>166.0</ele><time>2026-04-25T17:54:19.999Z</time></trkpt><trkpt lat="44.244384185711176" lon="9.705335007651907"><ele>166.0</ele><time>2026-04-25T17:54:20.999Z</time></trkpt><trkpt lat="44.244191856157116" lon="9.705470458431561"><ele>166.0</ele><time>2026-04-25T17:54:21.999Z</time></trkpt><trkpt lat="44.24403860092225" lon="9.705578617571776"><ele>166.0</ele><time>2026-04-25T17:54:23.053Z</time></trkpt><trkpt lat="44.24390047167427" lon="9.705679565689962"><ele>156.66666666666669</ele><time>2026-04-25T17:54:24.053Z</time></trkpt><trkpt lat="44.24376163473072" lon="9.705781031062353"><ele>147.33333333333334</ele><time>2026-04-25T17:54:25.055Z</time></trkpt><trkpt lat="44.243623597975244" lon="9.70588191185046"><ele>138.0</ele><time>2026-04-25T17:54:26.055Z</time></trkpt><trkpt lat="44.24348522848605" lon="9.705983035770885"><ele>134.0</ele><time>2026-04-25T17:54:27.054Z</time></trkpt><trkpt lat="44.2430329834449" lon="9.706366577910215"><ele>134.0</ele><time>2026-04-25T17:54:28.999Z</time></trkpt><trkpt lat="44.24288183365103" lon="9.706476868644323"><ele>134.0</ele><time>2026-04-25T17:54:29.999Z</time></trkpt><trkpt lat="44.242711258369205" lon="9.70656835493223"><ele>134.0</ele><time>2026-04-25T17:54:30.999Z</time></trkpt><trkpt lat="44.24255492372407" lon="9.706676857588532"><ele>134.0</ele><time>2026-04-25T17:54:31.999Z</time></trkpt><trkpt lat="44.24239173967267" lon="9.706795600861678"><ele>134.0</ele><time>2026-04-25T17:54:32.999Z</time></trkpt><trkpt lat="44.2422298696997" lon="9.706910071159443"><ele>134.0</ele><time>2026-04-25T17:54:33.999Z</time></trkpt><trkpt lat="44.242067448762654" lon="9.707023131876532"><ele>136.0</ele><time>2026-04-25T17:54:34.999Z</time></trkpt><trkpt lat="44.24192484203286" lon="9.707128419939231"><ele>138.0</ele><time>2026-04-25T17:54:35.999Z</time></trkpt><trkpt lat="44.24178207317402" lon="9.707226944451019"><ele>140.0</ele><time>2026-04-25T17:54:36.999Z</time></trkpt><trkpt lat="44.24163917509342" lon="9.707333220322454"><ele>140.0</ele><time>2026-04-25T17:54:37.999Z</time></trkpt><trkpt lat="44.24149393270212" lon="9.707440392540024"><ele>140.0</ele><time>2026-04-25T17:54:38.999Z</time></trkpt><trkpt lat="44.24134194728649" lon="9.707558880562804"><ele>140.0</ele><time>2026-04-25T17:54:39.999Z</time></trkpt><trkpt lat="44.241192748011706" lon="9.70768078640027"><ele>141.0</ele><time>2026-04-25T17:54:40.999Z</time></trkpt><trkpt lat="44.24104627618765" lon="9.707803665559581"><ele>142.0</ele><time>2026-04-25T17:54:41.999Z</time></trkpt><trkpt lat="44.24090369123851" lon="9.707920269546603"><ele>143.0</ele><time>2026-04-25T17:54:42.999Z</time></trkpt><trkpt lat="44.24076644614821" lon="9.708034745049712"><ele>143.0</ele><time>2026-04-25T17:54:43.999Z</time></trkpt><trkpt lat="44.240636514077266" lon="9.708167616320242"><ele>143.0</ele><time>2026-04-25T17:54:44.999Z</time></trkpt><trkpt lat="44.2405129925681" lon="9.708329658512156"><ele>143.0</ele><time>2026-04-25T17:54:45.999Z</time></trkpt><trkpt lat="44.24040150949788" lon="9.708516254750247"><ele>139.0</ele><time>2026-04-25T17:54:46.999Z</time></trkpt><trkpt lat="44.24029279837424" lon="9.708728472592462"><ele>135.0</ele><time>2026-04-25T17:54:47.999Z</time></trkpt><trkpt lat="44.2402043625427" lon="9.70894509168184"><ele>131.0</ele><time>2026-04-25T17:54:48.999Z</time></trkpt><trkpt lat="44.24012197929189" lon="9.709153651078587"><ele>131.0</ele><time>2026-04-25T17:54:49.999Z</time></trkpt><trkpt lat="44.24000346916779" lon="9.709333886794404"><ele>131.0</ele><time>2026-04-25T17:54:50.999Z</time></trkpt><trkpt lat="44.23986912169103" lon="9.709514463862988"><ele>131.0</ele><time>2026-04-25T17:54:51.999Z</time></trkpt><trkpt lat="44.239733394974614" lon="9.709707304558252"><ele>127.66666666666666</ele><time>2026-04-25T17:54:52.999Z</time></trkpt><trkpt lat="44.23958145153668" lon="9.709877577008497"><ele>124.33333333333334</ele><time>2026-04-25T17:54:53.999Z</time></trkpt><trkpt lat="44.239439016734984" lon="9.710044577479879"><ele>121.0</ele><time>2026-04-25T17:54:54.999Z</time></trkpt><trkpt lat="44.239303918370894" lon="9.710202128062182"><ele>120.33333333333334</ele><time>2026-04-25T17:54:55.999Z</time></trkpt><trkpt lat="44.23917424609016" lon="9.710357809059092"><ele>119.66666666666666</ele><time>2026-04-25T17:54:56.999Z</time></trkpt><trkpt lat="44.23905014638664" lon="9.710509022758943"><ele>119.0</ele><time>2026-04-25T17:54:57.999Z</time></trkpt><trkpt lat="44.23893412745951" lon="9.710658606817939"><ele>119.0</ele><time>2026-04-25T17:54:58.999Z</time></trkpt><trkpt lat="44.23881614733401" lon="9.710802527547807"><ele>119.0</ele><time>2026-04-25T17:54:59.999Z</time></trkpt><trkpt lat="44.23869084469457" lon="9.710950910935079"><ele>119.0</ele><time>2026-04-25T17:55:00.999Z</time></trkpt><trkpt lat="44.23856389525552" lon="9.711099746949465"><ele>129.0</ele><time>2026-04-25T17:55:01.999Z</time></trkpt><trkpt lat="44.23843852283167" lon="9.711235050602873"><ele>139.0</ele><time>2026-04-25T17:55:02.999Z</time></trkpt><trkpt lat="44.23830824880688" lon="9.711342081934257"><ele>149.0</ele><time>2026-04-25T17:55:03.999Z</time></trkpt><trkpt lat="44.23816098855798" lon="9.711389108598736"><ele>142.0</ele><time>2026-04-25T17:55:04.999Z</time></trkpt><trkpt lat="44.238003105561866" lon="9.711441322036446"><ele>135.0</ele><time>2026-04-25T17:55:05.999Z</time></trkpt><trkpt lat="44.2378349760515" lon="9.711445733266485"><ele>128.0</ele><time>2026-04-25T17:55:06.999Z</time></trkpt><trkpt lat="44.23768427987236" lon="9.711453212513607"><ele>128.0</ele><time>2026-04-25T17:55:07.999Z</time></trkpt><trkpt lat="44.23754379523675" lon="9.711481197545769"><ele>128.0</ele><time>2026-04-25T17:55:08.999Z</time></trkpt><trkpt lat="44.23741759864509" lon="9.71153373894328"><ele>128.0</ele><time>2026-04-25T17:55:09.999Z</time></trkpt><trkpt lat="44.23728875749311" lon="9.711627612652387"><ele>128.0</ele><time>2026-04-25T17:55:10.999Z</time></trkpt><trkpt lat="44.237157832987386" lon="9.711778028900998"><ele>130.0</ele><time>2026-04-25T17:55:11.999Z</time></trkpt><trkpt lat="44.237014722526176" lon="9.711957356494358"><ele>132.0</ele><time>2026-04-25T17:55:12.999Z</time></trkpt><trkpt lat="44.23686427386474" lon="9.712145638353125"><ele>134.0</ele><time>2026-04-25T17:55:13.999Z</time></trkpt><trkpt lat="44.236720390396364" lon="9.712308368525159"><ele>134.0</ele><time>2026-04-25T17:55:14.999Z</time></trkpt><trkpt lat="44.236564332807994" lon="9.712425674452767"><ele>134.0</ele><time>2026-04-25T17:55:15.999Z</time></trkpt><trkpt lat="44.23639991964236" lon="9.712542836623948"><ele>134.0</ele><time>2026-04-25T17:55:16.999Z</time></trkpt><trkpt lat="44.23623600472995" lon="9.712670321185412"><ele>131.66666666666666</ele><time>2026-04-25T17:55:17.999Z</time></trkpt><trkpt lat="44.23607193791854" lon="9.712773686224192"><ele>129.33333333333334</ele><time>2026-04-25T17:55:18.999Z</time></trkpt><trkpt lat="44.2359285738361" lon="9.712874250591312"><ele>127.0</ele><time>2026-04-25T17:55:19.999Z</time></trkpt><trkpt lat="44.23577611107466" lon="9.712968000331863"><ele>123.5</ele><time>2026-04-25T17:55:20.999Z</time></trkpt><trkpt lat="44.23562995923321" lon="9.713068298338548"><ele>120.0</ele><time>2026-04-25T17:55:21.999Z</time></trkpt><trkpt lat="44.23550495831699" lon="9.713167994124744"><ele>116.5</ele><time>2026-04-25T17:55:23Z</time></trkpt><trkpt lat="44.23539674285195" lon="9.713286154637816"><ele>113.0</ele><time>2026-04-25T17:55:24Z</time></trkpt><trkpt lat="44.23530992819465" lon="9.713425334428507"><ele>115.33333333333333</ele><time>2026-04-25T17:55:25Z</time></trkpt><trkpt lat="44.235233369523165" lon="9.713613088368795"><ele>117.66666666666666</ele><time>2026-04-25T17:55:26Z</time></trkpt><trkpt lat="44.23515717899491" lon="9.713829969906735"><ele>120.0</ele><time>2026-04-25T17:55:27Z</time></trkpt><trkpt lat="44.235081358355565" lon="9.714079463687991"><ele>120.0</ele><time>2026-04-25T17:55:28Z</time></trkpt><trkpt lat="44.2349818835408" lon="9.71429874732332"><ele>120.0</ele><time>2026-04-25T17:55:29Z</time></trkpt><trkpt lat="44.23490167137533" lon="9.714513341848953"><ele>120.0</ele><time>2026-04-25T17:55:30Z</time></trkpt><trkpt lat="44.23484225274985" lon="9.71473088054663"><ele>119.0</ele><time>2026-04-25T17:55:31Z</time></trkpt><trkpt lat="44.23476770635892" lon="9.71492908185399"><ele>118.0</ele><time>2026-04-25T17:55:32Z</time></trkpt><trkpt lat="44.234692233359056" lon="9.715109035726394"><ele>117.0</ele><time>2026-04-25T17:55:33Z</time></trkpt><trkpt lat="44.23460785515646" lon="9.715261463318194"><ele>116.0</ele><time>2026-04-25T17:55:34Z</time></trkpt><trkpt lat="44.234510340178545" lon="9.715395295129278"><ele>115.33333333333333</ele><time>2026-04-25T17:55:35Z</time></trkpt><trkpt lat="44.23438515799345" lon="9.715502315898794"><ele>114.66666666666666</ele><time>2026-04-25T17:55:36Z</time></trkpt><trkpt lat="44.23424238701323" lon="9.715599010335382"><ele>114.0</ele><time>2026-04-25T17:55:37Z</time></trkpt><trkpt lat="44.234096702532966" lon="9.715704693292622"><ele>113.0</ele><time>2026-04-25T17:55:38Z</time></trkpt><trkpt lat="44.233966336342995" lon="9.715807050818947"><ele>112.0</ele><time>2026-04-25T17:55:39Z</time></trkpt><trkpt lat="44.233847014409996" lon="9.715888224409229"><ele>111.0</ele><time>2026-04-25T17:55:40Z</time></trkpt><trkpt lat="44.23372891609976" lon="9.715979189059524"><ele>110.0</ele><time>2026-04-25T17:55:41Z</time></trkpt><trkpt lat="44.23361077145691" lon="9.716031559332157"><ele>110.0</ele><time>2026-04-25T17:55:42Z</time></trkpt><trkpt lat="44.23346410660597" lon="9.715968218296089"><ele>110.0</ele><time>2026-04-25T17:55:43Z</time></trkpt><trkpt lat="44.233328195817634" lon="9.715954357396882"><ele>110.0</ele><time>2026-04-25T17:55:44Z</time></trkpt><trkpt lat="44.23318188925463" lon="9.71594219054211"><ele>110.0</ele><time>2026-04-25T17:55:45Z</time></trkpt><trkpt lat="44.233028767525056" lon="9.715938656615036"><ele>109.33333333333333</ele><time>2026-04-25T17:55:46Z</time></trkpt><trkpt lat="44.23286643267127" lon="9.715930148272662"><ele>108.66666666666666</ele><time>2026-04-25T17:55:47Z</time></trkpt><trkpt lat="44.232706206512894" lon="9.715913032877268"><ele>108.0</ele><time>2026-04-25T17:55:48Z</time></trkpt><trkpt lat="44.23254970619241" lon="9.715891104472096"><ele>108.0</ele><time>2026-04-25T17:55:49Z</time></trkpt><trkpt lat="44.23239372994652" lon="9.715846545903933"><ele>108.0</ele><time>2026-04-25T17:55:50Z</time></trkpt><trkpt lat="44.232232028767086" lon="9.715789598531629"><ele>108.0</ele><time>2026-04-25T17:55:51Z</time></trkpt><trkpt lat="44.23206823969212" lon="9.715735097747146"><ele>106.33333333333334</ele><time>2026-04-25T17:55:52Z</time></trkpt><trkpt lat="44.23190189639946" lon="9.715681950295933"><ele>104.66666666666667</ele><time>2026-04-25T17:55:53Z</time></trkpt><trkpt lat="44.231727683188964" lon="9.715628464401776"><ele>103.0</ele><time>2026-04-25T17:55:54Z</time></trkpt><trkpt lat="44.23155604616716" lon="9.715572538715517"><ele>106.0</ele><time>2026-04-25T17:55:55Z</time></trkpt><trkpt lat="44.2313944357403" lon="9.715523400997512"><ele>109.0</ele><time>2026-04-25T17:55:56Z</time></trkpt><trkpt lat="44.23123986432026" lon="9.715479256496565"><ele>112.0</ele><time>2026-04-25T17:55:57Z</time></trkpt><trkpt lat="44.2310929550775" lon="9.715440877663838"><ele>112.0</ele><time>2026-04-25T17:55:58Z</time></trkpt><trkpt lat="44.230949196171245" lon="9.715424100423594"><ele>112.0</ele><time>2026-04-25T17:55:59Z</time></trkpt><trkpt lat="44.23080384090023" lon="9.715453764132597"><ele>112.0</ele><time>2026-04-25T17:56:00Z</time></trkpt><trkpt lat="44.23065617381426" lon="9.715520318054102"><ele>112.0</ele><time>2026-04-25T17:56:01Z</time></trkpt><trkpt lat="44.23050559878334" lon="9.71561951221821"><ele>114.66666666666667</ele><time>2026-04-25T17:56:02Z</time></trkpt><trkpt lat="44.230358053329624" lon="9.715751802900956"><ele>117.33333333333334</ele><time>2026-04-25T17:56:03Z</time></trkpt><trkpt lat="44.2302098118544" lon="9.715909713689022"><ele>120.0</ele><time>2026-04-25T17:56:04Z</time></trkpt><trkpt lat="44.230065680274556" lon="9.716037756396437"><ele>118.66666666666666</ele><time>2026-04-25T17:56:05Z</time></trkpt><trkpt lat="44.22992353865662" lon="9.71614776964786"><ele>117.33333333333333</ele><time>2026-04-25T17:56:06Z</time></trkpt><trkpt lat="44.229785028411335" lon="9.716241465919556"><ele>116.0</ele><time>2026-04-25T17:56:07Z</time></trkpt><trkpt lat="44.22965503471104" lon="9.716329697599011"><ele>116.0</ele><time>2026-04-25T17:56:08Z</time></trkpt><trkpt lat="44.22952817216965" lon="9.716415180726274"><ele>116.0</ele><time>2026-04-25T17:56:09Z</time></trkpt><trkpt lat="44.229410213904416" lon="9.716495489953099"><ele>116.0</ele><time>2026-04-25T17:56:10Z</time></trkpt><trkpt lat="44.22929913826658" lon="9.71657383122317"><ele>116.0</ele><time>2026-04-25T17:56:11Z</time></trkpt><trkpt lat="44.229191898948024" lon="9.716652806564962"><ele>116.0</ele><time>2026-04-25T17:56:12Z</time></trkpt><trkpt lat="44.22908745147048" lon="9.716721507156517"><ele>116.0</ele><time>2026-04-25T17:56:13Z</time></trkpt><trkpt lat="44.22898875493835" lon="9.716788554851435"><ele>116.0</ele><time>2026-04-25T17:56:14Z</time></trkpt><trkpt lat="44.22889398051525" lon="9.716855525939014"><ele>116.0</ele><time>2026-04-25T17:56:15Z</time></trkpt><trkpt lat="44.22879718168408" lon="9.716918133377062"><ele>116.0</ele><time>2026-04-25T17:56:16Z</time></trkpt><trkpt lat="44.228699858867216" lon="9.716985123165127"><ele>116.0</ele><time>2026-04-25T17:56:17Z</time></trkpt><trkpt lat="44.22859631464218" lon="9.71705952335743"><ele>116.0</ele><time>2026-04-25T17:56:17.999Z</time></trkpt><trkpt lat="44.22848682672771" lon="9.717135796155583"><ele>116.0</ele><time>2026-04-25T17:56:18.999Z</time></trkpt><trkpt lat="44.22837081488275" lon="9.717219761214944"><ele>116.0</ele><time>2026-04-25T17:56:19.999Z</time></trkpt><trkpt lat="44.22824711607245" lon="9.717304355802202"><ele>117.5</ele><time>2026-04-25T17:56:20.999Z</time></trkpt><trkpt lat="44.22811808560876" lon="9.717390084054474"><ele>119.0</ele><time>2026-04-25T17:56:21.999Z</time></trkpt><trkpt lat="44.22799285538128" lon="9.717479138068327"><ele>120.5</ele><time>2026-04-25T17:56:22.999Z</time></trkpt><trkpt lat="44.22786427308898" lon="9.717575310514205"><ele>122.0</ele><time>2026-04-25T17:56:23.999Z</time></trkpt><trkpt lat="44.227738911252835" lon="9.717682673800985"><ele>121.25</ele><time>2026-04-25T17:56:24.999Z</time></trkpt><trkpt lat="44.22762896756873" lon="9.717802566732955"><ele>120.5</ele><time>2026-04-25T17:56:25.999Z</time></trkpt><trkpt lat="44.227527826823206" lon="9.717926466338502"><ele>119.75</ele><time>2026-04-25T17:56:26.999Z</time></trkpt><trkpt lat="44.22742888122968" lon="9.718062505513018"><ele>119.0</ele><time>2026-04-25T17:56:27.999Z</time></trkpt><trkpt lat="44.227332756846494" lon="9.718215837060518"><ele>119.66666666666666</ele><time>2026-04-25T17:56:28.999Z</time></trkpt><trkpt lat="44.22723916737694" lon="9.718384728619833"><ele>120.33333333333334</ele><time>2026-04-25T17:56:29.999Z</time></trkpt><trkpt lat="44.22714148004521" lon="9.718559505897776"><ele>121.0</ele><time>2026-04-25T17:56:30.999Z</time></trkpt><trkpt lat="44.22703245394671" lon="9.718742330105442"><ele>119.0</ele><time>2026-04-25T17:56:31.999Z</time></trkpt><trkpt lat="44.22692071538605" lon="9.718931274655235"><ele>117.0</ele><time>2026-04-25T17:56:32.999Z</time></trkpt><trkpt lat="44.22680620619391" lon="9.719110357549448"><ele>115.0</ele><time>2026-04-25T17:56:33.999Z</time></trkpt><trkpt lat="44.22668400443468" lon="9.719282927918828"><ele>114.66666666666667</ele><time>2026-04-25T17:56:34.999Z</time></trkpt><trkpt lat="44.226551015401746" lon="9.719448976245841"><ele>114.33333333333334</ele><time>2026-04-25T17:56:35.999Z</time></trkpt><trkpt lat="44.22640797787052" lon="9.71960406134412"><ele>114.0</ele><time>2026-04-25T17:56:36.999Z</time></trkpt><trkpt lat="44.22626744684432" lon="9.71974234912154"><ele>114.0</ele><time>2026-04-25T17:56:37.999Z</time></trkpt><trkpt lat="44.2261285323155" lon="9.719873715488037"><ele>114.0</ele><time>2026-04-25T17:56:38.999Z</time></trkpt><trkpt lat="44.225996124091324" lon="9.719994901899026"><ele>114.0</ele><time>2026-04-25T17:56:39.999Z</time></trkpt><trkpt lat="44.225869791658134" lon="9.72011496692838"><ele>114.0</ele><time>2026-04-25T17:56:40.999Z</time></trkpt><trkpt lat="44.225748380800695" lon="9.720233293859316"><ele>114.0</ele><time>2026-04-25T17:56:41.999Z</time></trkpt><trkpt lat="44.2256311719559" lon="9.720346833241328"><ele>114.0</ele><time>2026-04-25T17:56:42.999Z</time></trkpt><trkpt lat="44.225518414258445" lon="9.720455120734924"><ele>114.0</ele><time>2026-04-25T17:56:43.999Z</time></trkpt><trkpt lat="44.22540755957393" lon="9.72055876170856"><ele>114.0</ele><time>2026-04-25T17:56:44.999Z</time></trkpt><trkpt lat="44.22529980036144" lon="9.72066081478904"><ele>114.0</ele><time>2026-04-25T17:56:45.999Z</time></trkpt><trkpt lat="44.225184686318" lon="9.720760481418086"><ele>114.0</ele><time>2026-04-25T17:56:46.999Z</time></trkpt><trkpt lat="44.22505902477108" lon="9.720856039938031"><ele>114.0</ele><time>2026-04-25T17:56:47.999Z</time></trkpt><trkpt lat="44.224931583995215" lon="9.720949056102029"><ele>114.0</ele><time>2026-04-25T17:56:48.999Z</time></trkpt><trkpt lat="44.2248160736053" lon="9.721038293633946"><ele>114.0</ele><time>2026-04-25T17:56:49.999Z</time></trkpt><trkpt lat="44.22470896746858" lon="9.721123436250329"><ele>114.0</ele><time>2026-04-25T17:56:50.999Z</time></trkpt><trkpt lat="44.224612975482536" lon="9.721200732453715"><ele>114.0</ele><time>2026-04-25T17:56:51.999Z</time></trkpt><trkpt lat="44.22451964024195" lon="9.721259630566882"><ele>111.6</ele><time>2026-04-25T17:56:52.999Z</time></trkpt><trkpt lat="44.224422688851696" lon="9.721290574759822"><ele>109.2</ele><time>2026-04-25T17:56:53.999Z</time></trkpt><trkpt lat="44.22432571928439" lon="9.721282257593543"><ele>106.8</ele><time>2026-04-25T17:56:54.999Z</time></trkpt><trkpt lat="44.22423438736607" lon="9.721242836598428"><ele>104.39999999999999</ele><time>2026-04-25T17:56:55.999Z</time></trkpt><trkpt lat="44.224142532880975" lon="9.721185966941132"><ele>102.0</ele><time>2026-04-25T17:56:56.999Z</time></trkpt><trkpt lat="44.22405859390103" lon="9.721113914567558"><ele>102.16666666666667</ele><time>2026-04-25T17:56:57.999Z</time></trkpt><trkpt lat="44.223987929546134" lon="9.721035993914615"><ele>102.33333333333334</ele><time>2026-04-25T17:56:58.999Z</time></trkpt><trkpt lat="44.22392704120053" lon="9.7209547442704"><ele>102.5</ele><time>2026-04-25T17:56:59.999Z</time></trkpt><trkpt lat="44.22387525436329" lon="9.720864947726827"><ele>102.66666666666667</ele><time>2026-04-25T17:57:00.999Z</time></trkpt><trkpt lat="44.223820736279734" lon="9.72076789583826"><ele>102.83333333333334</ele><time>2026-04-25T17:57:01.999Z</time></trkpt><trkpt lat="44.22377284666238" lon="9.720660075467705"><ele>103.0</ele><time>2026-04-25T17:57:02.999Z</time></trkpt><trkpt lat="44.22373502301168" lon="9.720550519374248"><ele>103.00000000000001</ele><time>2026-04-25T17:57:03.999Z</time></trkpt><trkpt lat="44.223704510899715" lon="9.720440551538918"><ele>103.0</ele><time>2026-04-25T17:57:04.999Z</time></trkpt><trkpt lat="44.223672698900565" lon="9.720331496052106"><ele>103.0</ele><time>2026-04-25T17:57:05.999Z</time></trkpt><trkpt lat="44.22363793209536" lon="9.720229751273067"><ele>103.0</ele><time>2026-04-25T17:57:06.999Z</time></trkpt><trkpt lat="44.22358899837035" lon="9.720148135738027"><ele>103.00000000000001</ele><time>2026-04-25T17:57:07.999Z</time></trkpt><trkpt lat="44.223524217096994" lon="9.720098743825599"><ele>103.0</ele><time>2026-04-25T17:57:08.999Z</time></trkpt><trkpt lat="44.223453182658005" lon="9.720076632397387"><ele>102.85714285714285</ele><time>2026-04-25T17:57:09.999Z</time></trkpt><trkpt lat="44.2233849796766" lon="9.720085184665294"><ele>102.71428571428571</ele><time>2026-04-25T17:57:10.999Z</time></trkpt><trkpt lat="44.22331258748198" lon="9.720120954028081"><ele>102.57142857142857</ele><time>2026-04-25T17:57:11.999Z</time></trkpt><trkpt lat="44.22325191580937" lon="9.720160973245004"><ele>102.42857142857142</ele><time>2026-04-25T17:57:12.999Z</time></trkpt><trkpt lat="44.22316853911133" lon="9.720210630758801"><ele>102.28571428571429</ele><time>2026-04-25T17:57:14.999Z</time></trkpt><trkpt lat="44.223104860236376" lon="9.720201657511858"><ele>102.14285714285714</ele><time>2026-04-25T17:57:16.999Z</time></trkpt><trkpt lat="44.223122411635664" lon="9.720090768853568"><ele>102.0</ele><time>2026-04-25T17:57:18.999Z</time></trkpt><trkpt lat="44.22289220850554" lon="9.72243928095112"><ele>103.75</ele><time>2026-04-25T18:04:38Z</time></trkpt><trkpt lat="44.2229211154073" lon="9.722608518367156"><ele>105.5</ele><time>2026-04-25T18:04:39Z</time></trkpt><trkpt lat="44.22294748987845" lon="9.722779660942555"><ele>107.25</ele><time>2026-04-25T18:04:40Z</time></trkpt><trkpt lat="44.22297355222524" lon="9.722952039581353"><ele>109.0</ele><time>2026-04-25T18:04:41Z</time></trkpt><trkpt lat="44.22300009812711" lon="9.723125587958288"><ele>109.0</ele><time>2026-04-25T18:04:42Z</time></trkpt><trkpt lat="44.22302833735097" lon="9.723309180868362"><ele>109.0</ele><time>2026-04-25T18:04:43Z</time></trkpt><trkpt lat="44.22304602700532" lon="9.723509812685583"><ele>109.0</ele><time>2026-04-25T18:04:44Z</time></trkpt><trkpt lat="44.223045234809035" lon="9.723719472025621"><ele>109.0</ele><time>2026-04-25T18:04:45Z</time></trkpt><trkpt lat="44.223022875899154" lon="9.723928260399926"><ele>109.0</ele><time>2026-04-25T18:04:45.999Z</time></trkpt><trkpt lat="44.22301651953015" lon="9.724123821922925"><ele>109.0</ele><time>2026-04-25T18:04:46.999Z</time></trkpt><trkpt lat="44.22300991708643" lon="9.724307013734835"><ele>109.0</ele><time>2026-04-25T18:04:47.999Z</time></trkpt><trkpt lat="44.22300821792918" lon="9.724471973688692"><ele>109.0</ele><time>2026-04-25T18:04:48.999Z</time></trkpt><trkpt lat="44.22296753488278" lon="9.724628624231627"><ele>108.5</ele><time>2026-04-25T18:04:49.999Z</time></trkpt><trkpt lat="44.22290718297855" lon="9.724778889123392"><ele>108.0</ele><time>2026-04-25T18:04:50.999Z</time></trkpt><trkpt lat="44.222821270388835" lon="9.724921588140118"><ele>107.5</ele><time>2026-04-25T18:04:51.999Z</time></trkpt><trkpt lat="44.22273029775983" lon="9.725066335903051"><ele>107.0</ele><time>2026-04-25T18:04:52.999Z</time></trkpt><trkpt lat="44.22265077583796" lon="9.725201790618732"><ele>107.6</ele><time>2026-04-25T18:04:53.999Z</time></trkpt><trkpt lat="44.222574186946055" lon="9.725329505998635"><ele>108.19999999999999</ele><time>2026-04-25T18:04:54.999Z</time></trkpt><trkpt lat="44.222504916947194" lon="9.725450922106669"><ele>108.8</ele><time>2026-04-25T18:04:55.999Z</time></trkpt><trkpt lat="44.222426806984934" lon="9.725558672574175"><ele>109.4</ele><time>2026-04-25T18:04:56.999Z</time></trkpt><trkpt lat="44.22236350913704" lon="9.725664419565952"><ele>110.0</ele><time>2026-04-25T18:04:57.999Z</time></trkpt><trkpt lat="44.22230088814497" lon="9.725768968372268"><ele>110.0</ele><time>2026-04-25T18:04:58.999Z</time></trkpt><trkpt lat="44.22223116948859" lon="9.72588536704505"><ele>110.0</ele><time>2026-04-25T18:04:59.999Z</time></trkpt><trkpt lat="44.2221530873041" lon="9.726015729149285"><ele>110.0</ele><time>2026-04-25T18:05:00.999Z</time></trkpt><trkpt lat="44.222063946503084" lon="9.726164554187093"><ele>110.0</ele><time>2026-04-25T18:05:01.999Z</time></trkpt><trkpt lat="44.22196803953353" lon="9.72632376431129"><ele>108.75</ele><time>2026-04-25T18:05:02.999Z</time></trkpt><trkpt lat="44.22188808810309" lon="9.726491603003883"><ele>107.5</ele><time>2026-04-25T18:05:03.999Z</time></trkpt><trkpt lat="44.22178727014678" lon="9.726644197205296"><ele>106.25</ele><time>2026-04-25T18:05:04.999Z</time></trkpt><trkpt lat="44.22169371519109" lon="9.726801185944142"><ele>105.0</ele><time>2026-04-25T18:05:05.999Z</time></trkpt><trkpt lat="44.221596237027725" lon="9.726964420794662"><ele>105.66666666666666</ele><time>2026-04-25T18:05:06.999Z</time></trkpt><trkpt lat="44.22149859534366" lon="9.727130005577324"><ele>106.33333333333333</ele><time>2026-04-25T18:05:07.999Z</time></trkpt><trkpt lat="44.22139810757534" lon="9.727293102291716"><ele>107.0</ele><time>2026-04-25T18:05:08.999Z</time></trkpt><trkpt lat="44.221300786154536" lon="9.727466680009622"><ele>107.0</ele><time>2026-04-25T18:05:09.999Z</time></trkpt><trkpt lat="44.221198768147076" lon="9.72763785341154"><ele>107.0</ele><time>2026-04-25T18:05:10.999Z</time></trkpt><trkpt lat="44.22108625905546" lon="9.727819700636482"><ele>107.0</ele><time>2026-04-25T18:05:11.999Z</time></trkpt><trkpt lat="44.220966411405804" lon="9.728024346594339"><ele>106.66666666666666</ele><time>2026-04-25T18:05:12.999Z</time></trkpt><trkpt lat="44.22083326915957" lon="9.728251724899888"><ele>106.33333333333334</ele><time>2026-04-25T18:05:13.999Z</time></trkpt><trkpt lat="44.22070289662206" lon="9.728471212298018"><ele>106.0</ele><time>2026-04-25T18:05:14.999Z</time></trkpt><trkpt lat="44.22057258486553" lon="9.72868676916411"><ele>107.66666666666667</ele><time>2026-04-25T18:05:15.999Z</time></trkpt><trkpt lat="44.22043861905196" lon="9.728889731557388"><ele>109.33333333333334</ele><time>2026-04-25T18:05:16.999Z</time></trkpt><trkpt lat="44.22032290249409" lon="9.729083498176156"><ele>111.0</ele><time>2026-04-25T18:05:17.999Z</time></trkpt><trkpt lat="44.2202250693876" lon="9.729280988359049"><ele>108.66666666666666</ele><time>2026-04-25T18:05:18.999Z</time></trkpt><trkpt lat="44.2201215064672" lon="9.72945456476434"><ele>106.33333333333333</ele><time>2026-04-25T18:05:19.999Z</time></trkpt><trkpt lat="44.22001199885403" lon="9.729635034900701"><ele>104.0</ele><time>2026-04-25T18:05:20.999Z</time></trkpt><trkpt lat="44.21989665357922" lon="9.729818227587597"><ele>109.0</ele><time>2026-04-25T18:05:21.999Z</time></trkpt><trkpt lat="44.21979524041419" lon="9.729995284757555"><ele>114.0</ele><time>2026-04-25T18:05:22.999Z</time></trkpt><trkpt lat="44.219708289655976" lon="9.7301303815534"><ele>119.0</ele><time>2026-04-25T18:05:23.999Z</time></trkpt><trkpt lat="44.219629403421415" lon="9.730289994255848"><ele>124.0</ele><time>2026-04-25T18:05:24.999Z</time></trkpt><trkpt lat="44.21958234854327" lon="9.730455098654451"><ele>124.0</ele><time>2026-04-25T18:05:25.999Z</time></trkpt><trkpt lat="44.21955243382984" lon="9.730649762066513"><ele>124.0</ele><time>2026-04-25T18:05:26.999Z</time></trkpt><trkpt lat="44.219537633665524" lon="9.730883115280948"><ele>124.0</ele><time>2026-04-25T18:05:27.999Z</time></trkpt><trkpt lat="44.219527074929495" lon="9.731117494749208"><ele>125.0</ele><time>2026-04-25T18:05:28.999Z</time></trkpt><trkpt lat="44.21952083443426" lon="9.731360987550858"><ele>126.0</ele><time>2026-04-25T18:05:29.999Z</time></trkpt><trkpt lat="44.2195179000465" lon="9.731619279611031"><ele>127.0</ele><time>2026-04-25T18:05:30.999Z</time></trkpt><trkpt lat="44.21956353430311" lon="9.7318454930517"><ele>128.0</ele><time>2026-04-25T18:05:31.999Z</time></trkpt><trkpt lat="44.21961461875206" lon="9.73210062254487"><ele>129.0</ele><time>2026-04-25T18:05:32.999Z</time></trkpt><trkpt lat="44.21965572650877" lon="9.732377329106003"><ele>130.0</ele><time>2026-04-25T18:05:33.999Z</time></trkpt><trkpt lat="44.219716831687784" lon="9.732628017202016"><ele>132.66666666666669</ele><time>2026-04-25T18:05:34.999Z</time></trkpt><trkpt lat="44.219754291856525" lon="9.732863932982882"><ele>135.33333333333334</ele><time>2026-04-25T18:05:35.999Z</time></trkpt><trkpt lat="44.2197943595753" lon="9.733069318429507"><ele>138.0</ele><time>2026-04-25T18:05:36.999Z</time></trkpt><trkpt lat="44.21983411138745" lon="9.733259564588217"><ele>131.66666666666666</ele><time>2026-04-25T18:05:37.999Z</time></trkpt><trkpt lat="44.2198955985935" lon="9.733435307231172"><ele>125.33333333333333</ele><time>2026-04-25T18:05:38.999Z</time></trkpt><trkpt lat="44.21999701509542" lon="9.733619008582183"><ele>119.0</ele><time>2026-04-25T18:05:39.999Z</time></trkpt><trkpt lat="44.220125218439286" lon="9.733806564483455"><ele>119.0</ele><time>2026-04-25T18:05:40.999Z</time></trkpt><trkpt lat="44.220248787609634" lon="9.734010202464063"><ele>119.0</ele><time>2026-04-25T18:05:41.999Z</time></trkpt><trkpt lat="44.22035194740398" lon="9.734215859396478"><ele>119.0</ele><time>2026-04-25T18:05:42.999Z</time></trkpt><trkpt lat="44.220475661872996" lon="9.73438651103162"><ele>124.66666666666666</ele><time>2026-04-25T18:05:43.999Z</time></trkpt><trkpt lat="44.22058039991194" lon="9.734575541232054"><ele>130.33333333333334</ele><time>2026-04-25T18:05:44.999Z</time></trkpt><trkpt lat="44.22067842545906" lon="9.734770292312836"><ele>136.0</ele><time>2026-04-25T18:05:45.999Z</time></trkpt><trkpt lat="44.22075093460082" lon="9.734982625520683"><ele>127.0</ele><time>2026-04-25T18:05:46.999Z</time></trkpt><trkpt lat="44.22082406293314" lon="9.735200306742383"><ele>118.0</ele><time>2026-04-25T18:05:47.999Z</time></trkpt><trkpt lat="44.22087840818346" lon="9.73542840228971"><ele>109.0</ele><time>2026-04-25T18:05:48.999Z</time></trkpt><trkpt lat="44.22091381321784" lon="9.735656682827633"><ele>109.0</ele><time>2026-04-25T18:05:49.999Z</time></trkpt><trkpt lat="44.220937217484995" lon="9.73585960091372"><ele>109.0</ele><time>2026-04-25T18:05:50.999Z</time></trkpt><trkpt lat="44.220959568707244" lon="9.736051399761077"><ele>109.0</ele><time>2026-04-25T18:05:51.999Z</time></trkpt><trkpt lat="44.22090937799964" lon="9.736242280211538"><ele>109.0</ele><time>2026-04-25T18:05:53Z</time></trkpt><trkpt lat="44.22085296323775" lon="9.73644020053644"><ele>108.66666666666667</ele><time>2026-04-25T18:05:54Z</time></trkpt><trkpt lat="44.22081986503452" lon="9.736662698714467"><ele>108.33333333333334</ele><time>2026-04-25T18:05:55Z</time></trkpt><trkpt lat="44.220808441328174" lon="9.736898331361928"><ele>108.0</ele><time>2026-04-25T18:05:56Z</time></trkpt><trkpt lat="44.220825321261195" lon="9.737166498109085"><ele>108.0</ele><time>2026-04-25T18:05:57Z</time></trkpt><trkpt lat="44.22084091672173" lon="9.737454095663656"><ele>108.0</ele><time>2026-04-25T18:05:58Z</time></trkpt><trkpt lat="44.220857128623244" lon="9.737733369812995"><ele>108.0</ele><time>2026-04-25T18:05:59Z</time></trkpt><trkpt lat="44.22087225706588" lon="9.738013584322488"><ele>108.66666666666666</ele><time>2026-04-25T18:06:00Z</time></trkpt><trkpt lat="44.22088684830913" lon="9.738300457091574"><ele>109.33333333333333</ele><time>2026-04-25T18:06:01Z</time></trkpt><trkpt lat="44.22089708748984" lon="9.738572232548082"><ele>110.0</ele><time>2026-04-25T18:06:02Z</time></trkpt><trkpt lat="44.22090572011859" lon="9.738836926682938"><ele>110.33333333333333</ele><time>2026-04-25T18:06:03Z</time></trkpt><trkpt lat="44.220918454940026" lon="9.739100575616618"><ele>110.66666666666666</ele><time>2026-04-25T18:06:04Z</time></trkpt><trkpt lat="44.22093293347754" lon="9.739364742006844"><ele>111.0</ele><time>2026-04-25T18:06:05Z</time></trkpt><trkpt lat="44.220951638356524" lon="9.73962538185346"><ele>112.0</ele><time>2026-04-25T18:06:06Z</time></trkpt><trkpt lat="44.22098470187191" lon="9.739885144067978"><ele>113.0</ele><time>2026-04-25T18:06:07Z</time></trkpt><trkpt lat="44.22102819591405" lon="9.740131835724483"><ele>114.0</ele><time>2026-04-25T18:06:08Z</time></trkpt><trkpt lat="44.22108568384428" lon="9.740360750682134"><ele>117.0</ele><time>2026-04-25T18:06:09Z</time></trkpt><trkpt lat="44.2211634627043" lon="9.740588820090872"><ele>120.0</ele><time>2026-04-25T18:06:10Z</time></trkpt><trkpt lat="44.22125673643032" lon="9.740796916590334"><ele>123.0</ele><time>2026-04-25T18:06:11Z</time></trkpt><trkpt lat="44.221334584884644" lon="9.741005560558348"><ele>125.66666666666666</ele><time>2026-04-25T18:06:12Z</time></trkpt><trkpt lat="44.22138695687335" lon="9.741228534269732"><ele>128.33333333333331</ele><time>2026-04-25T18:06:13Z</time></trkpt><trkpt lat="44.221427784301426" lon="9.741493498757823"><ele>131.0</ele><time>2026-04-25T18:06:14Z</time></trkpt><trkpt lat="44.221475014779976" lon="9.741761359264446"><ele>121.0</ele><time>2026-04-25T18:06:15Z</time></trkpt><trkpt lat="44.22152533777142" lon="9.742028131394642"><ele>111.0</ele><time>2026-04-25T18:06:16Z</time></trkpt><trkpt lat="44.22157382568692" lon="9.742282451393681"><ele>101.0</ele><time>2026-04-25T18:06:17Z</time></trkpt><trkpt lat="44.221622761161704" lon="9.742517746172364"><ele>104.0</ele><time>2026-04-25T18:06:18Z</time></trkpt><trkpt lat="44.22167136875309" lon="9.74274735915401"><ele>107.0</ele><time>2026-04-25T18:06:19Z</time></trkpt><trkpt lat="44.2217210290679" lon="9.742981383162071"><ele>110.0</ele><time>2026-04-25T18:06:20Z</time></trkpt><trkpt lat="44.2217720315248" lon="9.743223524449096"><ele>110.0</ele><time>2026-04-25T18:06:21Z</time></trkpt><trkpt lat="44.22181568322106" lon="9.743465183503305"><ele>110.0</ele><time>2026-04-25T18:06:22Z</time></trkpt><trkpt lat="44.221864311502145" lon="9.743714141727683"><ele>110.0</ele><time>2026-04-25T18:06:23Z</time></trkpt><trkpt lat="44.22191279444464" lon="9.743962674997515"><ele>116.66666666666666</ele><time>2026-04-25T18:06:24Z</time></trkpt><trkpt lat="44.22196149619057" lon="9.7441986383388"><ele>123.33333333333334</ele><time>2026-04-25T18:06:25Z</time></trkpt><trkpt lat="44.22201770607408" lon="9.744416405686815"><ele>130.0</ele><time>2026-04-25T18:06:26Z</time></trkpt><trkpt lat="44.22208627284605" lon="9.744611945043294"><ele>135.33333333333334</ele><time>2026-04-25T18:06:27Z</time></trkpt><trkpt lat="44.222171475257745" lon="9.744788736560354"><ele>140.66666666666666</ele><time>2026-04-25T18:06:28Z</time></trkpt><trkpt lat="44.22227930752907" lon="9.744938806586832"><ele>146.0</ele><time>2026-04-25T18:06:29Z</time></trkpt><trkpt lat="44.22240415615085" lon="9.745067766951118"><ele>137.5</ele><time>2026-04-25T18:06:30Z</time></trkpt><trkpt lat="44.222523786029235" lon="9.74519996022332"><ele>129.0</ele><time>2026-04-25T18:06:31Z</time></trkpt><trkpt lat="44.22261721996514" lon="9.745342818075478"><ele>120.5</ele><time>2026-04-25T18:06:32Z</time></trkpt><trkpt lat="44.222679115446454" lon="9.745510542028223"><ele>112.0</ele><time>2026-04-25T18:06:33Z</time></trkpt><trkpt lat="44.22271580263038" lon="9.745701495788683"><ele>112.0</ele><time>2026-04-25T18:06:34Z</time></trkpt><trkpt lat="44.2227171468208" lon="9.745903867029917"><ele>112.0</ele><time>2026-04-25T18:06:35Z</time></trkpt><trkpt lat="44.222670595986514" lon="9.746122847107976"><ele>112.0</ele><time>2026-04-25T18:06:36Z</time></trkpt><trkpt lat="44.22264242330071" lon="9.7463771820506"><ele>112.33333333333334</ele><time>2026-04-25T18:06:37Z</time></trkpt><trkpt lat="44.22259691728818" lon="9.746637453896946"><ele>112.66666666666666</ele><time>2026-04-25T18:06:38Z</time></trkpt><trkpt lat="44.222560300620934" lon="9.746890422870203"><ele>113.0</ele><time>2026-04-25T18:06:39Z</time></trkpt><trkpt lat="44.22252458283389" lon="9.747121516062785"><ele>113.33333333333333</ele><time>2026-04-25T18:06:40Z</time></trkpt><trkpt lat="44.22249888241221" lon="9.747344328270668"><ele>113.66666666666666</ele><time>2026-04-25T18:06:41Z</time></trkpt><trkpt lat="44.222493572066554" lon="9.74756157499353"><ele>114.0</ele><time>2026-04-25T18:06:42Z</time></trkpt><trkpt lat="44.22251146761227" lon="9.747779255976148"><ele>114.0</ele><time>2026-04-25T18:06:43Z</time></trkpt><trkpt lat="44.22255412067788" lon="9.747997998411618"><ele>114.0</ele><time>2026-04-25T18:06:44Z</time></trkpt><trkpt lat="44.22261080604819" lon="9.748229399184103"><ele>114.0</ele><time>2026-04-25T18:06:45Z</time></trkpt><trkpt lat="44.22267594593842" lon="9.748475350728217"><ele>119.33333333333334</ele><time>2026-04-25T18:06:46Z</time></trkpt><trkpt lat="44.22275067749933" lon="9.748731544899034"><ele>124.66666666666667</ele><time>2026-04-25T18:06:46.999Z</time></trkpt><trkpt lat="44.22281917297907" lon="9.748985028474022"><ele>130.0</ele><time>2026-04-25T18:06:47.999Z</time></trkpt><trkpt lat="44.22288399171615" lon="9.749221223448053"><ele>137.0</ele><time>2026-04-25T18:06:48.999Z</time></trkpt><trkpt lat="44.22296153179355" lon="9.749443012553611"><ele>144.0</ele><time>2026-04-25T18:06:49.999Z</time></trkpt><trkpt lat="44.22306285139927" lon="9.749656671368546"><ele>151.0</ele><time>2026-04-25T18:06:50.999Z</time></trkpt><trkpt lat="44.223183344582395" lon="9.749861480466986"><ele>139.33333333333334</ele><time>2026-04-25T18:06:51.999Z</time></trkpt><trkpt lat="44.22329848469465" lon="9.750049999910575"><ele>127.66666666666666</ele><time>2026-04-25T18:06:52.999Z</time></trkpt><trkpt lat="44.223402900404174" lon="9.7502315095257"><ele>116.0</ele><time>2026-04-25T18:06:53.999Z</time></trkpt><trkpt lat="44.22350034146736" lon="9.75039846607054"><ele>116.0</ele><time>2026-04-25T18:06:54.999Z</time></trkpt><trkpt lat="44.22358991830054" lon="9.750554053291067"><ele>116.0</ele><time>2026-04-25T18:06:55.999Z</time></trkpt><trkpt lat="44.22365817453708" lon="9.750703359876944"><ele>116.0</ele><time>2026-04-25T18:06:56.999Z</time></trkpt><trkpt lat="44.22369751879251" lon="9.750854636695523"><ele>116.0</ele><time>2026-04-25T18:06:57.999Z</time></trkpt><trkpt lat="44.223702126501095" lon="9.751020724216682"><ele>113.25</ele><time>2026-04-25T18:06:58.999Z</time></trkpt><trkpt lat="44.22367938992275" lon="9.751198484766803"><ele>110.5</ele><time>2026-04-25T18:06:59.999Z</time></trkpt><trkpt lat="44.223648067076894" lon="9.75136011711142"><ele>107.75</ele><time>2026-04-25T18:07:00.999Z</time></trkpt><trkpt lat="44.22356856565027" lon="9.751474472396318"><ele>105.0</ele><time>2026-04-25T18:07:01.999Z</time></trkpt><trkpt lat="44.223487271353406" lon="9.751615416918458"><ele>105.0</ele><time>2026-04-25T18:07:02.999Z</time></trkpt><trkpt lat="44.22337274317114" lon="9.751760066910325"><ele>105.0</ele><time>2026-04-25T18:07:03.999Z</time></trkpt><trkpt lat="44.22324838464805" lon="9.751941235760361"><ele>105.0</ele><time>2026-04-25T18:07:04.999Z</time></trkpt><trkpt lat="44.22313162533474" lon="9.752129063527754"><ele>112.0</ele><time>2026-04-25T18:07:05.999Z</time></trkpt><trkpt lat="44.223021551676155" lon="9.752317067283043"><ele>119.0</ele><time>2026-04-25T18:07:06.999Z</time></trkpt><trkpt lat="44.22291259462991" lon="9.752502593978141"><ele>126.0</ele><time>2026-04-25T18:07:07.999Z</time></trkpt><trkpt lat="44.222809094514126" lon="9.752684829647405"><ele>119.0</ele><time>2026-04-25T18:07:08.999Z</time></trkpt><trkpt lat="44.22269625876717" lon="9.75284378770839"><ele>112.0</ele><time>2026-04-25T18:07:09.999Z</time></trkpt><trkpt lat="44.222596217945224" lon="9.75301186797256"><ele>105.0</ele><time>2026-04-25T18:07:10.999Z</time></trkpt><trkpt lat="44.22249744616978" lon="9.753176511214695"><ele>105.0</ele><time>2026-04-25T18:07:11.999Z</time></trkpt><trkpt lat="44.22241414721062" lon="9.753354828780864"><ele>105.0</ele><time>2026-04-25T18:07:12.999Z</time></trkpt><trkpt lat="44.222312490216474" lon="9.753489478206909"><ele>105.0</ele><time>2026-04-25T18:07:13.999Z</time></trkpt><trkpt lat="44.22222706075493" lon="9.753629412013565"><ele>105.0</ele><time>2026-04-25T18:07:14.999Z</time></trkpt><trkpt lat="44.222137145555635" lon="9.753752511647248"><ele>101.25</ele><time>2026-04-25T18:07:15.999Z</time></trkpt><trkpt lat="44.22202061017847" lon="9.753848262555197"><ele>97.5</ele><time>2026-04-25T18:07:16.999Z</time></trkpt><trkpt lat="44.22189256236473" lon="9.753930855100021"><ele>93.75</ele><time>2026-04-25T18:07:17.999Z</time></trkpt><trkpt lat="44.22175874230724" lon="9.753985626988234"><ele>90.0</ele><time>2026-04-25T18:07:18.999Z</time></trkpt><trkpt lat="44.221621428140466" lon="9.75402797474175"><ele>90.0</ele><time>2026-04-25T18:07:19.999Z</time></trkpt><trkpt lat="44.22150026251058" lon="9.754078238712555"><ele>90.0</ele><time>2026-04-25T18:07:20.999Z</time></trkpt><trkpt lat="44.22138684992913" lon="9.7540986463329"><ele>90.0</ele><time>2026-04-25T18:07:21.999Z</time></trkpt><trkpt lat="44.22127568688779" lon="9.754109631573053"><ele>90.0</ele><time>2026-04-25T18:07:22.999Z</time></trkpt><trkpt lat="44.221161625114114" lon="9.754085672232693"><ele>88.25</ele><time>2026-04-25T18:07:23.999Z</time></trkpt><trkpt lat="44.22105515087466" lon="9.753978327755117"><ele>86.5</ele><time>2026-04-25T18:07:24.999Z</time></trkpt><trkpt lat="44.220928975292175" lon="9.753885042938137"><ele>84.75</ele><time>2026-04-25T18:07:25.999Z</time></trkpt><trkpt lat="44.22080689280932" lon="9.753758620611077"><ele>83.0</ele><time>2026-04-25T18:07:26.999Z</time></trkpt><trkpt lat="44.220690193941266" lon="9.753634013705305"><ele>84.0</ele><time>2026-04-25T18:07:27.999Z</time></trkpt><trkpt lat="44.2205867984991" lon="9.753521381527296"><ele>85.0</ele><time>2026-04-25T18:07:28.999Z</time></trkpt><trkpt lat="44.220484531562875" lon="9.753411123451416"><ele>86.0</ele><time>2026-04-25T18:07:29.999Z</time></trkpt><trkpt lat="44.2203802439903" lon="9.753293023857875"><ele>87.0</ele><time>2026-04-25T18:07:30.999Z</time></trkpt><trkpt lat="44.22027041861524" lon="9.753175990994848"><ele>87.0</ele><time>2026-04-25T18:07:31.999Z</time></trkpt><trkpt lat="44.220156491604584" lon="9.753054439515244"><ele>87.0</ele><time>2026-04-25T18:07:32.999Z</time></trkpt><trkpt lat="44.22005158656218" lon="9.75294045440818"><ele>87.0</ele><time>2026-04-25T18:07:33.999Z</time></trkpt><trkpt lat="44.219943359357586" lon="9.75282135136199"><ele>87.0</ele><time>2026-04-25T18:07:34.999Z</time></trkpt><trkpt lat="44.21983817477042" lon="9.752694630117142"><ele>88.0</ele><time>2026-04-25T18:07:35.999Z</time></trkpt><trkpt lat="44.21975279970583" lon="9.752558812108392"><ele>89.0</ele><time>2026-04-25T18:07:36.999Z</time></trkpt><trkpt lat="44.219632486087846" lon="9.752491800738245"><ele>90.0</ele><time>2026-04-25T18:07:37.999Z</time></trkpt><trkpt lat="44.21953545423106" lon="9.752411600321324"><ele>91.0</ele><time>2026-04-25T18:07:38.999Z</time></trkpt><trkpt lat="44.21942402600922" lon="9.752383503992199"><ele>91.0</ele><time>2026-04-25T18:07:39.999Z</time></trkpt><trkpt lat="44.2192953317588" lon="9.75240133174905"><ele>91.0</ele><time>2026-04-25T18:07:40.999Z</time></trkpt><trkpt lat="44.21915639706186" lon="9.752441881179355"><ele>91.0</ele><time>2026-04-25T18:07:41.999Z</time></trkpt><trkpt lat="44.21900320779227" lon="9.75248873362176"><ele>91.0</ele><time>2026-04-25T18:07:42.999Z</time></trkpt><trkpt lat="44.21886419716334" lon="9.752524809440079"><ele>91.75</ele><time>2026-04-25T18:07:43.999Z</time></trkpt><trkpt lat="44.218728849105815" lon="9.75256090437039"><ele>92.5</ele><time>2026-04-25T18:07:44.999Z</time></trkpt><trkpt lat="44.2186021297759" lon="9.752575370913004"><ele>93.25</ele><time>2026-04-25T18:07:45.999Z</time></trkpt><trkpt lat="44.21847974131829" lon="9.752588628831123"><ele>94.0</ele><time>2026-04-25T18:07:46.999Z</time></trkpt><trkpt lat="44.21835151420708" lon="9.752542427174248"><ele>94.0</ele><time>2026-04-25T18:07:47.999Z</time></trkpt><trkpt lat="44.218195874372086" lon="9.752477359780777"><ele>94.0</ele><time>2026-04-25T18:07:48.999Z</time></trkpt><trkpt lat="44.218032729639226" lon="9.752410862034578"><ele>94.0</ele><time>2026-04-25T18:07:49.999Z</time></trkpt><trkpt lat="44.2178827231327" lon="9.752348159646997"><ele>93.25</ele><time>2026-04-25T18:07:50.999Z</time></trkpt><trkpt lat="44.21773916234003" lon="9.752311853451372"><ele>92.5</ele><time>2026-04-25T18:07:51.999Z</time></trkpt><trkpt lat="44.217597892120374" lon="9.752253614589158"><ele>91.75</ele><time>2026-04-25T18:07:52.999Z</time></trkpt><trkpt lat="44.21744811110171" lon="9.752213462373525"><ele>91.0</ele><time>2026-04-25T18:07:53.999Z</time></trkpt><trkpt lat="44.21729387696848" lon="9.752194856623632"><ele>92.75</ele><time>2026-04-25T18:07:54.999Z</time></trkpt><trkpt lat="44.21713553130263" lon="9.752187022948398"><ele>94.5</ele><time>2026-04-25T18:07:55.999Z</time></trkpt><trkpt lat="44.21698939039191" lon="9.752186694473634"><ele>96.25</ele><time>2026-04-25T18:07:56.999Z</time></trkpt><trkpt lat="44.216850322891254" lon="9.75219022700433"><ele>98.0</ele><time>2026-04-25T18:07:57.999Z</time></trkpt><trkpt lat="44.216717856203644" lon="9.752200935462959"><ele>98.0</ele><time>2026-04-25T18:07:59Z</time></trkpt><trkpt lat="44.2165786280193" lon="9.752259764548997"><ele>98.0</ele><time>2026-04-25T18:08:00Z</time></trkpt><trkpt lat="44.216430019606726" lon="9.752375290078358"><ele>98.0</ele><time>2026-04-25T18:08:01Z</time></trkpt><trkpt lat="44.21627095925283" lon="9.752498905579959"><ele>103.0</ele><time>2026-04-25T18:08:02Z</time></trkpt><trkpt lat="44.21611968542319" lon="9.752598757592533"><ele>108.0</ele><time>2026-04-25T18:08:03Z</time></trkpt><trkpt lat="44.215966350562525" lon="9.752670425104553"><ele>113.0</ele><time>2026-04-25T18:08:04Z</time></trkpt><trkpt lat="44.215829822899806" lon="9.752745900158684"><ele>105.5</ele><time>2026-04-25T18:08:05Z</time></trkpt><trkpt lat="44.215696901058934" lon="9.752793076738673"><ele>98.0</ele><time>2026-04-25T18:08:06Z</time></trkpt><trkpt lat="44.21555350379735" lon="9.752781739052097"><ele>90.5</ele><time>2026-04-25T18:08:07Z</time></trkpt><trkpt lat="44.21540299724014" lon="9.75278432364423"><ele>83.0</ele><time>2026-04-25T18:08:08Z</time></trkpt><trkpt lat="44.215262641211496" lon="9.752758474227976"><ele>83.0</ele><time>2026-04-25T18:08:09Z</time></trkpt><trkpt lat="44.21511720055452" lon="9.752781199720522"><ele>83.0</ele><time>2026-04-25T18:08:10Z</time></trkpt><trkpt lat="44.214953296321944" lon="9.752841506495663"><ele>83.0</ele><time>2026-04-25T18:08:11Z</time></trkpt><trkpt lat="44.21477349933854" lon="9.75291068647771"><ele>88.0</ele><time>2026-04-25T18:08:12Z</time></trkpt><trkpt lat="44.21459437238732" lon="9.753003719946278"><ele>93.0</ele><time>2026-04-25T18:08:13Z</time></trkpt><trkpt lat="44.21443110519417" lon="9.753086618641811"><ele>98.0</ele><time>2026-04-25T18:08:14Z</time></trkpt><trkpt lat="44.214282796374995" lon="9.753184329382284"><ele>98.0</ele><time>2026-04-25T18:08:15Z</time></trkpt><trkpt lat="44.21412763688032" lon="9.75323897114853"><ele>98.0</ele><time>2026-04-25T18:08:16Z</time></trkpt><trkpt lat="44.21398030263727" lon="9.753336421351488"><ele>98.0</ele><time>2026-04-25T18:08:17Z</time></trkpt><trkpt lat="44.21382355572449" lon="9.753411595328831"><ele>101.33333333333333</ele><time>2026-04-25T18:08:18Z</time></trkpt><trkpt lat="44.21367443889665" lon="9.753481990770803"><ele>104.66666666666666</ele><time>2026-04-25T18:08:19Z</time></trkpt><trkpt lat="44.21352987311758" lon="9.753550768996963"><ele>108.0</ele><time>2026-04-25T18:08:20Z</time></trkpt><trkpt lat="44.213393959810006" lon="9.753616418208575"><ele>110.75</ele><time>2026-04-25T18:08:21Z</time></trkpt><trkpt lat="44.21327105118752" lon="9.753694930376854"><ele>113.5</ele><time>2026-04-25T18:08:22Z</time></trkpt><trkpt lat="44.21316489329841" lon="9.753793460690774"><ele>116.25</ele><time>2026-04-25T18:08:23Z</time></trkpt><trkpt lat="44.21308280398335" lon="9.753938982915052"><ele>119.0</ele><time>2026-04-25T18:08:24Z</time></trkpt><trkpt lat="44.213020952428636" lon="9.754115756642088"><ele>119.0</ele><time>2026-04-25T18:08:25Z</time></trkpt><trkpt lat="44.212976956792794" lon="9.754308564723525"><ele>119.0</ele><time>2026-04-25T18:08:26Z</time></trkpt><trkpt lat="44.21295427516145" lon="9.754538563889787"><ele>119.0</ele><time>2026-04-25T18:08:27Z</time></trkpt><trkpt lat="44.21295156587643" lon="9.754803071608546"><ele>126.33333333333333</ele><time>2026-04-25T18:08:28Z</time></trkpt><trkpt lat="44.21295093316095" lon="9.755087666856744"><ele>133.66666666666666</ele><time>2026-04-25T18:08:29Z</time></trkpt><trkpt lat="44.21293949463266" lon="9.755362751575156"><ele>141.0</ele><time>2026-04-25T18:08:30Z</time></trkpt><trkpt lat="44.21292683769284" lon="9.755628453924357"><ele>143.66666666666666</ele><time>2026-04-25T18:08:31Z</time></trkpt><trkpt lat="44.21293317358166" lon="9.75588399454065"><ele>146.33333333333331</ele><time>2026-04-25T18:08:32Z</time></trkpt><trkpt lat="44.212957221527894" lon="9.75612358710987"><ele>149.0</ele><time>2026-04-25T18:08:33Z</time></trkpt><trkpt lat="44.21298907290067" lon="9.756353980074032"><ele>152.66666666666666</ele><time>2026-04-25T18:08:34Z</time></trkpt><trkpt lat="44.21302634148502" lon="9.75657350163691"><ele>156.33333333333334</ele><time>2026-04-25T18:08:35Z</time></trkpt><trkpt lat="44.213069685669744" lon="9.756791544071591"><ele>160.0</ele><time>2026-04-25T18:08:36Z</time></trkpt><trkpt lat="44.21312831159253" lon="9.757013722998428"><ele>137.66666666666669</ele><time>2026-04-25T18:08:37Z</time></trkpt><trkpt lat="44.213197607839135" lon="9.757234300427694"><ele>115.33333333333334</ele><time>2026-04-25T18:08:38Z</time></trkpt><trkpt lat="44.213259731980024" lon="9.757447578611703"><ele>93.0</ele><time>2026-04-25T18:08:39Z</time></trkpt><trkpt lat="44.2133042767912" lon="9.75764802291321"><ele>94.66666666666666</ele><time>2026-04-25T18:08:39.999Z</time></trkpt><trkpt lat="44.21329244402974" lon="9.757858010509077"><ele>96.33333333333333</ele><time>2026-04-25T18:08:40.999Z</time></trkpt><trkpt lat="44.21327992805204" lon="9.758087495338232"><ele>98.0</ele><time>2026-04-25T18:08:41.999Z</time></trkpt><trkpt lat="44.21327858859291" lon="9.758356506662782"><ele>97.33333333333333</ele><time>2026-04-25T18:08:42.999Z</time></trkpt><trkpt lat="44.213264557529314" lon="9.75862502964977"><ele>96.66666666666666</ele><time>2026-04-25T18:08:43.999Z</time></trkpt><trkpt lat="44.21323682670835" lon="9.758858964647812"><ele>96.0</ele><time>2026-04-25T18:08:44.999Z</time></trkpt><trkpt lat="44.21322587762606" lon="9.759083420824389"><ele>96.0</ele><time>2026-04-25T18:08:45.999Z</time></trkpt><trkpt lat="44.2132149434695" lon="9.75930110393419"><ele>96.0</ele><time>2026-04-25T18:08:46.999Z</time></trkpt><trkpt lat="44.213203481981516" lon="9.759523503766658"><ele>96.0</ele><time>2026-04-25T18:08:47.999Z</time></trkpt><trkpt lat="44.21320467943888" lon="9.75974827620351"><ele>95.33333333333333</ele><time>2026-04-25T18:08:48.999Z</time></trkpt><trkpt lat="44.213188445133866" lon="9.759976104126482"><ele>94.66666666666666</ele><time>2026-04-25T18:08:49.999Z</time></trkpt><trkpt lat="44.213152886488295" lon="9.76020232651339"><ele>94.0</ele><time>2026-04-25T18:08:50.999Z</time></trkpt><trkpt lat="44.21310743459225" lon="9.760443186761327"><ele>99.0</ele><time>2026-04-25T18:08:51.999Z</time></trkpt><trkpt lat="44.213039995741376" lon="9.760685020980052"><ele>104.0</ele><time>2026-04-25T18:08:52.999Z</time></trkpt><trkpt lat="44.212965514312046" lon="9.760905615924822"><ele>109.0</ele><time>2026-04-25T18:08:53.999Z</time></trkpt><trkpt lat="44.212908807904284" lon="9.761111437867983"><ele>109.0</ele><time>2026-04-25T18:08:54.999Z</time></trkpt><trkpt lat="44.212841965905355" lon="9.761304776119959"><ele>109.0</ele><time>2026-04-25T18:08:55.999Z</time></trkpt><trkpt lat="44.21277966533591" lon="9.761498220011065"><ele>109.0</ele><time>2026-04-25T18:08:56.999Z</time></trkpt><trkpt lat="44.212701089591256" lon="9.76167638386922"><ele>109.0</ele><time>2026-04-25T18:08:57.999Z</time></trkpt><trkpt lat="44.21262873186849" lon="9.761853830993704"><ele>109.0</ele><time>2026-04-25T18:08:58.999Z</time></trkpt><trkpt lat="44.212542805828754" lon="9.762033353276054"><ele>109.0</ele><time>2026-04-25T18:08:59.999Z</time></trkpt><trkpt lat="44.21240234238164" lon="9.762165465071693"><ele>110.33333333333334</ele><time>2026-04-25T18:09:00.999Z</time></trkpt><trkpt lat="44.21225978404852" lon="9.762338832822772"><ele>111.66666666666666</ele><time>2026-04-25T18:09:01.999Z</time></trkpt><trkpt lat="44.212115753156986" lon="9.762486618736084"><ele>113.0</ele><time>2026-04-25T18:09:02.999Z</time></trkpt><trkpt lat="44.211998476345244" lon="9.762648384286573"><ele>106.33333333333333</ele><time>2026-04-25T18:09:03.999Z</time></trkpt><trkpt lat="44.211896376190204" lon="9.762841955065115"><ele>99.66666666666666</ele><time>2026-04-25T18:09:04.999Z</time></trkpt><trkpt lat="44.21180416803304" lon="9.763057508110258"><ele>93.0</ele><time>2026-04-25T18:09:05.999Z</time></trkpt><trkpt lat="44.211701972595115" lon="9.763256254777003"><ele>93.0</ele><time>2026-04-25T18:09:06.999Z</time></trkpt><trkpt lat="44.21162182150062" lon="9.763440898196116"><ele>93.0</ele><time>2026-04-25T18:09:07.999Z</time></trkpt><trkpt lat="44.21155048714198" lon="9.76360523058534"><ele>93.0</ele><time>2026-04-25T18:09:08.999Z</time></trkpt><trkpt lat="44.211483020538225" lon="9.763758979175893"><ele>93.0</ele><time>2026-04-25T18:09:09.999Z</time></trkpt><trkpt lat="44.211419311488264" lon="9.76389765838195"><ele>91.4</ele><time>2026-04-25T18:09:10.999Z</time></trkpt><trkpt lat="44.2113595968874" lon="9.764027247974038"><ele>89.80000000000001</ele><time>2026-04-25T18:09:11.999Z</time></trkpt><trkpt lat="44.21126751203769" lon="9.764089213520133"><ele>88.2</ele><time>2026-04-25T18:09:12.999Z</time></trkpt><trkpt lat="44.211160199589216" lon="9.764107584930485"><ele>86.6</ele><time>2026-04-25T18:09:13.999Z</time></trkpt><trkpt lat="44.21103735732332" lon="9.764077839527095"><ele>85.0</ele><time>2026-04-25T18:09:14.999Z</time></trkpt><trkpt lat="44.21089201925791" lon="9.764007917891693"><ele>85.0</ele><time>2026-04-25T18:09:15.999Z</time></trkpt><trkpt lat="44.2107252366522" lon="9.763920683988383"><ele>85.0</ele><time>2026-04-25T18:09:16.999Z</time></trkpt><trkpt lat="44.21056927263418" lon="9.763843168379207"><ele>85.0</ele><time>2026-04-25T18:09:17.999Z</time></trkpt><trkpt lat="44.21042405026212" lon="9.763777761655067"><ele>83.25</ele><time>2026-04-25T18:09:18.999Z</time></trkpt><trkpt lat="44.21028612561326" lon="9.763714287087913"><ele>81.5</ele><time>2026-04-25T18:09:19.999Z</time></trkpt><trkpt lat="44.210155615218675" lon="9.763654172914821"><ele>79.75</ele><time>2026-04-25T18:09:20.999Z</time></trkpt><trkpt lat="44.210023924423986" lon="9.763591005677297"><ele>78.0</ele><time>2026-04-25T18:09:21.999Z</time></trkpt><trkpt lat="44.209885422928544" lon="9.763523342594146"><ele>84.66666666666666</ele><time>2026-04-25T18:09:22.999Z</time></trkpt><trkpt lat="44.20974179467238" lon="9.763454189210204"><ele>91.33333333333333</ele><time>2026-04-25T18:09:23.999Z</time></trkpt><trkpt lat="44.20959209562926" lon="9.763394591189618"><ele>98.0</ele><time>2026-04-25T18:09:24.999Z</time></trkpt><trkpt lat="44.20942695872191" lon="9.763363075404095"><ele>98.0</ele><time>2026-04-25T18:09:25.999Z</time></trkpt><trkpt lat="44.2092406697822" lon="9.763368229546655"><ele>98.0</ele><time>2026-04-25T18:09:26.999Z</time></trkpt><trkpt lat="44.209044410935064" lon="9.7633911812957"><ele>98.0</ele><time>2026-04-25T18:09:27.999Z</time></trkpt><trkpt lat="44.20885824427148" lon="9.763408105556193"><ele>97.0</ele><time>2026-04-25T18:09:28.999Z</time></trkpt><trkpt lat="44.20868619078933" lon="9.763417225305137"><ele>96.0</ele><time>2026-04-25T18:09:29.999Z</time></trkpt><trkpt lat="44.20852165581878" lon="9.76342775304098"><ele>95.0</ele><time>2026-04-25T18:09:30.999Z</time></trkpt><trkpt lat="44.20836338285473" lon="9.763435363548064"><ele>95.0</ele><time>2026-04-25T18:09:31.999Z</time></trkpt><trkpt lat="44.20821371587511" lon="9.763443697586355"><ele>95.0</ele><time>2026-04-25T18:09:32.999Z</time></trkpt><trkpt lat="44.20806277605461" lon="9.763452774032892"><ele>95.0</ele><time>2026-04-25T18:09:33.999Z</time></trkpt><trkpt lat="44.2079067732363" lon="9.763412566628384"><ele>91.33333333333334</ele><time>2026-04-25T18:09:34.999Z</time></trkpt><trkpt lat="44.20773492308323" lon="9.763372896108047"><ele>87.66666666666667</ele><time>2026-04-25T18:09:35.999Z</time></trkpt><trkpt lat="44.207553039575764" lon="9.76328614602842"><ele>84.0</ele><time>2026-04-25T18:09:36.999Z</time></trkpt><trkpt lat="44.20735900598215" lon="9.76320163010077"><ele>80.66666666666667</ele><time>2026-04-25T18:09:37.999Z</time></trkpt><trkpt lat="44.20717666611282" lon="9.763128338987418"><ele>77.33333333333334</ele><time>2026-04-25T18:09:38.999Z</time></trkpt><trkpt lat="44.20700651023483" lon="9.763057511327844"><ele>74.0</ele><time>2026-04-25T18:09:39.999Z</time></trkpt><trkpt lat="44.20684072791475" lon="9.762989436026542"><ele>74.0</ele><time>2026-04-25T18:09:40.999Z</time></trkpt><trkpt lat="44.206678046788134" lon="9.762924241091206"><ele>74.0</ele><time>2026-04-25T18:09:41.999Z</time></trkpt><trkpt lat="44.206516950802836" lon="9.762858160322969"><ele>74.0</ele><time>2026-04-25T18:09:42.999Z</time></trkpt><trkpt lat="44.20635754366214" lon="9.762791504724444"><ele>72.33333333333334</ele><time>2026-04-25T18:09:43.999Z</time></trkpt><trkpt lat="44.20619170433916" lon="9.762722635075868"><ele>70.66666666666667</ele><time>2026-04-25T18:09:44.999Z</time></trkpt><trkpt lat="44.20602207789923" lon="9.762655702080936"><ele>69.0</ele><time>2026-04-25T18:09:45.999Z</time></trkpt><trkpt lat="44.2058552713116" lon="9.762589019863537"><ele>71.66666666666667</ele><time>2026-04-25T18:09:46.999Z</time></trkpt><trkpt lat="44.20570566696276" lon="9.762503485828258"><ele>74.33333333333334</ele><time>2026-04-25T18:09:47.999Z</time></trkpt><trkpt lat="44.205552218424835" lon="9.762463284195164"><ele>77.0</ele><time>2026-04-25T18:09:48.999Z</time></trkpt><trkpt lat="44.20541172890518" lon="9.762404662702073"><ele>77.0</ele><time>2026-04-25T18:09:49.999Z</time></trkpt><trkpt lat="44.20527548396679" lon="9.762343727623069"><ele>77.0</ele><time>2026-04-25T18:09:50.998Z</time></trkpt><trkpt lat="44.20514226427433" lon="9.762264286729625"><ele>77.0</ele><time>2026-04-25T18:09:51.998Z</time></trkpt><trkpt lat="44.20500905234557" lon="9.762141768549883"><ele>77.0</ele><time>2026-04-25T18:09:52.998Z</time></trkpt><trkpt lat="44.204881296654804" lon="9.761995905731327"><ele>75.0</ele><time>2026-04-25T18:09:53.998Z</time></trkpt><trkpt lat="44.20476653814327" lon="9.761872779926527"><ele>73.0</ele><time>2026-04-25T18:09:54.998Z</time></trkpt><trkpt lat="44.20465125217259" lon="9.76178045986782"><ele>71.0</ele><time>2026-04-25T18:09:55.998Z</time></trkpt><trkpt lat="44.204528043793864" lon="9.761732738093729"><ele>69.0</ele><time>2026-04-25T18:09:56.998Z</time></trkpt><trkpt lat="44.204384714288956" lon="9.761736844849262"><ele>70.33333333333333</ele><time>2026-04-25T18:09:57.998Z</time></trkpt><trkpt lat="44.20421919725087" lon="9.761777142857204"><ele>71.66666666666666</ele><time>2026-04-25T18:09:58.998Z</time></trkpt><trkpt lat="44.20403430691349" lon="9.761828095002429"><ele>73.0</ele><time>2026-04-25T18:09:59.998Z</time></trkpt><trkpt lat="44.20384339131428" lon="9.761869651029686"><ele>73.0</ele><time>2026-04-25T18:10:00.998Z</time></trkpt><trkpt lat="44.20366965824266" lon="9.761909746231392"><ele>73.0</ele><time>2026-04-25T18:10:01.998Z</time></trkpt><trkpt lat="44.20349824677897" lon="9.761942920610355"><ele>73.0</ele><time>2026-04-25T18:10:02.998Z</time></trkpt><trkpt lat="44.20333103964812" lon="9.761974181286053"><ele>74.0</ele><time>2026-04-25T18:10:03.998Z</time></trkpt><trkpt lat="44.203162410508206" lon="9.762006742746367"><ele>75.0</ele><time>2026-04-25T18:10:05Z</time></trkpt><trkpt lat="44.20299495051957" lon="9.762034448374653"><ele>76.0</ele><time>2026-04-25T18:10:06Z</time></trkpt><trkpt lat="44.2028232715062" lon="9.762062986610207"><ele>76.0</ele><time>2026-04-25T18:10:07Z</time></trkpt><trkpt lat="44.202644857457365" lon="9.76210608010087"><ele>76.0</ele><time>2026-04-25T18:10:08Z</time></trkpt><trkpt lat="44.2024684163315" lon="9.762128938148614"><ele>76.0</ele><time>2026-04-25T18:10:09Z</time></trkpt><trkpt lat="44.202303762136985" lon="9.762161933962252"><ele>77.66666666666666</ele><time>2026-04-25T18:10:10Z</time></trkpt><trkpt lat="44.20213471930837" lon="9.762200804735086"><ele>79.33333333333333</ele><time>2026-04-25T18:10:11Z</time></trkpt><trkpt lat="44.20195773906036" lon="9.762249879904065"><ele>81.0</ele><time>2026-04-25T18:10:12Z</time></trkpt><trkpt lat="44.20177171051257" lon="9.76231514160042"><ele>81.0</ele><time>2026-04-25T18:10:13Z</time></trkpt><trkpt lat="44.20160616026932" lon="9.762384088417642"><ele>81.0</ele><time>2026-04-25T18:10:14Z</time></trkpt><trkpt lat="44.20142221998782" lon="9.76246567340486"><ele>81.0</ele><time>2026-04-25T18:10:15Z</time></trkpt><trkpt lat="44.201276517281464" lon="9.762533777157072"><ele>78.0</ele><time>2026-04-25T18:10:16Z</time></trkpt><trkpt lat="44.20111202579802" lon="9.762628724696548"><ele>75.0</ele><time>2026-04-25T18:10:17Z</time></trkpt><trkpt lat="44.20094285901701" lon="9.762754933168656"><ele>72.0</ele><time>2026-04-25T18:10:18Z</time></trkpt><trkpt lat="44.20078132882963" lon="9.762889492415182"><ele>78.66666666666667</ele><time>2026-04-25T18:10:19Z</time></trkpt><trkpt lat="44.200612675503606" lon="9.76303234277306"><ele>85.33333333333334</ele><time>2026-04-25T18:10:20Z</time></trkpt><trkpt lat="44.20045597984686" lon="9.76319037942576"><ele>92.0</ele><time>2026-04-25T18:10:21Z</time></trkpt><trkpt lat="44.200301492566474" lon="9.763314868759855"><ele>92.0</ele><time>2026-04-25T18:10:22Z</time></trkpt><trkpt lat="44.2001500384982" lon="9.763444570263125"><ele>92.0</ele><time>2026-04-25T18:10:23Z</time></trkpt><trkpt lat="44.200002498670166" lon="9.763570084526627"><ele>92.0</ele><time>2026-04-25T18:10:24Z</time></trkpt><trkpt lat="44.19984661477937" lon="9.763688522882127"><ele>92.66666666666667</ele><time>2026-04-25T18:10:25Z</time></trkpt><trkpt lat="44.19970608997452" lon="9.763838960955"><ele>93.33333333333333</ele><time>2026-04-25T18:10:26Z</time></trkpt><trkpt lat="44.19956868173195" lon="9.763998189631588"><ele>94.0</ele><time>2026-04-25T18:10:27Z</time></trkpt><trkpt lat="44.199434477322605" lon="9.764154939552407"><ele>94.0</ele><time>2026-04-25T18:10:28Z</time></trkpt><trkpt lat="44.19930974359311" lon="9.764305706921931"><ele>94.0</ele><time>2026-04-25T18:10:29Z</time></trkpt><trkpt lat="44.19919457551749" lon="9.764469798086061"><ele>94.0</ele><time>2026-04-25T18:10:30Z</time></trkpt><trkpt lat="44.19908655048725" lon="9.764645789096546"><ele>94.33333333333333</ele><time>2026-04-25T18:10:31Z</time></trkpt><trkpt lat="44.19898222799056" lon="9.764824124332028"><ele>94.66666666666667</ele><time>2026-04-25T18:10:32Z</time></trkpt><trkpt lat="44.19888407494845" lon="9.764994511499786"><ele>95.0</ele><time>2026-04-25T18:10:33Z</time></trkpt><trkpt lat="44.19879028955713" lon="9.765160058711134"><ele>88.0</ele><time>2026-04-25T18:10:34Z</time></trkpt><trkpt lat="44.19869241050904" lon="9.765327549457062"><ele>81.0</ele><time>2026-04-25T18:10:35Z</time></trkpt><trkpt lat="44.19858444862086" lon="9.765477995797227"><ele>74.0</ele><time>2026-04-25T18:10:36Z</time></trkpt><trkpt lat="44.19847045505464" lon="9.765613974762635"><ele>74.0</ele><time>2026-04-25T18:10:37Z</time></trkpt><trkpt lat="44.19836152590832" lon="9.765756790419411"><ele>74.0</ele><time>2026-04-25T18:10:38Z</time></trkpt><trkpt lat="44.19823596687375" lon="9.765871561697354"><ele>74.0</ele><time>2026-04-25T18:10:39Z</time></trkpt><trkpt lat="44.19811740281166" lon="9.766004280344776"><ele>73.5</ele><time>2026-04-25T18:10:40Z</time></trkpt><trkpt lat="44.197999849400766" lon="9.766136674398487"><ele>73.0</ele><time>2026-04-25T18:10:41Z</time></trkpt><trkpt lat="44.19788103006499" lon="9.76626950611194"><ele>72.5</ele><time>2026-04-25T18:10:42Z</time></trkpt><trkpt lat="44.19776689162627" lon="9.766396158391103"><ele>72.0</ele><time>2026-04-25T18:10:43Z</time></trkpt><trkpt lat="44.197668786748835" lon="9.766533439317284"><ele>72.0</ele><time>2026-04-25T18:10:43.999Z</time></trkpt><trkpt lat="44.19755544277088" lon="9.766632391136788"><ele>72.0</ele><time>2026-04-25T18:10:44.999Z</time></trkpt><trkpt lat="44.19745136547749" lon="9.766750180851881"><ele>72.0</ele><time>2026-04-25T18:10:45.999Z</time></trkpt><trkpt lat="44.19734589951586" lon="9.76687001314741"><ele>72.0</ele><time>2026-04-25T18:10:46.999Z</time></trkpt><trkpt lat="44.19724794456766" lon="9.767008258255888"><ele>73.0</ele><time>2026-04-25T18:10:47.999Z</time></trkpt><trkpt lat="44.19713669664918" lon="9.767122058474955"><ele>74.0</ele><time>2026-04-25T18:10:48.999Z</time></trkpt><trkpt lat="44.19702080625524" lon="9.767216564941945"><ele>75.0</ele><time>2026-04-25T18:10:49.999Z</time></trkpt><trkpt lat="44.19690310576973" lon="9.767301117868225"><ele>76.0</ele><time>2026-04-25T18:10:50.999Z</time></trkpt><trkpt lat="44.196838687747366" lon="9.767446942033668"><ele>76.0</ele><time>2026-04-25T18:10:51.999Z</time></trkpt><trkpt lat="44.19674513295947" lon="9.767545057689315"><ele>76.0</ele><time>2026-04-25T18:10:52.999Z</time></trkpt><trkpt lat="44.19665569030338" lon="9.767634833191906"><ele>76.0</ele><time>2026-04-25T18:10:53.999Z</time></trkpt><trkpt lat="44.19656652273298" lon="9.767727390333086"><ele>76.0</ele><time>2026-04-25T18:10:54.999Z</time></trkpt><trkpt lat="44.19646618116922" lon="9.767833591000217"><ele>76.25</ele><time>2026-04-25T18:10:55.999Z</time></trkpt><trkpt lat="44.19635818422108" lon="9.767890419005393"><ele>76.5</ele><time>2026-04-25T18:10:56.999Z</time></trkpt><trkpt lat="44.19624923195633" lon="9.767957527714385"><ele>76.75</ele><time>2026-04-25T18:10:57.999Z</time></trkpt><trkpt lat="44.19611915361564" lon="9.768035892109772"><ele>77.0</ele><time>2026-04-25T18:10:58.999Z</time></trkpt><trkpt lat="44.19596778970073" lon="9.768127964972258"><ele>77.0</ele><time>2026-04-25T18:10:59.999Z</time></trkpt><trkpt lat="44.1958087177763" lon="9.768224726456465"><ele>77.0</ele><time>2026-04-25T18:11:00.999Z</time></trkpt><trkpt lat="44.195636171125" lon="9.768352349109573"><ele>77.0</ele><time>2026-04-25T18:11:01.999Z</time></trkpt><trkpt lat="44.195445207849346" lon="9.76847267332916"><ele>77.66666666666667</ele><time>2026-04-25T18:11:02.999Z</time></trkpt><trkpt lat="44.19527688213073" lon="9.768572716284655"><ele>78.33333333333333</ele><time>2026-04-25T18:11:03.999Z</time></trkpt><trkpt lat="44.19512033763116" lon="9.76867181911352"><ele>79.0</ele><time>2026-04-25T18:11:04.999Z</time></trkpt><trkpt lat="44.194959953762016" lon="9.76873035675043"><ele>78.66666666666666</ele><time>2026-04-25T18:11:05.999Z</time></trkpt><trkpt lat="44.19479786139416" lon="9.768786118610747"><ele>78.33333333333333</ele><time>2026-04-25T18:11:06.999Z</time></trkpt><trkpt lat="44.194630059212194" lon="9.7688317982629"><ele>78.0</ele><time>2026-04-25T18:11:07.999Z</time></trkpt><trkpt lat="44.19445718176265" lon="9.768848808929285"><ele>78.0</ele><time>2026-04-25T18:11:08.999Z</time></trkpt><trkpt lat="44.194266578337775" lon="9.768847140484162"><ele>78.0</ele><time>2026-04-25T18:11:09.999Z</time></trkpt><trkpt lat="44.19406271411141" lon="9.768867499651215"><ele>78.0</ele><time>2026-04-25T18:11:10.999Z</time></trkpt><trkpt lat="44.19387000259448" lon="9.768862800403175"><ele>77.33333333333333</ele><time>2026-04-25T18:11:11.999Z</time></trkpt><trkpt lat="44.19369538446086" lon="9.768856963431263"><ele>76.66666666666666</ele><time>2026-04-25T18:11:12.999Z</time></trkpt><trkpt lat="44.19354445320559" lon="9.768850404016412"><ele>76.0</ele><time>2026-04-25T18:11:13.999Z</time></trkpt><trkpt lat="44.1933992918468" lon="9.76882615702812"><ele>76.0</ele><time>2026-04-25T18:11:14.999Z</time></trkpt><trkpt lat="44.193259902391276" lon="9.76877111982259"><ele>76.0</ele><time>2026-04-25T18:11:15.999Z</time></trkpt><trkpt lat="44.19312973777118" lon="9.76869137843276"><ele>76.0</ele><time>2026-04-25T18:11:16.999Z</time></trkpt><trkpt lat="44.19301011212713" lon="9.768579205173985"><ele>76.0</ele><time>2026-04-25T18:11:17.999Z</time></trkpt><trkpt lat="44.19289198135395" lon="9.76843442488777"><ele>75.33333333333333</ele><time>2026-04-25T18:11:18.999Z</time></trkpt><trkpt lat="44.192778227268" lon="9.768260597451587"><ele>74.66666666666667</ele><time>2026-04-25T18:11:19.999Z</time></trkpt><trkpt lat="44.19266210919201" lon="9.768076664551277"><ele>74.0</ele><time>2026-04-25T18:11:20.999Z</time></trkpt><trkpt lat="44.19253834645786" lon="9.767897690970681"><ele>74.0</ele><time>2026-04-25T18:11:21.999Z</time></trkpt><trkpt lat="44.19241436839565" lon="9.76771290328071"><ele>74.0</ele><time>2026-04-25T18:11:22.999Z</time></trkpt><trkpt lat="44.19229322058424" lon="9.767527106792748"><ele>74.0</ele><time>2026-04-25T18:11:23.999Z</time></trkpt><trkpt lat="44.192171766660806" lon="9.767349075557933"><ele>74.33333333333334</ele><time>2026-04-25T18:11:24.999Z</time></trkpt><trkpt lat="44.192058428941046" lon="9.767176324489988"><ele>74.66666666666667</ele><time>2026-04-25T18:11:25.999Z</time></trkpt><trkpt lat="44.19194973963607" lon="9.767005784464846"><ele>75.0</ele><time>2026-04-25T18:11:26.999Z</time></trkpt><trkpt lat="44.19184961518545" lon="9.766850781414787"><ele>75.25</ele><time>2026-04-25T18:11:27.999Z</time></trkpt><trkpt lat="44.191757496682136" lon="9.766705049064754"><ele>75.5</ele><time>2026-04-25T18:11:28.999Z</time></trkpt><trkpt lat="44.19166818164859" lon="9.766569183792845"><ele>75.75</ele><time>2026-04-25T18:11:29.999Z</time></trkpt><trkpt lat="44.19158471332928" lon="9.766438999462897"><ele>76.0</ele><time>2026-04-25T18:11:30.999Z</time></trkpt><trkpt lat="44.191503700018735" lon="9.766319093080304"><ele>76.0</ele><time>2026-04-25T18:11:31.999Z</time></trkpt><trkpt lat="44.19142920999509" lon="9.766204319544297"><ele>76.0</ele><time>2026-04-25T18:11:32.999Z</time></trkpt><trkpt lat="44.19135521731482" lon="9.766099098365618"><ele>76.0</ele><time>2026-04-25T18:11:33.999Z</time></trkpt><trkpt lat="44.19127401662611" lon="9.766016132675842"><ele>76.0</ele><time>2026-04-25T18:11:34.999Z</time></trkpt><trkpt lat="44.19118469070039" lon="9.765938855590283"><ele>76.0</ele><time>2026-04-25T18:11:35.999Z</time></trkpt><trkpt lat="44.19108294100465" lon="9.765873682988632"><ele>76.0</ele><time>2026-04-25T18:11:36.999Z</time></trkpt><trkpt lat="44.19097494757613" lon="9.76583951064735"><ele>76.0</ele><time>2026-04-25T18:11:37.999Z</time></trkpt><trkpt lat="44.190857440988026" lon="9.765843606196878"><ele>76.0</ele><time>2026-04-25T18:11:38.999Z</time></trkpt><trkpt lat="44.19072517466971" lon="9.765881159511833"><ele>76.0</ele><time>2026-04-25T18:11:39.999Z</time></trkpt><trkpt lat="44.190582910147114" lon="9.765944765557016"><ele>76.5</ele><time>2026-04-25T18:11:40.999Z</time></trkpt><trkpt lat="44.190443424680545" lon="9.76598767665161"><ele>77.0</ele><time>2026-04-25T18:11:41.999Z</time></trkpt><trkpt lat="44.19032173820548" lon="9.76605575136702"><ele>77.5</ele><time>2026-04-25T18:11:42.999Z</time></trkpt><trkpt lat="44.190197457534225" lon="9.766085096095381"><ele>78.0</ele><time>2026-04-25T18:11:43.999Z</time></trkpt><trkpt lat="44.1900742995522" lon="9.766086903537078"><ele>78.0</ele><time>2026-04-25T18:11:44.999Z</time></trkpt><trkpt lat="44.189955312118556" lon="9.76603513826351"><ele>78.0</ele><time>2026-04-25T18:11:45.999Z</time></trkpt><trkpt lat="44.1898285491589" lon="9.765993157045575"><ele>78.0</ele><time>2026-04-25T18:11:46.999Z</time></trkpt><trkpt lat="44.189663282630455" lon="9.765936666923348"><ele>78.0</ele><time>2026-04-25T18:11:47.999Z</time></trkpt><trkpt lat="44.18946654331835" lon="9.765868204411003"><ele>77.5</ele><time>2026-04-25T18:11:48.999Z</time></trkpt><trkpt lat="44.18924042026307" lon="9.765789362244776"><ele>77.0</ele><time>2026-04-25T18:11:49.999Z</time></trkpt><trkpt lat="44.18899066359548" lon="9.76570227985527"><ele>77.0</ele><time>2026-04-25T18:11:50.999Z</time></trkpt><trkpt lat="44.188725734990136" lon="9.765609907202904"><ele>77.0</ele><time>2026-04-25T18:11:51.999Z</time></trkpt><trkpt lat="44.18844847612449" lon="9.765535127629548"><ele>77.5</ele><time>2026-04-25T18:11:52.999Z</time></trkpt><trkpt lat="44.188161532149266" lon="9.765435889580997"><ele>78.0</ele><time>2026-04-25T18:11:53.999Z</time></trkpt><trkpt lat="44.18790452781194" lon="9.765342762369823"><ele>78.0</ele><time>2026-04-25T18:11:54.999Z</time></trkpt><trkpt lat="44.187665199869805" lon="9.765258568423711"><ele>78.0</ele><time>2026-04-25T18:11:55.999Z</time></trkpt><trkpt lat="44.187441222604456" lon="9.765183348903454"><ele>81.33333333333333</ele><time>2026-04-25T18:11:56.998Z</time></trkpt><trkpt lat="44.18722676228409" lon="9.76511069194688"><ele>84.66666666666666</ele><time>2026-04-25T18:11:57.998Z</time></trkpt><trkpt lat="44.18702148128649" lon="9.765038892736396"><ele>88.0</ele><time>2026-04-25T18:11:58.998Z</time></trkpt><trkpt lat="44.18682834089343" lon="9.764971423298118"><ele>88.0</ele><time>2026-04-25T18:11:59.998Z</time></trkpt><trkpt lat="44.18663650156259" lon="9.764908485545432"><ele>88.0</ele><time>2026-04-25T18:12:00.998Z</time></trkpt><trkpt lat="44.18644498977264" lon="9.764844180718162"><ele>88.0</ele><time>2026-04-25T18:12:01.998Z</time></trkpt><trkpt lat="44.18626226037631" lon="9.764779208389527"><ele>85.33333333333333</ele><time>2026-04-25T18:12:02.998Z</time></trkpt><trkpt lat="44.186089161997025" lon="9.764720674589515"><ele>82.66666666666667</ele><time>2026-04-25T18:12:03.998Z</time></trkpt><trkpt lat="44.185913889937304" lon="9.764672544160762"><ele>80.0</ele><time>2026-04-25T18:12:04.998Z</time></trkpt><trkpt lat="44.18572298807004" lon="9.76464332214131"><ele>79.66666666666667</ele><time>2026-04-25T18:12:05.998Z</time></trkpt><trkpt lat="44.18551113000465" lon="9.764644118135914"><ele>79.33333333333333</ele><time>2026-04-25T18:12:06.998Z</time></trkpt><trkpt lat="44.185295026968355" lon="9.764662093648328"><ele>79.0</ele><time>2026-04-25T18:12:07.998Z</time></trkpt><trkpt lat="44.18509278957491" lon="9.76468150335236"><ele>79.0</ele><time>2026-04-25T18:12:08.998Z</time></trkpt><trkpt lat="44.18491867169725" lon="9.764695010237494"><ele>79.0</ele><time>2026-04-25T18:12:09.998Z</time></trkpt><trkpt lat="44.18475564836206" lon="9.764681567183235"><ele>79.0</ele><time>2026-04-25T18:12:11Z</time></trkpt><trkpt lat="44.18460600096217" lon="9.76468698716187"><ele>79.0</ele><time>2026-04-25T18:12:12Z</time></trkpt><trkpt lat="44.184462270744234" lon="9.764700886935438"><ele>79.0</ele><time>2026-04-25T18:12:13Z</time></trkpt><trkpt lat="44.18432729378859" lon="9.764635566663348"><ele>79.0</ele><time>2026-04-25T18:12:14Z</time></trkpt><trkpt lat="44.18418213468866" lon="9.764557250096798"><ele>79.0</ele><time>2026-04-25T18:12:15Z</time></trkpt><trkpt lat="44.184027949113705" lon="9.764446364304698"><ele>80.33333333333333</ele><time>2026-04-25T18:12:16Z</time></trkpt><trkpt lat="44.18386100378825" lon="9.764330292873707"><ele>81.66666666666667</ele><time>2026-04-25T18:12:17Z</time></trkpt><trkpt lat="44.18369005346261" lon="9.764190707682046"><ele>83.0</ele><time>2026-04-25T18:12:18Z</time></trkpt><trkpt lat="44.18351390249712" lon="9.764065844094796"><ele>83.0</ele><time>2026-04-25T18:12:19Z</time></trkpt><trkpt lat="44.18334160581565" lon="9.763936898861628"><ele>83.0</ele><time>2026-04-25T18:12:20Z</time></trkpt><trkpt lat="44.18316226284518" lon="9.763797288523397"><ele>83.0</ele><time>2026-04-25T18:12:21Z</time></trkpt><trkpt lat="44.18297529923795" lon="9.763649996101906"><ele>85.0</ele><time>2026-04-25T18:12:22Z</time></trkpt><trkpt lat="44.18280096681546" lon="9.763465895530896"><ele>87.0</ele><time>2026-04-25T18:12:23Z</time></trkpt><trkpt lat="44.18261696291111" lon="9.763313728797685"><ele>89.0</ele><time>2026-04-25T18:12:24Z</time></trkpt><trkpt lat="44.18243927022357" lon="9.763137840943774"><ele>86.66666666666667</ele><time>2026-04-25T18:12:25Z</time></trkpt><trkpt lat="44.182255172152274" lon="9.762965377179231"><ele>84.33333333333333</ele><time>2026-04-25T18:12:26Z</time></trkpt><trkpt lat="44.18206660135806" lon="9.762789678299988"><ele>82.0</ele><time>2026-04-25T18:12:27Z</time></trkpt><trkpt lat="44.181877374651336" lon="9.762608504041214"><ele>82.0</ele><time>2026-04-25T18:12:28Z</time></trkpt><trkpt lat="44.181682991459866" lon="9.762426159500345"><ele>82.0</ele><time>2026-04-25T18:12:29Z</time></trkpt><trkpt lat="44.181488470780465" lon="9.762240028711801"><ele>82.0</ele><time>2026-04-25T18:12:30Z</time></trkpt><trkpt lat="44.18128551164898" lon="9.762043465392171"><ele>82.0</ele><time>2026-04-25T18:12:31Z</time></trkpt><trkpt lat="44.18107408019844" lon="9.761843929754342"><ele>82.0</ele><time>2026-04-25T18:12:32Z</time></trkpt><trkpt lat="44.18085456747919" lon="9.761634813544621"><ele>82.0</ele><time>2026-04-25T18:12:33Z</time></trkpt><trkpt lat="44.18063462732247" lon="9.76142316912039"><ele>80.5</ele><time>2026-04-25T18:12:34Z</time></trkpt><trkpt lat="44.18042423431454" lon="9.761223283878136"><ele>79.0</ele><time>2026-04-25T18:12:35Z</time></trkpt><trkpt lat="44.18022881004993" lon="9.76103572933335"><ele>80.33333333333333</ele><time>2026-04-25T18:12:36Z</time></trkpt><trkpt lat="44.180042533133715" lon="9.76085775787282"><ele>81.66666666666667</ele><time>2026-04-25T18:12:37Z</time></trkpt><trkpt lat="44.17986282521266" lon="9.760687482911186"><ele>83.0</ele><time>2026-04-25T18:12:38Z</time></trkpt><trkpt lat="44.17968604800787" lon="9.760519376176548"><ele>83.0</ele><time>2026-04-25T18:12:39Z</time></trkpt><trkpt lat="44.17951015376129" lon="9.760352361382935"><ele>83.0</ele><time>2026-04-25T18:12:40Z</time></trkpt><trkpt lat="44.17933794326365" lon="9.760186701413287"><ele>83.0</ele><time>2026-04-25T18:12:40.999Z</time></trkpt><trkpt lat="44.17916473667129" lon="9.760023020644946"><ele>83.33333333333334</ele><time>2026-04-25T18:12:41.999Z</time></trkpt><trkpt lat="44.17899414270433" lon="9.759859751936693"><ele>83.66666666666667</ele><time>2026-04-25T18:12:42.999Z</time></trkpt><trkpt lat="44.178831475230666" lon="9.75970363717904"><ele>84.0</ele><time>2026-04-25T18:12:43.999Z</time></trkpt><trkpt lat="44.17867055545615" lon="9.7595542879292"><ele>84.0</ele><time>2026-04-25T18:12:44.999Z</time></trkpt><trkpt lat="44.17850840200314" lon="9.759405941121525"><ele>84.0</ele><time>2026-04-25T18:12:45.999Z</time></trkpt><trkpt lat="44.17834813944343" lon="9.759249669690107"><ele>84.0</ele><time>2026-04-25T18:12:46.999Z</time></trkpt><trkpt lat="44.17818669224254" lon="9.759097617987134"><ele>84.33333333333333</ele><time>2026-04-25T18:12:47.999Z</time></trkpt><trkpt lat="44.17802371693458" lon="9.758945169049937"><ele>84.66666666666666</ele><time>2026-04-25T18:12:48.999Z</time></trkpt><trkpt lat="44.17786032781146" lon="9.758788144294305"><ele>85.0</ele><time>2026-04-25T18:12:49.999Z</time></trkpt><trkpt lat="44.177702110557206" lon="9.758638556438802"><ele>85.33333333333333</ele><time>2026-04-25T18:12:50.999Z</time></trkpt><trkpt lat="44.17755508874479" lon="9.758501221654152"><ele>85.66666666666667</ele><time>2026-04-25T18:12:51.999Z</time></trkpt><trkpt lat="44.177415837007125" lon="9.758369485140276"><ele>86.0</ele><time>2026-04-25T18:12:52.999Z</time></trkpt><trkpt lat="44.17727718374786" lon="9.758241123330524"><ele>86.0</ele><time>2026-04-25T18:12:53.999Z</time></trkpt><trkpt lat="44.17713768154881" lon="9.758109446228843"><ele>86.0</ele><time>2026-04-25T18:12:54.999Z</time></trkpt><trkpt lat="44.17700630625558" lon="9.757974582621635"><ele>86.0</ele><time>2026-04-25T18:12:55.999Z</time></trkpt><trkpt lat="44.176886292790975" lon="9.75781173953826"><ele>86.66666666666667</ele><time>2026-04-25T18:12:56.999Z</time></trkpt><trkpt lat="44.17677082645398" lon="9.75761096268049"><ele>87.33333333333333</ele><time>2026-04-25T18:12:57.999Z</time></trkpt><trkpt lat="44.176656643646865" lon="9.757385750025927"><ele>88.0</ele><time>2026-04-25T18:12:58.999Z</time></trkpt><trkpt lat="44.17654202711903" lon="9.757138875754162"><ele>88.0</ele><time>2026-04-25T18:12:59.999Z</time></trkpt><trkpt lat="44.176417587137514" lon="9.75689415385145"><ele>88.0</ele><time>2026-04-25T18:13:00.999Z</time></trkpt><trkpt lat="44.17629494275264" lon="9.756659622817287"><ele>88.0</ele><time>2026-04-25T18:13:01.999Z</time></trkpt><trkpt lat="44.17618613728253" lon="9.75644738896658"><ele>88.0</ele><time>2026-04-25T18:13:02.999Z</time></trkpt><trkpt lat="44.17608140116621" lon="9.756244316468958"><ele>88.0</ele><time>2026-04-25T18:13:03.999Z</time></trkpt><trkpt lat="44.1759827855138" lon="9.756055649099967"><ele>88.0</ele><time>2026-04-25T18:13:04.999Z</time></trkpt><trkpt lat="44.17587781461207" lon="9.755874209052287"><ele>88.66666666666666</ele><time>2026-04-25T18:13:05.999Z</time></trkpt><trkpt lat="44.17576060606252" lon="9.755707071521213"><ele>89.33333333333333</ele><time>2026-04-25T18:13:06.999Z</time></trkpt><trkpt lat="44.17563122107231" lon="9.755560504163093"><ele>90.0</ele><time>2026-04-25T18:13:07.999Z</time></trkpt><trkpt lat="44.17547945590486" lon="9.755434348213479"><ele>90.0</ele><time>2026-04-25T18:13:08.999Z</time></trkpt><trkpt lat="44.17531731228313" lon="9.755306529993652"><ele>90.0</ele><time>2026-04-25T18:13:09.999Z</time></trkpt><trkpt lat="44.175138925163736" lon="9.755191599690535"><ele>90.0</ele><time>2026-04-25T18:13:10.999Z</time></trkpt><trkpt lat="44.17494690254494" lon="9.75507658223002"><ele>90.33333333333333</ele><time>2026-04-25T18:13:11.999Z</time></trkpt><trkpt lat="44.17475745659317" lon="9.754947279843115"><ele>90.66666666666666</ele><time>2026-04-25T18:13:12.999Z</time></trkpt><trkpt lat="44.17458335574291" lon="9.75482346563744"><ele>91.0</ele><time>2026-04-25T18:13:13.999Z</time></trkpt><trkpt lat="44.174418640348435" lon="9.754710483020151"><ele>91.0</ele><time>2026-04-25T18:13:14.999Z</time></trkpt><trkpt lat="44.17426990221451" lon="9.754607028663626"><ele>91.0</ele><time>2026-04-25T18:13:15.999Z</time></trkpt><trkpt lat="44.17412764865109" lon="9.754508776308077"><ele>91.0</ele><time>2026-04-25T18:13:16.999Z</time></trkpt><trkpt lat="44.17399077167515" lon="9.754418829142397"><ele>91.5</ele><time>2026-04-25T18:13:17.999Z</time></trkpt><trkpt lat="44.17386498826873" lon="9.754332783494437"><ele>92.0</ele><time>2026-04-25T18:13:18.999Z</time></trkpt><trkpt lat="44.17374571701603" lon="9.75424786444406"><ele>92.5</ele><time>2026-04-25T18:13:19.999Z</time></trkpt><trkpt lat="44.17363613019608" lon="9.754172608438227"><ele>93.0</ele><time>2026-04-25T18:13:20.999Z</time></trkpt><trkpt lat="44.17352860460641" lon="9.754117460303338"><ele>93.0</ele><time>2026-04-25T18:13:21.999Z</time></trkpt><trkpt lat="44.1734187576601" lon="9.754106199806806"><ele>93.0</ele><time>2026-04-25T18:13:22.999Z</time></trkpt><trkpt lat="44.17328955024669" lon="9.754159022894331"><ele>93.0</ele><time>2026-04-25T18:13:23.999Z</time></trkpt><trkpt lat="44.173145967547754" lon="9.75423985462513"><ele>93.0</ele><time>2026-04-25T18:13:24.999Z</time></trkpt><trkpt lat="44.17298483831272" lon="9.754330485140251"><ele>93.33333333333333</ele><time>2026-04-25T18:13:25.999Z</time></trkpt><trkpt lat="44.17281356782657" lon="9.754422398520488"><ele>93.66666666666666</ele><time>2026-04-25T18:13:26.999Z</time></trkpt><trkpt lat="44.17262055134118" lon="9.754529156931222"><ele>94.0</ele><time>2026-04-25T18:13:27.999Z</time></trkpt><trkpt lat="44.17242352375376" lon="9.754639186281086"><ele>95.33333333333333</ele><time>2026-04-25T18:13:28.999Z</time></trkpt><trkpt lat="44.172230005386346" lon="9.754733934067692"><ele>96.66666666666666</ele><time>2026-04-25T18:13:29.999Z</time></trkpt><trkpt lat="44.17203176498826" lon="9.754831505949497"><ele>98.0</ele><time>2026-04-25T18:13:30.999Z</time></trkpt><trkpt lat="44.17183714569279" lon="9.754935797068578"><ele>98.0</ele><time>2026-04-25T18:13:31.999Z</time></trkpt><trkpt lat="44.171655657192076" lon="9.755032863705102"><ele>98.0</ele><time>2026-04-25T18:13:32.999Z</time></trkpt><trkpt lat="44.17148501087673" lon="9.755118396179387"><ele>98.0</ele><time>2026-04-25T18:13:33.999Z</time></trkpt><trkpt lat="44.17132045972855" lon="9.755200763098532"><ele>99.0</ele><time>2026-04-25T18:13:34.999Z</time></trkpt><trkpt lat="44.17116520403934" lon="9.755281293400797"><ele>100.0</ele><time>2026-04-25T18:13:35.999Z</time></trkpt><trkpt lat="44.17102255909036" lon="9.755379644833601"><ele>101.0</ele><time>2026-04-25T18:13:36.999Z</time></trkpt><trkpt lat="44.170887554273556" lon="9.755519955370746"><ele>101.0</ele><time>2026-04-25T18:13:37.999Z</time></trkpt><trkpt lat="44.170763816550775" lon="9.755707136688843"><ele>101.0</ele><time>2026-04-25T18:13:38.999Z</time></trkpt><trkpt lat="44.17063826691604" lon="9.755909335376643"><ele>101.0</ele><time>2026-04-25T18:13:39.999Z</time></trkpt><trkpt lat="44.170502317010424" lon="9.756116717850897"><ele>104.33333333333333</ele><time>2026-04-25T18:13:40.999Z</time></trkpt><trkpt lat="44.17036969713269" lon="9.756315857168298"><ele>107.66666666666666</ele><time>2026-04-25T18:13:41.999Z</time></trkpt><trkpt lat="44.17024760917678" lon="9.756497977562079"><ele>111.0</ele><time>2026-04-25T18:13:42.999Z</time></trkpt><trkpt lat="44.17013607454768" lon="9.756671848396442"><ele>111.0</ele><time>2026-04-25T18:13:43.999Z</time></trkpt><trkpt lat="44.170028722454525" lon="9.75683296049103"><ele>111.0</ele><time>2026-04-25T18:13:44.999Z</time></trkpt><trkpt lat="44.16992896283764" lon="9.756984887088551"><ele>111.0</ele><time>2026-04-25T18:13:45.999Z</time></trkpt><trkpt lat="44.16983746341578" lon="9.757102533954855"><ele>111.0</ele><time>2026-04-25T18:13:46.999Z</time></trkpt><trkpt lat="44.1697465654359" lon="9.757166943234461"><ele>110.6</ele><time>2026-04-25T18:13:47.999Z</time></trkpt><trkpt lat="44.16964579067059" lon="9.757172064093847"><ele>110.19999999999999</ele><time>2026-04-25T18:13:48.999Z</time></trkpt><trkpt lat="44.169549600066105" lon="9.757122123046878"><ele>109.80000000000001</ele><time>2026-04-25T18:13:49.999Z</time></trkpt><trkpt lat="44.16945710707458" lon="9.757030115451068"><ele>109.4</ele><time>2026-04-25T18:13:50.999Z</time></trkpt><trkpt lat="44.16937769963154" lon="9.757080609604463"><ele>109.0</ele><time>2026-04-25T18:13:51.999Z</time></trkpt><trkpt lat="44.16930408652448" lon="9.756916490015747"><ele>112.0</ele><time>2026-04-25T18:13:52.999Z</time></trkpt><trkpt lat="44.169204641743185" lon="9.756807602448388"><ele>115.0</ele><time>2026-04-25T18:13:53.999Z</time></trkpt><trkpt lat="44.16907483626785" lon="9.756764250078014"><ele>118.0</ele><time>2026-04-25T18:13:54.999Z</time></trkpt><trkpt lat="44.168922855277046" lon="9.75675744861143"><ele>121.0</ele><time>2026-04-25T18:13:55.999Z</time></trkpt><trkpt lat="44.168782787160964" lon="9.756790614989107"><ele>121.5</ele><time>2026-04-25T18:13:56.999Z</time></trkpt><trkpt lat="44.168656986651236" lon="9.756868478382405"><ele>122.0</ele><time>2026-04-25T18:13:57.999Z</time></trkpt><trkpt lat="44.16855984180721" lon="9.756991522351186"><ele>122.5</ele><time>2026-04-25T18:13:58.998Z</time></trkpt><trkpt lat="44.168485934266656" lon="9.7571619253237"><ele>123.0</ele><time>2026-04-25T18:13:59.998Z</time></trkpt><trkpt lat="44.168428492742706" lon="9.757360845340065"><ele>123.0</ele><time>2026-04-25T18:14:00.998Z</time></trkpt><trkpt lat="44.16837725061121" lon="9.75760480598119"><ele>123.0</ele><time>2026-04-25T18:14:01.998Z</time></trkpt><trkpt lat="44.16831796749725" lon="9.757855973007565"><ele>123.0</ele><time>2026-04-25T18:14:02.998Z</time></trkpt><trkpt lat="44.168248101310475" lon="9.758070760579345"><ele>124.5</ele><time>2026-04-25T18:14:03.998Z</time></trkpt><trkpt lat="44.168186300228236" lon="9.758279597579872"><ele>126.0</ele><time>2026-04-25T18:14:04.998Z</time></trkpt><trkpt lat="44.16813459626306" lon="9.758453543230534"><ele>127.5</ele><time>2026-04-25T18:14:05.998Z</time></trkpt><trkpt lat="44.16808567328765" lon="9.758575574030965"><ele>129.0</ele><time>2026-04-25T18:14:06.998Z</time></trkpt><trkpt lat="44.168024980818075" lon="9.758649526220822"><ele>131.0</ele><time>2026-04-25T18:14:07.998Z</time></trkpt><trkpt lat="44.167941411362975" lon="9.758678863347056"><ele>133.0</ele><time>2026-04-25T18:14:08.998Z</time></trkpt><trkpt lat="44.16783134314802" lon="9.758663669079235"><ele>135.0</ele><time>2026-04-25T18:14:09.998Z</time></trkpt><trkpt lat="44.167713049443734" lon="9.758607145043111"><ele>137.0</ele><time>2026-04-25T18:14:10.998Z</time></trkpt><trkpt lat="44.16755843085947" lon="9.758547689228596"><ele>137.0</ele><time>2026-04-25T18:14:11.998Z</time></trkpt><trkpt lat="44.16738324852867" lon="9.758500062518062"><ele>137.0</ele><time>2026-04-25T18:14:12.998Z</time></trkpt><trkpt lat="44.16719450519467" lon="9.758427816063776"><ele>137.0</ele><time>2026-04-25T18:14:13.998Z</time></trkpt><trkpt lat="44.16701386376441" lon="9.758344141148227"><ele>137.0</ele><time>2026-04-25T18:14:14.998Z</time></trkpt><trkpt lat="44.166853069526724" lon="9.758295977333894"><ele>137.0</ele><time>2026-04-25T18:14:16Z</time></trkpt><trkpt lat="44.166694169626254" lon="9.758285287937916"><ele>137.0</ele><time>2026-04-25T18:14:17Z</time></trkpt><trkpt lat="44.16652820948786" lon="9.758325324672306"><ele>136.66666666666666</ele><time>2026-04-25T18:14:18Z</time></trkpt><trkpt lat="44.16637140079166" lon="9.75838629822371"><ele>136.33333333333334</ele><time>2026-04-25T18:14:19Z</time></trkpt><trkpt lat="44.166221015549134" lon="9.758479062111384"><ele>136.0</ele><time>2026-04-25T18:14:20Z</time></trkpt><trkpt lat="44.166075195400595" lon="9.75861030209998"><ele>136.0</ele><time>2026-04-25T18:14:21Z</time></trkpt><trkpt lat="44.16592925608442" lon="9.758770017787565"><ele>136.0</ele><time>2026-04-25T18:14:22Z</time></trkpt><trkpt lat="44.165782373098544" lon="9.758949225962454"><ele>136.0</ele><time>2026-04-25T18:14:23Z</time></trkpt><trkpt lat="44.16563146479175" lon="9.759128489439014"><ele>135.66666666666669</ele><time>2026-04-25T18:14:24Z</time></trkpt><trkpt lat="44.16548171534705" lon="9.759272407971773"><ele>135.33333333333334</ele><time>2026-04-25T18:14:25Z</time></trkpt><trkpt lat="44.16535500776999" lon="9.759416833601321"><ele>135.0</ele><time>2026-04-25T18:14:26Z</time></trkpt><trkpt lat="44.165241322337955" lon="9.759548937611266"><ele>135.0</ele><time>2026-04-25T18:14:27Z</time></trkpt><trkpt lat="44.165146767353406" lon="9.759679604204202"><ele>135.0</ele><time>2026-04-25T18:14:28Z</time></trkpt><trkpt lat="44.16503447265575" lon="9.759723335329419"><ele>135.0</ele><time>2026-04-25T18:14:29Z</time></trkpt><trkpt lat="44.16492735905451" lon="9.759766414608205"><ele>135.0</ele><time>2026-04-25T18:14:30Z</time></trkpt><trkpt lat="44.16481208898768" lon="9.759715643769045"><ele>135.25</ele><time>2026-04-25T18:14:31Z</time></trkpt><trkpt lat="44.16470335860607" lon="9.759659330792765"><ele>135.5</ele><time>2026-04-25T18:14:32Z</time></trkpt><trkpt lat="44.16461685616883" lon="9.759538204312488"><ele>135.75</ele><time>2026-04-25T18:14:33Z</time></trkpt><trkpt lat="44.164573907841636" lon="9.75935990716539"><ele>136.0</ele><time>2026-04-25T18:14:34Z</time></trkpt><trkpt lat="44.1645067898409" lon="9.75917469828266"><ele>136.0</ele><time>2026-04-25T18:14:35Z</time></trkpt><trkpt lat="44.16443550798507" lon="9.758970968007686"><ele>136.0</ele><time>2026-04-25T18:14:36Z</time></trkpt><trkpt lat="44.16433497977503" lon="9.758778754600156"><ele>136.0</ele><time>2026-04-25T18:14:37Z</time></trkpt><trkpt lat="44.164207562701826" lon="9.758603126928117"><ele>138.66666666666669</ele><time>2026-04-25T18:14:38Z</time></trkpt><trkpt lat="44.16406705157042" lon="9.758447771154321"><ele>141.33333333333334</ele><time>2026-04-25T18:14:39Z</time></trkpt><trkpt lat="44.16390479750209" lon="9.75826670583523"><ele>144.0</ele><time>2026-04-25T18:14:40Z</time></trkpt><trkpt lat="44.16376797065958" lon="9.758126631089462"><ele>143.25</ele><time>2026-04-25T18:14:41Z</time></trkpt><trkpt lat="44.163640942964406" lon="9.757994919984363"><ele>142.5</ele><time>2026-04-25T18:14:42Z</time></trkpt><trkpt lat="44.16352514520693" lon="9.757868014542579"><ele>141.75</ele><time>2026-04-25T18:14:43Z</time></trkpt><trkpt lat="44.16341500862144" lon="9.757744906737283"><ele>141.0</ele><time>2026-04-25T18:14:44Z</time></trkpt><trkpt lat="44.163310955052644" lon="9.75764104377999"><ele>141.0</ele><time>2026-04-25T18:14:45Z</time></trkpt><trkpt lat="44.163206245084744" lon="9.757565752670132"><ele>141.0</ele><time>2026-04-25T18:14:46Z</time></trkpt><trkpt lat="44.163103402856805" lon="9.757535876676572"><ele>141.0</ele><time>2026-04-25T18:14:47Z</time></trkpt><trkpt lat="44.163000429700446" lon="9.757520383500648"><ele>141.0</ele><time>2026-04-25T18:14:48Z</time></trkpt><trkpt lat="44.16290014481656" lon="9.757596600473251"><ele>141.0</ele><time>2026-04-25T18:14:49Z</time></trkpt><trkpt lat="44.1628060995508" lon="9.757684991087201"><ele>138.25</ele><time>2026-04-25T18:14:50Z</time></trkpt><trkpt lat="44.1627121600052" lon="9.757771984323512"><ele>135.5</ele><time>2026-04-25T18:14:50.999Z</time></trkpt><trkpt lat="44.16260988529526" lon="9.75786009424358"><ele>132.75</ele><time>2026-04-25T18:14:51.999Z</time></trkpt><trkpt lat="44.1625066005231" lon="9.757943761757938"><ele>130.0</ele><time>2026-04-25T18:14:52.999Z</time></trkpt><trkpt lat="44.16240147324875" lon="9.75803047148739"><ele>129.75</ele><time>2026-04-25T18:14:53.999Z</time></trkpt><trkpt lat="44.16229287762506" lon="9.758127977556818"><ele>129.5</ele><time>2026-04-25T18:14:54.999Z</time></trkpt><trkpt lat="44.162177169664226" lon="9.758221485436547"><ele>129.25</ele><time>2026-04-25T18:14:55.999Z</time></trkpt><trkpt lat="44.16206106792529" lon="9.758318027330649"><ele>129.0</ele><time>2026-04-25T18:14:56.999Z</time></trkpt><trkpt lat="44.16194808529231" lon="9.75841092045003"><ele>129.0</ele><time>2026-04-25T18:14:57.999Z</time></trkpt><trkpt lat="44.16184242094769" lon="9.758498075327255"><ele>129.0</ele><time>2026-04-25T18:14:58.999Z</time></trkpt><trkpt lat="44.16173809752198" lon="9.758583178459435"><ele>129.0</ele><time>2026-04-25T18:14:59.999Z</time></trkpt><trkpt lat="44.161634514541" lon="9.758665547415662"><ele>129.0</ele><time>2026-04-25T18:15:00.999Z</time></trkpt><trkpt lat="44.16153415752741" lon="9.758752293782566"><ele>130.0</ele><time>2026-04-25T18:15:01.999Z</time></trkpt><trkpt lat="44.16143240651919" lon="9.758840913365448"><ele>131.0</ele><time>2026-04-25T18:15:02.999Z</time></trkpt><trkpt lat="44.16132573165662" lon="9.758924550831345"><ele>132.0</ele><time>2026-04-25T18:15:03.999Z</time></trkpt><trkpt lat="44.161227977399044" lon="9.759007535227298"><ele>133.0</ele><time>2026-04-25T18:15:04.999Z</time></trkpt><trkpt lat="44.16112992592078" lon="9.759086648273396"><ele>133.0</ele><time>2026-04-25T18:15:05.999Z</time></trkpt><trkpt lat="44.161030547972516" lon="9.759171469153504"><ele>133.0</ele><time>2026-04-25T18:15:06.999Z</time></trkpt><trkpt lat="44.160931153731156" lon="9.759259411779874"><ele>133.0</ele><time>2026-04-25T18:15:07.999Z</time></trkpt><trkpt lat="44.16082983848896" lon="9.759343267046294"><ele>133.0</ele><time>2026-04-25T18:15:08.999Z</time></trkpt><trkpt lat="44.16072669808763" lon="9.759427579984752"><ele>134.25</ele><time>2026-04-25T18:15:09.999Z</time></trkpt><trkpt lat="44.16062188858586" lon="9.759514055686838"><ele>135.5</ele><time>2026-04-25T18:15:10.999Z</time></trkpt><trkpt lat="44.16051515467109" lon="9.759602525000286"><ele>136.75</ele><time>2026-04-25T18:15:11.999Z</time></trkpt><trkpt lat="44.16040744577388" lon="9.759690861646572"><ele>138.0</ele><time>2026-04-25T18:15:12.999Z</time></trkpt><trkpt lat="44.160300149362484" lon="9.759781390869293"><ele>138.0</ele><time>2026-04-25T18:15:13.999Z</time></trkpt><trkpt lat="44.16019609464761" lon="9.759870444208694"><ele>138.0</ele><time>2026-04-25T18:15:14.999Z</time></trkpt><trkpt lat="44.160094525275646" lon="9.759959264484458"><ele>138.0</ele><time>2026-04-25T18:15:15.999Z</time></trkpt><trkpt lat="44.15999245101295" lon="9.760044287529611"><ele>138.0</ele><time>2026-04-25T18:15:16.999Z</time></trkpt><trkpt lat="44.15989005208687" lon="9.760129283021342"><ele>138.75</ele><time>2026-04-25T18:15:17.999Z</time></trkpt><trkpt lat="44.15978660405135" lon="9.760217528320211"><ele>139.5</ele><time>2026-04-25T18:15:18.999Z</time></trkpt><trkpt lat="44.1596790917764" lon="9.760307202139868"><ele>140.25</ele><time>2026-04-25T18:15:19.999Z</time></trkpt><trkpt lat="44.159570971593425" lon="9.760399726123294"><ele>141.0</ele><time>2026-04-25T18:15:20.999Z</time></trkpt><trkpt lat="44.159461371238294" lon="9.760492258909244"><ele>141.0</ele><time>2026-04-25T18:15:21.999Z</time></trkpt><trkpt lat="44.15935210207669" lon="9.760583487596621"><ele>141.0</ele><time>2026-04-25T18:15:22.999Z</time></trkpt><trkpt lat="44.1592460780874" lon="9.760670983531686"><ele>141.0</ele><time>2026-04-25T18:15:23.999Z</time></trkpt><trkpt lat="44.15914112447431" lon="9.760759922798874"><ele>141.0</ele><time>2026-04-25T18:15:24.999Z</time></trkpt><trkpt lat="44.1590371280728" lon="9.760849410544798"><ele>141.0</ele><time>2026-04-25T18:15:25.999Z</time></trkpt><trkpt lat="44.15893161749968" lon="9.760934941557228"><ele>141.0</ele><time>2026-04-25T18:15:26.999Z</time></trkpt><trkpt lat="44.15882649931738" lon="9.761022109614734"><ele>141.0</ele><time>2026-04-25T18:15:27.999Z</time></trkpt><trkpt lat="44.158720205556826" lon="9.761108614303788"><ele>141.0</ele><time>2026-04-25T18:15:28.999Z</time></trkpt><trkpt lat="44.15861425217539" lon="9.761196473316957"><ele>141.25</ele><time>2026-04-25T18:15:29.999Z</time></trkpt><trkpt lat="44.15850811662658" lon="9.761282187390547"><ele>141.5</ele><time>2026-04-25T18:15:30.999Z</time></trkpt><trkpt lat="44.15840075238049" lon="9.761369123230482"><ele>141.75</ele><time>2026-04-25T18:15:31.999Z</time></trkpt><trkpt lat="44.15830222878548" lon="9.761456562859436"><ele>142.0</ele><time>2026-04-25T18:15:32.999Z</time></trkpt><trkpt lat="44.1581989835592" lon="9.761537769659643"><ele>141.0</ele><time>2026-04-25T18:15:33.999Z</time></trkpt><trkpt lat="44.15809843562114" lon="9.761619146822017"><ele>140.0</ele><time>2026-04-25T18:15:34.999Z</time></trkpt><trkpt lat="44.15800038079448" lon="9.761703520875809"><ele>139.0</ele><time>2026-04-25T18:15:35.999Z</time></trkpt><trkpt lat="44.15790207679655" lon="9.76178610260281"><ele>138.0</ele><time>2026-04-25T18:15:36.999Z</time></trkpt><trkpt lat="44.15780415931173" lon="9.761864171671489"><ele>139.0</ele><time>2026-04-25T18:15:37.999Z</time></trkpt><trkpt lat="44.157707896236026" lon="9.761943026751949"><ele>140.0</ele><time>2026-04-25T18:15:38.999Z</time></trkpt><trkpt lat="44.157611898127314" lon="9.762023673985647"><ele>141.0</ele><time>2026-04-25T18:15:39.999Z</time></trkpt><trkpt lat="44.15751431889784" lon="9.762106099069957"><ele>142.0</ele><time>2026-04-25T18:15:40.999Z</time></trkpt><trkpt lat="44.15741601564102" lon="9.762188007821054"><ele>141.5</ele><time>2026-04-25T18:15:41.999Z</time></trkpt><trkpt lat="44.157317601711625" lon="9.7622694760943"><ele>141.0</ele><time>2026-04-25T18:15:42.999Z</time></trkpt><trkpt lat="44.1572181373524" lon="9.762351244506016"><ele>140.5</ele><time>2026-04-25T18:15:43.999Z</time></trkpt><trkpt lat="44.15711586166735" lon="9.762434364141091"><ele>140.0</ele><time>2026-04-25T18:15:44.999Z</time></trkpt><trkpt lat="44.15701496503194" lon="9.76251688825575"><ele>140.0</ele><time>2026-04-25T18:15:45.999Z</time></trkpt><trkpt lat="44.15691231625261" lon="9.762603297256147"><ele>140.0</ele><time>2026-04-25T18:15:46.999Z</time></trkpt><trkpt lat="44.15680897232604" lon="9.762691358093116"><ele>140.0</ele><time>2026-04-25T18:15:47.999Z</time></trkpt><trkpt lat="44.15670361948891" lon="9.762781638257545"><ele>140.0</ele><time>2026-04-25T18:15:48.999Z</time></trkpt><trkpt lat="44.1565956323878" lon="9.762869952086852"><ele>140.75</ele><time>2026-04-25T18:15:49.999Z</time></trkpt><trkpt lat="44.1564887058956" lon="9.76295692310374"><ele>141.5</ele><time>2026-04-25T18:15:50.999Z</time></trkpt><trkpt lat="44.15638281980862" lon="9.763045896996239"><ele>142.25</ele><time>2026-04-25T18:15:51.999Z</time></trkpt><trkpt lat="44.15627777316812" lon="9.763132990995832"><ele>143.0</ele><time>2026-04-25T18:15:52.999Z</time></trkpt><trkpt lat="44.15617202231199" lon="9.763220669283271"><ele>143.0</ele><time>2026-04-25T18:15:53.999Z</time></trkpt><trkpt lat="44.156067647424194" lon="9.763307249545134"><ele>143.0</ele><time>2026-04-25T18:15:54.999Z</time></trkpt><trkpt lat="44.155964824806134" lon="9.76339489285903"><ele>143.0</ele><time>2026-04-25T18:15:55.999Z</time></trkpt><trkpt lat="44.15586255700093" lon="9.763477755700373"><ele>143.0</ele><time>2026-04-25T18:15:56.999Z</time></trkpt><trkpt lat="44.155761739963815" lon="9.763565575416452"><ele>143.0</ele><time>2026-04-25T18:15:57.999Z</time></trkpt><trkpt lat="44.1556623903107" lon="9.763645730231804"><ele>143.0</ele><time>2026-04-25T18:15:58.999Z</time></trkpt><trkpt lat="44.15556432335542" lon="9.763729642823607"><ele>143.0</ele><time>2026-04-25T18:15:59.999Z</time></trkpt><trkpt lat="44.15546887072925" lon="9.763812426697593"><ele>143.0</ele><time>2026-04-25T18:16:00.999Z</time></trkpt><trkpt lat="44.15537177182082" lon="9.763891297919214"><ele>143.0</ele><time>2026-04-25T18:16:01.999Z</time></trkpt><trkpt lat="44.15527532824195" lon="9.763974789389245"><ele>143.0</ele><time>2026-04-25T18:16:02.999Z</time></trkpt><trkpt lat="44.15517654081396" lon="9.764057490619294"><ele>143.0</ele><time>2026-04-25T18:16:03.999Z</time></trkpt><trkpt lat="44.155072599286534" lon="9.764136275506019"><ele>143.0</ele><time>2026-04-25T18:16:04.999Z</time></trkpt><trkpt lat="44.154973680070384" lon="9.764225826155322"><ele>143.0</ele><time>2026-04-25T18:16:05.998Z</time></trkpt><trkpt lat="44.15487376962407" lon="9.764308354747477"><ele>143.0</ele><time>2026-04-25T18:16:06.998Z</time></trkpt><trkpt lat="44.15477266109574" lon="9.764389662035777"><ele>143.0</ele><time>2026-04-25T18:16:07.998Z</time></trkpt><trkpt lat="44.15466990035993" lon="9.764468563753729"><ele>143.0</ele><time>2026-04-25T18:16:08.998Z</time></trkpt><trkpt lat="44.15456036216317" lon="9.76454366253554"><ele>144.5</ele><time>2026-04-25T18:16:09.998Z</time></trkpt><trkpt lat="44.15445153142866" lon="9.764606703550248"><ele>146.0</ele><time>2026-04-25T18:16:10.998Z</time></trkpt><trkpt lat="44.15433831521203" lon="9.764658764762048"><ele>147.5</ele><time>2026-04-25T18:16:11.998Z</time></trkpt><trkpt lat="44.15422544119404" lon="9.76471373520621"><ele>149.0</ele><time>2026-04-25T18:16:12.998Z</time></trkpt><trkpt lat="44.154114411540164" lon="9.76476800213212"><ele>149.0</ele><time>2026-04-25T18:16:13.998Z</time></trkpt><trkpt lat="44.15400224198795" lon="9.764819905428402"><ele>149.0</ele><time>2026-04-25T18:16:14.998Z</time></trkpt><trkpt lat="44.1538882665837" lon="9.764875045069337"><ele>149.0</ele><time>2026-04-25T18:16:15.998Z</time></trkpt><trkpt lat="44.15377649416171" lon="9.764930091389221"><ele>149.0</ele><time>2026-04-25T18:16:16.998Z</time></trkpt><trkpt lat="44.153665711476876" lon="9.764984447979371"><ele>149.0</ele><time>2026-04-25T18:16:17.998Z</time></trkpt><trkpt lat="44.153560542155695" lon="9.765032468428473"><ele>149.0</ele><time>2026-04-25T18:16:18.998Z</time></trkpt><trkpt lat="44.15345911556273" lon="9.765068997977146"><ele>149.0</ele><time>2026-04-25T18:16:19.998Z</time></trkpt><trkpt lat="44.15336683479484" lon="9.765106712740225"><ele>149.0</ele><time>2026-04-25T18:16:20.998Z</time></trkpt><trkpt lat="44.15328223133324" lon="9.765147769441334"><ele>149.0</ele><time>2026-04-25T18:16:22Z</time></trkpt><trkpt lat="44.153186826507124" lon="9.765203826350248"><ele>152.0</ele><time>2026-04-25T18:16:23Z</time></trkpt><trkpt lat="44.15307576176539" lon="9.76526153036375"><ele>155.0</ele><time>2026-04-25T18:16:24Z</time></trkpt><trkpt lat="44.152951662334445" lon="9.765319315801344"><ele>158.0</ele><time>2026-04-25T18:16:25Z</time></trkpt><trkpt lat="44.15282216180299" lon="9.765381768380026"><ele>161.0</ele><time>2026-04-25T18:16:26Z</time></trkpt><trkpt lat="44.15269061501218" lon="9.765441691325185"><ele>161.0</ele><time>2026-04-25T18:16:27Z</time></trkpt><trkpt lat="44.152560541526675" lon="9.765487688446571"><ele>161.0</ele><time>2026-04-25T18:16:28Z</time></trkpt><trkpt lat="44.15243481033897" lon="9.765546692298313"><ele>161.0</ele><time>2026-04-25T18:16:29Z</time></trkpt><trkpt lat="44.15232269197443" lon="9.765600901353823"><ele>161.0</ele><time>2026-04-25T18:16:30Z</time></trkpt><trkpt lat="44.152221065838084" lon="9.76567615933202"><ele>162.75</ele><time>2026-04-25T18:16:31Z</time></trkpt><trkpt lat="44.15211291800456" lon="9.765726926341399"><ele>164.5</ele><time>2026-04-25T18:16:32Z</time></trkpt><trkpt lat="44.15200123381865" lon="9.765740337739452"><ele>166.25</ele><time>2026-04-25T18:16:33Z</time></trkpt><trkpt lat="44.151880510253804" lon="9.765741257718291"><ele>168.0</ele><time>2026-04-25T18:16:34Z</time></trkpt><trkpt lat="44.15175729855396" lon="9.765740575545093"><ele>168.0</ele><time>2026-04-25T18:16:35Z</time></trkpt><trkpt lat="44.15158052415685" lon="9.765760150692728"><ele>168.0</ele><time>2026-04-25T18:16:36Z</time></trkpt><trkpt lat="44.15139434354269" lon="9.765751044354793"><ele>168.0</ele><time>2026-04-25T18:16:37Z</time></trkpt><trkpt lat="44.151214476655596" lon="9.765729123603245"><ele>169.33333333333334</ele><time>2026-04-25T18:16:38Z</time></trkpt><trkpt lat="44.15105163621098" lon="9.765692580980637"><ele>170.66666666666669</ele><time>2026-04-25T18:16:39Z</time></trkpt><trkpt lat="44.150898186982985" lon="9.765646891277937"><ele>172.0</ele><time>2026-04-25T18:16:40Z</time></trkpt><trkpt lat="44.150748712739585" lon="9.765622872994946"><ele>173.33333333333334</ele><time>2026-04-25T18:16:41Z</time></trkpt><trkpt lat="44.15058596214104" lon="9.765632739245163"><ele>174.66666666666666</ele><time>2026-04-25T18:16:42Z</time></trkpt><trkpt lat="44.15041830825737" lon="9.76566639286778"><ele>176.0</ele><time>2026-04-25T18:16:43Z</time></trkpt><trkpt lat="44.15025787925334" lon="9.765714769334048"><ele>176.0</ele><time>2026-04-25T18:16:44Z</time></trkpt><trkpt lat="44.1501108933945" lon="9.765772376293942"><ele>176.0</ele><time>2026-04-25T18:16:45Z</time></trkpt><trkpt lat="44.14995414199165" lon="9.765857559529142"><ele>176.0</ele><time>2026-04-25T18:16:46Z</time></trkpt><trkpt lat="44.14979501340663" lon="9.765978611517522"><ele>179.33333333333331</ele><time>2026-04-25T18:16:47Z</time></trkpt><trkpt lat="44.1496414727072" lon="9.766128327484363"><ele>182.66666666666666</ele><time>2026-04-25T18:16:48Z</time></trkpt><trkpt lat="44.149515612999394" lon="9.766279034470212"><ele>186.0</ele><time>2026-04-25T18:16:49Z</time></trkpt><trkpt lat="44.149400374012735" lon="9.766373364941028"><ele>186.0</ele><time>2026-04-25T18:16:50Z</time></trkpt><trkpt lat="44.14925929821703" lon="9.766413757615652"><ele>186.0</ele><time>2026-04-25T18:16:51Z</time></trkpt><trkpt lat="44.14910061555211" lon="9.766423617793839"><ele>186.0</ele><time>2026-04-25T18:16:52Z</time></trkpt><trkpt lat="44.1489462891058" lon="9.766456215904968"><ele>185.66666666666666</ele><time>2026-04-25T18:16:53Z</time></trkpt><trkpt lat="44.14879626855786" lon="9.766532396710605"><ele>185.33333333333331</ele><time>2026-04-25T18:16:54Z</time></trkpt><trkpt lat="44.14864830772586" lon="9.766639771166497"><ele>185.0</ele><time>2026-04-25T18:16:55Z</time></trkpt><trkpt lat="44.14850613180303" lon="9.766720796861845"><ele>185.0</ele><time>2026-04-25T18:16:56Z</time></trkpt><trkpt lat="44.148381262316825" lon="9.76676044764317"><ele>185.0</ele><time>2026-04-25T18:16:57Z</time></trkpt><trkpt lat="44.14826352495633" lon="9.766748071520999"><ele>185.0</ele><time>2026-04-25T18:16:57.999Z</time></trkpt><trkpt lat="44.148148026219644" lon="9.766684710213983"><ele>185.0</ele><time>2026-04-25T18:16:58.999Z</time></trkpt><trkpt lat="44.14803647571871" lon="9.76657281019356"><ele>185.0</ele><time>2026-04-25T18:16:59.999Z</time></trkpt><trkpt lat="44.1479108606797" lon="9.766455323484987"><ele>185.0</ele><time>2026-04-25T18:17:00.999Z</time></trkpt><trkpt lat="44.14776131069263" lon="9.766371084899035"><ele>185.0</ele><time>2026-04-25T18:17:01.999Z</time></trkpt><trkpt lat="44.14759430338606" lon="9.766309490036504"><ele>185.0</ele><time>2026-04-25T18:17:02.999Z</time></trkpt><trkpt lat="44.14742260923682" lon="9.76623727187937"><ele>185.0</ele><time>2026-04-25T18:17:03.999Z</time></trkpt><trkpt lat="44.1472438712048" lon="9.766167272498498"><ele>185.0</ele><time>2026-04-25T18:17:04.999Z</time></trkpt><trkpt lat="44.147088870019" lon="9.766104557657814"><ele>185.25</ele><time>2026-04-25T18:17:05.999Z</time></trkpt><trkpt lat="44.14695298159075" lon="9.76604544151253"><ele>185.5</ele><time>2026-04-25T18:17:06.999Z</time></trkpt><trkpt lat="44.14683945343363" lon="9.766016473041617"><ele>185.75</ele><time>2026-04-25T18:17:07.999Z</time></trkpt><trkpt lat="44.146732536976586" lon="9.76603315480653"><ele>186.0</ele><time>2026-04-25T18:17:08.999Z</time></trkpt><trkpt lat="44.146605973094275" lon="9.766088816759583"><ele>186.0</ele><time>2026-04-25T18:17:09.999Z</time></trkpt><trkpt lat="44.14647165647145" lon="9.766162383046101"><ele>186.0</ele><time>2026-04-25T18:17:10.999Z</time></trkpt><trkpt lat="44.14635809453774" lon="9.766241429974093"><ele>186.0</ele><time>2026-04-25T18:17:11.999Z</time></trkpt><trkpt lat="44.14627608657368" lon="9.766346001251597"><ele>186.0</ele><time>2026-04-25T18:17:12.999Z</time></trkpt><trkpt lat="44.146223269174605" lon="9.766490902153315"><ele>186.0</ele><time>2026-04-25T18:17:13.999Z</time></trkpt><trkpt lat="44.146180292391925" lon="9.766678077216891"><ele>186.0</ele><time>2026-04-25T18:17:14.999Z</time></trkpt><trkpt lat="44.14612730472346" lon="9.766884651021444"><ele>186.0</ele><time>2026-04-25T18:17:15.999Z</time></trkpt><trkpt lat="44.14601982458111" lon="9.767048569628665"><ele>186.66666666666666</ele><time>2026-04-25T18:17:16.999Z</time></trkpt><trkpt lat="44.14588956237176" lon="9.767206850795429"><ele>187.33333333333331</ele><time>2026-04-25T18:17:17.999Z</time></trkpt><trkpt lat="44.14579224112159" lon="9.767403181919164"><ele>188.0</ele><time>2026-04-25T18:17:18.999Z</time></trkpt><trkpt lat="44.14571110016532" lon="9.767575040043956"><ele>189.25</ele><time>2026-04-25T18:17:19.999Z</time></trkpt><trkpt lat="44.14563633194609" lon="9.767734479221195"><ele>190.5</ele><time>2026-04-25T18:17:20.999Z</time></trkpt><trkpt lat="44.14553344595097" lon="9.767854860663123"><ele>191.75</ele><time>2026-04-25T18:17:21.999Z</time></trkpt><trkpt lat="44.1453948398782" lon="9.767901241191211"><ele>193.0</ele><time>2026-04-25T18:17:22.999Z</time></trkpt><trkpt lat="44.14525818065564" lon="9.767943290972116"><ele>193.0</ele><time>2026-04-25T18:17:23.999Z</time></trkpt><trkpt lat="44.14514685717188" lon="9.768009074053788"><ele>193.0</ele><time>2026-04-25T18:17:24.999Z</time></trkpt><trkpt lat="44.14506390474383" lon="9.768094318911864"><ele>193.0</ele><time>2026-04-25T18:17:25.999Z</time></trkpt><trkpt lat="44.14500548812833" lon="9.768230620644403"><ele>193.0</ele><time>2026-04-25T18:17:26.999Z</time></trkpt><trkpt lat="44.14496176525956" lon="9.768404661309976"><ele>193.5</ele><time>2026-04-25T18:17:27.999Z</time></trkpt><trkpt lat="44.14492608048816" lon="9.768609259402751"><ele>194.0</ele><time>2026-04-25T18:17:28.999Z</time></trkpt><trkpt lat="44.14486086167056" lon="9.768796368077421"><ele>194.5</ele><time>2026-04-25T18:17:29.999Z</time></trkpt><trkpt lat="44.14481616754008" lon="9.768965138148927"><ele>195.0</ele><time>2026-04-25T18:17:30.999Z</time></trkpt><trkpt lat="44.144715042752395" lon="9.769047691927117"><ele>195.25</ele><time>2026-04-25T18:17:31.999Z</time></trkpt><trkpt lat="44.14462581682417" lon="9.769115535485676"><ele>195.5</ele><time>2026-04-25T18:17:32.999Z</time></trkpt><trkpt lat="44.144517820709005" lon="9.769138298980604"><ele>195.75</ele><time>2026-04-25T18:17:33.999Z</time></trkpt><trkpt lat="44.14439230895171" lon="9.769145685143325"><ele>196.0</ele><time>2026-04-25T18:17:34.999Z</time></trkpt><trkpt lat="44.1442567499571" lon="9.769087877721992"><ele>196.0</ele><time>2026-04-25T18:17:35.999Z</time></trkpt><trkpt lat="44.14410763610723" lon="9.769042665463084"><ele>196.0</ele><time>2026-04-25T18:17:36.999Z</time></trkpt><trkpt lat="44.143937524582945" lon="9.769051539597998"><ele>196.0</ele><time>2026-04-25T18:17:37.999Z</time></trkpt><trkpt lat="44.143766261744034" lon="9.769089579461816"><ele>194.66666666666666</ele><time>2026-04-25T18:17:38.999Z</time></trkpt><trkpt lat="44.143611345070866" lon="9.769148047303219"><ele>193.33333333333331</ele><time>2026-04-25T18:17:39.999Z</time></trkpt><trkpt lat="44.14346687310347" lon="9.769225177087868"><ele>192.0</ele><time>2026-04-25T18:17:40.999Z</time></trkpt><trkpt lat="44.143338055759" lon="9.769315122957522"><ele>190.25</ele><time>2026-04-25T18:17:41.999Z</time></trkpt><trkpt lat="44.143222558412944" lon="9.769428433220519"><ele>188.5</ele><time>2026-04-25T18:17:42.999Z</time></trkpt><trkpt lat="44.143117479438345" lon="9.769580854935823"><ele>186.75</ele><time>2026-04-25T18:17:43.999Z</time></trkpt><trkpt lat="44.1430328390139" lon="9.769759618067207"><ele>185.0</ele><time>2026-04-25T18:17:44.999Z</time></trkpt><trkpt lat="44.14296255430474" lon="9.76997363747921"><ele>186.66666666666666</ele><time>2026-04-25T18:17:45.999Z</time></trkpt><trkpt lat="44.14291256653582" lon="9.770223581673324"><ele>188.33333333333334</ele><time>2026-04-25T18:17:46.999Z</time></trkpt><trkpt lat="44.14284500499889" lon="9.770479050114506"><ele>190.0</ele><time>2026-04-25T18:17:47.999Z</time></trkpt><trkpt lat="44.14279589627793" lon="9.770714856137944"><ele>190.0</ele><time>2026-04-25T18:17:48.999Z</time></trkpt><trkpt lat="44.14274876521154" lon="9.770887226351514"><ele>190.0</ele><time>2026-04-25T18:17:49.999Z</time></trkpt><trkpt lat="44.14269822112556" lon="9.770995316995457"><ele>190.0</ele><time>2026-04-25T18:17:50.999Z</time></trkpt><trkpt lat="44.14261489119723" lon="9.77106737492874"><ele>190.0</ele><time>2026-04-25T18:17:51.999Z</time></trkpt><trkpt lat="44.14249834362054" lon="9.771153223346065"><ele>189.25</ele><time>2026-04-25T18:17:52.999Z</time></trkpt><trkpt lat="44.1423731040804" lon="9.77127289291563"><ele>188.5</ele><time>2026-04-25T18:17:53.999Z</time></trkpt><trkpt lat="44.14224909701541" lon="9.771363220133905"><ele>187.75</ele><time>2026-04-25T18:17:54.999Z</time></trkpt><trkpt lat="44.14214156839071" lon="9.77145058099608"><ele>187.0</ele><time>2026-04-25T18:17:55.999Z</time></trkpt><trkpt lat="44.14204649465355" lon="9.771532506435788"><ele>187.0</ele><time>2026-04-25T18:17:56.999Z</time></trkpt><trkpt lat="44.14198587700252" lon="9.771633275795256"><ele>187.0</ele><time>2026-04-25T18:17:57.999Z</time></trkpt><trkpt lat="44.14195933481031" lon="9.771777080578088"><ele>187.0</ele><time>2026-04-25T18:17:58.999Z</time></trkpt><trkpt lat="44.14195799075384" lon="9.771948380455454"><ele>187.0</ele><time>2026-04-25T18:17:59.999Z</time></trkpt><trkpt lat="44.14197905845531" lon="9.772137030775331"><ele>188.0</ele><time>2026-04-25T18:18:00.999Z</time></trkpt><trkpt lat="44.142016685280716" lon="9.772327276764933"><ele>189.0</ele><time>2026-04-25T18:18:01.999Z</time></trkpt><trkpt lat="44.142078608496966" lon="9.772489570449986"><ele>190.0</ele><time>2026-04-25T18:18:02.999Z</time></trkpt><trkpt lat="44.142111759942324" lon="9.77262409361879"><ele>191.0</ele><time>2026-04-25T18:18:03.999Z</time></trkpt><trkpt lat="44.142093331037515" lon="9.772743177110017"><ele>191.60000000000002</ele><time>2026-04-25T18:18:04.999Z</time></trkpt><trkpt lat="44.14203643448393" lon="9.772840813217508"><ele>192.2</ele><time>2026-04-25T18:18:05.999Z</time></trkpt><trkpt lat="44.1419318605014" lon="9.77285951246056"><ele>192.8</ele><time>2026-04-25T18:18:06.999Z</time></trkpt><trkpt lat="44.14183847691462" lon="9.77293486737515"><ele>193.39999999999998</ele><time>2026-04-25T18:18:07.999Z</time></trkpt><trkpt lat="44.14175801163794" lon="9.773008359158295"><ele>194.0</ele><time>2026-04-25T18:18:08.999Z</time></trkpt><trkpt lat="44.14172273239997" lon="9.77312096961244"><ele>194.0</ele><time>2026-04-25T18:18:09.999Z</time></trkpt><trkpt lat="44.14172499214763" lon="9.7732664356722"><ele>194.0</ele><time>2026-04-25T18:18:10.999Z</time></trkpt><trkpt lat="44.14176171369612" lon="9.773432158492522"><ele>194.0</ele><time>2026-04-25T18:18:11.999Z</time></trkpt><trkpt lat="44.141835319350314" lon="9.773593984052333"><ele>194.0</ele><time>2026-04-25T18:18:12.998Z</time></trkpt><trkpt lat="44.1419213545513" lon="9.773732579582148"><ele>195.83333333333334</ele><time>2026-04-25T18:18:13.998Z</time></trkpt><trkpt lat="44.14196797998416" lon="9.773846763075495"><ele>197.66666666666669</ele><time>2026-04-25T18:18:14.998Z</time></trkpt><trkpt lat="44.14196088635771" lon="9.7739463232678"><ele>199.5</ele><time>2026-04-25T18:18:15.998Z</time></trkpt><trkpt lat="44.1419057642757" lon="9.774022021327841"><ele>201.33333333333331</ele><time>2026-04-25T18:18:16.998Z</time></trkpt><trkpt lat="44.1418240884607" lon="9.774062115219522"><ele>203.16666666666666</ele><time>2026-04-25T18:18:17.998Z</time></trkpt><trkpt lat="44.14171432126972" lon="9.774015823827824"><ele>205.0</ele><time>2026-04-25T18:18:18.998Z</time></trkpt><trkpt lat="44.14157151863612" lon="9.77402756481153"><ele>203.33333333333331</ele><time>2026-04-25T18:18:19.998Z</time></trkpt><trkpt lat="44.14140877229054" lon="9.774009125477932"><ele>201.66666666666669</ele><time>2026-04-25T18:18:20.998Z</time></trkpt><trkpt lat="44.14124173484732" lon="9.774005739546435"><ele>200.0</ele><time>2026-04-25T18:18:21.998Z</time></trkpt><trkpt lat="44.141046507065255" lon="9.774003138239076"><ele>200.0</ele><time>2026-04-25T18:18:22.998Z</time></trkpt><trkpt lat="44.14082548627811" lon="9.774002033718817"><ele>200.0</ele><time>2026-04-25T18:18:23.998Z</time></trkpt><trkpt lat="44.14059125113972" lon="9.774002951130425"><ele>201.0</ele><time>2026-04-25T18:18:24.998Z</time></trkpt><trkpt lat="44.14038265924466" lon="9.774000328723847"><ele>202.0</ele><time>2026-04-25T18:18:25.998Z</time></trkpt><trkpt lat="44.14018718638788" lon="9.773992284283965"><ele>203.0</ele><time>2026-04-25T18:18:26.998Z</time></trkpt><trkpt lat="44.14000025293496" lon="9.773985475782847"><ele>199.33333333333334</ele><time>2026-04-25T18:18:28Z</time></trkpt><trkpt lat="44.13982779892256" lon="9.773987784405787"><ele>195.66666666666669</ele><time>2026-04-25T18:18:29Z</time></trkpt><trkpt lat="44.13967209661686" lon="9.774002171712668"><ele>192.0</ele><time>2026-04-25T18:18:30Z</time></trkpt><trkpt lat="44.139517866547855" lon="9.774051419681914"><ele>192.0</ele><time>2026-04-25T18:18:31Z</time></trkpt><trkpt lat="44.139357561884395" lon="9.774138813990588"><ele>192.0</ele><time>2026-04-25T18:18:32Z</time></trkpt><trkpt lat="44.139211949397264" lon="9.774256259323069"><ele>192.0</ele><time>2026-04-25T18:18:33Z</time></trkpt><trkpt lat="44.13906440885025" lon="9.774414305617332"><ele>193.33333333333331</ele><time>2026-04-25T18:18:34Z</time></trkpt><trkpt lat="44.1389126570038" lon="9.774605987911547"><ele>194.66666666666666</ele><time>2026-04-25T18:18:35Z</time></trkpt><trkpt lat="44.13874235662593" lon="9.774769527699718"><ele>196.0</ele><time>2026-04-25T18:18:36Z</time></trkpt><trkpt lat="44.1385844932438" lon="9.774948128498812"><ele>196.0</ele><time>2026-04-25T18:18:37Z</time></trkpt><trkpt lat="44.13842217911112" lon="9.775075413786379"><ele>196.0</ele><time>2026-04-25T18:18:38Z</time></trkpt><trkpt lat="44.138251112645726" lon="9.775175321281226"><ele>196.0</ele><time>2026-04-25T18:18:39Z</time></trkpt><trkpt lat="44.138083329260816" lon="9.775240406464857"><ele>205.0</ele><time>2026-04-25T18:18:40Z</time></trkpt><trkpt lat="44.137906196839964" lon="9.775276135487667"><ele>214.0</ele><time>2026-04-25T18:18:41Z</time></trkpt><trkpt lat="44.13772257098029" lon="9.775285192205578"><ele>223.0</ele><time>2026-04-25T18:18:42Z</time></trkpt><trkpt lat="44.137550715947356" lon="9.775290894236207"><ele>223.0</ele><time>2026-04-25T18:18:43Z</time></trkpt><trkpt lat="44.13740751415296" lon="9.775316931293165"><ele>223.0</ele><time>2026-04-25T18:18:44Z</time></trkpt><trkpt lat="44.13729444043734" lon="9.775370434896539"><ele>223.0</ele><time>2026-04-25T18:18:45Z</time></trkpt><trkpt lat="44.13720370237268" lon="9.775454696337762"><ele>223.0</ele><time>2026-04-25T18:18:46Z</time></trkpt><trkpt lat="44.13712840125543" lon="9.775584891900854"><ele>222.0</ele><time>2026-04-25T18:18:47Z</time></trkpt><trkpt lat="44.1370561310301" lon="9.775734969895936"><ele>221.0</ele><time>2026-04-25T18:18:48Z</time></trkpt><trkpt lat="44.136966454232656" lon="9.775848562934877"><ele>220.0</ele><time>2026-04-25T18:18:49Z</time></trkpt><trkpt lat="44.13684742159236" lon="9.775872914378585"><ele>219.0</ele><time>2026-04-25T18:18:50Z</time></trkpt><trkpt lat="44.13672094705305" lon="9.77591460516742"><ele>219.0</ele><time>2026-04-25T18:18:51Z</time></trkpt><trkpt lat="44.13656895924415" lon="9.775893588977448"><ele>219.0</ele><time>2026-04-25T18:18:52Z</time></trkpt><trkpt lat="44.136397324038576" lon="9.775861055709427"><ele>219.0</ele><time>2026-04-25T18:18:53Z</time></trkpt><trkpt lat="44.136232192813885" lon="9.775837864646013"><ele>218.5</ele><time>2026-04-25T18:18:54Z</time></trkpt><trkpt lat="44.136080864922015" lon="9.775804025155626"><ele>218.0</ele><time>2026-04-25T18:18:55Z</time></trkpt><trkpt lat="44.135935796579616" lon="9.775742408912205"><ele>217.5</ele><time>2026-04-25T18:18:56Z</time></trkpt><trkpt lat="44.135810119109486" lon="9.775659149999209"><ele>217.0</ele><time>2026-04-25T18:18:57Z</time></trkpt><trkpt lat="44.13569108843508" lon="9.77561070671639"><ele>217.0</ele><time>2026-04-25T18:18:58Z</time></trkpt><trkpt lat="44.135584158620645" lon="9.77557346254213"><ele>217.0</ele><time>2026-04-25T18:18:59Z</time></trkpt><trkpt lat="44.135474826169315" lon="9.775506618857088"><ele>217.0</ele><time>2026-04-25T18:19:00Z</time></trkpt><trkpt lat="44.13537494758201" lon="9.77540674292086"><ele>217.0</ele><time>2026-04-25T18:19:00.999Z</time></trkpt><trkpt lat="44.13528062616056" lon="9.77530866161986"><ele>217.0</ele><time>2026-04-25T18:19:01.999Z</time></trkpt><trkpt lat="44.13517644997997" lon="9.775216157611087"><ele>217.0</ele><time>2026-04-25T18:19:02.999Z</time></trkpt><trkpt lat="44.13503102994539" lon="9.77524834332469"><ele>217.0</ele><time>2026-04-25T18:19:03.999Z</time></trkpt><trkpt lat="44.13490544889823" lon="9.77525887530776"><ele>217.0</ele><time>2026-04-25T18:19:04.999Z</time></trkpt><trkpt lat="44.13477268575442" lon="9.775210927037786"><ele>217.39999999999998</ele><time>2026-04-25T18:19:05.999Z</time></trkpt><trkpt lat="44.13467091308127" lon="9.775126197209973"><ele>217.79999999999998</ele><time>2026-04-25T18:19:06.999Z</time></trkpt><trkpt lat="44.13456551870695" lon="9.775065574351213"><ele>218.2</ele><time>2026-04-25T18:19:07.999Z</time></trkpt><trkpt lat="44.13452595972665" lon="9.77514699564494"><ele>218.6</ele><time>2026-04-25T18:19:08.999Z</time></trkpt><trkpt lat="44.134459272921156" lon="9.775217495467702"><ele>219.0</ele><time>2026-04-25T18:19:09.999Z</time></trkpt><trkpt lat="44.13441781966453" lon="9.775324230618232"><ele>219.0</ele><time>2026-04-25T18:19:10.999Z</time></trkpt><trkpt lat="44.13438944689028" lon="9.775450733895562"><ele>218.99999999999997</ele><time>2026-04-25T18:19:11.999Z</time></trkpt><trkpt lat="44.13438744807613" lon="9.775587565712986"><ele>218.99999999999997</ele><time>2026-04-25T18:19:12.999Z</time></trkpt><trkpt lat="44.13441232476453" lon="9.77574412773168"><ele>219.0</ele><time>2026-04-25T18:19:13.999Z</time></trkpt><trkpt lat="44.13445451177213" lon="9.77590480624984"><ele>219.0</ele><time>2026-04-25T18:19:14.999Z</time></trkpt><trkpt lat="44.13448913784462" lon="9.776045989711456"><ele>217.6</ele><time>2026-04-25T18:19:15.999Z</time></trkpt><trkpt lat="44.13449903040658" lon="9.77618786830353"><ele>216.2</ele><time>2026-04-25T18:19:16.999Z</time></trkpt><trkpt lat="44.13448712406524" lon="9.776322790074762"><ele>214.79999999999998</ele><time>2026-04-25T18:19:17.999Z</time></trkpt><trkpt lat="44.13445818813444" lon="9.776447965100445"><ele>213.39999999999998</ele><time>2026-04-25T18:19:18.999Z</time></trkpt><trkpt lat="44.13440156350975" lon="9.776560922953903"><ele>212.0</ele><time>2026-04-25T18:19:19.999Z</time></trkpt><trkpt lat="44.134323080281476" lon="9.776663594328934"><ele>212.0</ele><time>2026-04-25T18:19:20.999Z</time></trkpt><trkpt lat="44.13424089452858" lon="9.776769030811238"><ele>212.0</ele><time>2026-04-25T18:19:21.999Z</time></trkpt><trkpt lat="44.134173183914605" lon="9.77686618063535"><ele>212.0</ele><time>2026-04-25T18:19:22.999Z</time></trkpt><trkpt lat="44.13411014392474" lon="9.776949800160276"><ele>212.0</ele><time>2026-04-25T18:19:23.999Z</time></trkpt><trkpt lat="44.13408124105881" lon="9.777063128853506"><ele>212.0</ele><time>2026-04-25T18:19:24.999Z</time></trkpt><trkpt lat="44.134119764081284" lon="9.777208411250262"><ele>211.33333333333334</ele><time>2026-04-25T18:19:25.999Z</time></trkpt><trkpt lat="44.134149105200464" lon="9.777348240827958"><ele>210.66666666666669</ele><time>2026-04-25T18:19:26.999Z</time></trkpt><trkpt lat="44.134155204537535" lon="9.777486402656127"><ele>210.0</ele><time>2026-04-25T18:19:27.999Z</time></trkpt><trkpt lat="44.13416200221784" lon="9.777614083023822"><ele>209.33333333333331</ele><time>2026-04-25T18:19:28.999Z</time></trkpt><trkpt lat="44.134155155533044" lon="9.777737334773484"><ele>208.66666666666666</ele><time>2026-04-25T18:19:29.999Z</time></trkpt><trkpt lat="44.134141317684005" lon="9.777823702014278"><ele>208.0</ele><time>2026-04-25T18:19:30.999Z</time></trkpt><trkpt lat="44.13391196140259" lon="9.777826988559706"><ele>207.0</ele><time>2026-04-25T18:19:31.999Z</time></trkpt><trkpt lat="44.13382332653612" lon="9.77790430420748"><ele>206.0</ele><time>2026-04-25T18:19:32.999Z</time></trkpt><trkpt lat="44.13375374689088" lon="9.778032282131011"><ele>205.0</ele><time>2026-04-25T18:19:33.999Z</time></trkpt><trkpt lat="44.133700059793426" lon="9.778191510651425"><ele>204.0</ele><time>2026-04-25T18:19:34.999Z</time></trkpt><trkpt lat="44.13364914038012" lon="9.778390966134076"><ele>203.66666666666669</ele><time>2026-04-25T18:19:35.999Z</time></trkpt><trkpt lat="44.133589437267695" lon="9.778608000625193"><ele>203.33333333333334</ele><time>2026-04-25T18:19:36.999Z</time></trkpt><trkpt lat="44.133511707578705" lon="9.778817497040784"><ele>203.0</ele><time>2026-04-25T18:19:37.999Z</time></trkpt><trkpt lat="44.133459990504825" lon="9.77905757655606"><ele>203.0</ele><time>2026-04-25T18:19:38.999Z</time></trkpt><trkpt lat="44.133379351952016" lon="9.77927451001918"><ele>203.0</ele><time>2026-04-25T18:19:39.999Z</time></trkpt><trkpt lat="44.13331770826996" lon="9.779485322789244"><ele>203.0</ele><time>2026-04-25T18:19:40.999Z</time></trkpt><trkpt lat="44.13325935108162" lon="9.779678341247402"><ele>200.75</ele><time>2026-04-25T18:19:41.999Z</time></trkpt><trkpt lat="44.13320105313492" lon="9.779844716290683"><ele>198.5</ele><time>2026-04-25T18:19:42.999Z</time></trkpt><trkpt lat="44.13311525429896" lon="9.779985502004301"><ele>196.25</ele><time>2026-04-25T18:19:43.999Z</time></trkpt><trkpt lat="44.133011275245494" lon="9.780110699636095"><ele>194.0</ele><time>2026-04-25T18:19:44.999Z</time></trkpt><trkpt lat="44.132900690009194" lon="9.780230754133678"><ele>191.5</ele><time>2026-04-25T18:19:45.999Z</time></trkpt><trkpt lat="44.13280555256025" lon="9.780378500805039"><ele>189.0</ele><time>2026-04-25T18:19:46.999Z</time></trkpt><trkpt lat="44.13274199031449" lon="9.780565085982385"><ele>186.5</ele><time>2026-04-25T18:19:47.999Z</time></trkpt><trkpt lat="44.132694881278674" lon="9.780696875480597"><ele>184.0</ele><time>2026-04-25T18:19:48.999Z</time></trkpt><trkpt lat="44.13265459288293" lon="9.780846003796338"><ele>184.0</ele><time>2026-04-25T18:19:49.999Z</time></trkpt><trkpt lat="44.13260344620421" lon="9.78099142763257"><ele>184.0</ele><time>2026-04-25T18:19:50.999Z</time></trkpt><trkpt lat="44.13254735694388" lon="9.781133259449941"><ele>184.0</ele><time>2026-04-25T18:19:51.999Z</time></trkpt><trkpt lat="44.132480896092886" lon="9.78126014744885"><ele>184.0</ele><time>2026-04-25T18:19:52.999Z</time></trkpt><trkpt lat="44.13241434756829" lon="9.781389715980369"><ele>183.0</ele><time>2026-04-25T18:19:53.999Z</time></trkpt><trkpt lat="44.132329644327314" lon="9.781524322439646"><ele>182.0</ele><time>2026-04-25T18:19:54.999Z</time></trkpt><trkpt lat="44.13222368595023" lon="9.781655063594238"><ele>181.0</ele><time>2026-04-25T18:19:55.999Z</time></trkpt><trkpt lat="44.13209608891763" lon="9.781772009251876"><ele>180.0</ele><time>2026-04-25T18:19:56.999Z</time></trkpt><trkpt lat="44.13194734140507" lon="9.781865842268003"><ele>179.66666666666666</ele><time>2026-04-25T18:19:57.999Z</time></trkpt><trkpt lat="44.13177834289342" lon="9.781948591590607"><ele>179.33333333333331</ele><time>2026-04-25T18:19:58.999Z</time></trkpt><trkpt lat="44.13160497598462" lon="9.782032554399624"><ele>179.0</ele><time>2026-04-25T18:19:59.999Z</time></trkpt><trkpt lat="44.13143643365289" lon="9.782080442349804"><ele>178.66666666666666</ele><time>2026-04-25T18:20:00.999Z</time></trkpt><trkpt lat="44.131274171657566" lon="9.782147336987691"><ele>178.33333333333334</ele><time>2026-04-25T18:20:01.999Z</time></trkpt><trkpt lat="44.13111953303806" lon="9.782239884966588"><ele>178.0</ele><time>2026-04-25T18:20:02.999Z</time></trkpt><trkpt lat="44.130960126720815" lon="9.78230080921889"><ele>178.0</ele><time>2026-04-25T18:20:03.999Z</time></trkpt><trkpt lat="44.13080019975176" lon="9.782378804549145"><ele>178.0</ele><time>2026-04-25T18:20:04.999Z</time></trkpt><trkpt lat="44.1306443205764" lon="9.782464809038668"><ele>178.0</ele><time>2026-04-25T18:20:05.999Z</time></trkpt><trkpt lat="44.130497601567384" lon="9.782554156163204"><ele>178.0</ele><time>2026-04-25T18:20:06.999Z</time></trkpt><trkpt lat="44.13035787228799" lon="9.782647822917484"><ele>178.0</ele><time>2026-04-25T18:20:07.999Z</time></trkpt><trkpt lat="44.13022836117381" lon="9.782744759856548"><ele>178.0</ele><time>2026-04-25T18:20:08.999Z</time></trkpt><trkpt lat="44.130099040829535" lon="9.782854080968214"><ele>178.0</ele><time>2026-04-25T18:20:09.999Z</time></trkpt><trkpt lat="44.12997128811143" lon="9.782970846118262"><ele>178.0</ele><time>2026-04-25T18:20:10.999Z</time></trkpt><trkpt lat="44.129841862436436" lon="9.78309533347475"><ele>178.0</ele><time>2026-04-25T18:20:11.999Z</time></trkpt><trkpt lat="44.12971498745515" lon="9.783225213069407"><ele>178.33333333333334</ele><time>2026-04-25T18:20:12.999Z</time></trkpt><trkpt lat="44.129587715393825" lon="9.783360580500615"><ele>178.66666666666666</ele><time>2026-04-25T18:20:13.999Z</time></trkpt><trkpt lat="44.129464493752074" lon="9.783502508927539"><ele>179.0</ele><time>2026-04-25T18:20:14.998Z</time></trkpt><trkpt lat="44.129344442617594" lon="9.78365501101778"><ele>179.0</ele><time>2026-04-25T18:20:15.998Z</time></trkpt><trkpt lat="44.12921063292991" lon="9.78379217663497"><ele>179.0</ele><time>2026-04-25T18:20:16.998Z</time></trkpt><trkpt lat="44.12908469046216" lon="9.783950257805794"><ele>179.0</ele><time>2026-04-25T18:20:17.998Z</time></trkpt><trkpt lat="44.12897814161451" lon="9.78414954897352"><ele>181.33333333333331</ele><time>2026-04-25T18:20:18.998Z</time></trkpt><trkpt lat="44.12885195636987" lon="9.784315041479669"><ele>183.66666666666666</ele><time>2026-04-25T18:20:19.998Z</time></trkpt><trkpt lat="44.12875727660464" lon="9.784511208854566"><ele>186.0</ele><time>2026-04-25T18:20:20.998Z</time></trkpt><trkpt lat="44.12865639329794" lon="9.784709846685933"><ele>187.33333333333334</ele><time>2026-04-25T18:20:21.998Z</time></trkpt><trkpt lat="44.12855842528164" lon="9.784903798030227"><ele>188.66666666666669</ele><time>2026-04-25T18:20:22.998Z</time></trkpt><trkpt lat="44.12847713641639" lon="9.78509499357967"><ele>190.0</ele><time>2026-04-25T18:20:23.998Z</time></trkpt><trkpt lat="44.12840283872363" lon="9.785291817703246"><ele>192.25</ele><time>2026-04-25T18:20:24.998Z</time></trkpt><trkpt lat="44.1283412166383" lon="9.785472831616914"><ele>194.5</ele><time>2026-04-25T18:20:25.998Z</time></trkpt><trkpt lat="44.128278936797265" lon="9.785667691913552"><ele>196.75</ele><time>2026-04-25T18:20:27.065Z</time></trkpt><trkpt lat="44.12822246717108" lon="9.785861867864215"><ele>199.0</ele><time>2026-04-25T18:20:28.039Z</time></trkpt><trkpt lat="44.128196117648066" lon="9.78599980053828"><ele>218.0</ele><time>2026-04-25T18:20:29.027Z</time></trkpt><trkpt lat="44.128072351876675" lon="9.786792582640732"><ele>223.0</ele><time>2026-04-25T18:20:32.163Z</time></trkpt><trkpt lat="44.12803704494625" lon="9.787027988905713"><ele>228.0</ele><time>2026-04-25T18:20:33.163Z</time></trkpt><trkpt lat="44.12800433754552" lon="9.787264322776535"><ele>233.0</ele><time>2026-04-25T18:20:34.163Z</time></trkpt><trkpt lat="44.12796614563408" lon="9.787500336547087"><ele>238.33333333333334</ele><time>2026-04-25T18:20:35.164Z</time></trkpt><trkpt lat="44.12794647126608" lon="9.787739260124678"><ele>243.66666666666669</ele><time>2026-04-25T18:20:36.164Z</time></trkpt><trkpt lat="44.1279267926585" lon="9.787978235576611"><ele>249.0</ele><time>2026-04-25T18:20:37.164Z</time></trkpt><trkpt lat="44.12793644039889" lon="9.788221257790822"><ele>249.0</ele><time>2026-04-25T18:20:38.164Z</time></trkpt><trkpt lat="44.12791220652701" lon="9.78846031351684"><ele>249.0</ele><time>2026-04-25T18:20:39.163Z</time></trkpt><trkpt lat="44.12792127795022" lon="9.788701622241938"><ele>249.0</ele><time>2026-04-25T18:20:40.163Z</time></trkpt><trkpt lat="44.12789954182456" lon="9.788941424379416"><ele>255.0</ele><time>2026-04-25T18:20:41.163Z</time></trkpt><trkpt lat="44.12789484437895" lon="9.789181910635689"><ele>261.0</ele><time>2026-04-25T18:20:42.163Z</time></trkpt><trkpt lat="44.127906789214926" lon="9.789423054582372"><ele>267.0</ele><time>2026-04-25T18:20:43.163Z</time></trkpt><trkpt lat="44.12788545515215" lon="9.78966272809478"><ele>266.3333333333333</ele><time>2026-04-25T18:20:44.163Z</time></trkpt><trkpt lat="44.12789751914909" lon="9.789903835858457"><ele>265.66666666666663</ele><time>2026-04-25T18:20:45.163Z</time></trkpt><trkpt lat="44.12789293886492" lon="9.79014439000336"><ele>265.0</ele><time>2026-04-25T18:20:46.163Z</time></trkpt><trkpt lat="44.12788835855347" lon="9.790384945581403"><ele>265.0</ele><time>2026-04-25T18:20:47.164Z</time></trkpt><trkpt lat="44.127885249497574" lon="9.790625272041197"><ele>265.0</ele><time>2026-04-25T18:20:48.163Z</time></trkpt><trkpt lat="44.12786624984133" lon="9.790865367805877"><ele>265.0</ele><time>2026-04-25T18:20:49.163Z</time></trkpt><trkpt lat="44.127881" lon="9.7910596"><ele>109.0</ele><time>2026-04-25T18:20:50.163Z</time></trkpt><trkpt lat="44.12249215327219" lon="9.808085210263265"><ele>104.66666666666667</ele><time>2026-04-25T18:22:21.997Z</time></trkpt><trkpt lat="44.12237130346232" lon="9.80821528323053"><ele>100.33333333333334</ele><time>2026-04-25T18:22:22.997Z</time></trkpt><trkpt lat="44.12218246334569" lon="9.808360083808571"><ele>96.0</ele><time>2026-04-25T18:22:23.997Z</time></trkpt><trkpt lat="44.122074152531475" lon="9.80849870897708"><ele>96.0</ele><time>2026-04-25T18:22:24.997Z</time></trkpt><trkpt lat="44.12197922016649" lon="9.808675171850998"><ele>96.0</ele><time>2026-04-25T18:22:25.997Z</time></trkpt><trkpt lat="44.12186518998116" lon="9.808849786296093"><ele>96.0</ele><time>2026-04-25T18:22:26.997Z</time></trkpt><trkpt lat="44.1217562917772" lon="9.809065287775402"><ele>96.0</ele><time>2026-04-25T18:22:28Z</time></trkpt><trkpt lat="44.12166904732743" lon="9.809268771058115"><ele>96.0</ele><time>2026-04-25T18:22:29Z</time></trkpt><trkpt lat="44.12159447976558" lon="9.809474751949233"><ele>96.0</ele><time>2026-04-25T18:22:30Z</time></trkpt><trkpt lat="44.121531372675854" lon="9.809683147855647"><ele>88.66666666666667</ele><time>2026-04-25T18:22:31Z</time></trkpt><trkpt lat="44.121474340561115" lon="9.809905206898128"><ele>81.33333333333334</ele><time>2026-04-25T18:22:32Z</time></trkpt><trkpt lat="44.12144338955394" lon="9.810136805951252"><ele>74.0</ele><time>2026-04-25T18:22:33Z</time></trkpt><trkpt lat="44.12140107717195" lon="9.81036714787729"><ele>74.0</ele><time>2026-04-25T18:22:34Z</time></trkpt><trkpt lat="44.1213722591546" lon="9.810615382338714"><ele>74.0</ele><time>2026-04-25T18:22:35Z</time></trkpt><trkpt lat="44.12133867502078" lon="9.810896097338858"><ele>74.0</ele><time>2026-04-25T18:22:36Z</time></trkpt><trkpt lat="44.12133365079367" lon="9.81115141721211"><ele>76.66666666666667</ele><time>2026-04-25T18:22:37Z</time></trkpt><trkpt lat="44.12134321460677" lon="9.811413248071803"><ele>79.33333333333333</ele><time>2026-04-25T18:22:38Z</time></trkpt><trkpt lat="44.12138512499696" lon="9.811675731670093"><ele>82.0</ele><time>2026-04-25T18:22:39Z</time></trkpt><trkpt lat="44.121422998747775" lon="9.811953030475776"><ele>87.66666666666666</ele><time>2026-04-25T18:22:40Z</time></trkpt><trkpt lat="44.12147743541433" lon="9.812212523083074"><ele>93.33333333333333</ele><time>2026-04-25T18:22:41Z</time></trkpt><trkpt lat="44.12154329894356" lon="9.812480071811079"><ele>99.0</ele><time>2026-04-25T18:22:42Z</time></trkpt><trkpt lat="44.12162544912704" lon="9.812744685483114"><ele>105.0</ele><time>2026-04-25T18:22:43Z</time></trkpt><trkpt lat="44.12170747291759" lon="9.81301316190492"><ele>111.0</ele><time>2026-04-25T18:22:44Z</time></trkpt><trkpt lat="44.121817497235" lon="9.813259429242088"><ele>117.0</ele><time>2026-04-25T18:22:45Z</time></trkpt><trkpt lat="44.12193195909086" lon="9.813508021662214"><ele>124.0</ele><time>2026-04-25T18:22:46Z</time></trkpt><trkpt lat="44.12204071835001" lon="9.813734219818743"><ele>131.0</ele><time>2026-04-25T18:22:47Z</time></trkpt><trkpt lat="44.12217424972055" lon="9.813942937143256"><ele>138.0</ele><time>2026-04-25T18:22:48Z</time></trkpt><trkpt lat="44.122300002122586" lon="9.81417418750406"><ele>147.0</ele><time>2026-04-25T18:22:49Z</time></trkpt><trkpt lat="44.12242304454875" lon="9.814400453948675"><ele>156.0</ele><time>2026-04-25T18:22:50Z</time></trkpt><trkpt lat="44.12255463388673" lon="9.814642437931353"><ele>165.0</ele><time>2026-04-25T18:22:51.066Z</time></trkpt><trkpt lat="44.12267802117322" lon="9.814868798361267"><ele>165.0</ele><time>2026-04-25T18:22:52.057Z</time></trkpt><trkpt lat="44.122799715130455" lon="9.815092768506915"><ele>165.0</ele><time>2026-04-25T18:22:53.056Z</time></trkpt><trkpt lat="44.123192901746066" lon="9.815782237060017"><ele>165.66666666666666</ele><time>2026-04-25T18:22:56.161Z</time></trkpt><trkpt lat="44.12332954648424" lon="9.81599672208843"><ele>166.33333333333331</ele><time>2026-04-25T18:22:57.162Z</time></trkpt><trkpt lat="44.12343940751832" lon="9.816238352342129"><ele>167.0</ele><time>2026-04-25T18:22:58.161Z</time></trkpt><trkpt lat="44.12357614146224" lon="9.81645267864428"><ele>167.0</ele><time>2026-04-25T18:22:59.162Z</time></trkpt><trkpt lat="44.12368611718737" lon="9.816694520901311"><ele>167.0</ele><time>2026-04-25T18:23:00.162Z</time></trkpt><trkpt lat="44.123809323311725" lon="9.816922330247209"><ele>167.0</ele><time>2026-04-25T18:23:01.161Z</time></trkpt><trkpt lat="44.12393269674975" lon="9.817150448984414"><ele>161.33333333333331</ele><time>2026-04-25T18:23:02.162Z</time></trkpt><trkpt lat="44.12406930698788" lon="9.817364546584027"><ele>155.66666666666666</ele><time>2026-04-25T18:23:03.161Z</time></trkpt><trkpt lat="44.12419259867798" lon="9.81759251413973"><ele>150.0</ele><time>2026-04-25T18:23:04.161Z</time></trkpt><trkpt lat="44.1243025613412" lon="9.817834332270811"><ele>143.0</ele><time>2026-04-25T18:23:05.161Z</time></trkpt><trkpt lat="44.12442661435942" lon="9.81806197225897"><ele>136.0</ele><time>2026-04-25T18:23:06.162Z</time></trkpt><trkpt lat="44.12455059103676" lon="9.818288923098812"><ele>129.0</ele><time>2026-04-25T18:23:07.161Z</time></trkpt><trkpt lat="44.12468807885494" lon="9.818502432249456"><ele>129.0</ele><time>2026-04-25T18:23:08.162Z</time></trkpt><trkpt lat="44.12481178439002" lon="9.818730037828306"><ele>129.0</ele><time>2026-04-25T18:23:09.162Z</time></trkpt><trkpt lat="44.1249353195804" lon="9.818957329990276"><ele>129.0</ele><time>2026-04-25T18:23:10.161Z</time></trkpt><trkpt lat="44.12505901794897" lon="9.819184922383478"><ele>115.0</ele><time>2026-04-25T18:23:11.161Z</time></trkpt><trkpt lat="44.12516944661083" lon="9.819426474766457"><ele>101.0</ele><time>2026-04-25T18:23:12.161Z</time></trkpt><trkpt lat="44.12640430261331" lon="9.822474951548418"><ele>92.66666666666666</ele><time>2026-04-25T18:23:25.999Z</time></trkpt><trkpt lat="44.12641935661718" lon="9.822730835596365"><ele>84.33333333333333</ele><time>2026-04-25T18:23:26.999Z</time></trkpt><trkpt lat="44.12645419075558" lon="9.822856770578223"><ele>76.0</ele><time>2026-04-25T18:23:27.999Z</time></trkpt><trkpt lat="44.126501106111036" lon="9.823117683774813"><ele>76.0</ele><time>2026-04-25T18:23:28.999Z</time></trkpt><trkpt lat="44.12652866992637" lon="9.823407021155354"><ele>76.0</ele><time>2026-04-25T18:23:29.999Z</time></trkpt><trkpt lat="44.12659286176628" lon="9.823725347553653"><ele>76.0</ele><time>2026-04-25T18:23:30.999Z</time></trkpt><trkpt lat="44.12665808139923" lon="9.824025205919222"><ele>76.5</ele><time>2026-04-25T18:23:31.999Z</time></trkpt><trkpt lat="44.12672450969244" lon="9.824320143195964"><ele>77.0</ele><time>2026-04-25T18:23:32.999Z</time></trkpt><trkpt lat="44.126792070531465" lon="9.824630430390473"><ele>77.0</ele><time>2026-04-25T18:23:33.999Z</time></trkpt><trkpt lat="44.12688848054707" lon="9.824927877402455"><ele>77.0</ele><time>2026-04-25T18:23:34.999Z</time></trkpt><trkpt lat="44.12699390152817" lon="9.82522713827084"><ele>83.5</ele><time>2026-04-25T18:23:35.999Z</time></trkpt><trkpt lat="44.12710448017478" lon="9.825525051262364"><ele>90.0</ele><time>2026-04-25T18:23:36.999Z</time></trkpt><trkpt lat="44.12722240264551" lon="9.825817812233819"><ele>99.0</ele><time>2026-04-25T18:23:37.999Z</time></trkpt><trkpt lat="44.127345604413335" lon="9.826107961599083"><ele>108.0</ele><time>2026-04-25T18:23:38.999Z</time></trkpt><trkpt lat="44.1274618539637" lon="9.826396082855737"><ele>120.5</ele><time>2026-04-25T18:23:39.999Z</time></trkpt><trkpt lat="44.12760672180256" lon="9.8266623344034"><ele>133.0</ele><time>2026-04-25T18:23:40.999Z</time></trkpt><trkpt lat="44.12774338473336" lon="9.82693219676581"><ele>139.5</ele><time>2026-04-25T18:23:41.999Z</time></trkpt><trkpt lat="44.12788298141285" lon="9.827209139477514"><ele>146.0</ele><time>2026-04-25T18:23:43.049Z</time></trkpt><trkpt lat="44.12800989488528" lon="9.827464196843856"><ele>147.0</ele><time>2026-04-25T18:23:44.052Z</time></trkpt><trkpt lat="44.12813949043122" lon="9.8277236194251"><ele>148.0</ele><time>2026-04-25T18:23:45.045Z</time></trkpt><trkpt lat="44.12826418345955" lon="9.827973228151066"><ele>149.0</ele><time>2026-04-25T18:23:46.049Z</time></trkpt><trkpt lat="44.128394160032606" lon="9.828233639323297"><ele>139.0</ele><time>2026-04-25T18:23:47.045Z</time></trkpt><trkpt lat="44.12882798163004" lon="9.829027514130548"><ele>139.0</ele><time>2026-04-25T18:23:50.161Z</time></trkpt><trkpt lat="44.12895998996448" lon="9.829293901925476"><ele>139.0</ele><time>2026-04-25T18:23:51.16Z</time></trkpt><trkpt lat="44.1290749874402" lon="9.829576178012397"><ele>149.5</ele><time>2026-04-25T18:23:52.16Z</time></trkpt><trkpt lat="44.12921473341933" lon="9.82983594245913"><ele>160.0</ele><time>2026-04-25T18:23:53.161Z</time></trkpt><trkpt lat="44.12933643509225" lon="9.830111839482974"><ele>155.5</ele><time>2026-04-25T18:23:54.161Z</time></trkpt><trkpt lat="44.129436410179494" lon="9.830404206672409"><ele>151.0</ele><time>2026-04-25T18:23:55.16Z</time></trkpt><trkpt lat="44.129544037929826" lon="9.830690382828335"><ele>151.0</ele><time>2026-04-25T18:23:56.16Z</time></trkpt><trkpt lat="44.12966070931144" lon="9.83097090536739"><ele>151.0</ele><time>2026-04-25T18:23:57.16Z</time></trkpt><trkpt lat="44.12974260854507" lon="9.831274663894474"><ele>148.0</ele><time>2026-04-25T18:23:58.16Z</time></trkpt><trkpt lat="44.12983250730931" lon="9.831571869587764"><ele>145.0</ele><time>2026-04-25T18:23:59.16Z</time></trkpt><trkpt lat="44.12991702724949" lon="9.831873280443597"><ele>135.0</ele><time>2026-04-25T18:24:00.161Z</time></trkpt><trkpt lat="44.13000045464585" lon="9.832175082369798"><ele>125.0</ele><time>2026-04-25T18:24:01.16Z</time></trkpt><trkpt lat="44.130099502165024" lon="9.832468878290351"><ele>119.0</ele><time>2026-04-25T18:24:02.16Z</time></trkpt><trkpt lat="44.130181" lon="9.8327637"><ele>113.0</ele><time>2026-04-25T18:24:03.16Z</time></trkpt><trkpt lat="44.1308629590896" lon="9.835988857249014"><ele>95.66666666666666</ele><time>2026-04-25T18:24:18.998Z</time></trkpt><trkpt lat="44.130931224134144" lon="9.836243394238304"><ele>78.33333333333333</ele><time>2026-04-25T18:24:19.998Z</time></trkpt><trkpt lat="44.130875511564284" lon="9.83655601122311"><ele>61.0</ele><time>2026-04-25T18:24:20.998Z</time></trkpt><trkpt lat="44.130843708556554" lon="9.836791236279483"><ele>59.0</ele><time>2026-04-25T18:24:21.998Z</time></trkpt><trkpt lat="44.13078861773352" lon="9.837045753413275"><ele>57.0</ele><time>2026-04-25T18:24:22.998Z</time></trkpt><trkpt lat="44.13076526754505" lon="9.83731371005097"><ele>55.0</ele><time>2026-04-25T18:24:23.998Z</time></trkpt><trkpt lat="44.13074614979421" lon="9.837551574366802"><ele>57.33333333333333</ele><time>2026-04-25T18:24:24.998Z</time></trkpt><trkpt lat="44.13072171159963" lon="9.837784830194424"><ele>59.66666666666667</ele><time>2026-04-25T18:24:25.998Z</time></trkpt><trkpt lat="44.13070396822564" lon="9.83801850536337"><ele>62.0</ele><time>2026-04-25T18:24:26.998Z</time></trkpt><trkpt lat="44.13068521087411" lon="9.838246987868237"><ele>64.0</ele><time>2026-04-25T18:24:27.998Z</time></trkpt><trkpt lat="44.13066542155702" lon="9.838482956075657"><ele>66.0</ele><time>2026-04-25T18:24:28.998Z</time></trkpt><trkpt lat="44.13074334222669" lon="9.838752842200625"><ele>68.0</ele><time>2026-04-25T18:24:29.998Z</time></trkpt><trkpt lat="44.13072904653913" lon="9.838989006799777"><ele>68.0</ele><time>2026-04-25T18:24:30.998Z</time></trkpt><trkpt lat="44.13071837910182" lon="9.839218084854203"><ele>68.0</ele><time>2026-04-25T18:24:31.998Z</time></trkpt><trkpt lat="44.130729336130734" lon="9.839456431702907"><ele>68.0</ele><time>2026-04-25T18:24:32.998Z</time></trkpt><trkpt lat="44.130745811187744" lon="9.839691188659383"><ele>62.66666666666667</ele><time>2026-04-25T18:24:34Z</time></trkpt><trkpt lat="44.13077339193451" lon="9.83992814933615"><ele>57.33333333333333</ele><time>2026-04-25T18:24:35Z</time></trkpt><trkpt lat="44.13081053646336" lon="9.840162929959213"><ele>52.0</ele><time>2026-04-25T18:24:36Z</time></trkpt><trkpt lat="44.130851093187786" lon="9.840396923833682"><ele>52.0</ele><time>2026-04-25T18:24:37Z</time></trkpt><trkpt lat="44.13083469359635" lon="9.840645278972268"><ele>52.0</ele><time>2026-04-25T18:24:38Z</time></trkpt><trkpt lat="44.13086633350198" lon="9.84087098180357"><ele>52.0</ele><time>2026-04-25T18:24:39Z</time></trkpt><trkpt lat="44.13089951492858" lon="9.84109243180516"><ele>51.5</ele><time>2026-04-25T18:24:40Z</time></trkpt><trkpt lat="44.130932759674366" lon="9.841304103792186"><ele>51.0</ele><time>2026-04-25T18:24:41Z</time></trkpt><trkpt lat="44.13096438332578" lon="9.841504386538137"><ele>50.5</ele><time>2026-04-25T18:24:42Z</time></trkpt><trkpt lat="44.1309955158899" lon="9.841699975836391"><ele>50.0</ele><time>2026-04-25T18:24:43Z</time></trkpt><trkpt lat="44.13102577607842" lon="9.841890084510313"><ele>49.25</ele><time>2026-04-25T18:24:44Z</time></trkpt><trkpt lat="44.131053747815116" lon="9.842065816041538"><ele>48.5</ele><time>2026-04-25T18:24:45Z</time></trkpt><trkpt lat="44.13107885533386" lon="9.842223553280459"><ele>47.75</ele><time>2026-04-25T18:24:46Z</time></trkpt><trkpt lat="44.131110340189146" lon="9.842372566404434"><ele>47.0</ele><time>2026-04-25T18:24:47Z</time></trkpt><trkpt lat="44.13111087724666" lon="9.842523936352693"><ele>46.0</ele><time>2026-04-25T18:24:48Z</time></trkpt><trkpt lat="44.131095151473424" lon="9.842671511735164"><ele>45.0</ele><time>2026-04-25T18:24:49Z</time></trkpt><trkpt lat="44.13103679456153" lon="9.842798070951284"><ele>44.0</ele><time>2026-04-25T18:24:50Z</time></trkpt><trkpt lat="44.13101097335905" lon="9.842946665221625"><ele>43.0</ele><time>2026-04-25T18:24:51Z</time></trkpt><trkpt lat="44.1309567704799" lon="9.843077801380627"><ele>42.0</ele><time>2026-04-25T18:24:52Z</time></trkpt><trkpt lat="44.130918169140024" lon="9.843217089913288"><ele>42.0</ele><time>2026-04-25T18:24:53Z</time></trkpt><trkpt lat="44.13090300902651" lon="9.843356212728125"><ele>42.0</ele><time>2026-04-25T18:24:53.999Z</time></trkpt><trkpt lat="44.13089844991225" lon="9.843492865193362"><ele>42.0</ele><time>2026-04-25T18:24:54.999Z</time></trkpt><trkpt lat="44.13091138240714" lon="9.843637338483981"><ele>42.0</ele><time>2026-04-25T18:24:55.999Z</time></trkpt><trkpt lat="44.13094502631304" lon="9.843781078189597"><ele>42.0</ele><time>2026-04-25T18:24:56.999Z</time></trkpt><trkpt lat="44.13099468545283" lon="9.843917715686773"><ele>41.0</ele><time>2026-04-25T18:24:57.999Z</time></trkpt><trkpt lat="44.131055975658334" lon="9.84404459182069"><ele>40.0</ele><time>2026-04-25T18:24:58.999Z</time></trkpt><trkpt lat="44.13112666356274" lon="9.844161993196666"><ele>39.0</ele><time>2026-04-25T18:24:59.999Z</time></trkpt><trkpt lat="44.13119149785549" lon="9.844265654542534"><ele>38.0</ele><time>2026-04-25T18:25:00.999Z</time></trkpt><trkpt lat="44.13123810633136" lon="9.844368821432095"><ele>37.0</ele><time>2026-04-25T18:25:01.999Z</time></trkpt><trkpt lat="44.131277782577676" lon="9.844458876507334"><ele>35.800000000000004</ele><time>2026-04-25T18:25:02.999Z</time></trkpt><trkpt lat="44.13123393750749" lon="9.84459564997323"><ele>34.6</ele><time>2026-04-25T18:25:03.999Z</time></trkpt><trkpt lat="44.131226280467814" lon="9.844720675877321"><ele>33.400000000000006</ele><time>2026-04-25T18:25:04.999Z</time></trkpt><trkpt lat="44.13122036716045" lon="9.844845934729882"><ele>32.2</ele><time>2026-04-25T18:25:05.999Z</time></trkpt><trkpt lat="44.13117458249147" lon="9.844944769374099"><ele>31.0</ele><time>2026-04-25T18:25:06.999Z</time></trkpt><trkpt lat="44.13110174019435" lon="9.845022108571232"><ele>31.0</ele><time>2026-04-25T18:25:07.999Z</time></trkpt><trkpt lat="44.131005139790865" lon="9.845075742647891"><ele>31.0</ele><time>2026-04-25T18:25:08.999Z</time></trkpt><trkpt lat="44.13089595933918" lon="9.845120312409428"><ele>31.0</ele><time>2026-04-25T18:25:09.999Z</time></trkpt><trkpt lat="44.13079952996287" lon="9.845165880590601"><ele>31.0</ele><time>2026-04-25T18:25:10.999Z</time></trkpt><trkpt lat="44.13071158698198" lon="9.84520721134122"><ele>31.0</ele><time>2026-04-25T18:25:11.999Z</time></trkpt><trkpt lat="44.130616313181" lon="9.845251847360496"><ele>30.6</ele><time>2026-04-25T18:25:12.999Z</time></trkpt><trkpt lat="44.13052267030395" lon="9.845297155973798"><ele>30.200000000000003</ele><time>2026-04-25T18:25:13.999Z</time></trkpt><trkpt lat="44.130434947938724" lon="9.845343503832135"><ele>29.799999999999997</ele><time>2026-04-25T18:25:14.999Z</time></trkpt><trkpt lat="44.13035109582272" lon="9.845389783634081"><ele>29.4</ele><time>2026-04-25T18:25:15.999Z</time></trkpt><trkpt lat="44.130264891749455" lon="9.845434126488"><ele>29.0</ele><time>2026-04-25T18:25:16.999Z</time></trkpt><trkpt lat="44.130178224063265" lon="9.8454709929191"><ele>28.999999999999996</ele><time>2026-04-25T18:25:17.999Z</time></trkpt><trkpt lat="44.13008945606769" lon="9.845497031629435"><ele>29.0</ele><time>2026-04-25T18:25:18.999Z</time></trkpt><trkpt lat="44.129996775583194" lon="9.845513314555328"><ele>29.0</ele><time>2026-04-25T18:25:19.999Z</time></trkpt><trkpt lat="44.12990753786832" lon="9.845524790442328"><ele>29.0</ele><time>2026-04-25T18:25:20.999Z</time></trkpt><trkpt lat="44.129825005923884" lon="9.845540018511166"><ele>28.999999999999996</ele><time>2026-04-25T18:25:21.999Z</time></trkpt><trkpt lat="44.129744841256375" lon="9.845552357090272"><ele>29.0</ele><time>2026-04-25T18:25:22.999Z</time></trkpt><trkpt lat="44.129671735489616" lon="9.845582236809339"><ele>28.799999999999997</ele><time>2026-04-25T18:25:23.999Z</time></trkpt><trkpt lat="44.129597266539314" lon="9.845571704417946"><ele>28.599999999999998</ele><time>2026-04-25T18:25:24.999Z</time></trkpt><trkpt lat="44.12951420003004" lon="9.845574040094995"><ele>28.4</ele><time>2026-04-25T18:25:25.999Z</time></trkpt><trkpt lat="44.129406891649055" lon="9.845588239882503"><ele>28.2</ele><time>2026-04-25T18:25:26.999Z</time></trkpt><trkpt lat="44.12927618565435" lon="9.845596883037972"><ele>28.0</ele><time>2026-04-25T18:25:27.999Z</time></trkpt><trkpt lat="44.1291263524426" lon="9.845616486110815"><ele>27.666666666666668</ele><time>2026-04-25T18:25:28.999Z</time></trkpt><trkpt lat="44.128956336427144" lon="9.845646380944029"><ele>27.333333333333336</ele><time>2026-04-25T18:25:29.999Z</time></trkpt><trkpt lat="44.12879066647825" lon="9.845669690183836"><ele>27.0</ele><time>2026-04-25T18:25:30.999Z</time></trkpt><trkpt lat="44.12862088292457" lon="9.845695403922884"><ele>27.0</ele><time>2026-04-25T18:25:31.999Z</time></trkpt><trkpt lat="44.128460033433164" lon="9.845719146909053"><ele>27.0</ele><time>2026-04-25T18:25:32.999Z</time></trkpt><trkpt lat="44.12830468467892" lon="9.845741182550135"><ele>27.0</ele><time>2026-04-25T18:25:33.999Z</time></trkpt><trkpt lat="44.128156674466446" lon="9.845764793734787"><ele>25.666666666666668</ele><time>2026-04-25T18:25:34.999Z</time></trkpt><trkpt lat="44.12801105279077" lon="9.84578750837635"><ele>24.333333333333336</ele><time>2026-04-25T18:25:35.999Z</time></trkpt><trkpt lat="44.127861620259814" lon="9.84581600424883"><ele>23.0</ele><time>2026-04-25T18:25:36.999Z</time></trkpt><trkpt lat="44.12769823196308" lon="9.845843174881386"><ele>23.0</ele><time>2026-04-25T18:25:37.999Z</time></trkpt><trkpt lat="44.12752701844566" lon="9.845873045844254"><ele>23.0</ele><time>2026-04-25T18:25:38.999Z</time></trkpt><trkpt lat="44.127360810429465" lon="9.845894397540834"><ele>23.0</ele><time>2026-04-25T18:25:39.999Z</time></trkpt><trkpt lat="44.127199903581065" lon="9.845914236860878"><ele>22.666666666666668</ele><time>2026-04-25T18:25:40.999Z</time></trkpt><trkpt lat="44.127044456485706" lon="9.845937063647169"><ele>22.333333333333332</ele><time>2026-04-25T18:25:41.999Z</time></trkpt><trkpt lat="44.12689228615946" lon="9.845963167199939"><ele>22.0</ele><time>2026-04-25T18:25:42.999Z</time></trkpt><trkpt lat="44.126752791790736" lon="9.845991981597356"><ele>21.8</ele><time>2026-04-25T18:25:43.999Z</time></trkpt><trkpt lat="44.12663160448119" lon="9.84602142506196"><ele>21.6</ele><time>2026-04-25T18:25:44.999Z</time></trkpt><trkpt lat="44.12652560452447" lon="9.846052828060317"><ele>21.400000000000002</ele><time>2026-04-25T18:25:45.999Z</time></trkpt><trkpt lat="44.12643309057515" lon="9.84608075284811"><ele>21.200000000000003</ele><time>2026-04-25T18:25:46.999Z</time></trkpt><trkpt lat="44.12634944951555" lon="9.846107144618438"><ele>21.0</ele><time>2026-04-25T18:25:47.999Z</time></trkpt><trkpt lat="44.12626234063332" lon="9.846133871502623"><ele>21.0</ele><time>2026-04-25T18:25:48.999Z</time></trkpt><trkpt lat="44.12615847224593" lon="9.846160016119322"><ele>21.0</ele><time>2026-04-25T18:25:49.999Z</time></trkpt><trkpt lat="44.1260488788128" lon="9.846177529979688"><ele>21.0</ele><time>2026-04-25T18:25:50.999Z</time></trkpt><trkpt lat="44.125949387864225" lon="9.846192700582304"><ele>21.0</ele><time>2026-04-25T18:25:51.999Z</time></trkpt><trkpt lat="44.12585193994228" lon="9.846234226031022"><ele>21.0</ele><time>2026-04-25T18:25:52.999Z</time></trkpt><trkpt lat="44.125754602948064" lon="9.846302711918579"><ele>20.6</ele><time>2026-04-25T18:25:53.999Z</time></trkpt><trkpt lat="44.12564772212002" lon="9.84637712009663"><ele>20.200000000000003</ele><time>2026-04-25T18:25:54.999Z</time></trkpt><trkpt lat="44.125542829045635" lon="9.846426385021639"><ele>19.799999999999997</ele><time>2026-04-25T18:25:55.999Z</time></trkpt><trkpt lat="44.12544099312773" lon="9.84646511672551"><ele>19.4</ele><time>2026-04-25T18:25:56.999Z</time></trkpt><trkpt lat="44.12534053597221" lon="9.846497091249484"><ele>19.0</ele><time>2026-04-25T18:25:57.999Z</time></trkpt><trkpt lat="44.12521440023341" lon="9.84652018812432"><ele>19.0</ele><time>2026-04-25T18:25:58.999Z</time></trkpt><trkpt lat="44.12509115254848" lon="9.846577118376954"><ele>19.0</ele><time>2026-04-25T18:25:59.999Z</time></trkpt><trkpt lat="44.12493819555153" lon="9.846609282535713"><ele>19.0</ele><time>2026-04-25T18:26:00.999Z</time></trkpt><trkpt lat="44.12478863467897" lon="9.846639024172623"><ele>19.0</ele><time>2026-04-25T18:26:01.999Z</time></trkpt><trkpt lat="44.12465014516186" lon="9.84667706999689"><ele>18.25</ele><time>2026-04-25T18:26:02.999Z</time></trkpt><trkpt lat="44.12451276051345" lon="9.846714709735767"><ele>17.5</ele><time>2026-04-25T18:26:03.999Z</time></trkpt><trkpt lat="44.12437252783292" lon="9.84672147572285"><ele>16.75</ele><time>2026-04-25T18:26:04.999Z</time></trkpt><trkpt lat="44.124254786004" lon="9.846739677574748"><ele>16.0</ele><time>2026-04-25T18:26:05.999Z</time></trkpt><trkpt lat="44.12414890481717" lon="9.846772298025357"><ele>16.75</ele><time>2026-04-25T18:26:06.999Z</time></trkpt><trkpt lat="44.12403662968288" lon="9.846772910887871"><ele>17.5</ele><time>2026-04-25T18:26:07.999Z</time></trkpt><trkpt lat="44.123905501410235" lon="9.846782052903341"><ele>18.25</ele><time>2026-04-25T18:26:08.999Z</time></trkpt><trkpt lat="44.12378295386227" lon="9.846789502028177"><ele>19.0</ele><time>2026-04-25T18:26:09.998Z</time></trkpt><trkpt lat="44.12367073847369" lon="9.84677099593"><ele>19.0</ele><time>2026-04-25T18:26:10.998Z</time></trkpt><trkpt lat="44.123569597057354" lon="9.846788807080376"><ele>19.0</ele><time>2026-04-25T18:26:11.998Z</time></trkpt><trkpt lat="44.123480071790354" lon="9.846786820344741"><ele>19.0</ele><time>2026-04-25T18:26:12.998Z</time></trkpt><trkpt lat="44.12338181586711" lon="9.846778705268473"><ele>19.0</ele><time>2026-04-25T18:26:13.998Z</time></trkpt><trkpt lat="44.12326975812387" lon="9.846772398888756"><ele>19.0</ele><time>2026-04-25T18:26:14.998Z</time></trkpt><trkpt lat="44.123148579406376" lon="9.84677116980435"><ele>18.333333333333332</ele><time>2026-04-25T18:26:15.998Z</time></trkpt><trkpt lat="44.123046060715424" lon="9.846772209082191"><ele>17.666666666666664</ele><time>2026-04-25T18:26:16.998Z</time></trkpt><trkpt lat="44.12296986497166" lon="9.846756360734236"><ele>17.0</ele><time>2026-04-25T18:26:17.998Z</time></trkpt><trkpt lat="44.12288025702402" lon="9.84672883154985"><ele>16.333333333333332</ele><time>2026-04-25T18:26:19.998Z</time></trkpt><trkpt lat="44.12293097264889" lon="9.846631215017366"><ele>15.666666666666666</ele><time>2026-04-25T18:26:21.998Z</time></trkpt><trkpt lat="44.122933965361106" lon="9.846509537207382"><ele>15.0</ele><time>2026-04-25T18:26:22.998Z</time></trkpt><trkpt lat="44.12294769778871" lon="9.846389392317436"><ele>15.0</ele><time>2026-04-25T18:26:23.998Z</time></trkpt><trkpt lat="44.12296092889368" lon="9.846291454547673"><ele>15.0</ele><time>2026-04-25T18:26:24.998Z</time></trkpt><trkpt lat="44.12298871419367" lon="9.846145309281166"><ele>15.0</ele><time>2026-04-25T18:26:26.998Z</time></trkpt><trkpt lat="44.12299951436439" lon="9.846037471994013"><ele>15.0</ele><time>2026-04-25T18:26:27.998Z</time></trkpt><trkpt lat="44.12302149604758" lon="9.84587734892203"><ele>15.0</ele><time>2026-04-25T18:26:28.998Z</time></trkpt><trkpt lat="44.123035081098735" lon="9.845686893015143"><ele>15.0</ele><time>2026-04-25T18:26:29.998Z</time></trkpt><trkpt lat="44.123053078740554" lon="9.845489406416844"><ele>15.0</ele><time>2026-04-25T18:26:30.998Z</time></trkpt><trkpt lat="44.12307791791452" lon="9.845309451149934"><ele>15.0</ele><time>2026-04-25T18:26:31.998Z</time></trkpt><trkpt lat="44.12309926235683" lon="9.845148122634571"><ele>15.0</ele><time>2026-04-25T18:26:32.998Z</time></trkpt><trkpt lat="44.123115549637724" lon="9.845002623242506"><ele>14.8</ele><time>2026-04-25T18:26:33.998Z</time></trkpt><trkpt lat="44.12313172745787" lon="9.844875630004745"><ele>14.6</ele><time>2026-04-25T18:26:34.998Z</time></trkpt><trkpt lat="44.12314476946908" lon="9.844768247736582"><ele>14.399999999999999</ele><time>2026-04-25T18:26:35.998Z</time></trkpt><trkpt lat="44.12318293101461" lon="9.84469178335953"><ele>14.2</ele><time>2026-04-25T18:26:37.998Z</time></trkpt><trkpt lat="44.123244733078444" lon="9.844806071992364"><ele>14.0</ele><time>2026-04-25T18:26:39.999Z</time></trkpt><trkpt lat="44.12337495580365" lon="9.84483395860485"><ele>14.000000000000002</ele><time>2026-04-25T18:26:41.999Z</time></trkpt><trkpt lat="44.12346919612015" lon="9.844847691921531"><ele>14.0</ele><time>2026-04-25T18:26:42.999Z</time></trkpt><trkpt lat="44.12354202922835" lon="9.844876399620096"><ele>14.0</ele><time>2026-04-25T18:26:43.999Z</time></trkpt><trkpt lat="44.12363744171548" lon="9.844861360613432"><ele>14.0</ele><time>2026-04-25T18:26:45.999Z</time></trkpt><trkpt lat="44.12366087026678" lon="9.84472323847093"><ele>14.000000000000002</ele><time>2026-04-25T18:26:47.999Z</time></trkpt><trkpt lat="44.123665502606514" lon="9.844614184488576"><ele>14.0</ele><time>2026-04-25T18:26:48.999Z</time></trkpt><trkpt lat="44.12367103660231" lon="9.844513665031924"><ele>14.0</ele><time>2026-04-25T18:26:49.999Z</time></trkpt><trkpt lat="44.123620164864285" lon="9.844407926733563"><ele>14.0</ele><time>2026-04-25T18:26:51.999Z</time></trkpt><trkpt lat="44.12351329966394" lon="9.844412886725504"><ele>14.0</ele><time>2026-04-25T18:26:53.999Z</time></trkpt><trkpt lat="44.123430329357106" lon="9.844394877979104"><ele>14.0</ele><time>2026-04-25T18:26:55.999Z</time></trkpt><trkpt lat="44.1233358767467" lon="9.844370940477356"><ele>14.0</ele><time>2026-04-25T18:26:58.999Z</time></trkpt></trkseg></trk></gpx>